<?xml version="1.0" encoding="UTF-8"?>
<gpx version="1.1" creator="https://www.youtrack.es" xsi:schemaLocation="http://www.topografix.com/GPX/1/1 http://www.topografix.com/GPX/1/1/gpx.xsd http://www.garmin.com/xmlschemas/GpxExtensions/v3 http://www.garmin.com/xmlschemas/GpxExtensionsv3.xsd http://www.garmin.com/xmlschemas/TrackPointExtension/v1 http://www.garmin.com/xmlschemas/TrackPointExtensionv1.xsd" xmlns:gpxtpx="http://www.garmin.com/xmlschemas/TrackPointExtension/v1" xmlns:gpxx="http://www.garmin.com/xmlschemas/GpxExtensions/v3" xmlns:xsi="http://www.w3.org/2001/XMLSchema-instance">
  <metadata>
    <link href="https://www.youtrack.es">
      <text>YouTrack.es</text>
    </link>
    <time>2026-05-08T00:13:20Z</time>
  </metadata>
  <trk>
    <src>https://www.youtrack.es</src>
    <link href="https://www.youtrack.es/ruta/21241-domingueando">
      <text>YouTrack.es</text>
    </link>
    <trkseg>
      <trkpt lat="37.2924100" lon="-2.4929960">
        <ele>1603.6</ele>
        <time>2021-04-18T10:24:53Z</time>
      </trkpt>
      <trkpt lat="37.2924090" lon="-2.4929970">
        <ele>1603.6</ele>
        <time>2021-04-18T10:24:54Z</time>
      </trkpt>
      <trkpt lat="37.2924080" lon="-2.4929970">
        <ele>1604.4</ele>
        <time>2021-04-18T10:25:04Z</time>
      </trkpt>
      <trkpt lat="37.2924080" lon="-2.4929980">
        <ele>1604.6</ele>
        <time>2021-04-18T10:25:05Z</time>
      </trkpt>
      <trkpt lat="37.2924070" lon="-2.4929990">
        <ele>1605.0</ele>
        <time>2021-04-18T10:25:08Z</time>
      </trkpt>
      <trkpt lat="37.2924060" lon="-2.4930000">
        <ele>1605.6</ele>
        <time>2021-04-18T10:25:11Z</time>
      </trkpt>
      <trkpt lat="37.2924050" lon="-2.4930000">
        <ele>1605.8</ele>
        <time>2021-04-18T10:25:13Z</time>
      </trkpt>
      <trkpt lat="37.2924040" lon="-2.4930010">
        <ele>1606.0</ele>
        <time>2021-04-18T10:25:18Z</time>
      </trkpt>
      <trkpt lat="37.2924030" lon="-2.4930020">
        <ele>1606.0</ele>
        <time>2021-04-18T10:25:22Z</time>
      </trkpt>
      <trkpt lat="37.2924030" lon="-2.4930030">
        <ele>1606.2</ele>
        <time>2021-04-18T10:25:29Z</time>
      </trkpt>
      <trkpt lat="37.2924020" lon="-2.4930030">
        <ele>1606.6</ele>
        <time>2021-04-18T10:25:30Z</time>
      </trkpt>
      <trkpt lat="37.2924010" lon="-2.4930040">
        <ele>1606.6</ele>
        <time>2021-04-18T10:25:31Z</time>
      </trkpt>
      <trkpt lat="37.2924000" lon="-2.4930050">
        <ele>1607.0</ele>
        <time>2021-04-18T10:25:32Z</time>
      </trkpt>
      <trkpt lat="37.2923990" lon="-2.4930060">
        <ele>1607.6</ele>
        <time>2021-04-18T10:25:34Z</time>
      </trkpt>
      <trkpt lat="37.2923980" lon="-2.4930060">
        <ele>1607.8</ele>
        <time>2021-04-18T10:25:35Z</time>
      </trkpt>
      <trkpt lat="37.2923980" lon="-2.4930070">
        <ele>1608.2</ele>
        <time>2021-04-18T10:25:37Z</time>
      </trkpt>
      <trkpt lat="37.2923970" lon="-2.4930080">
        <ele>1609.0</ele>
        <time>2021-04-18T10:25:42Z</time>
      </trkpt>
      <trkpt lat="37.2923960" lon="-2.4930090">
        <ele>1609.2</ele>
        <time>2021-04-18T10:25:44Z</time>
      </trkpt>
      <trkpt lat="37.2923950" lon="-2.4930090">
        <ele>1610.0</ele>
        <time>2021-04-18T10:25:49Z</time>
      </trkpt>
      <trkpt lat="37.2923940" lon="-2.4930100">
        <ele>1610.0</ele>
        <time>2021-04-18T10:25:50Z</time>
      </trkpt>
      <trkpt lat="37.2923930" lon="-2.4930110">
        <ele>1610.0</ele>
        <time>2021-04-18T10:25:53Z</time>
      </trkpt>
      <trkpt lat="37.2923930" lon="-2.4930120">
        <ele>1610.0</ele>
        <time>2021-04-18T10:25:56Z</time>
      </trkpt>
      <trkpt lat="37.2923920" lon="-2.4930120">
        <ele>1610.0</ele>
        <time>2021-04-18T10:25:59Z</time>
      </trkpt>
      <trkpt lat="37.2923910" lon="-2.4930130">
        <ele>1610.4</ele>
        <time>2021-04-18T10:26:07Z</time>
      </trkpt>
      <trkpt lat="37.2923900" lon="-2.4930140">
        <ele>1610.8</ele>
        <time>2021-04-18T10:26:08Z</time>
      </trkpt>
      <trkpt lat="37.2923890" lon="-2.4930140">
        <ele>1611.2</ele>
        <time>2021-04-18T10:26:09Z</time>
      </trkpt>
      <trkpt lat="37.2923880" lon="-2.4930150">
        <ele>1611.6</ele>
        <time>2021-04-18T10:26:11Z</time>
      </trkpt>
      <trkpt lat="37.2923880" lon="-2.4930160">
        <ele>1611.6</ele>
        <time>2021-04-18T10:26:13Z</time>
      </trkpt>
      <trkpt lat="37.2923870" lon="-2.4930170">
        <ele>1612.4</ele>
        <time>2021-04-18T10:26:16Z</time>
      </trkpt>
      <trkpt lat="37.2923860" lon="-2.4930170">
        <ele>1612.6</ele>
        <time>2021-04-18T10:26:17Z</time>
      </trkpt>
      <trkpt lat="37.2923850" lon="-2.4930180">
        <ele>1613.0</ele>
        <time>2021-04-18T10:26:19Z</time>
      </trkpt>
      <trkpt lat="37.2923840" lon="-2.4930190">
        <ele>1613.2</ele>
        <time>2021-04-18T10:26:23Z</time>
      </trkpt>
      <trkpt lat="37.2923830" lon="-2.4930200">
        <ele>1613.4</ele>
        <time>2021-04-18T10:26:24Z</time>
      </trkpt>
      <trkpt lat="37.2923830" lon="-2.4930200">
        <ele>1613.6</ele>
        <time>2021-04-18T10:26:27Z</time>
      </trkpt>
      <trkpt lat="37.2923820" lon="-2.4930210">
        <ele>1614.6</ele>
        <time>2021-04-18T10:26:36Z</time>
      </trkpt>
      <trkpt lat="37.2923810" lon="-2.4930220">
        <ele>1614.8</ele>
        <time>2021-04-18T10:26:41Z</time>
      </trkpt>
      <trkpt lat="37.2923800" lon="-2.4930230">
        <ele>1615.4</ele>
        <time>2021-04-18T10:26:45Z</time>
      </trkpt>
      <trkpt lat="37.2923790" lon="-2.4930230">
        <ele>1615.4</ele>
        <time>2021-04-18T10:26:49Z</time>
      </trkpt>
      <trkpt lat="37.2923780" lon="-2.4930240">
        <ele>1615.4</ele>
        <time>2021-04-18T10:26:50Z</time>
      </trkpt>
      <trkpt lat="37.2923780" lon="-2.4930250">
        <ele>1615.2</ele>
        <time>2021-04-18T10:26:51Z</time>
      </trkpt>
      <trkpt lat="37.2923770" lon="-2.4930260">
        <ele>1615.0</ele>
        <time>2021-04-18T10:26:52Z</time>
      </trkpt>
      <trkpt lat="37.2923760" lon="-2.4930260">
        <ele>1613.8</ele>
        <time>2021-04-18T10:26:54Z</time>
      </trkpt>
      <trkpt lat="37.2923750" lon="-2.4930270">
        <ele>1613.6</ele>
        <time>2021-04-18T10:26:55Z</time>
      </trkpt>
      <trkpt lat="37.2923740" lon="-2.4930280">
        <ele>1613.2</ele>
        <time>2021-04-18T10:26:56Z</time>
      </trkpt>
      <trkpt lat="37.2923730" lon="-2.4930280">
        <ele>1612.6</ele>
        <time>2021-04-18T10:26:59Z</time>
      </trkpt>
      <trkpt lat="37.2923730" lon="-2.4930290">
        <ele>1612.6</ele>
        <time>2021-04-18T10:27:03Z</time>
      </trkpt>
      <trkpt lat="37.2923720" lon="-2.4930300">
        <ele>1612.6</ele>
        <time>2021-04-18T10:27:05Z</time>
      </trkpt>
      <trkpt lat="37.2923710" lon="-2.4930310">
        <ele>1612.6</ele>
        <time>2021-04-18T10:27:06Z</time>
      </trkpt>
      <trkpt lat="37.2923700" lon="-2.4930310">
        <ele>1612.6</ele>
        <time>2021-04-18T10:27:08Z</time>
      </trkpt>
      <trkpt lat="37.2923690" lon="-2.4930320">
        <ele>1612.6</ele>
        <time>2021-04-18T10:27:09Z</time>
      </trkpt>
      <trkpt lat="37.2923680" lon="-2.4930330">
        <ele>1612.2</ele>
        <time>2021-04-18T10:27:12Z</time>
      </trkpt>
      <trkpt lat="37.2923680" lon="-2.4930340">
        <ele>1612.0</ele>
        <time>2021-04-18T10:27:13Z</time>
      </trkpt>
      <trkpt lat="37.2923670" lon="-2.4930340">
        <ele>1611.8</ele>
        <time>2021-04-18T10:27:14Z</time>
      </trkpt>
      <trkpt lat="37.2923660" lon="-2.4930350">
        <ele>1611.6</ele>
        <time>2021-04-18T10:27:16Z</time>
      </trkpt>
      <trkpt lat="37.2923650" lon="-2.4930360">
        <ele>1611.2</ele>
        <time>2021-04-18T10:27:17Z</time>
      </trkpt>
      <trkpt lat="37.2923640" lon="-2.4930370">
        <ele>1611.0</ele>
        <time>2021-04-18T10:27:18Z</time>
      </trkpt>
      <trkpt lat="37.2923630" lon="-2.4930370">
        <ele>1610.6</ele>
        <time>2021-04-18T10:27:20Z</time>
      </trkpt>
      <trkpt lat="37.2923630" lon="-2.4930380">
        <ele>1610.2</ele>
        <time>2021-04-18T10:27:21Z</time>
      </trkpt>
      <trkpt lat="37.2923620" lon="-2.4930390">
        <ele>1609.6</ele>
        <time>2021-04-18T10:27:22Z</time>
      </trkpt>
      <trkpt lat="37.2923610" lon="-2.4930400">
        <ele>1608.4</ele>
        <time>2021-04-18T10:27:24Z</time>
      </trkpt>
      <trkpt lat="37.2923600" lon="-2.4930400">
        <ele>1608.0</ele>
        <time>2021-04-18T10:27:25Z</time>
      </trkpt>
      <trkpt lat="37.2923590" lon="-2.4930410">
        <ele>1607.4</ele>
        <time>2021-04-18T10:27:27Z</time>
      </trkpt>
      <trkpt lat="37.2923580" lon="-2.4930420">
        <ele>1607.4</ele>
        <time>2021-04-18T10:27:28Z</time>
      </trkpt>
      <trkpt lat="37.2923580" lon="-2.4930430">
        <ele>1607.2</ele>
        <time>2021-04-18T10:27:31Z</time>
      </trkpt>
      <trkpt lat="37.2923570" lon="-2.4930430">
        <ele>1605.8</ele>
        <time>2021-04-18T10:27:33Z</time>
      </trkpt>
      <trkpt lat="37.2923560" lon="-2.4930440">
        <ele>1605.2</ele>
        <time>2021-04-18T10:27:34Z</time>
      </trkpt>
      <trkpt lat="37.2922470" lon="-2.4931410">
        <ele>1604.8</ele>
        <time>2021-04-18T10:27:36Z</time>
      </trkpt>
      <trkpt lat="37.2922000" lon="-2.4932480">
        <ele>1604.8</ele>
        <time>2021-04-18T10:27:37Z</time>
      </trkpt>
      <trkpt lat="37.2920810" lon="-2.4932750">
        <ele>1603.8</ele>
        <time>2021-04-18T10:27:39Z</time>
      </trkpt>
      <trkpt lat="37.2920180" lon="-2.4933210">
        <ele>1603.0</ele>
        <time>2021-04-18T10:27:40Z</time>
      </trkpt>
      <trkpt lat="37.2919610" lon="-2.4933790">
        <ele>1602.4</ele>
        <time>2021-04-18T10:27:41Z</time>
      </trkpt>
      <trkpt lat="37.2919050" lon="-2.4934450">
        <ele>1602.2</ele>
        <time>2021-04-18T10:27:42Z</time>
      </trkpt>
      <trkpt lat="37.2918470" lon="-2.4935140">
        <ele>1602.2</ele>
        <time>2021-04-18T10:27:43Z</time>
      </trkpt>
      <trkpt lat="37.2917920" lon="-2.4935640">
        <ele>1601.8</ele>
        <time>2021-04-18T10:27:44Z</time>
      </trkpt>
      <trkpt lat="37.2916420" lon="-2.4937040">
        <ele>1602.2</ele>
        <time>2021-04-18T10:27:47Z</time>
      </trkpt>
      <trkpt lat="37.2916020" lon="-2.4937470">
        <ele>1602.2</ele>
        <time>2021-04-18T10:27:48Z</time>
      </trkpt>
      <trkpt lat="37.2915700" lon="-2.4937920">
        <ele>1602.0</ele>
        <time>2021-04-18T10:27:49Z</time>
      </trkpt>
      <trkpt lat="37.2915390" lon="-2.4938420">
        <ele>1602.0</ele>
        <time>2021-04-18T10:27:50Z</time>
      </trkpt>
      <trkpt lat="37.2915150" lon="-2.4939030">
        <ele>1601.8</ele>
        <time>2021-04-18T10:27:51Z</time>
      </trkpt>
      <trkpt lat="37.2914960" lon="-2.4939620">
        <ele>1601.2</ele>
        <time>2021-04-18T10:27:52Z</time>
      </trkpt>
      <trkpt lat="37.2914880" lon="-2.4940230">
        <ele>1601.2</ele>
        <time>2021-04-18T10:27:53Z</time>
      </trkpt>
      <trkpt lat="37.2914960" lon="-2.4940770">
        <ele>1600.8</ele>
        <time>2021-04-18T10:27:54Z</time>
      </trkpt>
      <trkpt lat="37.2915300" lon="-2.4941190">
        <ele>1600.8</ele>
        <time>2021-04-18T10:27:55Z</time>
      </trkpt>
      <trkpt lat="37.2915720" lon="-2.4941400">
        <ele>1600.6</ele>
        <time>2021-04-18T10:27:56Z</time>
      </trkpt>
      <trkpt lat="37.2916180" lon="-2.4941580">
        <ele>1600.6</ele>
        <time>2021-04-18T10:27:57Z</time>
      </trkpt>
      <trkpt lat="37.2917030" lon="-2.4941910">
        <ele>1600.4</ele>
        <time>2021-04-18T10:27:59Z</time>
      </trkpt>
      <trkpt lat="37.2917450" lon="-2.4942080">
        <ele>1600.4</ele>
        <time>2021-04-18T10:28:00Z</time>
      </trkpt>
      <trkpt lat="37.2917850" lon="-2.4942280">
        <ele>1600.2</ele>
        <time>2021-04-18T10:28:01Z</time>
      </trkpt>
      <trkpt lat="37.2918220" lon="-2.4942490">
        <ele>1600.2</ele>
        <time>2021-04-18T10:28:02Z</time>
      </trkpt>
      <trkpt lat="37.2918620" lon="-2.4942620">
        <ele>1600.2</ele>
        <time>2021-04-18T10:28:03Z</time>
      </trkpt>
      <trkpt lat="37.2919010" lon="-2.4942720">
        <ele>1600.2</ele>
        <time>2021-04-18T10:28:04Z</time>
      </trkpt>
      <trkpt lat="37.2919410" lon="-2.4942780">
        <ele>1600.0</ele>
        <time>2021-04-18T10:28:05Z</time>
      </trkpt>
      <trkpt lat="37.2919850" lon="-2.4942850">
        <ele>1599.8</ele>
        <time>2021-04-18T10:28:06Z</time>
      </trkpt>
      <trkpt lat="37.2920290" lon="-2.4942910">
        <ele>1599.8</ele>
        <time>2021-04-18T10:28:07Z</time>
      </trkpt>
      <trkpt lat="37.2921450" lon="-2.4943000">
        <ele>1599.4</ele>
        <time>2021-04-18T10:28:10Z</time>
      </trkpt>
      <trkpt lat="37.2922290" lon="-2.4943100">
        <ele>1599.2</ele>
        <time>2021-04-18T10:28:12Z</time>
      </trkpt>
      <trkpt lat="37.2922700" lon="-2.4943090">
        <ele>1599.2</ele>
        <time>2021-04-18T10:28:13Z</time>
      </trkpt>
      <trkpt lat="37.2924600" lon="-2.4942780">
        <ele>1599.2</ele>
        <time>2021-04-18T10:28:18Z</time>
      </trkpt>
      <trkpt lat="37.2924950" lon="-2.4942560">
        <ele>1599.2</ele>
        <time>2021-04-18T10:28:19Z</time>
      </trkpt>
      <trkpt lat="37.2925370" lon="-2.4942290">
        <ele>1599.2</ele>
        <time>2021-04-18T10:28:20Z</time>
      </trkpt>
      <trkpt lat="37.2925790" lon="-2.4942020">
        <ele>1599.2</ele>
        <time>2021-04-18T10:28:21Z</time>
      </trkpt>
      <trkpt lat="37.2926240" lon="-2.4941780">
        <ele>1599.0</ele>
        <time>2021-04-18T10:28:22Z</time>
      </trkpt>
      <trkpt lat="37.2926830" lon="-2.4941520">
        <ele>1599.0</ele>
        <time>2021-04-18T10:28:23Z</time>
      </trkpt>
      <trkpt lat="37.2929130" lon="-2.4940640">
        <ele>1598.2</ele>
        <time>2021-04-18T10:28:27Z</time>
      </trkpt>
      <trkpt lat="37.2929660" lon="-2.4940550">
        <ele>1598.0</ele>
        <time>2021-04-18T10:28:28Z</time>
      </trkpt>
      <trkpt lat="37.2933070" lon="-2.4939920">
        <ele>1596.8</ele>
        <time>2021-04-18T10:28:32Z</time>
      </trkpt>
      <trkpt lat="37.2934790" lon="-2.4939700">
        <ele>1596.0</ele>
        <time>2021-04-18T10:28:34Z</time>
      </trkpt>
      <trkpt lat="37.2935770" lon="-2.4939560">
        <ele>1595.6</ele>
        <time>2021-04-18T10:28:35Z</time>
      </trkpt>
      <trkpt lat="37.2936960" lon="-2.4939360">
        <ele>1594.0</ele>
        <time>2021-04-18T10:28:36Z</time>
      </trkpt>
      <trkpt lat="37.2937790" lon="-2.4939240">
        <ele>1592.8</ele>
        <time>2021-04-18T10:28:37Z</time>
      </trkpt>
      <trkpt lat="37.2940990" lon="-2.4938540">
        <ele>1591.4</ele>
        <time>2021-04-18T10:28:40Z</time>
      </trkpt>
      <trkpt lat="37.2942220" lon="-2.4938000">
        <ele>1591.0</ele>
        <time>2021-04-18T10:28:41Z</time>
      </trkpt>
      <trkpt lat="37.2942970" lon="-2.4937460">
        <ele>1589.4</ele>
        <time>2021-04-18T10:28:42Z</time>
      </trkpt>
      <trkpt lat="37.2943860" lon="-2.4936700">
        <ele>1589.0</ele>
        <time>2021-04-18T10:28:43Z</time>
      </trkpt>
      <trkpt lat="37.2944660" lon="-2.4935850">
        <ele>1587.8</ele>
        <time>2021-04-18T10:28:44Z</time>
      </trkpt>
      <trkpt lat="37.2946110" lon="-2.4934140">
        <ele>1585.8</ele>
        <time>2021-04-18T10:28:46Z</time>
      </trkpt>
      <trkpt lat="37.2946820" lon="-2.4933350">
        <ele>1585.4</ele>
        <time>2021-04-18T10:28:47Z</time>
      </trkpt>
      <trkpt lat="37.2947690" lon="-2.4932480">
        <ele>1584.4</ele>
        <time>2021-04-18T10:28:48Z</time>
      </trkpt>
      <trkpt lat="37.2948310" lon="-2.4931970">
        <ele>1583.8</ele>
        <time>2021-04-18T10:28:49Z</time>
      </trkpt>
      <trkpt lat="37.2949120" lon="-2.4931380">
        <ele>1583.6</ele>
        <time>2021-04-18T10:28:50Z</time>
      </trkpt>
      <trkpt lat="37.2949960" lon="-2.4930870">
        <ele>1583.0</ele>
        <time>2021-04-18T10:28:51Z</time>
      </trkpt>
      <trkpt lat="37.2951700" lon="-2.4929980">
        <ele>1582.6</ele>
        <time>2021-04-18T10:28:53Z</time>
      </trkpt>
      <trkpt lat="37.2952540" lon="-2.4929580">
        <ele>1582.4</ele>
        <time>2021-04-18T10:28:54Z</time>
      </trkpt>
      <trkpt lat="37.2953340" lon="-2.4929210">
        <ele>1581.8</ele>
        <time>2021-04-18T10:28:55Z</time>
      </trkpt>
      <trkpt lat="37.2954110" lon="-2.4928920">
        <ele>1581.4</ele>
        <time>2021-04-18T10:28:56Z</time>
      </trkpt>
      <trkpt lat="37.2955880" lon="-2.4928490">
        <ele>1580.6</ele>
        <time>2021-04-18T10:28:58Z</time>
      </trkpt>
      <trkpt lat="37.2956750" lon="-2.4928290">
        <ele>1580.0</ele>
        <time>2021-04-18T10:28:59Z</time>
      </trkpt>
      <trkpt lat="37.2957590" lon="-2.4928060">
        <ele>1579.4</ele>
        <time>2021-04-18T10:29:00Z</time>
      </trkpt>
      <trkpt lat="37.2958420" lon="-2.4927820">
        <ele>1578.6</ele>
        <time>2021-04-18T10:29:01Z</time>
      </trkpt>
      <trkpt lat="37.2959180" lon="-2.4927590">
        <ele>1578.2</ele>
        <time>2021-04-18T10:29:02Z</time>
      </trkpt>
      <trkpt lat="37.2959930" lon="-2.4927350">
        <ele>1577.8</ele>
        <time>2021-04-18T10:29:03Z</time>
      </trkpt>
      <trkpt lat="37.2960680" lon="-2.4927140">
        <ele>1577.6</ele>
        <time>2021-04-18T10:29:04Z</time>
      </trkpt>
      <trkpt lat="37.2961420" lon="-2.4926940">
        <ele>1577.0</ele>
        <time>2021-04-18T10:29:05Z</time>
      </trkpt>
      <trkpt lat="37.2962110" lon="-2.4926730">
        <ele>1576.8</ele>
        <time>2021-04-18T10:29:06Z</time>
      </trkpt>
      <trkpt lat="37.2962810" lon="-2.4926550">
        <ele>1576.4</ele>
        <time>2021-04-18T10:29:07Z</time>
      </trkpt>
      <trkpt lat="37.2963520" lon="-2.4926400">
        <ele>1576.0</ele>
        <time>2021-04-18T10:29:08Z</time>
      </trkpt>
      <trkpt lat="37.2964240" lon="-2.4926250">
        <ele>1575.8</ele>
        <time>2021-04-18T10:29:09Z</time>
      </trkpt>
      <trkpt lat="37.2967350" lon="-2.4925780">
        <ele>1574.8</ele>
        <time>2021-04-18T10:29:13Z</time>
      </trkpt>
      <trkpt lat="37.2968340" lon="-2.4925660">
        <ele>1574.8</ele>
        <time>2021-04-18T10:29:14Z</time>
      </trkpt>
      <trkpt lat="37.2970800" lon="-2.4925570">
        <ele>1573.4</ele>
        <time>2021-04-18T10:29:17Z</time>
      </trkpt>
      <trkpt lat="37.2971400" lon="-2.4925660">
        <ele>1572.6</ele>
        <time>2021-04-18T10:29:18Z</time>
      </trkpt>
      <trkpt lat="37.2972140" lon="-2.4925730">
        <ele>1572.0</ele>
        <time>2021-04-18T10:29:19Z</time>
      </trkpt>
      <trkpt lat="37.2973550" lon="-2.4925820">
        <ele>1571.2</ele>
        <time>2021-04-18T10:29:21Z</time>
      </trkpt>
      <trkpt lat="37.2974210" lon="-2.4925760">
        <ele>1570.8</ele>
        <time>2021-04-18T10:29:22Z</time>
      </trkpt>
      <trkpt lat="37.2974850" lon="-2.4925530">
        <ele>1570.6</ele>
        <time>2021-04-18T10:29:23Z</time>
      </trkpt>
      <trkpt lat="37.2975490" lon="-2.4925230">
        <ele>1570.4</ele>
        <time>2021-04-18T10:29:24Z</time>
      </trkpt>
      <trkpt lat="37.2976760" lon="-2.4924670">
        <ele>1570.0</ele>
        <time>2021-04-18T10:29:26Z</time>
      </trkpt>
      <trkpt lat="37.2977290" lon="-2.4924550">
        <ele>1569.8</ele>
        <time>2021-04-18T10:29:27Z</time>
      </trkpt>
      <trkpt lat="37.2977720" lon="-2.4924450">
        <ele>1569.8</ele>
        <time>2021-04-18T10:29:28Z</time>
      </trkpt>
      <trkpt lat="37.2978120" lon="-2.4924440">
        <ele>1569.8</ele>
        <time>2021-04-18T10:29:29Z</time>
      </trkpt>
      <trkpt lat="37.2978510" lon="-2.4924460">
        <ele>1569.8</ele>
        <time>2021-04-18T10:29:30Z</time>
      </trkpt>
      <trkpt lat="37.2978900" lon="-2.4924480">
        <ele>1569.8</ele>
        <time>2021-04-18T10:29:31Z</time>
      </trkpt>
      <trkpt lat="37.2979200" lon="-2.4924470">
        <ele>1570.0</ele>
        <time>2021-04-18T10:29:32Z</time>
      </trkpt>
      <trkpt lat="37.2979540" lon="-2.4924460">
        <ele>1570.2</ele>
        <time>2021-04-18T10:29:33Z</time>
      </trkpt>
      <trkpt lat="37.2979860" lon="-2.4924490">
        <ele>1570.4</ele>
        <time>2021-04-18T10:29:34Z</time>
      </trkpt>
      <trkpt lat="37.2980170" lon="-2.4924500">
        <ele>1570.4</ele>
        <time>2021-04-18T10:29:35Z</time>
      </trkpt>
      <trkpt lat="37.2980440" lon="-2.4924530">
        <ele>1570.4</ele>
        <time>2021-04-18T10:29:36Z</time>
      </trkpt>
      <trkpt lat="37.2980730" lon="-2.4924570">
        <ele>1570.4</ele>
        <time>2021-04-18T10:29:37Z</time>
      </trkpt>
      <trkpt lat="37.2980950" lon="-2.4924580">
        <ele>1570.6</ele>
        <time>2021-04-18T10:29:38Z</time>
      </trkpt>
      <trkpt lat="37.2981180" lon="-2.4924600">
        <ele>1570.6</ele>
        <time>2021-04-18T10:29:39Z</time>
      </trkpt>
      <trkpt lat="37.2981430" lon="-2.4924620">
        <ele>1570.6</ele>
        <time>2021-04-18T10:29:40Z</time>
      </trkpt>
      <trkpt lat="37.2981890" lon="-2.4924710">
        <ele>1570.8</ele>
        <time>2021-04-18T10:29:42Z</time>
      </trkpt>
      <trkpt lat="37.2982080" lon="-2.4924710">
        <ele>1571.0</ele>
        <time>2021-04-18T10:29:43Z</time>
      </trkpt>
      <trkpt lat="37.2982240" lon="-2.4924680">
        <ele>1571.0</ele>
        <time>2021-04-18T10:29:44Z</time>
      </trkpt>
      <trkpt lat="37.2982400" lon="-2.4924660">
        <ele>1571.0</ele>
        <time>2021-04-18T10:29:45Z</time>
      </trkpt>
      <trkpt lat="37.2982580" lon="-2.4924610">
        <ele>1571.2</ele>
        <time>2021-04-18T10:29:46Z</time>
      </trkpt>
      <trkpt lat="37.2983230" lon="-2.4924540">
        <ele>1571.8</ele>
        <time>2021-04-18T10:29:49Z</time>
      </trkpt>
      <trkpt lat="37.2983400" lon="-2.4924520">
        <ele>1572.2</ele>
        <time>2021-04-18T10:29:50Z</time>
      </trkpt>
      <trkpt lat="37.2983610" lon="-2.4924550">
        <ele>1572.4</ele>
        <time>2021-04-18T10:29:51Z</time>
      </trkpt>
      <trkpt lat="37.2983830" lon="-2.4924580">
        <ele>1572.6</ele>
        <time>2021-04-18T10:29:52Z</time>
      </trkpt>
      <trkpt lat="37.2984000" lon="-2.4924590">
        <ele>1572.8</ele>
        <time>2021-04-18T10:29:53Z</time>
      </trkpt>
      <trkpt lat="37.2984210" lon="-2.4924630">
        <ele>1572.8</ele>
        <time>2021-04-18T10:29:54Z</time>
      </trkpt>
      <trkpt lat="37.2984400" lon="-2.4924570">
        <ele>1572.8</ele>
        <time>2021-04-18T10:29:55Z</time>
      </trkpt>
      <trkpt lat="37.2984550" lon="-2.4924520">
        <ele>1573.0</ele>
        <time>2021-04-18T10:29:56Z</time>
      </trkpt>
      <trkpt lat="37.2984690" lon="-2.4924500">
        <ele>1573.0</ele>
        <time>2021-04-18T10:29:57Z</time>
      </trkpt>
      <trkpt lat="37.2985040" lon="-2.4924530">
        <ele>1573.4</ele>
        <time>2021-04-18T10:29:59Z</time>
      </trkpt>
      <trkpt lat="37.2985200" lon="-2.4924540">
        <ele>1573.4</ele>
        <time>2021-04-18T10:30:00Z</time>
      </trkpt>
      <trkpt lat="37.2985340" lon="-2.4924530">
        <ele>1573.6</ele>
        <time>2021-04-18T10:30:01Z</time>
      </trkpt>
      <trkpt lat="37.2985480" lon="-2.4924520">
        <ele>1573.8</ele>
        <time>2021-04-18T10:30:02Z</time>
      </trkpt>
      <trkpt lat="37.2985620" lon="-2.4924520">
        <ele>1574.0</ele>
        <time>2021-04-18T10:30:03Z</time>
      </trkpt>
      <trkpt lat="37.2985740" lon="-2.4924500">
        <ele>1574.2</ele>
        <time>2021-04-18T10:30:04Z</time>
      </trkpt>
      <trkpt lat="37.2985900" lon="-2.4924490">
        <ele>1574.4</ele>
        <time>2021-04-18T10:30:05Z</time>
      </trkpt>
      <trkpt lat="37.2986060" lon="-2.4924520">
        <ele>1574.6</ele>
        <time>2021-04-18T10:30:06Z</time>
      </trkpt>
      <trkpt lat="37.2986240" lon="-2.4924570">
        <ele>1575.0</ele>
        <time>2021-04-18T10:30:07Z</time>
      </trkpt>
      <trkpt lat="37.2986440" lon="-2.4924650">
        <ele>1575.2</ele>
        <time>2021-04-18T10:30:08Z</time>
      </trkpt>
      <trkpt lat="37.2986630" lon="-2.4924750">
        <ele>1575.6</ele>
        <time>2021-04-18T10:30:09Z</time>
      </trkpt>
      <trkpt lat="37.2986790" lon="-2.4924870">
        <ele>1576.0</ele>
        <time>2021-04-18T10:30:10Z</time>
      </trkpt>
      <trkpt lat="37.2986950" lon="-2.4925010">
        <ele>1576.2</ele>
        <time>2021-04-18T10:30:11Z</time>
      </trkpt>
      <trkpt lat="37.2987070" lon="-2.4925160">
        <ele>1576.4</ele>
        <time>2021-04-18T10:30:12Z</time>
      </trkpt>
      <trkpt lat="37.2987150" lon="-2.4925330">
        <ele>1576.4</ele>
        <time>2021-04-18T10:30:13Z</time>
      </trkpt>
      <trkpt lat="37.2987260" lon="-2.4925500">
        <ele>1576.8</ele>
        <time>2021-04-18T10:30:14Z</time>
      </trkpt>
      <trkpt lat="37.2987380" lon="-2.4925670">
        <ele>1576.8</ele>
        <time>2021-04-18T10:30:15Z</time>
      </trkpt>
      <trkpt lat="37.2987520" lon="-2.4925850">
        <ele>1577.2</ele>
        <time>2021-04-18T10:30:16Z</time>
      </trkpt>
      <trkpt lat="37.2987610" lon="-2.4926050">
        <ele>1577.4</ele>
        <time>2021-04-18T10:30:17Z</time>
      </trkpt>
      <trkpt lat="37.2987690" lon="-2.4926280">
        <ele>1577.6</ele>
        <time>2021-04-18T10:30:18Z</time>
      </trkpt>
      <trkpt lat="37.2987740" lon="-2.4926510">
        <ele>1578.0</ele>
        <time>2021-04-18T10:30:19Z</time>
      </trkpt>
      <trkpt lat="37.2987810" lon="-2.4926700">
        <ele>1578.2</ele>
        <time>2021-04-18T10:30:20Z</time>
      </trkpt>
      <trkpt lat="37.2987860" lon="-2.4926890">
        <ele>1578.4</ele>
        <time>2021-04-18T10:30:21Z</time>
      </trkpt>
      <trkpt lat="37.2987930" lon="-2.4927090">
        <ele>1578.4</ele>
        <time>2021-04-18T10:30:22Z</time>
      </trkpt>
      <trkpt lat="37.2988000" lon="-2.4927300">
        <ele>1578.4</ele>
        <time>2021-04-18T10:30:23Z</time>
      </trkpt>
      <trkpt lat="37.2988070" lon="-2.4927500">
        <ele>1578.6</ele>
        <time>2021-04-18T10:30:24Z</time>
      </trkpt>
      <trkpt lat="37.2988150" lon="-2.4927730">
        <ele>1578.8</ele>
        <time>2021-04-18T10:30:25Z</time>
      </trkpt>
      <trkpt lat="37.2988200" lon="-2.4927940">
        <ele>1578.8</ele>
        <time>2021-04-18T10:30:26Z</time>
      </trkpt>
      <trkpt lat="37.2988230" lon="-2.4928140">
        <ele>1579.0</ele>
        <time>2021-04-18T10:30:27Z</time>
      </trkpt>
      <trkpt lat="37.2988240" lon="-2.4928320">
        <ele>1579.0</ele>
        <time>2021-04-18T10:30:28Z</time>
      </trkpt>
      <trkpt lat="37.2988280" lon="-2.4928540">
        <ele>1579.2</ele>
        <time>2021-04-18T10:30:29Z</time>
      </trkpt>
      <trkpt lat="37.2988320" lon="-2.4928770">
        <ele>1579.2</ele>
        <time>2021-04-18T10:30:30Z</time>
      </trkpt>
      <trkpt lat="37.2988330" lon="-2.4929000">
        <ele>1579.4</ele>
        <time>2021-04-18T10:30:31Z</time>
      </trkpt>
      <trkpt lat="37.2988380" lon="-2.4929260">
        <ele>1579.6</ele>
        <time>2021-04-18T10:30:32Z</time>
      </trkpt>
      <trkpt lat="37.2988460" lon="-2.4929520">
        <ele>1579.8</ele>
        <time>2021-04-18T10:30:33Z</time>
      </trkpt>
      <trkpt lat="37.2988540" lon="-2.4929770">
        <ele>1579.8</ele>
        <time>2021-04-18T10:30:34Z</time>
      </trkpt>
      <trkpt lat="37.2988630" lon="-2.4930000">
        <ele>1579.8</ele>
        <time>2021-04-18T10:30:35Z</time>
      </trkpt>
      <trkpt lat="37.2988680" lon="-2.4930210">
        <ele>1580.0</ele>
        <time>2021-04-18T10:30:36Z</time>
      </trkpt>
      <trkpt lat="37.2988730" lon="-2.4930430">
        <ele>1580.0</ele>
        <time>2021-04-18T10:30:37Z</time>
      </trkpt>
      <trkpt lat="37.2988790" lon="-2.4930680">
        <ele>1580.0</ele>
        <time>2021-04-18T10:30:38Z</time>
      </trkpt>
      <trkpt lat="37.2988830" lon="-2.4930920">
        <ele>1580.2</ele>
        <time>2021-04-18T10:30:39Z</time>
      </trkpt>
      <trkpt lat="37.2988900" lon="-2.4931180">
        <ele>1580.2</ele>
        <time>2021-04-18T10:30:40Z</time>
      </trkpt>
      <trkpt lat="37.2988970" lon="-2.4931430">
        <ele>1580.2</ele>
        <time>2021-04-18T10:30:41Z</time>
      </trkpt>
      <trkpt lat="37.2989030" lon="-2.4931640">
        <ele>1580.4</ele>
        <time>2021-04-18T10:30:42Z</time>
      </trkpt>
      <trkpt lat="37.2989110" lon="-2.4931840">
        <ele>1580.4</ele>
        <time>2021-04-18T10:30:43Z</time>
      </trkpt>
      <trkpt lat="37.2989200" lon="-2.4932040">
        <ele>1580.4</ele>
        <time>2021-04-18T10:30:44Z</time>
      </trkpt>
      <trkpt lat="37.2989300" lon="-2.4932290">
        <ele>1580.6</ele>
        <time>2021-04-18T10:30:45Z</time>
      </trkpt>
      <trkpt lat="37.2989390" lon="-2.4932540">
        <ele>1580.8</ele>
        <time>2021-04-18T10:30:46Z</time>
      </trkpt>
      <trkpt lat="37.2989470" lon="-2.4932770">
        <ele>1581.0</ele>
        <time>2021-04-18T10:30:47Z</time>
      </trkpt>
      <trkpt lat="37.2989570" lon="-2.4933030">
        <ele>1581.2</ele>
        <time>2021-04-18T10:30:48Z</time>
      </trkpt>
      <trkpt lat="37.2989650" lon="-2.4933290">
        <ele>1581.4</ele>
        <time>2021-04-18T10:30:49Z</time>
      </trkpt>
      <trkpt lat="37.2989720" lon="-2.4933490">
        <ele>1581.4</ele>
        <time>2021-04-18T10:30:50Z</time>
      </trkpt>
      <trkpt lat="37.2989830" lon="-2.4933770">
        <ele>1581.4</ele>
        <time>2021-04-18T10:30:51Z</time>
      </trkpt>
      <trkpt lat="37.2989870" lon="-2.4933970">
        <ele>1581.6</ele>
        <time>2021-04-18T10:30:52Z</time>
      </trkpt>
      <trkpt lat="37.2989910" lon="-2.4934130">
        <ele>1581.6</ele>
        <time>2021-04-18T10:30:53Z</time>
      </trkpt>
      <trkpt lat="37.2990010" lon="-2.4934350">
        <ele>1581.8</ele>
        <time>2021-04-18T10:30:54Z</time>
      </trkpt>
      <trkpt lat="37.2990100" lon="-2.4934570">
        <ele>1581.8</ele>
        <time>2021-04-18T10:30:55Z</time>
      </trkpt>
      <trkpt lat="37.2990170" lon="-2.4934770">
        <ele>1581.8</ele>
        <time>2021-04-18T10:30:56Z</time>
      </trkpt>
      <trkpt lat="37.2990260" lon="-2.4934960">
        <ele>1582.0</ele>
        <time>2021-04-18T10:30:57Z</time>
      </trkpt>
      <trkpt lat="37.2990370" lon="-2.4935160">
        <ele>1582.0</ele>
        <time>2021-04-18T10:30:58Z</time>
      </trkpt>
      <trkpt lat="37.2990460" lon="-2.4935350">
        <ele>1582.2</ele>
        <time>2021-04-18T10:30:59Z</time>
      </trkpt>
      <trkpt lat="37.2990500" lon="-2.4935530">
        <ele>1582.2</ele>
        <time>2021-04-18T10:31:00Z</time>
      </trkpt>
      <trkpt lat="37.2990590" lon="-2.4935740">
        <ele>1582.4</ele>
        <time>2021-04-18T10:31:01Z</time>
      </trkpt>
      <trkpt lat="37.2990690" lon="-2.4935930">
        <ele>1582.6</ele>
        <time>2021-04-18T10:31:02Z</time>
      </trkpt>
      <trkpt lat="37.2990800" lon="-2.4936130">
        <ele>1582.8</ele>
        <time>2021-04-18T10:31:03Z</time>
      </trkpt>
      <trkpt lat="37.2990930" lon="-2.4936330">
        <ele>1583.0</ele>
        <time>2021-04-18T10:31:04Z</time>
      </trkpt>
      <trkpt lat="37.2991050" lon="-2.4936530">
        <ele>1583.2</ele>
        <time>2021-04-18T10:31:05Z</time>
      </trkpt>
      <trkpt lat="37.2991190" lon="-2.4936740">
        <ele>1583.2</ele>
        <time>2021-04-18T10:31:06Z</time>
      </trkpt>
      <trkpt lat="37.2991340" lon="-2.4936960">
        <ele>1583.4</ele>
        <time>2021-04-18T10:31:07Z</time>
      </trkpt>
      <trkpt lat="37.2991480" lon="-2.4937180">
        <ele>1583.6</ele>
        <time>2021-04-18T10:31:08Z</time>
      </trkpt>
      <trkpt lat="37.2991630" lon="-2.4937350">
        <ele>1583.6</ele>
        <time>2021-04-18T10:31:09Z</time>
      </trkpt>
      <trkpt lat="37.2991800" lon="-2.4937540">
        <ele>1583.8</ele>
        <time>2021-04-18T10:31:10Z</time>
      </trkpt>
      <trkpt lat="37.2991940" lon="-2.4937720">
        <ele>1584.0</ele>
        <time>2021-04-18T10:31:11Z</time>
      </trkpt>
      <trkpt lat="37.2992080" lon="-2.4937910">
        <ele>1584.0</ele>
        <time>2021-04-18T10:31:12Z</time>
      </trkpt>
      <trkpt lat="37.2992230" lon="-2.4938080">
        <ele>1584.2</ele>
        <time>2021-04-18T10:31:13Z</time>
      </trkpt>
      <trkpt lat="37.2992390" lon="-2.4938230">
        <ele>1584.4</ele>
        <time>2021-04-18T10:31:14Z</time>
      </trkpt>
      <trkpt lat="37.2992560" lon="-2.4938400">
        <ele>1584.4</ele>
        <time>2021-04-18T10:31:15Z</time>
      </trkpt>
      <trkpt lat="37.2992720" lon="-2.4938580">
        <ele>1584.6</ele>
        <time>2021-04-18T10:31:16Z</time>
      </trkpt>
      <trkpt lat="37.2992870" lon="-2.4938740">
        <ele>1584.6</ele>
        <time>2021-04-18T10:31:17Z</time>
      </trkpt>
      <trkpt lat="37.2992990" lon="-2.4938890">
        <ele>1585.0</ele>
        <time>2021-04-18T10:31:18Z</time>
      </trkpt>
      <trkpt lat="37.2993110" lon="-2.4939030">
        <ele>1585.2</ele>
        <time>2021-04-18T10:31:19Z</time>
      </trkpt>
      <trkpt lat="37.2993200" lon="-2.4939160">
        <ele>1585.2</ele>
        <time>2021-04-18T10:31:20Z</time>
      </trkpt>
      <trkpt lat="37.2993290" lon="-2.4939320">
        <ele>1585.6</ele>
        <time>2021-04-18T10:31:21Z</time>
      </trkpt>
      <trkpt lat="37.2993390" lon="-2.4939470">
        <ele>1585.8</ele>
        <time>2021-04-18T10:31:22Z</time>
      </trkpt>
      <trkpt lat="37.2993530" lon="-2.4939600">
        <ele>1585.8</ele>
        <time>2021-04-18T10:31:23Z</time>
      </trkpt>
      <trkpt lat="37.2993690" lon="-2.4939760">
        <ele>1585.8</ele>
        <time>2021-04-18T10:31:24Z</time>
      </trkpt>
      <trkpt lat="37.2993860" lon="-2.4939880">
        <ele>1586.0</ele>
        <time>2021-04-18T10:31:25Z</time>
      </trkpt>
      <trkpt lat="37.2994010" lon="-2.4940010">
        <ele>1586.2</ele>
        <time>2021-04-18T10:31:26Z</time>
      </trkpt>
      <trkpt lat="37.2994140" lon="-2.4940190">
        <ele>1586.2</ele>
        <time>2021-04-18T10:31:27Z</time>
      </trkpt>
      <trkpt lat="37.2994300" lon="-2.4940380">
        <ele>1586.4</ele>
        <time>2021-04-18T10:31:28Z</time>
      </trkpt>
      <trkpt lat="37.2994480" lon="-2.4940560">
        <ele>1586.4</ele>
        <time>2021-04-18T10:31:29Z</time>
      </trkpt>
      <trkpt lat="37.2994660" lon="-2.4940760">
        <ele>1586.6</ele>
        <time>2021-04-18T10:31:30Z</time>
      </trkpt>
      <trkpt lat="37.2994800" lon="-2.4940940">
        <ele>1586.8</ele>
        <time>2021-04-18T10:31:31Z</time>
      </trkpt>
      <trkpt lat="37.2994950" lon="-2.4941120">
        <ele>1587.0</ele>
        <time>2021-04-18T10:31:32Z</time>
      </trkpt>
      <trkpt lat="37.2995100" lon="-2.4941300">
        <ele>1587.2</ele>
        <time>2021-04-18T10:31:33Z</time>
      </trkpt>
      <trkpt lat="37.2995210" lon="-2.4941460">
        <ele>1587.2</ele>
        <time>2021-04-18T10:31:34Z</time>
      </trkpt>
      <trkpt lat="37.2995310" lon="-2.4941620">
        <ele>1587.4</ele>
        <time>2021-04-18T10:31:35Z</time>
      </trkpt>
      <trkpt lat="37.2995440" lon="-2.4941810">
        <ele>1587.6</ele>
        <time>2021-04-18T10:31:36Z</time>
      </trkpt>
      <trkpt lat="37.2995580" lon="-2.4941960">
        <ele>1587.8</ele>
        <time>2021-04-18T10:31:37Z</time>
      </trkpt>
      <trkpt lat="37.2995710" lon="-2.4942080">
        <ele>1588.0</ele>
        <time>2021-04-18T10:31:38Z</time>
      </trkpt>
      <trkpt lat="37.2995840" lon="-2.4942230">
        <ele>1588.2</ele>
        <time>2021-04-18T10:31:39Z</time>
      </trkpt>
      <trkpt lat="37.2995970" lon="-2.4942410">
        <ele>1588.4</ele>
        <time>2021-04-18T10:31:40Z</time>
      </trkpt>
      <trkpt lat="37.2996060" lon="-2.4942580">
        <ele>1588.6</ele>
        <time>2021-04-18T10:31:41Z</time>
      </trkpt>
      <trkpt lat="37.2996230" lon="-2.4942760">
        <ele>1588.8</ele>
        <time>2021-04-18T10:31:42Z</time>
      </trkpt>
      <trkpt lat="37.2996370" lon="-2.4942920">
        <ele>1589.0</ele>
        <time>2021-04-18T10:31:43Z</time>
      </trkpt>
      <trkpt lat="37.2996510" lon="-2.4943110">
        <ele>1589.2</ele>
        <time>2021-04-18T10:31:44Z</time>
      </trkpt>
      <trkpt lat="37.2996650" lon="-2.4943270">
        <ele>1589.4</ele>
        <time>2021-04-18T10:31:45Z</time>
      </trkpt>
      <trkpt lat="37.2996770" lon="-2.4943430">
        <ele>1589.6</ele>
        <time>2021-04-18T10:31:46Z</time>
      </trkpt>
      <trkpt lat="37.2996900" lon="-2.4943590">
        <ele>1589.8</ele>
        <time>2021-04-18T10:31:47Z</time>
      </trkpt>
      <trkpt lat="37.2997030" lon="-2.4943770">
        <ele>1589.8</ele>
        <time>2021-04-18T10:31:48Z</time>
      </trkpt>
      <trkpt lat="37.2997180" lon="-2.4943960">
        <ele>1590.2</ele>
        <time>2021-04-18T10:31:49Z</time>
      </trkpt>
      <trkpt lat="37.2997330" lon="-2.4944140">
        <ele>1590.4</ele>
        <time>2021-04-18T10:31:50Z</time>
      </trkpt>
      <trkpt lat="37.2997440" lon="-2.4944310">
        <ele>1590.6</ele>
        <time>2021-04-18T10:31:51Z</time>
      </trkpt>
      <trkpt lat="37.2997560" lon="-2.4944470">
        <ele>1590.8</ele>
        <time>2021-04-18T10:31:52Z</time>
      </trkpt>
      <trkpt lat="37.2997680" lon="-2.4944630">
        <ele>1590.8</ele>
        <time>2021-04-18T10:31:53Z</time>
      </trkpt>
      <trkpt lat="37.2997820" lon="-2.4944790">
        <ele>1591.0</ele>
        <time>2021-04-18T10:31:54Z</time>
      </trkpt>
      <trkpt lat="37.2997940" lon="-2.4944960">
        <ele>1591.0</ele>
        <time>2021-04-18T10:31:55Z</time>
      </trkpt>
      <trkpt lat="37.2998070" lon="-2.4945140">
        <ele>1591.2</ele>
        <time>2021-04-18T10:31:56Z</time>
      </trkpt>
      <trkpt lat="37.2998180" lon="-2.4945310">
        <ele>1591.4</ele>
        <time>2021-04-18T10:31:57Z</time>
      </trkpt>
      <trkpt lat="37.2998300" lon="-2.4945490">
        <ele>1591.6</ele>
        <time>2021-04-18T10:31:58Z</time>
      </trkpt>
      <trkpt lat="37.2998420" lon="-2.4945680">
        <ele>1591.6</ele>
        <time>2021-04-18T10:31:59Z</time>
      </trkpt>
      <trkpt lat="37.2998560" lon="-2.4945870">
        <ele>1591.8</ele>
        <time>2021-04-18T10:32:00Z</time>
      </trkpt>
      <trkpt lat="37.2998680" lon="-2.4946030">
        <ele>1591.8</ele>
        <time>2021-04-18T10:32:01Z</time>
      </trkpt>
      <trkpt lat="37.2998780" lon="-2.4946210">
        <ele>1591.8</ele>
        <time>2021-04-18T10:32:02Z</time>
      </trkpt>
      <trkpt lat="37.2998830" lon="-2.4946390">
        <ele>1592.0</ele>
        <time>2021-04-18T10:32:03Z</time>
      </trkpt>
      <trkpt lat="37.2998890" lon="-2.4946590">
        <ele>1592.2</ele>
        <time>2021-04-18T10:32:04Z</time>
      </trkpt>
      <trkpt lat="37.2998980" lon="-2.4946780">
        <ele>1592.4</ele>
        <time>2021-04-18T10:32:05Z</time>
      </trkpt>
      <trkpt lat="37.2999070" lon="-2.4946960">
        <ele>1593.0</ele>
        <time>2021-04-18T10:32:06Z</time>
      </trkpt>
      <trkpt lat="37.2999190" lon="-2.4947090">
        <ele>1593.2</ele>
        <time>2021-04-18T10:32:07Z</time>
      </trkpt>
      <trkpt lat="37.2999320" lon="-2.4947230">
        <ele>1593.4</ele>
        <time>2021-04-18T10:32:08Z</time>
      </trkpt>
      <trkpt lat="37.2999410" lon="-2.4947400">
        <ele>1593.8</ele>
        <time>2021-04-18T10:32:09Z</time>
      </trkpt>
      <trkpt lat="37.2999490" lon="-2.4947550">
        <ele>1593.8</ele>
        <time>2021-04-18T10:32:10Z</time>
      </trkpt>
      <trkpt lat="37.2999600" lon="-2.4947680">
        <ele>1594.0</ele>
        <time>2021-04-18T10:32:11Z</time>
      </trkpt>
      <trkpt lat="37.2999710" lon="-2.4947870">
        <ele>1594.2</ele>
        <time>2021-04-18T10:32:12Z</time>
      </trkpt>
      <trkpt lat="37.2999790" lon="-2.4948050">
        <ele>1594.4</ele>
        <time>2021-04-18T10:32:13Z</time>
      </trkpt>
      <trkpt lat="37.2999880" lon="-2.4948190">
        <ele>1594.6</ele>
        <time>2021-04-18T10:32:14Z</time>
      </trkpt>
      <trkpt lat="37.2999980" lon="-2.4948360">
        <ele>1595.0</ele>
        <time>2021-04-18T10:32:15Z</time>
      </trkpt>
      <trkpt lat="37.3000070" lon="-2.4948530">
        <ele>1595.4</ele>
        <time>2021-04-18T10:32:16Z</time>
      </trkpt>
      <trkpt lat="37.3000150" lon="-2.4948690">
        <ele>1595.4</ele>
        <time>2021-04-18T10:32:17Z</time>
      </trkpt>
      <trkpt lat="37.3000240" lon="-2.4948830">
        <ele>1595.6</ele>
        <time>2021-04-18T10:32:18Z</time>
      </trkpt>
      <trkpt lat="37.3000320" lon="-2.4948950">
        <ele>1595.8</ele>
        <time>2021-04-18T10:32:19Z</time>
      </trkpt>
      <trkpt lat="37.3000410" lon="-2.4949120">
        <ele>1596.0</ele>
        <time>2021-04-18T10:32:20Z</time>
      </trkpt>
      <trkpt lat="37.3000510" lon="-2.4949300">
        <ele>1596.0</ele>
        <time>2021-04-18T10:32:21Z</time>
      </trkpt>
      <trkpt lat="37.3000590" lon="-2.4949480">
        <ele>1596.2</ele>
        <time>2021-04-18T10:32:22Z</time>
      </trkpt>
      <trkpt lat="37.3000650" lon="-2.4949630">
        <ele>1596.4</ele>
        <time>2021-04-18T10:32:23Z</time>
      </trkpt>
      <trkpt lat="37.3000720" lon="-2.4949780">
        <ele>1596.6</ele>
        <time>2021-04-18T10:32:24Z</time>
      </trkpt>
      <trkpt lat="37.3000830" lon="-2.4949940">
        <ele>1596.8</ele>
        <time>2021-04-18T10:32:25Z</time>
      </trkpt>
      <trkpt lat="37.3000940" lon="-2.4950070">
        <ele>1597.0</ele>
        <time>2021-04-18T10:32:26Z</time>
      </trkpt>
      <trkpt lat="37.3001080" lon="-2.4950190">
        <ele>1597.2</ele>
        <time>2021-04-18T10:32:27Z</time>
      </trkpt>
      <trkpt lat="37.3001180" lon="-2.4950330">
        <ele>1597.4</ele>
        <time>2021-04-18T10:32:28Z</time>
      </trkpt>
      <trkpt lat="37.3001240" lon="-2.4950490">
        <ele>1597.4</ele>
        <time>2021-04-18T10:32:29Z</time>
      </trkpt>
      <trkpt lat="37.3001350" lon="-2.4950650">
        <ele>1597.6</ele>
        <time>2021-04-18T10:32:30Z</time>
      </trkpt>
      <trkpt lat="37.3001460" lon="-2.4950800">
        <ele>1597.6</ele>
        <time>2021-04-18T10:32:31Z</time>
      </trkpt>
      <trkpt lat="37.3001560" lon="-2.4950970">
        <ele>1597.8</ele>
        <time>2021-04-18T10:32:32Z</time>
      </trkpt>
      <trkpt lat="37.3001650" lon="-2.4951120">
        <ele>1597.8</ele>
        <time>2021-04-18T10:32:33Z</time>
      </trkpt>
      <trkpt lat="37.3001750" lon="-2.4951280">
        <ele>1598.2</ele>
        <time>2021-04-18T10:32:34Z</time>
      </trkpt>
      <trkpt lat="37.3001860" lon="-2.4951440">
        <ele>1598.2</ele>
        <time>2021-04-18T10:32:35Z</time>
      </trkpt>
      <trkpt lat="37.3001940" lon="-2.4951590">
        <ele>1598.2</ele>
        <time>2021-04-18T10:32:36Z</time>
      </trkpt>
      <trkpt lat="37.3002010" lon="-2.4951750">
        <ele>1598.4</ele>
        <time>2021-04-18T10:32:37Z</time>
      </trkpt>
      <trkpt lat="37.3002090" lon="-2.4951900">
        <ele>1598.6</ele>
        <time>2021-04-18T10:32:38Z</time>
      </trkpt>
      <trkpt lat="37.3002180" lon="-2.4952070">
        <ele>1598.8</ele>
        <time>2021-04-18T10:32:39Z</time>
      </trkpt>
      <trkpt lat="37.3002270" lon="-2.4952230">
        <ele>1598.8</ele>
        <time>2021-04-18T10:32:40Z</time>
      </trkpt>
      <trkpt lat="37.3002370" lon="-2.4952400">
        <ele>1599.0</ele>
        <time>2021-04-18T10:32:41Z</time>
      </trkpt>
      <trkpt lat="37.3002490" lon="-2.4952570">
        <ele>1599.2</ele>
        <time>2021-04-18T10:32:42Z</time>
      </trkpt>
      <trkpt lat="37.3002610" lon="-2.4952740">
        <ele>1599.2</ele>
        <time>2021-04-18T10:32:43Z</time>
      </trkpt>
      <trkpt lat="37.3002680" lon="-2.4952900">
        <ele>1599.4</ele>
        <time>2021-04-18T10:32:44Z</time>
      </trkpt>
      <trkpt lat="37.3002780" lon="-2.4953080">
        <ele>1599.4</ele>
        <time>2021-04-18T10:32:45Z</time>
      </trkpt>
      <trkpt lat="37.3002870" lon="-2.4953280">
        <ele>1599.6</ele>
        <time>2021-04-18T10:32:46Z</time>
      </trkpt>
      <trkpt lat="37.3002940" lon="-2.4953410">
        <ele>1599.8</ele>
        <time>2021-04-18T10:32:47Z</time>
      </trkpt>
      <trkpt lat="37.3003050" lon="-2.4953560">
        <ele>1600.0</ele>
        <time>2021-04-18T10:32:48Z</time>
      </trkpt>
      <trkpt lat="37.3003140" lon="-2.4953700">
        <ele>1600.2</ele>
        <time>2021-04-18T10:32:49Z</time>
      </trkpt>
      <trkpt lat="37.3003250" lon="-2.4953880">
        <ele>1600.2</ele>
        <time>2021-04-18T10:32:50Z</time>
      </trkpt>
      <trkpt lat="37.3003380" lon="-2.4954080">
        <ele>1600.4</ele>
        <time>2021-04-18T10:32:51Z</time>
      </trkpt>
      <trkpt lat="37.3003460" lon="-2.4954220">
        <ele>1600.4</ele>
        <time>2021-04-18T10:32:52Z</time>
      </trkpt>
      <trkpt lat="37.3003580" lon="-2.4954380">
        <ele>1600.4</ele>
        <time>2021-04-18T10:32:53Z</time>
      </trkpt>
      <trkpt lat="37.3003740" lon="-2.4954550">
        <ele>1600.8</ele>
        <time>2021-04-18T10:32:54Z</time>
      </trkpt>
      <trkpt lat="37.3003850" lon="-2.4954710">
        <ele>1600.8</ele>
        <time>2021-04-18T10:32:55Z</time>
      </trkpt>
      <trkpt lat="37.3003920" lon="-2.4954850">
        <ele>1601.2</ele>
        <time>2021-04-18T10:32:56Z</time>
      </trkpt>
      <trkpt lat="37.3004020" lon="-2.4955020">
        <ele>1601.2</ele>
        <time>2021-04-18T10:32:57Z</time>
      </trkpt>
      <trkpt lat="37.3004140" lon="-2.4955170">
        <ele>1601.4</ele>
        <time>2021-04-18T10:32:58Z</time>
      </trkpt>
      <trkpt lat="37.3004230" lon="-2.4955310">
        <ele>1601.6</ele>
        <time>2021-04-18T10:32:59Z</time>
      </trkpt>
      <trkpt lat="37.3004290" lon="-2.4955470">
        <ele>1601.6</ele>
        <time>2021-04-18T10:33:00Z</time>
      </trkpt>
      <trkpt lat="37.3004360" lon="-2.4955620">
        <ele>1601.8</ele>
        <time>2021-04-18T10:33:01Z</time>
      </trkpt>
      <trkpt lat="37.3004430" lon="-2.4955810">
        <ele>1601.8</ele>
        <time>2021-04-18T10:33:02Z</time>
      </trkpt>
      <trkpt lat="37.3004530" lon="-2.4955990">
        <ele>1602.2</ele>
        <time>2021-04-18T10:33:03Z</time>
      </trkpt>
      <trkpt lat="37.3004630" lon="-2.4956140">
        <ele>1602.2</ele>
        <time>2021-04-18T10:33:04Z</time>
      </trkpt>
      <trkpt lat="37.3004710" lon="-2.4956290">
        <ele>1602.4</ele>
        <time>2021-04-18T10:33:05Z</time>
      </trkpt>
      <trkpt lat="37.3004820" lon="-2.4956470">
        <ele>1602.8</ele>
        <time>2021-04-18T10:33:06Z</time>
      </trkpt>
      <trkpt lat="37.3004950" lon="-2.4956630">
        <ele>1603.0</ele>
        <time>2021-04-18T10:33:07Z</time>
      </trkpt>
      <trkpt lat="37.3005050" lon="-2.4956790">
        <ele>1603.2</ele>
        <time>2021-04-18T10:33:08Z</time>
      </trkpt>
      <trkpt lat="37.3005170" lon="-2.4956940">
        <ele>1603.4</ele>
        <time>2021-04-18T10:33:09Z</time>
      </trkpt>
      <trkpt lat="37.3005260" lon="-2.4957080">
        <ele>1603.6</ele>
        <time>2021-04-18T10:33:10Z</time>
      </trkpt>
      <trkpt lat="37.3005350" lon="-2.4957250">
        <ele>1603.6</ele>
        <time>2021-04-18T10:33:11Z</time>
      </trkpt>
      <trkpt lat="37.3005420" lon="-2.4957410">
        <ele>1603.8</ele>
        <time>2021-04-18T10:33:12Z</time>
      </trkpt>
      <trkpt lat="37.3005540" lon="-2.4957580">
        <ele>1604.0</ele>
        <time>2021-04-18T10:33:13Z</time>
      </trkpt>
      <trkpt lat="37.3005640" lon="-2.4957780">
        <ele>1604.2</ele>
        <time>2021-04-18T10:33:14Z</time>
      </trkpt>
      <trkpt lat="37.3005750" lon="-2.4957950">
        <ele>1604.4</ele>
        <time>2021-04-18T10:33:15Z</time>
      </trkpt>
      <trkpt lat="37.3005840" lon="-2.4958100">
        <ele>1604.4</ele>
        <time>2021-04-18T10:33:16Z</time>
      </trkpt>
      <trkpt lat="37.3005960" lon="-2.4958230">
        <ele>1604.6</ele>
        <time>2021-04-18T10:33:17Z</time>
      </trkpt>
      <trkpt lat="37.3006070" lon="-2.4958390">
        <ele>1604.8</ele>
        <time>2021-04-18T10:33:18Z</time>
      </trkpt>
      <trkpt lat="37.3006170" lon="-2.4958550">
        <ele>1604.8</ele>
        <time>2021-04-18T10:33:19Z</time>
      </trkpt>
      <trkpt lat="37.3006280" lon="-2.4958730">
        <ele>1605.0</ele>
        <time>2021-04-18T10:33:20Z</time>
      </trkpt>
      <trkpt lat="37.3006420" lon="-2.4958870">
        <ele>1605.0</ele>
        <time>2021-04-18T10:33:21Z</time>
      </trkpt>
      <trkpt lat="37.3006550" lon="-2.4959020">
        <ele>1605.2</ele>
        <time>2021-04-18T10:33:22Z</time>
      </trkpt>
      <trkpt lat="37.3006670" lon="-2.4959180">
        <ele>1605.4</ele>
        <time>2021-04-18T10:33:23Z</time>
      </trkpt>
      <trkpt lat="37.3006770" lon="-2.4959340">
        <ele>1605.4</ele>
        <time>2021-04-18T10:33:24Z</time>
      </trkpt>
      <trkpt lat="37.3006890" lon="-2.4959490">
        <ele>1605.6</ele>
        <time>2021-04-18T10:33:25Z</time>
      </trkpt>
      <trkpt lat="37.3006990" lon="-2.4959670">
        <ele>1605.6</ele>
        <time>2021-04-18T10:33:26Z</time>
      </trkpt>
      <trkpt lat="37.3007100" lon="-2.4959860">
        <ele>1605.8</ele>
        <time>2021-04-18T10:33:27Z</time>
      </trkpt>
      <trkpt lat="37.3007210" lon="-2.4960010">
        <ele>1605.8</ele>
        <time>2021-04-18T10:33:28Z</time>
      </trkpt>
      <trkpt lat="37.3007350" lon="-2.4960150">
        <ele>1606.2</ele>
        <time>2021-04-18T10:33:29Z</time>
      </trkpt>
      <trkpt lat="37.3007490" lon="-2.4960240">
        <ele>1606.2</ele>
        <time>2021-04-18T10:33:30Z</time>
      </trkpt>
      <trkpt lat="37.3007650" lon="-2.4960340">
        <ele>1606.4</ele>
        <time>2021-04-18T10:33:31Z</time>
      </trkpt>
      <trkpt lat="37.3007840" lon="-2.4960420">
        <ele>1606.6</ele>
        <time>2021-04-18T10:33:32Z</time>
      </trkpt>
      <trkpt lat="37.3007990" lon="-2.4960470">
        <ele>1606.6</ele>
        <time>2021-04-18T10:33:33Z</time>
      </trkpt>
      <trkpt lat="37.3008240" lon="-2.4960550">
        <ele>1606.8</ele>
        <time>2021-04-18T10:33:34Z</time>
      </trkpt>
      <trkpt lat="37.3008590" lon="-2.4960670">
        <ele>1606.8</ele>
        <time>2021-04-18T10:33:35Z</time>
      </trkpt>
      <trkpt lat="37.3009030" lon="-2.4960840">
        <ele>1606.8</ele>
        <time>2021-04-18T10:33:36Z</time>
      </trkpt>
      <trkpt lat="37.3009530" lon="-2.4961040">
        <ele>1606.8</ele>
        <time>2021-04-18T10:33:37Z</time>
      </trkpt>
      <trkpt lat="37.3010170" lon="-2.4961300">
        <ele>1606.8</ele>
        <time>2021-04-18T10:33:38Z</time>
      </trkpt>
      <trkpt lat="37.3010700" lon="-2.4961550">
        <ele>1606.8</ele>
        <time>2021-04-18T10:33:39Z</time>
      </trkpt>
      <trkpt lat="37.3011110" lon="-2.4961780">
        <ele>1606.8</ele>
        <time>2021-04-18T10:33:40Z</time>
      </trkpt>
      <trkpt lat="37.3011550" lon="-2.4962090">
        <ele>1606.6</ele>
        <time>2021-04-18T10:33:41Z</time>
      </trkpt>
      <trkpt lat="37.3011860" lon="-2.4962420">
        <ele>1606.4</ele>
        <time>2021-04-18T10:33:42Z</time>
      </trkpt>
      <trkpt lat="37.3012000" lon="-2.4962770">
        <ele>1606.0</ele>
        <time>2021-04-18T10:33:43Z</time>
      </trkpt>
      <trkpt lat="37.3012050" lon="-2.4963080">
        <ele>1605.4</ele>
        <time>2021-04-18T10:33:44Z</time>
      </trkpt>
      <trkpt lat="37.3012090" lon="-2.4963360">
        <ele>1605.0</ele>
        <time>2021-04-18T10:33:45Z</time>
      </trkpt>
      <trkpt lat="37.3012120" lon="-2.4963640">
        <ele>1604.4</ele>
        <time>2021-04-18T10:33:46Z</time>
      </trkpt>
      <trkpt lat="37.3012080" lon="-2.4963970">
        <ele>1604.2</ele>
        <time>2021-04-18T10:33:47Z</time>
      </trkpt>
      <trkpt lat="37.3011960" lon="-2.4964360">
        <ele>1603.8</ele>
        <time>2021-04-18T10:33:48Z</time>
      </trkpt>
      <trkpt lat="37.3011780" lon="-2.4964800">
        <ele>1603.4</ele>
        <time>2021-04-18T10:33:49Z</time>
      </trkpt>
      <trkpt lat="37.3011520" lon="-2.4965250">
        <ele>1603.2</ele>
        <time>2021-04-18T10:33:50Z</time>
      </trkpt>
      <trkpt lat="37.3010900" lon="-2.4966090">
        <ele>1602.0</ele>
        <time>2021-04-18T10:33:52Z</time>
      </trkpt>
      <trkpt lat="37.3010070" lon="-2.4967360">
        <ele>1600.8</ele>
        <time>2021-04-18T10:33:55Z</time>
      </trkpt>
      <trkpt lat="37.3009240" lon="-2.4968590">
        <ele>1600.0</ele>
        <time>2021-04-18T10:33:58Z</time>
      </trkpt>
      <trkpt lat="37.3008990" lon="-2.4969010">
        <ele>1599.8</ele>
        <time>2021-04-18T10:33:59Z</time>
      </trkpt>
      <trkpt lat="37.3008720" lon="-2.4969480">
        <ele>1599.4</ele>
        <time>2021-04-18T10:34:00Z</time>
      </trkpt>
      <trkpt lat="37.3008120" lon="-2.4970440">
        <ele>1599.2</ele>
        <time>2021-04-18T10:34:02Z</time>
      </trkpt>
      <trkpt lat="37.3007330" lon="-2.4971350">
        <ele>1599.0</ele>
        <time>2021-04-18T10:34:04Z</time>
      </trkpt>
      <trkpt lat="37.3006890" lon="-2.4971780">
        <ele>1598.6</ele>
        <time>2021-04-18T10:34:05Z</time>
      </trkpt>
      <trkpt lat="37.3006450" lon="-2.4972210">
        <ele>1598.4</ele>
        <time>2021-04-18T10:34:06Z</time>
      </trkpt>
      <trkpt lat="37.3005150" lon="-2.4973470">
        <ele>1597.8</ele>
        <time>2021-04-18T10:34:09Z</time>
      </trkpt>
      <trkpt lat="37.3004790" lon="-2.4973920">
        <ele>1597.4</ele>
        <time>2021-04-18T10:34:10Z</time>
      </trkpt>
      <trkpt lat="37.3004420" lon="-2.4974440">
        <ele>1597.2</ele>
        <time>2021-04-18T10:34:11Z</time>
      </trkpt>
      <trkpt lat="37.3004170" lon="-2.4974760">
        <ele>1596.8</ele>
        <time>2021-04-18T10:34:12Z</time>
      </trkpt>
      <trkpt lat="37.3003750" lon="-2.4975230">
        <ele>1596.6</ele>
        <time>2021-04-18T10:34:13Z</time>
      </trkpt>
      <trkpt lat="37.3003470" lon="-2.4975610">
        <ele>1596.4</ele>
        <time>2021-04-18T10:34:14Z</time>
      </trkpt>
      <trkpt lat="37.3003130" lon="-2.4976050">
        <ele>1596.2</ele>
        <time>2021-04-18T10:34:15Z</time>
      </trkpt>
      <trkpt lat="37.3002750" lon="-2.4976530">
        <ele>1596.0</ele>
        <time>2021-04-18T10:34:16Z</time>
      </trkpt>
      <trkpt lat="37.3002510" lon="-2.4977070">
        <ele>1596.0</ele>
        <time>2021-04-18T10:34:17Z</time>
      </trkpt>
      <trkpt lat="37.3002490" lon="-2.4978390">
        <ele>1595.8</ele>
        <time>2021-04-18T10:34:19Z</time>
      </trkpt>
      <trkpt lat="37.3002860" lon="-2.4978880">
        <ele>1595.6</ele>
        <time>2021-04-18T10:34:20Z</time>
      </trkpt>
      <trkpt lat="37.3003150" lon="-2.4979010">
        <ele>1595.6</ele>
        <time>2021-04-18T10:34:21Z</time>
      </trkpt>
      <trkpt lat="37.3003540" lon="-2.4979210">
        <ele>1595.4</ele>
        <time>2021-04-18T10:34:22Z</time>
      </trkpt>
      <trkpt lat="37.3003790" lon="-2.4979360">
        <ele>1595.2</ele>
        <time>2021-04-18T10:34:23Z</time>
      </trkpt>
      <trkpt lat="37.3004100" lon="-2.4979550">
        <ele>1595.2</ele>
        <time>2021-04-18T10:34:24Z</time>
      </trkpt>
      <trkpt lat="37.3004400" lon="-2.4979780">
        <ele>1595.0</ele>
        <time>2021-04-18T10:34:25Z</time>
      </trkpt>
      <trkpt lat="37.3004710" lon="-2.4980010">
        <ele>1594.8</ele>
        <time>2021-04-18T10:34:26Z</time>
      </trkpt>
      <trkpt lat="37.3006060" lon="-2.4981050">
        <ele>1594.6</ele>
        <time>2021-04-18T10:34:30Z</time>
      </trkpt>
      <trkpt lat="37.3006830" lon="-2.4981700">
        <ele>1594.4</ele>
        <time>2021-04-18T10:34:32Z</time>
      </trkpt>
      <trkpt lat="37.3008360" lon="-2.4983230">
        <ele>1594.2</ele>
        <time>2021-04-18T10:34:36Z</time>
      </trkpt>
      <trkpt lat="37.3008770" lon="-2.4983580">
        <ele>1594.2</ele>
        <time>2021-04-18T10:34:37Z</time>
      </trkpt>
      <trkpt lat="37.3009230" lon="-2.4983990">
        <ele>1594.2</ele>
        <time>2021-04-18T10:34:38Z</time>
      </trkpt>
      <trkpt lat="37.3009550" lon="-2.4984310">
        <ele>1594.2</ele>
        <time>2021-04-18T10:34:39Z</time>
      </trkpt>
      <trkpt lat="37.3010310" lon="-2.4985210">
        <ele>1594.2</ele>
        <time>2021-04-18T10:34:41Z</time>
      </trkpt>
      <trkpt lat="37.3010590" lon="-2.4985510">
        <ele>1594.0</ele>
        <time>2021-04-18T10:34:42Z</time>
      </trkpt>
      <trkpt lat="37.3011000" lon="-2.4985960">
        <ele>1594.0</ele>
        <time>2021-04-18T10:34:43Z</time>
      </trkpt>
      <trkpt lat="37.3013170" lon="-2.4988270">
        <ele>1593.6</ele>
        <time>2021-04-18T10:34:49Z</time>
      </trkpt>
      <trkpt lat="37.3015620" lon="-2.4990990">
        <ele>1593.2</ele>
        <time>2021-04-18T10:34:55Z</time>
      </trkpt>
      <trkpt lat="37.3016130" lon="-2.4991690">
        <ele>1593.0</ele>
        <time>2021-04-18T10:34:56Z</time>
      </trkpt>
      <trkpt lat="37.3017280" lon="-2.4993360">
        <ele>1592.2</ele>
        <time>2021-04-18T10:34:59Z</time>
      </trkpt>
      <trkpt lat="37.3017730" lon="-2.4993940">
        <ele>1591.8</ele>
        <time>2021-04-18T10:35:00Z</time>
      </trkpt>
      <trkpt lat="37.3018350" lon="-2.4994660">
        <ele>1591.6</ele>
        <time>2021-04-18T10:35:01Z</time>
      </trkpt>
      <trkpt lat="37.3019450" lon="-2.4995700">
        <ele>1590.8</ele>
        <time>2021-04-18T10:35:03Z</time>
      </trkpt>
      <trkpt lat="37.3020160" lon="-2.4996190">
        <ele>1590.4</ele>
        <time>2021-04-18T10:35:04Z</time>
      </trkpt>
      <trkpt lat="37.3021090" lon="-2.4996690">
        <ele>1589.8</ele>
        <time>2021-04-18T10:35:05Z</time>
      </trkpt>
      <trkpt lat="37.3022720" lon="-2.4997230">
        <ele>1589.0</ele>
        <time>2021-04-18T10:35:07Z</time>
      </trkpt>
      <trkpt lat="37.3023240" lon="-2.4997400">
        <ele>1588.4</ele>
        <time>2021-04-18T10:35:08Z</time>
      </trkpt>
      <trkpt lat="37.3023740" lon="-2.4997710">
        <ele>1587.2</ele>
        <time>2021-04-18T10:35:09Z</time>
      </trkpt>
      <trkpt lat="37.3024030" lon="-2.4998160">
        <ele>1586.4</ele>
        <time>2021-04-18T10:35:10Z</time>
      </trkpt>
      <trkpt lat="37.3024030" lon="-2.4998480">
        <ele>1586.2</ele>
        <time>2021-04-18T10:35:11Z</time>
      </trkpt>
      <trkpt lat="37.3023980" lon="-2.4998670">
        <ele>1584.8</ele>
        <time>2021-04-18T10:35:12Z</time>
      </trkpt>
      <trkpt lat="37.3023930" lon="-2.4998900">
        <ele>1584.4</ele>
        <time>2021-04-18T10:35:13Z</time>
      </trkpt>
      <trkpt lat="37.3023870" lon="-2.4999150">
        <ele>1583.8</ele>
        <time>2021-04-18T10:35:14Z</time>
      </trkpt>
      <trkpt lat="37.3023820" lon="-2.4999310">
        <ele>1583.6</ele>
        <time>2021-04-18T10:35:15Z</time>
      </trkpt>
      <trkpt lat="37.3023670" lon="-2.4999520">
        <ele>1583.2</ele>
        <time>2021-04-18T10:35:16Z</time>
      </trkpt>
      <trkpt lat="37.3023570" lon="-2.4999680">
        <ele>1583.0</ele>
        <time>2021-04-18T10:35:17Z</time>
      </trkpt>
      <trkpt lat="37.3023430" lon="-2.4999880">
        <ele>1583.0</ele>
        <time>2021-04-18T10:35:18Z</time>
      </trkpt>
      <trkpt lat="37.3022710" lon="-2.5000610">
        <ele>1582.8</ele>
        <time>2021-04-18T10:35:21Z</time>
      </trkpt>
      <trkpt lat="37.3020750" lon="-2.5002080">
        <ele>1582.2</ele>
        <time>2021-04-18T10:35:27Z</time>
      </trkpt>
      <trkpt lat="37.3020030" lon="-2.5002570">
        <ele>1582.0</ele>
        <time>2021-04-18T10:35:29Z</time>
      </trkpt>
      <trkpt lat="37.3019770" lon="-2.5002710">
        <ele>1581.8</ele>
        <time>2021-04-18T10:35:30Z</time>
      </trkpt>
      <trkpt lat="37.3019470" lon="-2.5002870">
        <ele>1581.4</ele>
        <time>2021-04-18T10:35:31Z</time>
      </trkpt>
      <trkpt lat="37.3019170" lon="-2.5003090">
        <ele>1581.4</ele>
        <time>2021-04-18T10:35:32Z</time>
      </trkpt>
      <trkpt lat="37.3018980" lon="-2.5003230">
        <ele>1581.0</ele>
        <time>2021-04-18T10:35:33Z</time>
      </trkpt>
      <trkpt lat="37.3018660" lon="-2.5003440">
        <ele>1581.0</ele>
        <time>2021-04-18T10:35:34Z</time>
      </trkpt>
      <trkpt lat="37.3018470" lon="-2.5003580">
        <ele>1580.8</ele>
        <time>2021-04-18T10:35:35Z</time>
      </trkpt>
      <trkpt lat="37.3018210" lon="-2.5003700">
        <ele>1580.8</ele>
        <time>2021-04-18T10:35:36Z</time>
      </trkpt>
      <trkpt lat="37.3017930" lon="-2.5003830">
        <ele>1580.8</ele>
        <time>2021-04-18T10:35:37Z</time>
      </trkpt>
      <trkpt lat="37.3017260" lon="-2.5004130">
        <ele>1580.8</ele>
        <time>2021-04-18T10:35:40Z</time>
      </trkpt>
      <trkpt lat="37.3017040" lon="-2.5004250">
        <ele>1580.8</ele>
        <time>2021-04-18T10:35:41Z</time>
      </trkpt>
      <trkpt lat="37.3016860" lon="-2.5004390">
        <ele>1580.8</ele>
        <time>2021-04-18T10:35:42Z</time>
      </trkpt>
      <trkpt lat="37.3016650" lon="-2.5004540">
        <ele>1581.0</ele>
        <time>2021-04-18T10:35:43Z</time>
      </trkpt>
      <trkpt lat="37.3016440" lon="-2.5004710">
        <ele>1581.0</ele>
        <time>2021-04-18T10:35:44Z</time>
      </trkpt>
      <trkpt lat="37.3016290" lon="-2.5004830">
        <ele>1581.2</ele>
        <time>2021-04-18T10:35:45Z</time>
      </trkpt>
      <trkpt lat="37.3016050" lon="-2.5005020">
        <ele>1581.2</ele>
        <time>2021-04-18T10:35:46Z</time>
      </trkpt>
      <trkpt lat="37.3015840" lon="-2.5005210">
        <ele>1581.4</ele>
        <time>2021-04-18T10:35:47Z</time>
      </trkpt>
      <trkpt lat="37.3015620" lon="-2.5005330">
        <ele>1581.4</ele>
        <time>2021-04-18T10:35:48Z</time>
      </trkpt>
      <trkpt lat="37.3015100" lon="-2.5005780">
        <ele>1581.6</ele>
        <time>2021-04-18T10:35:50Z</time>
      </trkpt>
      <trkpt lat="37.3014150" lon="-2.5006760">
        <ele>1582.0</ele>
        <time>2021-04-18T10:35:54Z</time>
      </trkpt>
      <trkpt lat="37.3013400" lon="-2.5007490">
        <ele>1582.0</ele>
        <time>2021-04-18T10:35:57Z</time>
      </trkpt>
      <trkpt lat="37.3011910" lon="-2.5008920">
        <ele>1582.2</ele>
        <time>2021-04-18T10:36:03Z</time>
      </trkpt>
      <trkpt lat="37.3011460" lon="-2.5009410">
        <ele>1582.4</ele>
        <time>2021-04-18T10:36:05Z</time>
      </trkpt>
      <trkpt lat="37.3011250" lon="-2.5009560">
        <ele>1582.6</ele>
        <time>2021-04-18T10:36:06Z</time>
      </trkpt>
      <trkpt lat="37.3010970" lon="-2.5009810">
        <ele>1582.6</ele>
        <time>2021-04-18T10:36:07Z</time>
      </trkpt>
      <trkpt lat="37.3010650" lon="-2.5010050">
        <ele>1582.6</ele>
        <time>2021-04-18T10:36:08Z</time>
      </trkpt>
      <trkpt lat="37.3010410" lon="-2.5010260">
        <ele>1582.8</ele>
        <time>2021-04-18T10:36:09Z</time>
      </trkpt>
      <trkpt lat="37.3010150" lon="-2.5010590">
        <ele>1583.0</ele>
        <time>2021-04-18T10:36:10Z</time>
      </trkpt>
      <trkpt lat="37.3009890" lon="-2.5010780">
        <ele>1583.0</ele>
        <time>2021-04-18T10:36:11Z</time>
      </trkpt>
      <trkpt lat="37.3008630" lon="-2.5011820">
        <ele>1583.4</ele>
        <time>2021-04-18T10:36:16Z</time>
      </trkpt>
      <trkpt lat="37.3008230" lon="-2.5012200">
        <ele>1583.4</ele>
        <time>2021-04-18T10:36:18Z</time>
      </trkpt>
      <trkpt lat="37.3006940" lon="-2.5013420">
        <ele>1583.8</ele>
        <time>2021-04-18T10:36:23Z</time>
      </trkpt>
      <trkpt lat="37.3004940" lon="-2.5015400">
        <ele>1583.6</ele>
        <time>2021-04-18T10:36:30Z</time>
      </trkpt>
      <trkpt lat="37.3003380" lon="-2.5017070">
        <ele>1583.2</ele>
        <time>2021-04-18T10:36:35Z</time>
      </trkpt>
      <trkpt lat="37.3003060" lon="-2.5017360">
        <ele>1583.0</ele>
        <time>2021-04-18T10:36:36Z</time>
      </trkpt>
      <trkpt lat="37.3001520" lon="-2.5018830">
        <ele>1583.0</ele>
        <time>2021-04-18T10:36:41Z</time>
      </trkpt>
      <trkpt lat="37.3001200" lon="-2.5019170">
        <ele>1582.8</ele>
        <time>2021-04-18T10:36:42Z</time>
      </trkpt>
      <trkpt lat="37.3000890" lon="-2.5019460">
        <ele>1582.8</ele>
        <time>2021-04-18T10:36:43Z</time>
      </trkpt>
      <trkpt lat="37.3000300" lon="-2.5020030">
        <ele>1583.0</ele>
        <time>2021-04-18T10:36:45Z</time>
      </trkpt>
      <trkpt lat="37.3000020" lon="-2.5020290">
        <ele>1583.0</ele>
        <time>2021-04-18T10:36:46Z</time>
      </trkpt>
      <trkpt lat="37.2999760" lon="-2.5020480">
        <ele>1583.2</ele>
        <time>2021-04-18T10:36:47Z</time>
      </trkpt>
      <trkpt lat="37.2999270" lon="-2.5020890">
        <ele>1583.2</ele>
        <time>2021-04-18T10:36:49Z</time>
      </trkpt>
      <trkpt lat="37.2999060" lon="-2.5021040">
        <ele>1583.2</ele>
        <time>2021-04-18T10:36:50Z</time>
      </trkpt>
      <trkpt lat="37.2998900" lon="-2.5021180">
        <ele>1583.4</ele>
        <time>2021-04-18T10:36:51Z</time>
      </trkpt>
      <trkpt lat="37.2998680" lon="-2.5021350">
        <ele>1583.6</ele>
        <time>2021-04-18T10:36:52Z</time>
      </trkpt>
      <trkpt lat="37.2998540" lon="-2.5021520">
        <ele>1583.6</ele>
        <time>2021-04-18T10:36:53Z</time>
      </trkpt>
      <trkpt lat="37.2998360" lon="-2.5021730">
        <ele>1583.8</ele>
        <time>2021-04-18T10:36:54Z</time>
      </trkpt>
      <trkpt lat="37.2998210" lon="-2.5021910">
        <ele>1584.2</ele>
        <time>2021-04-18T10:36:55Z</time>
      </trkpt>
      <trkpt lat="37.2997930" lon="-2.5022430">
        <ele>1584.2</ele>
        <time>2021-04-18T10:36:57Z</time>
      </trkpt>
      <trkpt lat="37.2997770" lon="-2.5022650">
        <ele>1584.2</ele>
        <time>2021-04-18T10:36:58Z</time>
      </trkpt>
      <trkpt lat="37.2997620" lon="-2.5022960">
        <ele>1584.4</ele>
        <time>2021-04-18T10:36:59Z</time>
      </trkpt>
      <trkpt lat="37.2997490" lon="-2.5023230">
        <ele>1584.6</ele>
        <time>2021-04-18T10:37:00Z</time>
      </trkpt>
      <trkpt lat="37.2997370" lon="-2.5023490">
        <ele>1584.8</ele>
        <time>2021-04-18T10:37:01Z</time>
      </trkpt>
      <trkpt lat="37.2997210" lon="-2.5023750">
        <ele>1585.0</ele>
        <time>2021-04-18T10:37:02Z</time>
      </trkpt>
      <trkpt lat="37.2996900" lon="-2.5024340">
        <ele>1585.4</ele>
        <time>2021-04-18T10:37:04Z</time>
      </trkpt>
      <trkpt lat="37.2996740" lon="-2.5024520">
        <ele>1585.4</ele>
        <time>2021-04-18T10:37:05Z</time>
      </trkpt>
      <trkpt lat="37.2996600" lon="-2.5024680">
        <ele>1585.6</ele>
        <time>2021-04-18T10:37:06Z</time>
      </trkpt>
      <trkpt lat="37.2996460" lon="-2.5024910">
        <ele>1585.8</ele>
        <time>2021-04-18T10:37:07Z</time>
      </trkpt>
      <trkpt lat="37.2996350" lon="-2.5025130">
        <ele>1586.0</ele>
        <time>2021-04-18T10:37:08Z</time>
      </trkpt>
      <trkpt lat="37.2996250" lon="-2.5025290">
        <ele>1586.2</ele>
        <time>2021-04-18T10:37:09Z</time>
      </trkpt>
      <trkpt lat="37.2996150" lon="-2.5025460">
        <ele>1586.4</ele>
        <time>2021-04-18T10:37:10Z</time>
      </trkpt>
      <trkpt lat="37.2996070" lon="-2.5025660">
        <ele>1587.0</ele>
        <time>2021-04-18T10:37:11Z</time>
      </trkpt>
      <trkpt lat="37.2995970" lon="-2.5025840">
        <ele>1587.4</ele>
        <time>2021-04-18T10:37:12Z</time>
      </trkpt>
      <trkpt lat="37.2995830" lon="-2.5026010">
        <ele>1587.8</ele>
        <time>2021-04-18T10:37:13Z</time>
      </trkpt>
      <trkpt lat="37.2995760" lon="-2.5026250">
        <ele>1588.0</ele>
        <time>2021-04-18T10:37:14Z</time>
      </trkpt>
      <trkpt lat="37.2995760" lon="-2.5026500">
        <ele>1588.2</ele>
        <time>2021-04-18T10:37:15Z</time>
      </trkpt>
      <trkpt lat="37.2995710" lon="-2.5026690">
        <ele>1588.4</ele>
        <time>2021-04-18T10:37:16Z</time>
      </trkpt>
      <trkpt lat="37.2995590" lon="-2.5026860">
        <ele>1588.6</ele>
        <time>2021-04-18T10:37:17Z</time>
      </trkpt>
      <trkpt lat="37.2995400" lon="-2.5026930">
        <ele>1588.8</ele>
        <time>2021-04-18T10:37:18Z</time>
      </trkpt>
      <trkpt lat="37.2995250" lon="-2.5027020">
        <ele>1588.8</ele>
        <time>2021-04-18T10:37:19Z</time>
      </trkpt>
      <trkpt lat="37.2995090" lon="-2.5027140">
        <ele>1588.8</ele>
        <time>2021-04-18T10:37:20Z</time>
      </trkpt>
      <trkpt lat="37.2994760" lon="-2.5027240">
        <ele>1589.0</ele>
        <time>2021-04-18T10:37:21Z</time>
      </trkpt>
      <trkpt lat="37.2994390" lon="-2.5027300">
        <ele>1589.0</ele>
        <time>2021-04-18T10:37:22Z</time>
      </trkpt>
      <trkpt lat="37.2994130" lon="-2.5027390">
        <ele>1589.0</ele>
        <time>2021-04-18T10:37:23Z</time>
      </trkpt>
      <trkpt lat="37.2993880" lon="-2.5027500">
        <ele>1589.0</ele>
        <time>2021-04-18T10:37:24Z</time>
      </trkpt>
      <trkpt lat="37.2993620" lon="-2.5027670">
        <ele>1588.8</ele>
        <time>2021-04-18T10:37:25Z</time>
      </trkpt>
      <trkpt lat="37.2993290" lon="-2.5027820">
        <ele>1588.6</ele>
        <time>2021-04-18T10:37:26Z</time>
      </trkpt>
      <trkpt lat="37.2992900" lon="-2.5027880">
        <ele>1588.4</ele>
        <time>2021-04-18T10:37:27Z</time>
      </trkpt>
      <trkpt lat="37.2992430" lon="-2.5027870">
        <ele>1587.8</ele>
        <time>2021-04-18T10:37:28Z</time>
      </trkpt>
      <trkpt lat="37.2991900" lon="-2.5027800">
        <ele>1587.6</ele>
        <time>2021-04-18T10:37:29Z</time>
      </trkpt>
      <trkpt lat="37.2991350" lon="-2.5027720">
        <ele>1586.4</ele>
        <time>2021-04-18T10:37:30Z</time>
      </trkpt>
      <trkpt lat="37.2990760" lon="-2.5027690">
        <ele>1585.8</ele>
        <time>2021-04-18T10:37:31Z</time>
      </trkpt>
      <trkpt lat="37.2990130" lon="-2.5027590">
        <ele>1585.4</ele>
        <time>2021-04-18T10:37:32Z</time>
      </trkpt>
      <trkpt lat="37.2989550" lon="-2.5027460">
        <ele>1584.6</ele>
        <time>2021-04-18T10:37:33Z</time>
      </trkpt>
      <trkpt lat="37.2989040" lon="-2.5027410">
        <ele>1584.0</ele>
        <time>2021-04-18T10:37:34Z</time>
      </trkpt>
      <trkpt lat="37.2988550" lon="-2.5027430">
        <ele>1582.8</ele>
        <time>2021-04-18T10:37:35Z</time>
      </trkpt>
      <trkpt lat="37.2988080" lon="-2.5027470">
        <ele>1582.2</ele>
        <time>2021-04-18T10:37:36Z</time>
      </trkpt>
      <trkpt lat="37.2987640" lon="-2.5027510">
        <ele>1581.8</ele>
        <time>2021-04-18T10:37:37Z</time>
      </trkpt>
      <trkpt lat="37.2987230" lon="-2.5027530">
        <ele>1581.0</ele>
        <time>2021-04-18T10:37:38Z</time>
      </trkpt>
      <trkpt lat="37.2986830" lon="-2.5027520">
        <ele>1580.8</ele>
        <time>2021-04-18T10:37:39Z</time>
      </trkpt>
      <trkpt lat="37.2986430" lon="-2.5027490">
        <ele>1580.4</ele>
        <time>2021-04-18T10:37:40Z</time>
      </trkpt>
      <trkpt lat="37.2986020" lon="-2.5027480">
        <ele>1580.2</ele>
        <time>2021-04-18T10:37:41Z</time>
      </trkpt>
      <trkpt lat="37.2985610" lon="-2.5027510">
        <ele>1579.8</ele>
        <time>2021-04-18T10:37:42Z</time>
      </trkpt>
      <trkpt lat="37.2985160" lon="-2.5027580">
        <ele>1579.8</ele>
        <time>2021-04-18T10:37:43Z</time>
      </trkpt>
      <trkpt lat="37.2984510" lon="-2.5027630">
        <ele>1579.6</ele>
        <time>2021-04-18T10:37:44Z</time>
      </trkpt>
      <trkpt lat="37.2982770" lon="-2.5027810">
        <ele>1578.8</ele>
        <time>2021-04-18T10:37:47Z</time>
      </trkpt>
      <trkpt lat="37.2980300" lon="-2.5028850">
        <ele>1578.2</ele>
        <time>2021-04-18T10:37:51Z</time>
      </trkpt>
      <trkpt lat="37.2979380" lon="-2.5029200">
        <ele>1577.6</ele>
        <time>2021-04-18T10:37:52Z</time>
      </trkpt>
      <trkpt lat="37.2977890" lon="-2.5029810">
        <ele>1576.4</ele>
        <time>2021-04-18T10:37:54Z</time>
      </trkpt>
      <trkpt lat="37.2976640" lon="-2.5030260">
        <ele>1574.8</ele>
        <time>2021-04-18T10:37:56Z</time>
      </trkpt>
      <trkpt lat="37.2975800" lon="-2.5030300">
        <ele>1574.2</ele>
        <time>2021-04-18T10:37:57Z</time>
      </trkpt>
      <trkpt lat="37.2975150" lon="-2.5030250">
        <ele>1573.8</ele>
        <time>2021-04-18T10:37:58Z</time>
      </trkpt>
      <trkpt lat="37.2974540" lon="-2.5030220">
        <ele>1572.8</ele>
        <time>2021-04-18T10:37:59Z</time>
      </trkpt>
      <trkpt lat="37.2974090" lon="-2.5030180">
        <ele>1572.4</ele>
        <time>2021-04-18T10:38:00Z</time>
      </trkpt>
      <trkpt lat="37.2973400" lon="-2.5030100">
        <ele>1571.4</ele>
        <time>2021-04-18T10:38:01Z</time>
      </trkpt>
      <trkpt lat="37.2972780" lon="-2.5029970">
        <ele>1571.0</ele>
        <time>2021-04-18T10:38:02Z</time>
      </trkpt>
      <trkpt lat="37.2971530" lon="-2.5029580">
        <ele>1570.6</ele>
        <time>2021-04-18T10:38:04Z</time>
      </trkpt>
      <trkpt lat="37.2970350" lon="-2.5029340">
        <ele>1570.0</ele>
        <time>2021-04-18T10:38:06Z</time>
      </trkpt>
      <trkpt lat="37.2969750" lon="-2.5029270">
        <ele>1570.0</ele>
        <time>2021-04-18T10:38:07Z</time>
      </trkpt>
      <trkpt lat="37.2969130" lon="-2.5029210">
        <ele>1569.6</ele>
        <time>2021-04-18T10:38:08Z</time>
      </trkpt>
      <trkpt lat="37.2968510" lon="-2.5029180">
        <ele>1569.4</ele>
        <time>2021-04-18T10:38:09Z</time>
      </trkpt>
      <trkpt lat="37.2968090" lon="-2.5029110">
        <ele>1569.4</ele>
        <time>2021-04-18T10:38:10Z</time>
      </trkpt>
      <trkpt lat="37.2967590" lon="-2.5028990">
        <ele>1569.2</ele>
        <time>2021-04-18T10:38:11Z</time>
      </trkpt>
      <trkpt lat="37.2967250" lon="-2.5028910">
        <ele>1569.0</ele>
        <time>2021-04-18T10:38:12Z</time>
      </trkpt>
      <trkpt lat="37.2966880" lon="-2.5028870">
        <ele>1569.0</ele>
        <time>2021-04-18T10:38:13Z</time>
      </trkpt>
      <trkpt lat="37.2966470" lon="-2.5028880">
        <ele>1568.8</ele>
        <time>2021-04-18T10:38:14Z</time>
      </trkpt>
      <trkpt lat="37.2965490" lon="-2.5028960">
        <ele>1568.2</ele>
        <time>2021-04-18T10:38:16Z</time>
      </trkpt>
      <trkpt lat="37.2965030" lon="-2.5028930">
        <ele>1568.0</ele>
        <time>2021-04-18T10:38:17Z</time>
      </trkpt>
      <trkpt lat="37.2964660" lon="-2.5028940">
        <ele>1567.6</ele>
        <time>2021-04-18T10:38:18Z</time>
      </trkpt>
      <trkpt lat="37.2964300" lon="-2.5028930">
        <ele>1567.4</ele>
        <time>2021-04-18T10:38:19Z</time>
      </trkpt>
      <trkpt lat="37.2963900" lon="-2.5028890">
        <ele>1567.0</ele>
        <time>2021-04-18T10:38:20Z</time>
      </trkpt>
      <trkpt lat="37.2962580" lon="-2.5028740">
        <ele>1566.6</ele>
        <time>2021-04-18T10:38:23Z</time>
      </trkpt>
      <trkpt lat="37.2962250" lon="-2.5028750">
        <ele>1566.4</ele>
        <time>2021-04-18T10:38:24Z</time>
      </trkpt>
      <trkpt lat="37.2961210" lon="-2.5028710">
        <ele>1565.8</ele>
        <time>2021-04-18T10:38:26Z</time>
      </trkpt>
      <trkpt lat="37.2960720" lon="-2.5028780">
        <ele>1565.6</ele>
        <time>2021-04-18T10:38:27Z</time>
      </trkpt>
      <trkpt lat="37.2960150" lon="-2.5028840">
        <ele>1564.8</ele>
        <time>2021-04-18T10:38:28Z</time>
      </trkpt>
      <trkpt lat="37.2958210" lon="-2.5029070">
        <ele>1564.0</ele>
        <time>2021-04-18T10:38:31Z</time>
      </trkpt>
      <trkpt lat="37.2957610" lon="-2.5029150">
        <ele>1563.6</ele>
        <time>2021-04-18T10:38:32Z</time>
      </trkpt>
      <trkpt lat="37.2957010" lon="-2.5029140">
        <ele>1563.0</ele>
        <time>2021-04-18T10:38:33Z</time>
      </trkpt>
      <trkpt lat="37.2956590" lon="-2.5029000">
        <ele>1562.8</ele>
        <time>2021-04-18T10:38:34Z</time>
      </trkpt>
      <trkpt lat="37.2956210" lon="-2.5028750">
        <ele>1562.6</ele>
        <time>2021-04-18T10:38:35Z</time>
      </trkpt>
      <trkpt lat="37.2955810" lon="-2.5028470">
        <ele>1562.4</ele>
        <time>2021-04-18T10:38:36Z</time>
      </trkpt>
      <trkpt lat="37.2955470" lon="-2.5028360">
        <ele>1562.0</ele>
        <time>2021-04-18T10:38:37Z</time>
      </trkpt>
      <trkpt lat="37.2955130" lon="-2.5028350">
        <ele>1562.0</ele>
        <time>2021-04-18T10:38:38Z</time>
      </trkpt>
      <trkpt lat="37.2954840" lon="-2.5028380">
        <ele>1561.8</ele>
        <time>2021-04-18T10:38:39Z</time>
      </trkpt>
      <trkpt lat="37.2954410" lon="-2.5028430">
        <ele>1561.6</ele>
        <time>2021-04-18T10:38:40Z</time>
      </trkpt>
      <trkpt lat="37.2953880" lon="-2.5028640">
        <ele>1561.6</ele>
        <time>2021-04-18T10:38:41Z</time>
      </trkpt>
      <trkpt lat="37.2953370" lon="-2.5028930">
        <ele>1561.2</ele>
        <time>2021-04-18T10:38:42Z</time>
      </trkpt>
      <trkpt lat="37.2952790" lon="-2.5029170">
        <ele>1561.2</ele>
        <time>2021-04-18T10:38:43Z</time>
      </trkpt>
      <trkpt lat="37.2951180" lon="-2.5029530">
        <ele>1560.8</ele>
        <time>2021-04-18T10:38:46Z</time>
      </trkpt>
      <trkpt lat="37.2950670" lon="-2.5029760">
        <ele>1560.6</ele>
        <time>2021-04-18T10:38:47Z</time>
      </trkpt>
      <trkpt lat="37.2950310" lon="-2.5029900">
        <ele>1560.4</ele>
        <time>2021-04-18T10:38:48Z</time>
      </trkpt>
      <trkpt lat="37.2949820" lon="-2.5030070">
        <ele>1560.2</ele>
        <time>2021-04-18T10:38:49Z</time>
      </trkpt>
      <trkpt lat="37.2949270" lon="-2.5030280">
        <ele>1560.2</ele>
        <time>2021-04-18T10:38:50Z</time>
      </trkpt>
      <trkpt lat="37.2948950" lon="-2.5030470">
        <ele>1559.8</ele>
        <time>2021-04-18T10:38:51Z</time>
      </trkpt>
      <trkpt lat="37.2948600" lon="-2.5030650">
        <ele>1559.4</ele>
        <time>2021-04-18T10:38:52Z</time>
      </trkpt>
      <trkpt lat="37.2948320" lon="-2.5030770">
        <ele>1559.4</ele>
        <time>2021-04-18T10:38:53Z</time>
      </trkpt>
      <trkpt lat="37.2948050" lon="-2.5030810">
        <ele>1559.8</ele>
        <time>2021-04-18T10:38:54Z</time>
      </trkpt>
      <trkpt lat="37.2947690" lon="-2.5030780">
        <ele>1560.2</ele>
        <time>2021-04-18T10:38:55Z</time>
      </trkpt>
      <trkpt lat="37.2947420" lon="-2.5030770">
        <ele>1560.4</ele>
        <time>2021-04-18T10:38:56Z</time>
      </trkpt>
      <trkpt lat="37.2947200" lon="-2.5030760">
        <ele>1560.6</ele>
        <time>2021-04-18T10:38:57Z</time>
      </trkpt>
      <trkpt lat="37.2946870" lon="-2.5030770">
        <ele>1560.8</ele>
        <time>2021-04-18T10:38:58Z</time>
      </trkpt>
      <trkpt lat="37.2946630" lon="-2.5030890">
        <ele>1561.0</ele>
        <time>2021-04-18T10:38:59Z</time>
      </trkpt>
      <trkpt lat="37.2946420" lon="-2.5031050">
        <ele>1561.4</ele>
        <time>2021-04-18T10:39:00Z</time>
      </trkpt>
      <trkpt lat="37.2946100" lon="-2.5031300">
        <ele>1561.8</ele>
        <time>2021-04-18T10:39:01Z</time>
      </trkpt>
      <trkpt lat="37.2945370" lon="-2.5031780">
        <ele>1562.8</ele>
        <time>2021-04-18T10:39:04Z</time>
      </trkpt>
      <trkpt lat="37.2945200" lon="-2.5031920">
        <ele>1563.0</ele>
        <time>2021-04-18T10:39:05Z</time>
      </trkpt>
      <trkpt lat="37.2945070" lon="-2.5032160">
        <ele>1563.2</ele>
        <time>2021-04-18T10:39:06Z</time>
      </trkpt>
      <trkpt lat="37.2945010" lon="-2.5032530">
        <ele>1563.2</ele>
        <time>2021-04-18T10:39:07Z</time>
      </trkpt>
      <trkpt lat="37.2944970" lon="-2.5032980">
        <ele>1563.2</ele>
        <time>2021-04-18T10:39:08Z</time>
      </trkpt>
      <trkpt lat="37.2944920" lon="-2.5033540">
        <ele>1563.2</ele>
        <time>2021-04-18T10:39:09Z</time>
      </trkpt>
      <trkpt lat="37.2944830" lon="-2.5034120">
        <ele>1563.2</ele>
        <time>2021-04-18T10:39:10Z</time>
      </trkpt>
      <trkpt lat="37.2944670" lon="-2.5034680">
        <ele>1563.2</ele>
        <time>2021-04-18T10:39:11Z</time>
      </trkpt>
      <trkpt lat="37.2944520" lon="-2.5035300">
        <ele>1563.0</ele>
        <time>2021-04-18T10:39:12Z</time>
      </trkpt>
      <trkpt lat="37.2944550" lon="-2.5036560">
        <ele>1562.6</ele>
        <time>2021-04-18T10:39:14Z</time>
      </trkpt>
      <trkpt lat="37.2944780" lon="-2.5037170">
        <ele>1561.8</ele>
        <time>2021-04-18T10:39:15Z</time>
      </trkpt>
      <trkpt lat="37.2944920" lon="-2.5037480">
        <ele>1561.2</ele>
        <time>2021-04-18T10:39:16Z</time>
      </trkpt>
      <trkpt lat="37.2945000" lon="-2.5037890">
        <ele>1560.8</ele>
        <time>2021-04-18T10:39:17Z</time>
      </trkpt>
      <trkpt lat="37.2945090" lon="-2.5038210">
        <ele>1559.6</ele>
        <time>2021-04-18T10:39:18Z</time>
      </trkpt>
      <trkpt lat="37.2945140" lon="-2.5038590">
        <ele>1559.0</ele>
        <time>2021-04-18T10:39:19Z</time>
      </trkpt>
      <trkpt lat="37.2945060" lon="-2.5038880">
        <ele>1557.4</ele>
        <time>2021-04-18T10:39:20Z</time>
      </trkpt>
      <trkpt lat="37.2944980" lon="-2.5039150">
        <ele>1555.8</ele>
        <time>2021-04-18T10:39:21Z</time>
      </trkpt>
      <trkpt lat="37.2944980" lon="-2.5039400">
        <ele>1555.2</ele>
        <time>2021-04-18T10:39:22Z</time>
      </trkpt>
      <trkpt lat="37.2945080" lon="-2.5039600">
        <ele>1554.4</ele>
        <time>2021-04-18T10:39:23Z</time>
      </trkpt>
      <trkpt lat="37.2945220" lon="-2.5039670">
        <ele>1553.6</ele>
        <time>2021-04-18T10:39:24Z</time>
      </trkpt>
      <trkpt lat="37.2945380" lon="-2.5039630">
        <ele>1552.4</ele>
        <time>2021-04-18T10:39:25Z</time>
      </trkpt>
      <trkpt lat="37.2945580" lon="-2.5039580">
        <ele>1552.0</ele>
        <time>2021-04-18T10:39:26Z</time>
      </trkpt>
      <trkpt lat="37.2945750" lon="-2.5039520">
        <ele>1551.6</ele>
        <time>2021-04-18T10:39:27Z</time>
      </trkpt>
      <trkpt lat="37.2946100" lon="-2.5039420">
        <ele>1551.4</ele>
        <time>2021-04-18T10:39:29Z</time>
      </trkpt>
      <trkpt lat="37.2946130" lon="-2.5039430">
        <ele>1551.2</ele>
        <time>2021-04-18T10:39:30Z</time>
      </trkpt>
      <trkpt lat="37.2946130" lon="-2.5039430">
        <ele>1551.2</ele>
        <time>2021-04-18T10:39:32Z</time>
      </trkpt>
      <trkpt lat="37.2946130" lon="-2.5039430">
        <ele>1551.2</ele>
        <time>2021-04-18T10:39:33Z</time>
      </trkpt>
      <trkpt lat="37.2946350" lon="-2.5039060">
        <ele>1550.0</ele>
        <time>2021-04-18T10:42:29Z</time>
      </trkpt>
      <trkpt lat="37.2946470" lon="-2.5038930">
        <ele>1550.0</ele>
        <time>2021-04-18T10:42:30Z</time>
      </trkpt>
      <trkpt lat="37.2946600" lon="-2.5038810">
        <ele>1550.0</ele>
        <time>2021-04-18T10:42:31Z</time>
      </trkpt>
      <trkpt lat="37.2946770" lon="-2.5038740">
        <ele>1550.0</ele>
        <time>2021-04-18T10:42:32Z</time>
      </trkpt>
      <trkpt lat="37.2946930" lon="-2.5038720">
        <ele>1550.0</ele>
        <time>2021-04-18T10:42:33Z</time>
      </trkpt>
      <trkpt lat="37.2947070" lon="-2.5038750">
        <ele>1550.2</ele>
        <time>2021-04-18T10:42:34Z</time>
      </trkpt>
      <trkpt lat="37.2947170" lon="-2.5038830">
        <ele>1550.2</ele>
        <time>2021-04-18T10:42:35Z</time>
      </trkpt>
      <trkpt lat="37.2947390" lon="-2.5039090">
        <ele>1550.6</ele>
        <time>2021-04-18T10:42:37Z</time>
      </trkpt>
      <trkpt lat="37.2947470" lon="-2.5039200">
        <ele>1550.6</ele>
        <time>2021-04-18T10:42:38Z</time>
      </trkpt>
      <trkpt lat="37.2947540" lon="-2.5039340">
        <ele>1551.0</ele>
        <time>2021-04-18T10:42:39Z</time>
      </trkpt>
      <trkpt lat="37.2947630" lon="-2.5039510">
        <ele>1551.2</ele>
        <time>2021-04-18T10:42:40Z</time>
      </trkpt>
      <trkpt lat="37.2947700" lon="-2.5039730">
        <ele>1551.4</ele>
        <time>2021-04-18T10:42:41Z</time>
      </trkpt>
      <trkpt lat="37.2947960" lon="-2.5040180">
        <ele>1551.8</ele>
        <time>2021-04-18T10:42:43Z</time>
      </trkpt>
      <trkpt lat="37.2948130" lon="-2.5040380">
        <ele>1552.0</ele>
        <time>2021-04-18T10:42:44Z</time>
      </trkpt>
      <trkpt lat="37.2948300" lon="-2.5040600">
        <ele>1552.0</ele>
        <time>2021-04-18T10:42:45Z</time>
      </trkpt>
      <trkpt lat="37.2948550" lon="-2.5041520">
        <ele>1552.2</ele>
        <time>2021-04-18T10:42:48Z</time>
      </trkpt>
      <trkpt lat="37.2948630" lon="-2.5041860">
        <ele>1552.2</ele>
        <time>2021-04-18T10:42:49Z</time>
      </trkpt>
      <trkpt lat="37.2948710" lon="-2.5042160">
        <ele>1552.2</ele>
        <time>2021-04-18T10:42:50Z</time>
      </trkpt>
      <trkpt lat="37.2948780" lon="-2.5042430">
        <ele>1552.4</ele>
        <time>2021-04-18T10:42:51Z</time>
      </trkpt>
      <trkpt lat="37.2948800" lon="-2.5042660">
        <ele>1552.4</ele>
        <time>2021-04-18T10:42:52Z</time>
      </trkpt>
      <trkpt lat="37.2948800" lon="-2.5042850">
        <ele>1552.4</ele>
        <time>2021-04-18T10:42:53Z</time>
      </trkpt>
      <trkpt lat="37.2948800" lon="-2.5043070">
        <ele>1552.4</ele>
        <time>2021-04-18T10:42:54Z</time>
      </trkpt>
      <trkpt lat="37.2948800" lon="-2.5043350">
        <ele>1552.6</ele>
        <time>2021-04-18T10:42:55Z</time>
      </trkpt>
      <trkpt lat="37.2948720" lon="-2.5044100">
        <ele>1553.0</ele>
        <time>2021-04-18T10:42:58Z</time>
      </trkpt>
      <trkpt lat="37.2948650" lon="-2.5044330">
        <ele>1553.2</ele>
        <time>2021-04-18T10:42:59Z</time>
      </trkpt>
      <trkpt lat="37.2948580" lon="-2.5044530">
        <ele>1553.4</ele>
        <time>2021-04-18T10:43:00Z</time>
      </trkpt>
      <trkpt lat="37.2948520" lon="-2.5044790">
        <ele>1553.6</ele>
        <time>2021-04-18T10:43:01Z</time>
      </trkpt>
      <trkpt lat="37.2948540" lon="-2.5045050">
        <ele>1553.6</ele>
        <time>2021-04-18T10:43:02Z</time>
      </trkpt>
      <trkpt lat="37.2948490" lon="-2.5045130">
        <ele>1553.8</ele>
        <time>2021-04-18T10:43:03Z</time>
      </trkpt>
      <trkpt lat="37.2948360" lon="-2.5045590">
        <ele>1553.8</ele>
        <time>2021-04-18T10:43:05Z</time>
      </trkpt>
      <trkpt lat="37.2948270" lon="-2.5045860">
        <ele>1554.0</ele>
        <time>2021-04-18T10:43:06Z</time>
      </trkpt>
      <trkpt lat="37.2948200" lon="-2.5046030">
        <ele>1554.0</ele>
        <time>2021-04-18T10:43:07Z</time>
      </trkpt>
      <trkpt lat="37.2948200" lon="-2.5046210">
        <ele>1554.2</ele>
        <time>2021-04-18T10:43:08Z</time>
      </trkpt>
      <trkpt lat="37.2948190" lon="-2.5046520">
        <ele>1554.2</ele>
        <time>2021-04-18T10:43:09Z</time>
      </trkpt>
      <trkpt lat="37.2948000" lon="-2.5046980">
        <ele>1554.4</ele>
        <time>2021-04-18T10:43:10Z</time>
      </trkpt>
      <trkpt lat="37.2947690" lon="-2.5047640">
        <ele>1554.4</ele>
        <time>2021-04-18T10:43:11Z</time>
      </trkpt>
      <trkpt lat="37.2947470" lon="-2.5048030">
        <ele>1554.4</ele>
        <time>2021-04-18T10:43:12Z</time>
      </trkpt>
      <trkpt lat="37.2947410" lon="-2.5048070">
        <ele>1554.4</ele>
        <time>2021-04-18T10:43:13Z</time>
      </trkpt>
      <trkpt lat="37.2947450" lon="-2.5048260">
        <ele>1554.6</ele>
        <time>2021-04-18T10:43:14Z</time>
      </trkpt>
      <trkpt lat="37.2947510" lon="-2.5048540">
        <ele>1554.6</ele>
        <time>2021-04-18T10:43:15Z</time>
      </trkpt>
      <trkpt lat="37.2947540" lon="-2.5048850">
        <ele>1554.6</ele>
        <time>2021-04-18T10:43:16Z</time>
      </trkpt>
      <trkpt lat="37.2947690" lon="-2.5049300">
        <ele>1554.4</ele>
        <time>2021-04-18T10:43:17Z</time>
      </trkpt>
      <trkpt lat="37.2947940" lon="-2.5049840">
        <ele>1554.4</ele>
        <time>2021-04-18T10:43:18Z</time>
      </trkpt>
      <trkpt lat="37.2948060" lon="-2.5050290">
        <ele>1554.4</ele>
        <time>2021-04-18T10:43:19Z</time>
      </trkpt>
      <trkpt lat="37.2948390" lon="-2.5051140">
        <ele>1554.2</ele>
        <time>2021-04-18T10:43:21Z</time>
      </trkpt>
      <trkpt lat="37.2948320" lon="-2.5051730">
        <ele>1554.0</ele>
        <time>2021-04-18T10:43:22Z</time>
      </trkpt>
      <trkpt lat="37.2948250" lon="-2.5052160">
        <ele>1554.0</ele>
        <time>2021-04-18T10:43:23Z</time>
      </trkpt>
      <trkpt lat="37.2948220" lon="-2.5052560">
        <ele>1553.8</ele>
        <time>2021-04-18T10:43:24Z</time>
      </trkpt>
      <trkpt lat="37.2948300" lon="-2.5053000">
        <ele>1553.8</ele>
        <time>2021-04-18T10:43:25Z</time>
      </trkpt>
      <trkpt lat="37.2948310" lon="-2.5053510">
        <ele>1553.6</ele>
        <time>2021-04-18T10:43:26Z</time>
      </trkpt>
      <trkpt lat="37.2948450" lon="-2.5054530">
        <ele>1553.6</ele>
        <time>2021-04-18T10:43:28Z</time>
      </trkpt>
      <trkpt lat="37.2948590" lon="-2.5055090">
        <ele>1553.6</ele>
        <time>2021-04-18T10:43:29Z</time>
      </trkpt>
      <trkpt lat="37.2948730" lon="-2.5055530">
        <ele>1553.4</ele>
        <time>2021-04-18T10:43:30Z</time>
      </trkpt>
      <trkpt lat="37.2948840" lon="-2.5056280">
        <ele>1553.4</ele>
        <time>2021-04-18T10:43:32Z</time>
      </trkpt>
      <trkpt lat="37.2948970" lon="-2.5056750">
        <ele>1553.4</ele>
        <time>2021-04-18T10:43:33Z</time>
      </trkpt>
      <trkpt lat="37.2949050" lon="-2.5057250">
        <ele>1553.4</ele>
        <time>2021-04-18T10:43:34Z</time>
      </trkpt>
      <trkpt lat="37.2949000" lon="-2.5057750">
        <ele>1553.2</ele>
        <time>2021-04-18T10:43:35Z</time>
      </trkpt>
      <trkpt lat="37.2948890" lon="-2.5058200">
        <ele>1553.2</ele>
        <time>2021-04-18T10:43:36Z</time>
      </trkpt>
      <trkpt lat="37.2948660" lon="-2.5058670">
        <ele>1553.2</ele>
        <time>2021-04-18T10:43:37Z</time>
      </trkpt>
      <trkpt lat="37.2948430" lon="-2.5058850">
        <ele>1553.2</ele>
        <time>2021-04-18T10:43:38Z</time>
      </trkpt>
      <trkpt lat="37.2948190" lon="-2.5059070">
        <ele>1553.2</ele>
        <time>2021-04-18T10:43:39Z</time>
      </trkpt>
      <trkpt lat="37.2948010" lon="-2.5059440">
        <ele>1553.2</ele>
        <time>2021-04-18T10:43:40Z</time>
      </trkpt>
      <trkpt lat="37.2947820" lon="-2.5059780">
        <ele>1553.2</ele>
        <time>2021-04-18T10:43:41Z</time>
      </trkpt>
      <trkpt lat="37.2947640" lon="-2.5061080">
        <ele>1553.6</ele>
        <time>2021-04-18T10:43:44Z</time>
      </trkpt>
      <trkpt lat="37.2947710" lon="-2.5061480">
        <ele>1554.0</ele>
        <time>2021-04-18T10:43:45Z</time>
      </trkpt>
      <trkpt lat="37.2947620" lon="-2.5062040">
        <ele>1554.2</ele>
        <time>2021-04-18T10:43:46Z</time>
      </trkpt>
      <trkpt lat="37.2947410" lon="-2.5062780">
        <ele>1554.2</ele>
        <time>2021-04-18T10:43:47Z</time>
      </trkpt>
      <trkpt lat="37.2947050" lon="-2.5063920">
        <ele>1554.4</ele>
        <time>2021-04-18T10:43:49Z</time>
      </trkpt>
      <trkpt lat="37.2946860" lon="-2.5064230">
        <ele>1554.4</ele>
        <time>2021-04-18T10:43:50Z</time>
      </trkpt>
      <trkpt lat="37.2946640" lon="-2.5064600">
        <ele>1554.4</ele>
        <time>2021-04-18T10:43:51Z</time>
      </trkpt>
      <trkpt lat="37.2946110" lon="-2.5065320">
        <ele>1554.6</ele>
        <time>2021-04-18T10:43:53Z</time>
      </trkpt>
      <trkpt lat="37.2945840" lon="-2.5065620">
        <ele>1554.6</ele>
        <time>2021-04-18T10:43:54Z</time>
      </trkpt>
      <trkpt lat="37.2945570" lon="-2.5065730">
        <ele>1554.6</ele>
        <time>2021-04-18T10:43:55Z</time>
      </trkpt>
      <trkpt lat="37.2945370" lon="-2.5065870">
        <ele>1554.8</ele>
        <time>2021-04-18T10:43:56Z</time>
      </trkpt>
      <trkpt lat="37.2945220" lon="-2.5066060">
        <ele>1555.0</ele>
        <time>2021-04-18T10:43:57Z</time>
      </trkpt>
      <trkpt lat="37.2945150" lon="-2.5066320">
        <ele>1555.4</ele>
        <time>2021-04-18T10:43:58Z</time>
      </trkpt>
      <trkpt lat="37.2945110" lon="-2.5066560">
        <ele>1555.6</ele>
        <time>2021-04-18T10:43:59Z</time>
      </trkpt>
      <trkpt lat="37.2944890" lon="-2.5066690">
        <ele>1555.8</ele>
        <time>2021-04-18T10:44:00Z</time>
      </trkpt>
      <trkpt lat="37.2944700" lon="-2.5066800">
        <ele>1556.0</ele>
        <time>2021-04-18T10:44:01Z</time>
      </trkpt>
      <trkpt lat="37.2944380" lon="-2.5067100">
        <ele>1556.4</ele>
        <time>2021-04-18T10:44:02Z</time>
      </trkpt>
      <trkpt lat="37.2944120" lon="-2.5067370">
        <ele>1556.6</ele>
        <time>2021-04-18T10:44:03Z</time>
      </trkpt>
      <trkpt lat="37.2943910" lon="-2.5067700">
        <ele>1556.8</ele>
        <time>2021-04-18T10:44:04Z</time>
      </trkpt>
      <trkpt lat="37.2943890" lon="-2.5067940">
        <ele>1557.0</ele>
        <time>2021-04-18T10:44:05Z</time>
      </trkpt>
      <trkpt lat="37.2943880" lon="-2.5068200">
        <ele>1557.0</ele>
        <time>2021-04-18T10:44:06Z</time>
      </trkpt>
      <trkpt lat="37.2943910" lon="-2.5068530">
        <ele>1557.0</ele>
        <time>2021-04-18T10:44:07Z</time>
      </trkpt>
      <trkpt lat="37.2943740" lon="-2.5068890">
        <ele>1557.0</ele>
        <time>2021-04-18T10:44:08Z</time>
      </trkpt>
      <trkpt lat="37.2943490" lon="-2.5069200">
        <ele>1557.2</ele>
        <time>2021-04-18T10:44:09Z</time>
      </trkpt>
      <trkpt lat="37.2943240" lon="-2.5069380">
        <ele>1557.2</ele>
        <time>2021-04-18T10:44:10Z</time>
      </trkpt>
      <trkpt lat="37.2943070" lon="-2.5069550">
        <ele>1557.2</ele>
        <time>2021-04-18T10:44:11Z</time>
      </trkpt>
      <trkpt lat="37.2942940" lon="-2.5069680">
        <ele>1557.4</ele>
        <time>2021-04-18T10:44:12Z</time>
      </trkpt>
      <trkpt lat="37.2942770" lon="-2.5069770">
        <ele>1557.4</ele>
        <time>2021-04-18T10:44:13Z</time>
      </trkpt>
      <trkpt lat="37.2942580" lon="-2.5069810">
        <ele>1557.4</ele>
        <time>2021-04-18T10:44:14Z</time>
      </trkpt>
      <trkpt lat="37.2942470" lon="-2.5069900">
        <ele>1557.4</ele>
        <time>2021-04-18T10:44:15Z</time>
      </trkpt>
      <trkpt lat="37.2942350" lon="-2.5070040">
        <ele>1557.6</ele>
        <time>2021-04-18T10:44:16Z</time>
      </trkpt>
      <trkpt lat="37.2942170" lon="-2.5070170">
        <ele>1558.0</ele>
        <time>2021-04-18T10:44:17Z</time>
      </trkpt>
      <trkpt lat="37.2941980" lon="-2.5070290">
        <ele>1558.4</ele>
        <time>2021-04-18T10:44:18Z</time>
      </trkpt>
      <trkpt lat="37.2941800" lon="-2.5070360">
        <ele>1558.8</ele>
        <time>2021-04-18T10:44:19Z</time>
      </trkpt>
      <trkpt lat="37.2941670" lon="-2.5070410">
        <ele>1559.0</ele>
        <time>2021-04-18T10:44:20Z</time>
      </trkpt>
      <trkpt lat="37.2941620" lon="-2.5070410">
        <ele>1559.4</ele>
        <time>2021-04-18T10:44:21Z</time>
      </trkpt>
      <trkpt lat="37.2941540" lon="-2.5070500">
        <ele>1559.6</ele>
        <time>2021-04-18T10:44:22Z</time>
      </trkpt>
      <trkpt lat="37.2941370" lon="-2.5070630">
        <ele>1560.0</ele>
        <time>2021-04-18T10:44:23Z</time>
      </trkpt>
      <trkpt lat="37.2941190" lon="-2.5070850">
        <ele>1560.4</ele>
        <time>2021-04-18T10:44:24Z</time>
      </trkpt>
      <trkpt lat="37.2940950" lon="-2.5071070">
        <ele>1560.6</ele>
        <time>2021-04-18T10:44:25Z</time>
      </trkpt>
      <trkpt lat="37.2940730" lon="-2.5071150">
        <ele>1561.0</ele>
        <time>2021-04-18T10:44:26Z</time>
      </trkpt>
      <trkpt lat="37.2940520" lon="-2.5071460">
        <ele>1561.0</ele>
        <time>2021-04-18T10:44:27Z</time>
      </trkpt>
      <trkpt lat="37.2940230" lon="-2.5071810">
        <ele>1561.4</ele>
        <time>2021-04-18T10:44:28Z</time>
      </trkpt>
      <trkpt lat="37.2939970" lon="-2.5072020">
        <ele>1561.6</ele>
        <time>2021-04-18T10:44:29Z</time>
      </trkpt>
      <trkpt lat="37.2939780" lon="-2.5072240">
        <ele>1561.6</ele>
        <time>2021-04-18T10:44:30Z</time>
      </trkpt>
      <trkpt lat="37.2939510" lon="-2.5072540">
        <ele>1561.6</ele>
        <time>2021-04-18T10:44:31Z</time>
      </trkpt>
      <trkpt lat="37.2939140" lon="-2.5072930">
        <ele>1561.6</ele>
        <time>2021-04-18T10:44:32Z</time>
      </trkpt>
      <trkpt lat="37.2938860" lon="-2.5073200">
        <ele>1561.6</ele>
        <time>2021-04-18T10:44:33Z</time>
      </trkpt>
      <trkpt lat="37.2938670" lon="-2.5073360">
        <ele>1561.8</ele>
        <time>2021-04-18T10:44:34Z</time>
      </trkpt>
      <trkpt lat="37.2938540" lon="-2.5073580">
        <ele>1561.8</ele>
        <time>2021-04-18T10:44:35Z</time>
      </trkpt>
      <trkpt lat="37.2938390" lon="-2.5073760">
        <ele>1561.8</ele>
        <time>2021-04-18T10:44:36Z</time>
      </trkpt>
      <trkpt lat="37.2938210" lon="-2.5073960">
        <ele>1561.8</ele>
        <time>2021-04-18T10:44:37Z</time>
      </trkpt>
      <trkpt lat="37.2938040" lon="-2.5074140">
        <ele>1561.8</ele>
        <time>2021-04-18T10:44:38Z</time>
      </trkpt>
      <trkpt lat="37.2937940" lon="-2.5074300">
        <ele>1561.8</ele>
        <time>2021-04-18T10:44:39Z</time>
      </trkpt>
      <trkpt lat="37.2937770" lon="-2.5074480">
        <ele>1561.8</ele>
        <time>2021-04-18T10:44:40Z</time>
      </trkpt>
      <trkpt lat="37.2937590" lon="-2.5074640">
        <ele>1561.8</ele>
        <time>2021-04-18T10:44:41Z</time>
      </trkpt>
      <trkpt lat="37.2937380" lon="-2.5074800">
        <ele>1561.8</ele>
        <time>2021-04-18T10:44:42Z</time>
      </trkpt>
      <trkpt lat="37.2937090" lon="-2.5074960">
        <ele>1561.8</ele>
        <time>2021-04-18T10:44:43Z</time>
      </trkpt>
      <trkpt lat="37.2936830" lon="-2.5075110">
        <ele>1562.0</ele>
        <time>2021-04-18T10:44:44Z</time>
      </trkpt>
      <trkpt lat="37.2936490" lon="-2.5074970">
        <ele>1562.0</ele>
        <time>2021-04-18T10:44:45Z</time>
      </trkpt>
      <trkpt lat="37.2936230" lon="-2.5074970">
        <ele>1562.0</ele>
        <time>2021-04-18T10:44:46Z</time>
      </trkpt>
      <trkpt lat="37.2935950" lon="-2.5075060">
        <ele>1562.2</ele>
        <time>2021-04-18T10:44:47Z</time>
      </trkpt>
      <trkpt lat="37.2935730" lon="-2.5075160">
        <ele>1562.4</ele>
        <time>2021-04-18T10:44:48Z</time>
      </trkpt>
      <trkpt lat="37.2935540" lon="-2.5075300">
        <ele>1562.6</ele>
        <time>2021-04-18T10:44:49Z</time>
      </trkpt>
      <trkpt lat="37.2935480" lon="-2.5075340">
        <ele>1563.0</ele>
        <time>2021-04-18T10:44:50Z</time>
      </trkpt>
      <trkpt lat="37.2935480" lon="-2.5075310">
        <ele>1563.2</ele>
        <time>2021-04-18T10:44:51Z</time>
      </trkpt>
      <trkpt lat="37.2935480" lon="-2.5075310">
        <ele>1564.0</ele>
        <time>2021-04-18T10:44:52Z</time>
      </trkpt>
      <trkpt lat="37.2935480" lon="-2.5075310">
        <ele>1564.4</ele>
        <time>2021-04-18T10:44:53Z</time>
      </trkpt>
      <trkpt lat="37.2934800" lon="-2.5075860">
        <ele>1566.2</ele>
        <time>2021-04-18T10:45:09Z</time>
      </trkpt>
      <trkpt lat="37.2934620" lon="-2.5076010">
        <ele>1566.2</ele>
        <time>2021-04-18T10:45:10Z</time>
      </trkpt>
      <trkpt lat="37.2934400" lon="-2.5076120">
        <ele>1566.0</ele>
        <time>2021-04-18T10:45:11Z</time>
      </trkpt>
      <trkpt lat="37.2934210" lon="-2.5076210">
        <ele>1566.0</ele>
        <time>2021-04-18T10:45:12Z</time>
      </trkpt>
      <trkpt lat="37.2933960" lon="-2.5076320">
        <ele>1566.0</ele>
        <time>2021-04-18T10:45:13Z</time>
      </trkpt>
      <trkpt lat="37.2933650" lon="-2.5076430">
        <ele>1565.8</ele>
        <time>2021-04-18T10:45:14Z</time>
      </trkpt>
      <trkpt lat="37.2933300" lon="-2.5076590">
        <ele>1565.6</ele>
        <time>2021-04-18T10:45:15Z</time>
      </trkpt>
      <trkpt lat="37.2932970" lon="-2.5076700">
        <ele>1565.2</ele>
        <time>2021-04-18T10:45:16Z</time>
      </trkpt>
      <trkpt lat="37.2932640" lon="-2.5076830">
        <ele>1565.2</ele>
        <time>2021-04-18T10:45:17Z</time>
      </trkpt>
      <trkpt lat="37.2931360" lon="-2.5077330">
        <ele>1564.8</ele>
        <time>2021-04-18T10:45:21Z</time>
      </trkpt>
      <trkpt lat="37.2930140" lon="-2.5077610">
        <ele>1564.4</ele>
        <time>2021-04-18T10:45:25Z</time>
      </trkpt>
      <trkpt lat="37.2929910" lon="-2.5077760">
        <ele>1564.4</ele>
        <time>2021-04-18T10:45:26Z</time>
      </trkpt>
      <trkpt lat="37.2929690" lon="-2.5077960">
        <ele>1564.2</ele>
        <time>2021-04-18T10:45:27Z</time>
      </trkpt>
      <trkpt lat="37.2929390" lon="-2.5078120">
        <ele>1564.2</ele>
        <time>2021-04-18T10:45:28Z</time>
      </trkpt>
      <trkpt lat="37.2929080" lon="-2.5078300">
        <ele>1564.2</ele>
        <time>2021-04-18T10:45:29Z</time>
      </trkpt>
      <trkpt lat="37.2928500" lon="-2.5078610">
        <ele>1564.2</ele>
        <time>2021-04-18T10:45:32Z</time>
      </trkpt>
      <trkpt lat="37.2928250" lon="-2.5078590">
        <ele>1564.4</ele>
        <time>2021-04-18T10:45:33Z</time>
      </trkpt>
      <trkpt lat="37.2927860" lon="-2.5078530">
        <ele>1564.4</ele>
        <time>2021-04-18T10:45:34Z</time>
      </trkpt>
      <trkpt lat="37.2927470" lon="-2.5078440">
        <ele>1564.6</ele>
        <time>2021-04-18T10:45:35Z</time>
      </trkpt>
      <trkpt lat="37.2927130" lon="-2.5078420">
        <ele>1564.6</ele>
        <time>2021-04-18T10:45:36Z</time>
      </trkpt>
      <trkpt lat="37.2926850" lon="-2.5078510">
        <ele>1564.8</ele>
        <time>2021-04-18T10:45:37Z</time>
      </trkpt>
      <trkpt lat="37.2925220" lon="-2.5078700">
        <ele>1565.8</ele>
        <time>2021-04-18T10:45:42Z</time>
      </trkpt>
      <trkpt lat="37.2924650" lon="-2.5078930">
        <ele>1566.0</ele>
        <time>2021-04-18T10:45:44Z</time>
      </trkpt>
      <trkpt lat="37.2924470" lon="-2.5079020">
        <ele>1566.0</ele>
        <time>2021-04-18T10:45:45Z</time>
      </trkpt>
      <trkpt lat="37.2924240" lon="-2.5079230">
        <ele>1566.0</ele>
        <time>2021-04-18T10:45:46Z</time>
      </trkpt>
      <trkpt lat="37.2923980" lon="-2.5079270">
        <ele>1566.2</ele>
        <time>2021-04-18T10:45:47Z</time>
      </trkpt>
      <trkpt lat="37.2923650" lon="-2.5079250">
        <ele>1566.2</ele>
        <time>2021-04-18T10:45:48Z</time>
      </trkpt>
      <trkpt lat="37.2923040" lon="-2.5079270">
        <ele>1566.2</ele>
        <time>2021-04-18T10:45:50Z</time>
      </trkpt>
      <trkpt lat="37.2922880" lon="-2.5079430">
        <ele>1566.2</ele>
        <time>2021-04-18T10:45:51Z</time>
      </trkpt>
      <trkpt lat="37.2922670" lon="-2.5079490">
        <ele>1566.2</ele>
        <time>2021-04-18T10:45:52Z</time>
      </trkpt>
      <trkpt lat="37.2922380" lon="-2.5079620">
        <ele>1566.2</ele>
        <time>2021-04-18T10:45:53Z</time>
      </trkpt>
      <trkpt lat="37.2922050" lon="-2.5079870">
        <ele>1566.2</ele>
        <time>2021-04-18T10:45:54Z</time>
      </trkpt>
      <trkpt lat="37.2921780" lon="-2.5080050">
        <ele>1566.2</ele>
        <time>2021-04-18T10:45:55Z</time>
      </trkpt>
      <trkpt lat="37.2920750" lon="-2.5080120">
        <ele>1566.4</ele>
        <time>2021-04-18T10:45:58Z</time>
      </trkpt>
      <trkpt lat="37.2920380" lon="-2.5080050">
        <ele>1566.6</ele>
        <time>2021-04-18T10:45:59Z</time>
      </trkpt>
      <trkpt lat="37.2920170" lon="-2.5080040">
        <ele>1566.6</ele>
        <time>2021-04-18T10:46:00Z</time>
      </trkpt>
      <trkpt lat="37.2919980" lon="-2.5080190">
        <ele>1566.8</ele>
        <time>2021-04-18T10:46:01Z</time>
      </trkpt>
      <trkpt lat="37.2919300" lon="-2.5080610">
        <ele>1567.0</ele>
        <time>2021-04-18T10:46:03Z</time>
      </trkpt>
      <trkpt lat="37.2919020" lon="-2.5080890">
        <ele>1567.4</ele>
        <time>2021-04-18T10:46:04Z</time>
      </trkpt>
      <trkpt lat="37.2918700" lon="-2.5081040">
        <ele>1567.4</ele>
        <time>2021-04-18T10:46:05Z</time>
      </trkpt>
      <trkpt lat="37.2918060" lon="-2.5081300">
        <ele>1567.6</ele>
        <time>2021-04-18T10:46:07Z</time>
      </trkpt>
      <trkpt lat="37.2917520" lon="-2.5081500">
        <ele>1567.8</ele>
        <time>2021-04-18T10:46:09Z</time>
      </trkpt>
      <trkpt lat="37.2916940" lon="-2.5081650">
        <ele>1568.2</ele>
        <time>2021-04-18T10:46:11Z</time>
      </trkpt>
      <trkpt lat="37.2916620" lon="-2.5081770">
        <ele>1568.4</ele>
        <time>2021-04-18T10:46:12Z</time>
      </trkpt>
      <trkpt lat="37.2916330" lon="-2.5081850">
        <ele>1568.6</ele>
        <time>2021-04-18T10:46:13Z</time>
      </trkpt>
      <trkpt lat="37.2916020" lon="-2.5081850">
        <ele>1568.8</ele>
        <time>2021-04-18T10:46:14Z</time>
      </trkpt>
      <trkpt lat="37.2915830" lon="-2.5081850">
        <ele>1569.2</ele>
        <time>2021-04-18T10:46:15Z</time>
      </trkpt>
      <trkpt lat="37.2915660" lon="-2.5081890">
        <ele>1569.6</ele>
        <time>2021-04-18T10:46:16Z</time>
      </trkpt>
      <trkpt lat="37.2915480" lon="-2.5081960">
        <ele>1569.8</ele>
        <time>2021-04-18T10:46:17Z</time>
      </trkpt>
      <trkpt lat="37.2915280" lon="-2.5082060">
        <ele>1570.6</ele>
        <time>2021-04-18T10:46:18Z</time>
      </trkpt>
      <trkpt lat="37.2915050" lon="-2.5082170">
        <ele>1570.8</ele>
        <time>2021-04-18T10:46:19Z</time>
      </trkpt>
      <trkpt lat="37.2914830" lon="-2.5082290">
        <ele>1571.2</ele>
        <time>2021-04-18T10:46:20Z</time>
      </trkpt>
      <trkpt lat="37.2914660" lon="-2.5082440">
        <ele>1571.6</ele>
        <time>2021-04-18T10:46:21Z</time>
      </trkpt>
      <trkpt lat="37.2914500" lon="-2.5082580">
        <ele>1571.8</ele>
        <time>2021-04-18T10:46:22Z</time>
      </trkpt>
      <trkpt lat="37.2914270" lon="-2.5082660">
        <ele>1572.0</ele>
        <time>2021-04-18T10:46:23Z</time>
      </trkpt>
      <trkpt lat="37.2914040" lon="-2.5082760">
        <ele>1572.0</ele>
        <time>2021-04-18T10:46:24Z</time>
      </trkpt>
      <trkpt lat="37.2913810" lon="-2.5082900">
        <ele>1572.0</ele>
        <time>2021-04-18T10:46:25Z</time>
      </trkpt>
      <trkpt lat="37.2913590" lon="-2.5082990">
        <ele>1572.0</ele>
        <time>2021-04-18T10:46:26Z</time>
      </trkpt>
      <trkpt lat="37.2913350" lon="-2.5083170">
        <ele>1572.2</ele>
        <time>2021-04-18T10:46:27Z</time>
      </trkpt>
      <trkpt lat="37.2913060" lon="-2.5083480">
        <ele>1572.2</ele>
        <time>2021-04-18T10:46:28Z</time>
      </trkpt>
      <trkpt lat="37.2912790" lon="-2.5083880">
        <ele>1572.2</ele>
        <time>2021-04-18T10:46:29Z</time>
      </trkpt>
      <trkpt lat="37.2912550" lon="-2.5084020">
        <ele>1572.2</ele>
        <time>2021-04-18T10:46:30Z</time>
      </trkpt>
      <trkpt lat="37.2912380" lon="-2.5084100">
        <ele>1572.2</ele>
        <time>2021-04-18T10:46:31Z</time>
      </trkpt>
      <trkpt lat="37.2912220" lon="-2.5084220">
        <ele>1572.2</ele>
        <time>2021-04-18T10:46:32Z</time>
      </trkpt>
      <trkpt lat="37.2912040" lon="-2.5084430">
        <ele>1572.2</ele>
        <time>2021-04-18T10:46:33Z</time>
      </trkpt>
      <trkpt lat="37.2911830" lon="-2.5084770">
        <ele>1572.4</ele>
        <time>2021-04-18T10:46:34Z</time>
      </trkpt>
      <trkpt lat="37.2911670" lon="-2.5084980">
        <ele>1572.4</ele>
        <time>2021-04-18T10:46:35Z</time>
      </trkpt>
      <trkpt lat="37.2911480" lon="-2.5085110">
        <ele>1572.4</ele>
        <time>2021-04-18T10:46:36Z</time>
      </trkpt>
      <trkpt lat="37.2911330" lon="-2.5085170">
        <ele>1572.8</ele>
        <time>2021-04-18T10:46:37Z</time>
      </trkpt>
      <trkpt lat="37.2911110" lon="-2.5085400">
        <ele>1572.8</ele>
        <time>2021-04-18T10:46:38Z</time>
      </trkpt>
      <trkpt lat="37.2910870" lon="-2.5085570">
        <ele>1573.0</ele>
        <time>2021-04-18T10:46:39Z</time>
      </trkpt>
      <trkpt lat="37.2910700" lon="-2.5085630">
        <ele>1573.0</ele>
        <time>2021-04-18T10:46:40Z</time>
      </trkpt>
      <trkpt lat="37.2910520" lon="-2.5085830">
        <ele>1573.0</ele>
        <time>2021-04-18T10:46:41Z</time>
      </trkpt>
      <trkpt lat="37.2910280" lon="-2.5085890">
        <ele>1573.2</ele>
        <time>2021-04-18T10:46:42Z</time>
      </trkpt>
      <trkpt lat="37.2910060" lon="-2.5085810">
        <ele>1573.2</ele>
        <time>2021-04-18T10:46:43Z</time>
      </trkpt>
      <trkpt lat="37.2909960" lon="-2.5085920">
        <ele>1573.4</ele>
        <time>2021-04-18T10:46:44Z</time>
      </trkpt>
      <trkpt lat="37.2909810" lon="-2.5086150">
        <ele>1573.6</ele>
        <time>2021-04-18T10:46:45Z</time>
      </trkpt>
      <trkpt lat="37.2909590" lon="-2.5086330">
        <ele>1573.6</ele>
        <time>2021-04-18T10:46:46Z</time>
      </trkpt>
      <trkpt lat="37.2909380" lon="-2.5086340">
        <ele>1573.6</ele>
        <time>2021-04-18T10:46:47Z</time>
      </trkpt>
      <trkpt lat="37.2909180" lon="-2.5086440">
        <ele>1573.8</ele>
        <time>2021-04-18T10:46:48Z</time>
      </trkpt>
      <trkpt lat="37.2909010" lon="-2.5086540">
        <ele>1573.8</ele>
        <time>2021-04-18T10:46:49Z</time>
      </trkpt>
      <trkpt lat="37.2908850" lon="-2.5086690">
        <ele>1573.8</ele>
        <time>2021-04-18T10:46:50Z</time>
      </trkpt>
      <trkpt lat="37.2908580" lon="-2.5086850">
        <ele>1573.8</ele>
        <time>2021-04-18T10:46:51Z</time>
      </trkpt>
      <trkpt lat="37.2908360" lon="-2.5086890">
        <ele>1574.0</ele>
        <time>2021-04-18T10:46:52Z</time>
      </trkpt>
      <trkpt lat="37.2908150" lon="-2.5086930">
        <ele>1574.0</ele>
        <time>2021-04-18T10:46:53Z</time>
      </trkpt>
      <trkpt lat="37.2907900" lon="-2.5087000">
        <ele>1574.0</ele>
        <time>2021-04-18T10:46:54Z</time>
      </trkpt>
      <trkpt lat="37.2907730" lon="-2.5087150">
        <ele>1574.0</ele>
        <time>2021-04-18T10:46:55Z</time>
      </trkpt>
      <trkpt lat="37.2907540" lon="-2.5087190">
        <ele>1574.2</ele>
        <time>2021-04-18T10:46:56Z</time>
      </trkpt>
      <trkpt lat="37.2906760" lon="-2.5087570">
        <ele>1574.8</ele>
        <time>2021-04-18T10:47:01Z</time>
      </trkpt>
      <trkpt lat="37.2906600" lon="-2.5087550">
        <ele>1574.8</ele>
        <time>2021-04-18T10:47:02Z</time>
      </trkpt>
      <trkpt lat="37.2906440" lon="-2.5087570">
        <ele>1575.0</ele>
        <time>2021-04-18T10:47:03Z</time>
      </trkpt>
      <trkpt lat="37.2906210" lon="-2.5087690">
        <ele>1575.2</ele>
        <time>2021-04-18T10:47:04Z</time>
      </trkpt>
      <trkpt lat="37.2905970" lon="-2.5087710">
        <ele>1575.2</ele>
        <time>2021-04-18T10:47:05Z</time>
      </trkpt>
      <trkpt lat="37.2905720" lon="-2.5087910">
        <ele>1575.6</ele>
        <time>2021-04-18T10:47:07Z</time>
      </trkpt>
      <trkpt lat="37.2905640" lon="-2.5088040">
        <ele>1575.8</ele>
        <time>2021-04-18T10:47:08Z</time>
      </trkpt>
      <trkpt lat="37.2905540" lon="-2.5088070">
        <ele>1576.0</ele>
        <time>2021-04-18T10:47:09Z</time>
      </trkpt>
      <trkpt lat="37.2905440" lon="-2.5088080">
        <ele>1576.2</ele>
        <time>2021-04-18T10:47:10Z</time>
      </trkpt>
      <trkpt lat="37.2905240" lon="-2.5088200">
        <ele>1576.4</ele>
        <time>2021-04-18T10:47:11Z</time>
      </trkpt>
      <trkpt lat="37.2904980" lon="-2.5088250">
        <ele>1576.6</ele>
        <time>2021-04-18T10:47:12Z</time>
      </trkpt>
      <trkpt lat="37.2904790" lon="-2.5088300">
        <ele>1577.2</ele>
        <time>2021-04-18T10:47:13Z</time>
      </trkpt>
      <trkpt lat="37.2904640" lon="-2.5088350">
        <ele>1577.4</ele>
        <time>2021-04-18T10:47:14Z</time>
      </trkpt>
      <trkpt lat="37.2904490" lon="-2.5088460">
        <ele>1577.8</ele>
        <time>2021-04-18T10:47:15Z</time>
      </trkpt>
      <trkpt lat="37.2904300" lon="-2.5088570">
        <ele>1578.0</ele>
        <time>2021-04-18T10:47:16Z</time>
      </trkpt>
      <trkpt lat="37.2904070" lon="-2.5088640">
        <ele>1578.0</ele>
        <time>2021-04-18T10:47:17Z</time>
      </trkpt>
      <trkpt lat="37.2903760" lon="-2.5088740">
        <ele>1578.2</ele>
        <time>2021-04-18T10:47:18Z</time>
      </trkpt>
      <trkpt lat="37.2903440" lon="-2.5088820">
        <ele>1578.2</ele>
        <time>2021-04-18T10:47:19Z</time>
      </trkpt>
      <trkpt lat="37.2903170" lon="-2.5088840">
        <ele>1578.2</ele>
        <time>2021-04-18T10:47:20Z</time>
      </trkpt>
      <trkpt lat="37.2902970" lon="-2.5088900">
        <ele>1578.2</ele>
        <time>2021-04-18T10:47:21Z</time>
      </trkpt>
      <trkpt lat="37.2902800" lon="-2.5089040">
        <ele>1578.2</ele>
        <time>2021-04-18T10:47:22Z</time>
      </trkpt>
      <trkpt lat="37.2902630" lon="-2.5089170">
        <ele>1578.2</ele>
        <time>2021-04-18T10:47:23Z</time>
      </trkpt>
      <trkpt lat="37.2902400" lon="-2.5089270">
        <ele>1578.2</ele>
        <time>2021-04-18T10:47:24Z</time>
      </trkpt>
      <trkpt lat="37.2902230" lon="-2.5089360">
        <ele>1578.2</ele>
        <time>2021-04-18T10:47:25Z</time>
      </trkpt>
      <trkpt lat="37.2902020" lon="-2.5089390">
        <ele>1578.2</ele>
        <time>2021-04-18T10:47:26Z</time>
      </trkpt>
      <trkpt lat="37.2901850" lon="-2.5089390">
        <ele>1578.2</ele>
        <time>2021-04-18T10:47:27Z</time>
      </trkpt>
      <trkpt lat="37.2901720" lon="-2.5089450">
        <ele>1578.2</ele>
        <time>2021-04-18T10:47:28Z</time>
      </trkpt>
      <trkpt lat="37.2901550" lon="-2.5089530">
        <ele>1578.2</ele>
        <time>2021-04-18T10:47:29Z</time>
      </trkpt>
      <trkpt lat="37.2901340" lon="-2.5089680">
        <ele>1578.2</ele>
        <time>2021-04-18T10:47:30Z</time>
      </trkpt>
      <trkpt lat="37.2901110" lon="-2.5089770">
        <ele>1578.4</ele>
        <time>2021-04-18T10:47:31Z</time>
      </trkpt>
      <trkpt lat="37.2900920" lon="-2.5089880">
        <ele>1578.4</ele>
        <time>2021-04-18T10:47:32Z</time>
      </trkpt>
      <trkpt lat="37.2900710" lon="-2.5089970">
        <ele>1578.4</ele>
        <time>2021-04-18T10:47:33Z</time>
      </trkpt>
      <trkpt lat="37.2900440" lon="-2.5090120">
        <ele>1578.6</ele>
        <time>2021-04-18T10:47:34Z</time>
      </trkpt>
      <trkpt lat="37.2900220" lon="-2.5090280">
        <ele>1578.8</ele>
        <time>2021-04-18T10:47:35Z</time>
      </trkpt>
      <trkpt lat="37.2900020" lon="-2.5090370">
        <ele>1578.8</ele>
        <time>2021-04-18T10:47:36Z</time>
      </trkpt>
      <trkpt lat="37.2899810" lon="-2.5090450">
        <ele>1578.8</ele>
        <time>2021-04-18T10:47:37Z</time>
      </trkpt>
      <trkpt lat="37.2898990" lon="-2.5090960">
        <ele>1579.0</ele>
        <time>2021-04-18T10:47:41Z</time>
      </trkpt>
      <trkpt lat="37.2898730" lon="-2.5091040">
        <ele>1579.0</ele>
        <time>2021-04-18T10:47:42Z</time>
      </trkpt>
      <trkpt lat="37.2898260" lon="-2.5091260">
        <ele>1579.0</ele>
        <time>2021-04-18T10:47:44Z</time>
      </trkpt>
      <trkpt lat="37.2898220" lon="-2.5091250">
        <ele>1579.0</ele>
        <time>2021-04-18T10:47:45Z</time>
      </trkpt>
      <trkpt lat="37.2898220" lon="-2.5091250">
        <ele>1579.0</ele>
        <time>2021-04-18T10:47:46Z</time>
      </trkpt>
      <trkpt lat="37.2898220" lon="-2.5091250">
        <ele>1579.0</ele>
        <time>2021-04-18T10:47:47Z</time>
      </trkpt>
      <trkpt lat="37.2897770" lon="-2.5091420">
        <ele>1578.2</ele>
        <time>2021-04-18T10:48:22Z</time>
      </trkpt>
      <trkpt lat="37.2897470" lon="-2.5091510">
        <ele>1578.2</ele>
        <time>2021-04-18T10:48:23Z</time>
      </trkpt>
      <trkpt lat="37.2896260" lon="-2.5091920">
        <ele>1578.2</ele>
        <time>2021-04-18T10:48:27Z</time>
      </trkpt>
      <trkpt lat="37.2895980" lon="-2.5091980">
        <ele>1578.2</ele>
        <time>2021-04-18T10:48:28Z</time>
      </trkpt>
      <trkpt lat="37.2895750" lon="-2.5092110">
        <ele>1578.2</ele>
        <time>2021-04-18T10:48:29Z</time>
      </trkpt>
      <trkpt lat="37.2895500" lon="-2.5092240">
        <ele>1578.2</ele>
        <time>2021-04-18T10:48:30Z</time>
      </trkpt>
      <trkpt lat="37.2894430" lon="-2.5092570">
        <ele>1578.0</ele>
        <time>2021-04-18T10:48:34Z</time>
      </trkpt>
      <trkpt lat="37.2894160" lon="-2.5092600">
        <ele>1578.0</ele>
        <time>2021-04-18T10:48:35Z</time>
      </trkpt>
      <trkpt lat="37.2893900" lon="-2.5092630">
        <ele>1578.2</ele>
        <time>2021-04-18T10:48:36Z</time>
      </trkpt>
      <trkpt lat="37.2893580" lon="-2.5092630">
        <ele>1578.2</ele>
        <time>2021-04-18T10:48:37Z</time>
      </trkpt>
      <trkpt lat="37.2893370" lon="-2.5092730">
        <ele>1578.2</ele>
        <time>2021-04-18T10:48:38Z</time>
      </trkpt>
      <trkpt lat="37.2893060" lon="-2.5092690">
        <ele>1578.4</ele>
        <time>2021-04-18T10:48:39Z</time>
      </trkpt>
      <trkpt lat="37.2892880" lon="-2.5092760">
        <ele>1578.4</ele>
        <time>2021-04-18T10:48:40Z</time>
      </trkpt>
      <trkpt lat="37.2892650" lon="-2.5092770">
        <ele>1578.6</ele>
        <time>2021-04-18T10:48:41Z</time>
      </trkpt>
      <trkpt lat="37.2892350" lon="-2.5092800">
        <ele>1578.8</ele>
        <time>2021-04-18T10:48:42Z</time>
      </trkpt>
      <trkpt lat="37.2892070" lon="-2.5092870">
        <ele>1579.4</ele>
        <time>2021-04-18T10:48:43Z</time>
      </trkpt>
      <trkpt lat="37.2891530" lon="-2.5093020">
        <ele>1580.0</ele>
        <time>2021-04-18T10:48:45Z</time>
      </trkpt>
      <trkpt lat="37.2891300" lon="-2.5093090">
        <ele>1580.2</ele>
        <time>2021-04-18T10:48:46Z</time>
      </trkpt>
      <trkpt lat="37.2891050" lon="-2.5093120">
        <ele>1580.4</ele>
        <time>2021-04-18T10:48:47Z</time>
      </trkpt>
      <trkpt lat="37.2890530" lon="-2.5092930">
        <ele>1580.6</ele>
        <time>2021-04-18T10:48:49Z</time>
      </trkpt>
      <trkpt lat="37.2890290" lon="-2.5092800">
        <ele>1580.8</ele>
        <time>2021-04-18T10:48:50Z</time>
      </trkpt>
      <trkpt lat="37.2890050" lon="-2.5092660">
        <ele>1580.8</ele>
        <time>2021-04-18T10:48:51Z</time>
      </trkpt>
      <trkpt lat="37.2889820" lon="-2.5092550">
        <ele>1581.0</ele>
        <time>2021-04-18T10:48:52Z</time>
      </trkpt>
      <trkpt lat="37.2889440" lon="-2.5092460">
        <ele>1581.4</ele>
        <time>2021-04-18T10:48:54Z</time>
      </trkpt>
      <trkpt lat="37.2889260" lon="-2.5092520">
        <ele>1581.6</ele>
        <time>2021-04-18T10:48:55Z</time>
      </trkpt>
      <trkpt lat="37.2889010" lon="-2.5092590">
        <ele>1581.6</ele>
        <time>2021-04-18T10:48:56Z</time>
      </trkpt>
      <trkpt lat="37.2888640" lon="-2.5092600">
        <ele>1581.6</ele>
        <time>2021-04-18T10:48:57Z</time>
      </trkpt>
      <trkpt lat="37.2888260" lon="-2.5092610">
        <ele>1581.6</ele>
        <time>2021-04-18T10:48:58Z</time>
      </trkpt>
      <trkpt lat="37.2887840" lon="-2.5092610">
        <ele>1582.0</ele>
        <time>2021-04-18T10:48:59Z</time>
      </trkpt>
      <trkpt lat="37.2887350" lon="-2.5092520">
        <ele>1582.0</ele>
        <time>2021-04-18T10:49:00Z</time>
      </trkpt>
      <trkpt lat="37.2886820" lon="-2.5092330">
        <ele>1582.0</ele>
        <time>2021-04-18T10:49:01Z</time>
      </trkpt>
      <trkpt lat="37.2886290" lon="-2.5092090">
        <ele>1581.8</ele>
        <time>2021-04-18T10:49:02Z</time>
      </trkpt>
      <trkpt lat="37.2885780" lon="-2.5091780">
        <ele>1581.2</ele>
        <time>2021-04-18T10:49:03Z</time>
      </trkpt>
      <trkpt lat="37.2885320" lon="-2.5091470">
        <ele>1580.6</ele>
        <time>2021-04-18T10:49:04Z</time>
      </trkpt>
      <trkpt lat="37.2884890" lon="-2.5091200">
        <ele>1580.0</ele>
        <time>2021-04-18T10:49:05Z</time>
      </trkpt>
      <trkpt lat="37.2884500" lon="-2.5090910">
        <ele>1579.6</ele>
        <time>2021-04-18T10:49:06Z</time>
      </trkpt>
      <trkpt lat="37.2884120" lon="-2.5090570">
        <ele>1579.8</ele>
        <time>2021-04-18T10:49:07Z</time>
      </trkpt>
      <trkpt lat="37.2883740" lon="-2.5090260">
        <ele>1579.6</ele>
        <time>2021-04-18T10:49:08Z</time>
      </trkpt>
      <trkpt lat="37.2883430" lon="-2.5090080">
        <ele>1579.6</ele>
        <time>2021-04-18T10:49:09Z</time>
      </trkpt>
      <trkpt lat="37.2883120" lon="-2.5089950">
        <ele>1579.2</ele>
        <time>2021-04-18T10:49:10Z</time>
      </trkpt>
      <trkpt lat="37.2882790" lon="-2.5089790">
        <ele>1579.4</ele>
        <time>2021-04-18T10:49:11Z</time>
      </trkpt>
      <trkpt lat="37.2882460" lon="-2.5089630">
        <ele>1579.6</ele>
        <time>2021-04-18T10:49:12Z</time>
      </trkpt>
      <trkpt lat="37.2882130" lon="-2.5089460">
        <ele>1579.8</ele>
        <time>2021-04-18T10:49:13Z</time>
      </trkpt>
      <trkpt lat="37.2881800" lon="-2.5089240">
        <ele>1580.0</ele>
        <time>2021-04-18T10:49:14Z</time>
      </trkpt>
      <trkpt lat="37.2881330" lon="-2.5088880">
        <ele>1580.0</ele>
        <time>2021-04-18T10:49:16Z</time>
      </trkpt>
      <trkpt lat="37.2881150" lon="-2.5088790">
        <ele>1580.2</ele>
        <time>2021-04-18T10:49:17Z</time>
      </trkpt>
      <trkpt lat="37.2880970" lon="-2.5088730">
        <ele>1580.4</ele>
        <time>2021-04-18T10:49:18Z</time>
      </trkpt>
      <trkpt lat="37.2880770" lon="-2.5088660">
        <ele>1580.4</ele>
        <time>2021-04-18T10:49:19Z</time>
      </trkpt>
      <trkpt lat="37.2880530" lon="-2.5088540">
        <ele>1580.8</ele>
        <time>2021-04-18T10:49:20Z</time>
      </trkpt>
      <trkpt lat="37.2880090" lon="-2.5088140">
        <ele>1581.2</ele>
        <time>2021-04-18T10:49:22Z</time>
      </trkpt>
      <trkpt lat="37.2879900" lon="-2.5087930">
        <ele>1581.4</ele>
        <time>2021-04-18T10:49:23Z</time>
      </trkpt>
      <trkpt lat="37.2879500" lon="-2.5087640">
        <ele>1581.6</ele>
        <time>2021-04-18T10:49:25Z</time>
      </trkpt>
      <trkpt lat="37.2879270" lon="-2.5087550">
        <ele>1581.8</ele>
        <time>2021-04-18T10:49:26Z</time>
      </trkpt>
      <trkpt lat="37.2879020" lon="-2.5087490">
        <ele>1581.8</ele>
        <time>2021-04-18T10:49:27Z</time>
      </trkpt>
      <trkpt lat="37.2878790" lon="-2.5087430">
        <ele>1581.8</ele>
        <time>2021-04-18T10:49:28Z</time>
      </trkpt>
      <trkpt lat="37.2878550" lon="-2.5087320">
        <ele>1582.0</ele>
        <time>2021-04-18T10:49:29Z</time>
      </trkpt>
      <trkpt lat="37.2878300" lon="-2.5087210">
        <ele>1582.4</ele>
        <time>2021-04-18T10:49:30Z</time>
      </trkpt>
      <trkpt lat="37.2877700" lon="-2.5087090">
        <ele>1582.8</ele>
        <time>2021-04-18T10:49:33Z</time>
      </trkpt>
      <trkpt lat="37.2877470" lon="-2.5087060">
        <ele>1583.0</ele>
        <time>2021-04-18T10:49:34Z</time>
      </trkpt>
      <trkpt lat="37.2877210" lon="-2.5086960">
        <ele>1583.0</ele>
        <time>2021-04-18T10:49:35Z</time>
      </trkpt>
      <trkpt lat="37.2876360" lon="-2.5086610">
        <ele>1583.2</ele>
        <time>2021-04-18T10:49:38Z</time>
      </trkpt>
      <trkpt lat="37.2876110" lon="-2.5086540">
        <ele>1583.2</ele>
        <time>2021-04-18T10:49:39Z</time>
      </trkpt>
      <trkpt lat="37.2875840" lon="-2.5086520">
        <ele>1583.2</ele>
        <time>2021-04-18T10:49:40Z</time>
      </trkpt>
      <trkpt lat="37.2875540" lon="-2.5086520">
        <ele>1583.2</ele>
        <time>2021-04-18T10:49:41Z</time>
      </trkpt>
      <trkpt lat="37.2875200" lon="-2.5086500">
        <ele>1583.2</ele>
        <time>2021-04-18T10:49:42Z</time>
      </trkpt>
      <trkpt lat="37.2874910" lon="-2.5086440">
        <ele>1583.4</ele>
        <time>2021-04-18T10:49:43Z</time>
      </trkpt>
      <trkpt lat="37.2874660" lon="-2.5086390">
        <ele>1583.6</ele>
        <time>2021-04-18T10:49:44Z</time>
      </trkpt>
      <trkpt lat="37.2874400" lon="-2.5086290">
        <ele>1583.6</ele>
        <time>2021-04-18T10:49:45Z</time>
      </trkpt>
      <trkpt lat="37.2874130" lon="-2.5086240">
        <ele>1583.8</ele>
        <time>2021-04-18T10:49:46Z</time>
      </trkpt>
      <trkpt lat="37.2873890" lon="-2.5086160">
        <ele>1584.0</ele>
        <time>2021-04-18T10:49:47Z</time>
      </trkpt>
      <trkpt lat="37.2873420" lon="-2.5085960">
        <ele>1584.4</ele>
        <time>2021-04-18T10:49:49Z</time>
      </trkpt>
      <trkpt lat="37.2873150" lon="-2.5085850">
        <ele>1584.6</ele>
        <time>2021-04-18T10:49:50Z</time>
      </trkpt>
      <trkpt lat="37.2872900" lon="-2.5085780">
        <ele>1584.6</ele>
        <time>2021-04-18T10:49:51Z</time>
      </trkpt>
      <trkpt lat="37.2872630" lon="-2.5085670">
        <ele>1584.6</ele>
        <time>2021-04-18T10:49:52Z</time>
      </trkpt>
      <trkpt lat="37.2872410" lon="-2.5085600">
        <ele>1584.8</ele>
        <time>2021-04-18T10:49:53Z</time>
      </trkpt>
      <trkpt lat="37.2872220" lon="-2.5085560">
        <ele>1584.8</ele>
        <time>2021-04-18T10:49:54Z</time>
      </trkpt>
      <trkpt lat="37.2872040" lon="-2.5085480">
        <ele>1585.0</ele>
        <time>2021-04-18T10:49:55Z</time>
      </trkpt>
      <trkpt lat="37.2871810" lon="-2.5085420">
        <ele>1585.0</ele>
        <time>2021-04-18T10:49:56Z</time>
      </trkpt>
      <trkpt lat="37.2871590" lon="-2.5085400">
        <ele>1585.2</ele>
        <time>2021-04-18T10:49:57Z</time>
      </trkpt>
      <trkpt lat="37.2871390" lon="-2.5085360">
        <ele>1585.4</ele>
        <time>2021-04-18T10:49:58Z</time>
      </trkpt>
      <trkpt lat="37.2871160" lon="-2.5085340">
        <ele>1585.6</ele>
        <time>2021-04-18T10:49:59Z</time>
      </trkpt>
      <trkpt lat="37.2870870" lon="-2.5085350">
        <ele>1585.6</ele>
        <time>2021-04-18T10:50:00Z</time>
      </trkpt>
      <trkpt lat="37.2870650" lon="-2.5085340">
        <ele>1585.6</ele>
        <time>2021-04-18T10:50:01Z</time>
      </trkpt>
      <trkpt lat="37.2870370" lon="-2.5085300">
        <ele>1585.8</ele>
        <time>2021-04-18T10:50:02Z</time>
      </trkpt>
      <trkpt lat="37.2870100" lon="-2.5085260">
        <ele>1585.8</ele>
        <time>2021-04-18T10:50:03Z</time>
      </trkpt>
      <trkpt lat="37.2869830" lon="-2.5085240">
        <ele>1585.8</ele>
        <time>2021-04-18T10:50:04Z</time>
      </trkpt>
      <trkpt lat="37.2869510" lon="-2.5085180">
        <ele>1585.8</ele>
        <time>2021-04-18T10:50:05Z</time>
      </trkpt>
      <trkpt lat="37.2869190" lon="-2.5085070">
        <ele>1585.8</ele>
        <time>2021-04-18T10:50:06Z</time>
      </trkpt>
      <trkpt lat="37.2868900" lon="-2.5084920">
        <ele>1586.0</ele>
        <time>2021-04-18T10:50:07Z</time>
      </trkpt>
      <trkpt lat="37.2868620" lon="-2.5084820">
        <ele>1586.0</ele>
        <time>2021-04-18T10:50:08Z</time>
      </trkpt>
      <trkpt lat="37.2868370" lon="-2.5084700">
        <ele>1586.0</ele>
        <time>2021-04-18T10:50:09Z</time>
      </trkpt>
      <trkpt lat="37.2868140" lon="-2.5084520">
        <ele>1586.0</ele>
        <time>2021-04-18T10:50:10Z</time>
      </trkpt>
      <trkpt lat="37.2867920" lon="-2.5084370">
        <ele>1586.0</ele>
        <time>2021-04-18T10:50:11Z</time>
      </trkpt>
      <trkpt lat="37.2867350" lon="-2.5084160">
        <ele>1586.0</ele>
        <time>2021-04-18T10:50:13Z</time>
      </trkpt>
      <trkpt lat="37.2866420" lon="-2.5083800">
        <ele>1585.8</ele>
        <time>2021-04-18T10:50:16Z</time>
      </trkpt>
      <trkpt lat="37.2866140" lon="-2.5083710">
        <ele>1585.8</ele>
        <time>2021-04-18T10:50:17Z</time>
      </trkpt>
      <trkpt lat="37.2865860" lon="-2.5083550">
        <ele>1585.8</ele>
        <time>2021-04-18T10:50:18Z</time>
      </trkpt>
      <trkpt lat="37.2865580" lon="-2.5083310">
        <ele>1585.6</ele>
        <time>2021-04-18T10:50:19Z</time>
      </trkpt>
      <trkpt lat="37.2865330" lon="-2.5082980">
        <ele>1585.6</ele>
        <time>2021-04-18T10:50:20Z</time>
      </trkpt>
      <trkpt lat="37.2865110" lon="-2.5082650">
        <ele>1585.2</ele>
        <time>2021-04-18T10:50:21Z</time>
      </trkpt>
      <trkpt lat="37.2864930" lon="-2.5082350">
        <ele>1584.8</ele>
        <time>2021-04-18T10:50:22Z</time>
      </trkpt>
      <trkpt lat="37.2864760" lon="-2.5082090">
        <ele>1584.6</ele>
        <time>2021-04-18T10:50:23Z</time>
      </trkpt>
      <trkpt lat="37.2864630" lon="-2.5081830">
        <ele>1584.4</ele>
        <time>2021-04-18T10:50:24Z</time>
      </trkpt>
      <trkpt lat="37.2864520" lon="-2.5081570">
        <ele>1584.4</ele>
        <time>2021-04-18T10:50:25Z</time>
      </trkpt>
      <trkpt lat="37.2864430" lon="-2.5081320">
        <ele>1584.4</ele>
        <time>2021-04-18T10:50:26Z</time>
      </trkpt>
      <trkpt lat="37.2864320" lon="-2.5081090">
        <ele>1584.6</ele>
        <time>2021-04-18T10:50:27Z</time>
      </trkpt>
      <trkpt lat="37.2864190" lon="-2.5080880">
        <ele>1584.6</ele>
        <time>2021-04-18T10:50:28Z</time>
      </trkpt>
      <trkpt lat="37.2864070" lon="-2.5080700">
        <ele>1584.6</ele>
        <time>2021-04-18T10:50:29Z</time>
      </trkpt>
      <trkpt lat="37.2863950" lon="-2.5080530">
        <ele>1584.8</ele>
        <time>2021-04-18T10:50:30Z</time>
      </trkpt>
      <trkpt lat="37.2863770" lon="-2.5080090">
        <ele>1585.4</ele>
        <time>2021-04-18T10:50:32Z</time>
      </trkpt>
      <trkpt lat="37.2863670" lon="-2.5079860">
        <ele>1585.4</ele>
        <time>2021-04-18T10:50:33Z</time>
      </trkpt>
      <trkpt lat="37.2863530" lon="-2.5079600">
        <ele>1585.6</ele>
        <time>2021-04-18T10:50:34Z</time>
      </trkpt>
      <trkpt lat="37.2863420" lon="-2.5079330">
        <ele>1585.6</ele>
        <time>2021-04-18T10:50:35Z</time>
      </trkpt>
      <trkpt lat="37.2863360" lon="-2.5079120">
        <ele>1585.8</ele>
        <time>2021-04-18T10:50:36Z</time>
      </trkpt>
      <trkpt lat="37.2863270" lon="-2.5078920">
        <ele>1585.8</ele>
        <time>2021-04-18T10:50:37Z</time>
      </trkpt>
      <trkpt lat="37.2863140" lon="-2.5078720">
        <ele>1585.8</ele>
        <time>2021-04-18T10:50:38Z</time>
      </trkpt>
      <trkpt lat="37.2862620" lon="-2.5077960">
        <ele>1586.4</ele>
        <time>2021-04-18T10:50:41Z</time>
      </trkpt>
      <trkpt lat="37.2862440" lon="-2.5077670">
        <ele>1586.6</ele>
        <time>2021-04-18T10:50:42Z</time>
      </trkpt>
      <trkpt lat="37.2862280" lon="-2.5077370">
        <ele>1586.8</ele>
        <time>2021-04-18T10:50:43Z</time>
      </trkpt>
      <trkpt lat="37.2862090" lon="-2.5077070">
        <ele>1586.8</ele>
        <time>2021-04-18T10:50:44Z</time>
      </trkpt>
      <trkpt lat="37.2861860" lon="-2.5076640">
        <ele>1587.0</ele>
        <time>2021-04-18T10:50:46Z</time>
      </trkpt>
      <trkpt lat="37.2861770" lon="-2.5076440">
        <ele>1587.2</ele>
        <time>2021-04-18T10:50:47Z</time>
      </trkpt>
      <trkpt lat="37.2861680" lon="-2.5076270">
        <ele>1587.4</ele>
        <time>2021-04-18T10:50:48Z</time>
      </trkpt>
      <trkpt lat="37.2861590" lon="-2.5076080">
        <ele>1587.6</ele>
        <time>2021-04-18T10:50:49Z</time>
      </trkpt>
      <trkpt lat="37.2861420" lon="-2.5075870">
        <ele>1588.2</ele>
        <time>2021-04-18T10:50:50Z</time>
      </trkpt>
      <trkpt lat="37.2861310" lon="-2.5075650">
        <ele>1588.8</ele>
        <time>2021-04-18T10:50:51Z</time>
      </trkpt>
      <trkpt lat="37.2861180" lon="-2.5075260">
        <ele>1589.4</ele>
        <time>2021-04-18T10:50:53Z</time>
      </trkpt>
      <trkpt lat="37.2861180" lon="-2.5075100">
        <ele>1589.4</ele>
        <time>2021-04-18T10:50:54Z</time>
      </trkpt>
      <trkpt lat="37.2861180" lon="-2.5074940">
        <ele>1589.8</ele>
        <time>2021-04-18T10:50:55Z</time>
      </trkpt>
      <trkpt lat="37.2861150" lon="-2.5074780">
        <ele>1590.0</ele>
        <time>2021-04-18T10:50:56Z</time>
      </trkpt>
      <trkpt lat="37.2861030" lon="-2.5074500">
        <ele>1590.6</ele>
        <time>2021-04-18T10:50:57Z</time>
      </trkpt>
      <trkpt lat="37.2860830" lon="-2.5074140">
        <ele>1590.8</ele>
        <time>2021-04-18T10:50:58Z</time>
      </trkpt>
      <trkpt lat="37.2860700" lon="-2.5073690">
        <ele>1590.8</ele>
        <time>2021-04-18T10:50:59Z</time>
      </trkpt>
      <trkpt lat="37.2860670" lon="-2.5073210">
        <ele>1590.8</ele>
        <time>2021-04-18T10:51:00Z</time>
      </trkpt>
      <trkpt lat="37.2860680" lon="-2.5072700">
        <ele>1590.8</ele>
        <time>2021-04-18T10:51:01Z</time>
      </trkpt>
      <trkpt lat="37.2860720" lon="-2.5072180">
        <ele>1590.8</ele>
        <time>2021-04-18T10:51:02Z</time>
      </trkpt>
      <trkpt lat="37.2860850" lon="-2.5071690">
        <ele>1590.6</ele>
        <time>2021-04-18T10:51:03Z</time>
      </trkpt>
      <trkpt lat="37.2861020" lon="-2.5071250">
        <ele>1590.4</ele>
        <time>2021-04-18T10:51:04Z</time>
      </trkpt>
      <trkpt lat="37.2861120" lon="-2.5070890">
        <ele>1590.2</ele>
        <time>2021-04-18T10:51:05Z</time>
      </trkpt>
      <trkpt lat="37.2861190" lon="-2.5070620">
        <ele>1590.0</ele>
        <time>2021-04-18T10:51:06Z</time>
      </trkpt>
      <trkpt lat="37.2861340" lon="-2.5070400">
        <ele>1590.0</ele>
        <time>2021-04-18T10:51:07Z</time>
      </trkpt>
      <trkpt lat="37.2861470" lon="-2.5070160">
        <ele>1589.8</ele>
        <time>2021-04-18T10:51:08Z</time>
      </trkpt>
      <trkpt lat="37.2861580" lon="-2.5069910">
        <ele>1589.8</ele>
        <time>2021-04-18T10:51:09Z</time>
      </trkpt>
      <trkpt lat="37.2861690" lon="-2.5069690">
        <ele>1589.8</ele>
        <time>2021-04-18T10:51:10Z</time>
      </trkpt>
      <trkpt lat="37.2861690" lon="-2.5069430">
        <ele>1589.8</ele>
        <time>2021-04-18T10:51:11Z</time>
      </trkpt>
      <trkpt lat="37.2861750" lon="-2.5069140">
        <ele>1589.8</ele>
        <time>2021-04-18T10:51:12Z</time>
      </trkpt>
      <trkpt lat="37.2861810" lon="-2.5068840">
        <ele>1589.8</ele>
        <time>2021-04-18T10:51:13Z</time>
      </trkpt>
      <trkpt lat="37.2862090" lon="-2.5068390">
        <ele>1589.8</ele>
        <time>2021-04-18T10:51:15Z</time>
      </trkpt>
      <trkpt lat="37.2862170" lon="-2.5068150">
        <ele>1590.0</ele>
        <time>2021-04-18T10:51:16Z</time>
      </trkpt>
      <trkpt lat="37.2862230" lon="-2.5067850">
        <ele>1590.2</ele>
        <time>2021-04-18T10:51:17Z</time>
      </trkpt>
      <trkpt lat="37.2862250" lon="-2.5067120">
        <ele>1590.4</ele>
        <time>2021-04-18T10:51:19Z</time>
      </trkpt>
      <trkpt lat="37.2862200" lon="-2.5066710">
        <ele>1590.4</ele>
        <time>2021-04-18T10:51:20Z</time>
      </trkpt>
      <trkpt lat="37.2862070" lon="-2.5066390">
        <ele>1590.4</ele>
        <time>2021-04-18T10:51:21Z</time>
      </trkpt>
      <trkpt lat="37.2861660" lon="-2.5065690">
        <ele>1590.6</ele>
        <time>2021-04-18T10:51:23Z</time>
      </trkpt>
      <trkpt lat="37.2861320" lon="-2.5065370">
        <ele>1590.6</ele>
        <time>2021-04-18T10:51:24Z</time>
      </trkpt>
      <trkpt lat="37.2860960" lon="-2.5065090">
        <ele>1590.4</ele>
        <time>2021-04-18T10:51:25Z</time>
      </trkpt>
      <trkpt lat="37.2860270" lon="-2.5064130">
        <ele>1590.2</ele>
        <time>2021-04-18T10:51:28Z</time>
      </trkpt>
      <trkpt lat="37.2860080" lon="-2.5063920">
        <ele>1590.0</ele>
        <time>2021-04-18T10:51:29Z</time>
      </trkpt>
      <trkpt lat="37.2859790" lon="-2.5063720">
        <ele>1590.0</ele>
        <time>2021-04-18T10:51:30Z</time>
      </trkpt>
      <trkpt lat="37.2859570" lon="-2.5063520">
        <ele>1589.6</ele>
        <time>2021-04-18T10:51:31Z</time>
      </trkpt>
      <trkpt lat="37.2859390" lon="-2.5063360">
        <ele>1589.4</ele>
        <time>2021-04-18T10:51:32Z</time>
      </trkpt>
      <trkpt lat="37.2859160" lon="-2.5063200">
        <ele>1589.4</ele>
        <time>2021-04-18T10:51:33Z</time>
      </trkpt>
      <trkpt lat="37.2858670" lon="-2.5062830">
        <ele>1589.0</ele>
        <time>2021-04-18T10:51:35Z</time>
      </trkpt>
      <trkpt lat="37.2858220" lon="-2.5062300">
        <ele>1589.0</ele>
        <time>2021-04-18T10:51:37Z</time>
      </trkpt>
      <trkpt lat="37.2858050" lon="-2.5062040">
        <ele>1589.0</ele>
        <time>2021-04-18T10:51:38Z</time>
      </trkpt>
      <trkpt lat="37.2857890" lon="-2.5061770">
        <ele>1589.0</ele>
        <time>2021-04-18T10:51:39Z</time>
      </trkpt>
      <trkpt lat="37.2857690" lon="-2.5061510">
        <ele>1589.0</ele>
        <time>2021-04-18T10:51:40Z</time>
      </trkpt>
      <trkpt lat="37.2857460" lon="-2.5061240">
        <ele>1589.0</ele>
        <time>2021-04-18T10:51:41Z</time>
      </trkpt>
      <trkpt lat="37.2857180" lon="-2.5061000">
        <ele>1589.2</ele>
        <time>2021-04-18T10:51:42Z</time>
      </trkpt>
      <trkpt lat="37.2856900" lon="-2.5060850">
        <ele>1589.4</ele>
        <time>2021-04-18T10:51:43Z</time>
      </trkpt>
      <trkpt lat="37.2856780" lon="-2.5060660">
        <ele>1589.4</ele>
        <time>2021-04-18T10:51:44Z</time>
      </trkpt>
      <trkpt lat="37.2856730" lon="-2.5060460">
        <ele>1589.6</ele>
        <time>2021-04-18T10:51:45Z</time>
      </trkpt>
      <trkpt lat="37.2856670" lon="-2.5060300">
        <ele>1589.6</ele>
        <time>2021-04-18T10:51:46Z</time>
      </trkpt>
      <trkpt lat="37.2856540" lon="-2.5060190">
        <ele>1589.8</ele>
        <time>2021-04-18T10:51:47Z</time>
      </trkpt>
      <trkpt lat="37.2856500" lon="-2.5060150">
        <ele>1590.0</ele>
        <time>2021-04-18T10:51:48Z</time>
      </trkpt>
      <trkpt lat="37.2856260" lon="-2.5060060">
        <ele>1590.2</ele>
        <time>2021-04-18T10:51:49Z</time>
      </trkpt>
      <trkpt lat="37.2855930" lon="-2.5059870">
        <ele>1590.4</ele>
        <time>2021-04-18T10:51:50Z</time>
      </trkpt>
      <trkpt lat="37.2855280" lon="-2.5059510">
        <ele>1590.6</ele>
        <time>2021-04-18T10:51:52Z</time>
      </trkpt>
      <trkpt lat="37.2854820" lon="-2.5059320">
        <ele>1590.8</ele>
        <time>2021-04-18T10:51:54Z</time>
      </trkpt>
      <trkpt lat="37.2854570" lon="-2.5059260">
        <ele>1590.8</ele>
        <time>2021-04-18T10:51:55Z</time>
      </trkpt>
      <trkpt lat="37.2854330" lon="-2.5059240">
        <ele>1591.0</ele>
        <time>2021-04-18T10:51:56Z</time>
      </trkpt>
      <trkpt lat="37.2852920" lon="-2.5059190">
        <ele>1591.4</ele>
        <time>2021-04-18T10:52:00Z</time>
      </trkpt>
      <trkpt lat="37.2851680" lon="-2.5059300">
        <ele>1591.4</ele>
        <time>2021-04-18T10:52:04Z</time>
      </trkpt>
      <trkpt lat="37.2851400" lon="-2.5059460">
        <ele>1591.4</ele>
        <time>2021-04-18T10:52:05Z</time>
      </trkpt>
      <trkpt lat="37.2850920" lon="-2.5059580">
        <ele>1591.4</ele>
        <time>2021-04-18T10:52:06Z</time>
      </trkpt>
      <trkpt lat="37.2850560" lon="-2.5059650">
        <ele>1591.4</ele>
        <time>2021-04-18T10:52:07Z</time>
      </trkpt>
      <trkpt lat="37.2850090" lon="-2.5059840">
        <ele>1591.4</ele>
        <time>2021-04-18T10:52:09Z</time>
      </trkpt>
      <trkpt lat="37.2849910" lon="-2.5059880">
        <ele>1591.4</ele>
        <time>2021-04-18T10:52:10Z</time>
      </trkpt>
      <trkpt lat="37.2849750" lon="-2.5059880">
        <ele>1591.4</ele>
        <time>2021-04-18T10:52:11Z</time>
      </trkpt>
      <trkpt lat="37.2849510" lon="-2.5059810">
        <ele>1591.6</ele>
        <time>2021-04-18T10:52:12Z</time>
      </trkpt>
      <trkpt lat="37.2849260" lon="-2.5059750">
        <ele>1591.6</ele>
        <time>2021-04-18T10:52:13Z</time>
      </trkpt>
      <trkpt lat="37.2848960" lon="-2.5059740">
        <ele>1591.8</ele>
        <time>2021-04-18T10:52:14Z</time>
      </trkpt>
      <trkpt lat="37.2848770" lon="-2.5059850">
        <ele>1591.8</ele>
        <time>2021-04-18T10:52:15Z</time>
      </trkpt>
      <trkpt lat="37.2848570" lon="-2.5059910">
        <ele>1592.0</ele>
        <time>2021-04-18T10:52:16Z</time>
      </trkpt>
      <trkpt lat="37.2848380" lon="-2.5059950">
        <ele>1592.6</ele>
        <time>2021-04-18T10:52:17Z</time>
      </trkpt>
      <trkpt lat="37.2848210" lon="-2.5060000">
        <ele>1593.6</ele>
        <time>2021-04-18T10:52:18Z</time>
      </trkpt>
      <trkpt lat="37.2848030" lon="-2.5060080">
        <ele>1594.4</ele>
        <time>2021-04-18T10:52:19Z</time>
      </trkpt>
      <trkpt lat="37.2847800" lon="-2.5060170">
        <ele>1594.8</ele>
        <time>2021-04-18T10:52:20Z</time>
      </trkpt>
      <trkpt lat="37.2847570" lon="-2.5060170">
        <ele>1595.6</ele>
        <time>2021-04-18T10:52:21Z</time>
      </trkpt>
      <trkpt lat="37.2847330" lon="-2.5060150">
        <ele>1595.8</ele>
        <time>2021-04-18T10:52:22Z</time>
      </trkpt>
      <trkpt lat="37.2847080" lon="-2.5060120">
        <ele>1596.0</ele>
        <time>2021-04-18T10:52:23Z</time>
      </trkpt>
      <trkpt lat="37.2846820" lon="-2.5060140">
        <ele>1596.2</ele>
        <time>2021-04-18T10:52:24Z</time>
      </trkpt>
      <trkpt lat="37.2846600" lon="-2.5060160">
        <ele>1596.4</ele>
        <time>2021-04-18T10:52:25Z</time>
      </trkpt>
      <trkpt lat="37.2846400" lon="-2.5060060">
        <ele>1596.4</ele>
        <time>2021-04-18T10:52:26Z</time>
      </trkpt>
      <trkpt lat="37.2846190" lon="-2.5059930">
        <ele>1596.4</ele>
        <time>2021-04-18T10:52:27Z</time>
      </trkpt>
      <trkpt lat="37.2846000" lon="-2.5059750">
        <ele>1596.4</ele>
        <time>2021-04-18T10:52:28Z</time>
      </trkpt>
      <trkpt lat="37.2845820" lon="-2.5059560">
        <ele>1596.6</ele>
        <time>2021-04-18T10:52:29Z</time>
      </trkpt>
      <trkpt lat="37.2845640" lon="-2.5059390">
        <ele>1596.6</ele>
        <time>2021-04-18T10:52:30Z</time>
      </trkpt>
      <trkpt lat="37.2845380" lon="-2.5059200">
        <ele>1596.8</ele>
        <time>2021-04-18T10:52:31Z</time>
      </trkpt>
      <trkpt lat="37.2845130" lon="-2.5059040">
        <ele>1596.8</ele>
        <time>2021-04-18T10:52:32Z</time>
      </trkpt>
      <trkpt lat="37.2844910" lon="-2.5058930">
        <ele>1596.8</ele>
        <time>2021-04-18T10:52:33Z</time>
      </trkpt>
      <trkpt lat="37.2844570" lon="-2.5058790">
        <ele>1597.0</ele>
        <time>2021-04-18T10:52:34Z</time>
      </trkpt>
      <trkpt lat="37.2844230" lon="-2.5058650">
        <ele>1597.0</ele>
        <time>2021-04-18T10:52:35Z</time>
      </trkpt>
      <trkpt lat="37.2843890" lon="-2.5058500">
        <ele>1597.0</ele>
        <time>2021-04-18T10:52:36Z</time>
      </trkpt>
      <trkpt lat="37.2843560" lon="-2.5058360">
        <ele>1597.0</ele>
        <time>2021-04-18T10:52:37Z</time>
      </trkpt>
      <trkpt lat="37.2843280" lon="-2.5058180">
        <ele>1597.0</ele>
        <time>2021-04-18T10:52:38Z</time>
      </trkpt>
      <trkpt lat="37.2843000" lon="-2.5057970">
        <ele>1597.0</ele>
        <time>2021-04-18T10:52:39Z</time>
      </trkpt>
      <trkpt lat="37.2842620" lon="-2.5057750">
        <ele>1597.0</ele>
        <time>2021-04-18T10:52:40Z</time>
      </trkpt>
      <trkpt lat="37.2842320" lon="-2.5057550">
        <ele>1597.0</ele>
        <time>2021-04-18T10:52:41Z</time>
      </trkpt>
      <trkpt lat="37.2842000" lon="-2.5057320">
        <ele>1597.0</ele>
        <time>2021-04-18T10:52:42Z</time>
      </trkpt>
      <trkpt lat="37.2841680" lon="-2.5057050">
        <ele>1597.0</ele>
        <time>2021-04-18T10:52:43Z</time>
      </trkpt>
      <trkpt lat="37.2841460" lon="-2.5056800">
        <ele>1597.0</ele>
        <time>2021-04-18T10:52:44Z</time>
      </trkpt>
      <trkpt lat="37.2841280" lon="-2.5056580">
        <ele>1597.0</ele>
        <time>2021-04-18T10:52:45Z</time>
      </trkpt>
      <trkpt lat="37.2841140" lon="-2.5056450">
        <ele>1597.2</ele>
        <time>2021-04-18T10:52:46Z</time>
      </trkpt>
      <trkpt lat="37.2840880" lon="-2.5056250">
        <ele>1597.2</ele>
        <time>2021-04-18T10:52:47Z</time>
      </trkpt>
      <trkpt lat="37.2840570" lon="-2.5056130">
        <ele>1597.4</ele>
        <time>2021-04-18T10:52:48Z</time>
      </trkpt>
      <trkpt lat="37.2840320" lon="-2.5056090">
        <ele>1598.2</ele>
        <time>2021-04-18T10:52:49Z</time>
      </trkpt>
      <trkpt lat="37.2840060" lon="-2.5056000">
        <ele>1598.6</ele>
        <time>2021-04-18T10:52:50Z</time>
      </trkpt>
      <trkpt lat="37.2839710" lon="-2.5055840">
        <ele>1598.8</ele>
        <time>2021-04-18T10:52:51Z</time>
      </trkpt>
      <trkpt lat="37.2839430" lon="-2.5055750">
        <ele>1599.0</ele>
        <time>2021-04-18T10:52:52Z</time>
      </trkpt>
      <trkpt lat="37.2839210" lon="-2.5055650">
        <ele>1599.0</ele>
        <time>2021-04-18T10:52:53Z</time>
      </trkpt>
      <trkpt lat="37.2838930" lon="-2.5055500">
        <ele>1599.0</ele>
        <time>2021-04-18T10:52:54Z</time>
      </trkpt>
      <trkpt lat="37.2838560" lon="-2.5055450">
        <ele>1599.2</ele>
        <time>2021-04-18T10:52:55Z</time>
      </trkpt>
      <trkpt lat="37.2838220" lon="-2.5055270">
        <ele>1599.2</ele>
        <time>2021-04-18T10:52:56Z</time>
      </trkpt>
      <trkpt lat="37.2837760" lon="-2.5054920">
        <ele>1599.0</ele>
        <time>2021-04-18T10:52:57Z</time>
      </trkpt>
      <trkpt lat="37.2837240" lon="-2.5054550">
        <ele>1598.8</ele>
        <time>2021-04-18T10:52:58Z</time>
      </trkpt>
      <trkpt lat="37.2836810" lon="-2.5054230">
        <ele>1598.6</ele>
        <time>2021-04-18T10:52:59Z</time>
      </trkpt>
      <trkpt lat="37.2836430" lon="-2.5053940">
        <ele>1598.6</ele>
        <time>2021-04-18T10:53:00Z</time>
      </trkpt>
      <trkpt lat="37.2836020" lon="-2.5053620">
        <ele>1598.0</ele>
        <time>2021-04-18T10:53:01Z</time>
      </trkpt>
      <trkpt lat="37.2835600" lon="-2.5053310">
        <ele>1597.0</ele>
        <time>2021-04-18T10:53:02Z</time>
      </trkpt>
      <trkpt lat="37.2835230" lon="-2.5053090">
        <ele>1596.4</ele>
        <time>2021-04-18T10:53:03Z</time>
      </trkpt>
      <trkpt lat="37.2834790" lon="-2.5052910">
        <ele>1595.6</ele>
        <time>2021-04-18T10:53:04Z</time>
      </trkpt>
      <trkpt lat="37.2834280" lon="-2.5053140">
        <ele>1595.2</ele>
        <time>2021-04-18T10:53:05Z</time>
      </trkpt>
      <trkpt lat="37.2833820" lon="-2.5053300">
        <ele>1594.6</ele>
        <time>2021-04-18T10:53:06Z</time>
      </trkpt>
      <trkpt lat="37.2833400" lon="-2.5053530">
        <ele>1594.0</ele>
        <time>2021-04-18T10:53:07Z</time>
      </trkpt>
      <trkpt lat="37.2832580" lon="-2.5054230">
        <ele>1592.8</ele>
        <time>2021-04-18T10:53:09Z</time>
      </trkpt>
      <trkpt lat="37.2832130" lon="-2.5054790">
        <ele>1592.6</ele>
        <time>2021-04-18T10:53:10Z</time>
      </trkpt>
      <trkpt lat="37.2831340" lon="-2.5055940">
        <ele>1591.8</ele>
        <time>2021-04-18T10:53:12Z</time>
      </trkpt>
      <trkpt lat="37.2829880" lon="-2.5057240">
        <ele>1591.0</ele>
        <time>2021-04-18T10:53:15Z</time>
      </trkpt>
      <trkpt lat="37.2829310" lon="-2.5057490">
        <ele>1590.6</ele>
        <time>2021-04-18T10:53:16Z</time>
      </trkpt>
      <trkpt lat="37.2828730" lon="-2.5057630">
        <ele>1590.4</ele>
        <time>2021-04-18T10:53:17Z</time>
      </trkpt>
      <trkpt lat="37.2828200" lon="-2.5057620">
        <ele>1590.0</ele>
        <time>2021-04-18T10:53:18Z</time>
      </trkpt>
      <trkpt lat="37.2827730" lon="-2.5057500">
        <ele>1589.6</ele>
        <time>2021-04-18T10:53:19Z</time>
      </trkpt>
      <trkpt lat="37.2827230" lon="-2.5057300">
        <ele>1589.6</ele>
        <time>2021-04-18T10:53:20Z</time>
      </trkpt>
      <trkpt lat="37.2826740" lon="-2.5057040">
        <ele>1589.4</ele>
        <time>2021-04-18T10:53:21Z</time>
      </trkpt>
      <trkpt lat="37.2826210" lon="-2.5056840">
        <ele>1589.2</ele>
        <time>2021-04-18T10:53:22Z</time>
      </trkpt>
      <trkpt lat="37.2825630" lon="-2.5056780">
        <ele>1589.0</ele>
        <time>2021-04-18T10:53:23Z</time>
      </trkpt>
      <trkpt lat="37.2825100" lon="-2.5056820">
        <ele>1588.8</ele>
        <time>2021-04-18T10:53:24Z</time>
      </trkpt>
      <trkpt lat="37.2824590" lon="-2.5056870">
        <ele>1588.6</ele>
        <time>2021-04-18T10:53:25Z</time>
      </trkpt>
      <trkpt lat="37.2824060" lon="-2.5056900">
        <ele>1588.4</ele>
        <time>2021-04-18T10:53:26Z</time>
      </trkpt>
      <trkpt lat="37.2823580" lon="-2.5056930">
        <ele>1588.4</ele>
        <time>2021-04-18T10:53:27Z</time>
      </trkpt>
      <trkpt lat="37.2823120" lon="-2.5056970">
        <ele>1588.2</ele>
        <time>2021-04-18T10:53:28Z</time>
      </trkpt>
      <trkpt lat="37.2822710" lon="-2.5057040">
        <ele>1588.0</ele>
        <time>2021-04-18T10:53:29Z</time>
      </trkpt>
      <trkpt lat="37.2822330" lon="-2.5057020">
        <ele>1587.6</ele>
        <time>2021-04-18T10:53:30Z</time>
      </trkpt>
      <trkpt lat="37.2821970" lon="-2.5056980">
        <ele>1587.6</ele>
        <time>2021-04-18T10:53:31Z</time>
      </trkpt>
      <trkpt lat="37.2821590" lon="-2.5056860">
        <ele>1587.4</ele>
        <time>2021-04-18T10:53:32Z</time>
      </trkpt>
      <trkpt lat="37.2821220" lon="-2.5056670">
        <ele>1587.2</ele>
        <time>2021-04-18T10:53:33Z</time>
      </trkpt>
      <trkpt lat="37.2820850" lon="-2.5056540">
        <ele>1587.2</ele>
        <time>2021-04-18T10:53:34Z</time>
      </trkpt>
      <trkpt lat="37.2820180" lon="-2.5056350">
        <ele>1587.0</ele>
        <time>2021-04-18T10:53:36Z</time>
      </trkpt>
      <trkpt lat="37.2819900" lon="-2.5056280">
        <ele>1586.8</ele>
        <time>2021-04-18T10:53:37Z</time>
      </trkpt>
      <trkpt lat="37.2819700" lon="-2.5056230">
        <ele>1586.6</ele>
        <time>2021-04-18T10:53:38Z</time>
      </trkpt>
      <trkpt lat="37.2819610" lon="-2.5056210">
        <ele>1586.4</ele>
        <time>2021-04-18T10:53:39Z</time>
      </trkpt>
      <trkpt lat="37.2819610" lon="-2.5056210">
        <ele>1586.4</ele>
        <time>2021-04-18T10:53:40Z</time>
      </trkpt>
      <trkpt lat="37.2819610" lon="-2.5056210">
        <ele>1586.2</ele>
        <time>2021-04-18T10:53:41Z</time>
      </trkpt>
      <trkpt lat="37.2819170" lon="-2.5056180">
        <ele>1585.8</ele>
        <time>2021-04-18T10:55:02Z</time>
      </trkpt>
      <trkpt lat="37.2818950" lon="-2.5056130">
        <ele>1585.8</ele>
        <time>2021-04-18T10:55:03Z</time>
      </trkpt>
      <trkpt lat="37.2817570" lon="-2.5055820">
        <ele>1586.0</ele>
        <time>2021-04-18T10:55:09Z</time>
      </trkpt>
      <trkpt lat="37.2817340" lon="-2.5055750">
        <ele>1586.0</ele>
        <time>2021-04-18T10:55:10Z</time>
      </trkpt>
      <trkpt lat="37.2815480" lon="-2.5055180">
        <ele>1585.8</ele>
        <time>2021-04-18T10:55:17Z</time>
      </trkpt>
      <trkpt lat="37.2814600" lon="-2.5054810">
        <ele>1585.6</ele>
        <time>2021-04-18T10:55:20Z</time>
      </trkpt>
      <trkpt lat="37.2813350" lon="-2.5054190">
        <ele>1585.0</ele>
        <time>2021-04-18T10:55:24Z</time>
      </trkpt>
      <trkpt lat="37.2812710" lon="-2.5053910">
        <ele>1585.0</ele>
        <time>2021-04-18T10:55:26Z</time>
      </trkpt>
      <trkpt lat="37.2811320" lon="-2.5053610">
        <ele>1584.8</ele>
        <time>2021-04-18T10:55:30Z</time>
      </trkpt>
      <trkpt lat="37.2810590" lon="-2.5053670">
        <ele>1584.8</ele>
        <time>2021-04-18T10:55:32Z</time>
      </trkpt>
      <trkpt lat="37.2809360" lon="-2.5053780">
        <ele>1584.8</ele>
        <time>2021-04-18T10:55:36Z</time>
      </trkpt>
      <trkpt lat="37.2809070" lon="-2.5053740">
        <ele>1584.6</ele>
        <time>2021-04-18T10:55:37Z</time>
      </trkpt>
      <trkpt lat="37.2808810" lon="-2.5053710">
        <ele>1584.6</ele>
        <time>2021-04-18T10:55:38Z</time>
      </trkpt>
      <trkpt lat="37.2808520" lon="-2.5053660">
        <ele>1584.8</ele>
        <time>2021-04-18T10:55:39Z</time>
      </trkpt>
      <trkpt lat="37.2808180" lon="-2.5053640">
        <ele>1584.8</ele>
        <time>2021-04-18T10:55:40Z</time>
      </trkpt>
      <trkpt lat="37.2806920" lon="-2.5054040">
        <ele>1584.6</ele>
        <time>2021-04-18T10:55:43Z</time>
      </trkpt>
      <trkpt lat="37.2806490" lon="-2.5054310">
        <ele>1584.6</ele>
        <time>2021-04-18T10:55:44Z</time>
      </trkpt>
      <trkpt lat="37.2806100" lon="-2.5054590">
        <ele>1584.6</ele>
        <time>2021-04-18T10:55:45Z</time>
      </trkpt>
      <trkpt lat="37.2805590" lon="-2.5055170">
        <ele>1584.6</ele>
        <time>2021-04-18T10:55:47Z</time>
      </trkpt>
      <trkpt lat="37.2805390" lon="-2.5055400">
        <ele>1584.6</ele>
        <time>2021-04-18T10:55:48Z</time>
      </trkpt>
      <trkpt lat="37.2805190" lon="-2.5055600">
        <ele>1584.6</ele>
        <time>2021-04-18T10:55:49Z</time>
      </trkpt>
      <trkpt lat="37.2804980" lon="-2.5055800">
        <ele>1584.6</ele>
        <time>2021-04-18T10:55:50Z</time>
      </trkpt>
      <trkpt lat="37.2804720" lon="-2.5056040">
        <ele>1584.4</ele>
        <time>2021-04-18T10:55:51Z</time>
      </trkpt>
      <trkpt lat="37.2804160" lon="-2.5056500">
        <ele>1584.4</ele>
        <time>2021-04-18T10:55:53Z</time>
      </trkpt>
      <trkpt lat="37.2803610" lon="-2.5056520">
        <ele>1584.6</ele>
        <time>2021-04-18T10:55:55Z</time>
      </trkpt>
      <trkpt lat="37.2803270" lon="-2.5056290">
        <ele>1584.6</ele>
        <time>2021-04-18T10:55:56Z</time>
      </trkpt>
      <trkpt lat="37.2803090" lon="-2.5056100">
        <ele>1584.6</ele>
        <time>2021-04-18T10:55:57Z</time>
      </trkpt>
      <trkpt lat="37.2802880" lon="-2.5055890">
        <ele>1584.6</ele>
        <time>2021-04-18T10:55:58Z</time>
      </trkpt>
      <trkpt lat="37.2802710" lon="-2.5055740">
        <ele>1584.8</ele>
        <time>2021-04-18T10:55:59Z</time>
      </trkpt>
      <trkpt lat="37.2802480" lon="-2.5055620">
        <ele>1584.8</ele>
        <time>2021-04-18T10:56:00Z</time>
      </trkpt>
      <trkpt lat="37.2802180" lon="-2.5055530">
        <ele>1585.0</ele>
        <time>2021-04-18T10:56:01Z</time>
      </trkpt>
      <trkpt lat="37.2801890" lon="-2.5055470">
        <ele>1585.0</ele>
        <time>2021-04-18T10:56:02Z</time>
      </trkpt>
      <trkpt lat="37.2801610" lon="-2.5055420">
        <ele>1585.2</ele>
        <time>2021-04-18T10:56:03Z</time>
      </trkpt>
      <trkpt lat="37.2801140" lon="-2.5055430">
        <ele>1585.6</ele>
        <time>2021-04-18T10:56:05Z</time>
      </trkpt>
      <trkpt lat="37.2800920" lon="-2.5055370">
        <ele>1585.6</ele>
        <time>2021-04-18T10:56:06Z</time>
      </trkpt>
      <trkpt lat="37.2799820" lon="-2.5055440">
        <ele>1586.2</ele>
        <time>2021-04-18T10:56:10Z</time>
      </trkpt>
      <trkpt lat="37.2799560" lon="-2.5055520">
        <ele>1586.2</ele>
        <time>2021-04-18T10:56:11Z</time>
      </trkpt>
      <trkpt lat="37.2799300" lon="-2.5055610">
        <ele>1586.2</ele>
        <time>2021-04-18T10:56:12Z</time>
      </trkpt>
      <trkpt lat="37.2799070" lon="-2.5055660">
        <ele>1586.4</ele>
        <time>2021-04-18T10:56:13Z</time>
      </trkpt>
      <trkpt lat="37.2798830" lon="-2.5055700">
        <ele>1586.4</ele>
        <time>2021-04-18T10:56:14Z</time>
      </trkpt>
      <trkpt lat="37.2798600" lon="-2.5055720">
        <ele>1586.6</ele>
        <time>2021-04-18T10:56:15Z</time>
      </trkpt>
      <trkpt lat="37.2798350" lon="-2.5055710">
        <ele>1586.6</ele>
        <time>2021-04-18T10:56:16Z</time>
      </trkpt>
      <trkpt lat="37.2798090" lon="-2.5055740">
        <ele>1586.6</ele>
        <time>2021-04-18T10:56:17Z</time>
      </trkpt>
      <trkpt lat="37.2797300" lon="-2.5055810">
        <ele>1586.8</ele>
        <time>2021-04-18T10:56:20Z</time>
      </trkpt>
      <trkpt lat="37.2796840" lon="-2.5055970">
        <ele>1587.0</ele>
        <time>2021-04-18T10:56:22Z</time>
      </trkpt>
      <trkpt lat="37.2795790" lon="-2.5056930">
        <ele>1587.0</ele>
        <time>2021-04-18T10:56:27Z</time>
      </trkpt>
      <trkpt lat="37.2795630" lon="-2.5057200">
        <ele>1587.0</ele>
        <time>2021-04-18T10:56:28Z</time>
      </trkpt>
      <trkpt lat="37.2794860" lon="-2.5058020">
        <ele>1587.2</ele>
        <time>2021-04-18T10:56:32Z</time>
      </trkpt>
      <trkpt lat="37.2794620" lon="-2.5058100">
        <ele>1587.2</ele>
        <time>2021-04-18T10:56:33Z</time>
      </trkpt>
      <trkpt lat="37.2794350" lon="-2.5058110">
        <ele>1587.2</ele>
        <time>2021-04-18T10:56:34Z</time>
      </trkpt>
      <trkpt lat="37.2794130" lon="-2.5058070">
        <ele>1587.2</ele>
        <time>2021-04-18T10:56:35Z</time>
      </trkpt>
      <trkpt lat="37.2793990" lon="-2.5058020">
        <ele>1587.4</ele>
        <time>2021-04-18T10:56:36Z</time>
      </trkpt>
      <trkpt lat="37.2793840" lon="-2.5057960">
        <ele>1587.4</ele>
        <time>2021-04-18T10:56:37Z</time>
      </trkpt>
      <trkpt lat="37.2793670" lon="-2.5057900">
        <ele>1587.6</ele>
        <time>2021-04-18T10:56:38Z</time>
      </trkpt>
      <trkpt lat="37.2793490" lon="-2.5057850">
        <ele>1587.8</ele>
        <time>2021-04-18T10:56:39Z</time>
      </trkpt>
      <trkpt lat="37.2793120" lon="-2.5057690">
        <ele>1588.2</ele>
        <time>2021-04-18T10:56:41Z</time>
      </trkpt>
      <trkpt lat="37.2792980" lon="-2.5057620">
        <ele>1588.6</ele>
        <time>2021-04-18T10:56:42Z</time>
      </trkpt>
      <trkpt lat="37.2792820" lon="-2.5057560">
        <ele>1588.8</ele>
        <time>2021-04-18T10:56:43Z</time>
      </trkpt>
      <trkpt lat="37.2792670" lon="-2.5057510">
        <ele>1589.4</ele>
        <time>2021-04-18T10:56:44Z</time>
      </trkpt>
      <trkpt lat="37.2792510" lon="-2.5057450">
        <ele>1589.6</ele>
        <time>2021-04-18T10:56:45Z</time>
      </trkpt>
      <trkpt lat="37.2792340" lon="-2.5057370">
        <ele>1590.0</ele>
        <time>2021-04-18T10:56:46Z</time>
      </trkpt>
      <trkpt lat="37.2792280" lon="-2.5057340">
        <ele>1590.6</ele>
        <time>2021-04-18T10:56:47Z</time>
      </trkpt>
      <trkpt lat="37.2792150" lon="-2.5057250">
        <ele>1590.8</ele>
        <time>2021-04-18T10:56:48Z</time>
      </trkpt>
      <trkpt lat="37.2791970" lon="-2.5057130">
        <ele>1591.4</ele>
        <time>2021-04-18T10:56:49Z</time>
      </trkpt>
      <trkpt lat="37.2791800" lon="-2.5057050">
        <ele>1591.8</ele>
        <time>2021-04-18T10:56:50Z</time>
      </trkpt>
      <trkpt lat="37.2791610" lon="-2.5056970">
        <ele>1592.0</ele>
        <time>2021-04-18T10:56:51Z</time>
      </trkpt>
      <trkpt lat="37.2791440" lon="-2.5056940">
        <ele>1592.4</ele>
        <time>2021-04-18T10:56:52Z</time>
      </trkpt>
      <trkpt lat="37.2791280" lon="-2.5056940">
        <ele>1593.0</ele>
        <time>2021-04-18T10:56:53Z</time>
      </trkpt>
      <trkpt lat="37.2791110" lon="-2.5056910">
        <ele>1593.4</ele>
        <time>2021-04-18T10:56:54Z</time>
      </trkpt>
      <trkpt lat="37.2790920" lon="-2.5056910">
        <ele>1593.6</ele>
        <time>2021-04-18T10:56:55Z</time>
      </trkpt>
      <trkpt lat="37.2790750" lon="-2.5056890">
        <ele>1594.2</ele>
        <time>2021-04-18T10:56:56Z</time>
      </trkpt>
      <trkpt lat="37.2790630" lon="-2.5056890">
        <ele>1594.6</ele>
        <time>2021-04-18T10:56:57Z</time>
      </trkpt>
      <trkpt lat="37.2790500" lon="-2.5056860">
        <ele>1595.4</ele>
        <time>2021-04-18T10:56:58Z</time>
      </trkpt>
      <trkpt lat="37.2790400" lon="-2.5056810">
        <ele>1596.0</ele>
        <time>2021-04-18T10:56:59Z</time>
      </trkpt>
      <trkpt lat="37.2790290" lon="-2.5056740">
        <ele>1596.0</ele>
        <time>2021-04-18T10:57:00Z</time>
      </trkpt>
      <trkpt lat="37.2790130" lon="-2.5056640">
        <ele>1596.2</ele>
        <time>2021-04-18T10:57:01Z</time>
      </trkpt>
      <trkpt lat="37.2790020" lon="-2.5056520">
        <ele>1596.4</ele>
        <time>2021-04-18T10:57:02Z</time>
      </trkpt>
      <trkpt lat="37.2789930" lon="-2.5056430">
        <ele>1597.0</ele>
        <time>2021-04-18T10:57:03Z</time>
      </trkpt>
      <trkpt lat="37.2789800" lon="-2.5056310">
        <ele>1597.4</ele>
        <time>2021-04-18T10:57:04Z</time>
      </trkpt>
      <trkpt lat="37.2789700" lon="-2.5056160">
        <ele>1597.8</ele>
        <time>2021-04-18T10:57:05Z</time>
      </trkpt>
      <trkpt lat="37.2789620" lon="-2.5056040">
        <ele>1598.0</ele>
        <time>2021-04-18T10:57:06Z</time>
      </trkpt>
      <trkpt lat="37.2789550" lon="-2.5055940">
        <ele>1598.2</ele>
        <time>2021-04-18T10:57:07Z</time>
      </trkpt>
      <trkpt lat="37.2789510" lon="-2.5055820">
        <ele>1598.4</ele>
        <time>2021-04-18T10:57:08Z</time>
      </trkpt>
      <trkpt lat="37.2789490" lon="-2.5055740">
        <ele>1598.8</ele>
        <time>2021-04-18T10:57:09Z</time>
      </trkpt>
      <trkpt lat="37.2789450" lon="-2.5055690">
        <ele>1599.2</ele>
        <time>2021-04-18T10:57:10Z</time>
      </trkpt>
      <trkpt lat="37.2789400" lon="-2.5055570">
        <ele>1599.4</ele>
        <time>2021-04-18T10:57:11Z</time>
      </trkpt>
      <trkpt lat="37.2789380" lon="-2.5055420">
        <ele>1599.4</ele>
        <time>2021-04-18T10:57:12Z</time>
      </trkpt>
      <trkpt lat="37.2789350" lon="-2.5055260">
        <ele>1599.6</ele>
        <time>2021-04-18T10:57:13Z</time>
      </trkpt>
      <trkpt lat="37.2789300" lon="-2.5055110">
        <ele>1600.0</ele>
        <time>2021-04-18T10:57:14Z</time>
      </trkpt>
      <trkpt lat="37.2789210" lon="-2.5054930">
        <ele>1600.0</ele>
        <time>2021-04-18T10:57:15Z</time>
      </trkpt>
      <trkpt lat="37.2789160" lon="-2.5054790">
        <ele>1600.4</ele>
        <time>2021-04-18T10:57:16Z</time>
      </trkpt>
      <trkpt lat="37.2789090" lon="-2.5054560">
        <ele>1600.4</ele>
        <time>2021-04-18T10:57:17Z</time>
      </trkpt>
      <trkpt lat="37.2789040" lon="-2.5054410">
        <ele>1600.6</ele>
        <time>2021-04-18T10:57:18Z</time>
      </trkpt>
      <trkpt lat="37.2788970" lon="-2.5054220">
        <ele>1600.8</ele>
        <time>2021-04-18T10:57:19Z</time>
      </trkpt>
      <trkpt lat="37.2788930" lon="-2.5054070">
        <ele>1601.0</ele>
        <time>2021-04-18T10:57:20Z</time>
      </trkpt>
      <trkpt lat="37.2788890" lon="-2.5053910">
        <ele>1601.0</ele>
        <time>2021-04-18T10:57:21Z</time>
      </trkpt>
      <trkpt lat="37.2788840" lon="-2.5053730">
        <ele>1601.2</ele>
        <time>2021-04-18T10:57:22Z</time>
      </trkpt>
      <trkpt lat="37.2788760" lon="-2.5053530">
        <ele>1601.2</ele>
        <time>2021-04-18T10:57:23Z</time>
      </trkpt>
      <trkpt lat="37.2788700" lon="-2.5053350">
        <ele>1601.2</ele>
        <time>2021-04-18T10:57:24Z</time>
      </trkpt>
      <trkpt lat="37.2788630" lon="-2.5053160">
        <ele>1601.4</ele>
        <time>2021-04-18T10:57:25Z</time>
      </trkpt>
      <trkpt lat="37.2788540" lon="-2.5052950">
        <ele>1601.4</ele>
        <time>2021-04-18T10:57:26Z</time>
      </trkpt>
      <trkpt lat="37.2788460" lon="-2.5052700">
        <ele>1601.4</ele>
        <time>2021-04-18T10:57:27Z</time>
      </trkpt>
      <trkpt lat="37.2788370" lon="-2.5052390">
        <ele>1601.4</ele>
        <time>2021-04-18T10:57:28Z</time>
      </trkpt>
      <trkpt lat="37.2788270" lon="-2.5052130">
        <ele>1601.4</ele>
        <time>2021-04-18T10:57:29Z</time>
      </trkpt>
      <trkpt lat="37.2788200" lon="-2.5051930">
        <ele>1601.4</ele>
        <time>2021-04-18T10:57:30Z</time>
      </trkpt>
      <trkpt lat="37.2788080" lon="-2.5051670">
        <ele>1601.4</ele>
        <time>2021-04-18T10:57:31Z</time>
      </trkpt>
      <trkpt lat="37.2787960" lon="-2.5051400">
        <ele>1601.4</ele>
        <time>2021-04-18T10:57:32Z</time>
      </trkpt>
      <trkpt lat="37.2787860" lon="-2.5051190">
        <ele>1601.4</ele>
        <time>2021-04-18T10:57:33Z</time>
      </trkpt>
      <trkpt lat="37.2787730" lon="-2.5051050">
        <ele>1601.4</ele>
        <time>2021-04-18T10:57:34Z</time>
      </trkpt>
      <trkpt lat="37.2787550" lon="-2.5050890">
        <ele>1601.4</ele>
        <time>2021-04-18T10:57:35Z</time>
      </trkpt>
      <trkpt lat="37.2787340" lon="-2.5050700">
        <ele>1601.4</ele>
        <time>2021-04-18T10:57:36Z</time>
      </trkpt>
      <trkpt lat="37.2787100" lon="-2.5050530">
        <ele>1601.6</ele>
        <time>2021-04-18T10:57:37Z</time>
      </trkpt>
      <trkpt lat="37.2786790" lon="-2.5050340">
        <ele>1601.6</ele>
        <time>2021-04-18T10:57:38Z</time>
      </trkpt>
      <trkpt lat="37.2786560" lon="-2.5050210">
        <ele>1601.4</ele>
        <time>2021-04-18T10:57:39Z</time>
      </trkpt>
      <trkpt lat="37.2786270" lon="-2.5050110">
        <ele>1601.4</ele>
        <time>2021-04-18T10:57:40Z</time>
      </trkpt>
      <trkpt lat="37.2785950" lon="-2.5050030">
        <ele>1601.6</ele>
        <time>2021-04-18T10:57:41Z</time>
      </trkpt>
      <trkpt lat="37.2785640" lon="-2.5049980">
        <ele>1601.6</ele>
        <time>2021-04-18T10:57:42Z</time>
      </trkpt>
      <trkpt lat="37.2783280" lon="-2.5049630">
        <ele>1601.6</ele>
        <time>2021-04-18T10:57:49Z</time>
      </trkpt>
      <trkpt lat="37.2781250" lon="-2.5048750">
        <ele>1601.0</ele>
        <time>2021-04-18T10:57:55Z</time>
      </trkpt>
      <trkpt lat="37.2780910" lon="-2.5048750">
        <ele>1601.0</ele>
        <time>2021-04-18T10:57:56Z</time>
      </trkpt>
      <trkpt lat="37.2780650" lon="-2.5048880">
        <ele>1601.0</ele>
        <time>2021-04-18T10:57:57Z</time>
      </trkpt>
      <trkpt lat="37.2780510" lon="-2.5049150">
        <ele>1600.8</ele>
        <time>2021-04-18T10:57:58Z</time>
      </trkpt>
      <trkpt lat="37.2780490" lon="-2.5049440">
        <ele>1600.8</ele>
        <time>2021-04-18T10:57:59Z</time>
      </trkpt>
      <trkpt lat="37.2780580" lon="-2.5049740">
        <ele>1600.8</ele>
        <time>2021-04-18T10:58:00Z</time>
      </trkpt>
      <trkpt lat="37.2780780" lon="-2.5050070">
        <ele>1601.0</ele>
        <time>2021-04-18T10:58:01Z</time>
      </trkpt>
      <trkpt lat="37.2781950" lon="-2.5051500">
        <ele>1601.4</ele>
        <time>2021-04-18T10:58:05Z</time>
      </trkpt>
      <trkpt lat="37.2782550" lon="-2.5052560">
        <ele>1601.6</ele>
        <time>2021-04-18T10:58:07Z</time>
      </trkpt>
      <trkpt lat="37.2784060" lon="-2.5055020">
        <ele>1601.4</ele>
        <time>2021-04-18T10:58:11Z</time>
      </trkpt>
      <trkpt lat="37.2784570" lon="-2.5055710">
        <ele>1601.0</ele>
        <time>2021-04-18T10:58:12Z</time>
      </trkpt>
      <trkpt lat="37.2785060" lon="-2.5056450">
        <ele>1600.8</ele>
        <time>2021-04-18T10:58:13Z</time>
      </trkpt>
      <trkpt lat="37.2785950" lon="-2.5057980">
        <ele>1600.0</ele>
        <time>2021-04-18T10:58:15Z</time>
      </trkpt>
      <trkpt lat="37.2786420" lon="-2.5058720">
        <ele>1599.2</ele>
        <time>2021-04-18T10:58:16Z</time>
      </trkpt>
      <trkpt lat="37.2786920" lon="-2.5059450">
        <ele>1598.4</ele>
        <time>2021-04-18T10:58:17Z</time>
      </trkpt>
      <trkpt lat="37.2787350" lon="-2.5060290">
        <ele>1598.0</ele>
        <time>2021-04-18T10:58:18Z</time>
      </trkpt>
      <trkpt lat="37.2787670" lon="-2.5061200">
        <ele>1597.0</ele>
        <time>2021-04-18T10:58:19Z</time>
      </trkpt>
      <trkpt lat="37.2787940" lon="-2.5062030">
        <ele>1596.4</ele>
        <time>2021-04-18T10:58:20Z</time>
      </trkpt>
      <trkpt lat="37.2788250" lon="-2.5062690">
        <ele>1596.2</ele>
        <time>2021-04-18T10:58:21Z</time>
      </trkpt>
      <trkpt lat="37.2788690" lon="-2.5063080">
        <ele>1595.0</ele>
        <time>2021-04-18T10:58:22Z</time>
      </trkpt>
      <trkpt lat="37.2789210" lon="-2.5063220">
        <ele>1594.0</ele>
        <time>2021-04-18T10:58:23Z</time>
      </trkpt>
      <trkpt lat="37.2789790" lon="-2.5063200">
        <ele>1592.6</ele>
        <time>2021-04-18T10:58:24Z</time>
      </trkpt>
      <trkpt lat="37.2790420" lon="-2.5063190">
        <ele>1591.6</ele>
        <time>2021-04-18T10:58:25Z</time>
      </trkpt>
      <trkpt lat="37.2791670" lon="-2.5063150">
        <ele>1590.2</ele>
        <time>2021-04-18T10:58:27Z</time>
      </trkpt>
      <trkpt lat="37.2792840" lon="-2.5062720">
        <ele>1589.0</ele>
        <time>2021-04-18T10:58:29Z</time>
      </trkpt>
      <trkpt lat="37.2793450" lon="-2.5062510">
        <ele>1588.2</ele>
        <time>2021-04-18T10:58:30Z</time>
      </trkpt>
      <trkpt lat="37.2794050" lon="-2.5062490">
        <ele>1587.4</ele>
        <time>2021-04-18T10:58:31Z</time>
      </trkpt>
      <trkpt lat="37.2794530" lon="-2.5062690">
        <ele>1586.6</ele>
        <time>2021-04-18T10:58:32Z</time>
      </trkpt>
      <trkpt lat="37.2794870" lon="-2.5063050">
        <ele>1586.4</ele>
        <time>2021-04-18T10:58:33Z</time>
      </trkpt>
      <trkpt lat="37.2794940" lon="-2.5063610">
        <ele>1585.6</ele>
        <time>2021-04-18T10:58:34Z</time>
      </trkpt>
      <trkpt lat="37.2794400" lon="-2.5064920">
        <ele>1585.0</ele>
        <time>2021-04-18T10:58:36Z</time>
      </trkpt>
      <trkpt lat="37.2793920" lon="-2.5065580">
        <ele>1584.2</ele>
        <time>2021-04-18T10:58:37Z</time>
      </trkpt>
      <trkpt lat="37.2793330" lon="-2.5066200">
        <ele>1583.4</ele>
        <time>2021-04-18T10:58:38Z</time>
      </trkpt>
      <trkpt lat="37.2792750" lon="-2.5066770">
        <ele>1582.8</ele>
        <time>2021-04-18T10:58:39Z</time>
      </trkpt>
      <trkpt lat="37.2792020" lon="-2.5067270">
        <ele>1582.2</ele>
        <time>2021-04-18T10:58:40Z</time>
      </trkpt>
      <trkpt lat="37.2791170" lon="-2.5067640">
        <ele>1580.8</ele>
        <time>2021-04-18T10:58:41Z</time>
      </trkpt>
      <trkpt lat="37.2790250" lon="-2.5067810">
        <ele>1579.4</ele>
        <time>2021-04-18T10:58:42Z</time>
      </trkpt>
      <trkpt lat="37.2789240" lon="-2.5067830">
        <ele>1578.0</ele>
        <time>2021-04-18T10:58:43Z</time>
      </trkpt>
      <trkpt lat="37.2788250" lon="-2.5067860">
        <ele>1577.0</ele>
        <time>2021-04-18T10:58:44Z</time>
      </trkpt>
      <trkpt lat="37.2787320" lon="-2.5067800">
        <ele>1576.8</ele>
        <time>2021-04-18T10:58:45Z</time>
      </trkpt>
      <trkpt lat="37.2786410" lon="-2.5067670">
        <ele>1575.8</ele>
        <time>2021-04-18T10:58:46Z</time>
      </trkpt>
      <trkpt lat="37.2785590" lon="-2.5067630">
        <ele>1575.2</ele>
        <time>2021-04-18T10:58:47Z</time>
      </trkpt>
      <trkpt lat="37.2784870" lon="-2.5067850">
        <ele>1573.6</ele>
        <time>2021-04-18T10:58:48Z</time>
      </trkpt>
      <trkpt lat="37.2784350" lon="-2.5068360">
        <ele>1572.8</ele>
        <time>2021-04-18T10:58:49Z</time>
      </trkpt>
      <trkpt lat="37.2784190" lon="-2.5069140">
        <ele>1571.2</ele>
        <time>2021-04-18T10:58:50Z</time>
      </trkpt>
      <trkpt lat="37.2784410" lon="-2.5070030">
        <ele>1570.0</ele>
        <time>2021-04-18T10:58:51Z</time>
      </trkpt>
      <trkpt lat="37.2784820" lon="-2.5070830">
        <ele>1569.6</ele>
        <time>2021-04-18T10:58:52Z</time>
      </trkpt>
      <trkpt lat="37.2785220" lon="-2.5071550">
        <ele>1569.0</ele>
        <time>2021-04-18T10:58:53Z</time>
      </trkpt>
      <trkpt lat="37.2785580" lon="-2.5072270">
        <ele>1568.4</ele>
        <time>2021-04-18T10:58:54Z</time>
      </trkpt>
      <trkpt lat="37.2786020" lon="-2.5073050">
        <ele>1567.4</ele>
        <time>2021-04-18T10:58:55Z</time>
      </trkpt>
      <trkpt lat="37.2786520" lon="-2.5073660">
        <ele>1566.6</ele>
        <time>2021-04-18T10:58:56Z</time>
      </trkpt>
      <trkpt lat="37.2787200" lon="-2.5073910">
        <ele>1565.6</ele>
        <time>2021-04-18T10:58:57Z</time>
      </trkpt>
      <trkpt lat="37.2787980" lon="-2.5074030">
        <ele>1564.2</ele>
        <time>2021-04-18T10:58:58Z</time>
      </trkpt>
      <trkpt lat="37.2788730" lon="-2.5074240">
        <ele>1563.6</ele>
        <time>2021-04-18T10:58:59Z</time>
      </trkpt>
      <trkpt lat="37.2789390" lon="-2.5074570">
        <ele>1563.2</ele>
        <time>2021-04-18T10:59:00Z</time>
      </trkpt>
      <trkpt lat="37.2789960" lon="-2.5074980">
        <ele>1562.6</ele>
        <time>2021-04-18T10:59:01Z</time>
      </trkpt>
      <trkpt lat="37.2790450" lon="-2.5075430">
        <ele>1561.8</ele>
        <time>2021-04-18T10:59:02Z</time>
      </trkpt>
      <trkpt lat="37.2790870" lon="-2.5075880">
        <ele>1561.6</ele>
        <time>2021-04-18T10:59:03Z</time>
      </trkpt>
      <trkpt lat="37.2791260" lon="-2.5076270">
        <ele>1561.4</ele>
        <time>2021-04-18T10:59:04Z</time>
      </trkpt>
      <trkpt lat="37.2791690" lon="-2.5076570">
        <ele>1561.4</ele>
        <time>2021-04-18T10:59:05Z</time>
      </trkpt>
      <trkpt lat="37.2792100" lon="-2.5076780">
        <ele>1561.4</ele>
        <time>2021-04-18T10:59:06Z</time>
      </trkpt>
      <trkpt lat="37.2792480" lon="-2.5076960">
        <ele>1561.4</ele>
        <time>2021-04-18T10:59:07Z</time>
      </trkpt>
      <trkpt lat="37.2792820" lon="-2.5077160">
        <ele>1562.0</ele>
        <time>2021-04-18T10:59:08Z</time>
      </trkpt>
      <trkpt lat="37.2793130" lon="-2.5077370">
        <ele>1562.4</ele>
        <time>2021-04-18T10:59:09Z</time>
      </trkpt>
      <trkpt lat="37.2793420" lon="-2.5077550">
        <ele>1563.0</ele>
        <time>2021-04-18T10:59:10Z</time>
      </trkpt>
      <trkpt lat="37.2793740" lon="-2.5077720">
        <ele>1563.2</ele>
        <time>2021-04-18T10:59:11Z</time>
      </trkpt>
      <trkpt lat="37.2794350" lon="-2.5078020">
        <ele>1563.8</ele>
        <time>2021-04-18T10:59:13Z</time>
      </trkpt>
      <trkpt lat="37.2794630" lon="-2.5078120">
        <ele>1564.0</ele>
        <time>2021-04-18T10:59:14Z</time>
      </trkpt>
      <trkpt lat="37.2794830" lon="-2.5078180">
        <ele>1564.2</ele>
        <time>2021-04-18T10:59:15Z</time>
      </trkpt>
      <trkpt lat="37.2795010" lon="-2.5078210">
        <ele>1564.4</ele>
        <time>2021-04-18T10:59:16Z</time>
      </trkpt>
      <trkpt lat="37.2795180" lon="-2.5078240">
        <ele>1564.8</ele>
        <time>2021-04-18T10:59:17Z</time>
      </trkpt>
      <trkpt lat="37.2795360" lon="-2.5078320">
        <ele>1565.0</ele>
        <time>2021-04-18T10:59:18Z</time>
      </trkpt>
      <trkpt lat="37.2795530" lon="-2.5078370">
        <ele>1565.2</ele>
        <time>2021-04-18T10:59:19Z</time>
      </trkpt>
      <trkpt lat="37.2795690" lon="-2.5078410">
        <ele>1565.4</ele>
        <time>2021-04-18T10:59:20Z</time>
      </trkpt>
      <trkpt lat="37.2796290" lon="-2.5078660">
        <ele>1566.0</ele>
        <time>2021-04-18T10:59:23Z</time>
      </trkpt>
      <trkpt lat="37.2796520" lon="-2.5078730">
        <ele>1566.0</ele>
        <time>2021-04-18T10:59:24Z</time>
      </trkpt>
      <trkpt lat="37.2797630" lon="-2.5078910">
        <ele>1566.6</ele>
        <time>2021-04-18T10:59:30Z</time>
      </trkpt>
      <trkpt lat="37.2797760" lon="-2.5078880">
        <ele>1566.8</ele>
        <time>2021-04-18T10:59:31Z</time>
      </trkpt>
      <trkpt lat="37.2797860" lon="-2.5078860">
        <ele>1567.0</ele>
        <time>2021-04-18T10:59:32Z</time>
      </trkpt>
      <trkpt lat="37.2798010" lon="-2.5078910">
        <ele>1567.0</ele>
        <time>2021-04-18T10:59:33Z</time>
      </trkpt>
      <trkpt lat="37.2798180" lon="-2.5078950">
        <ele>1567.2</ele>
        <time>2021-04-18T10:59:34Z</time>
      </trkpt>
      <trkpt lat="37.2798720" lon="-2.5079050">
        <ele>1567.4</ele>
        <time>2021-04-18T10:59:37Z</time>
      </trkpt>
      <trkpt lat="37.2798940" lon="-2.5079020">
        <ele>1567.8</ele>
        <time>2021-04-18T10:59:38Z</time>
      </trkpt>
      <trkpt lat="37.2799060" lon="-2.5078970">
        <ele>1568.2</ele>
        <time>2021-04-18T10:59:39Z</time>
      </trkpt>
      <trkpt lat="37.2799230" lon="-2.5078880">
        <ele>1568.2</ele>
        <time>2021-04-18T10:59:40Z</time>
      </trkpt>
      <trkpt lat="37.2799340" lon="-2.5078740">
        <ele>1568.6</ele>
        <time>2021-04-18T10:59:41Z</time>
      </trkpt>
      <trkpt lat="37.2799480" lon="-2.5078600">
        <ele>1568.6</ele>
        <time>2021-04-18T10:59:42Z</time>
      </trkpt>
      <trkpt lat="37.2799650" lon="-2.5078470">
        <ele>1568.8</ele>
        <time>2021-04-18T10:59:43Z</time>
      </trkpt>
      <trkpt lat="37.2799840" lon="-2.5078310">
        <ele>1569.0</ele>
        <time>2021-04-18T10:59:44Z</time>
      </trkpt>
      <trkpt lat="37.2800090" lon="-2.5078100">
        <ele>1569.4</ele>
        <time>2021-04-18T10:59:45Z</time>
      </trkpt>
      <trkpt lat="37.2800340" lon="-2.5077940">
        <ele>1569.6</ele>
        <time>2021-04-18T10:59:46Z</time>
      </trkpt>
      <trkpt lat="37.2800740" lon="-2.5077710">
        <ele>1569.6</ele>
        <time>2021-04-18T10:59:47Z</time>
      </trkpt>
      <trkpt lat="37.2801310" lon="-2.5077440">
        <ele>1569.6</ele>
        <time>2021-04-18T10:59:48Z</time>
      </trkpt>
      <trkpt lat="37.2801880" lon="-2.5077190">
        <ele>1569.6</ele>
        <time>2021-04-18T10:59:49Z</time>
      </trkpt>
      <trkpt lat="37.2802400" lon="-2.5077000">
        <ele>1569.6</ele>
        <time>2021-04-18T10:59:50Z</time>
      </trkpt>
      <trkpt lat="37.2803100" lon="-2.5076790">
        <ele>1569.6</ele>
        <time>2021-04-18T10:59:51Z</time>
      </trkpt>
      <trkpt lat="37.2803810" lon="-2.5076580">
        <ele>1569.4</ele>
        <time>2021-04-18T10:59:52Z</time>
      </trkpt>
      <trkpt lat="37.2804530" lon="-2.5076420">
        <ele>1569.0</ele>
        <time>2021-04-18T10:59:53Z</time>
      </trkpt>
      <trkpt lat="37.2805250" lon="-2.5076300">
        <ele>1568.8</ele>
        <time>2021-04-18T10:59:54Z</time>
      </trkpt>
      <trkpt lat="37.2806080" lon="-2.5076150">
        <ele>1568.4</ele>
        <time>2021-04-18T10:59:55Z</time>
      </trkpt>
      <trkpt lat="37.2806680" lon="-2.5076090">
        <ele>1568.2</ele>
        <time>2021-04-18T10:59:56Z</time>
      </trkpt>
      <trkpt lat="37.2807480" lon="-2.5076100">
        <ele>1567.4</ele>
        <time>2021-04-18T10:59:57Z</time>
      </trkpt>
      <trkpt lat="37.2808110" lon="-2.5076260">
        <ele>1566.8</ele>
        <time>2021-04-18T10:59:58Z</time>
      </trkpt>
      <trkpt lat="37.2808630" lon="-2.5076590">
        <ele>1566.6</ele>
        <time>2021-04-18T10:59:59Z</time>
      </trkpt>
      <trkpt lat="37.2808880" lon="-2.5077090">
        <ele>1565.8</ele>
        <time>2021-04-18T11:00:00Z</time>
      </trkpt>
      <trkpt lat="37.2808950" lon="-2.5077600">
        <ele>1565.4</ele>
        <time>2021-04-18T11:00:01Z</time>
      </trkpt>
      <trkpt lat="37.2808860" lon="-2.5078000">
        <ele>1565.0</ele>
        <time>2021-04-18T11:00:02Z</time>
      </trkpt>
      <trkpt lat="37.2808690" lon="-2.5078150">
        <ele>1564.6</ele>
        <time>2021-04-18T11:00:03Z</time>
      </trkpt>
      <trkpt lat="37.2808590" lon="-2.5078120">
        <ele>1564.0</ele>
        <time>2021-04-18T11:00:04Z</time>
      </trkpt>
      <trkpt lat="37.2808550" lon="-2.5077940">
        <ele>1563.2</ele>
        <time>2021-04-18T11:00:05Z</time>
      </trkpt>
      <trkpt lat="37.2808560" lon="-2.5077690">
        <ele>1562.6</ele>
        <time>2021-04-18T11:00:06Z</time>
      </trkpt>
      <trkpt lat="37.2808630" lon="-2.5077480">
        <ele>1562.0</ele>
        <time>2021-04-18T11:00:07Z</time>
      </trkpt>
      <trkpt lat="37.2808800" lon="-2.5077370">
        <ele>1561.6</ele>
        <time>2021-04-18T11:00:08Z</time>
      </trkpt>
      <trkpt lat="37.2808890" lon="-2.5077350">
        <ele>1561.4</ele>
        <time>2021-04-18T11:00:09Z</time>
      </trkpt>
      <trkpt lat="37.2808910" lon="-2.5077350">
        <ele>1561.2</ele>
        <time>2021-04-18T11:00:10Z</time>
      </trkpt>
      <trkpt lat="37.2808920" lon="-2.5077380">
        <ele>1561.2</ele>
        <time>2021-04-18T11:00:12Z</time>
      </trkpt>
      <trkpt lat="37.2809070" lon="-2.5077280">
        <ele>1558.6</ele>
        <time>2021-04-18T11:02:28Z</time>
      </trkpt>
      <trkpt lat="37.2809240" lon="-2.5077350">
        <ele>1558.6</ele>
        <time>2021-04-18T11:02:29Z</time>
      </trkpt>
      <trkpt lat="37.2809350" lon="-2.5077500">
        <ele>1558.6</ele>
        <time>2021-04-18T11:02:30Z</time>
      </trkpt>
      <trkpt lat="37.2809390" lon="-2.5077800">
        <ele>1558.8</ele>
        <time>2021-04-18T11:02:32Z</time>
      </trkpt>
      <trkpt lat="37.2809360" lon="-2.5077890">
        <ele>1558.8</ele>
        <time>2021-04-18T11:02:33Z</time>
      </trkpt>
      <trkpt lat="37.2809280" lon="-2.5077990">
        <ele>1558.8</ele>
        <time>2021-04-18T11:02:34Z</time>
      </trkpt>
      <trkpt lat="37.2809240" lon="-2.5078110">
        <ele>1558.8</ele>
        <time>2021-04-18T11:02:35Z</time>
      </trkpt>
      <trkpt lat="37.2809250" lon="-2.5078280">
        <ele>1558.8</ele>
        <time>2021-04-18T11:02:36Z</time>
      </trkpt>
      <trkpt lat="37.2809220" lon="-2.5078820">
        <ele>1558.8</ele>
        <time>2021-04-18T11:02:38Z</time>
      </trkpt>
      <trkpt lat="37.2809190" lon="-2.5079120">
        <ele>1558.8</ele>
        <time>2021-04-18T11:02:39Z</time>
      </trkpt>
      <trkpt lat="37.2809030" lon="-2.5080700">
        <ele>1559.4</ele>
        <time>2021-04-18T11:02:45Z</time>
      </trkpt>
      <trkpt lat="37.2809000" lon="-2.5080890">
        <ele>1559.4</ele>
        <time>2021-04-18T11:02:46Z</time>
      </trkpt>
      <trkpt lat="37.2808960" lon="-2.5081070">
        <ele>1559.4</ele>
        <time>2021-04-18T11:02:47Z</time>
      </trkpt>
      <trkpt lat="37.2809010" lon="-2.5081240">
        <ele>1559.6</ele>
        <time>2021-04-18T11:02:48Z</time>
      </trkpt>
      <trkpt lat="37.2809090" lon="-2.5081390">
        <ele>1560.0</ele>
        <time>2021-04-18T11:02:49Z</time>
      </trkpt>
      <trkpt lat="37.2809170" lon="-2.5081570">
        <ele>1560.0</ele>
        <time>2021-04-18T11:02:50Z</time>
      </trkpt>
      <trkpt lat="37.2809260" lon="-2.5081770">
        <ele>1560.4</ele>
        <time>2021-04-18T11:02:51Z</time>
      </trkpt>
      <trkpt lat="37.2809380" lon="-2.5081930">
        <ele>1560.4</ele>
        <time>2021-04-18T11:02:52Z</time>
      </trkpt>
      <trkpt lat="37.2809520" lon="-2.5082060">
        <ele>1560.6</ele>
        <time>2021-04-18T11:02:53Z</time>
      </trkpt>
      <trkpt lat="37.2809790" lon="-2.5082390">
        <ele>1560.8</ele>
        <time>2021-04-18T11:02:55Z</time>
      </trkpt>
      <trkpt lat="37.2809930" lon="-2.5082560">
        <ele>1561.2</ele>
        <time>2021-04-18T11:02:56Z</time>
      </trkpt>
      <trkpt lat="37.2810200" lon="-2.5082860">
        <ele>1562.0</ele>
        <time>2021-04-18T11:02:58Z</time>
      </trkpt>
      <trkpt lat="37.2810320" lon="-2.5083020">
        <ele>1562.2</ele>
        <time>2021-04-18T11:02:59Z</time>
      </trkpt>
      <trkpt lat="37.2810450" lon="-2.5083140">
        <ele>1562.4</ele>
        <time>2021-04-18T11:03:00Z</time>
      </trkpt>
      <trkpt lat="37.2810580" lon="-2.5083240">
        <ele>1562.8</ele>
        <time>2021-04-18T11:03:01Z</time>
      </trkpt>
      <trkpt lat="37.2810740" lon="-2.5083330">
        <ele>1563.0</ele>
        <time>2021-04-18T11:03:02Z</time>
      </trkpt>
      <trkpt lat="37.2810870" lon="-2.5083430">
        <ele>1563.4</ele>
        <time>2021-04-18T11:03:03Z</time>
      </trkpt>
      <trkpt lat="37.2810980" lon="-2.5083550">
        <ele>1563.6</ele>
        <time>2021-04-18T11:03:04Z</time>
      </trkpt>
      <trkpt lat="37.2811070" lon="-2.5083680">
        <ele>1563.8</ele>
        <time>2021-04-18T11:03:05Z</time>
      </trkpt>
      <trkpt lat="37.2811150" lon="-2.5083800">
        <ele>1564.4</ele>
        <time>2021-04-18T11:03:06Z</time>
      </trkpt>
      <trkpt lat="37.2811250" lon="-2.5083900">
        <ele>1564.6</ele>
        <time>2021-04-18T11:03:07Z</time>
      </trkpt>
      <trkpt lat="37.2811320" lon="-2.5084030">
        <ele>1565.0</ele>
        <time>2021-04-18T11:03:08Z</time>
      </trkpt>
      <trkpt lat="37.2811440" lon="-2.5084120">
        <ele>1565.4</ele>
        <time>2021-04-18T11:03:09Z</time>
      </trkpt>
      <trkpt lat="37.2811560" lon="-2.5084220">
        <ele>1565.6</ele>
        <time>2021-04-18T11:03:10Z</time>
      </trkpt>
      <trkpt lat="37.2811690" lon="-2.5084330">
        <ele>1565.8</ele>
        <time>2021-04-18T11:03:11Z</time>
      </trkpt>
      <trkpt lat="37.2811780" lon="-2.5084440">
        <ele>1566.0</ele>
        <time>2021-04-18T11:03:12Z</time>
      </trkpt>
      <trkpt lat="37.2811860" lon="-2.5084550">
        <ele>1566.0</ele>
        <time>2021-04-18T11:03:13Z</time>
      </trkpt>
      <trkpt lat="37.2811970" lon="-2.5084650">
        <ele>1566.0</ele>
        <time>2021-04-18T11:03:14Z</time>
      </trkpt>
      <trkpt lat="37.2812070" lon="-2.5084760">
        <ele>1566.2</ele>
        <time>2021-04-18T11:03:15Z</time>
      </trkpt>
      <trkpt lat="37.2812190" lon="-2.5084870">
        <ele>1566.4</ele>
        <time>2021-04-18T11:03:16Z</time>
      </trkpt>
      <trkpt lat="37.2812320" lon="-2.5084980">
        <ele>1566.4</ele>
        <time>2021-04-18T11:03:17Z</time>
      </trkpt>
      <trkpt lat="37.2812460" lon="-2.5085100">
        <ele>1566.8</ele>
        <time>2021-04-18T11:03:18Z</time>
      </trkpt>
      <trkpt lat="37.2812570" lon="-2.5085220">
        <ele>1567.0</ele>
        <time>2021-04-18T11:03:19Z</time>
      </trkpt>
      <trkpt lat="37.2812700" lon="-2.5085340">
        <ele>1567.4</ele>
        <time>2021-04-18T11:03:20Z</time>
      </trkpt>
      <trkpt lat="37.2812800" lon="-2.5085470">
        <ele>1567.4</ele>
        <time>2021-04-18T11:03:21Z</time>
      </trkpt>
      <trkpt lat="37.2812870" lon="-2.5085630">
        <ele>1567.6</ele>
        <time>2021-04-18T11:03:22Z</time>
      </trkpt>
      <trkpt lat="37.2813000" lon="-2.5085740">
        <ele>1567.8</ele>
        <time>2021-04-18T11:03:23Z</time>
      </trkpt>
      <trkpt lat="37.2813120" lon="-2.5085870">
        <ele>1568.0</ele>
        <time>2021-04-18T11:03:24Z</time>
      </trkpt>
      <trkpt lat="37.2813250" lon="-2.5085980">
        <ele>1568.2</ele>
        <time>2021-04-18T11:03:25Z</time>
      </trkpt>
      <trkpt lat="37.2813380" lon="-2.5086100">
        <ele>1568.2</ele>
        <time>2021-04-18T11:03:26Z</time>
      </trkpt>
      <trkpt lat="37.2813500" lon="-2.5086210">
        <ele>1568.6</ele>
        <time>2021-04-18T11:03:27Z</time>
      </trkpt>
      <trkpt lat="37.2813600" lon="-2.5086330">
        <ele>1568.8</ele>
        <time>2021-04-18T11:03:28Z</time>
      </trkpt>
      <trkpt lat="37.2813720" lon="-2.5086480">
        <ele>1569.0</ele>
        <time>2021-04-18T11:03:29Z</time>
      </trkpt>
      <trkpt lat="37.2813850" lon="-2.5086600">
        <ele>1569.2</ele>
        <time>2021-04-18T11:03:30Z</time>
      </trkpt>
      <trkpt lat="37.2813980" lon="-2.5086700">
        <ele>1569.2</ele>
        <time>2021-04-18T11:03:31Z</time>
      </trkpt>
      <trkpt lat="37.2814080" lon="-2.5086830">
        <ele>1569.4</ele>
        <time>2021-04-18T11:03:32Z</time>
      </trkpt>
      <trkpt lat="37.2814160" lon="-2.5087000">
        <ele>1569.4</ele>
        <time>2021-04-18T11:03:33Z</time>
      </trkpt>
      <trkpt lat="37.2814260" lon="-2.5087180">
        <ele>1569.6</ele>
        <time>2021-04-18T11:03:34Z</time>
      </trkpt>
      <trkpt lat="37.2814360" lon="-2.5087340">
        <ele>1569.8</ele>
        <time>2021-04-18T11:03:35Z</time>
      </trkpt>
      <trkpt lat="37.2814480" lon="-2.5087460">
        <ele>1570.0</ele>
        <time>2021-04-18T11:03:36Z</time>
      </trkpt>
      <trkpt lat="37.2814600" lon="-2.5087570">
        <ele>1570.2</ele>
        <time>2021-04-18T11:03:37Z</time>
      </trkpt>
      <trkpt lat="37.2814720" lon="-2.5087710">
        <ele>1570.2</ele>
        <time>2021-04-18T11:03:38Z</time>
      </trkpt>
      <trkpt lat="37.2814820" lon="-2.5087870">
        <ele>1570.4</ele>
        <time>2021-04-18T11:03:39Z</time>
      </trkpt>
      <trkpt lat="37.2814920" lon="-2.5088020">
        <ele>1570.4</ele>
        <time>2021-04-18T11:03:40Z</time>
      </trkpt>
      <trkpt lat="37.2815030" lon="-2.5088150">
        <ele>1570.8</ele>
        <time>2021-04-18T11:03:41Z</time>
      </trkpt>
      <trkpt lat="37.2815120" lon="-2.5088260">
        <ele>1571.0</ele>
        <time>2021-04-18T11:03:42Z</time>
      </trkpt>
      <trkpt lat="37.2815190" lon="-2.5088440">
        <ele>1571.0</ele>
        <time>2021-04-18T11:03:43Z</time>
      </trkpt>
      <trkpt lat="37.2815240" lon="-2.5088640">
        <ele>1571.2</ele>
        <time>2021-04-18T11:03:44Z</time>
      </trkpt>
      <trkpt lat="37.2815350" lon="-2.5088820">
        <ele>1571.2</ele>
        <time>2021-04-18T11:03:45Z</time>
      </trkpt>
      <trkpt lat="37.2815470" lon="-2.5088990">
        <ele>1571.4</ele>
        <time>2021-04-18T11:03:46Z</time>
      </trkpt>
      <trkpt lat="37.2815580" lon="-2.5089170">
        <ele>1571.4</ele>
        <time>2021-04-18T11:03:47Z</time>
      </trkpt>
      <trkpt lat="37.2815660" lon="-2.5089350">
        <ele>1571.4</ele>
        <time>2021-04-18T11:03:48Z</time>
      </trkpt>
      <trkpt lat="37.2815760" lon="-2.5089540">
        <ele>1571.6</ele>
        <time>2021-04-18T11:03:49Z</time>
      </trkpt>
      <trkpt lat="37.2815850" lon="-2.5089730">
        <ele>1571.6</ele>
        <time>2021-04-18T11:03:50Z</time>
      </trkpt>
      <trkpt lat="37.2815900" lon="-2.5089920">
        <ele>1571.8</ele>
        <time>2021-04-18T11:03:51Z</time>
      </trkpt>
      <trkpt lat="37.2815990" lon="-2.5090120">
        <ele>1572.0</ele>
        <time>2021-04-18T11:03:52Z</time>
      </trkpt>
      <trkpt lat="37.2816060" lon="-2.5090310">
        <ele>1572.2</ele>
        <time>2021-04-18T11:03:53Z</time>
      </trkpt>
      <trkpt lat="37.2816120" lon="-2.5090500">
        <ele>1572.4</ele>
        <time>2021-04-18T11:03:54Z</time>
      </trkpt>
      <trkpt lat="37.2816160" lon="-2.5090690">
        <ele>1572.4</ele>
        <time>2021-04-18T11:03:55Z</time>
      </trkpt>
      <trkpt lat="37.2816200" lon="-2.5090890">
        <ele>1572.6</ele>
        <time>2021-04-18T11:03:56Z</time>
      </trkpt>
      <trkpt lat="37.2816250" lon="-2.5091090">
        <ele>1572.8</ele>
        <time>2021-04-18T11:03:57Z</time>
      </trkpt>
      <trkpt lat="37.2816290" lon="-2.5091270">
        <ele>1572.8</ele>
        <time>2021-04-18T11:03:58Z</time>
      </trkpt>
      <trkpt lat="37.2816320" lon="-2.5091430">
        <ele>1573.0</ele>
        <time>2021-04-18T11:03:59Z</time>
      </trkpt>
      <trkpt lat="37.2816380" lon="-2.5091600">
        <ele>1573.0</ele>
        <time>2021-04-18T11:04:00Z</time>
      </trkpt>
      <trkpt lat="37.2816450" lon="-2.5091750">
        <ele>1573.2</ele>
        <time>2021-04-18T11:04:01Z</time>
      </trkpt>
      <trkpt lat="37.2816520" lon="-2.5091910">
        <ele>1573.4</ele>
        <time>2021-04-18T11:04:02Z</time>
      </trkpt>
      <trkpt lat="37.2816560" lon="-2.5092100">
        <ele>1573.6</ele>
        <time>2021-04-18T11:04:03Z</time>
      </trkpt>
      <trkpt lat="37.2816590" lon="-2.5092290">
        <ele>1573.8</ele>
        <time>2021-04-18T11:04:04Z</time>
      </trkpt>
      <trkpt lat="37.2816630" lon="-2.5092500">
        <ele>1574.2</ele>
        <time>2021-04-18T11:04:05Z</time>
      </trkpt>
      <trkpt lat="37.2816700" lon="-2.5092700">
        <ele>1574.4</ele>
        <time>2021-04-18T11:04:06Z</time>
      </trkpt>
      <trkpt lat="37.2816730" lon="-2.5092880">
        <ele>1574.6</ele>
        <time>2021-04-18T11:04:07Z</time>
      </trkpt>
      <trkpt lat="37.2816780" lon="-2.5093080">
        <ele>1574.8</ele>
        <time>2021-04-18T11:04:08Z</time>
      </trkpt>
      <trkpt lat="37.2816810" lon="-2.5093260">
        <ele>1574.8</ele>
        <time>2021-04-18T11:04:09Z</time>
      </trkpt>
      <trkpt lat="37.2816840" lon="-2.5093460">
        <ele>1575.0</ele>
        <time>2021-04-18T11:04:10Z</time>
      </trkpt>
      <trkpt lat="37.2816890" lon="-2.5093640">
        <ele>1575.2</ele>
        <time>2021-04-18T11:04:11Z</time>
      </trkpt>
      <trkpt lat="37.2816950" lon="-2.5093840">
        <ele>1575.4</ele>
        <time>2021-04-18T11:04:12Z</time>
      </trkpt>
      <trkpt lat="37.2817010" lon="-2.5094020">
        <ele>1575.6</ele>
        <time>2021-04-18T11:04:13Z</time>
      </trkpt>
      <trkpt lat="37.2817050" lon="-2.5094180">
        <ele>1575.6</ele>
        <time>2021-04-18T11:04:14Z</time>
      </trkpt>
      <trkpt lat="37.2817080" lon="-2.5094360">
        <ele>1575.8</ele>
        <time>2021-04-18T11:04:15Z</time>
      </trkpt>
      <trkpt lat="37.2817110" lon="-2.5094560">
        <ele>1575.8</ele>
        <time>2021-04-18T11:04:16Z</time>
      </trkpt>
      <trkpt lat="37.2817160" lon="-2.5094770">
        <ele>1576.0</ele>
        <time>2021-04-18T11:04:17Z</time>
      </trkpt>
      <trkpt lat="37.2817190" lon="-2.5094950">
        <ele>1576.0</ele>
        <time>2021-04-18T11:04:18Z</time>
      </trkpt>
      <trkpt lat="37.2817220" lon="-2.5095130">
        <ele>1576.0</ele>
        <time>2021-04-18T11:04:19Z</time>
      </trkpt>
      <trkpt lat="37.2817280" lon="-2.5095320">
        <ele>1576.2</ele>
        <time>2021-04-18T11:04:20Z</time>
      </trkpt>
      <trkpt lat="37.2817340" lon="-2.5095500">
        <ele>1576.4</ele>
        <time>2021-04-18T11:04:21Z</time>
      </trkpt>
      <trkpt lat="37.2817390" lon="-2.5095680">
        <ele>1576.6</ele>
        <time>2021-04-18T11:04:22Z</time>
      </trkpt>
      <trkpt lat="37.2817400" lon="-2.5095850">
        <ele>1576.8</ele>
        <time>2021-04-18T11:04:23Z</time>
      </trkpt>
      <trkpt lat="37.2817400" lon="-2.5096010">
        <ele>1577.0</ele>
        <time>2021-04-18T11:04:24Z</time>
      </trkpt>
      <trkpt lat="37.2817410" lon="-2.5096210">
        <ele>1577.2</ele>
        <time>2021-04-18T11:04:25Z</time>
      </trkpt>
      <trkpt lat="37.2817480" lon="-2.5096410">
        <ele>1577.2</ele>
        <time>2021-04-18T11:04:26Z</time>
      </trkpt>
      <trkpt lat="37.2817520" lon="-2.5096600">
        <ele>1577.4</ele>
        <time>2021-04-18T11:04:27Z</time>
      </trkpt>
      <trkpt lat="37.2817540" lon="-2.5096770">
        <ele>1577.6</ele>
        <time>2021-04-18T11:04:28Z</time>
      </trkpt>
      <trkpt lat="37.2817560" lon="-2.5096950">
        <ele>1577.6</ele>
        <time>2021-04-18T11:04:29Z</time>
      </trkpt>
      <trkpt lat="37.2817560" lon="-2.5097130">
        <ele>1577.8</ele>
        <time>2021-04-18T11:04:30Z</time>
      </trkpt>
      <trkpt lat="37.2817590" lon="-2.5097340">
        <ele>1578.0</ele>
        <time>2021-04-18T11:04:31Z</time>
      </trkpt>
      <trkpt lat="37.2817620" lon="-2.5097570">
        <ele>1578.2</ele>
        <time>2021-04-18T11:04:32Z</time>
      </trkpt>
      <trkpt lat="37.2817630" lon="-2.5097780">
        <ele>1578.2</ele>
        <time>2021-04-18T11:04:33Z</time>
      </trkpt>
      <trkpt lat="37.2817670" lon="-2.5097990">
        <ele>1578.4</ele>
        <time>2021-04-18T11:04:34Z</time>
      </trkpt>
      <trkpt lat="37.2817710" lon="-2.5098190">
        <ele>1578.6</ele>
        <time>2021-04-18T11:04:35Z</time>
      </trkpt>
      <trkpt lat="37.2817710" lon="-2.5098390">
        <ele>1578.6</ele>
        <time>2021-04-18T11:04:36Z</time>
      </trkpt>
      <trkpt lat="37.2817730" lon="-2.5098580">
        <ele>1578.8</ele>
        <time>2021-04-18T11:04:37Z</time>
      </trkpt>
      <trkpt lat="37.2817780" lon="-2.5098780">
        <ele>1579.0</ele>
        <time>2021-04-18T11:04:38Z</time>
      </trkpt>
      <trkpt lat="37.2817830" lon="-2.5098970">
        <ele>1579.0</ele>
        <time>2021-04-18T11:04:39Z</time>
      </trkpt>
      <trkpt lat="37.2817850" lon="-2.5099160">
        <ele>1579.2</ele>
        <time>2021-04-18T11:04:40Z</time>
      </trkpt>
      <trkpt lat="37.2817880" lon="-2.5099370">
        <ele>1579.2</ele>
        <time>2021-04-18T11:04:41Z</time>
      </trkpt>
      <trkpt lat="37.2817910" lon="-2.5099580">
        <ele>1579.4</ele>
        <time>2021-04-18T11:04:42Z</time>
      </trkpt>
      <trkpt lat="37.2817940" lon="-2.5099770">
        <ele>1579.6</ele>
        <time>2021-04-18T11:04:43Z</time>
      </trkpt>
      <trkpt lat="37.2817970" lon="-2.5099960">
        <ele>1579.8</ele>
        <time>2021-04-18T11:04:44Z</time>
      </trkpt>
      <trkpt lat="37.2817980" lon="-2.5100160">
        <ele>1580.0</ele>
        <time>2021-04-18T11:04:45Z</time>
      </trkpt>
      <trkpt lat="37.2817980" lon="-2.5100370">
        <ele>1580.4</ele>
        <time>2021-04-18T11:04:46Z</time>
      </trkpt>
      <trkpt lat="37.2818000" lon="-2.5100560">
        <ele>1580.4</ele>
        <time>2021-04-18T11:04:47Z</time>
      </trkpt>
      <trkpt lat="37.2818040" lon="-2.5100750">
        <ele>1580.8</ele>
        <time>2021-04-18T11:04:48Z</time>
      </trkpt>
      <trkpt lat="37.2818070" lon="-2.5100920">
        <ele>1580.8</ele>
        <time>2021-04-18T11:04:49Z</time>
      </trkpt>
      <trkpt lat="37.2818090" lon="-2.5101130">
        <ele>1581.0</ele>
        <time>2021-04-18T11:04:50Z</time>
      </trkpt>
      <trkpt lat="37.2818100" lon="-2.5101320">
        <ele>1581.2</ele>
        <time>2021-04-18T11:04:51Z</time>
      </trkpt>
      <trkpt lat="37.2818120" lon="-2.5101500">
        <ele>1581.2</ele>
        <time>2021-04-18T11:04:52Z</time>
      </trkpt>
      <trkpt lat="37.2818160" lon="-2.5101720">
        <ele>1581.6</ele>
        <time>2021-04-18T11:04:53Z</time>
      </trkpt>
      <trkpt lat="37.2818150" lon="-2.5101900">
        <ele>1582.0</ele>
        <time>2021-04-18T11:04:54Z</time>
      </trkpt>
      <trkpt lat="37.2818130" lon="-2.5102100">
        <ele>1582.2</ele>
        <time>2021-04-18T11:04:55Z</time>
      </trkpt>
      <trkpt lat="37.2818150" lon="-2.5102300">
        <ele>1582.4</ele>
        <time>2021-04-18T11:04:56Z</time>
      </trkpt>
      <trkpt lat="37.2818190" lon="-2.5102480">
        <ele>1582.4</ele>
        <time>2021-04-18T11:04:57Z</time>
      </trkpt>
      <trkpt lat="37.2818210" lon="-2.5102650">
        <ele>1582.8</ele>
        <time>2021-04-18T11:04:58Z</time>
      </trkpt>
      <trkpt lat="37.2818190" lon="-2.5102820">
        <ele>1582.8</ele>
        <time>2021-04-18T11:04:59Z</time>
      </trkpt>
      <trkpt lat="37.2818150" lon="-2.5103000">
        <ele>1583.2</ele>
        <time>2021-04-18T11:05:00Z</time>
      </trkpt>
      <trkpt lat="37.2818090" lon="-2.5103170">
        <ele>1583.4</ele>
        <time>2021-04-18T11:05:01Z</time>
      </trkpt>
      <trkpt lat="37.2818050" lon="-2.5103370">
        <ele>1583.4</ele>
        <time>2021-04-18T11:05:02Z</time>
      </trkpt>
      <trkpt lat="37.2818030" lon="-2.5103560">
        <ele>1583.6</ele>
        <time>2021-04-18T11:05:03Z</time>
      </trkpt>
      <trkpt lat="37.2818040" lon="-2.5103740">
        <ele>1583.6</ele>
        <time>2021-04-18T11:05:04Z</time>
      </trkpt>
      <trkpt lat="37.2818010" lon="-2.5103900">
        <ele>1583.8</ele>
        <time>2021-04-18T11:05:05Z</time>
      </trkpt>
      <trkpt lat="37.2817980" lon="-2.5104080">
        <ele>1583.8</ele>
        <time>2021-04-18T11:05:06Z</time>
      </trkpt>
      <trkpt lat="37.2817960" lon="-2.5104250">
        <ele>1584.0</ele>
        <time>2021-04-18T11:05:07Z</time>
      </trkpt>
      <trkpt lat="37.2817940" lon="-2.5104440">
        <ele>1584.0</ele>
        <time>2021-04-18T11:05:08Z</time>
      </trkpt>
      <trkpt lat="37.2817900" lon="-2.5104630">
        <ele>1584.2</ele>
        <time>2021-04-18T11:05:09Z</time>
      </trkpt>
      <trkpt lat="37.2817910" lon="-2.5104820">
        <ele>1584.4</ele>
        <time>2021-04-18T11:05:10Z</time>
      </trkpt>
      <trkpt lat="37.2817900" lon="-2.5105020">
        <ele>1584.6</ele>
        <time>2021-04-18T11:05:11Z</time>
      </trkpt>
      <trkpt lat="37.2817890" lon="-2.5105220">
        <ele>1584.6</ele>
        <time>2021-04-18T11:05:12Z</time>
      </trkpt>
      <trkpt lat="37.2817840" lon="-2.5105410">
        <ele>1584.8</ele>
        <time>2021-04-18T11:05:13Z</time>
      </trkpt>
      <trkpt lat="37.2817760" lon="-2.5105600">
        <ele>1585.0</ele>
        <time>2021-04-18T11:05:14Z</time>
      </trkpt>
      <trkpt lat="37.2817660" lon="-2.5105780">
        <ele>1585.2</ele>
        <time>2021-04-18T11:05:15Z</time>
      </trkpt>
      <trkpt lat="37.2817590" lon="-2.5105970">
        <ele>1585.2</ele>
        <time>2021-04-18T11:05:16Z</time>
      </trkpt>
      <trkpt lat="37.2817520" lon="-2.5106140">
        <ele>1585.4</ele>
        <time>2021-04-18T11:05:17Z</time>
      </trkpt>
      <trkpt lat="37.2817440" lon="-2.5106310">
        <ele>1585.4</ele>
        <time>2021-04-18T11:05:18Z</time>
      </trkpt>
      <trkpt lat="37.2817360" lon="-2.5106470">
        <ele>1585.6</ele>
        <time>2021-04-18T11:05:19Z</time>
      </trkpt>
      <trkpt lat="37.2817250" lon="-2.5106620">
        <ele>1585.8</ele>
        <time>2021-04-18T11:05:20Z</time>
      </trkpt>
      <trkpt lat="37.2817160" lon="-2.5106800">
        <ele>1585.8</ele>
        <time>2021-04-18T11:05:21Z</time>
      </trkpt>
      <trkpt lat="37.2817070" lon="-2.5107000">
        <ele>1586.2</ele>
        <time>2021-04-18T11:05:22Z</time>
      </trkpt>
      <trkpt lat="37.2817020" lon="-2.5107220">
        <ele>1586.2</ele>
        <time>2021-04-18T11:05:23Z</time>
      </trkpt>
      <trkpt lat="37.2816990" lon="-2.5107460">
        <ele>1586.4</ele>
        <time>2021-04-18T11:05:24Z</time>
      </trkpt>
      <trkpt lat="37.2816930" lon="-2.5107690">
        <ele>1586.6</ele>
        <time>2021-04-18T11:05:25Z</time>
      </trkpt>
      <trkpt lat="37.2816840" lon="-2.5107900">
        <ele>1586.6</ele>
        <time>2021-04-18T11:05:26Z</time>
      </trkpt>
      <trkpt lat="37.2816750" lon="-2.5108110">
        <ele>1586.8</ele>
        <time>2021-04-18T11:05:27Z</time>
      </trkpt>
      <trkpt lat="37.2816660" lon="-2.5108310">
        <ele>1586.8</ele>
        <time>2021-04-18T11:05:28Z</time>
      </trkpt>
      <trkpt lat="37.2816550" lon="-2.5108480">
        <ele>1587.2</ele>
        <time>2021-04-18T11:05:29Z</time>
      </trkpt>
      <trkpt lat="37.2816430" lon="-2.5108640">
        <ele>1587.2</ele>
        <time>2021-04-18T11:05:30Z</time>
      </trkpt>
      <trkpt lat="37.2816300" lon="-2.5108780">
        <ele>1587.4</ele>
        <time>2021-04-18T11:05:31Z</time>
      </trkpt>
      <trkpt lat="37.2816200" lon="-2.5108950">
        <ele>1587.6</ele>
        <time>2021-04-18T11:05:32Z</time>
      </trkpt>
      <trkpt lat="37.2816090" lon="-2.5109130">
        <ele>1587.6</ele>
        <time>2021-04-18T11:05:33Z</time>
      </trkpt>
      <trkpt lat="37.2815950" lon="-2.5109280">
        <ele>1588.0</ele>
        <time>2021-04-18T11:05:34Z</time>
      </trkpt>
      <trkpt lat="37.2815790" lon="-2.5109390">
        <ele>1588.0</ele>
        <time>2021-04-18T11:05:35Z</time>
      </trkpt>
      <trkpt lat="37.2815620" lon="-2.5109520">
        <ele>1588.2</ele>
        <time>2021-04-18T11:05:36Z</time>
      </trkpt>
      <trkpt lat="37.2815430" lon="-2.5109630">
        <ele>1588.4</ele>
        <time>2021-04-18T11:05:37Z</time>
      </trkpt>
      <trkpt lat="37.2815260" lon="-2.5109760">
        <ele>1588.4</ele>
        <time>2021-04-18T11:05:38Z</time>
      </trkpt>
      <trkpt lat="37.2815090" lon="-2.5109940">
        <ele>1588.6</ele>
        <time>2021-04-18T11:05:39Z</time>
      </trkpt>
      <trkpt lat="37.2814910" lon="-2.5110120">
        <ele>1588.6</ele>
        <time>2021-04-18T11:05:40Z</time>
      </trkpt>
      <trkpt lat="37.2814700" lon="-2.5110260">
        <ele>1588.8</ele>
        <time>2021-04-18T11:05:41Z</time>
      </trkpt>
      <trkpt lat="37.2814490" lon="-2.5110400">
        <ele>1588.8</ele>
        <time>2021-04-18T11:05:42Z</time>
      </trkpt>
      <trkpt lat="37.2814300" lon="-2.5110540">
        <ele>1589.2</ele>
        <time>2021-04-18T11:05:43Z</time>
      </trkpt>
      <trkpt lat="37.2814110" lon="-2.5110700">
        <ele>1589.6</ele>
        <time>2021-04-18T11:05:44Z</time>
      </trkpt>
      <trkpt lat="37.2813940" lon="-2.5110870">
        <ele>1589.6</ele>
        <time>2021-04-18T11:05:45Z</time>
      </trkpt>
      <trkpt lat="37.2813770" lon="-2.5111060">
        <ele>1590.0</ele>
        <time>2021-04-18T11:05:46Z</time>
      </trkpt>
      <trkpt lat="37.2813620" lon="-2.5111250">
        <ele>1590.0</ele>
        <time>2021-04-18T11:05:47Z</time>
      </trkpt>
      <trkpt lat="37.2813480" lon="-2.5111410">
        <ele>1590.2</ele>
        <time>2021-04-18T11:05:48Z</time>
      </trkpt>
      <trkpt lat="37.2813340" lon="-2.5111590">
        <ele>1590.4</ele>
        <time>2021-04-18T11:05:49Z</time>
      </trkpt>
      <trkpt lat="37.2813230" lon="-2.5111810">
        <ele>1590.4</ele>
        <time>2021-04-18T11:05:50Z</time>
      </trkpt>
      <trkpt lat="37.2813130" lon="-2.5112070">
        <ele>1590.6</ele>
        <time>2021-04-18T11:05:51Z</time>
      </trkpt>
      <trkpt lat="37.2813050" lon="-2.5112330">
        <ele>1590.6</ele>
        <time>2021-04-18T11:05:52Z</time>
      </trkpt>
      <trkpt lat="37.2812980" lon="-2.5112600">
        <ele>1590.8</ele>
        <time>2021-04-18T11:05:53Z</time>
      </trkpt>
      <trkpt lat="37.2812930" lon="-2.5112880">
        <ele>1591.0</ele>
        <time>2021-04-18T11:05:54Z</time>
      </trkpt>
      <trkpt lat="37.2812870" lon="-2.5113160">
        <ele>1591.2</ele>
        <time>2021-04-18T11:05:55Z</time>
      </trkpt>
      <trkpt lat="37.2812800" lon="-2.5113440">
        <ele>1591.4</ele>
        <time>2021-04-18T11:05:56Z</time>
      </trkpt>
      <trkpt lat="37.2812690" lon="-2.5113710">
        <ele>1591.6</ele>
        <time>2021-04-18T11:05:57Z</time>
      </trkpt>
      <trkpt lat="37.2812610" lon="-2.5114000">
        <ele>1591.8</ele>
        <time>2021-04-18T11:05:58Z</time>
      </trkpt>
      <trkpt lat="37.2812550" lon="-2.5114300">
        <ele>1591.8</ele>
        <time>2021-04-18T11:05:59Z</time>
      </trkpt>
      <trkpt lat="37.2812490" lon="-2.5114600">
        <ele>1591.8</ele>
        <time>2021-04-18T11:06:00Z</time>
      </trkpt>
      <trkpt lat="37.2812400" lon="-2.5114910">
        <ele>1592.0</ele>
        <time>2021-04-18T11:06:01Z</time>
      </trkpt>
      <trkpt lat="37.2812300" lon="-2.5115240">
        <ele>1592.2</ele>
        <time>2021-04-18T11:06:02Z</time>
      </trkpt>
      <trkpt lat="37.2812180" lon="-2.5115540">
        <ele>1592.4</ele>
        <time>2021-04-18T11:06:03Z</time>
      </trkpt>
      <trkpt lat="37.2812070" lon="-2.5115840">
        <ele>1592.4</ele>
        <time>2021-04-18T11:06:04Z</time>
      </trkpt>
      <trkpt lat="37.2811950" lon="-2.5116130">
        <ele>1592.4</ele>
        <time>2021-04-18T11:06:05Z</time>
      </trkpt>
      <trkpt lat="37.2811860" lon="-2.5116420">
        <ele>1592.6</ele>
        <time>2021-04-18T11:06:06Z</time>
      </trkpt>
      <trkpt lat="37.2811790" lon="-2.5116740">
        <ele>1592.8</ele>
        <time>2021-04-18T11:06:07Z</time>
      </trkpt>
      <trkpt lat="37.2811710" lon="-2.5117030">
        <ele>1592.8</ele>
        <time>2021-04-18T11:06:08Z</time>
      </trkpt>
      <trkpt lat="37.2811640" lon="-2.5117300">
        <ele>1592.8</ele>
        <time>2021-04-18T11:06:09Z</time>
      </trkpt>
      <trkpt lat="37.2811560" lon="-2.5117590">
        <ele>1593.0</ele>
        <time>2021-04-18T11:06:10Z</time>
      </trkpt>
      <trkpt lat="37.2811500" lon="-2.5117890">
        <ele>1593.0</ele>
        <time>2021-04-18T11:06:11Z</time>
      </trkpt>
      <trkpt lat="37.2811440" lon="-2.5118180">
        <ele>1593.0</ele>
        <time>2021-04-18T11:06:12Z</time>
      </trkpt>
      <trkpt lat="37.2811390" lon="-2.5118470">
        <ele>1593.0</ele>
        <time>2021-04-18T11:06:13Z</time>
      </trkpt>
      <trkpt lat="37.2811330" lon="-2.5118740">
        <ele>1593.2</ele>
        <time>2021-04-18T11:06:14Z</time>
      </trkpt>
      <trkpt lat="37.2811250" lon="-2.5119010">
        <ele>1593.2</ele>
        <time>2021-04-18T11:06:15Z</time>
      </trkpt>
      <trkpt lat="37.2811160" lon="-2.5119260">
        <ele>1593.4</ele>
        <time>2021-04-18T11:06:16Z</time>
      </trkpt>
      <trkpt lat="37.2811080" lon="-2.5119540">
        <ele>1593.4</ele>
        <time>2021-04-18T11:06:17Z</time>
      </trkpt>
      <trkpt lat="37.2810990" lon="-2.5119810">
        <ele>1593.4</ele>
        <time>2021-04-18T11:06:18Z</time>
      </trkpt>
      <trkpt lat="37.2810900" lon="-2.5120050">
        <ele>1593.4</ele>
        <time>2021-04-18T11:06:19Z</time>
      </trkpt>
      <trkpt lat="37.2810820" lon="-2.5120330">
        <ele>1593.6</ele>
        <time>2021-04-18T11:06:20Z</time>
      </trkpt>
      <trkpt lat="37.2810750" lon="-2.5120650">
        <ele>1593.6</ele>
        <time>2021-04-18T11:06:21Z</time>
      </trkpt>
      <trkpt lat="37.2810660" lon="-2.5120970">
        <ele>1593.8</ele>
        <time>2021-04-18T11:06:22Z</time>
      </trkpt>
      <trkpt lat="37.2810360" lon="-2.5122270">
        <ele>1594.0</ele>
        <time>2021-04-18T11:06:26Z</time>
      </trkpt>
      <trkpt lat="37.2810280" lon="-2.5122610">
        <ele>1594.2</ele>
        <time>2021-04-18T11:06:27Z</time>
      </trkpt>
      <trkpt lat="37.2809730" lon="-2.5123900">
        <ele>1594.2</ele>
        <time>2021-04-18T11:06:31Z</time>
      </trkpt>
      <trkpt lat="37.2808590" lon="-2.5126560">
        <ele>1594.6</ele>
        <time>2021-04-18T11:06:39Z</time>
      </trkpt>
      <trkpt lat="37.2807610" lon="-2.5127660">
        <ele>1594.8</ele>
        <time>2021-04-18T11:06:43Z</time>
      </trkpt>
      <trkpt lat="37.2807320" lon="-2.5127810">
        <ele>1594.8</ele>
        <time>2021-04-18T11:06:44Z</time>
      </trkpt>
      <trkpt lat="37.2807080" lon="-2.5127920">
        <ele>1595.0</ele>
        <time>2021-04-18T11:06:45Z</time>
      </trkpt>
      <trkpt lat="37.2806860" lon="-2.5127980">
        <ele>1595.0</ele>
        <time>2021-04-18T11:06:46Z</time>
      </trkpt>
      <trkpt lat="37.2806650" lon="-2.5128030">
        <ele>1594.8</ele>
        <time>2021-04-18T11:06:47Z</time>
      </trkpt>
      <trkpt lat="37.2806490" lon="-2.5128100">
        <ele>1595.0</ele>
        <time>2021-04-18T11:06:48Z</time>
      </trkpt>
      <trkpt lat="37.2806340" lon="-2.5128170">
        <ele>1595.0</ele>
        <time>2021-04-18T11:06:49Z</time>
      </trkpt>
      <trkpt lat="37.2806150" lon="-2.5128190">
        <ele>1595.2</ele>
        <time>2021-04-18T11:06:50Z</time>
      </trkpt>
      <trkpt lat="37.2805940" lon="-2.5128200">
        <ele>1595.2</ele>
        <time>2021-04-18T11:06:51Z</time>
      </trkpt>
      <trkpt lat="37.2805750" lon="-2.5128240">
        <ele>1596.0</ele>
        <time>2021-04-18T11:06:52Z</time>
      </trkpt>
      <trkpt lat="37.2805640" lon="-2.5128300">
        <ele>1596.4</ele>
        <time>2021-04-18T11:06:53Z</time>
      </trkpt>
      <trkpt lat="37.2805500" lon="-2.5128360">
        <ele>1596.6</ele>
        <time>2021-04-18T11:06:54Z</time>
      </trkpt>
      <trkpt lat="37.2805350" lon="-2.5128400">
        <ele>1596.8</ele>
        <time>2021-04-18T11:06:55Z</time>
      </trkpt>
      <trkpt lat="37.2805230" lon="-2.5128450">
        <ele>1597.0</ele>
        <time>2021-04-18T11:06:56Z</time>
      </trkpt>
      <trkpt lat="37.2805080" lon="-2.5128530">
        <ele>1597.2</ele>
        <time>2021-04-18T11:06:57Z</time>
      </trkpt>
      <trkpt lat="37.2804950" lon="-2.5128580">
        <ele>1597.4</ele>
        <time>2021-04-18T11:06:58Z</time>
      </trkpt>
      <trkpt lat="37.2804780" lon="-2.5128620">
        <ele>1597.6</ele>
        <time>2021-04-18T11:06:59Z</time>
      </trkpt>
      <trkpt lat="37.2804630" lon="-2.5128660">
        <ele>1597.8</ele>
        <time>2021-04-18T11:07:00Z</time>
      </trkpt>
      <trkpt lat="37.2804530" lon="-2.5128750">
        <ele>1597.8</ele>
        <time>2021-04-18T11:07:01Z</time>
      </trkpt>
      <trkpt lat="37.2804400" lon="-2.5128850">
        <ele>1598.2</ele>
        <time>2021-04-18T11:07:02Z</time>
      </trkpt>
      <trkpt lat="37.2804260" lon="-2.5128910">
        <ele>1598.4</ele>
        <time>2021-04-18T11:07:03Z</time>
      </trkpt>
      <trkpt lat="37.2804110" lon="-2.5128960">
        <ele>1598.6</ele>
        <time>2021-04-18T11:07:04Z</time>
      </trkpt>
      <trkpt lat="37.2803950" lon="-2.5128990">
        <ele>1599.0</ele>
        <time>2021-04-18T11:07:05Z</time>
      </trkpt>
      <trkpt lat="37.2803790" lon="-2.5129020">
        <ele>1599.2</ele>
        <time>2021-04-18T11:07:06Z</time>
      </trkpt>
      <trkpt lat="37.2803650" lon="-2.5129060">
        <ele>1599.4</ele>
        <time>2021-04-18T11:07:07Z</time>
      </trkpt>
      <trkpt lat="37.2803500" lon="-2.5129100">
        <ele>1599.6</ele>
        <time>2021-04-18T11:07:08Z</time>
      </trkpt>
      <trkpt lat="37.2803350" lon="-2.5129190">
        <ele>1599.8</ele>
        <time>2021-04-18T11:07:09Z</time>
      </trkpt>
      <trkpt lat="37.2803250" lon="-2.5129230">
        <ele>1599.8</ele>
        <time>2021-04-18T11:07:10Z</time>
      </trkpt>
      <trkpt lat="37.2803150" lon="-2.5129300">
        <ele>1600.4</ele>
        <time>2021-04-18T11:07:11Z</time>
      </trkpt>
      <trkpt lat="37.2803050" lon="-2.5129350">
        <ele>1600.8</ele>
        <time>2021-04-18T11:07:12Z</time>
      </trkpt>
      <trkpt lat="37.2802960" lon="-2.5129390">
        <ele>1601.0</ele>
        <time>2021-04-18T11:07:13Z</time>
      </trkpt>
      <trkpt lat="37.2802840" lon="-2.5129400">
        <ele>1601.2</ele>
        <time>2021-04-18T11:07:14Z</time>
      </trkpt>
      <trkpt lat="37.2802710" lon="-2.5129420">
        <ele>1601.4</ele>
        <time>2021-04-18T11:07:15Z</time>
      </trkpt>
      <trkpt lat="37.2802590" lon="-2.5129480">
        <ele>1601.6</ele>
        <time>2021-04-18T11:07:16Z</time>
      </trkpt>
      <trkpt lat="37.2802430" lon="-2.5129480">
        <ele>1601.8</ele>
        <time>2021-04-18T11:07:17Z</time>
      </trkpt>
      <trkpt lat="37.2802320" lon="-2.5129470">
        <ele>1601.8</ele>
        <time>2021-04-18T11:07:18Z</time>
      </trkpt>
      <trkpt lat="37.2802220" lon="-2.5129470">
        <ele>1602.0</ele>
        <time>2021-04-18T11:07:19Z</time>
      </trkpt>
      <trkpt lat="37.2802090" lon="-2.5129520">
        <ele>1602.0</ele>
        <time>2021-04-18T11:07:20Z</time>
      </trkpt>
      <trkpt lat="37.2801960" lon="-2.5129640">
        <ele>1602.2</ele>
        <time>2021-04-18T11:07:21Z</time>
      </trkpt>
      <trkpt lat="37.2801870" lon="-2.5129690">
        <ele>1602.2</ele>
        <time>2021-04-18T11:07:22Z</time>
      </trkpt>
      <trkpt lat="37.2801740" lon="-2.5129770">
        <ele>1602.4</ele>
        <time>2021-04-18T11:07:23Z</time>
      </trkpt>
      <trkpt lat="37.2801590" lon="-2.5129840">
        <ele>1602.4</ele>
        <time>2021-04-18T11:07:24Z</time>
      </trkpt>
      <trkpt lat="37.2801440" lon="-2.5129910">
        <ele>1602.6</ele>
        <time>2021-04-18T11:07:25Z</time>
      </trkpt>
      <trkpt lat="37.2801270" lon="-2.5130000">
        <ele>1602.6</ele>
        <time>2021-04-18T11:07:26Z</time>
      </trkpt>
      <trkpt lat="37.2801080" lon="-2.5130120">
        <ele>1602.8</ele>
        <time>2021-04-18T11:07:27Z</time>
      </trkpt>
      <trkpt lat="37.2800890" lon="-2.5130260">
        <ele>1602.8</ele>
        <time>2021-04-18T11:07:28Z</time>
      </trkpt>
      <trkpt lat="37.2800750" lon="-2.5130380">
        <ele>1603.0</ele>
        <time>2021-04-18T11:07:29Z</time>
      </trkpt>
      <trkpt lat="37.2800620" lon="-2.5130430">
        <ele>1603.2</ele>
        <time>2021-04-18T11:07:30Z</time>
      </trkpt>
      <trkpt lat="37.2800530" lon="-2.5130500">
        <ele>1603.2</ele>
        <time>2021-04-18T11:07:31Z</time>
      </trkpt>
      <trkpt lat="37.2800400" lon="-2.5130600">
        <ele>1603.4</ele>
        <time>2021-04-18T11:07:32Z</time>
      </trkpt>
      <trkpt lat="37.2800210" lon="-2.5130680">
        <ele>1603.4</ele>
        <time>2021-04-18T11:07:33Z</time>
      </trkpt>
      <trkpt lat="37.2799950" lon="-2.5130750">
        <ele>1603.6</ele>
        <time>2021-04-18T11:07:34Z</time>
      </trkpt>
      <trkpt lat="37.2799720" lon="-2.5130760">
        <ele>1603.8</ele>
        <time>2021-04-18T11:07:35Z</time>
      </trkpt>
      <trkpt lat="37.2799530" lon="-2.5130780">
        <ele>1604.0</ele>
        <time>2021-04-18T11:07:36Z</time>
      </trkpt>
      <trkpt lat="37.2799290" lon="-2.5130910">
        <ele>1604.2</ele>
        <time>2021-04-18T11:07:37Z</time>
      </trkpt>
      <trkpt lat="37.2799030" lon="-2.5130950">
        <ele>1604.2</ele>
        <time>2021-04-18T11:07:38Z</time>
      </trkpt>
      <trkpt lat="37.2798820" lon="-2.5131010">
        <ele>1604.4</ele>
        <time>2021-04-18T11:07:39Z</time>
      </trkpt>
      <trkpt lat="37.2798750" lon="-2.5131090">
        <ele>1604.4</ele>
        <time>2021-04-18T11:07:40Z</time>
      </trkpt>
      <trkpt lat="37.2798660" lon="-2.5131140">
        <ele>1604.6</ele>
        <time>2021-04-18T11:07:41Z</time>
      </trkpt>
      <trkpt lat="37.2798530" lon="-2.5131190">
        <ele>1604.6</ele>
        <time>2021-04-18T11:07:42Z</time>
      </trkpt>
      <trkpt lat="37.2798380" lon="-2.5131240">
        <ele>1604.6</ele>
        <time>2021-04-18T11:07:43Z</time>
      </trkpt>
      <trkpt lat="37.2798230" lon="-2.5131300">
        <ele>1604.6</ele>
        <time>2021-04-18T11:07:44Z</time>
      </trkpt>
      <trkpt lat="37.2798070" lon="-2.5131410">
        <ele>1604.6</ele>
        <time>2021-04-18T11:07:45Z</time>
      </trkpt>
      <trkpt lat="37.2797920" lon="-2.5131540">
        <ele>1604.6</ele>
        <time>2021-04-18T11:07:46Z</time>
      </trkpt>
      <trkpt lat="37.2797750" lon="-2.5131650">
        <ele>1604.6</ele>
        <time>2021-04-18T11:07:47Z</time>
      </trkpt>
      <trkpt lat="37.2797570" lon="-2.5131810">
        <ele>1604.8</ele>
        <time>2021-04-18T11:07:48Z</time>
      </trkpt>
      <trkpt lat="37.2797390" lon="-2.5132000">
        <ele>1604.8</ele>
        <time>2021-04-18T11:07:49Z</time>
      </trkpt>
      <trkpt lat="37.2797270" lon="-2.5132230">
        <ele>1605.0</ele>
        <time>2021-04-18T11:07:50Z</time>
      </trkpt>
      <trkpt lat="37.2797180" lon="-2.5132530">
        <ele>1605.0</ele>
        <time>2021-04-18T11:07:51Z</time>
      </trkpt>
      <trkpt lat="37.2797130" lon="-2.5132850">
        <ele>1605.2</ele>
        <time>2021-04-18T11:07:52Z</time>
      </trkpt>
      <trkpt lat="37.2797190" lon="-2.5133180">
        <ele>1605.2</ele>
        <time>2021-04-18T11:07:53Z</time>
      </trkpt>
      <trkpt lat="37.2797310" lon="-2.5133500">
        <ele>1605.4</ele>
        <time>2021-04-18T11:07:54Z</time>
      </trkpt>
      <trkpt lat="37.2797410" lon="-2.5133830">
        <ele>1605.4</ele>
        <time>2021-04-18T11:07:55Z</time>
      </trkpt>
      <trkpt lat="37.2797510" lon="-2.5134140">
        <ele>1605.4</ele>
        <time>2021-04-18T11:07:56Z</time>
      </trkpt>
      <trkpt lat="37.2797620" lon="-2.5134440">
        <ele>1605.6</ele>
        <time>2021-04-18T11:07:57Z</time>
      </trkpt>
      <trkpt lat="37.2797830" lon="-2.5135370">
        <ele>1606.0</ele>
        <time>2021-04-18T11:08:00Z</time>
      </trkpt>
      <trkpt lat="37.2798070" lon="-2.5136600">
        <ele>1606.4</ele>
        <time>2021-04-18T11:08:04Z</time>
      </trkpt>
      <trkpt lat="37.2798100" lon="-2.5136940">
        <ele>1606.4</ele>
        <time>2021-04-18T11:08:05Z</time>
      </trkpt>
      <trkpt lat="37.2798120" lon="-2.5137260">
        <ele>1606.4</ele>
        <time>2021-04-18T11:08:06Z</time>
      </trkpt>
      <trkpt lat="37.2798100" lon="-2.5137560">
        <ele>1606.6</ele>
        <time>2021-04-18T11:08:07Z</time>
      </trkpt>
      <trkpt lat="37.2798190" lon="-2.5137870">
        <ele>1606.6</ele>
        <time>2021-04-18T11:08:08Z</time>
      </trkpt>
      <trkpt lat="37.2798070" lon="-2.5139280">
        <ele>1606.6</ele>
        <time>2021-04-18T11:08:12Z</time>
      </trkpt>
      <trkpt lat="37.2798100" lon="-2.5139650">
        <ele>1606.8</ele>
        <time>2021-04-18T11:08:13Z</time>
      </trkpt>
      <trkpt lat="37.2798190" lon="-2.5140060">
        <ele>1606.8</ele>
        <time>2021-04-18T11:08:14Z</time>
      </trkpt>
      <trkpt lat="37.2798280" lon="-2.5140470">
        <ele>1606.8</ele>
        <time>2021-04-18T11:08:15Z</time>
      </trkpt>
      <trkpt lat="37.2798150" lon="-2.5141440">
        <ele>1607.2</ele>
        <time>2021-04-18T11:08:18Z</time>
      </trkpt>
      <trkpt lat="37.2798010" lon="-2.5142950">
        <ele>1607.4</ele>
        <time>2021-04-18T11:08:22Z</time>
      </trkpt>
      <trkpt lat="37.2797960" lon="-2.5143550">
        <ele>1607.6</ele>
        <time>2021-04-18T11:08:24Z</time>
      </trkpt>
      <trkpt lat="37.2797830" lon="-2.5144250">
        <ele>1607.6</ele>
        <time>2021-04-18T11:08:26Z</time>
      </trkpt>
      <trkpt lat="37.2797770" lon="-2.5144520">
        <ele>1607.8</ele>
        <time>2021-04-18T11:08:27Z</time>
      </trkpt>
      <trkpt lat="37.2797460" lon="-2.5145460">
        <ele>1608.0</ele>
        <time>2021-04-18T11:08:30Z</time>
      </trkpt>
      <trkpt lat="37.2797360" lon="-2.5145780">
        <ele>1608.2</ele>
        <time>2021-04-18T11:08:31Z</time>
      </trkpt>
      <trkpt lat="37.2797050" lon="-2.5146240">
        <ele>1608.4</ele>
        <time>2021-04-18T11:08:33Z</time>
      </trkpt>
      <trkpt lat="37.2796870" lon="-2.5146460">
        <ele>1608.4</ele>
        <time>2021-04-18T11:08:34Z</time>
      </trkpt>
      <trkpt lat="37.2795280" lon="-2.5148350">
        <ele>1609.2</ele>
        <time>2021-04-18T11:08:41Z</time>
      </trkpt>
      <trkpt lat="37.2795030" lon="-2.5148500">
        <ele>1609.2</ele>
        <time>2021-04-18T11:08:42Z</time>
      </trkpt>
      <trkpt lat="37.2794450" lon="-2.5148770">
        <ele>1609.4</ele>
        <time>2021-04-18T11:08:44Z</time>
      </trkpt>
      <trkpt lat="37.2793920" lon="-2.5149010">
        <ele>1609.6</ele>
        <time>2021-04-18T11:08:46Z</time>
      </trkpt>
      <trkpt lat="37.2793620" lon="-2.5149160">
        <ele>1609.6</ele>
        <time>2021-04-18T11:08:47Z</time>
      </trkpt>
      <trkpt lat="37.2792950" lon="-2.5149780">
        <ele>1609.6</ele>
        <time>2021-04-18T11:08:50Z</time>
      </trkpt>
      <trkpt lat="37.2792770" lon="-2.5150040">
        <ele>1609.6</ele>
        <time>2021-04-18T11:08:51Z</time>
      </trkpt>
      <trkpt lat="37.2792060" lon="-2.5150880">
        <ele>1609.8</ele>
        <time>2021-04-18T11:08:54Z</time>
      </trkpt>
      <trkpt lat="37.2791900" lon="-2.5151150">
        <ele>1609.8</ele>
        <time>2021-04-18T11:08:55Z</time>
      </trkpt>
      <trkpt lat="37.2791790" lon="-2.5151360">
        <ele>1609.8</ele>
        <time>2021-04-18T11:08:56Z</time>
      </trkpt>
      <trkpt lat="37.2791510" lon="-2.5151750">
        <ele>1610.0</ele>
        <time>2021-04-18T11:08:57Z</time>
      </trkpt>
      <trkpt lat="37.2791180" lon="-2.5152210">
        <ele>1610.0</ele>
        <time>2021-04-18T11:08:58Z</time>
      </trkpt>
      <trkpt lat="37.2790450" lon="-2.5153540">
        <ele>1610.2</ele>
        <time>2021-04-18T11:09:02Z</time>
      </trkpt>
      <trkpt lat="37.2789050" lon="-2.5155260">
        <ele>1610.4</ele>
        <time>2021-04-18T11:09:08Z</time>
      </trkpt>
      <trkpt lat="37.2788790" lon="-2.5155480">
        <ele>1610.4</ele>
        <time>2021-04-18T11:09:09Z</time>
      </trkpt>
      <trkpt lat="37.2787990" lon="-2.5155930">
        <ele>1610.8</ele>
        <time>2021-04-18T11:09:12Z</time>
      </trkpt>
      <trkpt lat="37.2787480" lon="-2.5156210">
        <ele>1610.6</ele>
        <time>2021-04-18T11:09:14Z</time>
      </trkpt>
      <trkpt lat="37.2787220" lon="-2.5156350">
        <ele>1610.6</ele>
        <time>2021-04-18T11:09:15Z</time>
      </trkpt>
      <trkpt lat="37.2786940" lon="-2.5156530">
        <ele>1610.6</ele>
        <time>2021-04-18T11:09:16Z</time>
      </trkpt>
      <trkpt lat="37.2786710" lon="-2.5156780">
        <ele>1610.6</ele>
        <time>2021-04-18T11:09:17Z</time>
      </trkpt>
      <trkpt lat="37.2786290" lon="-2.5157220">
        <ele>1610.8</ele>
        <time>2021-04-18T11:09:19Z</time>
      </trkpt>
      <trkpt lat="37.2786080" lon="-2.5157390">
        <ele>1611.0</ele>
        <time>2021-04-18T11:09:20Z</time>
      </trkpt>
      <trkpt lat="37.2785910" lon="-2.5157590">
        <ele>1611.0</ele>
        <time>2021-04-18T11:09:21Z</time>
      </trkpt>
      <trkpt lat="37.2785670" lon="-2.5157740">
        <ele>1611.0</ele>
        <time>2021-04-18T11:09:22Z</time>
      </trkpt>
      <trkpt lat="37.2785430" lon="-2.5157870">
        <ele>1611.0</ele>
        <time>2021-04-18T11:09:23Z</time>
      </trkpt>
      <trkpt lat="37.2785150" lon="-2.5158050">
        <ele>1611.0</ele>
        <time>2021-04-18T11:09:24Z</time>
      </trkpt>
      <trkpt lat="37.2784890" lon="-2.5158160">
        <ele>1611.0</ele>
        <time>2021-04-18T11:09:25Z</time>
      </trkpt>
      <trkpt lat="37.2784660" lon="-2.5158300">
        <ele>1611.2</ele>
        <time>2021-04-18T11:09:26Z</time>
      </trkpt>
      <trkpt lat="37.2784400" lon="-2.5158400">
        <ele>1611.6</ele>
        <time>2021-04-18T11:09:27Z</time>
      </trkpt>
      <trkpt lat="37.2783890" lon="-2.5158690">
        <ele>1611.8</ele>
        <time>2021-04-18T11:09:29Z</time>
      </trkpt>
      <trkpt lat="37.2783670" lon="-2.5158770">
        <ele>1611.8</ele>
        <time>2021-04-18T11:09:30Z</time>
      </trkpt>
      <trkpt lat="37.2783470" lon="-2.5158880">
        <ele>1611.8</ele>
        <time>2021-04-18T11:09:31Z</time>
      </trkpt>
      <trkpt lat="37.2783270" lon="-2.5159000">
        <ele>1612.0</ele>
        <time>2021-04-18T11:09:32Z</time>
      </trkpt>
      <trkpt lat="37.2783040" lon="-2.5159130">
        <ele>1612.0</ele>
        <time>2021-04-18T11:09:33Z</time>
      </trkpt>
      <trkpt lat="37.2782780" lon="-2.5159340">
        <ele>1612.2</ele>
        <time>2021-04-18T11:09:34Z</time>
      </trkpt>
      <trkpt lat="37.2781830" lon="-2.5160370">
        <ele>1612.4</ele>
        <time>2021-04-18T11:09:38Z</time>
      </trkpt>
      <trkpt lat="37.2781650" lon="-2.5160560">
        <ele>1612.6</ele>
        <time>2021-04-18T11:09:39Z</time>
      </trkpt>
      <trkpt lat="37.2780520" lon="-2.5161320">
        <ele>1613.6</ele>
        <time>2021-04-18T11:09:44Z</time>
      </trkpt>
      <trkpt lat="37.2779300" lon="-2.5161840">
        <ele>1614.2</ele>
        <time>2021-04-18T11:09:48Z</time>
      </trkpt>
      <trkpt lat="37.2779040" lon="-2.5161960">
        <ele>1614.4</ele>
        <time>2021-04-18T11:09:49Z</time>
      </trkpt>
      <trkpt lat="37.2778820" lon="-2.5162000">
        <ele>1614.6</ele>
        <time>2021-04-18T11:09:50Z</time>
      </trkpt>
      <trkpt lat="37.2778580" lon="-2.5161970">
        <ele>1614.6</ele>
        <time>2021-04-18T11:09:51Z</time>
      </trkpt>
      <trkpt lat="37.2778380" lon="-2.5162110">
        <ele>1614.8</ele>
        <time>2021-04-18T11:09:52Z</time>
      </trkpt>
      <trkpt lat="37.2778120" lon="-2.5162210">
        <ele>1614.8</ele>
        <time>2021-04-18T11:09:53Z</time>
      </trkpt>
      <trkpt lat="37.2777820" lon="-2.5162380">
        <ele>1615.0</ele>
        <time>2021-04-18T11:09:54Z</time>
      </trkpt>
      <trkpt lat="37.2777500" lon="-2.5162510">
        <ele>1615.0</ele>
        <time>2021-04-18T11:09:55Z</time>
      </trkpt>
      <trkpt lat="37.2777270" lon="-2.5162610">
        <ele>1615.0</ele>
        <time>2021-04-18T11:09:56Z</time>
      </trkpt>
      <trkpt lat="37.2777020" lon="-2.5162700">
        <ele>1615.2</ele>
        <time>2021-04-18T11:09:57Z</time>
      </trkpt>
      <trkpt lat="37.2776800" lon="-2.5162730">
        <ele>1615.2</ele>
        <time>2021-04-18T11:09:58Z</time>
      </trkpt>
      <trkpt lat="37.2776590" lon="-2.5162760">
        <ele>1615.2</ele>
        <time>2021-04-18T11:09:59Z</time>
      </trkpt>
      <trkpt lat="37.2776360" lon="-2.5162750">
        <ele>1615.2</ele>
        <time>2021-04-18T11:10:00Z</time>
      </trkpt>
      <trkpt lat="37.2776180" lon="-2.5162800">
        <ele>1615.4</ele>
        <time>2021-04-18T11:10:01Z</time>
      </trkpt>
      <trkpt lat="37.2776000" lon="-2.5162950">
        <ele>1615.4</ele>
        <time>2021-04-18T11:10:02Z</time>
      </trkpt>
      <trkpt lat="37.2775680" lon="-2.5163170">
        <ele>1615.6</ele>
        <time>2021-04-18T11:10:03Z</time>
      </trkpt>
      <trkpt lat="37.2775340" lon="-2.5163340">
        <ele>1615.6</ele>
        <time>2021-04-18T11:10:04Z</time>
      </trkpt>
      <trkpt lat="37.2775130" lon="-2.5163470">
        <ele>1615.8</ele>
        <time>2021-04-18T11:10:05Z</time>
      </trkpt>
      <trkpt lat="37.2774770" lon="-2.5163660">
        <ele>1616.0</ele>
        <time>2021-04-18T11:10:06Z</time>
      </trkpt>
      <trkpt lat="37.2774500" lon="-2.5163730">
        <ele>1616.2</ele>
        <time>2021-04-18T11:10:07Z</time>
      </trkpt>
      <trkpt lat="37.2774300" lon="-2.5163830">
        <ele>1616.2</ele>
        <time>2021-04-18T11:10:08Z</time>
      </trkpt>
      <trkpt lat="37.2774020" lon="-2.5163900">
        <ele>1616.2</ele>
        <time>2021-04-18T11:10:09Z</time>
      </trkpt>
      <trkpt lat="37.2773740" lon="-2.5163940">
        <ele>1616.4</ele>
        <time>2021-04-18T11:10:10Z</time>
      </trkpt>
      <trkpt lat="37.2773520" lon="-2.5163970">
        <ele>1616.4</ele>
        <time>2021-04-18T11:10:11Z</time>
      </trkpt>
      <trkpt lat="37.2773260" lon="-2.5164040">
        <ele>1616.6</ele>
        <time>2021-04-18T11:10:12Z</time>
      </trkpt>
      <trkpt lat="37.2773010" lon="-2.5164060">
        <ele>1616.8</ele>
        <time>2021-04-18T11:10:13Z</time>
      </trkpt>
      <trkpt lat="37.2772780" lon="-2.5164140">
        <ele>1616.8</ele>
        <time>2021-04-18T11:10:14Z</time>
      </trkpt>
      <trkpt lat="37.2772540" lon="-2.5164260">
        <ele>1616.8</ele>
        <time>2021-04-18T11:10:15Z</time>
      </trkpt>
      <trkpt lat="37.2772380" lon="-2.5164260">
        <ele>1617.0</ele>
        <time>2021-04-18T11:10:16Z</time>
      </trkpt>
      <trkpt lat="37.2772200" lon="-2.5164310">
        <ele>1617.0</ele>
        <time>2021-04-18T11:10:17Z</time>
      </trkpt>
      <trkpt lat="37.2771940" lon="-2.5164370">
        <ele>1617.2</ele>
        <time>2021-04-18T11:10:18Z</time>
      </trkpt>
      <trkpt lat="37.2771670" lon="-2.5164420">
        <ele>1617.2</ele>
        <time>2021-04-18T11:10:19Z</time>
      </trkpt>
      <trkpt lat="37.2771390" lon="-2.5164420">
        <ele>1617.4</ele>
        <time>2021-04-18T11:10:20Z</time>
      </trkpt>
      <trkpt lat="37.2771150" lon="-2.5164410">
        <ele>1617.4</ele>
        <time>2021-04-18T11:10:21Z</time>
      </trkpt>
      <trkpt lat="37.2770900" lon="-2.5164430">
        <ele>1617.6</ele>
        <time>2021-04-18T11:10:22Z</time>
      </trkpt>
      <trkpt lat="37.2770690" lon="-2.5164480">
        <ele>1617.6</ele>
        <time>2021-04-18T11:10:23Z</time>
      </trkpt>
      <trkpt lat="37.2770490" lon="-2.5164530">
        <ele>1617.6</ele>
        <time>2021-04-18T11:10:24Z</time>
      </trkpt>
      <trkpt lat="37.2770300" lon="-2.5164590">
        <ele>1617.6</ele>
        <time>2021-04-18T11:10:25Z</time>
      </trkpt>
      <trkpt lat="37.2770090" lon="-2.5164660">
        <ele>1617.6</ele>
        <time>2021-04-18T11:10:26Z</time>
      </trkpt>
      <trkpt lat="37.2769820" lon="-2.5164670">
        <ele>1617.8</ele>
        <time>2021-04-18T11:10:27Z</time>
      </trkpt>
      <trkpt lat="37.2769270" lon="-2.5164670">
        <ele>1617.8</ele>
        <time>2021-04-18T11:10:29Z</time>
      </trkpt>
      <trkpt lat="37.2768170" lon="-2.5164510">
        <ele>1618.4</ele>
        <time>2021-04-18T11:10:33Z</time>
      </trkpt>
      <trkpt lat="37.2767950" lon="-2.5164500">
        <ele>1618.4</ele>
        <time>2021-04-18T11:10:34Z</time>
      </trkpt>
      <trkpt lat="37.2767400" lon="-2.5164420">
        <ele>1618.4</ele>
        <time>2021-04-18T11:10:36Z</time>
      </trkpt>
      <trkpt lat="37.2766940" lon="-2.5164370">
        <ele>1618.4</ele>
        <time>2021-04-18T11:10:38Z</time>
      </trkpt>
      <trkpt lat="37.2766700" lon="-2.5164320">
        <ele>1618.6</ele>
        <time>2021-04-18T11:10:39Z</time>
      </trkpt>
      <trkpt lat="37.2766430" lon="-2.5164280">
        <ele>1618.6</ele>
        <time>2021-04-18T11:10:40Z</time>
      </trkpt>
      <trkpt lat="37.2765580" lon="-2.5164210">
        <ele>1618.6</ele>
        <time>2021-04-18T11:10:43Z</time>
      </trkpt>
      <trkpt lat="37.2764630" lon="-2.5164210">
        <ele>1618.8</ele>
        <time>2021-04-18T11:10:46Z</time>
      </trkpt>
      <trkpt lat="37.2763380" lon="-2.5164100">
        <ele>1618.8</ele>
        <time>2021-04-18T11:10:50Z</time>
      </trkpt>
      <trkpt lat="37.2763060" lon="-2.5164060">
        <ele>1618.8</ele>
        <time>2021-04-18T11:10:51Z</time>
      </trkpt>
      <trkpt lat="37.2761710" lon="-2.5163860">
        <ele>1619.0</ele>
        <time>2021-04-18T11:10:55Z</time>
      </trkpt>
      <trkpt lat="37.2760240" lon="-2.5163830">
        <ele>1619.2</ele>
        <time>2021-04-18T11:11:00Z</time>
      </trkpt>
      <trkpt lat="37.2759080" lon="-2.5163750">
        <ele>1619.2</ele>
        <time>2021-04-18T11:11:04Z</time>
      </trkpt>
      <trkpt lat="37.2757580" lon="-2.5163530">
        <ele>1619.6</ele>
        <time>2021-04-18T11:11:09Z</time>
      </trkpt>
      <trkpt lat="37.2757310" lon="-2.5163600">
        <ele>1619.6</ele>
        <time>2021-04-18T11:11:10Z</time>
      </trkpt>
      <trkpt lat="37.2757040" lon="-2.5163690">
        <ele>1619.8</ele>
        <time>2021-04-18T11:11:11Z</time>
      </trkpt>
      <trkpt lat="37.2756750" lon="-2.5163800">
        <ele>1620.0</ele>
        <time>2021-04-18T11:11:12Z</time>
      </trkpt>
      <trkpt lat="37.2755790" lon="-2.5163940">
        <ele>1620.2</ele>
        <time>2021-04-18T11:11:15Z</time>
      </trkpt>
      <trkpt lat="37.2755280" lon="-2.5164350">
        <ele>1620.4</ele>
        <time>2021-04-18T11:11:17Z</time>
      </trkpt>
      <trkpt lat="37.2755070" lon="-2.5164620">
        <ele>1620.4</ele>
        <time>2021-04-18T11:11:18Z</time>
      </trkpt>
      <trkpt lat="37.2754860" lon="-2.5164880">
        <ele>1620.6</ele>
        <time>2021-04-18T11:11:19Z</time>
      </trkpt>
      <trkpt lat="37.2754640" lon="-2.5165130">
        <ele>1620.6</ele>
        <time>2021-04-18T11:11:20Z</time>
      </trkpt>
      <trkpt lat="37.2753870" lon="-2.5166180">
        <ele>1620.6</ele>
        <time>2021-04-18T11:11:24Z</time>
      </trkpt>
      <trkpt lat="37.2753710" lon="-2.5166480">
        <ele>1620.6</ele>
        <time>2021-04-18T11:11:25Z</time>
      </trkpt>
      <trkpt lat="37.2752420" lon="-2.5168600">
        <ele>1620.6</ele>
        <time>2021-04-18T11:11:32Z</time>
      </trkpt>
      <trkpt lat="37.2751110" lon="-2.5170300">
        <ele>1620.6</ele>
        <time>2021-04-18T11:11:37Z</time>
      </trkpt>
      <trkpt lat="37.2750840" lon="-2.5170670">
        <ele>1620.6</ele>
        <time>2021-04-18T11:11:38Z</time>
      </trkpt>
      <trkpt lat="37.2749520" lon="-2.5172320">
        <ele>1620.4</ele>
        <time>2021-04-18T11:11:42Z</time>
      </trkpt>
      <trkpt lat="37.2749210" lon="-2.5172730">
        <ele>1620.4</ele>
        <time>2021-04-18T11:11:43Z</time>
      </trkpt>
      <trkpt lat="37.2748900" lon="-2.5173140">
        <ele>1620.2</ele>
        <time>2021-04-18T11:11:44Z</time>
      </trkpt>
      <trkpt lat="37.2748580" lon="-2.5173490">
        <ele>1620.2</ele>
        <time>2021-04-18T11:11:45Z</time>
      </trkpt>
      <trkpt lat="37.2748220" lon="-2.5173860">
        <ele>1620.2</ele>
        <time>2021-04-18T11:11:46Z</time>
      </trkpt>
      <trkpt lat="37.2747840" lon="-2.5174280">
        <ele>1620.2</ele>
        <time>2021-04-18T11:11:47Z</time>
      </trkpt>
      <trkpt lat="37.2746550" lon="-2.5176190">
        <ele>1620.2</ele>
        <time>2021-04-18T11:11:51Z</time>
      </trkpt>
      <trkpt lat="37.2746240" lon="-2.5176610">
        <ele>1620.2</ele>
        <time>2021-04-18T11:11:52Z</time>
      </trkpt>
      <trkpt lat="37.2745970" lon="-2.5177070">
        <ele>1620.2</ele>
        <time>2021-04-18T11:11:53Z</time>
      </trkpt>
      <trkpt lat="37.2745740" lon="-2.5177460">
        <ele>1620.2</ele>
        <time>2021-04-18T11:11:54Z</time>
      </trkpt>
      <trkpt lat="37.2745530" lon="-2.5177930">
        <ele>1620.2</ele>
        <time>2021-04-18T11:11:55Z</time>
      </trkpt>
      <trkpt lat="37.2745300" lon="-2.5178360">
        <ele>1620.2</ele>
        <time>2021-04-18T11:11:56Z</time>
      </trkpt>
      <trkpt lat="37.2745060" lon="-2.5178800">
        <ele>1620.4</ele>
        <time>2021-04-18T11:11:57Z</time>
      </trkpt>
      <trkpt lat="37.2744870" lon="-2.5179200">
        <ele>1620.4</ele>
        <time>2021-04-18T11:11:58Z</time>
      </trkpt>
      <trkpt lat="37.2744560" lon="-2.5180070">
        <ele>1620.6</ele>
        <time>2021-04-18T11:12:00Z</time>
      </trkpt>
      <trkpt lat="37.2744380" lon="-2.5180490">
        <ele>1620.8</ele>
        <time>2021-04-18T11:12:01Z</time>
      </trkpt>
      <trkpt lat="37.2744250" lon="-2.5180890">
        <ele>1621.0</ele>
        <time>2021-04-18T11:12:02Z</time>
      </trkpt>
      <trkpt lat="37.2744120" lon="-2.5181280">
        <ele>1621.2</ele>
        <time>2021-04-18T11:12:03Z</time>
      </trkpt>
      <trkpt lat="37.2743960" lon="-2.5181700">
        <ele>1621.6</ele>
        <time>2021-04-18T11:12:04Z</time>
      </trkpt>
      <trkpt lat="37.2743900" lon="-2.5182110">
        <ele>1621.8</ele>
        <time>2021-04-18T11:12:05Z</time>
      </trkpt>
      <trkpt lat="37.2743720" lon="-2.5182520">
        <ele>1621.8</ele>
        <time>2021-04-18T11:12:06Z</time>
      </trkpt>
      <trkpt lat="37.2743520" lon="-2.5182920">
        <ele>1622.0</ele>
        <time>2021-04-18T11:12:07Z</time>
      </trkpt>
      <trkpt lat="37.2743120" lon="-2.5183500">
        <ele>1622.4</ele>
        <time>2021-04-18T11:12:09Z</time>
      </trkpt>
      <trkpt lat="37.2742910" lon="-2.5183760">
        <ele>1622.6</ele>
        <time>2021-04-18T11:12:10Z</time>
      </trkpt>
      <trkpt lat="37.2742720" lon="-2.5184000">
        <ele>1622.8</ele>
        <time>2021-04-18T11:12:11Z</time>
      </trkpt>
      <trkpt lat="37.2742420" lon="-2.5184190">
        <ele>1623.0</ele>
        <time>2021-04-18T11:12:12Z</time>
      </trkpt>
      <trkpt lat="37.2742240" lon="-2.5184350">
        <ele>1623.0</ele>
        <time>2021-04-18T11:12:13Z</time>
      </trkpt>
      <trkpt lat="37.2742070" lon="-2.5184540">
        <ele>1623.2</ele>
        <time>2021-04-18T11:12:14Z</time>
      </trkpt>
      <trkpt lat="37.2741920" lon="-2.5184710">
        <ele>1623.4</ele>
        <time>2021-04-18T11:12:15Z</time>
      </trkpt>
      <trkpt lat="37.2741750" lon="-2.5184880">
        <ele>1623.4</ele>
        <time>2021-04-18T11:12:16Z</time>
      </trkpt>
      <trkpt lat="37.2741560" lon="-2.5185040">
        <ele>1623.8</ele>
        <time>2021-04-18T11:12:17Z</time>
      </trkpt>
      <trkpt lat="37.2741350" lon="-2.5185210">
        <ele>1623.8</ele>
        <time>2021-04-18T11:12:18Z</time>
      </trkpt>
      <trkpt lat="37.2741110" lon="-2.5185370">
        <ele>1624.0</ele>
        <time>2021-04-18T11:12:19Z</time>
      </trkpt>
      <trkpt lat="37.2740880" lon="-2.5185520">
        <ele>1624.0</ele>
        <time>2021-04-18T11:12:20Z</time>
      </trkpt>
      <trkpt lat="37.2740580" lon="-2.5185700">
        <ele>1624.2</ele>
        <time>2021-04-18T11:12:21Z</time>
      </trkpt>
      <trkpt lat="37.2740320" lon="-2.5185900">
        <ele>1624.2</ele>
        <time>2021-04-18T11:12:22Z</time>
      </trkpt>
      <trkpt lat="37.2740120" lon="-2.5186100">
        <ele>1624.4</ele>
        <time>2021-04-18T11:12:23Z</time>
      </trkpt>
      <trkpt lat="37.2739930" lon="-2.5186310">
        <ele>1624.4</ele>
        <time>2021-04-18T11:12:24Z</time>
      </trkpt>
      <trkpt lat="37.2739750" lon="-2.5186490">
        <ele>1624.6</ele>
        <time>2021-04-18T11:12:25Z</time>
      </trkpt>
      <trkpt lat="37.2739540" lon="-2.5186670">
        <ele>1624.8</ele>
        <time>2021-04-18T11:12:26Z</time>
      </trkpt>
      <trkpt lat="37.2739350" lon="-2.5186820">
        <ele>1624.8</ele>
        <time>2021-04-18T11:12:27Z</time>
      </trkpt>
      <trkpt lat="37.2739160" lon="-2.5186980">
        <ele>1625.0</ele>
        <time>2021-04-18T11:12:28Z</time>
      </trkpt>
      <trkpt lat="37.2738950" lon="-2.5187120">
        <ele>1625.2</ele>
        <time>2021-04-18T11:12:29Z</time>
      </trkpt>
      <trkpt lat="37.2738790" lon="-2.5187280">
        <ele>1625.2</ele>
        <time>2021-04-18T11:12:30Z</time>
      </trkpt>
      <trkpt lat="37.2738550" lon="-2.5187490">
        <ele>1625.6</ele>
        <time>2021-04-18T11:12:31Z</time>
      </trkpt>
      <trkpt lat="37.2738270" lon="-2.5187670">
        <ele>1625.6</ele>
        <time>2021-04-18T11:12:32Z</time>
      </trkpt>
      <trkpt lat="37.2738050" lon="-2.5187860">
        <ele>1626.0</ele>
        <time>2021-04-18T11:12:33Z</time>
      </trkpt>
      <trkpt lat="37.2737790" lon="-2.5188070">
        <ele>1626.2</ele>
        <time>2021-04-18T11:12:34Z</time>
      </trkpt>
      <trkpt lat="37.2737570" lon="-2.5188280">
        <ele>1626.4</ele>
        <time>2021-04-18T11:12:35Z</time>
      </trkpt>
      <trkpt lat="37.2737360" lon="-2.5188420">
        <ele>1626.6</ele>
        <time>2021-04-18T11:12:36Z</time>
      </trkpt>
      <trkpt lat="37.2737180" lon="-2.5188590">
        <ele>1626.6</ele>
        <time>2021-04-18T11:12:37Z</time>
      </trkpt>
      <trkpt lat="37.2737010" lon="-2.5188800">
        <ele>1626.8</ele>
        <time>2021-04-18T11:12:38Z</time>
      </trkpt>
      <trkpt lat="37.2736860" lon="-2.5189020">
        <ele>1626.8</ele>
        <time>2021-04-18T11:12:39Z</time>
      </trkpt>
      <trkpt lat="37.2736650" lon="-2.5189170">
        <ele>1627.2</ele>
        <time>2021-04-18T11:12:40Z</time>
      </trkpt>
      <trkpt lat="37.2736420" lon="-2.5189330">
        <ele>1627.4</ele>
        <time>2021-04-18T11:12:41Z</time>
      </trkpt>
      <trkpt lat="37.2736180" lon="-2.5189510">
        <ele>1627.6</ele>
        <time>2021-04-18T11:12:42Z</time>
      </trkpt>
      <trkpt lat="37.2735940" lon="-2.5189710">
        <ele>1627.8</ele>
        <time>2021-04-18T11:12:43Z</time>
      </trkpt>
      <trkpt lat="37.2735720" lon="-2.5189930">
        <ele>1627.8</ele>
        <time>2021-04-18T11:12:44Z</time>
      </trkpt>
      <trkpt lat="37.2735560" lon="-2.5190150">
        <ele>1628.0</ele>
        <time>2021-04-18T11:12:45Z</time>
      </trkpt>
      <trkpt lat="37.2735400" lon="-2.5190350">
        <ele>1628.0</ele>
        <time>2021-04-18T11:12:46Z</time>
      </trkpt>
      <trkpt lat="37.2735270" lon="-2.5190540">
        <ele>1628.2</ele>
        <time>2021-04-18T11:12:47Z</time>
      </trkpt>
      <trkpt lat="37.2735130" lon="-2.5190690">
        <ele>1628.4</ele>
        <time>2021-04-18T11:12:48Z</time>
      </trkpt>
      <trkpt lat="37.2735000" lon="-2.5190920">
        <ele>1628.4</ele>
        <time>2021-04-18T11:12:49Z</time>
      </trkpt>
      <trkpt lat="37.2734910" lon="-2.5191230">
        <ele>1628.6</ele>
        <time>2021-04-18T11:12:50Z</time>
      </trkpt>
      <trkpt lat="37.2734790" lon="-2.5191490">
        <ele>1628.6</ele>
        <time>2021-04-18T11:12:51Z</time>
      </trkpt>
      <trkpt lat="37.2734610" lon="-2.5191800">
        <ele>1628.8</ele>
        <time>2021-04-18T11:12:52Z</time>
      </trkpt>
      <trkpt lat="37.2734430" lon="-2.5192160">
        <ele>1628.8</ele>
        <time>2021-04-18T11:12:53Z</time>
      </trkpt>
      <trkpt lat="37.2734230" lon="-2.5192470">
        <ele>1629.0</ele>
        <time>2021-04-18T11:12:54Z</time>
      </trkpt>
      <trkpt lat="37.2734000" lon="-2.5192700">
        <ele>1628.8</ele>
        <time>2021-04-18T11:12:55Z</time>
      </trkpt>
      <trkpt lat="37.2733820" lon="-2.5193030">
        <ele>1628.8</ele>
        <time>2021-04-18T11:12:56Z</time>
      </trkpt>
      <trkpt lat="37.2733600" lon="-2.5193360">
        <ele>1628.8</ele>
        <time>2021-04-18T11:12:57Z</time>
      </trkpt>
      <trkpt lat="37.2733370" lon="-2.5193660">
        <ele>1628.8</ele>
        <time>2021-04-18T11:12:58Z</time>
      </trkpt>
      <trkpt lat="37.2733190" lon="-2.5194000">
        <ele>1629.0</ele>
        <time>2021-04-18T11:12:59Z</time>
      </trkpt>
      <trkpt lat="37.2732960" lon="-2.5194310">
        <ele>1628.8</ele>
        <time>2021-04-18T11:13:00Z</time>
      </trkpt>
      <trkpt lat="37.2732800" lon="-2.5194650">
        <ele>1628.8</ele>
        <time>2021-04-18T11:13:01Z</time>
      </trkpt>
      <trkpt lat="37.2732560" lon="-2.5194990">
        <ele>1628.8</ele>
        <time>2021-04-18T11:13:02Z</time>
      </trkpt>
      <trkpt lat="37.2732280" lon="-2.5195320">
        <ele>1628.8</ele>
        <time>2021-04-18T11:13:03Z</time>
      </trkpt>
      <trkpt lat="37.2731990" lon="-2.5195690">
        <ele>1628.8</ele>
        <time>2021-04-18T11:13:04Z</time>
      </trkpt>
      <trkpt lat="37.2731680" lon="-2.5196090">
        <ele>1628.8</ele>
        <time>2021-04-18T11:13:05Z</time>
      </trkpt>
      <trkpt lat="37.2731340" lon="-2.5196490">
        <ele>1628.8</ele>
        <time>2021-04-18T11:13:06Z</time>
      </trkpt>
      <trkpt lat="37.2729850" lon="-2.5198280">
        <ele>1628.8</ele>
        <time>2021-04-18T11:13:10Z</time>
      </trkpt>
      <trkpt lat="37.2729440" lon="-2.5198800">
        <ele>1628.6</ele>
        <time>2021-04-18T11:13:11Z</time>
      </trkpt>
      <trkpt lat="37.2728590" lon="-2.5199950">
        <ele>1628.2</ele>
        <time>2021-04-18T11:13:13Z</time>
      </trkpt>
      <trkpt lat="37.2728210" lon="-2.5201460">
        <ele>1627.8</ele>
        <time>2021-04-18T11:13:15Z</time>
      </trkpt>
      <trkpt lat="37.2728510" lon="-2.5202170">
        <ele>1627.6</ele>
        <time>2021-04-18T11:13:16Z</time>
      </trkpt>
      <trkpt lat="37.2729150" lon="-2.5202690">
        <ele>1627.6</ele>
        <time>2021-04-18T11:13:17Z</time>
      </trkpt>
      <trkpt lat="37.2729940" lon="-2.5202940">
        <ele>1627.0</ele>
        <time>2021-04-18T11:13:18Z</time>
      </trkpt>
      <trkpt lat="37.2730760" lon="-2.5203050">
        <ele>1626.4</ele>
        <time>2021-04-18T11:13:19Z</time>
      </trkpt>
      <trkpt lat="37.2731530" lon="-2.5202780">
        <ele>1626.0</ele>
        <time>2021-04-18T11:13:20Z</time>
      </trkpt>
      <trkpt lat="37.2732150" lon="-2.5202300">
        <ele>1625.4</ele>
        <time>2021-04-18T11:13:21Z</time>
      </trkpt>
      <trkpt lat="37.2732710" lon="-2.5201730">
        <ele>1625.2</ele>
        <time>2021-04-18T11:13:22Z</time>
      </trkpt>
      <trkpt lat="37.2733250" lon="-2.5201130">
        <ele>1624.8</ele>
        <time>2021-04-18T11:13:23Z</time>
      </trkpt>
      <trkpt lat="37.2733820" lon="-2.5200550">
        <ele>1624.6</ele>
        <time>2021-04-18T11:13:24Z</time>
      </trkpt>
      <trkpt lat="37.2734360" lon="-2.5200050">
        <ele>1624.2</ele>
        <time>2021-04-18T11:13:25Z</time>
      </trkpt>
      <trkpt lat="37.2735010" lon="-2.5199470">
        <ele>1624.0</ele>
        <time>2021-04-18T11:13:26Z</time>
      </trkpt>
      <trkpt lat="37.2735410" lon="-2.5199050">
        <ele>1623.8</ele>
        <time>2021-04-18T11:13:27Z</time>
      </trkpt>
      <trkpt lat="37.2735980" lon="-2.5198470">
        <ele>1623.4</ele>
        <time>2021-04-18T11:13:28Z</time>
      </trkpt>
      <trkpt lat="37.2736440" lon="-2.5198010">
        <ele>1623.4</ele>
        <time>2021-04-18T11:13:29Z</time>
      </trkpt>
      <trkpt lat="37.2736890" lon="-2.5197550">
        <ele>1623.4</ele>
        <time>2021-04-18T11:13:30Z</time>
      </trkpt>
      <trkpt lat="37.2737220" lon="-2.5197110">
        <ele>1623.0</ele>
        <time>2021-04-18T11:13:31Z</time>
      </trkpt>
      <trkpt lat="37.2737650" lon="-2.5196610">
        <ele>1623.0</ele>
        <time>2021-04-18T11:13:32Z</time>
      </trkpt>
      <trkpt lat="37.2739020" lon="-2.5195320">
        <ele>1622.8</ele>
        <time>2021-04-18T11:13:35Z</time>
      </trkpt>
      <trkpt lat="37.2739480" lon="-2.5194970">
        <ele>1622.8</ele>
        <time>2021-04-18T11:13:36Z</time>
      </trkpt>
      <trkpt lat="37.2739970" lon="-2.5194650">
        <ele>1622.8</ele>
        <time>2021-04-18T11:13:37Z</time>
      </trkpt>
      <trkpt lat="37.2740460" lon="-2.5194350">
        <ele>1622.8</ele>
        <time>2021-04-18T11:13:38Z</time>
      </trkpt>
      <trkpt lat="37.2740960" lon="-2.5194080">
        <ele>1622.8</ele>
        <time>2021-04-18T11:13:39Z</time>
      </trkpt>
      <trkpt lat="37.2741470" lon="-2.5193810">
        <ele>1622.6</ele>
        <time>2021-04-18T11:13:40Z</time>
      </trkpt>
      <trkpt lat="37.2742510" lon="-2.5193210">
        <ele>1622.6</ele>
        <time>2021-04-18T11:13:42Z</time>
      </trkpt>
      <trkpt lat="37.2745510" lon="-2.5191550">
        <ele>1621.6</ele>
        <time>2021-04-18T11:13:48Z</time>
      </trkpt>
      <trkpt lat="37.2746090" lon="-2.5191390">
        <ele>1621.4</ele>
        <time>2021-04-18T11:13:49Z</time>
      </trkpt>
      <trkpt lat="37.2746930" lon="-2.5191170">
        <ele>1621.0</ele>
        <time>2021-04-18T11:13:51Z</time>
      </trkpt>
      <trkpt lat="37.2747370" lon="-2.5191060">
        <ele>1620.8</ele>
        <time>2021-04-18T11:13:52Z</time>
      </trkpt>
      <trkpt lat="37.2747840" lon="-2.5190940">
        <ele>1620.8</ele>
        <time>2021-04-18T11:13:53Z</time>
      </trkpt>
      <trkpt lat="37.2748320" lon="-2.5190830">
        <ele>1620.8</ele>
        <time>2021-04-18T11:13:54Z</time>
      </trkpt>
      <trkpt lat="37.2748870" lon="-2.5190630">
        <ele>1620.8</ele>
        <time>2021-04-18T11:13:55Z</time>
      </trkpt>
      <trkpt lat="37.2749210" lon="-2.5190460">
        <ele>1620.8</ele>
        <time>2021-04-18T11:13:56Z</time>
      </trkpt>
      <trkpt lat="37.2749610" lon="-2.5190250">
        <ele>1620.8</ele>
        <time>2021-04-18T11:13:57Z</time>
      </trkpt>
      <trkpt lat="37.2749950" lon="-2.5190010">
        <ele>1620.8</ele>
        <time>2021-04-18T11:13:58Z</time>
      </trkpt>
      <trkpt lat="37.2750330" lon="-2.5189670">
        <ele>1620.8</ele>
        <time>2021-04-18T11:13:59Z</time>
      </trkpt>
      <trkpt lat="37.2750580" lon="-2.5189400">
        <ele>1620.8</ele>
        <time>2021-04-18T11:14:00Z</time>
      </trkpt>
      <trkpt lat="37.2750870" lon="-2.5189010">
        <ele>1620.8</ele>
        <time>2021-04-18T11:14:01Z</time>
      </trkpt>
      <trkpt lat="37.2751360" lon="-2.5188090">
        <ele>1620.8</ele>
        <time>2021-04-18T11:14:03Z</time>
      </trkpt>
      <trkpt lat="37.2751910" lon="-2.5186480">
        <ele>1620.8</ele>
        <time>2021-04-18T11:14:06Z</time>
      </trkpt>
      <trkpt lat="37.2752130" lon="-2.5185850">
        <ele>1620.8</ele>
        <time>2021-04-18T11:14:07Z</time>
      </trkpt>
      <trkpt lat="37.2752810" lon="-2.5184420">
        <ele>1620.8</ele>
        <time>2021-04-18T11:14:10Z</time>
      </trkpt>
      <trkpt lat="37.2753110" lon="-2.5184010">
        <ele>1620.6</ele>
        <time>2021-04-18T11:14:11Z</time>
      </trkpt>
      <trkpt lat="37.2753400" lon="-2.5183680">
        <ele>1620.6</ele>
        <time>2021-04-18T11:14:12Z</time>
      </trkpt>
      <trkpt lat="37.2753760" lon="-2.5183460">
        <ele>1620.6</ele>
        <time>2021-04-18T11:14:13Z</time>
      </trkpt>
      <trkpt lat="37.2754120" lon="-2.5183300">
        <ele>1620.4</ele>
        <time>2021-04-18T11:14:14Z</time>
      </trkpt>
      <trkpt lat="37.2754470" lon="-2.5183120">
        <ele>1620.2</ele>
        <time>2021-04-18T11:14:15Z</time>
      </trkpt>
      <trkpt lat="37.2754830" lon="-2.5182950">
        <ele>1620.0</ele>
        <time>2021-04-18T11:14:16Z</time>
      </trkpt>
      <trkpt lat="37.2755200" lon="-2.5182770">
        <ele>1620.0</ele>
        <time>2021-04-18T11:14:17Z</time>
      </trkpt>
      <trkpt lat="37.2755560" lon="-2.5182590">
        <ele>1620.0</ele>
        <time>2021-04-18T11:14:18Z</time>
      </trkpt>
      <trkpt lat="37.2755930" lon="-2.5182470">
        <ele>1619.8</ele>
        <time>2021-04-18T11:14:19Z</time>
      </trkpt>
      <trkpt lat="37.2756280" lon="-2.5182420">
        <ele>1619.8</ele>
        <time>2021-04-18T11:14:20Z</time>
      </trkpt>
      <trkpt lat="37.2756630" lon="-2.5182410">
        <ele>1619.8</ele>
        <time>2021-04-18T11:14:21Z</time>
      </trkpt>
      <trkpt lat="37.2756970" lon="-2.5182430">
        <ele>1619.8</ele>
        <time>2021-04-18T11:14:22Z</time>
      </trkpt>
      <trkpt lat="37.2757310" lon="-2.5182480">
        <ele>1619.8</ele>
        <time>2021-04-18T11:14:23Z</time>
      </trkpt>
      <trkpt lat="37.2757670" lon="-2.5182580">
        <ele>1619.8</ele>
        <time>2021-04-18T11:14:24Z</time>
      </trkpt>
      <trkpt lat="37.2758030" lon="-2.5182700">
        <ele>1619.8</ele>
        <time>2021-04-18T11:14:25Z</time>
      </trkpt>
      <trkpt lat="37.2758380" lon="-2.5182810">
        <ele>1619.8</ele>
        <time>2021-04-18T11:14:26Z</time>
      </trkpt>
      <trkpt lat="37.2758720" lon="-2.5182960">
        <ele>1619.8</ele>
        <time>2021-04-18T11:14:27Z</time>
      </trkpt>
      <trkpt lat="37.2759070" lon="-2.5183140">
        <ele>1619.8</ele>
        <time>2021-04-18T11:14:28Z</time>
      </trkpt>
      <trkpt lat="37.2762150" lon="-2.5184650">
        <ele>1619.6</ele>
        <time>2021-04-18T11:14:36Z</time>
      </trkpt>
      <trkpt lat="37.2762520" lon="-2.5184830">
        <ele>1619.6</ele>
        <time>2021-04-18T11:14:37Z</time>
      </trkpt>
      <trkpt lat="37.2764740" lon="-2.5185760">
        <ele>1619.2</ele>
        <time>2021-04-18T11:14:43Z</time>
      </trkpt>
      <trkpt lat="37.2765110" lon="-2.5185940">
        <ele>1619.0</ele>
        <time>2021-04-18T11:14:44Z</time>
      </trkpt>
      <trkpt lat="37.2765470" lon="-2.5186110">
        <ele>1619.0</ele>
        <time>2021-04-18T11:14:45Z</time>
      </trkpt>
      <trkpt lat="37.2765820" lon="-2.5186280">
        <ele>1619.0</ele>
        <time>2021-04-18T11:14:46Z</time>
      </trkpt>
      <trkpt lat="37.2766170" lon="-2.5186460">
        <ele>1618.8</ele>
        <time>2021-04-18T11:14:47Z</time>
      </trkpt>
      <trkpt lat="37.2766480" lon="-2.5186670">
        <ele>1618.8</ele>
        <time>2021-04-18T11:14:48Z</time>
      </trkpt>
      <trkpt lat="37.2766750" lon="-2.5186920">
        <ele>1619.0</ele>
        <time>2021-04-18T11:14:49Z</time>
      </trkpt>
      <trkpt lat="37.2766980" lon="-2.5187180">
        <ele>1619.2</ele>
        <time>2021-04-18T11:14:50Z</time>
      </trkpt>
      <trkpt lat="37.2767190" lon="-2.5187450">
        <ele>1619.2</ele>
        <time>2021-04-18T11:14:51Z</time>
      </trkpt>
      <trkpt lat="37.2767360" lon="-2.5187750">
        <ele>1619.4</ele>
        <time>2021-04-18T11:14:52Z</time>
      </trkpt>
      <trkpt lat="37.2767510" lon="-2.5188040">
        <ele>1619.4</ele>
        <time>2021-04-18T11:14:53Z</time>
      </trkpt>
      <trkpt lat="37.2767780" lon="-2.5188670">
        <ele>1619.4</ele>
        <time>2021-04-18T11:14:55Z</time>
      </trkpt>
      <trkpt lat="37.2767920" lon="-2.5188990">
        <ele>1619.4</ele>
        <time>2021-04-18T11:14:56Z</time>
      </trkpt>
      <trkpt lat="37.2768060" lon="-2.5189300">
        <ele>1619.4</ele>
        <time>2021-04-18T11:14:57Z</time>
      </trkpt>
      <trkpt lat="37.2768210" lon="-2.5189590">
        <ele>1619.4</ele>
        <time>2021-04-18T11:14:58Z</time>
      </trkpt>
      <trkpt lat="37.2768380" lon="-2.5189880">
        <ele>1619.6</ele>
        <time>2021-04-18T11:14:59Z</time>
      </trkpt>
      <trkpt lat="37.2768810" lon="-2.5190260">
        <ele>1619.6</ele>
        <time>2021-04-18T11:15:01Z</time>
      </trkpt>
      <trkpt lat="37.2769080" lon="-2.5190380">
        <ele>1619.6</ele>
        <time>2021-04-18T11:15:02Z</time>
      </trkpt>
      <trkpt lat="37.2769350" lon="-2.5190440">
        <ele>1619.8</ele>
        <time>2021-04-18T11:15:03Z</time>
      </trkpt>
      <trkpt lat="37.2769640" lon="-2.5190430">
        <ele>1620.0</ele>
        <time>2021-04-18T11:15:04Z</time>
      </trkpt>
      <trkpt lat="37.2769890" lon="-2.5190340">
        <ele>1620.0</ele>
        <time>2021-04-18T11:15:05Z</time>
      </trkpt>
      <trkpt lat="37.2770110" lon="-2.5190200">
        <ele>1620.0</ele>
        <time>2021-04-18T11:15:06Z</time>
      </trkpt>
      <trkpt lat="37.2770330" lon="-2.5190040">
        <ele>1620.0</ele>
        <time>2021-04-18T11:15:07Z</time>
      </trkpt>
      <trkpt lat="37.2770550" lon="-2.5189880">
        <ele>1620.2</ele>
        <time>2021-04-18T11:15:08Z</time>
      </trkpt>
      <trkpt lat="37.2770780" lon="-2.5189740">
        <ele>1620.2</ele>
        <time>2021-04-18T11:15:09Z</time>
      </trkpt>
      <trkpt lat="37.2771010" lon="-2.5189570">
        <ele>1620.4</ele>
        <time>2021-04-18T11:15:10Z</time>
      </trkpt>
      <trkpt lat="37.2771260" lon="-2.5189400">
        <ele>1620.4</ele>
        <time>2021-04-18T11:15:11Z</time>
      </trkpt>
      <trkpt lat="37.2772090" lon="-2.5189130">
        <ele>1620.6</ele>
        <time>2021-04-18T11:15:14Z</time>
      </trkpt>
      <trkpt lat="37.2772640" lon="-2.5189120">
        <ele>1620.8</ele>
        <time>2021-04-18T11:15:16Z</time>
      </trkpt>
      <trkpt lat="37.2774130" lon="-2.5189380">
        <ele>1621.4</ele>
        <time>2021-04-18T11:15:21Z</time>
      </trkpt>
      <trkpt lat="37.2774690" lon="-2.5189570">
        <ele>1621.8</ele>
        <time>2021-04-18T11:15:23Z</time>
      </trkpt>
      <trkpt lat="37.2776310" lon="-2.5190680">
        <ele>1622.8</ele>
        <time>2021-04-18T11:15:29Z</time>
      </trkpt>
      <trkpt lat="37.2776500" lon="-2.5191010">
        <ele>1623.0</ele>
        <time>2021-04-18T11:15:30Z</time>
      </trkpt>
      <trkpt lat="37.2776680" lon="-2.5191360">
        <ele>1623.2</ele>
        <time>2021-04-18T11:15:31Z</time>
      </trkpt>
      <trkpt lat="37.2776820" lon="-2.5191750">
        <ele>1623.2</ele>
        <time>2021-04-18T11:15:32Z</time>
      </trkpt>
      <trkpt lat="37.2776940" lon="-2.5192150">
        <ele>1623.2</ele>
        <time>2021-04-18T11:15:33Z</time>
      </trkpt>
      <trkpt lat="37.2777050" lon="-2.5192560">
        <ele>1623.2</ele>
        <time>2021-04-18T11:15:34Z</time>
      </trkpt>
      <trkpt lat="37.2777110" lon="-2.5192960">
        <ele>1623.2</ele>
        <time>2021-04-18T11:15:35Z</time>
      </trkpt>
      <trkpt lat="37.2777130" lon="-2.5193370">
        <ele>1623.2</ele>
        <time>2021-04-18T11:15:36Z</time>
      </trkpt>
      <trkpt lat="37.2777170" lon="-2.5193800">
        <ele>1623.2</ele>
        <time>2021-04-18T11:15:37Z</time>
      </trkpt>
      <trkpt lat="37.2777270" lon="-2.5194210">
        <ele>1623.2</ele>
        <time>2021-04-18T11:15:38Z</time>
      </trkpt>
      <trkpt lat="37.2777420" lon="-2.5194630">
        <ele>1623.0</ele>
        <time>2021-04-18T11:15:39Z</time>
      </trkpt>
      <trkpt lat="37.2777600" lon="-2.5195010">
        <ele>1623.0</ele>
        <time>2021-04-18T11:15:40Z</time>
      </trkpt>
      <trkpt lat="37.2777820" lon="-2.5195310">
        <ele>1623.0</ele>
        <time>2021-04-18T11:15:41Z</time>
      </trkpt>
      <trkpt lat="37.2778100" lon="-2.5195560">
        <ele>1623.0</ele>
        <time>2021-04-18T11:15:42Z</time>
      </trkpt>
      <trkpt lat="37.2778410" lon="-2.5195750">
        <ele>1623.0</ele>
        <time>2021-04-18T11:15:43Z</time>
      </trkpt>
      <trkpt lat="37.2778710" lon="-2.5195880">
        <ele>1623.0</ele>
        <time>2021-04-18T11:15:44Z</time>
      </trkpt>
      <trkpt lat="37.2779030" lon="-2.5195930">
        <ele>1623.2</ele>
        <time>2021-04-18T11:15:45Z</time>
      </trkpt>
      <trkpt lat="37.2779370" lon="-2.5195920">
        <ele>1623.2</ele>
        <time>2021-04-18T11:15:46Z</time>
      </trkpt>
      <trkpt lat="37.2779700" lon="-2.5195900">
        <ele>1623.4</ele>
        <time>2021-04-18T11:15:47Z</time>
      </trkpt>
      <trkpt lat="37.2781020" lon="-2.5195870">
        <ele>1624.0</ele>
        <time>2021-04-18T11:15:51Z</time>
      </trkpt>
      <trkpt lat="37.2781640" lon="-2.5196030">
        <ele>1624.2</ele>
        <time>2021-04-18T11:15:53Z</time>
      </trkpt>
      <trkpt lat="37.2781930" lon="-2.5196170">
        <ele>1624.2</ele>
        <time>2021-04-18T11:15:54Z</time>
      </trkpt>
      <trkpt lat="37.2782220" lon="-2.5196360">
        <ele>1624.2</ele>
        <time>2021-04-18T11:15:55Z</time>
      </trkpt>
      <trkpt lat="37.2783880" lon="-2.5198260">
        <ele>1625.2</ele>
        <time>2021-04-18T11:16:02Z</time>
      </trkpt>
      <trkpt lat="37.2785210" lon="-2.5200290">
        <ele>1626.2</ele>
        <time>2021-04-18T11:16:09Z</time>
      </trkpt>
      <trkpt lat="37.2785350" lon="-2.5200570">
        <ele>1626.2</ele>
        <time>2021-04-18T11:16:10Z</time>
      </trkpt>
      <trkpt lat="37.2785510" lon="-2.5200830">
        <ele>1626.2</ele>
        <time>2021-04-18T11:16:11Z</time>
      </trkpt>
      <trkpt lat="37.2785700" lon="-2.5201090">
        <ele>1626.2</ele>
        <time>2021-04-18T11:16:12Z</time>
      </trkpt>
      <trkpt lat="37.2785900" lon="-2.5201310">
        <ele>1626.4</ele>
        <time>2021-04-18T11:16:13Z</time>
      </trkpt>
      <trkpt lat="37.2786090" lon="-2.5201530">
        <ele>1626.6</ele>
        <time>2021-04-18T11:16:14Z</time>
      </trkpt>
      <trkpt lat="37.2786250" lon="-2.5201780">
        <ele>1626.8</ele>
        <time>2021-04-18T11:16:15Z</time>
      </trkpt>
      <trkpt lat="37.2786400" lon="-2.5202020">
        <ele>1626.8</ele>
        <time>2021-04-18T11:16:16Z</time>
      </trkpt>
      <trkpt lat="37.2786580" lon="-2.5202230">
        <ele>1627.2</ele>
        <time>2021-04-18T11:16:17Z</time>
      </trkpt>
      <trkpt lat="37.2786800" lon="-2.5202410">
        <ele>1627.4</ele>
        <time>2021-04-18T11:16:18Z</time>
      </trkpt>
      <trkpt lat="37.2787020" lon="-2.5202570">
        <ele>1627.8</ele>
        <time>2021-04-18T11:16:19Z</time>
      </trkpt>
      <trkpt lat="37.2787250" lon="-2.5202740">
        <ele>1627.8</ele>
        <time>2021-04-18T11:16:20Z</time>
      </trkpt>
      <trkpt lat="37.2787470" lon="-2.5202930">
        <ele>1628.0</ele>
        <time>2021-04-18T11:16:21Z</time>
      </trkpt>
      <trkpt lat="37.2787650" lon="-2.5203130">
        <ele>1628.2</ele>
        <time>2021-04-18T11:16:22Z</time>
      </trkpt>
      <trkpt lat="37.2787840" lon="-2.5203340">
        <ele>1628.4</ele>
        <time>2021-04-18T11:16:23Z</time>
      </trkpt>
      <trkpt lat="37.2788030" lon="-2.5203550">
        <ele>1628.8</ele>
        <time>2021-04-18T11:16:24Z</time>
      </trkpt>
      <trkpt lat="37.2788230" lon="-2.5203750">
        <ele>1629.0</ele>
        <time>2021-04-18T11:16:25Z</time>
      </trkpt>
      <trkpt lat="37.2788430" lon="-2.5203900">
        <ele>1629.2</ele>
        <time>2021-04-18T11:16:26Z</time>
      </trkpt>
      <trkpt lat="37.2788630" lon="-2.5204060">
        <ele>1629.4</ele>
        <time>2021-04-18T11:16:27Z</time>
      </trkpt>
      <trkpt lat="37.2788830" lon="-2.5204210">
        <ele>1629.4</ele>
        <time>2021-04-18T11:16:28Z</time>
      </trkpt>
      <trkpt lat="37.2789050" lon="-2.5204370">
        <ele>1629.6</ele>
        <time>2021-04-18T11:16:29Z</time>
      </trkpt>
      <trkpt lat="37.2789270" lon="-2.5204550">
        <ele>1629.6</ele>
        <time>2021-04-18T11:16:30Z</time>
      </trkpt>
      <trkpt lat="37.2789450" lon="-2.5204740">
        <ele>1629.8</ele>
        <time>2021-04-18T11:16:31Z</time>
      </trkpt>
      <trkpt lat="37.2789620" lon="-2.5204950">
        <ele>1630.0</ele>
        <time>2021-04-18T11:16:32Z</time>
      </trkpt>
      <trkpt lat="37.2789790" lon="-2.5205160">
        <ele>1630.2</ele>
        <time>2021-04-18T11:16:33Z</time>
      </trkpt>
      <trkpt lat="37.2789960" lon="-2.5205380">
        <ele>1630.4</ele>
        <time>2021-04-18T11:16:34Z</time>
      </trkpt>
      <trkpt lat="37.2790120" lon="-2.5205610">
        <ele>1630.4</ele>
        <time>2021-04-18T11:16:35Z</time>
      </trkpt>
      <trkpt lat="37.2790280" lon="-2.5205850">
        <ele>1630.6</ele>
        <time>2021-04-18T11:16:36Z</time>
      </trkpt>
      <trkpt lat="37.2790440" lon="-2.5206080">
        <ele>1630.8</ele>
        <time>2021-04-18T11:16:37Z</time>
      </trkpt>
      <trkpt lat="37.2790600" lon="-2.5206310">
        <ele>1630.8</ele>
        <time>2021-04-18T11:16:38Z</time>
      </trkpt>
      <trkpt lat="37.2790730" lon="-2.5206550">
        <ele>1630.8</ele>
        <time>2021-04-18T11:16:39Z</time>
      </trkpt>
      <trkpt lat="37.2790870" lon="-2.5206820">
        <ele>1630.8</ele>
        <time>2021-04-18T11:16:40Z</time>
      </trkpt>
      <trkpt lat="37.2790960" lon="-2.5207090">
        <ele>1631.0</ele>
        <time>2021-04-18T11:16:41Z</time>
      </trkpt>
      <trkpt lat="37.2791050" lon="-2.5207370">
        <ele>1631.0</ele>
        <time>2021-04-18T11:16:42Z</time>
      </trkpt>
      <trkpt lat="37.2791140" lon="-2.5207660">
        <ele>1631.2</ele>
        <time>2021-04-18T11:16:43Z</time>
      </trkpt>
      <trkpt lat="37.2791230" lon="-2.5207960">
        <ele>1631.0</ele>
        <time>2021-04-18T11:16:44Z</time>
      </trkpt>
      <trkpt lat="37.2791320" lon="-2.5208250">
        <ele>1631.0</ele>
        <time>2021-04-18T11:16:45Z</time>
      </trkpt>
      <trkpt lat="37.2791380" lon="-2.5208550">
        <ele>1631.2</ele>
        <time>2021-04-18T11:16:46Z</time>
      </trkpt>
      <trkpt lat="37.2791450" lon="-2.5208870">
        <ele>1631.2</ele>
        <time>2021-04-18T11:16:47Z</time>
      </trkpt>
      <trkpt lat="37.2791500" lon="-2.5209190">
        <ele>1631.4</ele>
        <time>2021-04-18T11:16:48Z</time>
      </trkpt>
      <trkpt lat="37.2791510" lon="-2.5209510">
        <ele>1631.2</ele>
        <time>2021-04-18T11:16:49Z</time>
      </trkpt>
      <trkpt lat="37.2791500" lon="-2.5209790">
        <ele>1631.4</ele>
        <time>2021-04-18T11:16:50Z</time>
      </trkpt>
      <trkpt lat="37.2791490" lon="-2.5210060">
        <ele>1631.6</ele>
        <time>2021-04-18T11:16:51Z</time>
      </trkpt>
      <trkpt lat="37.2791490" lon="-2.5210360">
        <ele>1631.6</ele>
        <time>2021-04-18T11:16:52Z</time>
      </trkpt>
      <trkpt lat="37.2791510" lon="-2.5210650">
        <ele>1631.4</ele>
        <time>2021-04-18T11:16:53Z</time>
      </trkpt>
      <trkpt lat="37.2791530" lon="-2.5210950">
        <ele>1631.8</ele>
        <time>2021-04-18T11:16:54Z</time>
      </trkpt>
      <trkpt lat="37.2791550" lon="-2.5211520">
        <ele>1631.8</ele>
        <time>2021-04-18T11:16:56Z</time>
      </trkpt>
      <trkpt lat="37.2791560" lon="-2.5211790">
        <ele>1631.8</ele>
        <time>2021-04-18T11:16:57Z</time>
      </trkpt>
      <trkpt lat="37.2791590" lon="-2.5212090">
        <ele>1631.8</ele>
        <time>2021-04-18T11:16:58Z</time>
      </trkpt>
      <trkpt lat="37.2791610" lon="-2.5212370">
        <ele>1632.0</ele>
        <time>2021-04-18T11:16:59Z</time>
      </trkpt>
      <trkpt lat="37.2791610" lon="-2.5212650">
        <ele>1632.0</ele>
        <time>2021-04-18T11:17:00Z</time>
      </trkpt>
      <trkpt lat="37.2792070" lon="-2.5214540">
        <ele>1632.2</ele>
        <time>2021-04-18T11:17:07Z</time>
      </trkpt>
      <trkpt lat="37.2792220" lon="-2.5214750">
        <ele>1632.4</ele>
        <time>2021-04-18T11:17:08Z</time>
      </trkpt>
      <trkpt lat="37.2792750" lon="-2.5215370">
        <ele>1633.0</ele>
        <time>2021-04-18T11:17:11Z</time>
      </trkpt>
      <trkpt lat="37.2793430" lon="-2.5215890">
        <ele>1633.2</ele>
        <time>2021-04-18T11:17:14Z</time>
      </trkpt>
      <trkpt lat="37.2794990" lon="-2.5216960">
        <ele>1633.6</ele>
        <time>2021-04-18T11:17:21Z</time>
      </trkpt>
      <trkpt lat="37.2795430" lon="-2.5217180">
        <ele>1633.6</ele>
        <time>2021-04-18T11:17:23Z</time>
      </trkpt>
      <trkpt lat="37.2796380" lon="-2.5217840">
        <ele>1633.8</ele>
        <time>2021-04-18T11:17:27Z</time>
      </trkpt>
      <trkpt lat="37.2797410" lon="-2.5218680">
        <ele>1634.0</ele>
        <time>2021-04-18T11:17:31Z</time>
      </trkpt>
      <trkpt lat="37.2798860" lon="-2.5220050">
        <ele>1634.8</ele>
        <time>2021-04-18T11:17:37Z</time>
      </trkpt>
      <trkpt lat="37.2799500" lon="-2.5220860">
        <ele>1635.2</ele>
        <time>2021-04-18T11:17:40Z</time>
      </trkpt>
      <trkpt lat="37.2801120" lon="-2.5223760">
        <ele>1635.4</ele>
        <time>2021-04-18T11:17:49Z</time>
      </trkpt>
      <trkpt lat="37.2802590" lon="-2.5225340">
        <ele>1635.0</ele>
        <time>2021-04-18T11:17:55Z</time>
      </trkpt>
      <trkpt lat="37.2803230" lon="-2.5225530">
        <ele>1635.0</ele>
        <time>2021-04-18T11:17:57Z</time>
      </trkpt>
      <trkpt lat="37.2804980" lon="-2.5225730">
        <ele>1635.2</ele>
        <time>2021-04-18T11:18:02Z</time>
      </trkpt>
      <trkpt lat="37.2808590" lon="-2.5225410">
        <ele>1635.2</ele>
        <time>2021-04-18T11:18:11Z</time>
      </trkpt>
      <trkpt lat="37.2809380" lon="-2.5225330">
        <ele>1635.2</ele>
        <time>2021-04-18T11:18:13Z</time>
      </trkpt>
      <trkpt lat="37.2811460" lon="-2.5225240">
        <ele>1635.2</ele>
        <time>2021-04-18T11:18:18Z</time>
      </trkpt>
      <trkpt lat="37.2812280" lon="-2.5225240">
        <ele>1635.2</ele>
        <time>2021-04-18T11:18:20Z</time>
      </trkpt>
      <trkpt lat="37.2812700" lon="-2.5225270">
        <ele>1635.0</ele>
        <time>2021-04-18T11:18:21Z</time>
      </trkpt>
      <trkpt lat="37.2813100" lon="-2.5225380">
        <ele>1635.0</ele>
        <time>2021-04-18T11:18:22Z</time>
      </trkpt>
      <trkpt lat="37.2813490" lon="-2.5225510">
        <ele>1635.0</ele>
        <time>2021-04-18T11:18:23Z</time>
      </trkpt>
      <trkpt lat="37.2815690" lon="-2.5226930">
        <ele>1634.8</ele>
        <time>2021-04-18T11:18:29Z</time>
      </trkpt>
      <trkpt lat="37.2816100" lon="-2.5227340">
        <ele>1634.8</ele>
        <time>2021-04-18T11:18:30Z</time>
      </trkpt>
      <trkpt lat="37.2816620" lon="-2.5228200">
        <ele>1634.8</ele>
        <time>2021-04-18T11:18:32Z</time>
      </trkpt>
      <trkpt lat="37.2816750" lon="-2.5228650">
        <ele>1634.8</ele>
        <time>2021-04-18T11:18:33Z</time>
      </trkpt>
      <trkpt lat="37.2816850" lon="-2.5229120">
        <ele>1634.8</ele>
        <time>2021-04-18T11:18:34Z</time>
      </trkpt>
      <trkpt lat="37.2816970" lon="-2.5229610">
        <ele>1634.6</ele>
        <time>2021-04-18T11:18:35Z</time>
      </trkpt>
      <trkpt lat="37.2817260" lon="-2.5230550">
        <ele>1634.4</ele>
        <time>2021-04-18T11:18:37Z</time>
      </trkpt>
      <trkpt lat="37.2817400" lon="-2.5231010">
        <ele>1634.4</ele>
        <time>2021-04-18T11:18:38Z</time>
      </trkpt>
      <trkpt lat="37.2817520" lon="-2.5231450">
        <ele>1634.2</ele>
        <time>2021-04-18T11:18:39Z</time>
      </trkpt>
      <trkpt lat="37.2817600" lon="-2.5231850">
        <ele>1634.2</ele>
        <time>2021-04-18T11:18:40Z</time>
      </trkpt>
      <trkpt lat="37.2817690" lon="-2.5232290">
        <ele>1634.2</ele>
        <time>2021-04-18T11:18:41Z</time>
      </trkpt>
      <trkpt lat="37.2817800" lon="-2.5232700">
        <ele>1634.2</ele>
        <time>2021-04-18T11:18:42Z</time>
      </trkpt>
      <trkpt lat="37.2817880" lon="-2.5233020">
        <ele>1634.4</ele>
        <time>2021-04-18T11:18:43Z</time>
      </trkpt>
      <trkpt lat="37.2817950" lon="-2.5233440">
        <ele>1634.4</ele>
        <time>2021-04-18T11:18:44Z</time>
      </trkpt>
      <trkpt lat="37.2818010" lon="-2.5233960">
        <ele>1634.4</ele>
        <time>2021-04-18T11:18:45Z</time>
      </trkpt>
      <trkpt lat="37.2818070" lon="-2.5234400">
        <ele>1634.4</ele>
        <time>2021-04-18T11:18:46Z</time>
      </trkpt>
      <trkpt lat="37.2818150" lon="-2.5235710">
        <ele>1634.6</ele>
        <time>2021-04-18T11:18:49Z</time>
      </trkpt>
      <trkpt lat="37.2818450" lon="-2.5239040">
        <ele>1634.8</ele>
        <time>2021-04-18T11:18:56Z</time>
      </trkpt>
      <trkpt lat="37.2818580" lon="-2.5241180">
        <ele>1635.0</ele>
        <time>2021-04-18T11:19:01Z</time>
      </trkpt>
      <trkpt lat="37.2818650" lon="-2.5241440">
        <ele>1635.0</ele>
        <time>2021-04-18T11:19:02Z</time>
      </trkpt>
      <trkpt lat="37.2818660" lon="-2.5241670">
        <ele>1635.0</ele>
        <time>2021-04-18T11:19:03Z</time>
      </trkpt>
      <trkpt lat="37.2818650" lon="-2.5241950">
        <ele>1635.0</ele>
        <time>2021-04-18T11:19:04Z</time>
      </trkpt>
      <trkpt lat="37.2818620" lon="-2.5242230">
        <ele>1635.0</ele>
        <time>2021-04-18T11:19:05Z</time>
      </trkpt>
      <trkpt lat="37.2818740" lon="-2.5242870">
        <ele>1635.0</ele>
        <time>2021-04-18T11:19:07Z</time>
      </trkpt>
      <trkpt lat="37.2819010" lon="-2.5243550">
        <ele>1635.0</ele>
        <time>2021-04-18T11:19:09Z</time>
      </trkpt>
      <trkpt lat="37.2819190" lon="-2.5243930">
        <ele>1635.0</ele>
        <time>2021-04-18T11:19:10Z</time>
      </trkpt>
      <trkpt lat="37.2819380" lon="-2.5244350">
        <ele>1635.0</ele>
        <time>2021-04-18T11:19:11Z</time>
      </trkpt>
      <trkpt lat="37.2819520" lon="-2.5244670">
        <ele>1635.2</ele>
        <time>2021-04-18T11:19:12Z</time>
      </trkpt>
      <trkpt lat="37.2819660" lon="-2.5244930">
        <ele>1635.2</ele>
        <time>2021-04-18T11:19:13Z</time>
      </trkpt>
      <trkpt lat="37.2819800" lon="-2.5245260">
        <ele>1635.4</ele>
        <time>2021-04-18T11:19:14Z</time>
      </trkpt>
      <trkpt lat="37.2819940" lon="-2.5245610">
        <ele>1635.6</ele>
        <time>2021-04-18T11:19:15Z</time>
      </trkpt>
      <trkpt lat="37.2820140" lon="-2.5246030">
        <ele>1635.8</ele>
        <time>2021-04-18T11:19:16Z</time>
      </trkpt>
      <trkpt lat="37.2820240" lon="-2.5246350">
        <ele>1636.0</ele>
        <time>2021-04-18T11:19:17Z</time>
      </trkpt>
      <trkpt lat="37.2820390" lon="-2.5246670">
        <ele>1636.2</ele>
        <time>2021-04-18T11:19:18Z</time>
      </trkpt>
      <trkpt lat="37.2820530" lon="-2.5246970">
        <ele>1636.2</ele>
        <time>2021-04-18T11:19:19Z</time>
      </trkpt>
      <trkpt lat="37.2820730" lon="-2.5247280">
        <ele>1636.4</ele>
        <time>2021-04-18T11:19:20Z</time>
      </trkpt>
      <trkpt lat="37.2821110" lon="-2.5247970">
        <ele>1636.4</ele>
        <time>2021-04-18T11:19:22Z</time>
      </trkpt>
      <trkpt lat="37.2821730" lon="-2.5249090">
        <ele>1636.8</ele>
        <time>2021-04-18T11:19:26Z</time>
      </trkpt>
      <trkpt lat="37.2821830" lon="-2.5249410">
        <ele>1637.0</ele>
        <time>2021-04-18T11:19:27Z</time>
      </trkpt>
      <trkpt lat="37.2821890" lon="-2.5249720">
        <ele>1637.2</ele>
        <time>2021-04-18T11:19:28Z</time>
      </trkpt>
      <trkpt lat="37.2821990" lon="-2.5249940">
        <ele>1637.2</ele>
        <time>2021-04-18T11:19:29Z</time>
      </trkpt>
      <trkpt lat="37.2822590" lon="-2.5251160">
        <ele>1637.8</ele>
        <time>2021-04-18T11:19:33Z</time>
      </trkpt>
      <trkpt lat="37.2822830" lon="-2.5252080">
        <ele>1638.2</ele>
        <time>2021-04-18T11:19:36Z</time>
      </trkpt>
      <trkpt lat="37.2822880" lon="-2.5252330">
        <ele>1638.2</ele>
        <time>2021-04-18T11:19:37Z</time>
      </trkpt>
      <trkpt lat="37.2822910" lon="-2.5252540">
        <ele>1638.4</ele>
        <time>2021-04-18T11:19:38Z</time>
      </trkpt>
      <trkpt lat="37.2822950" lon="-2.5252810">
        <ele>1638.4</ele>
        <time>2021-04-18T11:19:39Z</time>
      </trkpt>
      <trkpt lat="37.2822960" lon="-2.5253140">
        <ele>1638.6</ele>
        <time>2021-04-18T11:19:40Z</time>
      </trkpt>
      <trkpt lat="37.2822940" lon="-2.5253440">
        <ele>1638.6</ele>
        <time>2021-04-18T11:19:41Z</time>
      </trkpt>
      <trkpt lat="37.2822900" lon="-2.5253770">
        <ele>1638.8</ele>
        <time>2021-04-18T11:19:42Z</time>
      </trkpt>
      <trkpt lat="37.2822860" lon="-2.5254030">
        <ele>1639.0</ele>
        <time>2021-04-18T11:19:43Z</time>
      </trkpt>
      <trkpt lat="37.2822820" lon="-2.5254360">
        <ele>1639.0</ele>
        <time>2021-04-18T11:19:44Z</time>
      </trkpt>
      <trkpt lat="37.2822760" lon="-2.5254740">
        <ele>1639.0</ele>
        <time>2021-04-18T11:19:45Z</time>
      </trkpt>
      <trkpt lat="37.2822700" lon="-2.5255060">
        <ele>1639.0</ele>
        <time>2021-04-18T11:19:46Z</time>
      </trkpt>
      <trkpt lat="37.2822630" lon="-2.5255360">
        <ele>1639.0</ele>
        <time>2021-04-18T11:19:47Z</time>
      </trkpt>
      <trkpt lat="37.2822540" lon="-2.5255610">
        <ele>1639.0</ele>
        <time>2021-04-18T11:19:48Z</time>
      </trkpt>
      <trkpt lat="37.2822390" lon="-2.5255930">
        <ele>1639.0</ele>
        <time>2021-04-18T11:19:49Z</time>
      </trkpt>
      <trkpt lat="37.2822200" lon="-2.5256330">
        <ele>1639.0</ele>
        <time>2021-04-18T11:19:50Z</time>
      </trkpt>
      <trkpt lat="37.2822070" lon="-2.5256620">
        <ele>1639.0</ele>
        <time>2021-04-18T11:19:51Z</time>
      </trkpt>
      <trkpt lat="37.2821100" lon="-2.5258450">
        <ele>1638.8</ele>
        <time>2021-04-18T11:19:55Z</time>
      </trkpt>
      <trkpt lat="37.2820830" lon="-2.5258980">
        <ele>1638.6</ele>
        <time>2021-04-18T11:19:56Z</time>
      </trkpt>
      <trkpt lat="37.2819900" lon="-2.5260560">
        <ele>1638.0</ele>
        <time>2021-04-18T11:19:59Z</time>
      </trkpt>
      <trkpt lat="37.2818320" lon="-2.5262270">
        <ele>1637.6</ele>
        <time>2021-04-18T11:20:02Z</time>
      </trkpt>
      <trkpt lat="37.2817750" lon="-2.5262770">
        <ele>1637.0</ele>
        <time>2021-04-18T11:20:03Z</time>
      </trkpt>
      <trkpt lat="37.2816510" lon="-2.5263740">
        <ele>1636.2</ele>
        <time>2021-04-18T11:20:05Z</time>
      </trkpt>
      <trkpt lat="37.2815820" lon="-2.5264110">
        <ele>1635.4</ele>
        <time>2021-04-18T11:20:06Z</time>
      </trkpt>
      <trkpt lat="37.2815110" lon="-2.5264520">
        <ele>1635.0</ele>
        <time>2021-04-18T11:20:07Z</time>
      </trkpt>
      <trkpt lat="37.2814440" lon="-2.5265030">
        <ele>1634.8</ele>
        <time>2021-04-18T11:20:08Z</time>
      </trkpt>
      <trkpt lat="37.2813590" lon="-2.5266630">
        <ele>1634.4</ele>
        <time>2021-04-18T11:20:10Z</time>
      </trkpt>
      <trkpt lat="37.2813480" lon="-2.5267510">
        <ele>1633.0</ele>
        <time>2021-04-18T11:20:11Z</time>
      </trkpt>
      <trkpt lat="37.2813450" lon="-2.5268360">
        <ele>1632.6</ele>
        <time>2021-04-18T11:20:12Z</time>
      </trkpt>
      <trkpt lat="37.2813400" lon="-2.5269170">
        <ele>1632.0</ele>
        <time>2021-04-18T11:20:13Z</time>
      </trkpt>
      <trkpt lat="37.2813350" lon="-2.5269950">
        <ele>1631.8</ele>
        <time>2021-04-18T11:20:14Z</time>
      </trkpt>
      <trkpt lat="37.2813250" lon="-2.5270660">
        <ele>1631.4</ele>
        <time>2021-04-18T11:20:15Z</time>
      </trkpt>
      <trkpt lat="37.2813150" lon="-2.5271200">
        <ele>1630.8</ele>
        <time>2021-04-18T11:20:16Z</time>
      </trkpt>
      <trkpt lat="37.2813000" lon="-2.5271880">
        <ele>1630.6</ele>
        <time>2021-04-18T11:20:17Z</time>
      </trkpt>
      <trkpt lat="37.2812810" lon="-2.5272550">
        <ele>1630.4</ele>
        <time>2021-04-18T11:20:18Z</time>
      </trkpt>
      <trkpt lat="37.2812270" lon="-2.5273950">
        <ele>1630.2</ele>
        <time>2021-04-18T11:20:20Z</time>
      </trkpt>
      <trkpt lat="37.2811980" lon="-2.5274550">
        <ele>1629.8</ele>
        <time>2021-04-18T11:20:21Z</time>
      </trkpt>
      <trkpt lat="37.2811410" lon="-2.5275600">
        <ele>1629.6</ele>
        <time>2021-04-18T11:20:23Z</time>
      </trkpt>
      <trkpt lat="37.2811000" lon="-2.5276310">
        <ele>1629.6</ele>
        <time>2021-04-18T11:20:24Z</time>
      </trkpt>
      <trkpt lat="37.2809870" lon="-2.5277900">
        <ele>1628.6</ele>
        <time>2021-04-18T11:20:27Z</time>
      </trkpt>
      <trkpt lat="37.2808760" lon="-2.5279390">
        <ele>1628.0</ele>
        <time>2021-04-18T11:20:30Z</time>
      </trkpt>
      <trkpt lat="37.2808030" lon="-2.5280360">
        <ele>1627.8</ele>
        <time>2021-04-18T11:20:32Z</time>
      </trkpt>
      <trkpt lat="37.2807360" lon="-2.5281270">
        <ele>1627.6</ele>
        <time>2021-04-18T11:20:34Z</time>
      </trkpt>
      <trkpt lat="37.2807020" lon="-2.5281690">
        <ele>1627.0</ele>
        <time>2021-04-18T11:20:35Z</time>
      </trkpt>
      <trkpt lat="37.2806700" lon="-2.5282090">
        <ele>1626.8</ele>
        <time>2021-04-18T11:20:36Z</time>
      </trkpt>
      <trkpt lat="37.2806370" lon="-2.5282460">
        <ele>1626.4</ele>
        <time>2021-04-18T11:20:37Z</time>
      </trkpt>
      <trkpt lat="37.2805660" lon="-2.5283200">
        <ele>1626.2</ele>
        <time>2021-04-18T11:20:39Z</time>
      </trkpt>
      <trkpt lat="37.2805340" lon="-2.5283610">
        <ele>1626.0</ele>
        <time>2021-04-18T11:20:40Z</time>
      </trkpt>
      <trkpt lat="37.2805030" lon="-2.5284010">
        <ele>1626.0</ele>
        <time>2021-04-18T11:20:41Z</time>
      </trkpt>
      <trkpt lat="37.2804700" lon="-2.5284380">
        <ele>1626.0</ele>
        <time>2021-04-18T11:20:42Z</time>
      </trkpt>
      <trkpt lat="37.2804390" lon="-2.5284760">
        <ele>1625.8</ele>
        <time>2021-04-18T11:20:43Z</time>
      </trkpt>
      <trkpt lat="37.2804070" lon="-2.5285130">
        <ele>1625.8</ele>
        <time>2021-04-18T11:20:44Z</time>
      </trkpt>
      <trkpt lat="37.2803750" lon="-2.5285520">
        <ele>1625.8</ele>
        <time>2021-04-18T11:20:45Z</time>
      </trkpt>
      <trkpt lat="37.2802790" lon="-2.5286840">
        <ele>1625.4</ele>
        <time>2021-04-18T11:20:48Z</time>
      </trkpt>
      <trkpt lat="37.2802400" lon="-2.5287290">
        <ele>1625.2</ele>
        <time>2021-04-18T11:20:49Z</time>
      </trkpt>
      <trkpt lat="37.2801540" lon="-2.5288310">
        <ele>1625.2</ele>
        <time>2021-04-18T11:20:51Z</time>
      </trkpt>
      <trkpt lat="37.2800870" lon="-2.5289640">
        <ele>1625.0</ele>
        <time>2021-04-18T11:20:53Z</time>
      </trkpt>
      <trkpt lat="37.2800670" lon="-2.5290410">
        <ele>1624.8</ele>
        <time>2021-04-18T11:20:54Z</time>
      </trkpt>
      <trkpt lat="37.2800660" lon="-2.5291270">
        <ele>1624.6</ele>
        <time>2021-04-18T11:20:55Z</time>
      </trkpt>
      <trkpt lat="37.2800860" lon="-2.5292140">
        <ele>1624.6</ele>
        <time>2021-04-18T11:20:56Z</time>
      </trkpt>
      <trkpt lat="37.2801240" lon="-2.5292940">
        <ele>1624.4</ele>
        <time>2021-04-18T11:20:57Z</time>
      </trkpt>
      <trkpt lat="37.2802280" lon="-2.5293940">
        <ele>1624.2</ele>
        <time>2021-04-18T11:20:59Z</time>
      </trkpt>
      <trkpt lat="37.2802830" lon="-2.5294200">
        <ele>1624.2</ele>
        <time>2021-04-18T11:21:00Z</time>
      </trkpt>
      <trkpt lat="37.2803350" lon="-2.5294310">
        <ele>1624.2</ele>
        <time>2021-04-18T11:21:01Z</time>
      </trkpt>
      <trkpt lat="37.2803810" lon="-2.5294380">
        <ele>1624.2</ele>
        <time>2021-04-18T11:21:02Z</time>
      </trkpt>
      <trkpt lat="37.2804200" lon="-2.5294430">
        <ele>1624.2</ele>
        <time>2021-04-18T11:21:03Z</time>
      </trkpt>
      <trkpt lat="37.2804560" lon="-2.5294460">
        <ele>1624.2</ele>
        <time>2021-04-18T11:21:04Z</time>
      </trkpt>
      <trkpt lat="37.2804920" lon="-2.5294490">
        <ele>1624.2</ele>
        <time>2021-04-18T11:21:05Z</time>
      </trkpt>
      <trkpt lat="37.2805220" lon="-2.5294550">
        <ele>1624.4</ele>
        <time>2021-04-18T11:21:06Z</time>
      </trkpt>
      <trkpt lat="37.2805510" lon="-2.5294580">
        <ele>1624.6</ele>
        <time>2021-04-18T11:21:07Z</time>
      </trkpt>
      <trkpt lat="37.2805800" lon="-2.5294610">
        <ele>1624.8</ele>
        <time>2021-04-18T11:21:08Z</time>
      </trkpt>
      <trkpt lat="37.2806090" lon="-2.5294670">
        <ele>1625.0</ele>
        <time>2021-04-18T11:21:09Z</time>
      </trkpt>
      <trkpt lat="37.2806340" lon="-2.5294790">
        <ele>1625.2</ele>
        <time>2021-04-18T11:21:10Z</time>
      </trkpt>
      <trkpt lat="37.2806560" lon="-2.5294960">
        <ele>1625.8</ele>
        <time>2021-04-18T11:21:11Z</time>
      </trkpt>
      <trkpt lat="37.2806780" lon="-2.5295140">
        <ele>1625.8</ele>
        <time>2021-04-18T11:21:12Z</time>
      </trkpt>
      <trkpt lat="37.2807010" lon="-2.5295350">
        <ele>1626.2</ele>
        <time>2021-04-18T11:21:13Z</time>
      </trkpt>
      <trkpt lat="37.2807240" lon="-2.5295610">
        <ele>1626.6</ele>
        <time>2021-04-18T11:21:14Z</time>
      </trkpt>
      <trkpt lat="37.2808100" lon="-2.5297220">
        <ele>1626.6</ele>
        <time>2021-04-18T11:21:18Z</time>
      </trkpt>
      <trkpt lat="37.2809010" lon="-2.5298710">
        <ele>1626.2</ele>
        <time>2021-04-18T11:21:21Z</time>
      </trkpt>
      <trkpt lat="37.2809420" lon="-2.5299110">
        <ele>1626.2</ele>
        <time>2021-04-18T11:21:22Z</time>
      </trkpt>
      <trkpt lat="37.2810300" lon="-2.5299850">
        <ele>1625.8</ele>
        <time>2021-04-18T11:21:24Z</time>
      </trkpt>
      <trkpt lat="37.2812250" lon="-2.5301280">
        <ele>1625.0</ele>
        <time>2021-04-18T11:21:28Z</time>
      </trkpt>
      <trkpt lat="37.2813240" lon="-2.5302130">
        <ele>1624.8</ele>
        <time>2021-04-18T11:21:30Z</time>
      </trkpt>
      <trkpt lat="37.2814250" lon="-2.5303110">
        <ele>1624.4</ele>
        <time>2021-04-18T11:21:32Z</time>
      </trkpt>
      <trkpt lat="37.2814730" lon="-2.5303670">
        <ele>1624.2</ele>
        <time>2021-04-18T11:21:33Z</time>
      </trkpt>
      <trkpt lat="37.2815690" lon="-2.5304860">
        <ele>1623.4</ele>
        <time>2021-04-18T11:21:35Z</time>
      </trkpt>
      <trkpt lat="37.2817140" lon="-2.5306790">
        <ele>1622.2</ele>
        <time>2021-04-18T11:21:38Z</time>
      </trkpt>
      <trkpt lat="37.2818790" lon="-2.5308840">
        <ele>1621.2</ele>
        <time>2021-04-18T11:21:41Z</time>
      </trkpt>
      <trkpt lat="37.2821170" lon="-2.5311770">
        <ele>1619.8</ele>
        <time>2021-04-18T11:21:45Z</time>
      </trkpt>
      <trkpt lat="37.2822510" lon="-2.5313120">
        <ele>1619.0</ele>
        <time>2021-04-18T11:21:47Z</time>
      </trkpt>
      <trkpt lat="37.2823270" lon="-2.5313580">
        <ele>1618.6</ele>
        <time>2021-04-18T11:21:48Z</time>
      </trkpt>
      <trkpt lat="37.2824190" lon="-2.5313860">
        <ele>1618.2</ele>
        <time>2021-04-18T11:21:49Z</time>
      </trkpt>
      <trkpt lat="37.2825190" lon="-2.5314120">
        <ele>1618.0</ele>
        <time>2021-04-18T11:21:50Z</time>
      </trkpt>
      <trkpt lat="37.2826040" lon="-2.5314350">
        <ele>1617.6</ele>
        <time>2021-04-18T11:21:51Z</time>
      </trkpt>
      <trkpt lat="37.2829380" lon="-2.5315230">
        <ele>1614.8</ele>
        <time>2021-04-18T11:21:54Z</time>
      </trkpt>
      <trkpt lat="37.2830300" lon="-2.5315450">
        <ele>1614.0</ele>
        <time>2021-04-18T11:21:55Z</time>
      </trkpt>
      <trkpt lat="37.2830950" lon="-2.5315780">
        <ele>1613.0</ele>
        <time>2021-04-18T11:21:56Z</time>
      </trkpt>
      <trkpt lat="37.2831580" lon="-2.5316400">
        <ele>1611.4</ele>
        <time>2021-04-18T11:21:57Z</time>
      </trkpt>
      <trkpt lat="37.2832170" lon="-2.5317320">
        <ele>1610.8</ele>
        <time>2021-04-18T11:21:58Z</time>
      </trkpt>
      <trkpt lat="37.2832670" lon="-2.5318230">
        <ele>1609.8</ele>
        <time>2021-04-18T11:21:59Z</time>
      </trkpt>
      <trkpt lat="37.2833140" lon="-2.5319250">
        <ele>1609.4</ele>
        <time>2021-04-18T11:22:00Z</time>
      </trkpt>
      <trkpt lat="37.2833500" lon="-2.5320100">
        <ele>1608.8</ele>
        <time>2021-04-18T11:22:01Z</time>
      </trkpt>
      <trkpt lat="37.2834070" lon="-2.5321360">
        <ele>1608.4</ele>
        <time>2021-04-18T11:22:02Z</time>
      </trkpt>
      <trkpt lat="37.2834660" lon="-2.5322400">
        <ele>1607.0</ele>
        <time>2021-04-18T11:22:03Z</time>
      </trkpt>
      <trkpt lat="37.2835370" lon="-2.5323410">
        <ele>1606.0</ele>
        <time>2021-04-18T11:22:04Z</time>
      </trkpt>
      <trkpt lat="37.2836150" lon="-2.5324330">
        <ele>1605.4</ele>
        <time>2021-04-18T11:22:05Z</time>
      </trkpt>
      <trkpt lat="37.2836960" lon="-2.5325160">
        <ele>1604.4</ele>
        <time>2021-04-18T11:22:06Z</time>
      </trkpt>
      <trkpt lat="37.2837680" lon="-2.5325970">
        <ele>1604.2</ele>
        <time>2021-04-18T11:22:07Z</time>
      </trkpt>
      <trkpt lat="37.2838260" lon="-2.5326840">
        <ele>1603.2</ele>
        <time>2021-04-18T11:22:08Z</time>
      </trkpt>
      <trkpt lat="37.2838660" lon="-2.5327900">
        <ele>1601.6</ele>
        <time>2021-04-18T11:22:09Z</time>
      </trkpt>
      <trkpt lat="37.2838780" lon="-2.5328820">
        <ele>1601.0</ele>
        <time>2021-04-18T11:22:10Z</time>
      </trkpt>
      <trkpt lat="37.2838830" lon="-2.5329980">
        <ele>1600.0</ele>
        <time>2021-04-18T11:22:11Z</time>
      </trkpt>
      <trkpt lat="37.2838790" lon="-2.5331130">
        <ele>1599.4</ele>
        <time>2021-04-18T11:22:12Z</time>
      </trkpt>
      <trkpt lat="37.2838830" lon="-2.5332580">
        <ele>1598.4</ele>
        <time>2021-04-18T11:22:13Z</time>
      </trkpt>
      <trkpt lat="37.2838970" lon="-2.5335170">
        <ele>1596.4</ele>
        <time>2021-04-18T11:22:15Z</time>
      </trkpt>
      <trkpt lat="37.2839100" lon="-2.5336240">
        <ele>1595.4</ele>
        <time>2021-04-18T11:22:16Z</time>
      </trkpt>
      <trkpt lat="37.2839260" lon="-2.5337560">
        <ele>1595.2</ele>
        <time>2021-04-18T11:22:17Z</time>
      </trkpt>
      <trkpt lat="37.2839650" lon="-2.5340410">
        <ele>1593.8</ele>
        <time>2021-04-18T11:22:19Z</time>
      </trkpt>
      <trkpt lat="37.2840010" lon="-2.5341730">
        <ele>1592.2</ele>
        <time>2021-04-18T11:22:20Z</time>
      </trkpt>
      <trkpt lat="37.2840300" lon="-2.5342770">
        <ele>1591.8</ele>
        <time>2021-04-18T11:22:21Z</time>
      </trkpt>
      <trkpt lat="37.2840650" lon="-2.5344100">
        <ele>1590.6</ele>
        <time>2021-04-18T11:22:22Z</time>
      </trkpt>
      <trkpt lat="37.2841360" lon="-2.5346940">
        <ele>1589.6</ele>
        <time>2021-04-18T11:22:24Z</time>
      </trkpt>
      <trkpt lat="37.2841980" lon="-2.5349270">
        <ele>1588.2</ele>
        <time>2021-04-18T11:22:26Z</time>
      </trkpt>
      <trkpt lat="37.2842270" lon="-2.5350460">
        <ele>1587.8</ele>
        <time>2021-04-18T11:22:27Z</time>
      </trkpt>
      <trkpt lat="37.2842530" lon="-2.5351860">
        <ele>1586.4</ele>
        <time>2021-04-18T11:22:28Z</time>
      </trkpt>
      <trkpt lat="37.2842580" lon="-2.5353070">
        <ele>1585.8</ele>
        <time>2021-04-18T11:22:29Z</time>
      </trkpt>
      <trkpt lat="37.2842500" lon="-2.5354310">
        <ele>1585.0</ele>
        <time>2021-04-18T11:22:30Z</time>
      </trkpt>
      <trkpt lat="37.2842180" lon="-2.5356420">
        <ele>1584.0</ele>
        <time>2021-04-18T11:22:32Z</time>
      </trkpt>
      <trkpt lat="37.2841950" lon="-2.5357750">
        <ele>1583.6</ele>
        <time>2021-04-18T11:22:33Z</time>
      </trkpt>
      <trkpt lat="37.2841730" lon="-2.5358810">
        <ele>1583.2</ele>
        <time>2021-04-18T11:22:34Z</time>
      </trkpt>
      <trkpt lat="37.2841520" lon="-2.5359850">
        <ele>1582.8</ele>
        <time>2021-04-18T11:22:35Z</time>
      </trkpt>
      <trkpt lat="37.2841360" lon="-2.5360660">
        <ele>1582.2</ele>
        <time>2021-04-18T11:22:36Z</time>
      </trkpt>
      <trkpt lat="37.2841180" lon="-2.5361600">
        <ele>1581.0</ele>
        <time>2021-04-18T11:22:37Z</time>
      </trkpt>
      <trkpt lat="37.2841000" lon="-2.5362590">
        <ele>1580.8</ele>
        <time>2021-04-18T11:22:38Z</time>
      </trkpt>
      <trkpt lat="37.2840920" lon="-2.5363260">
        <ele>1580.4</ele>
        <time>2021-04-18T11:22:39Z</time>
      </trkpt>
      <trkpt lat="37.2840880" lon="-2.5363740">
        <ele>1580.2</ele>
        <time>2021-04-18T11:22:40Z</time>
      </trkpt>
      <trkpt lat="37.2840860" lon="-2.5364060">
        <ele>1580.0</ele>
        <time>2021-04-18T11:22:41Z</time>
      </trkpt>
      <trkpt lat="37.2840860" lon="-2.5364290">
        <ele>1579.8</ele>
        <time>2021-04-18T11:22:42Z</time>
      </trkpt>
      <trkpt lat="37.2840870" lon="-2.5364380">
        <ele>1579.6</ele>
        <time>2021-04-18T11:22:43Z</time>
      </trkpt>
      <trkpt lat="37.2840870" lon="-2.5364360">
        <ele>1579.0</ele>
        <time>2021-04-18T11:22:44Z</time>
      </trkpt>
      <trkpt lat="37.2840840" lon="-2.5364360">
        <ele>1578.8</ele>
        <time>2021-04-18T11:22:45Z</time>
      </trkpt>
      <trkpt lat="37.2840840" lon="-2.5364360">
        <ele>1578.4</ele>
        <time>2021-04-18T11:22:46Z</time>
      </trkpt>
      <trkpt lat="37.2840770" lon="-2.5365010">
        <ele>1576.0</ele>
        <time>2021-04-18T11:27:18Z</time>
      </trkpt>
      <trkpt lat="37.2840750" lon="-2.5365460">
        <ele>1576.0</ele>
        <time>2021-04-18T11:27:19Z</time>
      </trkpt>
      <trkpt lat="37.2840990" lon="-2.5368180">
        <ele>1576.2</ele>
        <time>2021-04-18T11:27:23Z</time>
      </trkpt>
      <trkpt lat="37.2841090" lon="-2.5368980">
        <ele>1576.0</ele>
        <time>2021-04-18T11:27:24Z</time>
      </trkpt>
      <trkpt lat="37.2841740" lon="-2.5372050">
        <ele>1575.0</ele>
        <time>2021-04-18T11:27:28Z</time>
      </trkpt>
      <trkpt lat="37.2841900" lon="-2.5372810">
        <ele>1574.8</ele>
        <time>2021-04-18T11:27:29Z</time>
      </trkpt>
      <trkpt lat="37.2842060" lon="-2.5373570">
        <ele>1574.6</ele>
        <time>2021-04-18T11:27:30Z</time>
      </trkpt>
      <trkpt lat="37.2842380" lon="-2.5377070">
        <ele>1574.4</ele>
        <time>2021-04-18T11:27:34Z</time>
      </trkpt>
      <trkpt lat="37.2842560" lon="-2.5378140">
        <ele>1573.8</ele>
        <time>2021-04-18T11:27:35Z</time>
      </trkpt>
      <trkpt lat="37.2842890" lon="-2.5379220">
        <ele>1573.8</ele>
        <time>2021-04-18T11:27:36Z</time>
      </trkpt>
      <trkpt lat="37.2843330" lon="-2.5380300">
        <ele>1573.4</ele>
        <time>2021-04-18T11:27:37Z</time>
      </trkpt>
      <trkpt lat="37.2844610" lon="-2.5383470">
        <ele>1572.0</ele>
        <time>2021-04-18T11:27:40Z</time>
      </trkpt>
      <trkpt lat="37.2845350" lon="-2.5386010">
        <ele>1570.8</ele>
        <time>2021-04-18T11:27:42Z</time>
      </trkpt>
      <trkpt lat="37.2846130" lon="-2.5388430">
        <ele>1568.8</ele>
        <time>2021-04-18T11:27:44Z</time>
      </trkpt>
      <trkpt lat="37.2846570" lon="-2.5389500">
        <ele>1567.8</ele>
        <time>2021-04-18T11:27:45Z</time>
      </trkpt>
      <trkpt lat="37.2847070" lon="-2.5390570">
        <ele>1566.6</ele>
        <time>2021-04-18T11:27:46Z</time>
      </trkpt>
      <trkpt lat="37.2847600" lon="-2.5391670">
        <ele>1565.0</ele>
        <time>2021-04-18T11:27:47Z</time>
      </trkpt>
      <trkpt lat="37.2848720" lon="-2.5393730">
        <ele>1562.0</ele>
        <time>2021-04-18T11:27:49Z</time>
      </trkpt>
      <trkpt lat="37.2849290" lon="-2.5394640">
        <ele>1561.0</ele>
        <time>2021-04-18T11:27:50Z</time>
      </trkpt>
      <trkpt lat="37.2849760" lon="-2.5395460">
        <ele>1559.2</ele>
        <time>2021-04-18T11:27:51Z</time>
      </trkpt>
      <trkpt lat="37.2850110" lon="-2.5396160">
        <ele>1557.4</ele>
        <time>2021-04-18T11:27:52Z</time>
      </trkpt>
      <trkpt lat="37.2850470" lon="-2.5396750">
        <ele>1556.2</ele>
        <time>2021-04-18T11:27:53Z</time>
      </trkpt>
      <trkpt lat="37.2850940" lon="-2.5397180">
        <ele>1553.4</ele>
        <time>2021-04-18T11:27:54Z</time>
      </trkpt>
      <trkpt lat="37.2851390" lon="-2.5397330">
        <ele>1552.0</ele>
        <time>2021-04-18T11:27:55Z</time>
      </trkpt>
      <trkpt lat="37.2851750" lon="-2.5397270">
        <ele>1550.0</ele>
        <time>2021-04-18T11:27:56Z</time>
      </trkpt>
      <trkpt lat="37.2852150" lon="-2.5396980">
        <ele>1549.0</ele>
        <time>2021-04-18T11:27:57Z</time>
      </trkpt>
      <trkpt lat="37.2852480" lon="-2.5396390">
        <ele>1547.4</ele>
        <time>2021-04-18T11:27:58Z</time>
      </trkpt>
      <trkpt lat="37.2853000" lon="-2.5395610">
        <ele>1546.0</ele>
        <time>2021-04-18T11:27:59Z</time>
      </trkpt>
      <trkpt lat="37.2853670" lon="-2.5395020">
        <ele>1545.2</ele>
        <time>2021-04-18T11:28:00Z</time>
      </trkpt>
      <trkpt lat="37.2854500" lon="-2.5394720">
        <ele>1543.0</ele>
        <time>2021-04-18T11:28:01Z</time>
      </trkpt>
      <trkpt lat="37.2856290" lon="-2.5394710">
        <ele>1541.6</ele>
        <time>2021-04-18T11:28:03Z</time>
      </trkpt>
      <trkpt lat="37.2857360" lon="-2.5394840">
        <ele>1540.8</ele>
        <time>2021-04-18T11:28:04Z</time>
      </trkpt>
      <trkpt lat="37.2858680" lon="-2.5395040">
        <ele>1539.4</ele>
        <time>2021-04-18T11:28:05Z</time>
      </trkpt>
      <trkpt lat="37.2859590" lon="-2.5395210">
        <ele>1537.6</ele>
        <time>2021-04-18T11:28:06Z</time>
      </trkpt>
      <trkpt lat="37.2861910" lon="-2.5395570">
        <ele>1536.0</ele>
        <time>2021-04-18T11:28:08Z</time>
      </trkpt>
      <trkpt lat="37.2864550" lon="-2.5395670">
        <ele>1534.6</ele>
        <time>2021-04-18T11:28:10Z</time>
      </trkpt>
      <trkpt lat="37.2865730" lon="-2.5395500">
        <ele>1533.4</ele>
        <time>2021-04-18T11:28:11Z</time>
      </trkpt>
      <trkpt lat="37.2866630" lon="-2.5395250">
        <ele>1532.4</ele>
        <time>2021-04-18T11:28:12Z</time>
      </trkpt>
      <trkpt lat="37.2867720" lon="-2.5394940">
        <ele>1531.2</ele>
        <time>2021-04-18T11:28:13Z</time>
      </trkpt>
      <trkpt lat="37.2868950" lon="-2.5394700">
        <ele>1530.6</ele>
        <time>2021-04-18T11:28:14Z</time>
      </trkpt>
      <trkpt lat="37.2869980" lon="-2.5394800">
        <ele>1529.2</ele>
        <time>2021-04-18T11:28:15Z</time>
      </trkpt>
      <trkpt lat="37.2871020" lon="-2.5395130">
        <ele>1528.8</ele>
        <time>2021-04-18T11:28:16Z</time>
      </trkpt>
      <trkpt lat="37.2872070" lon="-2.5395720">
        <ele>1527.8</ele>
        <time>2021-04-18T11:28:17Z</time>
      </trkpt>
      <trkpt lat="37.2872810" lon="-2.5396320">
        <ele>1526.8</ele>
        <time>2021-04-18T11:28:18Z</time>
      </trkpt>
      <trkpt lat="37.2873720" lon="-2.5397380">
        <ele>1526.4</ele>
        <time>2021-04-18T11:28:19Z</time>
      </trkpt>
      <trkpt lat="37.2874160" lon="-2.5398400">
        <ele>1524.4</ele>
        <time>2021-04-18T11:28:20Z</time>
      </trkpt>
      <trkpt lat="37.2874410" lon="-2.5399500">
        <ele>1523.2</ele>
        <time>2021-04-18T11:28:21Z</time>
      </trkpt>
      <trkpt lat="37.2874440" lon="-2.5400440">
        <ele>1521.6</ele>
        <time>2021-04-18T11:28:22Z</time>
      </trkpt>
      <trkpt lat="37.2874420" lon="-2.5401680">
        <ele>1519.4</ele>
        <time>2021-04-18T11:28:23Z</time>
      </trkpt>
      <trkpt lat="37.2874370" lon="-2.5403150">
        <ele>1518.4</ele>
        <time>2021-04-18T11:28:24Z</time>
      </trkpt>
      <trkpt lat="37.2874440" lon="-2.5404290">
        <ele>1516.8</ele>
        <time>2021-04-18T11:28:25Z</time>
      </trkpt>
      <trkpt lat="37.2874600" lon="-2.5405300">
        <ele>1516.2</ele>
        <time>2021-04-18T11:28:26Z</time>
      </trkpt>
      <trkpt lat="37.2875020" lon="-2.5406150">
        <ele>1515.0</ele>
        <time>2021-04-18T11:28:27Z</time>
      </trkpt>
      <trkpt lat="37.2875680" lon="-2.5406830">
        <ele>1514.4</ele>
        <time>2021-04-18T11:28:28Z</time>
      </trkpt>
      <trkpt lat="37.2876520" lon="-2.5407150">
        <ele>1513.6</ele>
        <time>2021-04-18T11:28:29Z</time>
      </trkpt>
      <trkpt lat="37.2877560" lon="-2.5407290">
        <ele>1512.6</ele>
        <time>2021-04-18T11:28:30Z</time>
      </trkpt>
      <trkpt lat="37.2878680" lon="-2.5407560">
        <ele>1512.2</ele>
        <time>2021-04-18T11:28:31Z</time>
      </trkpt>
      <trkpt lat="37.2879790" lon="-2.5408090">
        <ele>1510.8</ele>
        <time>2021-04-18T11:28:32Z</time>
      </trkpt>
      <trkpt lat="37.2880880" lon="-2.5408720">
        <ele>1510.2</ele>
        <time>2021-04-18T11:28:33Z</time>
      </trkpt>
      <trkpt lat="37.2881770" lon="-2.5409140">
        <ele>1508.8</ele>
        <time>2021-04-18T11:28:34Z</time>
      </trkpt>
      <trkpt lat="37.2883150" lon="-2.5409640">
        <ele>1507.8</ele>
        <time>2021-04-18T11:28:35Z</time>
      </trkpt>
      <trkpt lat="37.2884350" lon="-2.5409770">
        <ele>1506.2</ele>
        <time>2021-04-18T11:28:36Z</time>
      </trkpt>
      <trkpt lat="37.2886550" lon="-2.5410000">
        <ele>1505.2</ele>
        <time>2021-04-18T11:28:38Z</time>
      </trkpt>
      <trkpt lat="37.2887720" lon="-2.5410340">
        <ele>1502.8</ele>
        <time>2021-04-18T11:28:39Z</time>
      </trkpt>
      <trkpt lat="37.2888930" lon="-2.5410840">
        <ele>1501.8</ele>
        <time>2021-04-18T11:28:40Z</time>
      </trkpt>
      <trkpt lat="37.2889890" lon="-2.5411170">
        <ele>1500.2</ele>
        <time>2021-04-18T11:28:41Z</time>
      </trkpt>
      <trkpt lat="37.2890650" lon="-2.5411290">
        <ele>1499.2</ele>
        <time>2021-04-18T11:28:42Z</time>
      </trkpt>
      <trkpt lat="37.2891650" lon="-2.5411360">
        <ele>1499.0</ele>
        <time>2021-04-18T11:28:43Z</time>
      </trkpt>
      <trkpt lat="37.2892740" lon="-2.5411470">
        <ele>1498.2</ele>
        <time>2021-04-18T11:28:44Z</time>
      </trkpt>
      <trkpt lat="37.2894090" lon="-2.5411790">
        <ele>1497.8</ele>
        <time>2021-04-18T11:28:45Z</time>
      </trkpt>
      <trkpt lat="37.2895200" lon="-2.5412010">
        <ele>1496.6</ele>
        <time>2021-04-18T11:28:46Z</time>
      </trkpt>
      <trkpt lat="37.2896050" lon="-2.5412040">
        <ele>1495.8</ele>
        <time>2021-04-18T11:28:47Z</time>
      </trkpt>
      <trkpt lat="37.2897080" lon="-2.5412050">
        <ele>1494.4</ele>
        <time>2021-04-18T11:28:48Z</time>
      </trkpt>
      <trkpt lat="37.2898110" lon="-2.5412240">
        <ele>1492.2</ele>
        <time>2021-04-18T11:28:49Z</time>
      </trkpt>
      <trkpt lat="37.2899330" lon="-2.5412630">
        <ele>1491.4</ele>
        <time>2021-04-18T11:28:50Z</time>
      </trkpt>
      <trkpt lat="37.2900330" lon="-2.5412820">
        <ele>1490.6</ele>
        <time>2021-04-18T11:28:51Z</time>
      </trkpt>
      <trkpt lat="37.2901280" lon="-2.5412790">
        <ele>1490.2</ele>
        <time>2021-04-18T11:28:52Z</time>
      </trkpt>
      <trkpt lat="37.2902040" lon="-2.5412640">
        <ele>1489.6</ele>
        <time>2021-04-18T11:28:53Z</time>
      </trkpt>
      <trkpt lat="37.2902980" lon="-2.5412370">
        <ele>1489.4</ele>
        <time>2021-04-18T11:28:54Z</time>
      </trkpt>
      <trkpt lat="37.2905310" lon="-2.5411700">
        <ele>1488.0</ele>
        <time>2021-04-18T11:28:56Z</time>
      </trkpt>
      <trkpt lat="37.2907370" lon="-2.5411190">
        <ele>1486.4</ele>
        <time>2021-04-18T11:28:58Z</time>
      </trkpt>
      <trkpt lat="37.2909640" lon="-2.5410370">
        <ele>1484.0</ele>
        <time>2021-04-18T11:29:00Z</time>
      </trkpt>
      <trkpt lat="37.2910640" lon="-2.5409800">
        <ele>1481.8</ele>
        <time>2021-04-18T11:29:01Z</time>
      </trkpt>
      <trkpt lat="37.2912740" lon="-2.5408850">
        <ele>1478.8</ele>
        <time>2021-04-18T11:29:03Z</time>
      </trkpt>
      <trkpt lat="37.2913610" lon="-2.5408800">
        <ele>1477.2</ele>
        <time>2021-04-18T11:29:04Z</time>
      </trkpt>
      <trkpt lat="37.2914950" lon="-2.5409030">
        <ele>1475.0</ele>
        <time>2021-04-18T11:29:05Z</time>
      </trkpt>
      <trkpt lat="37.2916110" lon="-2.5409510">
        <ele>1474.2</ele>
        <time>2021-04-18T11:29:06Z</time>
      </trkpt>
      <trkpt lat="37.2917300" lon="-2.5410110">
        <ele>1472.4</ele>
        <time>2021-04-18T11:29:07Z</time>
      </trkpt>
      <trkpt lat="37.2918520" lon="-2.5410680">
        <ele>1471.0</ele>
        <time>2021-04-18T11:29:08Z</time>
      </trkpt>
      <trkpt lat="37.2919570" lon="-2.5410890">
        <ele>1470.2</ele>
        <time>2021-04-18T11:29:09Z</time>
      </trkpt>
      <trkpt lat="37.2921220" lon="-2.5410970">
        <ele>1468.8</ele>
        <time>2021-04-18T11:29:10Z</time>
      </trkpt>
      <trkpt lat="37.2923960" lon="-2.5411000">
        <ele>1466.0</ele>
        <time>2021-04-18T11:29:12Z</time>
      </trkpt>
      <trkpt lat="37.2925080" lon="-2.5411190">
        <ele>1464.4</ele>
        <time>2021-04-18T11:29:13Z</time>
      </trkpt>
      <trkpt lat="37.2928040" lon="-2.5412150">
        <ele>1461.6</ele>
        <time>2021-04-18T11:29:15Z</time>
      </trkpt>
      <trkpt lat="37.2929360" lon="-2.5412370">
        <ele>1460.6</ele>
        <time>2021-04-18T11:29:16Z</time>
      </trkpt>
      <trkpt lat="37.2930400" lon="-2.5412460">
        <ele>1458.6</ele>
        <time>2021-04-18T11:29:17Z</time>
      </trkpt>
      <trkpt lat="37.2931690" lon="-2.5412650">
        <ele>1457.0</ele>
        <time>2021-04-18T11:29:18Z</time>
      </trkpt>
      <trkpt lat="37.2933000" lon="-2.5412970">
        <ele>1455.0</ele>
        <time>2021-04-18T11:29:19Z</time>
      </trkpt>
      <trkpt lat="37.2934550" lon="-2.5413400">
        <ele>1454.0</ele>
        <time>2021-04-18T11:29:20Z</time>
      </trkpt>
      <trkpt lat="37.2935850" lon="-2.5413760">
        <ele>1453.6</ele>
        <time>2021-04-18T11:29:21Z</time>
      </trkpt>
      <trkpt lat="37.2937170" lon="-2.5414120">
        <ele>1452.0</ele>
        <time>2021-04-18T11:29:22Z</time>
      </trkpt>
      <trkpt lat="37.2938150" lon="-2.5414370">
        <ele>1450.8</ele>
        <time>2021-04-18T11:29:23Z</time>
      </trkpt>
      <trkpt lat="37.2939280" lon="-2.5414630">
        <ele>1449.2</ele>
        <time>2021-04-18T11:29:24Z</time>
      </trkpt>
      <trkpt lat="37.2940560" lon="-2.5414620">
        <ele>1448.2</ele>
        <time>2021-04-18T11:29:25Z</time>
      </trkpt>
      <trkpt lat="37.2941570" lon="-2.5414230">
        <ele>1446.4</ele>
        <time>2021-04-18T11:29:26Z</time>
      </trkpt>
      <trkpt lat="37.2942540" lon="-2.5413650">
        <ele>1444.0</ele>
        <time>2021-04-18T11:29:27Z</time>
      </trkpt>
      <trkpt lat="37.2943340" lon="-2.5413160">
        <ele>1443.2</ele>
        <time>2021-04-18T11:29:28Z</time>
      </trkpt>
      <trkpt lat="37.2945150" lon="-2.5412920">
        <ele>1441.0</ele>
        <time>2021-04-18T11:29:29Z</time>
      </trkpt>
      <trkpt lat="37.2946960" lon="-2.5412670">
        <ele>1440.2</ele>
        <time>2021-04-18T11:29:30Z</time>
      </trkpt>
      <trkpt lat="37.2947600" lon="-2.5412840">
        <ele>1437.6</ele>
        <time>2021-04-18T11:29:31Z</time>
      </trkpt>
      <trkpt lat="37.2948230" lon="-2.5413020">
        <ele>1435.2</ele>
        <time>2021-04-18T11:29:32Z</time>
      </trkpt>
      <trkpt lat="37.2949490" lon="-2.5413370">
        <ele>1434.4</ele>
        <time>2021-04-18T11:29:33Z</time>
      </trkpt>
      <trkpt lat="37.2950180" lon="-2.5413750">
        <ele>1432.4</ele>
        <time>2021-04-18T11:29:34Z</time>
      </trkpt>
      <trkpt lat="37.2950470" lon="-2.5414070">
        <ele>1431.6</ele>
        <time>2021-04-18T11:29:35Z</time>
      </trkpt>
      <trkpt lat="37.2950760" lon="-2.5414400">
        <ele>1430.2</ele>
        <time>2021-04-18T11:29:36Z</time>
      </trkpt>
      <trkpt lat="37.2951030" lon="-2.5414440">
        <ele>1429.8</ele>
        <time>2021-04-18T11:29:37Z</time>
      </trkpt>
      <trkpt lat="37.2951180" lon="-2.5414380">
        <ele>1428.8</ele>
        <time>2021-04-18T11:29:38Z</time>
      </trkpt>
      <trkpt lat="37.2951320" lon="-2.5414310">
        <ele>1427.4</ele>
        <time>2021-04-18T11:29:39Z</time>
      </trkpt>
      <trkpt lat="37.2951470" lon="-2.5414250">
        <ele>1420.4</ele>
        <time>2021-04-18T11:30:53Z</time>
      </trkpt>
      <trkpt lat="37.2951620" lon="-2.5414180">
        <ele>1420.4</ele>
        <time>2021-04-18T11:30:54Z</time>
      </trkpt>
      <trkpt lat="37.2953390" lon="-2.5414000">
        <ele>1420.0</ele>
        <time>2021-04-18T11:30:57Z</time>
      </trkpt>
      <trkpt lat="37.2954480" lon="-2.5414110">
        <ele>1419.8</ele>
        <time>2021-04-18T11:30:59Z</time>
      </trkpt>
      <trkpt lat="37.2954960" lon="-2.5414210">
        <ele>1419.4</ele>
        <time>2021-04-18T11:31:00Z</time>
      </trkpt>
      <trkpt lat="37.2955510" lon="-2.5414320">
        <ele>1419.2</ele>
        <time>2021-04-18T11:31:01Z</time>
      </trkpt>
      <trkpt lat="37.2956020" lon="-2.5414430">
        <ele>1418.6</ele>
        <time>2021-04-18T11:31:02Z</time>
      </trkpt>
      <trkpt lat="37.2956310" lon="-2.5414500">
        <ele>1418.4</ele>
        <time>2021-04-18T11:31:03Z</time>
      </trkpt>
      <trkpt lat="37.2956680" lon="-2.5414570">
        <ele>1417.8</ele>
        <time>2021-04-18T11:31:04Z</time>
      </trkpt>
      <trkpt lat="37.2956850" lon="-2.5414630">
        <ele>1417.2</ele>
        <time>2021-04-18T11:31:05Z</time>
      </trkpt>
      <trkpt lat="37.2957080" lon="-2.5414700">
        <ele>1417.0</ele>
        <time>2021-04-18T11:31:06Z</time>
      </trkpt>
      <trkpt lat="37.2957430" lon="-2.5414800">
        <ele>1416.2</ele>
        <time>2021-04-18T11:31:07Z</time>
      </trkpt>
      <trkpt lat="37.2957780" lon="-2.5414900">
        <ele>1416.0</ele>
        <time>2021-04-18T11:31:08Z</time>
      </trkpt>
      <trkpt lat="37.2958240" lon="-2.5414990">
        <ele>1415.4</ele>
        <time>2021-04-18T11:31:09Z</time>
      </trkpt>
      <trkpt lat="37.2958650" lon="-2.5415050">
        <ele>1415.2</ele>
        <time>2021-04-18T11:31:10Z</time>
      </trkpt>
      <trkpt lat="37.2959180" lon="-2.5415100">
        <ele>1414.6</ele>
        <time>2021-04-18T11:31:11Z</time>
      </trkpt>
      <trkpt lat="37.2959740" lon="-2.5415070">
        <ele>1414.2</ele>
        <time>2021-04-18T11:31:12Z</time>
      </trkpt>
      <trkpt lat="37.2961400" lon="-2.5414840">
        <ele>1413.6</ele>
        <time>2021-04-18T11:31:15Z</time>
      </trkpt>
      <trkpt lat="37.2961940" lon="-2.5414790">
        <ele>1413.2</ele>
        <time>2021-04-18T11:31:16Z</time>
      </trkpt>
      <trkpt lat="37.2962510" lon="-2.5414780">
        <ele>1413.0</ele>
        <time>2021-04-18T11:31:17Z</time>
      </trkpt>
      <trkpt lat="37.2963790" lon="-2.5414890">
        <ele>1412.8</ele>
        <time>2021-04-18T11:31:19Z</time>
      </trkpt>
      <trkpt lat="37.2965560" lon="-2.5415440">
        <ele>1412.4</ele>
        <time>2021-04-18T11:31:22Z</time>
      </trkpt>
      <trkpt lat="37.2968420" lon="-2.5416760">
        <ele>1412.0</ele>
        <time>2021-04-18T11:31:26Z</time>
      </trkpt>
      <trkpt lat="37.2969740" lon="-2.5417400">
        <ele>1411.6</ele>
        <time>2021-04-18T11:31:28Z</time>
      </trkpt>
      <trkpt lat="37.2971400" lon="-2.5418240">
        <ele>1411.2</ele>
        <time>2021-04-18T11:31:30Z</time>
      </trkpt>
      <trkpt lat="37.2972750" lon="-2.5419110">
        <ele>1411.0</ele>
        <time>2021-04-18T11:31:32Z</time>
      </trkpt>
      <trkpt lat="37.2973470" lon="-2.5419740">
        <ele>1410.4</ele>
        <time>2021-04-18T11:31:33Z</time>
      </trkpt>
      <trkpt lat="37.2974940" lon="-2.5421450">
        <ele>1409.6</ele>
        <time>2021-04-18T11:31:35Z</time>
      </trkpt>
      <trkpt lat="37.2975540" lon="-2.5422340">
        <ele>1409.2</ele>
        <time>2021-04-18T11:31:36Z</time>
      </trkpt>
      <trkpt lat="37.2976030" lon="-2.5423080">
        <ele>1409.0</ele>
        <time>2021-04-18T11:31:37Z</time>
      </trkpt>
      <trkpt lat="37.2977420" lon="-2.5424830">
        <ele>1408.4</ele>
        <time>2021-04-18T11:31:39Z</time>
      </trkpt>
      <trkpt lat="37.2978390" lon="-2.5425840">
        <ele>1407.4</ele>
        <time>2021-04-18T11:31:40Z</time>
      </trkpt>
      <trkpt lat="37.2979270" lon="-2.5426660">
        <ele>1407.0</ele>
        <time>2021-04-18T11:31:41Z</time>
      </trkpt>
      <trkpt lat="37.2979990" lon="-2.5427310">
        <ele>1406.4</ele>
        <time>2021-04-18T11:31:42Z</time>
      </trkpt>
      <trkpt lat="37.2981900" lon="-2.5428900">
        <ele>1405.6</ele>
        <time>2021-04-18T11:31:44Z</time>
      </trkpt>
      <trkpt lat="37.2982940" lon="-2.5429540">
        <ele>1404.8</ele>
        <time>2021-04-18T11:31:45Z</time>
      </trkpt>
      <trkpt lat="37.2984020" lon="-2.5429940">
        <ele>1404.4</ele>
        <time>2021-04-18T11:31:46Z</time>
      </trkpt>
      <trkpt lat="37.2985110" lon="-2.5430130">
        <ele>1402.8</ele>
        <time>2021-04-18T11:31:47Z</time>
      </trkpt>
      <trkpt lat="37.2986230" lon="-2.5430150">
        <ele>1402.0</ele>
        <time>2021-04-18T11:31:48Z</time>
      </trkpt>
      <trkpt lat="37.2987370" lon="-2.5429950">
        <ele>1401.6</ele>
        <time>2021-04-18T11:31:49Z</time>
      </trkpt>
      <trkpt lat="37.2988350" lon="-2.5429780">
        <ele>1400.4</ele>
        <time>2021-04-18T11:31:50Z</time>
      </trkpt>
      <trkpt lat="37.2989330" lon="-2.5429600">
        <ele>1399.8</ele>
        <time>2021-04-18T11:31:51Z</time>
      </trkpt>
      <trkpt lat="37.2991290" lon="-2.5429250">
        <ele>1398.6</ele>
        <time>2021-04-18T11:31:52Z</time>
      </trkpt>
      <trkpt lat="37.2992330" lon="-2.5429300">
        <ele>1398.4</ele>
        <time>2021-04-18T11:31:53Z</time>
      </trkpt>
      <trkpt lat="37.2993650" lon="-2.5429540">
        <ele>1396.8</ele>
        <time>2021-04-18T11:31:54Z</time>
      </trkpt>
      <trkpt lat="37.2994980" lon="-2.5430000">
        <ele>1395.4</ele>
        <time>2021-04-18T11:31:55Z</time>
      </trkpt>
      <trkpt lat="37.2996290" lon="-2.5430510">
        <ele>1394.8</ele>
        <time>2021-04-18T11:31:56Z</time>
      </trkpt>
      <trkpt lat="37.2997530" lon="-2.5430890">
        <ele>1393.8</ele>
        <time>2021-04-18T11:31:57Z</time>
      </trkpt>
      <trkpt lat="37.2999820" lon="-2.5431010">
        <ele>1391.0</ele>
        <time>2021-04-18T11:31:59Z</time>
      </trkpt>
      <trkpt lat="37.3000900" lon="-2.5430650">
        <ele>1389.0</ele>
        <time>2021-04-18T11:32:00Z</time>
      </trkpt>
      <trkpt lat="37.3001930" lon="-2.5430040">
        <ele>1388.0</ele>
        <time>2021-04-18T11:32:01Z</time>
      </trkpt>
      <trkpt lat="37.3002920" lon="-2.5429160">
        <ele>1386.4</ele>
        <time>2021-04-18T11:32:02Z</time>
      </trkpt>
      <trkpt lat="37.3003870" lon="-2.5428060">
        <ele>1385.0</ele>
        <time>2021-04-18T11:32:03Z</time>
      </trkpt>
      <trkpt lat="37.3005060" lon="-2.5426640">
        <ele>1383.6</ele>
        <time>2021-04-18T11:32:04Z</time>
      </trkpt>
      <trkpt lat="37.3006110" lon="-2.5425470">
        <ele>1381.8</ele>
        <time>2021-04-18T11:32:05Z</time>
      </trkpt>
      <trkpt lat="37.3007230" lon="-2.5424340">
        <ele>1380.0</ele>
        <time>2021-04-18T11:32:06Z</time>
      </trkpt>
      <trkpt lat="37.3008380" lon="-2.5423220">
        <ele>1377.8</ele>
        <time>2021-04-18T11:32:07Z</time>
      </trkpt>
      <trkpt lat="37.3009590" lon="-2.5422130">
        <ele>1376.6</ele>
        <time>2021-04-18T11:32:08Z</time>
      </trkpt>
      <trkpt lat="37.3010850" lon="-2.5421100">
        <ele>1374.6</ele>
        <time>2021-04-18T11:32:09Z</time>
      </trkpt>
      <trkpt lat="37.3013460" lon="-2.5419190">
        <ele>1372.8</ele>
        <time>2021-04-18T11:32:11Z</time>
      </trkpt>
      <trkpt lat="37.3014080" lon="-2.5418770">
        <ele>1370.8</ele>
        <time>2021-04-18T11:32:12Z</time>
      </trkpt>
      <trkpt lat="37.3014690" lon="-2.5418340">
        <ele>1370.2</ele>
        <time>2021-04-18T11:32:13Z</time>
      </trkpt>
      <trkpt lat="37.3015920" lon="-2.5417500">
        <ele>1368.4</ele>
        <time>2021-04-18T11:32:14Z</time>
      </trkpt>
      <trkpt lat="37.3018180" lon="-2.5416600">
        <ele>1367.6</ele>
        <time>2021-04-18T11:32:15Z</time>
      </trkpt>
      <trkpt lat="37.3019210" lon="-2.5416540">
        <ele>1366.6</ele>
        <time>2021-04-18T11:32:16Z</time>
      </trkpt>
      <trkpt lat="37.3021270" lon="-2.5416420">
        <ele>1366.2</ele>
        <time>2021-04-18T11:32:17Z</time>
      </trkpt>
      <trkpt lat="37.3022210" lon="-2.5416200">
        <ele>1364.8</ele>
        <time>2021-04-18T11:32:18Z</time>
      </trkpt>
      <trkpt lat="37.3023150" lon="-2.5415970">
        <ele>1363.4</ele>
        <time>2021-04-18T11:32:19Z</time>
      </trkpt>
      <trkpt lat="37.3025020" lon="-2.5415510">
        <ele>1362.8</ele>
        <time>2021-04-18T11:32:20Z</time>
      </trkpt>
      <trkpt lat="37.3025920" lon="-2.5414920">
        <ele>1361.6</ele>
        <time>2021-04-18T11:32:21Z</time>
      </trkpt>
      <trkpt lat="37.3026820" lon="-2.5414320">
        <ele>1360.8</ele>
        <time>2021-04-18T11:32:22Z</time>
      </trkpt>
      <trkpt lat="37.3028610" lon="-2.5413120">
        <ele>1359.0</ele>
        <time>2021-04-18T11:32:23Z</time>
      </trkpt>
      <trkpt lat="37.3029890" lon="-2.5412430">
        <ele>1357.8</ele>
        <time>2021-04-18T11:32:24Z</time>
      </trkpt>
      <trkpt lat="37.3031200" lon="-2.5411950">
        <ele>1356.4</ele>
        <time>2021-04-18T11:32:25Z</time>
      </trkpt>
      <trkpt lat="37.3032480" lon="-2.5411880">
        <ele>1355.2</ele>
        <time>2021-04-18T11:32:26Z</time>
      </trkpt>
      <trkpt lat="37.3033720" lon="-2.5412110">
        <ele>1354.8</ele>
        <time>2021-04-18T11:32:27Z</time>
      </trkpt>
      <trkpt lat="37.3034950" lon="-2.5412300">
        <ele>1352.8</ele>
        <time>2021-04-18T11:32:28Z</time>
      </trkpt>
      <trkpt lat="37.3036210" lon="-2.5412260">
        <ele>1351.8</ele>
        <time>2021-04-18T11:32:29Z</time>
      </trkpt>
      <trkpt lat="37.3037450" lon="-2.5412050">
        <ele>1349.4</ele>
        <time>2021-04-18T11:32:30Z</time>
      </trkpt>
      <trkpt lat="37.3038670" lon="-2.5411920">
        <ele>1347.4</ele>
        <time>2021-04-18T11:32:31Z</time>
      </trkpt>
      <trkpt lat="37.3039740" lon="-2.5411950">
        <ele>1346.6</ele>
        <time>2021-04-18T11:32:32Z</time>
      </trkpt>
      <trkpt lat="37.3040580" lon="-2.5412140">
        <ele>1344.8</ele>
        <time>2021-04-18T11:32:33Z</time>
      </trkpt>
      <trkpt lat="37.3041310" lon="-2.5412570">
        <ele>1343.8</ele>
        <time>2021-04-18T11:32:34Z</time>
      </trkpt>
      <trkpt lat="37.3041600" lon="-2.5413210">
        <ele>1342.0</ele>
        <time>2021-04-18T11:32:35Z</time>
      </trkpt>
      <trkpt lat="37.3041520" lon="-2.5413890">
        <ele>1341.2</ele>
        <time>2021-04-18T11:32:36Z</time>
      </trkpt>
      <trkpt lat="37.3041040" lon="-2.5414490">
        <ele>1340.2</ele>
        <time>2021-04-18T11:32:37Z</time>
      </trkpt>
      <trkpt lat="37.3040330" lon="-2.5415050">
        <ele>1338.4</ele>
        <time>2021-04-18T11:32:38Z</time>
      </trkpt>
      <trkpt lat="37.3039530" lon="-2.5415650">
        <ele>1337.6</ele>
        <time>2021-04-18T11:32:39Z</time>
      </trkpt>
      <trkpt lat="37.3038720" lon="-2.5416450">
        <ele>1335.6</ele>
        <time>2021-04-18T11:32:40Z</time>
      </trkpt>
      <trkpt lat="37.3037950" lon="-2.5417320">
        <ele>1334.6</ele>
        <time>2021-04-18T11:32:41Z</time>
      </trkpt>
      <trkpt lat="37.3037150" lon="-2.5418210">
        <ele>1333.2</ele>
        <time>2021-04-18T11:32:42Z</time>
      </trkpt>
      <trkpt lat="37.3036320" lon="-2.5419000">
        <ele>1332.2</ele>
        <time>2021-04-18T11:32:43Z</time>
      </trkpt>
      <trkpt lat="37.3035410" lon="-2.5419630">
        <ele>1331.6</ele>
        <time>2021-04-18T11:32:44Z</time>
      </trkpt>
      <trkpt lat="37.3034480" lon="-2.5420040">
        <ele>1330.4</ele>
        <time>2021-04-18T11:32:45Z</time>
      </trkpt>
      <trkpt lat="37.3032870" lon="-2.5420850">
        <ele>1329.0</ele>
        <time>2021-04-18T11:32:47Z</time>
      </trkpt>
      <trkpt lat="37.3032370" lon="-2.5421520">
        <ele>1328.6</ele>
        <time>2021-04-18T11:32:48Z</time>
      </trkpt>
      <trkpt lat="37.3032520" lon="-2.5422030">
        <ele>1328.0</ele>
        <time>2021-04-18T11:32:49Z</time>
      </trkpt>
      <trkpt lat="37.3032670" lon="-2.5422540">
        <ele>1327.2</ele>
        <time>2021-04-18T11:32:50Z</time>
      </trkpt>
      <trkpt lat="37.3032960" lon="-2.5423570">
        <ele>1326.8</ele>
        <time>2021-04-18T11:32:51Z</time>
      </trkpt>
      <trkpt lat="37.3033630" lon="-2.5423520">
        <ele>1325.6</ele>
        <time>2021-04-18T11:32:52Z</time>
      </trkpt>
      <trkpt lat="37.3034290" lon="-2.5423460">
        <ele>1325.2</ele>
        <time>2021-04-18T11:32:53Z</time>
      </trkpt>
      <trkpt lat="37.3035620" lon="-2.5423350">
        <ele>1324.4</ele>
        <time>2021-04-18T11:32:54Z</time>
      </trkpt>
      <trkpt lat="37.3037730" lon="-2.5423000">
        <ele>1322.4</ele>
        <time>2021-04-18T11:32:56Z</time>
      </trkpt>
      <trkpt lat="37.3038870" lon="-2.5422820">
        <ele>1321.2</ele>
        <time>2021-04-18T11:32:57Z</time>
      </trkpt>
      <trkpt lat="37.3040100" lon="-2.5422920">
        <ele>1320.6</ele>
        <time>2021-04-18T11:32:58Z</time>
      </trkpt>
      <trkpt lat="37.3041340" lon="-2.5423400">
        <ele>1319.2</ele>
        <time>2021-04-18T11:32:59Z</time>
      </trkpt>
      <trkpt lat="37.3043640" lon="-2.5424990">
        <ele>1316.0</ele>
        <time>2021-04-18T11:33:01Z</time>
      </trkpt>
      <trkpt lat="37.3044780" lon="-2.5425840">
        <ele>1314.6</ele>
        <time>2021-04-18T11:33:02Z</time>
      </trkpt>
      <trkpt lat="37.3045690" lon="-2.5426090">
        <ele>1314.2</ele>
        <time>2021-04-18T11:33:03Z</time>
      </trkpt>
      <trkpt lat="37.3046600" lon="-2.5426350">
        <ele>1312.6</ele>
        <time>2021-04-18T11:33:04Z</time>
      </trkpt>
      <trkpt lat="37.3050240" lon="-2.5427370">
        <ele>1310.6</ele>
        <time>2021-04-18T11:33:06Z</time>
      </trkpt>
      <trkpt lat="37.3051660" lon="-2.5427310">
        <ele>1310.0</ele>
        <time>2021-04-18T11:33:07Z</time>
      </trkpt>
      <trkpt lat="37.3053100" lon="-2.5427000">
        <ele>1308.8</ele>
        <time>2021-04-18T11:33:08Z</time>
      </trkpt>
      <trkpt lat="37.3054490" lon="-2.5426500">
        <ele>1307.4</ele>
        <time>2021-04-18T11:33:09Z</time>
      </trkpt>
      <trkpt lat="37.3055800" lon="-2.5425840">
        <ele>1306.2</ele>
        <time>2021-04-18T11:33:10Z</time>
      </trkpt>
      <trkpt lat="37.3057130" lon="-2.5425120">
        <ele>1304.2</ele>
        <time>2021-04-18T11:33:11Z</time>
      </trkpt>
      <trkpt lat="37.3058560" lon="-2.5424450">
        <ele>1303.0</ele>
        <time>2021-04-18T11:33:12Z</time>
      </trkpt>
      <trkpt lat="37.3060030" lon="-2.5423810">
        <ele>1300.2</ele>
        <time>2021-04-18T11:33:13Z</time>
      </trkpt>
      <trkpt lat="37.3061460" lon="-2.5423090">
        <ele>1298.2</ele>
        <time>2021-04-18T11:33:14Z</time>
      </trkpt>
      <trkpt lat="37.3064190" lon="-2.5421240">
        <ele>1294.6</ele>
        <time>2021-04-18T11:33:16Z</time>
      </trkpt>
      <trkpt lat="37.3066820" lon="-2.5419050">
        <ele>1291.2</ele>
        <time>2021-04-18T11:33:18Z</time>
      </trkpt>
      <trkpt lat="37.3068090" lon="-2.5417940">
        <ele>1290.2</ele>
        <time>2021-04-18T11:33:19Z</time>
      </trkpt>
      <trkpt lat="37.3069330" lon="-2.5416760">
        <ele>1288.4</ele>
        <time>2021-04-18T11:33:20Z</time>
      </trkpt>
      <trkpt lat="37.3070500" lon="-2.5415500">
        <ele>1286.0</ele>
        <time>2021-04-18T11:33:21Z</time>
      </trkpt>
      <trkpt lat="37.3072630" lon="-2.5412730">
        <ele>1283.2</ele>
        <time>2021-04-18T11:33:23Z</time>
      </trkpt>
      <trkpt lat="37.3074580" lon="-2.5409780">
        <ele>1281.0</ele>
        <time>2021-04-18T11:33:25Z</time>
      </trkpt>
      <trkpt lat="37.3075600" lon="-2.5408360">
        <ele>1279.6</ele>
        <time>2021-04-18T11:33:26Z</time>
      </trkpt>
      <trkpt lat="37.3076680" lon="-2.5407090">
        <ele>1279.0</ele>
        <time>2021-04-18T11:33:27Z</time>
      </trkpt>
      <trkpt lat="37.3077860" lon="-2.5405910">
        <ele>1277.4</ele>
        <time>2021-04-18T11:33:28Z</time>
      </trkpt>
      <trkpt lat="37.3078990" lon="-2.5404820">
        <ele>1275.8</ele>
        <time>2021-04-18T11:33:29Z</time>
      </trkpt>
      <trkpt lat="37.3080030" lon="-2.5403670">
        <ele>1273.2</ele>
        <time>2021-04-18T11:33:30Z</time>
      </trkpt>
      <trkpt lat="37.3080610" lon="-2.5402670">
        <ele>1272.2</ele>
        <time>2021-04-18T11:33:31Z</time>
      </trkpt>
      <trkpt lat="37.3081180" lon="-2.5401660">
        <ele>1270.8</ele>
        <time>2021-04-18T11:33:32Z</time>
      </trkpt>
      <trkpt lat="37.3082330" lon="-2.5399650">
        <ele>1269.6</ele>
        <time>2021-04-18T11:33:33Z</time>
      </trkpt>
      <trkpt lat="37.3082780" lon="-2.5398140">
        <ele>1269.0</ele>
        <time>2021-04-18T11:33:34Z</time>
      </trkpt>
      <trkpt lat="37.3083250" lon="-2.5396660">
        <ele>1267.6</ele>
        <time>2021-04-18T11:33:35Z</time>
      </trkpt>
      <trkpt lat="37.3083750" lon="-2.5395210">
        <ele>1266.6</ele>
        <time>2021-04-18T11:33:36Z</time>
      </trkpt>
      <trkpt lat="37.3084250" lon="-2.5393750">
        <ele>1265.0</ele>
        <time>2021-04-18T11:33:37Z</time>
      </trkpt>
      <trkpt lat="37.3084750" lon="-2.5392290">
        <ele>1262.8</ele>
        <time>2021-04-18T11:33:38Z</time>
      </trkpt>
      <trkpt lat="37.3085200" lon="-2.5390790">
        <ele>1262.2</ele>
        <time>2021-04-18T11:33:39Z</time>
      </trkpt>
      <trkpt lat="37.3085560" lon="-2.5389220">
        <ele>1260.6</ele>
        <time>2021-04-18T11:33:40Z</time>
      </trkpt>
      <trkpt lat="37.3085850" lon="-2.5387610">
        <ele>1260.0</ele>
        <time>2021-04-18T11:33:41Z</time>
      </trkpt>
      <trkpt lat="37.3085990" lon="-2.5385980">
        <ele>1259.0</ele>
        <time>2021-04-18T11:33:42Z</time>
      </trkpt>
      <trkpt lat="37.3085980" lon="-2.5384360">
        <ele>1258.6</ele>
        <time>2021-04-18T11:33:43Z</time>
      </trkpt>
      <trkpt lat="37.3085810" lon="-2.5382820">
        <ele>1257.8</ele>
        <time>2021-04-18T11:33:44Z</time>
      </trkpt>
      <trkpt lat="37.3085500" lon="-2.5381800">
        <ele>1257.4</ele>
        <time>2021-04-18T11:33:45Z</time>
      </trkpt>
      <trkpt lat="37.3085190" lon="-2.5380790">
        <ele>1257.2</ele>
        <time>2021-04-18T11:33:46Z</time>
      </trkpt>
      <trkpt lat="37.3084570" lon="-2.5378770">
        <ele>1256.4</ele>
        <time>2021-04-18T11:33:47Z</time>
      </trkpt>
      <trkpt lat="37.3083860" lon="-2.5377710">
        <ele>1256.2</ele>
        <time>2021-04-18T11:33:48Z</time>
      </trkpt>
      <trkpt lat="37.3082930" lon="-2.5376910">
        <ele>1255.8</ele>
        <time>2021-04-18T11:33:49Z</time>
      </trkpt>
      <trkpt lat="37.3081950" lon="-2.5376320">
        <ele>1255.4</ele>
        <time>2021-04-18T11:33:50Z</time>
      </trkpt>
      <trkpt lat="37.3080940" lon="-2.5375750">
        <ele>1255.0</ele>
        <time>2021-04-18T11:33:51Z</time>
      </trkpt>
      <trkpt lat="37.3080040" lon="-2.5375020">
        <ele>1254.2</ele>
        <time>2021-04-18T11:33:52Z</time>
      </trkpt>
      <trkpt lat="37.3079160" lon="-2.5374220">
        <ele>1253.6</ele>
        <time>2021-04-18T11:33:53Z</time>
      </trkpt>
      <trkpt lat="37.3078300" lon="-2.5373470">
        <ele>1252.8</ele>
        <time>2021-04-18T11:33:54Z</time>
      </trkpt>
      <trkpt lat="37.3075030" lon="-2.5370260">
        <ele>1251.8</ele>
        <time>2021-04-18T11:33:58Z</time>
      </trkpt>
      <trkpt lat="37.3074360" lon="-2.5369370">
        <ele>1251.6</ele>
        <time>2021-04-18T11:33:59Z</time>
      </trkpt>
      <trkpt lat="37.3073810" lon="-2.5368370">
        <ele>1251.4</ele>
        <time>2021-04-18T11:34:00Z</time>
      </trkpt>
      <trkpt lat="37.3073360" lon="-2.5367170">
        <ele>1251.2</ele>
        <time>2021-04-18T11:34:01Z</time>
      </trkpt>
      <trkpt lat="37.3071910" lon="-2.5363590">
        <ele>1250.4</ele>
        <time>2021-04-18T11:34:04Z</time>
      </trkpt>
      <trkpt lat="37.3071420" lon="-2.5362450">
        <ele>1250.4</ele>
        <time>2021-04-18T11:34:05Z</time>
      </trkpt>
      <trkpt lat="37.3070870" lon="-2.5361420">
        <ele>1249.8</ele>
        <time>2021-04-18T11:34:06Z</time>
      </trkpt>
      <trkpt lat="37.3069530" lon="-2.5359860">
        <ele>1249.2</ele>
        <time>2021-04-18T11:34:08Z</time>
      </trkpt>
      <trkpt lat="37.3067980" lon="-2.5358190">
        <ele>1248.6</ele>
        <time>2021-04-18T11:34:10Z</time>
      </trkpt>
      <trkpt lat="37.3067480" lon="-2.5357360">
        <ele>1248.4</ele>
        <time>2021-04-18T11:34:11Z</time>
      </trkpt>
      <trkpt lat="37.3067040" lon="-2.5356630">
        <ele>1248.4</ele>
        <time>2021-04-18T11:34:12Z</time>
      </trkpt>
      <trkpt lat="37.3066420" lon="-2.5355760">
        <ele>1248.2</ele>
        <time>2021-04-18T11:34:13Z</time>
      </trkpt>
      <trkpt lat="37.3064430" lon="-2.5354020">
        <ele>1247.8</ele>
        <time>2021-04-18T11:34:15Z</time>
      </trkpt>
      <trkpt lat="37.3062020" lon="-2.5352670">
        <ele>1246.8</ele>
        <time>2021-04-18T11:34:17Z</time>
      </trkpt>
      <trkpt lat="37.3060800" lon="-2.5351840">
        <ele>1246.2</ele>
        <time>2021-04-18T11:34:18Z</time>
      </trkpt>
      <trkpt lat="37.3059610" lon="-2.5351120">
        <ele>1246.0</ele>
        <time>2021-04-18T11:34:19Z</time>
      </trkpt>
      <trkpt lat="37.3058490" lon="-2.5350650">
        <ele>1244.8</ele>
        <time>2021-04-18T11:34:20Z</time>
      </trkpt>
      <trkpt lat="37.3057420" lon="-2.5350460">
        <ele>1243.6</ele>
        <time>2021-04-18T11:34:21Z</time>
      </trkpt>
      <trkpt lat="37.3056520" lon="-2.5350440">
        <ele>1241.2</ele>
        <time>2021-04-18T11:34:22Z</time>
      </trkpt>
      <trkpt lat="37.3055750" lon="-2.5350350">
        <ele>1239.8</ele>
        <time>2021-04-18T11:34:23Z</time>
      </trkpt>
      <trkpt lat="37.3055110" lon="-2.5350050">
        <ele>1239.0</ele>
        <time>2021-04-18T11:34:24Z</time>
      </trkpt>
      <trkpt lat="37.3054730" lon="-2.5349580">
        <ele>1237.4</ele>
        <time>2021-04-18T11:34:25Z</time>
      </trkpt>
      <trkpt lat="37.3054710" lon="-2.5349040">
        <ele>1236.6</ele>
        <time>2021-04-18T11:34:26Z</time>
      </trkpt>
      <trkpt lat="37.3054930" lon="-2.5348570">
        <ele>1234.6</ele>
        <time>2021-04-18T11:34:27Z</time>
      </trkpt>
      <trkpt lat="37.3055310" lon="-2.5348340">
        <ele>1232.8</ele>
        <time>2021-04-18T11:34:28Z</time>
      </trkpt>
      <trkpt lat="37.3055660" lon="-2.5348260">
        <ele>1232.0</ele>
        <time>2021-04-18T11:34:29Z</time>
      </trkpt>
      <trkpt lat="37.3056180" lon="-2.5348220">
        <ele>1230.6</ele>
        <time>2021-04-18T11:34:30Z</time>
      </trkpt>
      <trkpt lat="37.3056610" lon="-2.5348230">
        <ele>1230.0</ele>
        <time>2021-04-18T11:34:31Z</time>
      </trkpt>
      <trkpt lat="37.3057020" lon="-2.5348200">
        <ele>1229.2</ele>
        <time>2021-04-18T11:34:32Z</time>
      </trkpt>
      <trkpt lat="37.3057420" lon="-2.5348140">
        <ele>1228.8</ele>
        <time>2021-04-18T11:34:33Z</time>
      </trkpt>
      <trkpt lat="37.3057710" lon="-2.5348080">
        <ele>1228.6</ele>
        <time>2021-04-18T11:34:34Z</time>
      </trkpt>
      <trkpt lat="37.3058110" lon="-2.5347940">
        <ele>1228.6</ele>
        <time>2021-04-18T11:34:35Z</time>
      </trkpt>
      <trkpt lat="37.3058430" lon="-2.5347850">
        <ele>1228.6</ele>
        <time>2021-04-18T11:34:36Z</time>
      </trkpt>
      <trkpt lat="37.3058680" lon="-2.5347780">
        <ele>1228.6</ele>
        <time>2021-04-18T11:34:37Z</time>
      </trkpt>
      <trkpt lat="37.3058900" lon="-2.5347670">
        <ele>1228.6</ele>
        <time>2021-04-18T11:34:38Z</time>
      </trkpt>
      <trkpt lat="37.3059110" lon="-2.5347520">
        <ele>1228.6</ele>
        <time>2021-04-18T11:34:39Z</time>
      </trkpt>
      <trkpt lat="37.3059330" lon="-2.5347360">
        <ele>1229.0</ele>
        <time>2021-04-18T11:34:40Z</time>
      </trkpt>
      <trkpt lat="37.3059540" lon="-2.5347180">
        <ele>1229.0</ele>
        <time>2021-04-18T11:34:41Z</time>
      </trkpt>
      <trkpt lat="37.3059940" lon="-2.5346870">
        <ele>1229.2</ele>
        <time>2021-04-18T11:34:43Z</time>
      </trkpt>
      <trkpt lat="37.3060150" lon="-2.5346730">
        <ele>1229.4</ele>
        <time>2021-04-18T11:34:44Z</time>
      </trkpt>
      <trkpt lat="37.3060340" lon="-2.5346540">
        <ele>1229.6</ele>
        <time>2021-04-18T11:34:45Z</time>
      </trkpt>
      <trkpt lat="37.3060500" lon="-2.5346330">
        <ele>1229.8</ele>
        <time>2021-04-18T11:34:46Z</time>
      </trkpt>
      <trkpt lat="37.3060650" lon="-2.5346090">
        <ele>1230.2</ele>
        <time>2021-04-18T11:34:47Z</time>
      </trkpt>
      <trkpt lat="37.3060800" lon="-2.5345850">
        <ele>1230.4</ele>
        <time>2021-04-18T11:34:48Z</time>
      </trkpt>
      <trkpt lat="37.3060960" lon="-2.5345630">
        <ele>1230.8</ele>
        <time>2021-04-18T11:34:49Z</time>
      </trkpt>
      <trkpt lat="37.3061120" lon="-2.5345400">
        <ele>1230.8</ele>
        <time>2021-04-18T11:34:50Z</time>
      </trkpt>
      <trkpt lat="37.3061230" lon="-2.5345180">
        <ele>1231.2</ele>
        <time>2021-04-18T11:34:51Z</time>
      </trkpt>
      <trkpt lat="37.3061540" lon="-2.5344270">
        <ele>1232.0</ele>
        <time>2021-04-18T11:34:55Z</time>
      </trkpt>
      <trkpt lat="37.3061610" lon="-2.5344070">
        <ele>1232.2</ele>
        <time>2021-04-18T11:34:56Z</time>
      </trkpt>
      <trkpt lat="37.3061660" lon="-2.5343850">
        <ele>1232.2</ele>
        <time>2021-04-18T11:34:57Z</time>
      </trkpt>
      <trkpt lat="37.3061760" lon="-2.5343620">
        <ele>1232.4</ele>
        <time>2021-04-18T11:34:58Z</time>
      </trkpt>
      <trkpt lat="37.3061860" lon="-2.5343460">
        <ele>1232.6</ele>
        <time>2021-04-18T11:34:59Z</time>
      </trkpt>
      <trkpt lat="37.3062010" lon="-2.5343210">
        <ele>1232.8</ele>
        <time>2021-04-18T11:35:00Z</time>
      </trkpt>
      <trkpt lat="37.3062170" lon="-2.5342740">
        <ele>1233.2</ele>
        <time>2021-04-18T11:35:02Z</time>
      </trkpt>
      <trkpt lat="37.3062260" lon="-2.5342540">
        <ele>1233.2</ele>
        <time>2021-04-18T11:35:03Z</time>
      </trkpt>
      <trkpt lat="37.3062430" lon="-2.5342360">
        <ele>1233.4</ele>
        <time>2021-04-18T11:35:04Z</time>
      </trkpt>
      <trkpt lat="37.3062560" lon="-2.5342180">
        <ele>1233.6</ele>
        <time>2021-04-18T11:35:05Z</time>
      </trkpt>
      <trkpt lat="37.3062620" lon="-2.5341940">
        <ele>1233.6</ele>
        <time>2021-04-18T11:35:06Z</time>
      </trkpt>
      <trkpt lat="37.3062680" lon="-2.5341690">
        <ele>1233.8</ele>
        <time>2021-04-18T11:35:07Z</time>
      </trkpt>
      <trkpt lat="37.3063150" lon="-2.5341040">
        <ele>1233.8</ele>
        <time>2021-04-18T11:35:10Z</time>
      </trkpt>
      <trkpt lat="37.3063360" lon="-2.5340840">
        <ele>1234.0</ele>
        <time>2021-04-18T11:35:11Z</time>
      </trkpt>
      <trkpt lat="37.3063570" lon="-2.5340640">
        <ele>1234.0</ele>
        <time>2021-04-18T11:35:12Z</time>
      </trkpt>
      <trkpt lat="37.3063780" lon="-2.5340450">
        <ele>1234.0</ele>
        <time>2021-04-18T11:35:13Z</time>
      </trkpt>
      <trkpt lat="37.3063990" lon="-2.5340280">
        <ele>1234.2</ele>
        <time>2021-04-18T11:35:14Z</time>
      </trkpt>
      <trkpt lat="37.3064210" lon="-2.5340170">
        <ele>1234.6</ele>
        <time>2021-04-18T11:35:15Z</time>
      </trkpt>
      <trkpt lat="37.3064390" lon="-2.5340060">
        <ele>1234.6</ele>
        <time>2021-04-18T11:35:16Z</time>
      </trkpt>
      <trkpt lat="37.3064570" lon="-2.5339930">
        <ele>1234.8</ele>
        <time>2021-04-18T11:35:17Z</time>
      </trkpt>
      <trkpt lat="37.3064740" lon="-2.5339770">
        <ele>1235.2</ele>
        <time>2021-04-18T11:35:18Z</time>
      </trkpt>
      <trkpt lat="37.3064900" lon="-2.5339570">
        <ele>1235.4</ele>
        <time>2021-04-18T11:35:19Z</time>
      </trkpt>
      <trkpt lat="37.3065050" lon="-2.5339350">
        <ele>1235.6</ele>
        <time>2021-04-18T11:35:20Z</time>
      </trkpt>
      <trkpt lat="37.3065190" lon="-2.5339140">
        <ele>1235.8</ele>
        <time>2021-04-18T11:35:21Z</time>
      </trkpt>
      <trkpt lat="37.3065360" lon="-2.5338940">
        <ele>1236.4</ele>
        <time>2021-04-18T11:35:22Z</time>
      </trkpt>
      <trkpt lat="37.3065500" lon="-2.5338750">
        <ele>1236.8</ele>
        <time>2021-04-18T11:35:23Z</time>
      </trkpt>
      <trkpt lat="37.3065610" lon="-2.5338520">
        <ele>1236.8</ele>
        <time>2021-04-18T11:35:24Z</time>
      </trkpt>
      <trkpt lat="37.3065730" lon="-2.5338300">
        <ele>1237.0</ele>
        <time>2021-04-18T11:35:25Z</time>
      </trkpt>
      <trkpt lat="37.3065880" lon="-2.5338060">
        <ele>1237.2</ele>
        <time>2021-04-18T11:35:26Z</time>
      </trkpt>
      <trkpt lat="37.3066030" lon="-2.5337820">
        <ele>1237.2</ele>
        <time>2021-04-18T11:35:27Z</time>
      </trkpt>
      <trkpt lat="37.3066180" lon="-2.5337600">
        <ele>1237.2</ele>
        <time>2021-04-18T11:35:28Z</time>
      </trkpt>
      <trkpt lat="37.3066310" lon="-2.5337430">
        <ele>1237.4</ele>
        <time>2021-04-18T11:35:29Z</time>
      </trkpt>
      <trkpt lat="37.3066520" lon="-2.5337140">
        <ele>1237.4</ele>
        <time>2021-04-18T11:35:30Z</time>
      </trkpt>
      <trkpt lat="37.3066660" lon="-2.5336950">
        <ele>1237.4</ele>
        <time>2021-04-18T11:35:31Z</time>
      </trkpt>
      <trkpt lat="37.3066800" lon="-2.5336690">
        <ele>1237.4</ele>
        <time>2021-04-18T11:35:32Z</time>
      </trkpt>
      <trkpt lat="37.3066960" lon="-2.5336450">
        <ele>1237.4</ele>
        <time>2021-04-18T11:35:33Z</time>
      </trkpt>
      <trkpt lat="37.3067140" lon="-2.5336210">
        <ele>1237.4</ele>
        <time>2021-04-18T11:35:34Z</time>
      </trkpt>
      <trkpt lat="37.3067370" lon="-2.5335980">
        <ele>1237.2</ele>
        <time>2021-04-18T11:35:35Z</time>
      </trkpt>
      <trkpt lat="37.3067600" lon="-2.5335750">
        <ele>1237.2</ele>
        <time>2021-04-18T11:35:36Z</time>
      </trkpt>
      <trkpt lat="37.3067840" lon="-2.5335530">
        <ele>1237.2</ele>
        <time>2021-04-18T11:35:37Z</time>
      </trkpt>
      <trkpt lat="37.3068070" lon="-2.5335320">
        <ele>1237.0</ele>
        <time>2021-04-18T11:35:38Z</time>
      </trkpt>
      <trkpt lat="37.3068320" lon="-2.5335170">
        <ele>1237.0</ele>
        <time>2021-04-18T11:35:39Z</time>
      </trkpt>
      <trkpt lat="37.3068570" lon="-2.5335010">
        <ele>1237.0</ele>
        <time>2021-04-18T11:35:40Z</time>
      </trkpt>
      <trkpt lat="37.3068800" lon="-2.5334830">
        <ele>1237.0</ele>
        <time>2021-04-18T11:35:41Z</time>
      </trkpt>
      <trkpt lat="37.3069030" lon="-2.5334690">
        <ele>1237.0</ele>
        <time>2021-04-18T11:35:42Z</time>
      </trkpt>
      <trkpt lat="37.3069790" lon="-2.5334380">
        <ele>1237.0</ele>
        <time>2021-04-18T11:35:45Z</time>
      </trkpt>
      <trkpt lat="37.3070280" lon="-2.5334190">
        <ele>1237.0</ele>
        <time>2021-04-18T11:35:47Z</time>
      </trkpt>
      <trkpt lat="37.3070580" lon="-2.5334090">
        <ele>1236.8</ele>
        <time>2021-04-18T11:35:48Z</time>
      </trkpt>
      <trkpt lat="37.3071100" lon="-2.5333950">
        <ele>1236.8</ele>
        <time>2021-04-18T11:35:50Z</time>
      </trkpt>
      <trkpt lat="37.3072770" lon="-2.5333820">
        <ele>1236.2</ele>
        <time>2021-04-18T11:35:55Z</time>
      </trkpt>
      <trkpt lat="37.3073110" lon="-2.5333810">
        <ele>1236.2</ele>
        <time>2021-04-18T11:35:56Z</time>
      </trkpt>
      <trkpt lat="37.3073440" lon="-2.5333770">
        <ele>1236.2</ele>
        <time>2021-04-18T11:35:57Z</time>
      </trkpt>
      <trkpt lat="37.3075150" lon="-2.5333630">
        <ele>1236.0</ele>
        <time>2021-04-18T11:36:02Z</time>
      </trkpt>
      <trkpt lat="37.3075780" lon="-2.5333620">
        <ele>1236.0</ele>
        <time>2021-04-18T11:36:04Z</time>
      </trkpt>
      <trkpt lat="37.3076150" lon="-2.5333630">
        <ele>1236.0</ele>
        <time>2021-04-18T11:36:05Z</time>
      </trkpt>
      <trkpt lat="37.3077230" lon="-2.5333680">
        <ele>1235.8</ele>
        <time>2021-04-18T11:36:08Z</time>
      </trkpt>
      <trkpt lat="37.3078000" lon="-2.5333700">
        <ele>1235.8</ele>
        <time>2021-04-18T11:36:10Z</time>
      </trkpt>
      <trkpt lat="37.3078820" lon="-2.5333740">
        <ele>1235.6</ele>
        <time>2021-04-18T11:36:12Z</time>
      </trkpt>
      <trkpt lat="37.3079740" lon="-2.5333730">
        <ele>1235.4</ele>
        <time>2021-04-18T11:36:14Z</time>
      </trkpt>
      <trkpt lat="37.3080090" lon="-2.5333690">
        <ele>1235.4</ele>
        <time>2021-04-18T11:36:15Z</time>
      </trkpt>
      <trkpt lat="37.3081060" lon="-2.5333330">
        <ele>1235.2</ele>
        <time>2021-04-18T11:36:17Z</time>
      </trkpt>
      <trkpt lat="37.3081510" lon="-2.5333050">
        <ele>1235.2</ele>
        <time>2021-04-18T11:36:18Z</time>
      </trkpt>
      <trkpt lat="37.3081940" lon="-2.5332680">
        <ele>1235.0</ele>
        <time>2021-04-18T11:36:19Z</time>
      </trkpt>
      <trkpt lat="37.3082240" lon="-2.5332320">
        <ele>1234.8</ele>
        <time>2021-04-18T11:36:20Z</time>
      </trkpt>
      <trkpt lat="37.3082540" lon="-2.5331780">
        <ele>1234.8</ele>
        <time>2021-04-18T11:36:21Z</time>
      </trkpt>
      <trkpt lat="37.3082770" lon="-2.5331260">
        <ele>1234.6</ele>
        <time>2021-04-18T11:36:22Z</time>
      </trkpt>
      <trkpt lat="37.3082970" lon="-2.5330670">
        <ele>1234.6</ele>
        <time>2021-04-18T11:36:23Z</time>
      </trkpt>
      <trkpt lat="37.3083050" lon="-2.5330330">
        <ele>1234.4</ele>
        <time>2021-04-18T11:36:24Z</time>
      </trkpt>
      <trkpt lat="37.3083100" lon="-2.5329940">
        <ele>1234.2</ele>
        <time>2021-04-18T11:36:25Z</time>
      </trkpt>
      <trkpt lat="37.3083140" lon="-2.5329620">
        <ele>1234.2</ele>
        <time>2021-04-18T11:36:26Z</time>
      </trkpt>
      <trkpt lat="37.3083160" lon="-2.5329360">
        <ele>1234.2</ele>
        <time>2021-04-18T11:36:27Z</time>
      </trkpt>
      <trkpt lat="37.3083190" lon="-2.5329110">
        <ele>1234.2</ele>
        <time>2021-04-18T11:36:28Z</time>
      </trkpt>
      <trkpt lat="37.3083180" lon="-2.5328890">
        <ele>1234.2</ele>
        <time>2021-04-18T11:36:29Z</time>
      </trkpt>
      <trkpt lat="37.3083160" lon="-2.5328740">
        <ele>1234.2</ele>
        <time>2021-04-18T11:36:30Z</time>
      </trkpt>
      <trkpt lat="37.3083050" lon="-2.5328550">
        <ele>1234.4</ele>
        <time>2021-04-18T11:36:31Z</time>
      </trkpt>
      <trkpt lat="37.3082910" lon="-2.5328310">
        <ele>1234.6</ele>
        <time>2021-04-18T11:36:32Z</time>
      </trkpt>
      <trkpt lat="37.3082850" lon="-2.5328110">
        <ele>1234.8</ele>
        <time>2021-04-18T11:36:33Z</time>
      </trkpt>
      <trkpt lat="37.3082850" lon="-2.5327940">
        <ele>1234.8</ele>
        <time>2021-04-18T11:36:34Z</time>
      </trkpt>
      <trkpt lat="37.3082940" lon="-2.5327810">
        <ele>1235.0</ele>
        <time>2021-04-18T11:36:35Z</time>
      </trkpt>
      <trkpt lat="37.3083050" lon="-2.5327710">
        <ele>1235.2</ele>
        <time>2021-04-18T11:36:36Z</time>
      </trkpt>
      <trkpt lat="37.3083170" lon="-2.5327600">
        <ele>1235.2</ele>
        <time>2021-04-18T11:36:37Z</time>
      </trkpt>
      <trkpt lat="37.3083200" lon="-2.5327450">
        <ele>1235.4</ele>
        <time>2021-04-18T11:36:38Z</time>
      </trkpt>
      <trkpt lat="37.3083140" lon="-2.5327330">
        <ele>1235.6</ele>
        <time>2021-04-18T11:36:39Z</time>
      </trkpt>
      <trkpt lat="37.3083040" lon="-2.5327230">
        <ele>1235.8</ele>
        <time>2021-04-18T11:36:40Z</time>
      </trkpt>
      <trkpt lat="37.3082980" lon="-2.5327120">
        <ele>1235.8</ele>
        <time>2021-04-18T11:36:41Z</time>
      </trkpt>
      <trkpt lat="37.3082960" lon="-2.5326970">
        <ele>1235.8</ele>
        <time>2021-04-18T11:36:42Z</time>
      </trkpt>
      <trkpt lat="37.3083020" lon="-2.5326800">
        <ele>1236.0</ele>
        <time>2021-04-18T11:36:43Z</time>
      </trkpt>
      <trkpt lat="37.3083110" lon="-2.5326640">
        <ele>1236.2</ele>
        <time>2021-04-18T11:36:44Z</time>
      </trkpt>
      <trkpt lat="37.3083190" lon="-2.5326470">
        <ele>1236.2</ele>
        <time>2021-04-18T11:36:45Z</time>
      </trkpt>
      <trkpt lat="37.3083260" lon="-2.5326080">
        <ele>1236.6</ele>
        <time>2021-04-18T11:36:47Z</time>
      </trkpt>
      <trkpt lat="37.3083190" lon="-2.5325710">
        <ele>1236.8</ele>
        <time>2021-04-18T11:36:49Z</time>
      </trkpt>
      <trkpt lat="37.3083160" lon="-2.5325540">
        <ele>1236.8</ele>
        <time>2021-04-18T11:36:50Z</time>
      </trkpt>
      <trkpt lat="37.3083150" lon="-2.5325360">
        <ele>1237.0</ele>
        <time>2021-04-18T11:36:51Z</time>
      </trkpt>
      <trkpt lat="37.3083240" lon="-2.5324540">
        <ele>1237.4</ele>
        <time>2021-04-18T11:36:55Z</time>
      </trkpt>
      <trkpt lat="37.3083290" lon="-2.5324330">
        <ele>1237.6</ele>
        <time>2021-04-18T11:36:56Z</time>
      </trkpt>
      <trkpt lat="37.3083310" lon="-2.5324110">
        <ele>1237.6</ele>
        <time>2021-04-18T11:36:57Z</time>
      </trkpt>
      <trkpt lat="37.3083340" lon="-2.5323900">
        <ele>1237.8</ele>
        <time>2021-04-18T11:36:58Z</time>
      </trkpt>
      <trkpt lat="37.3083370" lon="-2.5323710">
        <ele>1238.0</ele>
        <time>2021-04-18T11:36:59Z</time>
      </trkpt>
      <trkpt lat="37.3083350" lon="-2.5323510">
        <ele>1238.0</ele>
        <time>2021-04-18T11:37:00Z</time>
      </trkpt>
      <trkpt lat="37.3083350" lon="-2.5323310">
        <ele>1238.2</ele>
        <time>2021-04-18T11:37:01Z</time>
      </trkpt>
      <trkpt lat="37.3083360" lon="-2.5323100">
        <ele>1238.2</ele>
        <time>2021-04-18T11:37:02Z</time>
      </trkpt>
      <trkpt lat="37.3083380" lon="-2.5322870">
        <ele>1238.2</ele>
        <time>2021-04-18T11:37:03Z</time>
      </trkpt>
      <trkpt lat="37.3083380" lon="-2.5322650">
        <ele>1238.4</ele>
        <time>2021-04-18T11:37:04Z</time>
      </trkpt>
      <trkpt lat="37.3083390" lon="-2.5322440">
        <ele>1238.4</ele>
        <time>2021-04-18T11:37:05Z</time>
      </trkpt>
      <trkpt lat="37.3083440" lon="-2.5322240">
        <ele>1238.6</ele>
        <time>2021-04-18T11:37:06Z</time>
      </trkpt>
      <trkpt lat="37.3083460" lon="-2.5322010">
        <ele>1238.6</ele>
        <time>2021-04-18T11:37:07Z</time>
      </trkpt>
      <trkpt lat="37.3083470" lon="-2.5321790">
        <ele>1238.8</ele>
        <time>2021-04-18T11:37:08Z</time>
      </trkpt>
      <trkpt lat="37.3083570" lon="-2.5320910">
        <ele>1239.2</ele>
        <time>2021-04-18T11:37:12Z</time>
      </trkpt>
      <trkpt lat="37.3083610" lon="-2.5319850">
        <ele>1240.0</ele>
        <time>2021-04-18T11:37:17Z</time>
      </trkpt>
      <trkpt lat="37.3083610" lon="-2.5319650">
        <ele>1240.0</ele>
        <time>2021-04-18T11:37:18Z</time>
      </trkpt>
      <trkpt lat="37.3083610" lon="-2.5319430">
        <ele>1240.0</ele>
        <time>2021-04-18T11:37:19Z</time>
      </trkpt>
      <trkpt lat="37.3083590" lon="-2.5319210">
        <ele>1240.0</ele>
        <time>2021-04-18T11:37:20Z</time>
      </trkpt>
      <trkpt lat="37.3083530" lon="-2.5319030">
        <ele>1240.2</ele>
        <time>2021-04-18T11:37:21Z</time>
      </trkpt>
      <trkpt lat="37.3083460" lon="-2.5318860">
        <ele>1240.2</ele>
        <time>2021-04-18T11:37:22Z</time>
      </trkpt>
      <trkpt lat="37.3083400" lon="-2.5318680">
        <ele>1240.4</ele>
        <time>2021-04-18T11:37:23Z</time>
      </trkpt>
      <trkpt lat="37.3083350" lon="-2.5318460">
        <ele>1240.4</ele>
        <time>2021-04-18T11:37:24Z</time>
      </trkpt>
      <trkpt lat="37.3083280" lon="-2.5318240">
        <ele>1240.4</ele>
        <time>2021-04-18T11:37:25Z</time>
      </trkpt>
      <trkpt lat="37.3083200" lon="-2.5318030">
        <ele>1240.6</ele>
        <time>2021-04-18T11:37:26Z</time>
      </trkpt>
      <trkpt lat="37.3083090" lon="-2.5317840">
        <ele>1240.8</ele>
        <time>2021-04-18T11:37:27Z</time>
      </trkpt>
      <trkpt lat="37.3082990" lon="-2.5317680">
        <ele>1240.8</ele>
        <time>2021-04-18T11:37:28Z</time>
      </trkpt>
      <trkpt lat="37.3082840" lon="-2.5317400">
        <ele>1241.0</ele>
        <time>2021-04-18T11:37:30Z</time>
      </trkpt>
      <trkpt lat="37.3082780" lon="-2.5317280">
        <ele>1241.2</ele>
        <time>2021-04-18T11:37:31Z</time>
      </trkpt>
      <trkpt lat="37.3082680" lon="-2.5317100">
        <ele>1241.2</ele>
        <time>2021-04-18T11:37:32Z</time>
      </trkpt>
      <trkpt lat="37.3082560" lon="-2.5316900">
        <ele>1241.2</ele>
        <time>2021-04-18T11:37:33Z</time>
      </trkpt>
      <trkpt lat="37.3082300" lon="-2.5316540">
        <ele>1241.2</ele>
        <time>2021-04-18T11:37:35Z</time>
      </trkpt>
      <trkpt lat="37.3082150" lon="-2.5316310">
        <ele>1241.2</ele>
        <time>2021-04-18T11:37:36Z</time>
      </trkpt>
      <trkpt lat="37.3081860" lon="-2.5314880">
        <ele>1241.2</ele>
        <time>2021-04-18T11:37:40Z</time>
      </trkpt>
      <trkpt lat="37.3081910" lon="-2.5314450">
        <ele>1241.2</ele>
        <time>2021-04-18T11:37:41Z</time>
      </trkpt>
      <trkpt lat="37.3082010" lon="-2.5314010">
        <ele>1241.2</ele>
        <time>2021-04-18T11:37:42Z</time>
      </trkpt>
      <trkpt lat="37.3082130" lon="-2.5313590">
        <ele>1241.2</ele>
        <time>2021-04-18T11:37:43Z</time>
      </trkpt>
      <trkpt lat="37.3082260" lon="-2.5313160">
        <ele>1241.0</ele>
        <time>2021-04-18T11:37:44Z</time>
      </trkpt>
      <trkpt lat="37.3082540" lon="-2.5312280">
        <ele>1241.0</ele>
        <time>2021-04-18T11:37:46Z</time>
      </trkpt>
      <trkpt lat="37.3082730" lon="-2.5311870">
        <ele>1241.0</ele>
        <time>2021-04-18T11:37:47Z</time>
      </trkpt>
      <trkpt lat="37.3083480" lon="-2.5310200">
        <ele>1241.0</ele>
        <time>2021-04-18T11:37:51Z</time>
      </trkpt>
      <trkpt lat="37.3083930" lon="-2.5309350">
        <ele>1241.0</ele>
        <time>2021-04-18T11:37:53Z</time>
      </trkpt>
      <trkpt lat="37.3084620" lon="-2.5308160">
        <ele>1241.0</ele>
        <time>2021-04-18T11:37:57Z</time>
      </trkpt>
      <trkpt lat="37.3085840" lon="-2.5307060">
        <ele>1241.0</ele>
        <time>2021-04-18T11:38:00Z</time>
      </trkpt>
      <trkpt lat="37.3086830" lon="-2.5306400">
        <ele>1241.0</ele>
        <time>2021-04-18T11:38:03Z</time>
      </trkpt>
      <trkpt lat="37.3087070" lon="-2.5306280">
        <ele>1241.0</ele>
        <time>2021-04-18T11:38:04Z</time>
      </trkpt>
      <trkpt lat="37.3087350" lon="-2.5306160">
        <ele>1241.0</ele>
        <time>2021-04-18T11:38:05Z</time>
      </trkpt>
      <trkpt lat="37.3087700" lon="-2.5306080">
        <ele>1241.0</ele>
        <time>2021-04-18T11:38:06Z</time>
      </trkpt>
      <trkpt lat="37.3088000" lon="-2.5306060">
        <ele>1241.2</ele>
        <time>2021-04-18T11:38:07Z</time>
      </trkpt>
      <trkpt lat="37.3088230" lon="-2.5306030">
        <ele>1241.2</ele>
        <time>2021-04-18T11:38:08Z</time>
      </trkpt>
      <trkpt lat="37.3088580" lon="-2.5306000">
        <ele>1241.2</ele>
        <time>2021-04-18T11:38:09Z</time>
      </trkpt>
      <trkpt lat="37.3088900" lon="-2.5306000">
        <ele>1241.4</ele>
        <time>2021-04-18T11:38:10Z</time>
      </trkpt>
      <trkpt lat="37.3089200" lon="-2.5306030">
        <ele>1241.4</ele>
        <time>2021-04-18T11:38:11Z</time>
      </trkpt>
      <trkpt lat="37.3089510" lon="-2.5306140">
        <ele>1241.4</ele>
        <time>2021-04-18T11:38:12Z</time>
      </trkpt>
      <trkpt lat="37.3090330" lon="-2.5306570">
        <ele>1241.8</ele>
        <time>2021-04-18T11:38:15Z</time>
      </trkpt>
      <trkpt lat="37.3090700" lon="-2.5306720">
        <ele>1241.8</ele>
        <time>2021-04-18T11:38:16Z</time>
      </trkpt>
      <trkpt lat="37.3091630" lon="-2.5307170">
        <ele>1242.6</ele>
        <time>2021-04-18T11:38:19Z</time>
      </trkpt>
      <trkpt lat="37.3092250" lon="-2.5307360">
        <ele>1243.0</ele>
        <time>2021-04-18T11:38:21Z</time>
      </trkpt>
      <trkpt lat="37.3092540" lon="-2.5307520">
        <ele>1243.0</ele>
        <time>2021-04-18T11:38:22Z</time>
      </trkpt>
      <trkpt lat="37.3093720" lon="-2.5308200">
        <ele>1243.4</ele>
        <time>2021-04-18T11:38:26Z</time>
      </trkpt>
      <trkpt lat="37.3094010" lon="-2.5308400">
        <ele>1243.4</ele>
        <time>2021-04-18T11:38:27Z</time>
      </trkpt>
      <trkpt lat="37.3094570" lon="-2.5308700">
        <ele>1243.6</ele>
        <time>2021-04-18T11:38:29Z</time>
      </trkpt>
      <trkpt lat="37.3094850" lon="-2.5308840">
        <ele>1243.6</ele>
        <time>2021-04-18T11:38:30Z</time>
      </trkpt>
      <trkpt lat="37.3095120" lon="-2.5309000">
        <ele>1243.8</ele>
        <time>2021-04-18T11:38:31Z</time>
      </trkpt>
      <trkpt lat="37.3095920" lon="-2.5309400">
        <ele>1244.4</ele>
        <time>2021-04-18T11:38:34Z</time>
      </trkpt>
      <trkpt lat="37.3096190" lon="-2.5309550">
        <ele>1244.6</ele>
        <time>2021-04-18T11:38:35Z</time>
      </trkpt>
      <trkpt lat="37.3096470" lon="-2.5309670">
        <ele>1244.8</ele>
        <time>2021-04-18T11:38:36Z</time>
      </trkpt>
      <trkpt lat="37.3096750" lon="-2.5309840">
        <ele>1244.8</ele>
        <time>2021-04-18T11:38:37Z</time>
      </trkpt>
      <trkpt lat="37.3097050" lon="-2.5310010">
        <ele>1245.0</ele>
        <time>2021-04-18T11:38:38Z</time>
      </trkpt>
      <trkpt lat="37.3097350" lon="-2.5310150">
        <ele>1245.0</ele>
        <time>2021-04-18T11:38:39Z</time>
      </trkpt>
      <trkpt lat="37.3097650" lon="-2.5310290">
        <ele>1245.2</ele>
        <time>2021-04-18T11:38:40Z</time>
      </trkpt>
      <trkpt lat="37.3097950" lon="-2.5310420">
        <ele>1245.2</ele>
        <time>2021-04-18T11:38:41Z</time>
      </trkpt>
      <trkpt lat="37.3098260" lon="-2.5310550">
        <ele>1245.4</ele>
        <time>2021-04-18T11:38:42Z</time>
      </trkpt>
      <trkpt lat="37.3098630" lon="-2.5310720">
        <ele>1245.6</ele>
        <time>2021-04-18T11:38:43Z</time>
      </trkpt>
      <trkpt lat="37.3098860" lon="-2.5310840">
        <ele>1245.6</ele>
        <time>2021-04-18T11:38:44Z</time>
      </trkpt>
      <trkpt lat="37.3099160" lon="-2.5310990">
        <ele>1245.6</ele>
        <time>2021-04-18T11:38:45Z</time>
      </trkpt>
      <trkpt lat="37.3099450" lon="-2.5311120">
        <ele>1245.8</ele>
        <time>2021-04-18T11:38:46Z</time>
      </trkpt>
      <trkpt lat="37.3099740" lon="-2.5311190">
        <ele>1246.0</ele>
        <time>2021-04-18T11:38:47Z</time>
      </trkpt>
      <trkpt lat="37.3100090" lon="-2.5311300">
        <ele>1246.0</ele>
        <time>2021-04-18T11:38:48Z</time>
      </trkpt>
      <trkpt lat="37.3100320" lon="-2.5311360">
        <ele>1246.0</ele>
        <time>2021-04-18T11:38:49Z</time>
      </trkpt>
      <trkpt lat="37.3100640" lon="-2.5311460">
        <ele>1246.0</ele>
        <time>2021-04-18T11:38:50Z</time>
      </trkpt>
      <trkpt lat="37.3100950" lon="-2.5311540">
        <ele>1246.2</ele>
        <time>2021-04-18T11:38:51Z</time>
      </trkpt>
      <trkpt lat="37.3101330" lon="-2.5311620">
        <ele>1246.2</ele>
        <time>2021-04-18T11:38:52Z</time>
      </trkpt>
      <trkpt lat="37.3101650" lon="-2.5311690">
        <ele>1246.4</ele>
        <time>2021-04-18T11:38:53Z</time>
      </trkpt>
      <trkpt lat="37.3101970" lon="-2.5311760">
        <ele>1246.6</ele>
        <time>2021-04-18T11:38:54Z</time>
      </trkpt>
      <trkpt lat="37.3102200" lon="-2.5311810">
        <ele>1246.6</ele>
        <time>2021-04-18T11:38:55Z</time>
      </trkpt>
      <trkpt lat="37.3102520" lon="-2.5311880">
        <ele>1246.6</ele>
        <time>2021-04-18T11:38:56Z</time>
      </trkpt>
      <trkpt lat="37.3102900" lon="-2.5311930">
        <ele>1246.8</ele>
        <time>2021-04-18T11:38:57Z</time>
      </trkpt>
      <trkpt lat="37.3103210" lon="-2.5311960">
        <ele>1246.8</ele>
        <time>2021-04-18T11:38:58Z</time>
      </trkpt>
      <trkpt lat="37.3103550" lon="-2.5311950">
        <ele>1246.8</ele>
        <time>2021-04-18T11:38:59Z</time>
      </trkpt>
      <trkpt lat="37.3103850" lon="-2.5311930">
        <ele>1247.0</ele>
        <time>2021-04-18T11:39:00Z</time>
      </trkpt>
      <trkpt lat="37.3104230" lon="-2.5311870">
        <ele>1247.0</ele>
        <time>2021-04-18T11:39:01Z</time>
      </trkpt>
      <trkpt lat="37.3104680" lon="-2.5311790">
        <ele>1247.0</ele>
        <time>2021-04-18T11:39:02Z</time>
      </trkpt>
      <trkpt lat="37.3105060" lon="-2.5311730">
        <ele>1247.0</ele>
        <time>2021-04-18T11:39:03Z</time>
      </trkpt>
      <trkpt lat="37.3106370" lon="-2.5311410">
        <ele>1247.2</ele>
        <time>2021-04-18T11:39:07Z</time>
      </trkpt>
      <trkpt lat="37.3107610" lon="-2.5310790">
        <ele>1247.6</ele>
        <time>2021-04-18T11:39:11Z</time>
      </trkpt>
      <trkpt lat="37.3107940" lon="-2.5310570">
        <ele>1247.6</ele>
        <time>2021-04-18T11:39:12Z</time>
      </trkpt>
      <trkpt lat="37.3108190" lon="-2.5310370">
        <ele>1247.2</ele>
        <time>2021-04-18T11:39:13Z</time>
      </trkpt>
      <trkpt lat="37.3108440" lon="-2.5310150">
        <ele>1247.2</ele>
        <time>2021-04-18T11:39:14Z</time>
      </trkpt>
      <trkpt lat="37.3108640" lon="-2.5309990">
        <ele>1247.2</ele>
        <time>2021-04-18T11:39:15Z</time>
      </trkpt>
      <trkpt lat="37.3108880" lon="-2.5309800">
        <ele>1247.2</ele>
        <time>2021-04-18T11:39:16Z</time>
      </trkpt>
      <trkpt lat="37.3109150" lon="-2.5309560">
        <ele>1247.4</ele>
        <time>2021-04-18T11:39:17Z</time>
      </trkpt>
      <trkpt lat="37.3109390" lon="-2.5309340">
        <ele>1247.6</ele>
        <time>2021-04-18T11:39:18Z</time>
      </trkpt>
      <trkpt lat="37.3109610" lon="-2.5309090">
        <ele>1247.6</ele>
        <time>2021-04-18T11:39:19Z</time>
      </trkpt>
      <trkpt lat="37.3109780" lon="-2.5308900">
        <ele>1247.6</ele>
        <time>2021-04-18T11:39:20Z</time>
      </trkpt>
      <trkpt lat="37.3109990" lon="-2.5308640">
        <ele>1247.6</ele>
        <time>2021-04-18T11:39:21Z</time>
      </trkpt>
      <trkpt lat="37.3110250" lon="-2.5308330">
        <ele>1247.6</ele>
        <time>2021-04-18T11:39:22Z</time>
      </trkpt>
      <trkpt lat="37.3111260" lon="-2.5307050">
        <ele>1247.8</ele>
        <time>2021-04-18T11:39:27Z</time>
      </trkpt>
      <trkpt lat="37.3111540" lon="-2.5306750">
        <ele>1248.0</ele>
        <time>2021-04-18T11:39:28Z</time>
      </trkpt>
      <trkpt lat="37.3112440" lon="-2.5305870">
        <ele>1248.4</ele>
        <time>2021-04-18T11:39:32Z</time>
      </trkpt>
      <trkpt lat="37.3113770" lon="-2.5304190">
        <ele>1248.6</ele>
        <time>2021-04-18T11:39:38Z</time>
      </trkpt>
      <trkpt lat="37.3115050" lon="-2.5302610">
        <ele>1249.2</ele>
        <time>2021-04-18T11:39:44Z</time>
      </trkpt>
      <trkpt lat="37.3115710" lon="-2.5301840">
        <ele>1249.6</ele>
        <time>2021-04-18T11:39:47Z</time>
      </trkpt>
      <trkpt lat="37.3115920" lon="-2.5301570">
        <ele>1249.6</ele>
        <time>2021-04-18T11:39:48Z</time>
      </trkpt>
      <trkpt lat="37.3117220" lon="-2.5299970">
        <ele>1250.0</ele>
        <time>2021-04-18T11:39:54Z</time>
      </trkpt>
      <trkpt lat="37.3119720" lon="-2.5297700">
        <ele>1250.0</ele>
        <time>2021-04-18T11:40:03Z</time>
      </trkpt>
      <trkpt lat="37.3121800" lon="-2.5296110">
        <ele>1249.8</ele>
        <time>2021-04-18T11:40:09Z</time>
      </trkpt>
      <trkpt lat="37.3123120" lon="-2.5295310">
        <ele>1249.6</ele>
        <time>2021-04-18T11:40:12Z</time>
      </trkpt>
      <trkpt lat="37.3124100" lon="-2.5294810">
        <ele>1249.4</ele>
        <time>2021-04-18T11:40:14Z</time>
      </trkpt>
      <trkpt lat="37.3127800" lon="-2.5293560">
        <ele>1248.8</ele>
        <time>2021-04-18T11:40:20Z</time>
      </trkpt>
      <trkpt lat="37.3130050" lon="-2.5293260">
        <ele>1247.8</ele>
        <time>2021-04-18T11:40:23Z</time>
      </trkpt>
      <trkpt lat="37.3132440" lon="-2.5293200">
        <ele>1246.8</ele>
        <time>2021-04-18T11:40:26Z</time>
      </trkpt>
      <trkpt lat="37.3133280" lon="-2.5293260">
        <ele>1246.4</ele>
        <time>2021-04-18T11:40:27Z</time>
      </trkpt>
      <trkpt lat="37.3134120" lon="-2.5293370">
        <ele>1245.8</ele>
        <time>2021-04-18T11:40:28Z</time>
      </trkpt>
      <trkpt lat="37.3135790" lon="-2.5293720">
        <ele>1245.0</ele>
        <time>2021-04-18T11:40:30Z</time>
      </trkpt>
      <trkpt lat="37.3137460" lon="-2.5294160">
        <ele>1244.4</ele>
        <time>2021-04-18T11:40:32Z</time>
      </trkpt>
      <trkpt lat="37.3138330" lon="-2.5294390">
        <ele>1244.0</ele>
        <time>2021-04-18T11:40:33Z</time>
      </trkpt>
      <trkpt lat="37.3139200" lon="-2.5294650">
        <ele>1243.6</ele>
        <time>2021-04-18T11:40:34Z</time>
      </trkpt>
      <trkpt lat="37.3142750" lon="-2.5295750">
        <ele>1242.6</ele>
        <time>2021-04-18T11:40:38Z</time>
      </trkpt>
      <trkpt lat="37.3145410" lon="-2.5296560">
        <ele>1241.4</ele>
        <time>2021-04-18T11:40:41Z</time>
      </trkpt>
      <trkpt lat="37.3148120" lon="-2.5297380">
        <ele>1240.0</ele>
        <time>2021-04-18T11:40:44Z</time>
      </trkpt>
      <trkpt lat="37.3149910" lon="-2.5297950">
        <ele>1238.8</ele>
        <time>2021-04-18T11:40:46Z</time>
      </trkpt>
      <trkpt lat="37.3151690" lon="-2.5298480">
        <ele>1237.8</ele>
        <time>2021-04-18T11:40:48Z</time>
      </trkpt>
      <trkpt lat="37.3154410" lon="-2.5299180">
        <ele>1236.6</ele>
        <time>2021-04-18T11:40:51Z</time>
      </trkpt>
      <trkpt lat="37.3157200" lon="-2.5299530">
        <ele>1235.0</ele>
        <time>2021-04-18T11:40:54Z</time>
      </trkpt>
      <trkpt lat="37.3159110" lon="-2.5299550">
        <ele>1234.2</ele>
        <time>2021-04-18T11:40:57Z</time>
      </trkpt>
      <trkpt lat="37.3160310" lon="-2.5299300">
        <ele>1233.8</ele>
        <time>2021-04-18T11:40:58Z</time>
      </trkpt>
      <trkpt lat="37.3163920" lon="-2.5298560">
        <ele>1232.4</ele>
        <time>2021-04-18T11:41:01Z</time>
      </trkpt>
      <trkpt lat="37.3164910" lon="-2.5298210">
        <ele>1231.8</ele>
        <time>2021-04-18T11:41:02Z</time>
      </trkpt>
      <trkpt lat="37.3165900" lon="-2.5297760">
        <ele>1230.8</ele>
        <time>2021-04-18T11:41:03Z</time>
      </trkpt>
      <trkpt lat="37.3166860" lon="-2.5297240">
        <ele>1229.8</ele>
        <time>2021-04-18T11:41:04Z</time>
      </trkpt>
      <trkpt lat="37.3167810" lon="-2.5296640">
        <ele>1228.2</ele>
        <time>2021-04-18T11:41:06Z</time>
      </trkpt>
      <trkpt lat="37.3169200" lon="-2.5295550">
        <ele>1227.8</ele>
        <time>2021-04-18T11:41:07Z</time>
      </trkpt>
      <trkpt lat="37.3170580" lon="-2.5294460">
        <ele>1226.6</ele>
        <time>2021-04-18T11:41:08Z</time>
      </trkpt>
      <trkpt lat="37.3172370" lon="-2.5292670">
        <ele>1225.4</ele>
        <time>2021-04-18T11:41:10Z</time>
      </trkpt>
      <trkpt lat="37.3173220" lon="-2.5291680">
        <ele>1224.2</ele>
        <time>2021-04-18T11:41:11Z</time>
      </trkpt>
      <trkpt lat="37.3174840" lon="-2.5289520">
        <ele>1222.4</ele>
        <time>2021-04-18T11:41:13Z</time>
      </trkpt>
      <trkpt lat="37.3176390" lon="-2.5287230">
        <ele>1220.6</ele>
        <time>2021-04-18T11:41:15Z</time>
      </trkpt>
      <trkpt lat="37.3177910" lon="-2.5284840">
        <ele>1218.6</ele>
        <time>2021-04-18T11:41:17Z</time>
      </trkpt>
      <trkpt lat="37.3178650" lon="-2.5283590">
        <ele>1217.2</ele>
        <time>2021-04-18T11:41:18Z</time>
      </trkpt>
      <trkpt lat="37.3180180" lon="-2.5281100">
        <ele>1215.0</ele>
        <time>2021-04-18T11:41:20Z</time>
      </trkpt>
      <trkpt lat="37.3181740" lon="-2.5278610">
        <ele>1213.4</ele>
        <time>2021-04-18T11:41:22Z</time>
      </trkpt>
      <trkpt lat="37.3182570" lon="-2.5277390">
        <ele>1212.2</ele>
        <time>2021-04-18T11:41:23Z</time>
      </trkpt>
      <trkpt lat="37.3183470" lon="-2.5276200">
        <ele>1211.6</ele>
        <time>2021-04-18T11:41:24Z</time>
      </trkpt>
      <trkpt lat="37.3184250" lon="-2.5275420">
        <ele>1210.4</ele>
        <time>2021-04-18T11:41:25Z</time>
      </trkpt>
      <trkpt lat="37.3185020" lon="-2.5274640">
        <ele>1210.0</ele>
        <time>2021-04-18T11:41:26Z</time>
      </trkpt>
      <trkpt lat="37.3186570" lon="-2.5273080">
        <ele>1208.8</ele>
        <time>2021-04-18T11:41:27Z</time>
      </trkpt>
      <trkpt lat="37.3188920" lon="-2.5271480">
        <ele>1206.8</ele>
        <time>2021-04-18T11:41:29Z</time>
      </trkpt>
      <trkpt lat="37.3190120" lon="-2.5270720">
        <ele>1205.4</ele>
        <time>2021-04-18T11:41:30Z</time>
      </trkpt>
      <trkpt lat="37.3191310" lon="-2.5269990">
        <ele>1204.8</ele>
        <time>2021-04-18T11:41:31Z</time>
      </trkpt>
      <trkpt lat="37.3192540" lon="-2.5269270">
        <ele>1203.4</ele>
        <time>2021-04-18T11:41:32Z</time>
      </trkpt>
      <trkpt lat="37.3193740" lon="-2.5268560">
        <ele>1202.6</ele>
        <time>2021-04-18T11:41:33Z</time>
      </trkpt>
      <trkpt lat="37.3194950" lon="-2.5267840">
        <ele>1201.8</ele>
        <time>2021-04-18T11:41:34Z</time>
      </trkpt>
      <trkpt lat="37.3196190" lon="-2.5267080">
        <ele>1200.6</ele>
        <time>2021-04-18T11:41:35Z</time>
      </trkpt>
      <trkpt lat="37.3198610" lon="-2.5265370">
        <ele>1197.8</ele>
        <time>2021-04-18T11:41:37Z</time>
      </trkpt>
      <trkpt lat="37.3199770" lon="-2.5264410">
        <ele>1197.0</ele>
        <time>2021-04-18T11:41:38Z</time>
      </trkpt>
      <trkpt lat="37.3200880" lon="-2.5263340">
        <ele>1195.6</ele>
        <time>2021-04-18T11:41:39Z</time>
      </trkpt>
      <trkpt lat="37.3201900" lon="-2.5262150">
        <ele>1195.2</ele>
        <time>2021-04-18T11:41:40Z</time>
      </trkpt>
      <trkpt lat="37.3202840" lon="-2.5260860">
        <ele>1194.0</ele>
        <time>2021-04-18T11:41:41Z</time>
      </trkpt>
      <trkpt lat="37.3203690" lon="-2.5259470">
        <ele>1192.6</ele>
        <time>2021-04-18T11:41:42Z</time>
      </trkpt>
      <trkpt lat="37.3204450" lon="-2.5258020">
        <ele>1191.8</ele>
        <time>2021-04-18T11:41:43Z</time>
      </trkpt>
      <trkpt lat="37.3205090" lon="-2.5256420">
        <ele>1190.2</ele>
        <time>2021-04-18T11:41:44Z</time>
      </trkpt>
      <trkpt lat="37.3206110" lon="-2.5253200">
        <ele>1187.8</ele>
        <time>2021-04-18T11:41:46Z</time>
      </trkpt>
      <trkpt lat="37.3206870" lon="-2.5250250">
        <ele>1186.4</ele>
        <time>2021-04-18T11:41:48Z</time>
      </trkpt>
      <trkpt lat="37.3207220" lon="-2.5248930">
        <ele>1184.4</ele>
        <time>2021-04-18T11:41:49Z</time>
      </trkpt>
      <trkpt lat="37.3207560" lon="-2.5247750">
        <ele>1183.6</ele>
        <time>2021-04-18T11:41:50Z</time>
      </trkpt>
      <trkpt lat="37.3207920" lon="-2.5246710">
        <ele>1181.8</ele>
        <time>2021-04-18T11:41:51Z</time>
      </trkpt>
      <trkpt lat="37.3208350" lon="-2.5245800">
        <ele>1180.8</ele>
        <time>2021-04-18T11:41:52Z</time>
      </trkpt>
      <trkpt lat="37.3208960" lon="-2.5245110">
        <ele>1179.2</ele>
        <time>2021-04-18T11:41:53Z</time>
      </trkpt>
      <trkpt lat="37.3209710" lon="-2.5244660">
        <ele>1177.6</ele>
        <time>2021-04-18T11:41:54Z</time>
      </trkpt>
      <trkpt lat="37.3210460" lon="-2.5244360">
        <ele>1176.8</ele>
        <time>2021-04-18T11:41:55Z</time>
      </trkpt>
      <trkpt lat="37.3211240" lon="-2.5244060">
        <ele>1175.6</ele>
        <time>2021-04-18T11:41:56Z</time>
      </trkpt>
      <trkpt lat="37.3211920" lon="-2.5243680">
        <ele>1175.0</ele>
        <time>2021-04-18T11:41:57Z</time>
      </trkpt>
      <trkpt lat="37.3212550" lon="-2.5243230">
        <ele>1173.6</ele>
        <time>2021-04-18T11:41:58Z</time>
      </trkpt>
      <trkpt lat="37.3213100" lon="-2.5242720">
        <ele>1173.2</ele>
        <time>2021-04-18T11:41:59Z</time>
      </trkpt>
      <trkpt lat="37.3213610" lon="-2.5242210">
        <ele>1172.4</ele>
        <time>2021-04-18T11:42:00Z</time>
      </trkpt>
      <trkpt lat="37.3214090" lon="-2.5241720">
        <ele>1172.0</ele>
        <time>2021-04-18T11:42:01Z</time>
      </trkpt>
      <trkpt lat="37.3214580" lon="-2.5241280">
        <ele>1171.8</ele>
        <time>2021-04-18T11:42:02Z</time>
      </trkpt>
      <trkpt lat="37.3215050" lon="-2.5240910">
        <ele>1171.8</ele>
        <time>2021-04-18T11:42:03Z</time>
      </trkpt>
      <trkpt lat="37.3215490" lon="-2.5240600">
        <ele>1171.8</ele>
        <time>2021-04-18T11:42:04Z</time>
      </trkpt>
      <trkpt lat="37.3215880" lon="-2.5240340">
        <ele>1171.8</ele>
        <time>2021-04-18T11:42:05Z</time>
      </trkpt>
      <trkpt lat="37.3216250" lon="-2.5240120">
        <ele>1172.0</ele>
        <time>2021-04-18T11:42:06Z</time>
      </trkpt>
      <trkpt lat="37.3216580" lon="-2.5239910">
        <ele>1172.0</ele>
        <time>2021-04-18T11:42:07Z</time>
      </trkpt>
      <trkpt lat="37.3216890" lon="-2.5239720">
        <ele>1172.4</ele>
        <time>2021-04-18T11:42:08Z</time>
      </trkpt>
      <trkpt lat="37.3217180" lon="-2.5239580">
        <ele>1172.6</ele>
        <time>2021-04-18T11:42:09Z</time>
      </trkpt>
      <trkpt lat="37.3217440" lon="-2.5239420">
        <ele>1173.2</ele>
        <time>2021-04-18T11:42:10Z</time>
      </trkpt>
      <trkpt lat="37.3217680" lon="-2.5239280">
        <ele>1173.4</ele>
        <time>2021-04-18T11:42:11Z</time>
      </trkpt>
      <trkpt lat="37.3217920" lon="-2.5239140">
        <ele>1173.6</ele>
        <time>2021-04-18T11:42:12Z</time>
      </trkpt>
      <trkpt lat="37.3218140" lon="-2.5239030">
        <ele>1173.8</ele>
        <time>2021-04-18T11:42:13Z</time>
      </trkpt>
      <trkpt lat="37.3218350" lon="-2.5238930">
        <ele>1173.8</ele>
        <time>2021-04-18T11:42:14Z</time>
      </trkpt>
      <trkpt lat="37.3218570" lon="-2.5238830">
        <ele>1174.2</ele>
        <time>2021-04-18T11:42:15Z</time>
      </trkpt>
      <trkpt lat="37.3219010" lon="-2.5238670">
        <ele>1174.4</ele>
        <time>2021-04-18T11:42:17Z</time>
      </trkpt>
      <trkpt lat="37.3219260" lon="-2.5238590">
        <ele>1174.6</ele>
        <time>2021-04-18T11:42:18Z</time>
      </trkpt>
      <trkpt lat="37.3219470" lon="-2.5238540">
        <ele>1174.6</ele>
        <time>2021-04-18T11:42:19Z</time>
      </trkpt>
      <trkpt lat="37.3220340" lon="-2.5238330">
        <ele>1174.8</ele>
        <time>2021-04-18T11:42:22Z</time>
      </trkpt>
      <trkpt lat="37.3220590" lon="-2.5238210">
        <ele>1175.0</ele>
        <time>2021-04-18T11:42:23Z</time>
      </trkpt>
      <trkpt lat="37.3222680" lon="-2.5237000">
        <ele>1175.2</ele>
        <time>2021-04-18T11:42:31Z</time>
      </trkpt>
      <trkpt lat="37.3224470" lon="-2.5236080">
        <ele>1175.6</ele>
        <time>2021-04-18T11:42:38Z</time>
      </trkpt>
      <trkpt lat="37.3224930" lon="-2.5235970">
        <ele>1175.6</ele>
        <time>2021-04-18T11:42:40Z</time>
      </trkpt>
      <trkpt lat="37.3225100" lon="-2.5235900">
        <ele>1175.8</ele>
        <time>2021-04-18T11:42:41Z</time>
      </trkpt>
      <trkpt lat="37.3225380" lon="-2.5235780">
        <ele>1175.8</ele>
        <time>2021-04-18T11:42:42Z</time>
      </trkpt>
      <trkpt lat="37.3225640" lon="-2.5235640">
        <ele>1176.0</ele>
        <time>2021-04-18T11:42:43Z</time>
      </trkpt>
      <trkpt lat="37.3225920" lon="-2.5235540">
        <ele>1176.2</ele>
        <time>2021-04-18T11:42:44Z</time>
      </trkpt>
      <trkpt lat="37.3226130" lon="-2.5235480">
        <ele>1176.4</ele>
        <time>2021-04-18T11:42:45Z</time>
      </trkpt>
      <trkpt lat="37.3226440" lon="-2.5235400">
        <ele>1176.6</ele>
        <time>2021-04-18T11:42:46Z</time>
      </trkpt>
      <trkpt lat="37.3228640" lon="-2.5235140">
        <ele>1176.8</ele>
        <time>2021-04-18T11:42:53Z</time>
      </trkpt>
      <trkpt lat="37.3229580" lon="-2.5235290">
        <ele>1176.8</ele>
        <time>2021-04-18T11:42:56Z</time>
      </trkpt>
      <trkpt lat="37.3231180" lon="-2.5235920">
        <ele>1176.6</ele>
        <time>2021-04-18T11:43:01Z</time>
      </trkpt>
      <trkpt lat="37.3232610" lon="-2.5236840">
        <ele>1176.2</ele>
        <time>2021-04-18T11:43:06Z</time>
      </trkpt>
      <trkpt lat="37.3233530" lon="-2.5237610">
        <ele>1176.2</ele>
        <time>2021-04-18T11:43:10Z</time>
      </trkpt>
      <trkpt lat="37.3233790" lon="-2.5237820">
        <ele>1176.2</ele>
        <time>2021-04-18T11:43:11Z</time>
      </trkpt>
      <trkpt lat="37.3234060" lon="-2.5238030">
        <ele>1176.2</ele>
        <time>2021-04-18T11:43:12Z</time>
      </trkpt>
      <trkpt lat="37.3234330" lon="-2.5238240">
        <ele>1176.0</ele>
        <time>2021-04-18T11:43:13Z</time>
      </trkpt>
      <trkpt lat="37.3234630" lon="-2.5238440">
        <ele>1176.0</ele>
        <time>2021-04-18T11:43:14Z</time>
      </trkpt>
      <trkpt lat="37.3235580" lon="-2.5238740">
        <ele>1176.2</ele>
        <time>2021-04-18T11:43:17Z</time>
      </trkpt>
      <trkpt lat="37.3238110" lon="-2.5239040">
        <ele>1176.6</ele>
        <time>2021-04-18T11:43:25Z</time>
      </trkpt>
      <trkpt lat="37.3238410" lon="-2.5239020">
        <ele>1176.6</ele>
        <time>2021-04-18T11:43:26Z</time>
      </trkpt>
      <trkpt lat="37.3238730" lon="-2.5238950">
        <ele>1176.6</ele>
        <time>2021-04-18T11:43:27Z</time>
      </trkpt>
      <trkpt lat="37.3239040" lon="-2.5238840">
        <ele>1176.8</ele>
        <time>2021-04-18T11:43:28Z</time>
      </trkpt>
      <trkpt lat="37.3239330" lon="-2.5238760">
        <ele>1176.8</ele>
        <time>2021-04-18T11:43:29Z</time>
      </trkpt>
      <trkpt lat="37.3239650" lon="-2.5238640">
        <ele>1176.8</ele>
        <time>2021-04-18T11:43:30Z</time>
      </trkpt>
      <trkpt lat="37.3239960" lon="-2.5238510">
        <ele>1176.8</ele>
        <time>2021-04-18T11:43:31Z</time>
      </trkpt>
      <trkpt lat="37.3240270" lon="-2.5238350">
        <ele>1176.8</ele>
        <time>2021-04-18T11:43:32Z</time>
      </trkpt>
      <trkpt lat="37.3240560" lon="-2.5238220">
        <ele>1176.8</ele>
        <time>2021-04-18T11:43:33Z</time>
      </trkpt>
      <trkpt lat="37.3242150" lon="-2.5237600">
        <ele>1176.6</ele>
        <time>2021-04-18T11:43:38Z</time>
      </trkpt>
      <trkpt lat="37.3242850" lon="-2.5237250">
        <ele>1176.6</ele>
        <time>2021-04-18T11:43:40Z</time>
      </trkpt>
      <trkpt lat="37.3244760" lon="-2.5236260">
        <ele>1175.8</ele>
        <time>2021-04-18T11:43:46Z</time>
      </trkpt>
      <trkpt lat="37.3245720" lon="-2.5236000">
        <ele>1175.6</ele>
        <time>2021-04-18T11:43:49Z</time>
      </trkpt>
      <trkpt lat="37.3246390" lon="-2.5235920">
        <ele>1175.4</ele>
        <time>2021-04-18T11:43:51Z</time>
      </trkpt>
      <trkpt lat="37.3246670" lon="-2.5235930">
        <ele>1175.4</ele>
        <time>2021-04-18T11:43:52Z</time>
      </trkpt>
      <trkpt lat="37.3248230" lon="-2.5236370">
        <ele>1175.0</ele>
        <time>2021-04-18T11:43:56Z</time>
      </trkpt>
      <trkpt lat="37.3248550" lon="-2.5236550">
        <ele>1175.0</ele>
        <time>2021-04-18T11:43:57Z</time>
      </trkpt>
      <trkpt lat="37.3249780" lon="-2.5237500">
        <ele>1174.6</ele>
        <time>2021-04-18T11:44:00Z</time>
      </trkpt>
      <trkpt lat="37.3250610" lon="-2.5238490">
        <ele>1174.6</ele>
        <time>2021-04-18T11:44:02Z</time>
      </trkpt>
      <trkpt lat="37.3252470" lon="-2.5240930">
        <ele>1174.0</ele>
        <time>2021-04-18T11:44:06Z</time>
      </trkpt>
      <trkpt lat="37.3252910" lon="-2.5241310">
        <ele>1173.4</ele>
        <time>2021-04-18T11:44:07Z</time>
      </trkpt>
      <trkpt lat="37.3253620" lon="-2.5241760">
        <ele>1173.0</ele>
        <time>2021-04-18T11:44:08Z</time>
      </trkpt>
      <trkpt lat="37.3254780" lon="-2.5242040">
        <ele>1172.4</ele>
        <time>2021-04-18T11:44:10Z</time>
      </trkpt>
      <trkpt lat="37.3255290" lon="-2.5242010">
        <ele>1172.2</ele>
        <time>2021-04-18T11:44:11Z</time>
      </trkpt>
      <trkpt lat="37.3255780" lon="-2.5241890">
        <ele>1172.0</ele>
        <time>2021-04-18T11:44:12Z</time>
      </trkpt>
      <trkpt lat="37.3256210" lon="-2.5241680">
        <ele>1171.8</ele>
        <time>2021-04-18T11:44:13Z</time>
      </trkpt>
      <trkpt lat="37.3256580" lon="-2.5241390">
        <ele>1171.6</ele>
        <time>2021-04-18T11:44:14Z</time>
      </trkpt>
      <trkpt lat="37.3256900" lon="-2.5241070">
        <ele>1171.6</ele>
        <time>2021-04-18T11:44:15Z</time>
      </trkpt>
      <trkpt lat="37.3257170" lon="-2.5240780">
        <ele>1171.6</ele>
        <time>2021-04-18T11:44:16Z</time>
      </trkpt>
      <trkpt lat="37.3257420" lon="-2.5240430">
        <ele>1171.6</ele>
        <time>2021-04-18T11:44:17Z</time>
      </trkpt>
      <trkpt lat="37.3257650" lon="-2.5240080">
        <ele>1171.6</ele>
        <time>2021-04-18T11:44:18Z</time>
      </trkpt>
      <trkpt lat="37.3257900" lon="-2.5239770">
        <ele>1171.6</ele>
        <time>2021-04-18T11:44:19Z</time>
      </trkpt>
      <trkpt lat="37.3258150" lon="-2.5239440">
        <ele>1171.6</ele>
        <time>2021-04-18T11:44:20Z</time>
      </trkpt>
      <trkpt lat="37.3258690" lon="-2.5238810">
        <ele>1171.6</ele>
        <time>2021-04-18T11:44:22Z</time>
      </trkpt>
      <trkpt lat="37.3258960" lon="-2.5238540">
        <ele>1171.8</ele>
        <time>2021-04-18T11:44:23Z</time>
      </trkpt>
      <trkpt lat="37.3259180" lon="-2.5238300">
        <ele>1171.8</ele>
        <time>2021-04-18T11:44:24Z</time>
      </trkpt>
      <trkpt lat="37.3259480" lon="-2.5237990">
        <ele>1171.8</ele>
        <time>2021-04-18T11:44:25Z</time>
      </trkpt>
      <trkpt lat="37.3259710" lon="-2.5237720">
        <ele>1171.8</ele>
        <time>2021-04-18T11:44:26Z</time>
      </trkpt>
      <trkpt lat="37.3259960" lon="-2.5237480">
        <ele>1172.0</ele>
        <time>2021-04-18T11:44:27Z</time>
      </trkpt>
      <trkpt lat="37.3260200" lon="-2.5237250">
        <ele>1172.0</ele>
        <time>2021-04-18T11:44:28Z</time>
      </trkpt>
      <trkpt lat="37.3260720" lon="-2.5236810">
        <ele>1172.0</ele>
        <time>2021-04-18T11:44:30Z</time>
      </trkpt>
      <trkpt lat="37.3260950" lon="-2.5236620">
        <ele>1172.2</ele>
        <time>2021-04-18T11:44:31Z</time>
      </trkpt>
      <trkpt lat="37.3261230" lon="-2.5236550">
        <ele>1172.2</ele>
        <time>2021-04-18T11:44:32Z</time>
      </trkpt>
      <trkpt lat="37.3261490" lon="-2.5236480">
        <ele>1172.2</ele>
        <time>2021-04-18T11:44:33Z</time>
      </trkpt>
      <trkpt lat="37.3261670" lon="-2.5236380">
        <ele>1172.2</ele>
        <time>2021-04-18T11:44:34Z</time>
      </trkpt>
      <trkpt lat="37.3261960" lon="-2.5236280">
        <ele>1172.2</ele>
        <time>2021-04-18T11:44:35Z</time>
      </trkpt>
      <trkpt lat="37.3262260" lon="-2.5236240">
        <ele>1172.2</ele>
        <time>2021-04-18T11:44:36Z</time>
      </trkpt>
      <trkpt lat="37.3262560" lon="-2.5236200">
        <ele>1172.2</ele>
        <time>2021-04-18T11:44:37Z</time>
      </trkpt>
      <trkpt lat="37.3264850" lon="-2.5236790">
        <ele>1172.2</ele>
        <time>2021-04-18T11:44:44Z</time>
      </trkpt>
      <trkpt lat="37.3267570" lon="-2.5238370">
        <ele>1171.8</ele>
        <time>2021-04-18T11:44:52Z</time>
      </trkpt>
      <trkpt lat="37.3269460" lon="-2.5239020">
        <ele>1171.8</ele>
        <time>2021-04-18T11:44:57Z</time>
      </trkpt>
      <trkpt lat="37.3269820" lon="-2.5238990">
        <ele>1171.8</ele>
        <time>2021-04-18T11:44:58Z</time>
      </trkpt>
      <trkpt lat="37.3270160" lon="-2.5238950">
        <ele>1171.8</ele>
        <time>2021-04-18T11:44:59Z</time>
      </trkpt>
      <trkpt lat="37.3271600" lon="-2.5238450">
        <ele>1171.8</ele>
        <time>2021-04-18T11:45:03Z</time>
      </trkpt>
      <trkpt lat="37.3273030" lon="-2.5236640">
        <ele>1172.0</ele>
        <time>2021-04-18T11:45:08Z</time>
      </trkpt>
      <trkpt lat="37.3273260" lon="-2.5236170">
        <ele>1171.6</ele>
        <time>2021-04-18T11:45:09Z</time>
      </trkpt>
      <trkpt lat="37.3273500" lon="-2.5235670">
        <ele>1171.6</ele>
        <time>2021-04-18T11:45:10Z</time>
      </trkpt>
      <trkpt lat="37.3273720" lon="-2.5235150">
        <ele>1171.6</ele>
        <time>2021-04-18T11:45:11Z</time>
      </trkpt>
      <trkpt lat="37.3274120" lon="-2.5234030">
        <ele>1171.6</ele>
        <time>2021-04-18T11:45:13Z</time>
      </trkpt>
      <trkpt lat="37.3274510" lon="-2.5232910">
        <ele>1171.4</ele>
        <time>2021-04-18T11:45:15Z</time>
      </trkpt>
      <trkpt lat="37.3274710" lon="-2.5232340">
        <ele>1171.2</ele>
        <time>2021-04-18T11:45:16Z</time>
      </trkpt>
      <trkpt lat="37.3276270" lon="-2.5228850">
        <ele>1170.2</ele>
        <time>2021-04-18T11:45:23Z</time>
      </trkpt>
      <trkpt lat="37.3276500" lon="-2.5228400">
        <ele>1170.2</ele>
        <time>2021-04-18T11:45:24Z</time>
      </trkpt>
      <trkpt lat="37.3276730" lon="-2.5227950">
        <ele>1170.0</ele>
        <time>2021-04-18T11:45:25Z</time>
      </trkpt>
      <trkpt lat="37.3276990" lon="-2.5227490">
        <ele>1169.6</ele>
        <time>2021-04-18T11:45:26Z</time>
      </trkpt>
      <trkpt lat="37.3277270" lon="-2.5227070">
        <ele>1169.6</ele>
        <time>2021-04-18T11:45:27Z</time>
      </trkpt>
      <trkpt lat="37.3277840" lon="-2.5226220">
        <ele>1169.4</ele>
        <time>2021-04-18T11:45:29Z</time>
      </trkpt>
      <trkpt lat="37.3278690" lon="-2.5224940">
        <ele>1169.0</ele>
        <time>2021-04-18T11:45:32Z</time>
      </trkpt>
      <trkpt lat="37.3278980" lon="-2.5224550">
        <ele>1169.0</ele>
        <time>2021-04-18T11:45:33Z</time>
      </trkpt>
      <trkpt lat="37.3279270" lon="-2.5224180">
        <ele>1168.8</ele>
        <time>2021-04-18T11:45:34Z</time>
      </trkpt>
      <trkpt lat="37.3279600" lon="-2.5223820">
        <ele>1168.8</ele>
        <time>2021-04-18T11:45:35Z</time>
      </trkpt>
      <trkpt lat="37.3279930" lon="-2.5223470">
        <ele>1168.8</ele>
        <time>2021-04-18T11:45:36Z</time>
      </trkpt>
      <trkpt lat="37.3281510" lon="-2.5222350">
        <ele>1168.4</ele>
        <time>2021-04-18T11:45:40Z</time>
      </trkpt>
      <trkpt lat="37.3282310" lon="-2.5222100">
        <ele>1168.4</ele>
        <time>2021-04-18T11:45:42Z</time>
      </trkpt>
      <trkpt lat="37.3283110" lon="-2.5222000">
        <ele>1168.2</ele>
        <time>2021-04-18T11:45:44Z</time>
      </trkpt>
      <trkpt lat="37.3284280" lon="-2.5222200">
        <ele>1168.2</ele>
        <time>2021-04-18T11:45:47Z</time>
      </trkpt>
      <trkpt lat="37.3284680" lon="-2.5222290">
        <ele>1168.2</ele>
        <time>2021-04-18T11:45:48Z</time>
      </trkpt>
      <trkpt lat="37.3285060" lon="-2.5222420">
        <ele>1168.4</ele>
        <time>2021-04-18T11:45:49Z</time>
      </trkpt>
      <trkpt lat="37.3285460" lon="-2.5222610">
        <ele>1168.4</ele>
        <time>2021-04-18T11:45:50Z</time>
      </trkpt>
      <trkpt lat="37.3287080" lon="-2.5223640">
        <ele>1168.2</ele>
        <time>2021-04-18T11:45:54Z</time>
      </trkpt>
      <trkpt lat="37.3287490" lon="-2.5223950">
        <ele>1168.2</ele>
        <time>2021-04-18T11:45:55Z</time>
      </trkpt>
      <trkpt lat="37.3290680" lon="-2.5226680">
        <ele>1168.0</ele>
        <time>2021-04-18T11:46:03Z</time>
      </trkpt>
      <trkpt lat="37.3291400" lon="-2.5227370">
        <ele>1167.8</ele>
        <time>2021-04-18T11:46:05Z</time>
      </trkpt>
      <trkpt lat="37.3292330" lon="-2.5228450">
        <ele>1167.4</ele>
        <time>2021-04-18T11:46:08Z</time>
      </trkpt>
      <trkpt lat="37.3292650" lon="-2.5228820">
        <ele>1167.4</ele>
        <time>2021-04-18T11:46:09Z</time>
      </trkpt>
      <trkpt lat="37.3292970" lon="-2.5229170">
        <ele>1167.2</ele>
        <time>2021-04-18T11:46:10Z</time>
      </trkpt>
      <trkpt lat="37.3293270" lon="-2.5229520">
        <ele>1167.0</ele>
        <time>2021-04-18T11:46:11Z</time>
      </trkpt>
      <trkpt lat="37.3293570" lon="-2.5229880">
        <ele>1167.0</ele>
        <time>2021-04-18T11:46:12Z</time>
      </trkpt>
      <trkpt lat="37.3293860" lon="-2.5230260">
        <ele>1166.8</ele>
        <time>2021-04-18T11:46:13Z</time>
      </trkpt>
      <trkpt lat="37.3294110" lon="-2.5230650">
        <ele>1166.8</ele>
        <time>2021-04-18T11:46:14Z</time>
      </trkpt>
      <trkpt lat="37.3294350" lon="-2.5231050">
        <ele>1166.6</ele>
        <time>2021-04-18T11:46:15Z</time>
      </trkpt>
      <trkpt lat="37.3294560" lon="-2.5231460">
        <ele>1166.6</ele>
        <time>2021-04-18T11:46:16Z</time>
      </trkpt>
      <trkpt lat="37.3294950" lon="-2.5232370">
        <ele>1166.4</ele>
        <time>2021-04-18T11:46:18Z</time>
      </trkpt>
      <trkpt lat="37.3295160" lon="-2.5232830">
        <ele>1166.2</ele>
        <time>2021-04-18T11:46:19Z</time>
      </trkpt>
      <trkpt lat="37.3295340" lon="-2.5233310">
        <ele>1166.2</ele>
        <time>2021-04-18T11:46:20Z</time>
      </trkpt>
      <trkpt lat="37.3295570" lon="-2.5234340">
        <ele>1166.0</ele>
        <time>2021-04-18T11:46:22Z</time>
      </trkpt>
      <trkpt lat="37.3295520" lon="-2.5235530">
        <ele>1166.0</ele>
        <time>2021-04-18T11:46:24Z</time>
      </trkpt>
      <trkpt lat="37.3295370" lon="-2.5236170">
        <ele>1165.8</ele>
        <time>2021-04-18T11:46:25Z</time>
      </trkpt>
      <trkpt lat="37.3295150" lon="-2.5236790">
        <ele>1165.8</ele>
        <time>2021-04-18T11:46:26Z</time>
      </trkpt>
      <trkpt lat="37.3294880" lon="-2.5237400">
        <ele>1165.6</ele>
        <time>2021-04-18T11:46:27Z</time>
      </trkpt>
      <trkpt lat="37.3294560" lon="-2.5238020">
        <ele>1165.4</ele>
        <time>2021-04-18T11:46:28Z</time>
      </trkpt>
      <trkpt lat="37.3294200" lon="-2.5238630">
        <ele>1165.2</ele>
        <time>2021-04-18T11:46:29Z</time>
      </trkpt>
      <trkpt lat="37.3293780" lon="-2.5239230">
        <ele>1165.0</ele>
        <time>2021-04-18T11:46:30Z</time>
      </trkpt>
      <trkpt lat="37.3292960" lon="-2.5240570">
        <ele>1164.0</ele>
        <time>2021-04-18T11:46:32Z</time>
      </trkpt>
      <trkpt lat="37.3292640" lon="-2.5241390">
        <ele>1163.6</ele>
        <time>2021-04-18T11:46:33Z</time>
      </trkpt>
      <trkpt lat="37.3292210" lon="-2.5243210">
        <ele>1162.8</ele>
        <time>2021-04-18T11:46:35Z</time>
      </trkpt>
      <trkpt lat="37.3292110" lon="-2.5244170">
        <ele>1162.4</ele>
        <time>2021-04-18T11:46:36Z</time>
      </trkpt>
      <trkpt lat="37.3292090" lon="-2.5245160">
        <ele>1161.4</ele>
        <time>2021-04-18T11:46:37Z</time>
      </trkpt>
      <trkpt lat="37.3291950" lon="-2.5247150">
        <ele>1160.2</ele>
        <time>2021-04-18T11:46:39Z</time>
      </trkpt>
      <trkpt lat="37.3291730" lon="-2.5248110">
        <ele>1159.8</ele>
        <time>2021-04-18T11:46:40Z</time>
      </trkpt>
      <trkpt lat="37.3291440" lon="-2.5249050">
        <ele>1159.4</ele>
        <time>2021-04-18T11:46:41Z</time>
      </trkpt>
      <trkpt lat="37.3291080" lon="-2.5249950">
        <ele>1158.8</ele>
        <time>2021-04-18T11:46:42Z</time>
      </trkpt>
      <trkpt lat="37.3290420" lon="-2.5251570">
        <ele>1157.8</ele>
        <time>2021-04-18T11:46:44Z</time>
      </trkpt>
      <trkpt lat="37.3289850" lon="-2.5253250">
        <ele>1156.0</ele>
        <time>2021-04-18T11:46:46Z</time>
      </trkpt>
      <trkpt lat="37.3289700" lon="-2.5254240">
        <ele>1155.4</ele>
        <time>2021-04-18T11:46:47Z</time>
      </trkpt>
      <trkpt lat="37.3289620" lon="-2.5255310">
        <ele>1155.0</ele>
        <time>2021-04-18T11:46:48Z</time>
      </trkpt>
      <trkpt lat="37.3289550" lon="-2.5256450">
        <ele>1154.2</ele>
        <time>2021-04-18T11:46:49Z</time>
      </trkpt>
      <trkpt lat="37.3289400" lon="-2.5257640">
        <ele>1154.0</ele>
        <time>2021-04-18T11:46:50Z</time>
      </trkpt>
      <trkpt lat="37.3289080" lon="-2.5258790">
        <ele>1152.4</ele>
        <time>2021-04-18T11:46:51Z</time>
      </trkpt>
      <trkpt lat="37.3288680" lon="-2.5259860">
        <ele>1151.8</ele>
        <time>2021-04-18T11:46:52Z</time>
      </trkpt>
      <trkpt lat="37.3288350" lon="-2.5260840">
        <ele>1151.0</ele>
        <time>2021-04-18T11:46:53Z</time>
      </trkpt>
      <trkpt lat="37.3288160" lon="-2.5261770">
        <ele>1149.8</ele>
        <time>2021-04-18T11:46:54Z</time>
      </trkpt>
      <trkpt lat="37.3288200" lon="-2.5262650">
        <ele>1149.4</ele>
        <time>2021-04-18T11:46:55Z</time>
      </trkpt>
      <trkpt lat="37.3288420" lon="-2.5263470">
        <ele>1148.2</ele>
        <time>2021-04-18T11:46:56Z</time>
      </trkpt>
      <trkpt lat="37.3288990" lon="-2.5264120">
        <ele>1147.8</ele>
        <time>2021-04-18T11:46:57Z</time>
      </trkpt>
      <trkpt lat="37.3289750" lon="-2.5264680">
        <ele>1146.6</ele>
        <time>2021-04-18T11:46:58Z</time>
      </trkpt>
      <trkpt lat="37.3291560" lon="-2.5265670">
        <ele>1145.0</ele>
        <time>2021-04-18T11:47:00Z</time>
      </trkpt>
      <trkpt lat="37.3292570" lon="-2.5266090">
        <ele>1144.2</ele>
        <time>2021-04-18T11:47:01Z</time>
      </trkpt>
      <trkpt lat="37.3293510" lon="-2.5266450">
        <ele>1143.6</ele>
        <time>2021-04-18T11:47:02Z</time>
      </trkpt>
      <trkpt lat="37.3294470" lon="-2.5266630">
        <ele>1142.6</ele>
        <time>2021-04-18T11:47:03Z</time>
      </trkpt>
      <trkpt lat="37.3295520" lon="-2.5266560">
        <ele>1142.0</ele>
        <time>2021-04-18T11:47:04Z</time>
      </trkpt>
      <trkpt lat="37.3296550" lon="-2.5266380">
        <ele>1141.2</ele>
        <time>2021-04-18T11:47:05Z</time>
      </trkpt>
      <trkpt lat="37.3297610" lon="-2.5266100">
        <ele>1139.8</ele>
        <time>2021-04-18T11:47:06Z</time>
      </trkpt>
      <trkpt lat="37.3299510" lon="-2.5265530">
        <ele>1138.4</ele>
        <time>2021-04-18T11:47:08Z</time>
      </trkpt>
      <trkpt lat="37.3300360" lon="-2.5265360">
        <ele>1137.8</ele>
        <time>2021-04-18T11:47:09Z</time>
      </trkpt>
      <trkpt lat="37.3301220" lon="-2.5265550">
        <ele>1137.0</ele>
        <time>2021-04-18T11:47:10Z</time>
      </trkpt>
      <trkpt lat="37.3302080" lon="-2.5266080">
        <ele>1136.6</ele>
        <time>2021-04-18T11:47:11Z</time>
      </trkpt>
      <trkpt lat="37.3302620" lon="-2.5266900">
        <ele>1135.8</ele>
        <time>2021-04-18T11:47:12Z</time>
      </trkpt>
      <trkpt lat="37.3302980" lon="-2.5267930">
        <ele>1134.6</ele>
        <time>2021-04-18T11:47:13Z</time>
      </trkpt>
      <trkpt lat="37.3303260" lon="-2.5269020">
        <ele>1134.2</ele>
        <time>2021-04-18T11:47:14Z</time>
      </trkpt>
      <trkpt lat="37.3303590" lon="-2.5270160">
        <ele>1132.4</ele>
        <time>2021-04-18T11:47:15Z</time>
      </trkpt>
      <trkpt lat="37.3304040" lon="-2.5271260">
        <ele>1132.0</ele>
        <time>2021-04-18T11:47:16Z</time>
      </trkpt>
      <trkpt lat="37.3304480" lon="-2.5272390">
        <ele>1130.6</ele>
        <time>2021-04-18T11:47:17Z</time>
      </trkpt>
      <trkpt lat="37.3305020" lon="-2.5273490">
        <ele>1130.2</ele>
        <time>2021-04-18T11:47:18Z</time>
      </trkpt>
      <trkpt lat="37.3305690" lon="-2.5274440">
        <ele>1129.4</ele>
        <time>2021-04-18T11:47:19Z</time>
      </trkpt>
      <trkpt lat="37.3306530" lon="-2.5275200">
        <ele>1128.2</ele>
        <time>2021-04-18T11:47:20Z</time>
      </trkpt>
      <trkpt lat="37.3308580" lon="-2.5276060">
        <ele>1126.6</ele>
        <time>2021-04-18T11:47:22Z</time>
      </trkpt>
      <trkpt lat="37.3309710" lon="-2.5276130">
        <ele>1126.0</ele>
        <time>2021-04-18T11:47:23Z</time>
      </trkpt>
      <trkpt lat="37.3310870" lon="-2.5276120">
        <ele>1124.2</ele>
        <time>2021-04-18T11:47:24Z</time>
      </trkpt>
      <trkpt lat="37.3311870" lon="-2.5276160">
        <ele>1122.8</ele>
        <time>2021-04-18T11:47:25Z</time>
      </trkpt>
      <trkpt lat="37.3312770" lon="-2.5276410">
        <ele>1122.0</ele>
        <time>2021-04-18T11:47:26Z</time>
      </trkpt>
      <trkpt lat="37.3313550" lon="-2.5276950">
        <ele>1120.6</ele>
        <time>2021-04-18T11:47:27Z</time>
      </trkpt>
      <trkpt lat="37.3314100" lon="-2.5277730">
        <ele>1120.0</ele>
        <time>2021-04-18T11:47:28Z</time>
      </trkpt>
      <trkpt lat="37.3314250" lon="-2.5278750">
        <ele>1119.0</ele>
        <time>2021-04-18T11:47:29Z</time>
      </trkpt>
      <trkpt lat="37.3314930" lon="-2.5280750">
        <ele>1117.6</ele>
        <time>2021-04-18T11:47:31Z</time>
      </trkpt>
      <trkpt lat="37.3315620" lon="-2.5281620">
        <ele>1116.6</ele>
        <time>2021-04-18T11:47:32Z</time>
      </trkpt>
      <trkpt lat="37.3316430" lon="-2.5282430">
        <ele>1116.2</ele>
        <time>2021-04-18T11:47:33Z</time>
      </trkpt>
      <trkpt lat="37.3317330" lon="-2.5283180">
        <ele>1114.6</ele>
        <time>2021-04-18T11:47:34Z</time>
      </trkpt>
      <trkpt lat="37.3318300" lon="-2.5283840">
        <ele>1114.4</ele>
        <time>2021-04-18T11:47:35Z</time>
      </trkpt>
      <trkpt lat="37.3319330" lon="-2.5284390">
        <ele>1113.4</ele>
        <time>2021-04-18T11:47:36Z</time>
      </trkpt>
      <trkpt lat="37.3320400" lon="-2.5284890">
        <ele>1112.4</ele>
        <time>2021-04-18T11:47:37Z</time>
      </trkpt>
      <trkpt lat="37.3321500" lon="-2.5285310">
        <ele>1110.8</ele>
        <time>2021-04-18T11:47:38Z</time>
      </trkpt>
      <trkpt lat="37.3322670" lon="-2.5285640">
        <ele>1109.4</ele>
        <time>2021-04-18T11:47:39Z</time>
      </trkpt>
      <trkpt lat="37.3325070" lon="-2.5286110">
        <ele>1106.6</ele>
        <time>2021-04-18T11:47:41Z</time>
      </trkpt>
      <trkpt lat="37.3326250" lon="-2.5286180">
        <ele>1106.0</ele>
        <time>2021-04-18T11:47:42Z</time>
      </trkpt>
      <trkpt lat="37.3327400" lon="-2.5286110">
        <ele>1105.0</ele>
        <time>2021-04-18T11:47:43Z</time>
      </trkpt>
      <trkpt lat="37.3328560" lon="-2.5285920">
        <ele>1104.0</ele>
        <time>2021-04-18T11:47:44Z</time>
      </trkpt>
      <trkpt lat="37.3329740" lon="-2.5285680">
        <ele>1103.2</ele>
        <time>2021-04-18T11:47:45Z</time>
      </trkpt>
      <trkpt lat="37.3330930" lon="-2.5285340">
        <ele>1101.4</ele>
        <time>2021-04-18T11:47:46Z</time>
      </trkpt>
      <trkpt lat="37.3333300" lon="-2.5284600">
        <ele>1099.4</ele>
        <time>2021-04-18T11:47:48Z</time>
      </trkpt>
      <trkpt lat="37.3335660" lon="-2.5283980">
        <ele>1097.0</ele>
        <time>2021-04-18T11:47:50Z</time>
      </trkpt>
      <trkpt lat="37.3336870" lon="-2.5283810">
        <ele>1095.4</ele>
        <time>2021-04-18T11:47:51Z</time>
      </trkpt>
      <trkpt lat="37.3338070" lon="-2.5283720">
        <ele>1094.0</ele>
        <time>2021-04-18T11:47:52Z</time>
      </trkpt>
      <trkpt lat="37.3339220" lon="-2.5283720">
        <ele>1091.2</ele>
        <time>2021-04-18T11:47:53Z</time>
      </trkpt>
      <trkpt lat="37.3341410" lon="-2.5283670">
        <ele>1089.4</ele>
        <time>2021-04-18T11:47:55Z</time>
      </trkpt>
      <trkpt lat="37.3342370" lon="-2.5283500">
        <ele>1088.8</ele>
        <time>2021-04-18T11:47:56Z</time>
      </trkpt>
      <trkpt lat="37.3343330" lon="-2.5283140">
        <ele>1086.4</ele>
        <time>2021-04-18T11:47:57Z</time>
      </trkpt>
      <trkpt lat="37.3344280" lon="-2.5282540">
        <ele>1083.6</ele>
        <time>2021-04-18T11:47:58Z</time>
      </trkpt>
      <trkpt lat="37.3345120" lon="-2.5281750">
        <ele>1082.8</ele>
        <time>2021-04-18T11:47:59Z</time>
      </trkpt>
      <trkpt lat="37.3345910" lon="-2.5280840">
        <ele>1081.4</ele>
        <time>2021-04-18T11:48:00Z</time>
      </trkpt>
      <trkpt lat="37.3346660" lon="-2.5279830">
        <ele>1080.8</ele>
        <time>2021-04-18T11:48:01Z</time>
      </trkpt>
      <trkpt lat="37.3347360" lon="-2.5278810">
        <ele>1080.0</ele>
        <time>2021-04-18T11:48:02Z</time>
      </trkpt>
      <trkpt lat="37.3348030" lon="-2.5277710">
        <ele>1078.8</ele>
        <time>2021-04-18T11:48:03Z</time>
      </trkpt>
      <trkpt lat="37.3349320" lon="-2.5275370">
        <ele>1075.8</ele>
        <time>2021-04-18T11:48:05Z</time>
      </trkpt>
      <trkpt lat="37.3350040" lon="-2.5274290">
        <ele>1074.8</ele>
        <time>2021-04-18T11:48:06Z</time>
      </trkpt>
      <trkpt lat="37.3350770" lon="-2.5273400">
        <ele>1073.8</ele>
        <time>2021-04-18T11:48:07Z</time>
      </trkpt>
      <trkpt lat="37.3351470" lon="-2.5272760">
        <ele>1073.2</ele>
        <time>2021-04-18T11:48:08Z</time>
      </trkpt>
      <trkpt lat="37.3352190" lon="-2.5272370">
        <ele>1071.6</ele>
        <time>2021-04-18T11:48:09Z</time>
      </trkpt>
      <trkpt lat="37.3352950" lon="-2.5272350">
        <ele>1070.0</ele>
        <time>2021-04-18T11:48:10Z</time>
      </trkpt>
      <trkpt lat="37.3353690" lon="-2.5272660">
        <ele>1069.2</ele>
        <time>2021-04-18T11:48:11Z</time>
      </trkpt>
      <trkpt lat="37.3354380" lon="-2.5273250">
        <ele>1067.0</ele>
        <time>2021-04-18T11:48:12Z</time>
      </trkpt>
      <trkpt lat="37.3354840" lon="-2.5274080">
        <ele>1065.8</ele>
        <time>2021-04-18T11:48:13Z</time>
      </trkpt>
      <trkpt lat="37.3355100" lon="-2.5275160">
        <ele>1064.0</ele>
        <time>2021-04-18T11:48:14Z</time>
      </trkpt>
      <trkpt lat="37.3355150" lon="-2.5276290">
        <ele>1062.6</ele>
        <time>2021-04-18T11:48:15Z</time>
      </trkpt>
      <trkpt lat="37.3355000" lon="-2.5277500">
        <ele>1062.0</ele>
        <time>2021-04-18T11:48:16Z</time>
      </trkpt>
      <trkpt lat="37.3354880" lon="-2.5278760">
        <ele>1061.2</ele>
        <time>2021-04-18T11:48:17Z</time>
      </trkpt>
      <trkpt lat="37.3354810" lon="-2.5280060">
        <ele>1060.8</ele>
        <time>2021-04-18T11:48:18Z</time>
      </trkpt>
      <trkpt lat="37.3354770" lon="-2.5281340">
        <ele>1059.6</ele>
        <time>2021-04-18T11:48:19Z</time>
      </trkpt>
      <trkpt lat="37.3354850" lon="-2.5282580">
        <ele>1059.0</ele>
        <time>2021-04-18T11:48:20Z</time>
      </trkpt>
      <trkpt lat="37.3355140" lon="-2.5283780">
        <ele>1057.4</ele>
        <time>2021-04-18T11:48:21Z</time>
      </trkpt>
      <trkpt lat="37.3355660" lon="-2.5284890">
        <ele>1056.4</ele>
        <time>2021-04-18T11:48:22Z</time>
      </trkpt>
      <trkpt lat="37.3356340" lon="-2.5285850">
        <ele>1055.8</ele>
        <time>2021-04-18T11:48:23Z</time>
      </trkpt>
      <trkpt lat="37.3357190" lon="-2.5286630">
        <ele>1054.8</ele>
        <time>2021-04-18T11:48:24Z</time>
      </trkpt>
      <trkpt lat="37.3358090" lon="-2.5287280">
        <ele>1054.2</ele>
        <time>2021-04-18T11:48:25Z</time>
      </trkpt>
      <trkpt lat="37.3359010" lon="-2.5287920">
        <ele>1053.4</ele>
        <time>2021-04-18T11:48:26Z</time>
      </trkpt>
      <trkpt lat="37.3360020" lon="-2.5288510">
        <ele>1052.6</ele>
        <time>2021-04-18T11:48:27Z</time>
      </trkpt>
      <trkpt lat="37.3361040" lon="-2.5289010">
        <ele>1051.0</ele>
        <time>2021-04-18T11:48:28Z</time>
      </trkpt>
      <trkpt lat="37.3362110" lon="-2.5289440">
        <ele>1049.2</ele>
        <time>2021-04-18T11:48:29Z</time>
      </trkpt>
      <trkpt lat="37.3363260" lon="-2.5289760">
        <ele>1048.4</ele>
        <time>2021-04-18T11:48:30Z</time>
      </trkpt>
      <trkpt lat="37.3364460" lon="-2.5289970">
        <ele>1047.2</ele>
        <time>2021-04-18T11:48:31Z</time>
      </trkpt>
      <trkpt lat="37.3366970" lon="-2.5290210">
        <ele>1045.6</ele>
        <time>2021-04-18T11:48:33Z</time>
      </trkpt>
      <trkpt lat="37.3368210" lon="-2.5290360">
        <ele>1044.2</ele>
        <time>2021-04-18T11:48:34Z</time>
      </trkpt>
      <trkpt lat="37.3369400" lon="-2.5290550">
        <ele>1043.4</ele>
        <time>2021-04-18T11:48:35Z</time>
      </trkpt>
      <trkpt lat="37.3370610" lon="-2.5290730">
        <ele>1041.8</ele>
        <time>2021-04-18T11:48:36Z</time>
      </trkpt>
      <trkpt lat="37.3371790" lon="-2.5290800">
        <ele>1041.2</ele>
        <time>2021-04-18T11:48:37Z</time>
      </trkpt>
      <trkpt lat="37.3372900" lon="-2.5290640">
        <ele>1039.4</ele>
        <time>2021-04-18T11:48:38Z</time>
      </trkpt>
      <trkpt lat="37.3373920" lon="-2.5290200">
        <ele>1038.4</ele>
        <time>2021-04-18T11:48:39Z</time>
      </trkpt>
      <trkpt lat="37.3374810" lon="-2.5289500">
        <ele>1036.6</ele>
        <time>2021-04-18T11:48:40Z</time>
      </trkpt>
      <trkpt lat="37.3375640" lon="-2.5288670">
        <ele>1034.8</ele>
        <time>2021-04-18T11:48:41Z</time>
      </trkpt>
      <trkpt lat="37.3376440" lon="-2.5287810">
        <ele>1034.4</ele>
        <time>2021-04-18T11:48:42Z</time>
      </trkpt>
      <trkpt lat="37.3377250" lon="-2.5287200">
        <ele>1032.6</ele>
        <time>2021-04-18T11:48:43Z</time>
      </trkpt>
      <trkpt lat="37.3378120" lon="-2.5286900">
        <ele>1032.0</ele>
        <time>2021-04-18T11:48:44Z</time>
      </trkpt>
      <trkpt lat="37.3379020" lon="-2.5286970">
        <ele>1030.6</ele>
        <time>2021-04-18T11:48:45Z</time>
      </trkpt>
      <trkpt lat="37.3379920" lon="-2.5287370">
        <ele>1028.8</ele>
        <time>2021-04-18T11:48:46Z</time>
      </trkpt>
      <trkpt lat="37.3380760" lon="-2.5287990">
        <ele>1028.0</ele>
        <time>2021-04-18T11:48:47Z</time>
      </trkpt>
      <trkpt lat="37.3381530" lon="-2.5288800">
        <ele>1026.8</ele>
        <time>2021-04-18T11:48:48Z</time>
      </trkpt>
      <trkpt lat="37.3382130" lon="-2.5289760">
        <ele>1026.2</ele>
        <time>2021-04-18T11:48:49Z</time>
      </trkpt>
      <trkpt lat="37.3382640" lon="-2.5290850">
        <ele>1025.4</ele>
        <time>2021-04-18T11:48:50Z</time>
      </trkpt>
      <trkpt lat="37.3382960" lon="-2.5292010">
        <ele>1024.8</ele>
        <time>2021-04-18T11:48:51Z</time>
      </trkpt>
      <trkpt lat="37.3382950" lon="-2.5293240">
        <ele>1023.8</ele>
        <time>2021-04-18T11:48:52Z</time>
      </trkpt>
      <trkpt lat="37.3382780" lon="-2.5294520">
        <ele>1022.4</ele>
        <time>2021-04-18T11:48:53Z</time>
      </trkpt>
      <trkpt lat="37.3382660" lon="-2.5295810">
        <ele>1021.8</ele>
        <time>2021-04-18T11:48:54Z</time>
      </trkpt>
      <trkpt lat="37.3382710" lon="-2.5297140">
        <ele>1020.0</ele>
        <time>2021-04-18T11:48:55Z</time>
      </trkpt>
      <trkpt lat="37.3382860" lon="-2.5298410">
        <ele>1018.8</ele>
        <time>2021-04-18T11:48:56Z</time>
      </trkpt>
      <trkpt lat="37.3382840" lon="-2.5299520">
        <ele>1017.2</ele>
        <time>2021-04-18T11:48:57Z</time>
      </trkpt>
      <trkpt lat="37.3382550" lon="-2.5300530">
        <ele>1015.8</ele>
        <time>2021-04-18T11:48:58Z</time>
      </trkpt>
      <trkpt lat="37.3382030" lon="-2.5301400">
        <ele>1014.8</ele>
        <time>2021-04-18T11:48:59Z</time>
      </trkpt>
      <trkpt lat="37.3381320" lon="-2.5302110">
        <ele>1013.0</ele>
        <time>2021-04-18T11:49:00Z</time>
      </trkpt>
      <trkpt lat="37.3380400" lon="-2.5302640">
        <ele>1012.2</ele>
        <time>2021-04-18T11:49:01Z</time>
      </trkpt>
      <trkpt lat="37.3379390" lon="-2.5303070">
        <ele>1011.2</ele>
        <time>2021-04-18T11:49:02Z</time>
      </trkpt>
      <trkpt lat="37.3378360" lon="-2.5303420">
        <ele>1010.0</ele>
        <time>2021-04-18T11:49:03Z</time>
      </trkpt>
      <trkpt lat="37.3377300" lon="-2.5303680">
        <ele>1009.0</ele>
        <time>2021-04-18T11:49:04Z</time>
      </trkpt>
      <trkpt lat="37.3376280" lon="-2.5303740">
        <ele>1008.2</ele>
        <time>2021-04-18T11:49:05Z</time>
      </trkpt>
      <trkpt lat="37.3375350" lon="-2.5303400">
        <ele>1007.6</ele>
        <time>2021-04-18T11:49:06Z</time>
      </trkpt>
      <trkpt lat="37.3374420" lon="-2.5302790">
        <ele>1006.6</ele>
        <time>2021-04-18T11:49:07Z</time>
      </trkpt>
      <trkpt lat="37.3373490" lon="-2.5302250">
        <ele>1005.8</ele>
        <time>2021-04-18T11:49:08Z</time>
      </trkpt>
      <trkpt lat="37.3372600" lon="-2.5301920">
        <ele>1004.2</ele>
        <time>2021-04-18T11:49:09Z</time>
      </trkpt>
      <trkpt lat="37.3371690" lon="-2.5301930">
        <ele>1003.2</ele>
        <time>2021-04-18T11:49:10Z</time>
      </trkpt>
      <trkpt lat="37.3370750" lon="-2.5302180">
        <ele>1002.8</ele>
        <time>2021-04-18T11:49:11Z</time>
      </trkpt>
      <trkpt lat="37.3369800" lon="-2.5302570">
        <ele>1002.0</ele>
        <time>2021-04-18T11:49:12Z</time>
      </trkpt>
      <trkpt lat="37.3368870" lon="-2.5302940">
        <ele>1001.4</ele>
        <time>2021-04-18T11:49:13Z</time>
      </trkpt>
      <trkpt lat="37.3367850" lon="-2.5303280">
        <ele>999.6</ele>
        <time>2021-04-18T11:49:14Z</time>
      </trkpt>
      <trkpt lat="37.3365790" lon="-2.5303620">
        <ele>997.2</ele>
        <time>2021-04-18T11:49:16Z</time>
      </trkpt>
      <trkpt lat="37.3364840" lon="-2.5303740">
        <ele>996.0</ele>
        <time>2021-04-18T11:49:17Z</time>
      </trkpt>
      <trkpt lat="37.3363980" lon="-2.5303880">
        <ele>995.4</ele>
        <time>2021-04-18T11:49:18Z</time>
      </trkpt>
      <trkpt lat="37.3363250" lon="-2.5304100">
        <ele>994.8</ele>
        <time>2021-04-18T11:49:19Z</time>
      </trkpt>
      <trkpt lat="37.3362670" lon="-2.5304530">
        <ele>994.6</ele>
        <time>2021-04-18T11:49:20Z</time>
      </trkpt>
      <trkpt lat="37.3362510" lon="-2.5305210">
        <ele>994.2</ele>
        <time>2021-04-18T11:49:21Z</time>
      </trkpt>
      <trkpt lat="37.3362760" lon="-2.5306050">
        <ele>993.8</ele>
        <time>2021-04-18T11:49:22Z</time>
      </trkpt>
      <trkpt lat="37.3363150" lon="-2.5306480">
        <ele>993.2</ele>
        <time>2021-04-18T11:49:23Z</time>
      </trkpt>
      <trkpt lat="37.3363650" lon="-2.5306630">
        <ele>992.6</ele>
        <time>2021-04-18T11:49:24Z</time>
      </trkpt>
      <trkpt lat="37.3364240" lon="-2.5306600">
        <ele>992.0</ele>
        <time>2021-04-18T11:49:25Z</time>
      </trkpt>
      <trkpt lat="37.3364950" lon="-2.5306410">
        <ele>991.2</ele>
        <time>2021-04-18T11:49:26Z</time>
      </trkpt>
      <trkpt lat="37.3366590" lon="-2.5306070">
        <ele>990.4</ele>
        <time>2021-04-18T11:49:28Z</time>
      </trkpt>
      <trkpt lat="37.3367480" lon="-2.5306000">
        <ele>989.8</ele>
        <time>2021-04-18T11:49:29Z</time>
      </trkpt>
      <trkpt lat="37.3368420" lon="-2.5305940">
        <ele>989.4</ele>
        <time>2021-04-18T11:49:30Z</time>
      </trkpt>
      <trkpt lat="37.3370340" lon="-2.5305730">
        <ele>988.2</ele>
        <time>2021-04-18T11:49:32Z</time>
      </trkpt>
      <trkpt lat="37.3371300" lon="-2.5305900">
        <ele>986.8</ele>
        <time>2021-04-18T11:49:33Z</time>
      </trkpt>
      <trkpt lat="37.3372200" lon="-2.5306380">
        <ele>986.2</ele>
        <time>2021-04-18T11:49:34Z</time>
      </trkpt>
      <trkpt lat="37.3373060" lon="-2.5307020">
        <ele>985.4</ele>
        <time>2021-04-18T11:49:35Z</time>
      </trkpt>
      <trkpt lat="37.3374000" lon="-2.5307640">
        <ele>984.6</ele>
        <time>2021-04-18T11:49:36Z</time>
      </trkpt>
      <trkpt lat="37.3375030" lon="-2.5308140">
        <ele>984.2</ele>
        <time>2021-04-18T11:49:37Z</time>
      </trkpt>
      <trkpt lat="37.3376140" lon="-2.5308570">
        <ele>982.6</ele>
        <time>2021-04-18T11:49:38Z</time>
      </trkpt>
      <trkpt lat="37.3377340" lon="-2.5308910">
        <ele>981.6</ele>
        <time>2021-04-18T11:49:39Z</time>
      </trkpt>
      <trkpt lat="37.3378560" lon="-2.5309190">
        <ele>980.4</ele>
        <time>2021-04-18T11:49:40Z</time>
      </trkpt>
      <trkpt lat="37.3380700" lon="-2.5309610">
        <ele>978.4</ele>
        <time>2021-04-18T11:49:42Z</time>
      </trkpt>
      <trkpt lat="37.3381620" lon="-2.5310070">
        <ele>977.4</ele>
        <time>2021-04-18T11:49:43Z</time>
      </trkpt>
      <trkpt lat="37.3382400" lon="-2.5310800">
        <ele>976.8</ele>
        <time>2021-04-18T11:49:44Z</time>
      </trkpt>
      <trkpt lat="37.3383170" lon="-2.5311580">
        <ele>975.2</ele>
        <time>2021-04-18T11:49:45Z</time>
      </trkpt>
      <trkpt lat="37.3384010" lon="-2.5312350">
        <ele>974.4</ele>
        <time>2021-04-18T11:49:46Z</time>
      </trkpt>
      <trkpt lat="37.3384890" lon="-2.5313050">
        <ele>973.0</ele>
        <time>2021-04-18T11:49:47Z</time>
      </trkpt>
      <trkpt lat="37.3386680" lon="-2.5314520">
        <ele>971.6</ele>
        <time>2021-04-18T11:49:49Z</time>
      </trkpt>
      <trkpt lat="37.3388380" lon="-2.5316170">
        <ele>970.0</ele>
        <time>2021-04-18T11:49:51Z</time>
      </trkpt>
      <trkpt lat="37.3389100" lon="-2.5317210">
        <ele>969.2</ele>
        <time>2021-04-18T11:49:52Z</time>
      </trkpt>
      <trkpt lat="37.3389720" lon="-2.5318360">
        <ele>968.6</ele>
        <time>2021-04-18T11:49:53Z</time>
      </trkpt>
      <trkpt lat="37.3390290" lon="-2.5319550">
        <ele>967.4</ele>
        <time>2021-04-18T11:49:54Z</time>
      </trkpt>
      <trkpt lat="37.3390900" lon="-2.5320700">
        <ele>965.8</ele>
        <time>2021-04-18T11:49:55Z</time>
      </trkpt>
      <trkpt lat="37.3391580" lon="-2.5321780">
        <ele>965.4</ele>
        <time>2021-04-18T11:49:56Z</time>
      </trkpt>
      <trkpt lat="37.3392330" lon="-2.5322790">
        <ele>964.0</ele>
        <time>2021-04-18T11:49:57Z</time>
      </trkpt>
      <trkpt lat="37.3393140" lon="-2.5323640">
        <ele>963.6</ele>
        <time>2021-04-18T11:49:58Z</time>
      </trkpt>
      <trkpt lat="37.3394000" lon="-2.5324300">
        <ele>962.4</ele>
        <time>2021-04-18T11:49:59Z</time>
      </trkpt>
      <trkpt lat="37.3394800" lon="-2.5324910">
        <ele>961.0</ele>
        <time>2021-04-18T11:50:00Z</time>
      </trkpt>
      <trkpt lat="37.3395450" lon="-2.5325640">
        <ele>960.2</ele>
        <time>2021-04-18T11:50:01Z</time>
      </trkpt>
      <trkpt lat="37.3395870" lon="-2.5326560">
        <ele>958.8</ele>
        <time>2021-04-18T11:50:02Z</time>
      </trkpt>
      <trkpt lat="37.3395950" lon="-2.5327570">
        <ele>958.4</ele>
        <time>2021-04-18T11:50:03Z</time>
      </trkpt>
      <trkpt lat="37.3395800" lon="-2.5328680">
        <ele>957.2</ele>
        <time>2021-04-18T11:50:04Z</time>
      </trkpt>
      <trkpt lat="37.3395530" lon="-2.5330120">
        <ele>956.8</ele>
        <time>2021-04-18T11:50:05Z</time>
      </trkpt>
      <trkpt lat="37.3395340" lon="-2.5331120">
        <ele>955.8</ele>
        <time>2021-04-18T11:50:06Z</time>
      </trkpt>
      <trkpt lat="37.3395220" lon="-2.5332400">
        <ele>954.0</ele>
        <time>2021-04-18T11:50:07Z</time>
      </trkpt>
      <trkpt lat="37.3395230" lon="-2.5333660">
        <ele>953.2</ele>
        <time>2021-04-18T11:50:08Z</time>
      </trkpt>
      <trkpt lat="37.3395470" lon="-2.5334920">
        <ele>952.0</ele>
        <time>2021-04-18T11:50:09Z</time>
      </trkpt>
      <trkpt lat="37.3395920" lon="-2.5336130">
        <ele>951.2</ele>
        <time>2021-04-18T11:50:10Z</time>
      </trkpt>
      <trkpt lat="37.3396520" lon="-2.5337260">
        <ele>950.4</ele>
        <time>2021-04-18T11:50:11Z</time>
      </trkpt>
      <trkpt lat="37.3397170" lon="-2.5338320">
        <ele>950.2</ele>
        <time>2021-04-18T11:50:12Z</time>
      </trkpt>
      <trkpt lat="37.3397880" lon="-2.5339210">
        <ele>948.4</ele>
        <time>2021-04-18T11:50:13Z</time>
      </trkpt>
      <trkpt lat="37.3398700" lon="-2.5339850">
        <ele>947.0</ele>
        <time>2021-04-18T11:50:14Z</time>
      </trkpt>
      <trkpt lat="37.3399450" lon="-2.5340120">
        <ele>946.6</ele>
        <time>2021-04-18T11:50:15Z</time>
      </trkpt>
      <trkpt lat="37.3400600" lon="-2.5340220">
        <ele>946.0</ele>
        <time>2021-04-18T11:50:16Z</time>
      </trkpt>
      <trkpt lat="37.3401560" lon="-2.5340010">
        <ele>945.6</ele>
        <time>2021-04-18T11:50:17Z</time>
      </trkpt>
      <trkpt lat="37.3402560" lon="-2.5339760">
        <ele>944.6</ele>
        <time>2021-04-18T11:50:18Z</time>
      </trkpt>
      <trkpt lat="37.3403570" lon="-2.5339740">
        <ele>943.2</ele>
        <time>2021-04-18T11:50:19Z</time>
      </trkpt>
      <trkpt lat="37.3404510" lon="-2.5340130">
        <ele>942.6</ele>
        <time>2021-04-18T11:50:20Z</time>
      </trkpt>
      <trkpt lat="37.3405230" lon="-2.5340870">
        <ele>941.0</ele>
        <time>2021-04-18T11:50:21Z</time>
      </trkpt>
      <trkpt lat="37.3406120" lon="-2.5343120">
        <ele>938.8</ele>
        <time>2021-04-18T11:50:23Z</time>
      </trkpt>
      <trkpt lat="37.3405980" lon="-2.5345830">
        <ele>937.4</ele>
        <time>2021-04-18T11:50:25Z</time>
      </trkpt>
      <trkpt lat="37.3405740" lon="-2.5348580">
        <ele>936.0</ele>
        <time>2021-04-18T11:50:27Z</time>
      </trkpt>
      <trkpt lat="37.3405820" lon="-2.5349960">
        <ele>935.2</ele>
        <time>2021-04-18T11:50:28Z</time>
      </trkpt>
      <trkpt lat="37.3406050" lon="-2.5351330">
        <ele>934.8</ele>
        <time>2021-04-18T11:50:29Z</time>
      </trkpt>
      <trkpt lat="37.3406350" lon="-2.5352680">
        <ele>933.6</ele>
        <time>2021-04-18T11:50:30Z</time>
      </trkpt>
      <trkpt lat="37.3406690" lon="-2.5353870">
        <ele>932.2</ele>
        <time>2021-04-18T11:50:31Z</time>
      </trkpt>
      <trkpt lat="37.3407180" lon="-2.5354900">
        <ele>931.8</ele>
        <time>2021-04-18T11:50:32Z</time>
      </trkpt>
      <trkpt lat="37.3407880" lon="-2.5355710">
        <ele>931.4</ele>
        <time>2021-04-18T11:50:33Z</time>
      </trkpt>
      <trkpt lat="37.3408730" lon="-2.5356380">
        <ele>930.2</ele>
        <time>2021-04-18T11:50:34Z</time>
      </trkpt>
      <trkpt lat="37.3409660" lon="-2.5357000">
        <ele>928.8</ele>
        <time>2021-04-18T11:50:35Z</time>
      </trkpt>
      <trkpt lat="37.3410600" lon="-2.5357580">
        <ele>928.0</ele>
        <time>2021-04-18T11:50:36Z</time>
      </trkpt>
      <trkpt lat="37.3411510" lon="-2.5358110">
        <ele>926.6</ele>
        <time>2021-04-18T11:50:37Z</time>
      </trkpt>
      <trkpt lat="37.3412440" lon="-2.5358470">
        <ele>925.0</ele>
        <time>2021-04-18T11:50:38Z</time>
      </trkpt>
      <trkpt lat="37.3413370" lon="-2.5358480">
        <ele>924.0</ele>
        <time>2021-04-18T11:50:39Z</time>
      </trkpt>
      <trkpt lat="37.3414240" lon="-2.5358170">
        <ele>922.8</ele>
        <time>2021-04-18T11:50:40Z</time>
      </trkpt>
      <trkpt lat="37.3415080" lon="-2.5357710">
        <ele>922.2</ele>
        <time>2021-04-18T11:50:41Z</time>
      </trkpt>
      <trkpt lat="37.3415910" lon="-2.5357200">
        <ele>921.2</ele>
        <time>2021-04-18T11:50:42Z</time>
      </trkpt>
      <trkpt lat="37.3416660" lon="-2.5356790">
        <ele>920.6</ele>
        <time>2021-04-18T11:50:43Z</time>
      </trkpt>
      <trkpt lat="37.3417290" lon="-2.5356820">
        <ele>919.4</ele>
        <time>2021-04-18T11:50:44Z</time>
      </trkpt>
      <trkpt lat="37.3417730" lon="-2.5357270">
        <ele>918.2</ele>
        <time>2021-04-18T11:50:45Z</time>
      </trkpt>
      <trkpt lat="37.3417850" lon="-2.5357950">
        <ele>917.4</ele>
        <time>2021-04-18T11:50:46Z</time>
      </trkpt>
      <trkpt lat="37.3417610" lon="-2.5358730">
        <ele>915.4</ele>
        <time>2021-04-18T11:50:47Z</time>
      </trkpt>
      <trkpt lat="37.3417150" lon="-2.5359500">
        <ele>914.4</ele>
        <time>2021-04-18T11:50:48Z</time>
      </trkpt>
      <trkpt lat="37.3416580" lon="-2.5360320">
        <ele>913.0</ele>
        <time>2021-04-18T11:50:49Z</time>
      </trkpt>
      <trkpt lat="37.3415400" lon="-2.5362150">
        <ele>911.6</ele>
        <time>2021-04-18T11:50:51Z</time>
      </trkpt>
      <trkpt lat="37.3414760" lon="-2.5363080">
        <ele>910.4</ele>
        <time>2021-04-18T11:50:52Z</time>
      </trkpt>
      <trkpt lat="37.3414140" lon="-2.5363980">
        <ele>909.6</ele>
        <time>2021-04-18T11:50:53Z</time>
      </trkpt>
      <trkpt lat="37.3413640" lon="-2.5364850">
        <ele>908.4</ele>
        <time>2021-04-18T11:50:54Z</time>
      </trkpt>
      <trkpt lat="37.3413390" lon="-2.5365710">
        <ele>907.6</ele>
        <time>2021-04-18T11:50:55Z</time>
      </trkpt>
      <trkpt lat="37.3413520" lon="-2.5366430">
        <ele>906.4</ele>
        <time>2021-04-18T11:50:56Z</time>
      </trkpt>
      <trkpt lat="37.3414020" lon="-2.5366720">
        <ele>905.6</ele>
        <time>2021-04-18T11:50:57Z</time>
      </trkpt>
      <trkpt lat="37.3414650" lon="-2.5366680">
        <ele>905.2</ele>
        <time>2021-04-18T11:50:58Z</time>
      </trkpt>
      <trkpt lat="37.3415240" lon="-2.5366400">
        <ele>904.4</ele>
        <time>2021-04-18T11:50:59Z</time>
      </trkpt>
      <trkpt lat="37.3415900" lon="-2.5365900">
        <ele>904.2</ele>
        <time>2021-04-18T11:51:00Z</time>
      </trkpt>
      <trkpt lat="37.3416730" lon="-2.5365400">
        <ele>903.2</ele>
        <time>2021-04-18T11:51:01Z</time>
      </trkpt>
      <trkpt lat="37.3417690" lon="-2.5365170">
        <ele>902.0</ele>
        <time>2021-04-18T11:51:02Z</time>
      </trkpt>
      <trkpt lat="37.3418680" lon="-2.5365270">
        <ele>901.2</ele>
        <time>2021-04-18T11:51:03Z</time>
      </trkpt>
      <trkpt lat="37.3419680" lon="-2.5365680">
        <ele>899.8</ele>
        <time>2021-04-18T11:51:04Z</time>
      </trkpt>
      <trkpt lat="37.3420620" lon="-2.5366300">
        <ele>899.0</ele>
        <time>2021-04-18T11:51:05Z</time>
      </trkpt>
      <trkpt lat="37.3421500" lon="-2.5367100">
        <ele>898.0</ele>
        <time>2021-04-18T11:51:06Z</time>
      </trkpt>
      <trkpt lat="37.3422340" lon="-2.5368060">
        <ele>897.8</ele>
        <time>2021-04-18T11:51:07Z</time>
      </trkpt>
      <trkpt lat="37.3423170" lon="-2.5369150">
        <ele>896.6</ele>
        <time>2021-04-18T11:51:08Z</time>
      </trkpt>
      <trkpt lat="37.3424020" lon="-2.5370290">
        <ele>895.2</ele>
        <time>2021-04-18T11:51:09Z</time>
      </trkpt>
      <trkpt lat="37.3424880" lon="-2.5371480">
        <ele>894.6</ele>
        <time>2021-04-18T11:51:10Z</time>
      </trkpt>
      <trkpt lat="37.3425760" lon="-2.5372710">
        <ele>893.6</ele>
        <time>2021-04-18T11:51:11Z</time>
      </trkpt>
      <trkpt lat="37.3427480" lon="-2.5375320">
        <ele>891.6</ele>
        <time>2021-04-18T11:51:13Z</time>
      </trkpt>
      <trkpt lat="37.3428320" lon="-2.5376650">
        <ele>890.2</ele>
        <time>2021-04-18T11:51:14Z</time>
      </trkpt>
      <trkpt lat="37.3429210" lon="-2.5377940">
        <ele>889.6</ele>
        <time>2021-04-18T11:51:15Z</time>
      </trkpt>
      <trkpt lat="37.3430160" lon="-2.5379150">
        <ele>888.6</ele>
        <time>2021-04-18T11:51:16Z</time>
      </trkpt>
      <trkpt lat="37.3432260" lon="-2.5381380">
        <ele>887.2</ele>
        <time>2021-04-18T11:51:18Z</time>
      </trkpt>
      <trkpt lat="37.3433380" lon="-2.5382390">
        <ele>886.8</ele>
        <time>2021-04-18T11:51:19Z</time>
      </trkpt>
      <trkpt lat="37.3434550" lon="-2.5383340">
        <ele>885.2</ele>
        <time>2021-04-18T11:51:20Z</time>
      </trkpt>
      <trkpt lat="37.3435680" lon="-2.5384320">
        <ele>883.8</ele>
        <time>2021-04-18T11:51:21Z</time>
      </trkpt>
      <trkpt lat="37.3437920" lon="-2.5386310">
        <ele>882.0</ele>
        <time>2021-04-18T11:51:23Z</time>
      </trkpt>
      <trkpt lat="37.3440110" lon="-2.5388380">
        <ele>880.6</ele>
        <time>2021-04-18T11:51:25Z</time>
      </trkpt>
      <trkpt lat="37.3441200" lon="-2.5389430">
        <ele>880.4</ele>
        <time>2021-04-18T11:51:26Z</time>
      </trkpt>
      <trkpt lat="37.3442270" lon="-2.5390490">
        <ele>878.6</ele>
        <time>2021-04-18T11:51:27Z</time>
      </trkpt>
      <trkpt lat="37.3443330" lon="-2.5391550">
        <ele>877.4</ele>
        <time>2021-04-18T11:51:28Z</time>
      </trkpt>
      <trkpt lat="37.3445450" lon="-2.5393570">
        <ele>876.0</ele>
        <time>2021-04-18T11:51:30Z</time>
      </trkpt>
      <trkpt lat="37.3447570" lon="-2.5395530">
        <ele>874.0</ele>
        <time>2021-04-18T11:51:32Z</time>
      </trkpt>
      <trkpt lat="37.3448610" lon="-2.5396580">
        <ele>872.6</ele>
        <time>2021-04-18T11:51:33Z</time>
      </trkpt>
      <trkpt lat="37.3450640" lon="-2.5398710">
        <ele>871.2</ele>
        <time>2021-04-18T11:51:35Z</time>
      </trkpt>
      <trkpt lat="37.3451610" lon="-2.5399750">
        <ele>870.0</ele>
        <time>2021-04-18T11:51:36Z</time>
      </trkpt>
      <trkpt lat="37.3452590" lon="-2.5400760">
        <ele>867.4</ele>
        <time>2021-04-18T11:51:37Z</time>
      </trkpt>
      <trkpt lat="37.3453570" lon="-2.5401700">
        <ele>866.8</ele>
        <time>2021-04-18T11:51:38Z</time>
      </trkpt>
      <trkpt lat="37.3454720" lon="-2.5402840">
        <ele>865.6</ele>
        <time>2021-04-18T11:51:39Z</time>
      </trkpt>
      <trkpt lat="37.3455420" lon="-2.5403650">
        <ele>864.6</ele>
        <time>2021-04-18T11:51:40Z</time>
      </trkpt>
      <trkpt lat="37.3456210" lon="-2.5404690">
        <ele>864.0</ele>
        <time>2021-04-18T11:51:41Z</time>
      </trkpt>
      <trkpt lat="37.3456960" lon="-2.5405800">
        <ele>863.0</ele>
        <time>2021-04-18T11:51:42Z</time>
      </trkpt>
      <trkpt lat="37.3457670" lon="-2.5406960">
        <ele>862.6</ele>
        <time>2021-04-18T11:51:43Z</time>
      </trkpt>
      <trkpt lat="37.3458380" lon="-2.5408090">
        <ele>861.2</ele>
        <time>2021-04-18T11:51:44Z</time>
      </trkpt>
      <trkpt lat="37.3459830" lon="-2.5410290">
        <ele>859.6</ele>
        <time>2021-04-18T11:51:46Z</time>
      </trkpt>
      <trkpt lat="37.3460540" lon="-2.5411340">
        <ele>858.6</ele>
        <time>2021-04-18T11:51:47Z</time>
      </trkpt>
      <trkpt lat="37.3461910" lon="-2.5413380">
        <ele>857.4</ele>
        <time>2021-04-18T11:51:49Z</time>
      </trkpt>
      <trkpt lat="37.3462520" lon="-2.5414420">
        <ele>857.2</ele>
        <time>2021-04-18T11:51:50Z</time>
      </trkpt>
      <trkpt lat="37.3463080" lon="-2.5415460">
        <ele>856.6</ele>
        <time>2021-04-18T11:51:51Z</time>
      </trkpt>
      <trkpt lat="37.3463540" lon="-2.5416580">
        <ele>856.2</ele>
        <time>2021-04-18T11:51:52Z</time>
      </trkpt>
      <trkpt lat="37.3463910" lon="-2.5417710">
        <ele>856.0</ele>
        <time>2021-04-18T11:51:53Z</time>
      </trkpt>
      <trkpt lat="37.3464230" lon="-2.5418880">
        <ele>855.6</ele>
        <time>2021-04-18T11:51:54Z</time>
      </trkpt>
      <trkpt lat="37.3464520" lon="-2.5420070">
        <ele>855.6</ele>
        <time>2021-04-18T11:51:55Z</time>
      </trkpt>
      <trkpt lat="37.3465440" lon="-2.5423720">
        <ele>854.8</ele>
        <time>2021-04-18T11:51:58Z</time>
      </trkpt>
      <trkpt lat="37.3466230" lon="-2.5426090">
        <ele>854.0</ele>
        <time>2021-04-18T11:52:00Z</time>
      </trkpt>
      <trkpt lat="37.3466740" lon="-2.5427210">
        <ele>853.4</ele>
        <time>2021-04-18T11:52:01Z</time>
      </trkpt>
      <trkpt lat="37.3467270" lon="-2.5428320">
        <ele>853.0</ele>
        <time>2021-04-18T11:52:02Z</time>
      </trkpt>
      <trkpt lat="37.3467780" lon="-2.5429450">
        <ele>852.2</ele>
        <time>2021-04-18T11:52:03Z</time>
      </trkpt>
      <trkpt lat="37.3468670" lon="-2.5431820">
        <ele>851.2</ele>
        <time>2021-04-18T11:52:05Z</time>
      </trkpt>
      <trkpt lat="37.3469020" lon="-2.5433080">
        <ele>850.8</ele>
        <time>2021-04-18T11:52:06Z</time>
      </trkpt>
      <trkpt lat="37.3469300" lon="-2.5434370">
        <ele>850.0</ele>
        <time>2021-04-18T11:52:07Z</time>
      </trkpt>
      <trkpt lat="37.3469630" lon="-2.5435700">
        <ele>849.2</ele>
        <time>2021-04-18T11:52:08Z</time>
      </trkpt>
      <trkpt lat="37.3470090" lon="-2.5437010">
        <ele>849.0</ele>
        <time>2021-04-18T11:52:09Z</time>
      </trkpt>
      <trkpt lat="37.3470620" lon="-2.5438310">
        <ele>848.0</ele>
        <time>2021-04-18T11:52:10Z</time>
      </trkpt>
      <trkpt lat="37.3471130" lon="-2.5439650">
        <ele>846.8</ele>
        <time>2021-04-18T11:52:11Z</time>
      </trkpt>
      <trkpt lat="37.3472170" lon="-2.5442270">
        <ele>845.4</ele>
        <time>2021-04-18T11:52:13Z</time>
      </trkpt>
      <trkpt lat="37.3472830" lon="-2.5443440">
        <ele>845.0</ele>
        <time>2021-04-18T11:52:14Z</time>
      </trkpt>
      <trkpt lat="37.3473610" lon="-2.5444380">
        <ele>843.4</ele>
        <time>2021-04-18T11:52:15Z</time>
      </trkpt>
      <trkpt lat="37.3474400" lon="-2.5445060">
        <ele>842.0</ele>
        <time>2021-04-18T11:52:16Z</time>
      </trkpt>
      <trkpt lat="37.3475140" lon="-2.5445550">
        <ele>841.4</ele>
        <time>2021-04-18T11:52:17Z</time>
      </trkpt>
      <trkpt lat="37.3475820" lon="-2.5445960">
        <ele>840.6</ele>
        <time>2021-04-18T11:52:18Z</time>
      </trkpt>
      <trkpt lat="37.3476460" lon="-2.5446320">
        <ele>840.2</ele>
        <time>2021-04-18T11:52:19Z</time>
      </trkpt>
      <trkpt lat="37.3477090" lon="-2.5446730">
        <ele>838.2</ele>
        <time>2021-04-18T11:52:20Z</time>
      </trkpt>
      <trkpt lat="37.3477690" lon="-2.5447250">
        <ele>837.6</ele>
        <time>2021-04-18T11:52:21Z</time>
      </trkpt>
      <trkpt lat="37.3478350" lon="-2.5447870">
        <ele>835.8</ele>
        <time>2021-04-18T11:52:22Z</time>
      </trkpt>
      <trkpt lat="37.3479050" lon="-2.5448550">
        <ele>834.6</ele>
        <time>2021-04-18T11:52:23Z</time>
      </trkpt>
      <trkpt lat="37.3480680" lon="-2.5449930">
        <ele>832.2</ele>
        <time>2021-04-18T11:52:25Z</time>
      </trkpt>
      <trkpt lat="37.3482630" lon="-2.5450780">
        <ele>829.4</ele>
        <time>2021-04-18T11:52:27Z</time>
      </trkpt>
      <trkpt lat="37.3483480" lon="-2.5450650">
        <ele>828.6</ele>
        <time>2021-04-18T11:52:28Z</time>
      </trkpt>
      <trkpt lat="37.3484130" lon="-2.5450150">
        <ele>827.2</ele>
        <time>2021-04-18T11:52:29Z</time>
      </trkpt>
      <trkpt lat="37.3484560" lon="-2.5449530">
        <ele>825.0</ele>
        <time>2021-04-18T11:52:30Z</time>
      </trkpt>
      <trkpt lat="37.3484860" lon="-2.5448920">
        <ele>824.0</ele>
        <time>2021-04-18T11:52:31Z</time>
      </trkpt>
      <trkpt lat="37.3485100" lon="-2.5448460">
        <ele>822.6</ele>
        <time>2021-04-18T11:52:32Z</time>
      </trkpt>
      <trkpt lat="37.3485250" lon="-2.5448200">
        <ele>822.2</ele>
        <time>2021-04-18T11:52:33Z</time>
      </trkpt>
      <trkpt lat="37.3485300" lon="-2.5448120">
        <ele>821.2</ele>
        <time>2021-04-18T11:52:34Z</time>
      </trkpt>
      <trkpt lat="37.3485300" lon="-2.5448120">
        <ele>820.4</ele>
        <time>2021-04-18T11:52:35Z</time>
      </trkpt>
      <trkpt lat="37.3485300" lon="-2.5448120">
        <ele>820.2</ele>
        <time>2021-04-18T11:52:36Z</time>
      </trkpt>
      <trkpt lat="37.3485710" lon="-2.5447480">
        <ele>817.2</ele>
        <time>2021-04-18T11:55:10Z</time>
      </trkpt>
      <trkpt lat="37.3485770" lon="-2.5447280">
        <ele>817.2</ele>
        <time>2021-04-18T11:55:11Z</time>
      </trkpt>
      <trkpt lat="37.3485850" lon="-2.5447050">
        <ele>817.2</ele>
        <time>2021-04-18T11:55:12Z</time>
      </trkpt>
      <trkpt lat="37.3485980" lon="-2.5446820">
        <ele>817.0</ele>
        <time>2021-04-18T11:55:13Z</time>
      </trkpt>
      <trkpt lat="37.3486540" lon="-2.5445230">
        <ele>817.2</ele>
        <time>2021-04-18T11:55:18Z</time>
      </trkpt>
      <trkpt lat="37.3486730" lon="-2.5442860">
        <ele>817.2</ele>
        <time>2021-04-18T11:55:23Z</time>
      </trkpt>
      <trkpt lat="37.3486730" lon="-2.5439360">
        <ele>816.8</ele>
        <time>2021-04-18T11:55:29Z</time>
      </trkpt>
      <trkpt lat="37.3486560" lon="-2.5436370">
        <ele>816.2</ele>
        <time>2021-04-18T11:55:33Z</time>
      </trkpt>
      <trkpt lat="37.3486450" lon="-2.5435540">
        <ele>816.0</ele>
        <time>2021-04-18T11:55:34Z</time>
      </trkpt>
      <trkpt lat="37.3486060" lon="-2.5432870">
        <ele>815.2</ele>
        <time>2021-04-18T11:55:37Z</time>
      </trkpt>
      <trkpt lat="37.3485630" lon="-2.5429850">
        <ele>814.2</ele>
        <time>2021-04-18T11:55:40Z</time>
      </trkpt>
      <trkpt lat="37.3484870" lon="-2.5425510">
        <ele>813.0</ele>
        <time>2021-04-18T11:55:44Z</time>
      </trkpt>
      <trkpt lat="37.3484160" lon="-2.5422110">
        <ele>811.6</ele>
        <time>2021-04-18T11:55:47Z</time>
      </trkpt>
      <trkpt lat="37.3483360" lon="-2.5418650">
        <ele>810.8</ele>
        <time>2021-04-18T11:55:50Z</time>
      </trkpt>
      <trkpt lat="37.3482390" lon="-2.5415270">
        <ele>809.4</ele>
        <time>2021-04-18T11:55:53Z</time>
      </trkpt>
      <trkpt lat="37.3482080" lon="-2.5414140">
        <ele>809.2</ele>
        <time>2021-04-18T11:55:54Z</time>
      </trkpt>
      <trkpt lat="37.3481110" lon="-2.5410910">
        <ele>808.0</ele>
        <time>2021-04-18T11:55:57Z</time>
      </trkpt>
      <trkpt lat="37.3480240" lon="-2.5407740">
        <ele>806.6</ele>
        <time>2021-04-18T11:56:00Z</time>
      </trkpt>
      <trkpt lat="37.3479920" lon="-2.5406700">
        <ele>806.2</ele>
        <time>2021-04-18T11:56:01Z</time>
      </trkpt>
      <trkpt lat="37.3479590" lon="-2.5405660">
        <ele>805.8</ele>
        <time>2021-04-18T11:56:02Z</time>
      </trkpt>
      <trkpt lat="37.3479270" lon="-2.5404630">
        <ele>805.6</ele>
        <time>2021-04-18T11:56:03Z</time>
      </trkpt>
      <trkpt lat="37.3478960" lon="-2.5403590">
        <ele>805.4</ele>
        <time>2021-04-18T11:56:04Z</time>
      </trkpt>
      <trkpt lat="37.3477020" lon="-2.5397410">
        <ele>804.4</ele>
        <time>2021-04-18T11:56:10Z</time>
      </trkpt>
      <trkpt lat="37.3476790" lon="-2.5396350">
        <ele>804.0</ele>
        <time>2021-04-18T11:56:11Z</time>
      </trkpt>
      <trkpt lat="37.3476490" lon="-2.5393250">
        <ele>803.8</ele>
        <time>2021-04-18T11:56:14Z</time>
      </trkpt>
      <trkpt lat="37.3476470" lon="-2.5392290">
        <ele>803.6</ele>
        <time>2021-04-18T11:56:15Z</time>
      </trkpt>
      <trkpt lat="37.3476450" lon="-2.5391340">
        <ele>803.4</ele>
        <time>2021-04-18T11:56:16Z</time>
      </trkpt>
      <trkpt lat="37.3476430" lon="-2.5390400">
        <ele>803.4</ele>
        <time>2021-04-18T11:56:17Z</time>
      </trkpt>
      <trkpt lat="37.3476370" lon="-2.5389490">
        <ele>803.4</ele>
        <time>2021-04-18T11:56:18Z</time>
      </trkpt>
      <trkpt lat="37.3476270" lon="-2.5388590">
        <ele>803.2</ele>
        <time>2021-04-18T11:56:19Z</time>
      </trkpt>
      <trkpt lat="37.3476120" lon="-2.5387700">
        <ele>803.0</ele>
        <time>2021-04-18T11:56:20Z</time>
      </trkpt>
      <trkpt lat="37.3475940" lon="-2.5386830">
        <ele>803.0</ele>
        <time>2021-04-18T11:56:21Z</time>
      </trkpt>
      <trkpt lat="37.3475260" lon="-2.5384180">
        <ele>802.4</ele>
        <time>2021-04-18T11:56:24Z</time>
      </trkpt>
      <trkpt lat="37.3475010" lon="-2.5383310">
        <ele>802.4</ele>
        <time>2021-04-18T11:56:25Z</time>
      </trkpt>
      <trkpt lat="37.3474730" lon="-2.5382470">
        <ele>802.2</ele>
        <time>2021-04-18T11:56:26Z</time>
      </trkpt>
      <trkpt lat="37.3474420" lon="-2.5381660">
        <ele>802.2</ele>
        <time>2021-04-18T11:56:27Z</time>
      </trkpt>
      <trkpt lat="37.3473500" lon="-2.5379220">
        <ele>801.8</ele>
        <time>2021-04-18T11:56:30Z</time>
      </trkpt>
      <trkpt lat="37.3471240" lon="-2.5372650">
        <ele>801.4</ele>
        <time>2021-04-18T11:56:38Z</time>
      </trkpt>
      <trkpt lat="37.3470970" lon="-2.5371830">
        <ele>801.4</ele>
        <time>2021-04-18T11:56:39Z</time>
      </trkpt>
      <trkpt lat="37.3470730" lon="-2.5371000">
        <ele>801.4</ele>
        <time>2021-04-18T11:56:40Z</time>
      </trkpt>
      <trkpt lat="37.3468900" lon="-2.5365240">
        <ele>801.2</ele>
        <time>2021-04-18T11:56:47Z</time>
      </trkpt>
      <trkpt lat="37.3468650" lon="-2.5364430">
        <ele>801.0</ele>
        <time>2021-04-18T11:56:48Z</time>
      </trkpt>
      <trkpt lat="37.3467580" lon="-2.5360430">
        <ele>800.8</ele>
        <time>2021-04-18T11:56:53Z</time>
      </trkpt>
      <trkpt lat="37.3467010" lon="-2.5358020">
        <ele>800.8</ele>
        <time>2021-04-18T11:56:56Z</time>
      </trkpt>
      <trkpt lat="37.3466780" lon="-2.5357220">
        <ele>800.8</ele>
        <time>2021-04-18T11:56:57Z</time>
      </trkpt>
      <trkpt lat="37.3466550" lon="-2.5356440">
        <ele>800.8</ele>
        <time>2021-04-18T11:56:58Z</time>
      </trkpt>
      <trkpt lat="37.3466130" lon="-2.5354930">
        <ele>800.8</ele>
        <time>2021-04-18T11:57:00Z</time>
      </trkpt>
      <trkpt lat="37.3465910" lon="-2.5354180">
        <ele>800.8</ele>
        <time>2021-04-18T11:57:01Z</time>
      </trkpt>
      <trkpt lat="37.3465700" lon="-2.5353430">
        <ele>800.8</ele>
        <time>2021-04-18T11:57:02Z</time>
      </trkpt>
      <trkpt lat="37.3465450" lon="-2.5352710">
        <ele>800.8</ele>
        <time>2021-04-18T11:57:03Z</time>
      </trkpt>
      <trkpt lat="37.3465190" lon="-2.5352030">
        <ele>800.8</ele>
        <time>2021-04-18T11:57:04Z</time>
      </trkpt>
      <trkpt lat="37.3464880" lon="-2.5351370">
        <ele>800.8</ele>
        <time>2021-04-18T11:57:05Z</time>
      </trkpt>
      <trkpt lat="37.3464530" lon="-2.5350710">
        <ele>801.0</ele>
        <time>2021-04-18T11:57:06Z</time>
      </trkpt>
      <trkpt lat="37.3463830" lon="-2.5349430">
        <ele>801.2</ele>
        <time>2021-04-18T11:57:08Z</time>
      </trkpt>
      <trkpt lat="37.3463480" lon="-2.5348790">
        <ele>801.2</ele>
        <time>2021-04-18T11:57:09Z</time>
      </trkpt>
      <trkpt lat="37.3463160" lon="-2.5348170">
        <ele>801.2</ele>
        <time>2021-04-18T11:57:10Z</time>
      </trkpt>
      <trkpt lat="37.3462850" lon="-2.5347540">
        <ele>801.4</ele>
        <time>2021-04-18T11:57:11Z</time>
      </trkpt>
      <trkpt lat="37.3462530" lon="-2.5346920">
        <ele>801.4</ele>
        <time>2021-04-18T11:57:12Z</time>
      </trkpt>
      <trkpt lat="37.3462250" lon="-2.5346300">
        <ele>801.4</ele>
        <time>2021-04-18T11:57:13Z</time>
      </trkpt>
      <trkpt lat="37.3462030" lon="-2.5345600">
        <ele>801.4</ele>
        <time>2021-04-18T11:57:14Z</time>
      </trkpt>
      <trkpt lat="37.3461870" lon="-2.5344870">
        <ele>801.4</ele>
        <time>2021-04-18T11:57:15Z</time>
      </trkpt>
      <trkpt lat="37.3461740" lon="-2.5344130">
        <ele>801.4</ele>
        <time>2021-04-18T11:57:16Z</time>
      </trkpt>
      <trkpt lat="37.3461580" lon="-2.5343380">
        <ele>801.6</ele>
        <time>2021-04-18T11:57:17Z</time>
      </trkpt>
      <trkpt lat="37.3460570" lon="-2.5336830">
        <ele>801.8</ele>
        <time>2021-04-18T11:57:26Z</time>
      </trkpt>
      <trkpt lat="37.3460860" lon="-2.5331530">
        <ele>802.2</ele>
        <time>2021-04-18T11:57:33Z</time>
      </trkpt>
      <trkpt lat="37.3461660" lon="-2.5327870">
        <ele>802.2</ele>
        <time>2021-04-18T11:57:38Z</time>
      </trkpt>
      <trkpt lat="37.3461750" lon="-2.5327080">
        <ele>802.2</ele>
        <time>2021-04-18T11:57:39Z</time>
      </trkpt>
      <trkpt lat="37.3461980" lon="-2.5325550">
        <ele>802.2</ele>
        <time>2021-04-18T11:57:41Z</time>
      </trkpt>
      <trkpt lat="37.3462430" lon="-2.5323320">
        <ele>802.0</ele>
        <time>2021-04-18T11:57:44Z</time>
      </trkpt>
      <trkpt lat="37.3462720" lon="-2.5321750">
        <ele>801.8</ele>
        <time>2021-04-18T11:57:46Z</time>
      </trkpt>
      <trkpt lat="37.3463830" lon="-2.5315740">
        <ele>801.0</ele>
        <time>2021-04-18T11:57:53Z</time>
      </trkpt>
      <trkpt lat="37.3464050" lon="-2.5313930">
        <ele>800.6</ele>
        <time>2021-04-18T11:57:55Z</time>
      </trkpt>
      <trkpt lat="37.3464110" lon="-2.5313060">
        <ele>800.4</ele>
        <time>2021-04-18T11:57:56Z</time>
      </trkpt>
      <trkpt lat="37.3464150" lon="-2.5311250">
        <ele>800.0</ele>
        <time>2021-04-18T11:57:58Z</time>
      </trkpt>
      <trkpt lat="37.3463720" lon="-2.5306930">
        <ele>799.4</ele>
        <time>2021-04-18T11:58:03Z</time>
      </trkpt>
      <trkpt lat="37.3463620" lon="-2.5306040">
        <ele>799.2</ele>
        <time>2021-04-18T11:58:04Z</time>
      </trkpt>
      <trkpt lat="37.3463540" lon="-2.5305160">
        <ele>799.2</ele>
        <time>2021-04-18T11:58:05Z</time>
      </trkpt>
      <trkpt lat="37.3463700" lon="-2.5299510">
        <ele>798.4</ele>
        <time>2021-04-18T11:58:11Z</time>
      </trkpt>
      <trkpt lat="37.3463830" lon="-2.5298460">
        <ele>798.4</ele>
        <time>2021-04-18T11:58:12Z</time>
      </trkpt>
      <trkpt lat="37.3464050" lon="-2.5297420">
        <ele>798.0</ele>
        <time>2021-04-18T11:58:13Z</time>
      </trkpt>
      <trkpt lat="37.3464700" lon="-2.5294240">
        <ele>797.8</ele>
        <time>2021-04-18T11:58:16Z</time>
      </trkpt>
      <trkpt lat="37.3464900" lon="-2.5293160">
        <ele>797.2</ele>
        <time>2021-04-18T11:58:17Z</time>
      </trkpt>
      <trkpt lat="37.3464960" lon="-2.5292090">
        <ele>796.6</ele>
        <time>2021-04-18T11:58:18Z</time>
      </trkpt>
      <trkpt lat="37.3465030" lon="-2.5291010">
        <ele>796.4</ele>
        <time>2021-04-18T11:58:19Z</time>
      </trkpt>
      <trkpt lat="37.3465110" lon="-2.5289940">
        <ele>796.0</ele>
        <time>2021-04-18T11:58:20Z</time>
      </trkpt>
      <trkpt lat="37.3465400" lon="-2.5284760">
        <ele>794.8</ele>
        <time>2021-04-18T11:58:25Z</time>
      </trkpt>
      <trkpt lat="37.3465570" lon="-2.5277150">
        <ele>793.6</ele>
        <time>2021-04-18T11:58:32Z</time>
      </trkpt>
      <trkpt lat="37.3465470" lon="-2.5271710">
        <ele>792.6</ele>
        <time>2021-04-18T11:58:37Z</time>
      </trkpt>
      <trkpt lat="37.3465520" lon="-2.5268390">
        <ele>792.0</ele>
        <time>2021-04-18T11:58:40Z</time>
      </trkpt>
      <trkpt lat="37.3465570" lon="-2.5267250">
        <ele>791.6</ele>
        <time>2021-04-18T11:58:41Z</time>
      </trkpt>
      <trkpt lat="37.3465900" lon="-2.5263840">
        <ele>790.4</ele>
        <time>2021-04-18T11:58:44Z</time>
      </trkpt>
      <trkpt lat="37.3466450" lon="-2.5261590">
        <ele>790.0</ele>
        <time>2021-04-18T11:58:46Z</time>
      </trkpt>
      <trkpt lat="37.3467450" lon="-2.5258390">
        <ele>789.0</ele>
        <time>2021-04-18T11:58:49Z</time>
      </trkpt>
      <trkpt lat="37.3468730" lon="-2.5254280">
        <ele>788.0</ele>
        <time>2021-04-18T11:58:53Z</time>
      </trkpt>
      <trkpt lat="37.3468890" lon="-2.5253280">
        <ele>787.8</ele>
        <time>2021-04-18T11:58:54Z</time>
      </trkpt>
      <trkpt lat="37.3469410" lon="-2.5251350">
        <ele>787.4</ele>
        <time>2021-04-18T11:58:56Z</time>
      </trkpt>
      <trkpt lat="37.3469810" lon="-2.5249470">
        <ele>787.0</ele>
        <time>2021-04-18T11:58:58Z</time>
      </trkpt>
      <trkpt lat="37.3470060" lon="-2.5248560">
        <ele>787.0</ele>
        <time>2021-04-18T11:58:59Z</time>
      </trkpt>
      <trkpt lat="37.3470300" lon="-2.5247670">
        <ele>786.8</ele>
        <time>2021-04-18T11:59:00Z</time>
      </trkpt>
      <trkpt lat="37.3470950" lon="-2.5245040">
        <ele>786.0</ele>
        <time>2021-04-18T11:59:03Z</time>
      </trkpt>
      <trkpt lat="37.3471130" lon="-2.5244160">
        <ele>786.0</ele>
        <time>2021-04-18T11:59:04Z</time>
      </trkpt>
      <trkpt lat="37.3471240" lon="-2.5243280">
        <ele>786.0</ele>
        <time>2021-04-18T11:59:05Z</time>
      </trkpt>
      <trkpt lat="37.3471310" lon="-2.5242450">
        <ele>785.8</ele>
        <time>2021-04-18T11:59:06Z</time>
      </trkpt>
      <trkpt lat="37.3471370" lon="-2.5241650">
        <ele>785.8</ele>
        <time>2021-04-18T11:59:07Z</time>
      </trkpt>
      <trkpt lat="37.3471410" lon="-2.5240820">
        <ele>785.8</ele>
        <time>2021-04-18T11:59:08Z</time>
      </trkpt>
      <trkpt lat="37.3471470" lon="-2.5239980">
        <ele>785.8</ele>
        <time>2021-04-18T11:59:09Z</time>
      </trkpt>
      <trkpt lat="37.3471510" lon="-2.5239180">
        <ele>786.0</ele>
        <time>2021-04-18T11:59:10Z</time>
      </trkpt>
      <trkpt lat="37.3471580" lon="-2.5238380">
        <ele>786.0</ele>
        <time>2021-04-18T11:59:11Z</time>
      </trkpt>
      <trkpt lat="37.3471690" lon="-2.5237600">
        <ele>786.0</ele>
        <time>2021-04-18T11:59:12Z</time>
      </trkpt>
      <trkpt lat="37.3471870" lon="-2.5236800">
        <ele>786.4</ele>
        <time>2021-04-18T11:59:13Z</time>
      </trkpt>
      <trkpt lat="37.3471950" lon="-2.5235980">
        <ele>786.4</ele>
        <time>2021-04-18T11:59:14Z</time>
      </trkpt>
      <trkpt lat="37.3472120" lon="-2.5235160">
        <ele>786.4</ele>
        <time>2021-04-18T11:59:15Z</time>
      </trkpt>
      <trkpt lat="37.3473330" lon="-2.5230970">
        <ele>786.4</ele>
        <time>2021-04-18T11:59:20Z</time>
      </trkpt>
      <trkpt lat="37.3475010" lon="-2.5226900">
        <ele>785.8</ele>
        <time>2021-04-18T11:59:25Z</time>
      </trkpt>
      <trkpt lat="37.3475790" lon="-2.5225300">
        <ele>785.2</ele>
        <time>2021-04-18T11:59:27Z</time>
      </trkpt>
      <trkpt lat="37.3476480" lon="-2.5223770">
        <ele>784.6</ele>
        <time>2021-04-18T11:59:29Z</time>
      </trkpt>
      <trkpt lat="37.3477720" lon="-2.5220760">
        <ele>784.0</ele>
        <time>2021-04-18T11:59:33Z</time>
      </trkpt>
      <trkpt lat="37.3478020" lon="-2.5220040">
        <ele>783.8</ele>
        <time>2021-04-18T11:59:34Z</time>
      </trkpt>
      <trkpt lat="37.3478280" lon="-2.5219320">
        <ele>783.6</ele>
        <time>2021-04-18T11:59:35Z</time>
      </trkpt>
      <trkpt lat="37.3478520" lon="-2.5218630">
        <ele>783.6</ele>
        <time>2021-04-18T11:59:36Z</time>
      </trkpt>
      <trkpt lat="37.3478790" lon="-2.5217930">
        <ele>783.8</ele>
        <time>2021-04-18T11:59:37Z</time>
      </trkpt>
      <trkpt lat="37.3479090" lon="-2.5217210">
        <ele>783.8</ele>
        <time>2021-04-18T11:59:38Z</time>
      </trkpt>
      <trkpt lat="37.3480130" lon="-2.5214460">
        <ele>783.4</ele>
        <time>2021-04-18T11:59:42Z</time>
      </trkpt>
      <trkpt lat="37.3480380" lon="-2.5213790">
        <ele>783.4</ele>
        <time>2021-04-18T11:59:43Z</time>
      </trkpt>
      <trkpt lat="37.3480620" lon="-2.5213120">
        <ele>783.4</ele>
        <time>2021-04-18T11:59:44Z</time>
      </trkpt>
      <trkpt lat="37.3480870" lon="-2.5212470">
        <ele>783.4</ele>
        <time>2021-04-18T11:59:45Z</time>
      </trkpt>
      <trkpt lat="37.3481080" lon="-2.5211850">
        <ele>783.4</ele>
        <time>2021-04-18T11:59:46Z</time>
      </trkpt>
      <trkpt lat="37.3481280" lon="-2.5211220">
        <ele>783.4</ele>
        <time>2021-04-18T11:59:47Z</time>
      </trkpt>
      <trkpt lat="37.3481450" lon="-2.5210590">
        <ele>783.4</ele>
        <time>2021-04-18T11:59:48Z</time>
      </trkpt>
      <trkpt lat="37.3481630" lon="-2.5209960">
        <ele>783.4</ele>
        <time>2021-04-18T11:59:49Z</time>
      </trkpt>
      <trkpt lat="37.3481820" lon="-2.5209320">
        <ele>783.4</ele>
        <time>2021-04-18T11:59:50Z</time>
      </trkpt>
      <trkpt lat="37.3482020" lon="-2.5208730">
        <ele>783.6</ele>
        <time>2021-04-18T11:59:51Z</time>
      </trkpt>
      <trkpt lat="37.3482240" lon="-2.5208150">
        <ele>783.6</ele>
        <time>2021-04-18T11:59:52Z</time>
      </trkpt>
      <trkpt lat="37.3482480" lon="-2.5207590">
        <ele>783.6</ele>
        <time>2021-04-18T11:59:53Z</time>
      </trkpt>
      <trkpt lat="37.3483550" lon="-2.5205240">
        <ele>783.8</ele>
        <time>2021-04-18T11:59:57Z</time>
      </trkpt>
      <trkpt lat="37.3483770" lon="-2.5204650">
        <ele>783.8</ele>
        <time>2021-04-18T11:59:58Z</time>
      </trkpt>
      <trkpt lat="37.3483980" lon="-2.5204050">
        <ele>783.8</ele>
        <time>2021-04-18T11:59:59Z</time>
      </trkpt>
      <trkpt lat="37.3485240" lon="-2.5200570">
        <ele>783.8</ele>
        <time>2021-04-18T12:00:04Z</time>
      </trkpt>
      <trkpt lat="37.3486560" lon="-2.5195480">
        <ele>782.4</ele>
        <time>2021-04-18T12:00:10Z</time>
      </trkpt>
      <trkpt lat="37.3487230" lon="-2.5192730">
        <ele>781.2</ele>
        <time>2021-04-18T12:00:13Z</time>
      </trkpt>
      <trkpt lat="37.3487460" lon="-2.5191810">
        <ele>780.8</ele>
        <time>2021-04-18T12:00:14Z</time>
      </trkpt>
      <trkpt lat="37.3487870" lon="-2.5189870">
        <ele>780.4</ele>
        <time>2021-04-18T12:00:16Z</time>
      </trkpt>
      <trkpt lat="37.3488050" lon="-2.5188920">
        <ele>780.0</ele>
        <time>2021-04-18T12:00:17Z</time>
      </trkpt>
      <trkpt lat="37.3488660" lon="-2.5186200">
        <ele>779.4</ele>
        <time>2021-04-18T12:00:20Z</time>
      </trkpt>
      <trkpt lat="37.3488780" lon="-2.5185300">
        <ele>779.2</ele>
        <time>2021-04-18T12:00:21Z</time>
      </trkpt>
      <trkpt lat="37.3489160" lon="-2.5182660">
        <ele>779.0</ele>
        <time>2021-04-18T12:00:24Z</time>
      </trkpt>
      <trkpt lat="37.3489350" lon="-2.5181820">
        <ele>779.0</ele>
        <time>2021-04-18T12:00:25Z</time>
      </trkpt>
      <trkpt lat="37.3489560" lon="-2.5181030">
        <ele>779.0</ele>
        <time>2021-04-18T12:00:26Z</time>
      </trkpt>
      <trkpt lat="37.3489770" lon="-2.5180240">
        <ele>778.8</ele>
        <time>2021-04-18T12:00:27Z</time>
      </trkpt>
      <trkpt lat="37.3490010" lon="-2.5179460">
        <ele>778.8</ele>
        <time>2021-04-18T12:00:28Z</time>
      </trkpt>
      <trkpt lat="37.3490330" lon="-2.5177890">
        <ele>778.8</ele>
        <time>2021-04-18T12:00:30Z</time>
      </trkpt>
      <trkpt lat="37.3490430" lon="-2.5177120">
        <ele>778.8</ele>
        <time>2021-04-18T12:00:31Z</time>
      </trkpt>
      <trkpt lat="37.3490570" lon="-2.5176370">
        <ele>778.8</ele>
        <time>2021-04-18T12:00:32Z</time>
      </trkpt>
      <trkpt lat="37.3490730" lon="-2.5175650">
        <ele>778.6</ele>
        <time>2021-04-18T12:00:33Z</time>
      </trkpt>
      <trkpt lat="37.3490930" lon="-2.5174950">
        <ele>778.8</ele>
        <time>2021-04-18T12:00:34Z</time>
      </trkpt>
      <trkpt lat="37.3491140" lon="-2.5174270">
        <ele>778.8</ele>
        <time>2021-04-18T12:00:35Z</time>
      </trkpt>
      <trkpt lat="37.3491360" lon="-2.5173600">
        <ele>778.6</ele>
        <time>2021-04-18T12:00:36Z</time>
      </trkpt>
      <trkpt lat="37.3491570" lon="-2.5172960">
        <ele>778.6</ele>
        <time>2021-04-18T12:00:37Z</time>
      </trkpt>
      <trkpt lat="37.3491760" lon="-2.5172310">
        <ele>778.6</ele>
        <time>2021-04-18T12:00:38Z</time>
      </trkpt>
      <trkpt lat="37.3491870" lon="-2.5171690">
        <ele>778.4</ele>
        <time>2021-04-18T12:00:39Z</time>
      </trkpt>
      <trkpt lat="37.3491900" lon="-2.5171080">
        <ele>778.4</ele>
        <time>2021-04-18T12:00:40Z</time>
      </trkpt>
      <trkpt lat="37.3491940" lon="-2.5170410">
        <ele>778.2</ele>
        <time>2021-04-18T12:00:41Z</time>
      </trkpt>
      <trkpt lat="37.3492000" lon="-2.5169690">
        <ele>778.2</ele>
        <time>2021-04-18T12:00:42Z</time>
      </trkpt>
      <trkpt lat="37.3492100" lon="-2.5168970">
        <ele>778.2</ele>
        <time>2021-04-18T12:00:43Z</time>
      </trkpt>
      <trkpt lat="37.3492220" lon="-2.5168260">
        <ele>778.2</ele>
        <time>2021-04-18T12:00:44Z</time>
      </trkpt>
      <trkpt lat="37.3492720" lon="-2.5166110">
        <ele>778.0</ele>
        <time>2021-04-18T12:00:47Z</time>
      </trkpt>
      <trkpt lat="37.3493300" lon="-2.5164040">
        <ele>777.8</ele>
        <time>2021-04-18T12:00:50Z</time>
      </trkpt>
      <trkpt lat="37.3494070" lon="-2.5161300">
        <ele>777.4</ele>
        <time>2021-04-18T12:00:54Z</time>
      </trkpt>
      <trkpt lat="37.3494390" lon="-2.5159950">
        <ele>777.2</ele>
        <time>2021-04-18T12:00:56Z</time>
      </trkpt>
      <trkpt lat="37.3494620" lon="-2.5158580">
        <ele>777.2</ele>
        <time>2021-04-18T12:00:58Z</time>
      </trkpt>
      <trkpt lat="37.3494700" lon="-2.5157900">
        <ele>777.2</ele>
        <time>2021-04-18T12:00:59Z</time>
      </trkpt>
      <trkpt lat="37.3494790" lon="-2.5157310">
        <ele>777.2</ele>
        <time>2021-04-18T12:01:00Z</time>
      </trkpt>
      <trkpt lat="37.3494910" lon="-2.5156620">
        <ele>777.2</ele>
        <time>2021-04-18T12:01:01Z</time>
      </trkpt>
      <trkpt lat="37.3495120" lon="-2.5154530">
        <ele>777.6</ele>
        <time>2021-04-18T12:01:04Z</time>
      </trkpt>
      <trkpt lat="37.3495200" lon="-2.5153820">
        <ele>777.6</ele>
        <time>2021-04-18T12:01:05Z</time>
      </trkpt>
      <trkpt lat="37.3495460" lon="-2.5152440">
        <ele>777.6</ele>
        <time>2021-04-18T12:01:07Z</time>
      </trkpt>
      <trkpt lat="37.3495650" lon="-2.5151090">
        <ele>777.4</ele>
        <time>2021-04-18T12:01:09Z</time>
      </trkpt>
      <trkpt lat="37.3495720" lon="-2.5150440">
        <ele>777.4</ele>
        <time>2021-04-18T12:01:10Z</time>
      </trkpt>
      <trkpt lat="37.3496020" lon="-2.5149130">
        <ele>777.2</ele>
        <time>2021-04-18T12:01:12Z</time>
      </trkpt>
      <trkpt lat="37.3496230" lon="-2.5148510">
        <ele>777.2</ele>
        <time>2021-04-18T12:01:13Z</time>
      </trkpt>
      <trkpt lat="37.3496430" lon="-2.5147930">
        <ele>777.2</ele>
        <time>2021-04-18T12:01:14Z</time>
      </trkpt>
      <trkpt lat="37.3497060" lon="-2.5146280">
        <ele>777.2</ele>
        <time>2021-04-18T12:01:17Z</time>
      </trkpt>
      <trkpt lat="37.3497270" lon="-2.5145710">
        <ele>777.2</ele>
        <time>2021-04-18T12:01:18Z</time>
      </trkpt>
      <trkpt lat="37.3497500" lon="-2.5145140">
        <ele>777.2</ele>
        <time>2021-04-18T12:01:19Z</time>
      </trkpt>
      <trkpt lat="37.3497740" lon="-2.5144580">
        <ele>777.4</ele>
        <time>2021-04-18T12:01:20Z</time>
      </trkpt>
      <trkpt lat="37.3497950" lon="-2.5144010">
        <ele>777.4</ele>
        <time>2021-04-18T12:01:21Z</time>
      </trkpt>
      <trkpt lat="37.3498180" lon="-2.5143470">
        <ele>777.4</ele>
        <time>2021-04-18T12:01:22Z</time>
      </trkpt>
      <trkpt lat="37.3498410" lon="-2.5142930">
        <ele>777.6</ele>
        <time>2021-04-18T12:01:23Z</time>
      </trkpt>
      <trkpt lat="37.3498650" lon="-2.5142380">
        <ele>777.8</ele>
        <time>2021-04-18T12:01:24Z</time>
      </trkpt>
      <trkpt lat="37.3499380" lon="-2.5140780">
        <ele>778.0</ele>
        <time>2021-04-18T12:01:27Z</time>
      </trkpt>
      <trkpt lat="37.3500090" lon="-2.5139030">
        <ele>778.0</ele>
        <time>2021-04-18T12:01:30Z</time>
      </trkpt>
      <trkpt lat="37.3501610" lon="-2.5135120">
        <ele>776.8</ele>
        <time>2021-04-18T12:01:36Z</time>
      </trkpt>
      <trkpt lat="37.3502610" lon="-2.5132400">
        <ele>776.4</ele>
        <time>2021-04-18T12:01:40Z</time>
      </trkpt>
      <trkpt lat="37.3503780" lon="-2.5128850">
        <ele>776.0</ele>
        <time>2021-04-18T12:01:45Z</time>
      </trkpt>
      <trkpt lat="37.3504950" lon="-2.5123410">
        <ele>775.4</ele>
        <time>2021-04-18T12:01:52Z</time>
      </trkpt>
      <trkpt lat="37.3505080" lon="-2.5122600">
        <ele>775.2</ele>
        <time>2021-04-18T12:01:53Z</time>
      </trkpt>
      <trkpt lat="37.3505170" lon="-2.5121880">
        <ele>775.2</ele>
        <time>2021-04-18T12:01:54Z</time>
      </trkpt>
      <trkpt lat="37.3505400" lon="-2.5119640">
        <ele>775.2</ele>
        <time>2021-04-18T12:01:57Z</time>
      </trkpt>
      <trkpt lat="37.3505650" lon="-2.5118900">
        <ele>775.2</ele>
        <time>2021-04-18T12:01:58Z</time>
      </trkpt>
      <trkpt lat="37.3505710" lon="-2.5118190">
        <ele>775.2</ele>
        <time>2021-04-18T12:01:59Z</time>
      </trkpt>
      <trkpt lat="37.3505720" lon="-2.5117500">
        <ele>775.2</ele>
        <time>2021-04-18T12:02:00Z</time>
      </trkpt>
      <trkpt lat="37.3505850" lon="-2.5116790">
        <ele>775.2</ele>
        <time>2021-04-18T12:02:01Z</time>
      </trkpt>
      <trkpt lat="37.3506000" lon="-2.5116010">
        <ele>775.2</ele>
        <time>2021-04-18T12:02:02Z</time>
      </trkpt>
      <trkpt lat="37.3505850" lon="-2.5114520">
        <ele>775.4</ele>
        <time>2021-04-18T12:02:04Z</time>
      </trkpt>
      <trkpt lat="37.3506020" lon="-2.5112440">
        <ele>775.6</ele>
        <time>2021-04-18T12:02:07Z</time>
      </trkpt>
      <trkpt lat="37.3506100" lon="-2.5111760">
        <ele>775.8</ele>
        <time>2021-04-18T12:02:08Z</time>
      </trkpt>
      <trkpt lat="37.3506120" lon="-2.5111110">
        <ele>775.8</ele>
        <time>2021-04-18T12:02:09Z</time>
      </trkpt>
      <trkpt lat="37.3506050" lon="-2.5110480">
        <ele>776.0</ele>
        <time>2021-04-18T12:02:10Z</time>
      </trkpt>
      <trkpt lat="37.3505970" lon="-2.5109870">
        <ele>776.0</ele>
        <time>2021-04-18T12:02:11Z</time>
      </trkpt>
      <trkpt lat="37.3505850" lon="-2.5109250">
        <ele>776.0</ele>
        <time>2021-04-18T12:02:12Z</time>
      </trkpt>
      <trkpt lat="37.3505610" lon="-2.5108670">
        <ele>776.0</ele>
        <time>2021-04-18T12:02:13Z</time>
      </trkpt>
      <trkpt lat="37.3505300" lon="-2.5108150">
        <ele>776.2</ele>
        <time>2021-04-18T12:02:14Z</time>
      </trkpt>
      <trkpt lat="37.3504930" lon="-2.5107670">
        <ele>776.2</ele>
        <time>2021-04-18T12:02:15Z</time>
      </trkpt>
      <trkpt lat="37.3504540" lon="-2.5107260">
        <ele>776.0</ele>
        <time>2021-04-18T12:02:16Z</time>
      </trkpt>
      <trkpt lat="37.3504120" lon="-2.5106950">
        <ele>776.0</ele>
        <time>2021-04-18T12:02:17Z</time>
      </trkpt>
      <trkpt lat="37.3503650" lon="-2.5106760">
        <ele>776.0</ele>
        <time>2021-04-18T12:02:18Z</time>
      </trkpt>
      <trkpt lat="37.3503200" lon="-2.5106620">
        <ele>776.0</ele>
        <time>2021-04-18T12:02:19Z</time>
      </trkpt>
      <trkpt lat="37.3502750" lon="-2.5106500">
        <ele>775.8</ele>
        <time>2021-04-18T12:02:20Z</time>
      </trkpt>
      <trkpt lat="37.3502320" lon="-2.5106380">
        <ele>775.8</ele>
        <time>2021-04-18T12:02:21Z</time>
      </trkpt>
      <trkpt lat="37.3501920" lon="-2.5106290">
        <ele>775.8</ele>
        <time>2021-04-18T12:02:22Z</time>
      </trkpt>
      <trkpt lat="37.3501520" lon="-2.5106200">
        <ele>775.8</ele>
        <time>2021-04-18T12:02:23Z</time>
      </trkpt>
      <trkpt lat="37.3501160" lon="-2.5106120">
        <ele>775.8</ele>
        <time>2021-04-18T12:02:24Z</time>
      </trkpt>
      <trkpt lat="37.3500790" lon="-2.5106010">
        <ele>775.8</ele>
        <time>2021-04-18T12:02:25Z</time>
      </trkpt>
      <trkpt lat="37.3500420" lon="-2.5105920">
        <ele>775.8</ele>
        <time>2021-04-18T12:02:26Z</time>
      </trkpt>
      <trkpt lat="37.3499760" lon="-2.5105800">
        <ele>776.0</ele>
        <time>2021-04-18T12:02:28Z</time>
      </trkpt>
      <trkpt lat="37.3499460" lon="-2.5105720">
        <ele>776.0</ele>
        <time>2021-04-18T12:02:29Z</time>
      </trkpt>
      <trkpt lat="37.3499160" lon="-2.5105640">
        <ele>776.0</ele>
        <time>2021-04-18T12:02:30Z</time>
      </trkpt>
      <trkpt lat="37.3498880" lon="-2.5105570">
        <ele>776.2</ele>
        <time>2021-04-18T12:02:31Z</time>
      </trkpt>
      <trkpt lat="37.3498590" lon="-2.5105530">
        <ele>776.2</ele>
        <time>2021-04-18T12:02:32Z</time>
      </trkpt>
      <trkpt lat="37.3498340" lon="-2.5105450">
        <ele>776.4</ele>
        <time>2021-04-18T12:02:33Z</time>
      </trkpt>
      <trkpt lat="37.3497780" lon="-2.5105310">
        <ele>776.8</ele>
        <time>2021-04-18T12:02:35Z</time>
      </trkpt>
      <trkpt lat="37.3497500" lon="-2.5105230">
        <ele>777.0</ele>
        <time>2021-04-18T12:02:36Z</time>
      </trkpt>
      <trkpt lat="37.3497220" lon="-2.5105160">
        <ele>777.2</ele>
        <time>2021-04-18T12:02:37Z</time>
      </trkpt>
      <trkpt lat="37.3496960" lon="-2.5105110">
        <ele>777.2</ele>
        <time>2021-04-18T12:02:38Z</time>
      </trkpt>
      <trkpt lat="37.3496680" lon="-2.5105060">
        <ele>777.4</ele>
        <time>2021-04-18T12:02:39Z</time>
      </trkpt>
      <trkpt lat="37.3496380" lon="-2.5105010">
        <ele>777.4</ele>
        <time>2021-04-18T12:02:40Z</time>
      </trkpt>
      <trkpt lat="37.3496100" lon="-2.5104980">
        <ele>777.6</ele>
        <time>2021-04-18T12:02:41Z</time>
      </trkpt>
      <trkpt lat="37.3495450" lon="-2.5104830">
        <ele>778.2</ele>
        <time>2021-04-18T12:02:44Z</time>
      </trkpt>
      <trkpt lat="37.3495010" lon="-2.5104680">
        <ele>778.4</ele>
        <time>2021-04-18T12:02:46Z</time>
      </trkpt>
      <trkpt lat="37.3494770" lon="-2.5104620">
        <ele>778.8</ele>
        <time>2021-04-18T12:02:47Z</time>
      </trkpt>
      <trkpt lat="37.3494530" lon="-2.5104560">
        <ele>779.0</ele>
        <time>2021-04-18T12:02:48Z</time>
      </trkpt>
      <trkpt lat="37.3494290" lon="-2.5104510">
        <ele>779.2</ele>
        <time>2021-04-18T12:02:49Z</time>
      </trkpt>
      <trkpt lat="37.3494050" lon="-2.5104500">
        <ele>779.2</ele>
        <time>2021-04-18T12:02:50Z</time>
      </trkpt>
      <trkpt lat="37.3493800" lon="-2.5104460">
        <ele>779.4</ele>
        <time>2021-04-18T12:02:51Z</time>
      </trkpt>
      <trkpt lat="37.3493570" lon="-2.5104400">
        <ele>779.4</ele>
        <time>2021-04-18T12:02:52Z</time>
      </trkpt>
      <trkpt lat="37.3493310" lon="-2.5104340">
        <ele>779.4</ele>
        <time>2021-04-18T12:02:53Z</time>
      </trkpt>
      <trkpt lat="37.3493050" lon="-2.5104310">
        <ele>779.6</ele>
        <time>2021-04-18T12:02:54Z</time>
      </trkpt>
      <trkpt lat="37.3492780" lon="-2.5104280">
        <ele>779.6</ele>
        <time>2021-04-18T12:02:55Z</time>
      </trkpt>
      <trkpt lat="37.3492530" lon="-2.5104280">
        <ele>779.8</ele>
        <time>2021-04-18T12:02:56Z</time>
      </trkpt>
      <trkpt lat="37.3492270" lon="-2.5104260">
        <ele>779.8</ele>
        <time>2021-04-18T12:02:57Z</time>
      </trkpt>
      <trkpt lat="37.3492010" lon="-2.5104260">
        <ele>780.0</ele>
        <time>2021-04-18T12:02:58Z</time>
      </trkpt>
      <trkpt lat="37.3491770" lon="-2.5104230">
        <ele>780.0</ele>
        <time>2021-04-18T12:02:59Z</time>
      </trkpt>
      <trkpt lat="37.3491550" lon="-2.5104210">
        <ele>780.2</ele>
        <time>2021-04-18T12:03:00Z</time>
      </trkpt>
      <trkpt lat="37.3491320" lon="-2.5104200">
        <ele>780.2</ele>
        <time>2021-04-18T12:03:01Z</time>
      </trkpt>
      <trkpt lat="37.3491080" lon="-2.5104180">
        <ele>780.4</ele>
        <time>2021-04-18T12:03:02Z</time>
      </trkpt>
      <trkpt lat="37.3490840" lon="-2.5104150">
        <ele>780.6</ele>
        <time>2021-04-18T12:03:03Z</time>
      </trkpt>
      <trkpt lat="37.3490630" lon="-2.5104110">
        <ele>780.8</ele>
        <time>2021-04-18T12:03:04Z</time>
      </trkpt>
      <trkpt lat="37.3490420" lon="-2.5104060">
        <ele>780.8</ele>
        <time>2021-04-18T12:03:05Z</time>
      </trkpt>
      <trkpt lat="37.3490200" lon="-2.5104000">
        <ele>781.0</ele>
        <time>2021-04-18T12:03:06Z</time>
      </trkpt>
      <trkpt lat="37.3489970" lon="-2.5103950">
        <ele>781.2</ele>
        <time>2021-04-18T12:03:07Z</time>
      </trkpt>
      <trkpt lat="37.3489730" lon="-2.5103880">
        <ele>781.2</ele>
        <time>2021-04-18T12:03:08Z</time>
      </trkpt>
      <trkpt lat="37.3489500" lon="-2.5103860">
        <ele>781.4</ele>
        <time>2021-04-18T12:03:09Z</time>
      </trkpt>
      <trkpt lat="37.3489270" lon="-2.5103810">
        <ele>781.4</ele>
        <time>2021-04-18T12:03:10Z</time>
      </trkpt>
      <trkpt lat="37.3489040" lon="-2.5103730">
        <ele>781.6</ele>
        <time>2021-04-18T12:03:11Z</time>
      </trkpt>
      <trkpt lat="37.3488800" lon="-2.5103670">
        <ele>781.6</ele>
        <time>2021-04-18T12:03:12Z</time>
      </trkpt>
      <trkpt lat="37.3488580" lon="-2.5103630">
        <ele>781.6</ele>
        <time>2021-04-18T12:03:13Z</time>
      </trkpt>
      <trkpt lat="37.3488380" lon="-2.5103620">
        <ele>781.6</ele>
        <time>2021-04-18T12:03:14Z</time>
      </trkpt>
      <trkpt lat="37.3488160" lon="-2.5103610">
        <ele>781.8</ele>
        <time>2021-04-18T12:03:15Z</time>
      </trkpt>
      <trkpt lat="37.3487940" lon="-2.5103570">
        <ele>781.8</ele>
        <time>2021-04-18T12:03:16Z</time>
      </trkpt>
      <trkpt lat="37.3487730" lon="-2.5103520">
        <ele>781.8</ele>
        <time>2021-04-18T12:03:17Z</time>
      </trkpt>
      <trkpt lat="37.3487520" lon="-2.5103480">
        <ele>782.0</ele>
        <time>2021-04-18T12:03:18Z</time>
      </trkpt>
      <trkpt lat="37.3487310" lon="-2.5103450">
        <ele>782.0</ele>
        <time>2021-04-18T12:03:19Z</time>
      </trkpt>
      <trkpt lat="37.3487090" lon="-2.5103390">
        <ele>782.0</ele>
        <time>2021-04-18T12:03:20Z</time>
      </trkpt>
      <trkpt lat="37.3486860" lon="-2.5103360">
        <ele>782.2</ele>
        <time>2021-04-18T12:03:21Z</time>
      </trkpt>
      <trkpt lat="37.3486620" lon="-2.5103350">
        <ele>782.2</ele>
        <time>2021-04-18T12:03:22Z</time>
      </trkpt>
      <trkpt lat="37.3486410" lon="-2.5103350">
        <ele>782.4</ele>
        <time>2021-04-18T12:03:23Z</time>
      </trkpt>
      <trkpt lat="37.3485690" lon="-2.5103110">
        <ele>782.8</ele>
        <time>2021-04-18T12:03:27Z</time>
      </trkpt>
      <trkpt lat="37.3485480" lon="-2.5103050">
        <ele>782.8</ele>
        <time>2021-04-18T12:03:28Z</time>
      </trkpt>
      <trkpt lat="37.3485280" lon="-2.5102960">
        <ele>782.8</ele>
        <time>2021-04-18T12:03:29Z</time>
      </trkpt>
      <trkpt lat="37.3485090" lon="-2.5102970">
        <ele>783.0</ele>
        <time>2021-04-18T12:03:30Z</time>
      </trkpt>
      <trkpt lat="37.3484900" lon="-2.5102980">
        <ele>783.0</ele>
        <time>2021-04-18T12:03:31Z</time>
      </trkpt>
      <trkpt lat="37.3484710" lon="-2.5102980">
        <ele>783.0</ele>
        <time>2021-04-18T12:03:32Z</time>
      </trkpt>
      <trkpt lat="37.3484520" lon="-2.5102970">
        <ele>783.0</ele>
        <time>2021-04-18T12:03:33Z</time>
      </trkpt>
      <trkpt lat="37.3484320" lon="-2.5102950">
        <ele>783.2</ele>
        <time>2021-04-18T12:03:34Z</time>
      </trkpt>
      <trkpt lat="37.3484130" lon="-2.5102910">
        <ele>783.2</ele>
        <time>2021-04-18T12:03:35Z</time>
      </trkpt>
      <trkpt lat="37.3483200" lon="-2.5102660">
        <ele>783.6</ele>
        <time>2021-04-18T12:03:39Z</time>
      </trkpt>
      <trkpt lat="37.3483040" lon="-2.5102560">
        <ele>783.6</ele>
        <time>2021-04-18T12:03:40Z</time>
      </trkpt>
      <trkpt lat="37.3482720" lon="-2.5102500">
        <ele>784.0</ele>
        <time>2021-04-18T12:03:42Z</time>
      </trkpt>
      <trkpt lat="37.3482450" lon="-2.5102420">
        <ele>784.2</ele>
        <time>2021-04-18T12:03:43Z</time>
      </trkpt>
      <trkpt lat="37.3482180" lon="-2.5102340">
        <ele>784.2</ele>
        <time>2021-04-18T12:03:44Z</time>
      </trkpt>
      <trkpt lat="37.3481700" lon="-2.5102290">
        <ele>784.4</ele>
        <time>2021-04-18T12:03:46Z</time>
      </trkpt>
      <trkpt lat="37.3480250" lon="-2.5101990">
        <ele>784.8</ele>
        <time>2021-04-18T12:03:52Z</time>
      </trkpt>
      <trkpt lat="37.3480010" lon="-2.5101960">
        <ele>784.8</ele>
        <time>2021-04-18T12:03:53Z</time>
      </trkpt>
      <trkpt lat="37.3479610" lon="-2.5101930">
        <ele>785.0</ele>
        <time>2021-04-18T12:03:55Z</time>
      </trkpt>
      <trkpt lat="37.3479180" lon="-2.5101860">
        <ele>785.2</ele>
        <time>2021-04-18T12:03:57Z</time>
      </trkpt>
      <trkpt lat="37.3477870" lon="-2.5101450">
        <ele>785.8</ele>
        <time>2021-04-18T12:04:03Z</time>
      </trkpt>
      <trkpt lat="37.3477490" lon="-2.5101330">
        <ele>786.0</ele>
        <time>2021-04-18T12:04:05Z</time>
      </trkpt>
      <trkpt lat="37.3477260" lon="-2.5101320">
        <ele>786.0</ele>
        <time>2021-04-18T12:04:06Z</time>
      </trkpt>
      <trkpt lat="37.3476820" lon="-2.5101260">
        <ele>786.2</ele>
        <time>2021-04-18T12:04:08Z</time>
      </trkpt>
      <trkpt lat="37.3476600" lon="-2.5101230">
        <ele>786.2</ele>
        <time>2021-04-18T12:04:09Z</time>
      </trkpt>
      <trkpt lat="37.3476400" lon="-2.5101230">
        <ele>786.4</ele>
        <time>2021-04-18T12:04:10Z</time>
      </trkpt>
      <trkpt lat="37.3476190" lon="-2.5101170">
        <ele>786.4</ele>
        <time>2021-04-18T12:04:11Z</time>
      </trkpt>
      <trkpt lat="37.3475990" lon="-2.5101130">
        <ele>786.6</ele>
        <time>2021-04-18T12:04:12Z</time>
      </trkpt>
      <trkpt lat="37.3475790" lon="-2.5101080">
        <ele>786.6</ele>
        <time>2021-04-18T12:04:13Z</time>
      </trkpt>
      <trkpt lat="37.3475580" lon="-2.5101050">
        <ele>786.8</ele>
        <time>2021-04-18T12:04:14Z</time>
      </trkpt>
      <trkpt lat="37.3475370" lon="-2.5101030">
        <ele>786.8</ele>
        <time>2021-04-18T12:04:15Z</time>
      </trkpt>
      <trkpt lat="37.3474890" lon="-2.5101000">
        <ele>787.0</ele>
        <time>2021-04-18T12:04:17Z</time>
      </trkpt>
      <trkpt lat="37.3474140" lon="-2.5100940">
        <ele>787.2</ele>
        <time>2021-04-18T12:04:20Z</time>
      </trkpt>
      <trkpt lat="37.3472500" lon="-2.5100630">
        <ele>788.2</ele>
        <time>2021-04-18T12:04:27Z</time>
      </trkpt>
      <trkpt lat="37.3472040" lon="-2.5100570">
        <ele>788.4</ele>
        <time>2021-04-18T12:04:29Z</time>
      </trkpt>
      <trkpt lat="37.3471600" lon="-2.5100510">
        <ele>788.6</ele>
        <time>2021-04-18T12:04:31Z</time>
      </trkpt>
      <trkpt lat="37.3471390" lon="-2.5100450">
        <ele>788.8</ele>
        <time>2021-04-18T12:04:32Z</time>
      </trkpt>
      <trkpt lat="37.3471180" lon="-2.5100320">
        <ele>788.8</ele>
        <time>2021-04-18T12:04:33Z</time>
      </trkpt>
      <trkpt lat="37.3470970" lon="-2.5100240">
        <ele>789.0</ele>
        <time>2021-04-18T12:04:34Z</time>
      </trkpt>
      <trkpt lat="37.3470750" lon="-2.5100230">
        <ele>789.0</ele>
        <time>2021-04-18T12:04:35Z</time>
      </trkpt>
      <trkpt lat="37.3470550" lon="-2.5100180">
        <ele>789.2</ele>
        <time>2021-04-18T12:04:36Z</time>
      </trkpt>
      <trkpt lat="37.3470330" lon="-2.5100130">
        <ele>789.2</ele>
        <time>2021-04-18T12:04:37Z</time>
      </trkpt>
      <trkpt lat="37.3470110" lon="-2.5100050">
        <ele>789.2</ele>
        <time>2021-04-18T12:04:38Z</time>
      </trkpt>
      <trkpt lat="37.3469900" lon="-2.5099990">
        <ele>789.4</ele>
        <time>2021-04-18T12:04:39Z</time>
      </trkpt>
      <trkpt lat="37.3469690" lon="-2.5099990">
        <ele>789.4</ele>
        <time>2021-04-18T12:04:40Z</time>
      </trkpt>
      <trkpt lat="37.3469490" lon="-2.5099940">
        <ele>789.6</ele>
        <time>2021-04-18T12:04:41Z</time>
      </trkpt>
      <trkpt lat="37.3469270" lon="-2.5099820">
        <ele>789.6</ele>
        <time>2021-04-18T12:04:42Z</time>
      </trkpt>
      <trkpt lat="37.3469060" lon="-2.5099700">
        <ele>789.6</ele>
        <time>2021-04-18T12:04:43Z</time>
      </trkpt>
      <trkpt lat="37.3468860" lon="-2.5099630">
        <ele>789.8</ele>
        <time>2021-04-18T12:04:44Z</time>
      </trkpt>
      <trkpt lat="37.3468660" lon="-2.5099610">
        <ele>789.8</ele>
        <time>2021-04-18T12:04:45Z</time>
      </trkpt>
      <trkpt lat="37.3468470" lon="-2.5099600">
        <ele>790.0</ele>
        <time>2021-04-18T12:04:46Z</time>
      </trkpt>
      <trkpt lat="37.3468280" lon="-2.5099580">
        <ele>790.0</ele>
        <time>2021-04-18T12:04:47Z</time>
      </trkpt>
      <trkpt lat="37.3468060" lon="-2.5099540">
        <ele>790.0</ele>
        <time>2021-04-18T12:04:48Z</time>
      </trkpt>
      <trkpt lat="37.3467830" lon="-2.5099490">
        <ele>790.2</ele>
        <time>2021-04-18T12:04:49Z</time>
      </trkpt>
      <trkpt lat="37.3467610" lon="-2.5099410">
        <ele>790.2</ele>
        <time>2021-04-18T12:04:50Z</time>
      </trkpt>
      <trkpt lat="37.3467390" lon="-2.5099280">
        <ele>790.4</ele>
        <time>2021-04-18T12:04:51Z</time>
      </trkpt>
      <trkpt lat="37.3467180" lon="-2.5099220">
        <ele>790.6</ele>
        <time>2021-04-18T12:04:52Z</time>
      </trkpt>
      <trkpt lat="37.3466970" lon="-2.5099220">
        <ele>790.6</ele>
        <time>2021-04-18T12:04:53Z</time>
      </trkpt>
      <trkpt lat="37.3466780" lon="-2.5099250">
        <ele>790.8</ele>
        <time>2021-04-18T12:04:54Z</time>
      </trkpt>
      <trkpt lat="37.3466570" lon="-2.5099280">
        <ele>790.8</ele>
        <time>2021-04-18T12:04:55Z</time>
      </trkpt>
      <trkpt lat="37.3466360" lon="-2.5099270">
        <ele>790.8</ele>
        <time>2021-04-18T12:04:56Z</time>
      </trkpt>
      <trkpt lat="37.3466140" lon="-2.5099240">
        <ele>791.0</ele>
        <time>2021-04-18T12:04:57Z</time>
      </trkpt>
      <trkpt lat="37.3465540" lon="-2.5099150">
        <ele>791.2</ele>
        <time>2021-04-18T12:05:00Z</time>
      </trkpt>
      <trkpt lat="37.3465350" lon="-2.5099140">
        <ele>791.4</ele>
        <time>2021-04-18T12:05:01Z</time>
      </trkpt>
      <trkpt lat="37.3465140" lon="-2.5099010">
        <ele>791.6</ele>
        <time>2021-04-18T12:05:02Z</time>
      </trkpt>
      <trkpt lat="37.3464920" lon="-2.5099000">
        <ele>791.6</ele>
        <time>2021-04-18T12:05:03Z</time>
      </trkpt>
      <trkpt lat="37.3464700" lon="-2.5098890">
        <ele>791.6</ele>
        <time>2021-04-18T12:05:04Z</time>
      </trkpt>
      <trkpt lat="37.3464490" lon="-2.5098710">
        <ele>791.8</ele>
        <time>2021-04-18T12:05:05Z</time>
      </trkpt>
      <trkpt lat="37.3464250" lon="-2.5098590">
        <ele>791.8</ele>
        <time>2021-04-18T12:05:06Z</time>
      </trkpt>
      <trkpt lat="37.3464040" lon="-2.5098490">
        <ele>792.0</ele>
        <time>2021-04-18T12:05:07Z</time>
      </trkpt>
      <trkpt lat="37.3462560" lon="-2.5097560">
        <ele>792.6</ele>
        <time>2021-04-18T12:05:14Z</time>
      </trkpt>
      <trkpt lat="37.3461310" lon="-2.5096530">
        <ele>793.6</ele>
        <time>2021-04-18T12:05:21Z</time>
      </trkpt>
      <trkpt lat="37.3461110" lon="-2.5096350">
        <ele>793.8</ele>
        <time>2021-04-18T12:05:22Z</time>
      </trkpt>
      <trkpt lat="37.3460910" lon="-2.5096160">
        <ele>793.8</ele>
        <time>2021-04-18T12:05:23Z</time>
      </trkpt>
      <trkpt lat="37.3460700" lon="-2.5095940">
        <ele>794.0</ele>
        <time>2021-04-18T12:05:24Z</time>
      </trkpt>
      <trkpt lat="37.3460500" lon="-2.5095760">
        <ele>794.0</ele>
        <time>2021-04-18T12:05:25Z</time>
      </trkpt>
      <trkpt lat="37.3460300" lon="-2.5095640">
        <ele>794.0</ele>
        <time>2021-04-18T12:05:26Z</time>
      </trkpt>
      <trkpt lat="37.3460120" lon="-2.5095540">
        <ele>794.4</ele>
        <time>2021-04-18T12:05:27Z</time>
      </trkpt>
      <trkpt lat="37.3459940" lon="-2.5095420">
        <ele>794.6</ele>
        <time>2021-04-18T12:05:28Z</time>
      </trkpt>
      <trkpt lat="37.3459770" lon="-2.5095300">
        <ele>794.8</ele>
        <time>2021-04-18T12:05:29Z</time>
      </trkpt>
      <trkpt lat="37.3459610" lon="-2.5095160">
        <ele>794.8</ele>
        <time>2021-04-18T12:05:30Z</time>
      </trkpt>
      <trkpt lat="37.3459410" lon="-2.5095010">
        <ele>795.0</ele>
        <time>2021-04-18T12:05:31Z</time>
      </trkpt>
      <trkpt lat="37.3459230" lon="-2.5094850">
        <ele>795.0</ele>
        <time>2021-04-18T12:05:32Z</time>
      </trkpt>
      <trkpt lat="37.3459020" lon="-2.5094720">
        <ele>795.0</ele>
        <time>2021-04-18T12:05:33Z</time>
      </trkpt>
      <trkpt lat="37.3458840" lon="-2.5094590">
        <ele>795.0</ele>
        <time>2021-04-18T12:05:34Z</time>
      </trkpt>
      <trkpt lat="37.3458680" lon="-2.5094430">
        <ele>795.0</ele>
        <time>2021-04-18T12:05:35Z</time>
      </trkpt>
      <trkpt lat="37.3458490" lon="-2.5094270">
        <ele>795.2</ele>
        <time>2021-04-18T12:05:36Z</time>
      </trkpt>
      <trkpt lat="37.3458260" lon="-2.5094120">
        <ele>795.4</ele>
        <time>2021-04-18T12:05:37Z</time>
      </trkpt>
      <trkpt lat="37.3458030" lon="-2.5093930">
        <ele>795.6</ele>
        <time>2021-04-18T12:05:38Z</time>
      </trkpt>
      <trkpt lat="37.3457790" lon="-2.5093710">
        <ele>795.6</ele>
        <time>2021-04-18T12:05:39Z</time>
      </trkpt>
      <trkpt lat="37.3457640" lon="-2.5093510">
        <ele>795.8</ele>
        <time>2021-04-18T12:05:40Z</time>
      </trkpt>
      <trkpt lat="37.3457480" lon="-2.5093340">
        <ele>796.0</ele>
        <time>2021-04-18T12:05:41Z</time>
      </trkpt>
      <trkpt lat="37.3457290" lon="-2.5093180">
        <ele>796.2</ele>
        <time>2021-04-18T12:05:42Z</time>
      </trkpt>
      <trkpt lat="37.3457100" lon="-2.5093020">
        <ele>796.2</ele>
        <time>2021-04-18T12:05:43Z</time>
      </trkpt>
      <trkpt lat="37.3456910" lon="-2.5092860">
        <ele>796.4</ele>
        <time>2021-04-18T12:05:44Z</time>
      </trkpt>
      <trkpt lat="37.3456740" lon="-2.5092710">
        <ele>796.6</ele>
        <time>2021-04-18T12:05:45Z</time>
      </trkpt>
      <trkpt lat="37.3456570" lon="-2.5092540">
        <ele>796.8</ele>
        <time>2021-04-18T12:05:46Z</time>
      </trkpt>
      <trkpt lat="37.3456380" lon="-2.5092390">
        <ele>797.0</ele>
        <time>2021-04-18T12:05:47Z</time>
      </trkpt>
      <trkpt lat="37.3456170" lon="-2.5092260">
        <ele>797.2</ele>
        <time>2021-04-18T12:05:48Z</time>
      </trkpt>
      <trkpt lat="37.3456010" lon="-2.5092100">
        <ele>797.2</ele>
        <time>2021-04-18T12:05:49Z</time>
      </trkpt>
      <trkpt lat="37.3455860" lon="-2.5091900">
        <ele>797.2</ele>
        <time>2021-04-18T12:05:50Z</time>
      </trkpt>
      <trkpt lat="37.3455680" lon="-2.5091740">
        <ele>797.4</ele>
        <time>2021-04-18T12:05:51Z</time>
      </trkpt>
      <trkpt lat="37.3455490" lon="-2.5091590">
        <ele>797.6</ele>
        <time>2021-04-18T12:05:52Z</time>
      </trkpt>
      <trkpt lat="37.3455320" lon="-2.5091440">
        <ele>797.6</ele>
        <time>2021-04-18T12:05:53Z</time>
      </trkpt>
      <trkpt lat="37.3455170" lon="-2.5091310">
        <ele>797.6</ele>
        <time>2021-04-18T12:05:54Z</time>
      </trkpt>
      <trkpt lat="37.3454980" lon="-2.5091170">
        <ele>797.8</ele>
        <time>2021-04-18T12:05:55Z</time>
      </trkpt>
      <trkpt lat="37.3454800" lon="-2.5091040">
        <ele>797.8</ele>
        <time>2021-04-18T12:05:56Z</time>
      </trkpt>
      <trkpt lat="37.3454620" lon="-2.5090870">
        <ele>797.8</ele>
        <time>2021-04-18T12:05:57Z</time>
      </trkpt>
      <trkpt lat="37.3454450" lon="-2.5090700">
        <ele>797.8</ele>
        <time>2021-04-18T12:05:58Z</time>
      </trkpt>
      <trkpt lat="37.3454280" lon="-2.5090540">
        <ele>798.0</ele>
        <time>2021-04-18T12:05:59Z</time>
      </trkpt>
      <trkpt lat="37.3454080" lon="-2.5090400">
        <ele>798.0</ele>
        <time>2021-04-18T12:06:00Z</time>
      </trkpt>
      <trkpt lat="37.3453890" lon="-2.5090260">
        <ele>798.0</ele>
        <time>2021-04-18T12:06:01Z</time>
      </trkpt>
      <trkpt lat="37.3453710" lon="-2.5090120">
        <ele>798.0</ele>
        <time>2021-04-18T12:06:02Z</time>
      </trkpt>
      <trkpt lat="37.3453500" lon="-2.5090040">
        <ele>798.2</ele>
        <time>2021-04-18T12:06:03Z</time>
      </trkpt>
      <trkpt lat="37.3453310" lon="-2.5089960">
        <ele>798.2</ele>
        <time>2021-04-18T12:06:04Z</time>
      </trkpt>
      <trkpt lat="37.3453110" lon="-2.5089860">
        <ele>798.2</ele>
        <time>2021-04-18T12:06:05Z</time>
      </trkpt>
      <trkpt lat="37.3452920" lon="-2.5089770">
        <ele>798.4</ele>
        <time>2021-04-18T12:06:06Z</time>
      </trkpt>
      <trkpt lat="37.3452720" lon="-2.5089730">
        <ele>798.4</ele>
        <time>2021-04-18T12:06:07Z</time>
      </trkpt>
      <trkpt lat="37.3452510" lon="-2.5089700">
        <ele>798.6</ele>
        <time>2021-04-18T12:06:08Z</time>
      </trkpt>
      <trkpt lat="37.3451510" lon="-2.5089460">
        <ele>799.0</ele>
        <time>2021-04-18T12:06:13Z</time>
      </trkpt>
      <trkpt lat="37.3451290" lon="-2.5089450">
        <ele>799.2</ele>
        <time>2021-04-18T12:06:14Z</time>
      </trkpt>
      <trkpt lat="37.3450870" lon="-2.5089410">
        <ele>799.4</ele>
        <time>2021-04-18T12:06:16Z</time>
      </trkpt>
      <trkpt lat="37.3450620" lon="-2.5089370">
        <ele>799.6</ele>
        <time>2021-04-18T12:06:17Z</time>
      </trkpt>
      <trkpt lat="37.3450400" lon="-2.5089420">
        <ele>799.8</ele>
        <time>2021-04-18T12:06:18Z</time>
      </trkpt>
      <trkpt lat="37.3450240" lon="-2.5089530">
        <ele>799.8</ele>
        <time>2021-04-18T12:06:19Z</time>
      </trkpt>
      <trkpt lat="37.3450110" lon="-2.5089610">
        <ele>799.8</ele>
        <time>2021-04-18T12:06:20Z</time>
      </trkpt>
      <trkpt lat="37.3449960" lon="-2.5089630">
        <ele>800.0</ele>
        <time>2021-04-18T12:06:21Z</time>
      </trkpt>
      <trkpt lat="37.3449710" lon="-2.5089560">
        <ele>800.0</ele>
        <time>2021-04-18T12:06:22Z</time>
      </trkpt>
      <trkpt lat="37.3449450" lon="-2.5089450">
        <ele>800.4</ele>
        <time>2021-04-18T12:06:23Z</time>
      </trkpt>
      <trkpt lat="37.3449210" lon="-2.5089390">
        <ele>800.4</ele>
        <time>2021-04-18T12:06:24Z</time>
      </trkpt>
      <trkpt lat="37.3448990" lon="-2.5089390">
        <ele>800.6</ele>
        <time>2021-04-18T12:06:25Z</time>
      </trkpt>
      <trkpt lat="37.3448760" lon="-2.5089370">
        <ele>801.0</ele>
        <time>2021-04-18T12:06:26Z</time>
      </trkpt>
      <trkpt lat="37.3448530" lon="-2.5089350">
        <ele>801.0</ele>
        <time>2021-04-18T12:06:27Z</time>
      </trkpt>
      <trkpt lat="37.3448280" lon="-2.5089330">
        <ele>801.4</ele>
        <time>2021-04-18T12:06:28Z</time>
      </trkpt>
      <trkpt lat="37.3448030" lon="-2.5089310">
        <ele>801.8</ele>
        <time>2021-04-18T12:06:29Z</time>
      </trkpt>
      <trkpt lat="37.3447810" lon="-2.5089270">
        <ele>802.0</ele>
        <time>2021-04-18T12:06:30Z</time>
      </trkpt>
      <trkpt lat="37.3447590" lon="-2.5089280">
        <ele>802.4</ele>
        <time>2021-04-18T12:06:31Z</time>
      </trkpt>
      <trkpt lat="37.3447420" lon="-2.5089300">
        <ele>802.6</ele>
        <time>2021-04-18T12:06:32Z</time>
      </trkpt>
      <trkpt lat="37.3447230" lon="-2.5089310">
        <ele>802.8</ele>
        <time>2021-04-18T12:06:33Z</time>
      </trkpt>
      <trkpt lat="37.3447050" lon="-2.5089420">
        <ele>803.0</ele>
        <time>2021-04-18T12:06:34Z</time>
      </trkpt>
      <trkpt lat="37.3446850" lon="-2.5089460">
        <ele>803.2</ele>
        <time>2021-04-18T12:06:35Z</time>
      </trkpt>
      <trkpt lat="37.3446650" lon="-2.5089440">
        <ele>803.4</ele>
        <time>2021-04-18T12:06:36Z</time>
      </trkpt>
      <trkpt lat="37.3446430" lon="-2.5089480">
        <ele>803.6</ele>
        <time>2021-04-18T12:06:37Z</time>
      </trkpt>
      <trkpt lat="37.3446230" lon="-2.5089510">
        <ele>804.2</ele>
        <time>2021-04-18T12:06:38Z</time>
      </trkpt>
      <trkpt lat="37.3446040" lon="-2.5089530">
        <ele>804.4</ele>
        <time>2021-04-18T12:06:39Z</time>
      </trkpt>
      <trkpt lat="37.3445880" lon="-2.5089530">
        <ele>804.8</ele>
        <time>2021-04-18T12:06:40Z</time>
      </trkpt>
      <trkpt lat="37.3445710" lon="-2.5089540">
        <ele>805.0</ele>
        <time>2021-04-18T12:06:41Z</time>
      </trkpt>
      <trkpt lat="37.3445540" lon="-2.5089590">
        <ele>805.4</ele>
        <time>2021-04-18T12:06:42Z</time>
      </trkpt>
      <trkpt lat="37.3445350" lon="-2.5089650">
        <ele>805.6</ele>
        <time>2021-04-18T12:06:43Z</time>
      </trkpt>
      <trkpt lat="37.3445180" lon="-2.5089690">
        <ele>805.6</ele>
        <time>2021-04-18T12:06:44Z</time>
      </trkpt>
      <trkpt lat="37.3445010" lon="-2.5089780">
        <ele>806.2</ele>
        <time>2021-04-18T12:06:45Z</time>
      </trkpt>
      <trkpt lat="37.3444830" lon="-2.5089830">
        <ele>806.4</ele>
        <time>2021-04-18T12:06:46Z</time>
      </trkpt>
      <trkpt lat="37.3444640" lon="-2.5089840">
        <ele>806.6</ele>
        <time>2021-04-18T12:06:47Z</time>
      </trkpt>
      <trkpt lat="37.3444460" lon="-2.5089800">
        <ele>806.8</ele>
        <time>2021-04-18T12:06:48Z</time>
      </trkpt>
      <trkpt lat="37.3444270" lon="-2.5089690">
        <ele>806.8</ele>
        <time>2021-04-18T12:06:49Z</time>
      </trkpt>
      <trkpt lat="37.3444100" lon="-2.5089600">
        <ele>807.4</ele>
        <time>2021-04-18T12:06:50Z</time>
      </trkpt>
      <trkpt lat="37.3443940" lon="-2.5089500">
        <ele>807.6</ele>
        <time>2021-04-18T12:06:51Z</time>
      </trkpt>
      <trkpt lat="37.3443760" lon="-2.5089380">
        <ele>808.0</ele>
        <time>2021-04-18T12:06:52Z</time>
      </trkpt>
      <trkpt lat="37.3443540" lon="-2.5089340">
        <ele>808.2</ele>
        <time>2021-04-18T12:06:53Z</time>
      </trkpt>
      <trkpt lat="37.3443330" lon="-2.5089380">
        <ele>808.2</ele>
        <time>2021-04-18T12:06:54Z</time>
      </trkpt>
      <trkpt lat="37.3443120" lon="-2.5089430">
        <ele>808.2</ele>
        <time>2021-04-18T12:06:55Z</time>
      </trkpt>
      <trkpt lat="37.3442900" lon="-2.5089400">
        <ele>808.8</ele>
        <time>2021-04-18T12:06:56Z</time>
      </trkpt>
      <trkpt lat="37.3442710" lon="-2.5089360">
        <ele>809.2</ele>
        <time>2021-04-18T12:06:57Z</time>
      </trkpt>
      <trkpt lat="37.3442510" lon="-2.5089380">
        <ele>809.4</ele>
        <time>2021-04-18T12:06:58Z</time>
      </trkpt>
      <trkpt lat="37.3442280" lon="-2.5089330">
        <ele>809.8</ele>
        <time>2021-04-18T12:06:59Z</time>
      </trkpt>
      <trkpt lat="37.3442020" lon="-2.5089220">
        <ele>810.0</ele>
        <time>2021-04-18T12:07:00Z</time>
      </trkpt>
      <trkpt lat="37.3441810" lon="-2.5089110">
        <ele>810.2</ele>
        <time>2021-04-18T12:07:01Z</time>
      </trkpt>
      <trkpt lat="37.3441620" lon="-2.5088930">
        <ele>810.2</ele>
        <time>2021-04-18T12:07:02Z</time>
      </trkpt>
      <trkpt lat="37.3441410" lon="-2.5088730">
        <ele>810.8</ele>
        <time>2021-04-18T12:07:03Z</time>
      </trkpt>
      <trkpt lat="37.3441170" lon="-2.5088710">
        <ele>810.8</ele>
        <time>2021-04-18T12:07:04Z</time>
      </trkpt>
      <trkpt lat="37.3440970" lon="-2.5088800">
        <ele>811.4</ele>
        <time>2021-04-18T12:07:05Z</time>
      </trkpt>
      <trkpt lat="37.3440710" lon="-2.5088880">
        <ele>811.8</ele>
        <time>2021-04-18T12:07:06Z</time>
      </trkpt>
      <trkpt lat="37.3440550" lon="-2.5088890">
        <ele>811.8</ele>
        <time>2021-04-18T12:07:07Z</time>
      </trkpt>
      <trkpt lat="37.3440510" lon="-2.5088890">
        <ele>812.0</ele>
        <time>2021-04-18T12:07:08Z</time>
      </trkpt>
      <trkpt lat="37.3440510" lon="-2.5088890">
        <ele>812.4</ele>
        <time>2021-04-18T12:07:09Z</time>
      </trkpt>
      <trkpt lat="37.3440620" lon="-2.5088820">
        <ele>812.6</ele>
        <time>2021-04-18T12:07:10Z</time>
      </trkpt>
      <trkpt lat="37.3440760" lon="-2.5088670">
        <ele>812.8</ele>
        <time>2021-04-18T12:07:11Z</time>
      </trkpt>
      <trkpt lat="37.3440910" lon="-2.5088390">
        <ele>813.2</ele>
        <time>2021-04-18T12:07:12Z</time>
      </trkpt>
      <trkpt lat="37.3440760" lon="-2.5088220">
        <ele>813.4</ele>
        <time>2021-04-18T12:07:13Z</time>
      </trkpt>
      <trkpt lat="37.3440640" lon="-2.5088010">
        <ele>813.4</ele>
        <time>2021-04-18T12:07:14Z</time>
      </trkpt>
      <trkpt lat="37.3440570" lon="-2.5087770">
        <ele>813.8</ele>
        <time>2021-04-18T12:07:15Z</time>
      </trkpt>
      <trkpt lat="37.3440590" lon="-2.5087490">
        <ele>814.0</ele>
        <time>2021-04-18T12:07:16Z</time>
      </trkpt>
      <trkpt lat="37.3440590" lon="-2.5087170">
        <ele>814.4</ele>
        <time>2021-04-18T12:07:17Z</time>
      </trkpt>
      <trkpt lat="37.3440630" lon="-2.5086900">
        <ele>814.6</ele>
        <time>2021-04-18T12:07:18Z</time>
      </trkpt>
      <trkpt lat="37.3440670" lon="-2.5086700">
        <ele>815.0</ele>
        <time>2021-04-18T12:07:19Z</time>
      </trkpt>
      <trkpt lat="37.3440850" lon="-2.5086480">
        <ele>815.2</ele>
        <time>2021-04-18T12:07:20Z</time>
      </trkpt>
      <trkpt lat="37.3440810" lon="-2.5086330">
        <ele>815.4</ele>
        <time>2021-04-18T12:07:21Z</time>
      </trkpt>
      <trkpt lat="37.3441010" lon="-2.5086030">
        <ele>815.6</ele>
        <time>2021-04-18T12:07:22Z</time>
      </trkpt>
      <trkpt lat="37.3441090" lon="-2.5085700">
        <ele>816.0</ele>
        <time>2021-04-18T12:07:23Z</time>
      </trkpt>
      <trkpt lat="37.3441080" lon="-2.5085430">
        <ele>816.0</ele>
        <time>2021-04-18T12:07:24Z</time>
      </trkpt>
      <trkpt lat="37.3441120" lon="-2.5085090">
        <ele>816.4</ele>
        <time>2021-04-18T12:07:25Z</time>
      </trkpt>
      <trkpt lat="37.3441210" lon="-2.5084800">
        <ele>816.4</ele>
        <time>2021-04-18T12:07:26Z</time>
      </trkpt>
      <trkpt lat="37.3441100" lon="-2.5084410">
        <ele>816.6</ele>
        <time>2021-04-18T12:07:27Z</time>
      </trkpt>
      <trkpt lat="37.3441010" lon="-2.5084130">
        <ele>817.2</ele>
        <time>2021-04-18T12:07:28Z</time>
      </trkpt>
      <trkpt lat="37.3441020" lon="-2.5083780">
        <ele>817.2</ele>
        <time>2021-04-18T12:07:29Z</time>
      </trkpt>
      <trkpt lat="37.3441020" lon="-2.5083490">
        <ele>817.4</ele>
        <time>2021-04-18T12:07:30Z</time>
      </trkpt>
      <trkpt lat="37.3441080" lon="-2.5083240">
        <ele>817.4</ele>
        <time>2021-04-18T12:07:31Z</time>
      </trkpt>
      <trkpt lat="37.3441080" lon="-2.5082970">
        <ele>817.8</ele>
        <time>2021-04-18T12:07:32Z</time>
      </trkpt>
      <trkpt lat="37.3440960" lon="-2.5082720">
        <ele>818.2</ele>
        <time>2021-04-18T12:07:33Z</time>
      </trkpt>
      <trkpt lat="37.3440920" lon="-2.5082400">
        <ele>818.4</ele>
        <time>2021-04-18T12:07:34Z</time>
      </trkpt>
      <trkpt lat="37.3440810" lon="-2.5082090">
        <ele>818.4</ele>
        <time>2021-04-18T12:07:35Z</time>
      </trkpt>
      <trkpt lat="37.3440660" lon="-2.5081870">
        <ele>818.4</ele>
        <time>2021-04-18T12:07:36Z</time>
      </trkpt>
      <trkpt lat="37.3440560" lon="-2.5081560">
        <ele>818.6</ele>
        <time>2021-04-18T12:07:37Z</time>
      </trkpt>
      <trkpt lat="37.3440400" lon="-2.5081360">
        <ele>819.0</ele>
        <time>2021-04-18T12:07:38Z</time>
      </trkpt>
      <trkpt lat="37.3440130" lon="-2.5081160">
        <ele>819.2</ele>
        <time>2021-04-18T12:07:39Z</time>
      </trkpt>
      <trkpt lat="37.3439830" lon="-2.5080990">
        <ele>819.2</ele>
        <time>2021-04-18T12:07:40Z</time>
      </trkpt>
      <trkpt lat="37.3439420" lon="-2.5080780">
        <ele>819.2</ele>
        <time>2021-04-18T12:07:41Z</time>
      </trkpt>
      <trkpt lat="37.3438830" lon="-2.5080600">
        <ele>819.2</ele>
        <time>2021-04-18T12:07:42Z</time>
      </trkpt>
      <trkpt lat="37.3438230" lon="-2.5080410">
        <ele>819.4</ele>
        <time>2021-04-18T12:07:43Z</time>
      </trkpt>
      <trkpt lat="37.3437850" lon="-2.5080250">
        <ele>819.4</ele>
        <time>2021-04-18T12:07:44Z</time>
      </trkpt>
      <trkpt lat="37.3437610" lon="-2.5080150">
        <ele>819.4</ele>
        <time>2021-04-18T12:07:45Z</time>
      </trkpt>
      <trkpt lat="37.3437460" lon="-2.5080240">
        <ele>819.6</ele>
        <time>2021-04-18T12:07:46Z</time>
      </trkpt>
      <trkpt lat="37.3437350" lon="-2.5080310">
        <ele>819.6</ele>
        <time>2021-04-18T12:07:47Z</time>
      </trkpt>
      <trkpt lat="37.3437280" lon="-2.5080610">
        <ele>819.6</ele>
        <time>2021-04-18T12:07:48Z</time>
      </trkpt>
      <trkpt lat="37.3437210" lon="-2.5080850">
        <ele>819.8</ele>
        <time>2021-04-18T12:07:49Z</time>
      </trkpt>
      <trkpt lat="37.3437110" lon="-2.5081020">
        <ele>819.8</ele>
        <time>2021-04-18T12:07:50Z</time>
      </trkpt>
      <trkpt lat="37.3437020" lon="-2.5081260">
        <ele>820.0</ele>
        <time>2021-04-18T12:07:51Z</time>
      </trkpt>
      <trkpt lat="37.3436950" lon="-2.5081440">
        <ele>820.0</ele>
        <time>2021-04-18T12:07:52Z</time>
      </trkpt>
      <trkpt lat="37.3436870" lon="-2.5081640">
        <ele>820.2</ele>
        <time>2021-04-18T12:07:53Z</time>
      </trkpt>
      <trkpt lat="37.3436780" lon="-2.5081860">
        <ele>820.2</ele>
        <time>2021-04-18T12:07:54Z</time>
      </trkpt>
      <trkpt lat="37.3436730" lon="-2.5082090">
        <ele>820.4</ele>
        <time>2021-04-18T12:07:55Z</time>
      </trkpt>
      <trkpt lat="37.3436670" lon="-2.5082310">
        <ele>820.6</ele>
        <time>2021-04-18T12:07:56Z</time>
      </trkpt>
      <trkpt lat="37.3436580" lon="-2.5082540">
        <ele>820.6</ele>
        <time>2021-04-18T12:07:57Z</time>
      </trkpt>
      <trkpt lat="37.3436450" lon="-2.5082780">
        <ele>821.0</ele>
        <time>2021-04-18T12:07:58Z</time>
      </trkpt>
      <trkpt lat="37.3436390" lon="-2.5083010">
        <ele>821.0</ele>
        <time>2021-04-18T12:07:59Z</time>
      </trkpt>
      <trkpt lat="37.3436290" lon="-2.5083260">
        <ele>821.4</ele>
        <time>2021-04-18T12:08:00Z</time>
      </trkpt>
      <trkpt lat="37.3436200" lon="-2.5083500">
        <ele>822.2</ele>
        <time>2021-04-18T12:08:01Z</time>
      </trkpt>
      <trkpt lat="37.3436140" lon="-2.5083740">
        <ele>822.4</ele>
        <time>2021-04-18T12:08:02Z</time>
      </trkpt>
      <trkpt lat="37.3436150" lon="-2.5083990">
        <ele>822.6</ele>
        <time>2021-04-18T12:08:03Z</time>
      </trkpt>
      <trkpt lat="37.3436150" lon="-2.5084180">
        <ele>822.6</ele>
        <time>2021-04-18T12:08:04Z</time>
      </trkpt>
      <trkpt lat="37.3436120" lon="-2.5084360">
        <ele>823.0</ele>
        <time>2021-04-18T12:08:05Z</time>
      </trkpt>
      <trkpt lat="37.3436080" lon="-2.5084550">
        <ele>823.2</ele>
        <time>2021-04-18T12:08:06Z</time>
      </trkpt>
      <trkpt lat="37.3436030" lon="-2.5084730">
        <ele>823.4</ele>
        <time>2021-04-18T12:08:07Z</time>
      </trkpt>
      <trkpt lat="37.3435970" lon="-2.5084950">
        <ele>823.6</ele>
        <time>2021-04-18T12:08:08Z</time>
      </trkpt>
      <trkpt lat="37.3435970" lon="-2.5085130">
        <ele>823.6</ele>
        <time>2021-04-18T12:08:09Z</time>
      </trkpt>
      <trkpt lat="37.3435990" lon="-2.5085220">
        <ele>823.8</ele>
        <time>2021-04-18T12:08:10Z</time>
      </trkpt>
      <trkpt lat="37.3435980" lon="-2.5085260">
        <ele>823.8</ele>
        <time>2021-04-18T12:08:11Z</time>
      </trkpt>
      <trkpt lat="37.3435990" lon="-2.5085260">
        <ele>824.0</ele>
        <time>2021-04-18T12:08:12Z</time>
      </trkpt>
      <trkpt lat="37.3436050" lon="-2.5085190">
        <ele>824.2</ele>
        <time>2021-04-18T12:08:13Z</time>
      </trkpt>
      <trkpt lat="37.3436070" lon="-2.5085060">
        <ele>824.4</ele>
        <time>2021-04-18T12:08:14Z</time>
      </trkpt>
      <trkpt lat="37.3436150" lon="-2.5084990">
        <ele>824.6</ele>
        <time>2021-04-18T12:08:15Z</time>
      </trkpt>
      <trkpt lat="37.3436220" lon="-2.5084980">
        <ele>824.6</ele>
        <time>2021-04-18T12:08:16Z</time>
      </trkpt>
      <trkpt lat="37.3436330" lon="-2.5085080">
        <ele>824.8</ele>
        <time>2021-04-18T12:08:17Z</time>
      </trkpt>
      <trkpt lat="37.3436450" lon="-2.5085090">
        <ele>824.8</ele>
        <time>2021-04-18T12:08:18Z</time>
      </trkpt>
      <trkpt lat="37.3436560" lon="-2.5085190">
        <ele>825.0</ele>
        <time>2021-04-18T12:08:19Z</time>
      </trkpt>
      <trkpt lat="37.3436660" lon="-2.5085250">
        <ele>825.2</ele>
        <time>2021-04-18T12:08:20Z</time>
      </trkpt>
      <trkpt lat="37.3436760" lon="-2.5085380">
        <ele>825.4</ele>
        <time>2021-04-18T12:08:21Z</time>
      </trkpt>
      <trkpt lat="37.3436820" lon="-2.5085570">
        <ele>825.4</ele>
        <time>2021-04-18T12:08:22Z</time>
      </trkpt>
      <trkpt lat="37.3436820" lon="-2.5085620">
        <ele>825.6</ele>
        <time>2021-04-18T12:08:23Z</time>
      </trkpt>
      <trkpt lat="37.3436820" lon="-2.5085620">
        <ele>825.6</ele>
        <time>2021-04-18T12:08:24Z</time>
      </trkpt>
      <trkpt lat="37.3436820" lon="-2.5085620">
        <ele>825.6</ele>
        <time>2021-04-18T12:08:25Z</time>
      </trkpt>
      <trkpt lat="37.3436820" lon="-2.5085620">
        <ele>825.6</ele>
        <time>2021-04-18T12:08:26Z</time>
      </trkpt>
      <trkpt lat="37.3433860" lon="-2.5075310">
        <ele>798.4</ele>
        <time>2021-04-18T08:46:30Z</time>
      </trkpt>
      <trkpt lat="37.3433860" lon="-2.5075310">
        <ele>799.0</ele>
        <time>2021-04-18T08:46:32Z</time>
      </trkpt>
      <trkpt lat="37.3433860" lon="-2.5075310">
        <ele>798.8</ele>
        <time>2021-04-18T08:46:33Z</time>
      </trkpt>
      <trkpt lat="37.3433860" lon="-2.5075310">
        <ele>798.4</ele>
        <time>2021-04-18T08:46:35Z</time>
      </trkpt>
      <trkpt lat="37.3434230" lon="-2.5074400">
        <ele>798.0</ele>
        <time>2021-04-18T08:46:39Z</time>
      </trkpt>
      <trkpt lat="37.3433790" lon="-2.5073780">
        <ele>798.0</ele>
        <time>2021-04-18T08:46:40Z</time>
      </trkpt>
      <trkpt lat="37.3433810" lon="-2.5073640">
        <ele>796.8</ele>
        <time>2021-04-18T08:46:41Z</time>
      </trkpt>
      <trkpt lat="37.3433740" lon="-2.5073490">
        <ele>796.6</ele>
        <time>2021-04-18T08:46:42Z</time>
      </trkpt>
      <trkpt lat="37.3433660" lon="-2.5073410">
        <ele>796.0</ele>
        <time>2021-04-18T08:46:43Z</time>
      </trkpt>
      <trkpt lat="37.3433390" lon="-2.5073370">
        <ele>795.2</ele>
        <time>2021-04-18T08:46:44Z</time>
      </trkpt>
      <trkpt lat="37.3432890" lon="-2.5073520">
        <ele>794.8</ele>
        <time>2021-04-18T08:46:46Z</time>
      </trkpt>
      <trkpt lat="37.3432130" lon="-2.5073980">
        <ele>795.4</ele>
        <time>2021-04-18T08:46:49Z</time>
      </trkpt>
      <trkpt lat="37.3431870" lon="-2.5074100">
        <ele>795.2</ele>
        <time>2021-04-18T08:46:50Z</time>
      </trkpt>
      <trkpt lat="37.3431640" lon="-2.5074180">
        <ele>794.8</ele>
        <time>2021-04-18T08:46:51Z</time>
      </trkpt>
      <trkpt lat="37.3431410" lon="-2.5074190">
        <ele>794.8</ele>
        <time>2021-04-18T08:46:52Z</time>
      </trkpt>
      <trkpt lat="37.3431160" lon="-2.5074180">
        <ele>794.6</ele>
        <time>2021-04-18T08:46:53Z</time>
      </trkpt>
      <trkpt lat="37.3430960" lon="-2.5074120">
        <ele>794.6</ele>
        <time>2021-04-18T08:46:54Z</time>
      </trkpt>
      <trkpt lat="37.3430810" lon="-2.5074080">
        <ele>794.4</ele>
        <time>2021-04-18T08:46:55Z</time>
      </trkpt>
      <trkpt lat="37.3430670" lon="-2.5074110">
        <ele>794.4</ele>
        <time>2021-04-18T08:46:56Z</time>
      </trkpt>
      <trkpt lat="37.3430600" lon="-2.5074290">
        <ele>794.4</ele>
        <time>2021-04-18T08:46:57Z</time>
      </trkpt>
      <trkpt lat="37.3430580" lon="-2.5074500">
        <ele>794.4</ele>
        <time>2021-04-18T08:46:58Z</time>
      </trkpt>
      <trkpt lat="37.3430590" lon="-2.5074720">
        <ele>794.4</ele>
        <time>2021-04-18T08:46:59Z</time>
      </trkpt>
      <trkpt lat="37.3430590" lon="-2.5075490">
        <ele>794.4</ele>
        <time>2021-04-18T08:47:02Z</time>
      </trkpt>
      <trkpt lat="37.3430530" lon="-2.5076090">
        <ele>794.6</ele>
        <time>2021-04-18T08:47:04Z</time>
      </trkpt>
      <trkpt lat="37.3430400" lon="-2.5076870">
        <ele>795.2</ele>
        <time>2021-04-18T08:47:07Z</time>
      </trkpt>
      <trkpt lat="37.3430320" lon="-2.5077070">
        <ele>795.6</ele>
        <time>2021-04-18T08:47:08Z</time>
      </trkpt>
      <trkpt lat="37.3430080" lon="-2.5077870">
        <ele>796.4</ele>
        <time>2021-04-18T08:47:12Z</time>
      </trkpt>
      <trkpt lat="37.3429920" lon="-2.5078560">
        <ele>796.8</ele>
        <time>2021-04-18T08:47:15Z</time>
      </trkpt>
      <trkpt lat="37.3429870" lon="-2.5078810">
        <ele>796.8</ele>
        <time>2021-04-18T08:47:16Z</time>
      </trkpt>
      <trkpt lat="37.3429840" lon="-2.5079040">
        <ele>797.0</ele>
        <time>2021-04-18T08:47:17Z</time>
      </trkpt>
      <trkpt lat="37.3429810" lon="-2.5079270">
        <ele>797.0</ele>
        <time>2021-04-18T08:47:18Z</time>
      </trkpt>
      <trkpt lat="37.3429590" lon="-2.5080100">
        <ele>797.6</ele>
        <time>2021-04-18T08:47:22Z</time>
      </trkpt>
      <trkpt lat="37.3429500" lon="-2.5080320">
        <ele>797.6</ele>
        <time>2021-04-18T08:47:23Z</time>
      </trkpt>
      <trkpt lat="37.3429270" lon="-2.5081000">
        <ele>798.4</ele>
        <time>2021-04-18T08:47:26Z</time>
      </trkpt>
      <trkpt lat="37.3429210" lon="-2.5081210">
        <ele>798.6</ele>
        <time>2021-04-18T08:47:27Z</time>
      </trkpt>
      <trkpt lat="37.3429090" lon="-2.5081510">
        <ele>798.8</ele>
        <time>2021-04-18T08:47:28Z</time>
      </trkpt>
      <trkpt lat="37.3429040" lon="-2.5081690">
        <ele>799.0</ele>
        <time>2021-04-18T08:47:29Z</time>
      </trkpt>
      <trkpt lat="37.3429000" lon="-2.5081910">
        <ele>799.2</ele>
        <time>2021-04-18T08:47:30Z</time>
      </trkpt>
      <trkpt lat="37.3428950" lon="-2.5082130">
        <ele>799.4</ele>
        <time>2021-04-18T08:47:31Z</time>
      </trkpt>
      <trkpt lat="37.3428880" lon="-2.5082360">
        <ele>799.6</ele>
        <time>2021-04-18T08:47:32Z</time>
      </trkpt>
      <trkpt lat="37.3428790" lon="-2.5082610">
        <ele>800.0</ele>
        <time>2021-04-18T08:47:33Z</time>
      </trkpt>
      <trkpt lat="37.3428730" lon="-2.5082840">
        <ele>800.2</ele>
        <time>2021-04-18T08:47:34Z</time>
      </trkpt>
      <trkpt lat="37.3428640" lon="-2.5083110">
        <ele>800.2</ele>
        <time>2021-04-18T08:47:35Z</time>
      </trkpt>
      <trkpt lat="37.3428540" lon="-2.5083370">
        <ele>800.4</ele>
        <time>2021-04-18T08:47:36Z</time>
      </trkpt>
      <trkpt lat="37.3428420" lon="-2.5083590">
        <ele>800.4</ele>
        <time>2021-04-18T08:47:37Z</time>
      </trkpt>
      <trkpt lat="37.3428290" lon="-2.5083800">
        <ele>800.6</ele>
        <time>2021-04-18T08:47:38Z</time>
      </trkpt>
      <trkpt lat="37.3428190" lon="-2.5084030">
        <ele>800.6</ele>
        <time>2021-04-18T08:47:39Z</time>
      </trkpt>
      <trkpt lat="37.3428090" lon="-2.5084220">
        <ele>800.8</ele>
        <time>2021-04-18T08:47:40Z</time>
      </trkpt>
      <trkpt lat="37.3427910" lon="-2.5084500">
        <ele>801.0</ele>
        <time>2021-04-18T08:47:41Z</time>
      </trkpt>
      <trkpt lat="37.3427780" lon="-2.5084750">
        <ele>801.0</ele>
        <time>2021-04-18T08:47:42Z</time>
      </trkpt>
      <trkpt lat="37.3427650" lon="-2.5084990">
        <ele>801.2</ele>
        <time>2021-04-18T08:47:43Z</time>
      </trkpt>
      <trkpt lat="37.3427550" lon="-2.5085190">
        <ele>801.4</ele>
        <time>2021-04-18T08:47:44Z</time>
      </trkpt>
      <trkpt lat="37.3427400" lon="-2.5085430">
        <ele>801.6</ele>
        <time>2021-04-18T08:47:45Z</time>
      </trkpt>
      <trkpt lat="37.3427220" lon="-2.5085620">
        <ele>801.8</ele>
        <time>2021-04-18T08:47:46Z</time>
      </trkpt>
      <trkpt lat="37.3427010" lon="-2.5085880">
        <ele>802.2</ele>
        <time>2021-04-18T08:47:47Z</time>
      </trkpt>
      <trkpt lat="37.3426850" lon="-2.5086090">
        <ele>802.4</ele>
        <time>2021-04-18T08:47:48Z</time>
      </trkpt>
      <trkpt lat="37.3426720" lon="-2.5086360">
        <ele>802.4</ele>
        <time>2021-04-18T08:47:49Z</time>
      </trkpt>
      <trkpt lat="37.3426620" lon="-2.5086560">
        <ele>802.6</ele>
        <time>2021-04-18T08:47:50Z</time>
      </trkpt>
      <trkpt lat="37.3426500" lon="-2.5086790">
        <ele>802.6</ele>
        <time>2021-04-18T08:47:51Z</time>
      </trkpt>
      <trkpt lat="37.3426330" lon="-2.5087050">
        <ele>803.0</ele>
        <time>2021-04-18T08:47:52Z</time>
      </trkpt>
      <trkpt lat="37.3426170" lon="-2.5087280">
        <ele>803.2</ele>
        <time>2021-04-18T08:47:53Z</time>
      </trkpt>
      <trkpt lat="37.3425970" lon="-2.5087470">
        <ele>803.4</ele>
        <time>2021-04-18T08:47:54Z</time>
      </trkpt>
      <trkpt lat="37.3425810" lon="-2.5087610">
        <ele>803.6</ele>
        <time>2021-04-18T08:47:55Z</time>
      </trkpt>
      <trkpt lat="37.3425630" lon="-2.5087800">
        <ele>803.8</ele>
        <time>2021-04-18T08:47:56Z</time>
      </trkpt>
      <trkpt lat="37.3425420" lon="-2.5088040">
        <ele>804.0</ele>
        <time>2021-04-18T08:47:57Z</time>
      </trkpt>
      <trkpt lat="37.3425280" lon="-2.5088200">
        <ele>804.2</ele>
        <time>2021-04-18T08:47:58Z</time>
      </trkpt>
      <trkpt lat="37.3425120" lon="-2.5088410">
        <ele>804.4</ele>
        <time>2021-04-18T08:47:59Z</time>
      </trkpt>
      <trkpt lat="37.3424960" lon="-2.5088590">
        <ele>804.6</ele>
        <time>2021-04-18T08:48:00Z</time>
      </trkpt>
      <trkpt lat="37.3424800" lon="-2.5088780">
        <ele>804.8</ele>
        <time>2021-04-18T08:48:01Z</time>
      </trkpt>
      <trkpt lat="37.3424630" lon="-2.5089010">
        <ele>805.2</ele>
        <time>2021-04-18T08:48:02Z</time>
      </trkpt>
      <trkpt lat="37.3424420" lon="-2.5089220">
        <ele>805.4</ele>
        <time>2021-04-18T08:48:03Z</time>
      </trkpt>
      <trkpt lat="37.3424210" lon="-2.5089480">
        <ele>805.6</ele>
        <time>2021-04-18T08:48:04Z</time>
      </trkpt>
      <trkpt lat="37.3424080" lon="-2.5089660">
        <ele>805.6</ele>
        <time>2021-04-18T08:48:05Z</time>
      </trkpt>
      <trkpt lat="37.3423920" lon="-2.5089870">
        <ele>805.8</ele>
        <time>2021-04-18T08:48:06Z</time>
      </trkpt>
      <trkpt lat="37.3423700" lon="-2.5090080">
        <ele>806.0</ele>
        <time>2021-04-18T08:48:07Z</time>
      </trkpt>
      <trkpt lat="37.3423520" lon="-2.5090280">
        <ele>806.0</ele>
        <time>2021-04-18T08:48:08Z</time>
      </trkpt>
      <trkpt lat="37.3423350" lon="-2.5090500">
        <ele>806.4</ele>
        <time>2021-04-18T08:48:09Z</time>
      </trkpt>
      <trkpt lat="37.3423230" lon="-2.5090670">
        <ele>806.4</ele>
        <time>2021-04-18T08:48:10Z</time>
      </trkpt>
      <trkpt lat="37.3423050" lon="-2.5090860">
        <ele>806.6</ele>
        <time>2021-04-18T08:48:11Z</time>
      </trkpt>
      <trkpt lat="37.3422860" lon="-2.5091040">
        <ele>806.6</ele>
        <time>2021-04-18T08:48:12Z</time>
      </trkpt>
      <trkpt lat="37.3422620" lon="-2.5091250">
        <ele>806.8</ele>
        <time>2021-04-18T08:48:13Z</time>
      </trkpt>
      <trkpt lat="37.3422420" lon="-2.5091430">
        <ele>807.0</ele>
        <time>2021-04-18T08:48:14Z</time>
      </trkpt>
      <trkpt lat="37.3422220" lon="-2.5091630">
        <ele>807.0</ele>
        <time>2021-04-18T08:48:15Z</time>
      </trkpt>
      <trkpt lat="37.3422050" lon="-2.5091780">
        <ele>807.2</ele>
        <time>2021-04-18T08:48:16Z</time>
      </trkpt>
      <trkpt lat="37.3421850" lon="-2.5091930">
        <ele>807.2</ele>
        <time>2021-04-18T08:48:17Z</time>
      </trkpt>
      <trkpt lat="37.3421600" lon="-2.5092080">
        <ele>807.4</ele>
        <time>2021-04-18T08:48:18Z</time>
      </trkpt>
      <trkpt lat="37.3421400" lon="-2.5092180">
        <ele>807.8</ele>
        <time>2021-04-18T08:48:19Z</time>
      </trkpt>
      <trkpt lat="37.3421190" lon="-2.5092300">
        <ele>808.0</ele>
        <time>2021-04-18T08:48:20Z</time>
      </trkpt>
      <trkpt lat="37.3421020" lon="-2.5092380">
        <ele>808.4</ele>
        <time>2021-04-18T08:48:21Z</time>
      </trkpt>
      <trkpt lat="37.3420800" lon="-2.5092510">
        <ele>808.4</ele>
        <time>2021-04-18T08:48:22Z</time>
      </trkpt>
      <trkpt lat="37.3420580" lon="-2.5092670">
        <ele>808.6</ele>
        <time>2021-04-18T08:48:23Z</time>
      </trkpt>
      <trkpt lat="37.3420320" lon="-2.5092830">
        <ele>808.8</ele>
        <time>2021-04-18T08:48:24Z</time>
      </trkpt>
      <trkpt lat="37.3420130" lon="-2.5093020">
        <ele>809.2</ele>
        <time>2021-04-18T08:48:25Z</time>
      </trkpt>
      <trkpt lat="37.3419990" lon="-2.5093210">
        <ele>809.2</ele>
        <time>2021-04-18T08:48:26Z</time>
      </trkpt>
      <trkpt lat="37.3419830" lon="-2.5093490">
        <ele>809.2</ele>
        <time>2021-04-18T08:48:27Z</time>
      </trkpt>
      <trkpt lat="37.3419780" lon="-2.5093700">
        <ele>809.4</ele>
        <time>2021-04-18T08:48:28Z</time>
      </trkpt>
      <trkpt lat="37.3419720" lon="-2.5094050">
        <ele>809.6</ele>
        <time>2021-04-18T08:48:29Z</time>
      </trkpt>
      <trkpt lat="37.3419680" lon="-2.5094400">
        <ele>810.0</ele>
        <time>2021-04-18T08:48:30Z</time>
      </trkpt>
      <trkpt lat="37.3419600" lon="-2.5094750">
        <ele>810.2</ele>
        <time>2021-04-18T08:48:31Z</time>
      </trkpt>
      <trkpt lat="37.3419500" lon="-2.5095110">
        <ele>810.4</ele>
        <time>2021-04-18T08:48:32Z</time>
      </trkpt>
      <trkpt lat="37.3419400" lon="-2.5095460">
        <ele>810.8</ele>
        <time>2021-04-18T08:48:33Z</time>
      </trkpt>
      <trkpt lat="37.3419310" lon="-2.5095810">
        <ele>810.8</ele>
        <time>2021-04-18T08:48:34Z</time>
      </trkpt>
      <trkpt lat="37.3419250" lon="-2.5096140">
        <ele>811.0</ele>
        <time>2021-04-18T08:48:35Z</time>
      </trkpt>
      <trkpt lat="37.3419230" lon="-2.5096410">
        <ele>811.2</ele>
        <time>2021-04-18T08:48:36Z</time>
      </trkpt>
      <trkpt lat="37.3419220" lon="-2.5096710">
        <ele>811.4</ele>
        <time>2021-04-18T08:48:37Z</time>
      </trkpt>
      <trkpt lat="37.3419200" lon="-2.5097010">
        <ele>811.4</ele>
        <time>2021-04-18T08:48:38Z</time>
      </trkpt>
      <trkpt lat="37.3419160" lon="-2.5097280">
        <ele>811.6</ele>
        <time>2021-04-18T08:48:39Z</time>
      </trkpt>
      <trkpt lat="37.3419090" lon="-2.5097590">
        <ele>811.8</ele>
        <time>2021-04-18T08:48:40Z</time>
      </trkpt>
      <trkpt lat="37.3419040" lon="-2.5097770">
        <ele>811.8</ele>
        <time>2021-04-18T08:48:41Z</time>
      </trkpt>
      <trkpt lat="37.3419000" lon="-2.5098020">
        <ele>812.0</ele>
        <time>2021-04-18T08:48:42Z</time>
      </trkpt>
      <trkpt lat="37.3418950" lon="-2.5098270">
        <ele>812.0</ele>
        <time>2021-04-18T08:48:43Z</time>
      </trkpt>
      <trkpt lat="37.3418820" lon="-2.5098540">
        <ele>812.2</ele>
        <time>2021-04-18T08:48:44Z</time>
      </trkpt>
      <trkpt lat="37.3418670" lon="-2.5098760">
        <ele>812.2</ele>
        <time>2021-04-18T08:48:45Z</time>
      </trkpt>
      <trkpt lat="37.3418520" lon="-2.5098930">
        <ele>812.2</ele>
        <time>2021-04-18T08:48:46Z</time>
      </trkpt>
      <trkpt lat="37.3418380" lon="-2.5099040">
        <ele>812.6</ele>
        <time>2021-04-18T08:48:47Z</time>
      </trkpt>
      <trkpt lat="37.3418220" lon="-2.5099160">
        <ele>812.6</ele>
        <time>2021-04-18T08:48:48Z</time>
      </trkpt>
      <trkpt lat="37.3418000" lon="-2.5099290">
        <ele>813.0</ele>
        <time>2021-04-18T08:48:49Z</time>
      </trkpt>
      <trkpt lat="37.3417810" lon="-2.5099410">
        <ele>813.0</ele>
        <time>2021-04-18T08:48:50Z</time>
      </trkpt>
      <trkpt lat="37.3417630" lon="-2.5099530">
        <ele>813.2</ele>
        <time>2021-04-18T08:48:51Z</time>
      </trkpt>
      <trkpt lat="37.3417500" lon="-2.5099630">
        <ele>813.4</ele>
        <time>2021-04-18T08:48:52Z</time>
      </trkpt>
      <trkpt lat="37.3417330" lon="-2.5099770">
        <ele>813.4</ele>
        <time>2021-04-18T08:48:53Z</time>
      </trkpt>
      <trkpt lat="37.3417190" lon="-2.5099910">
        <ele>813.8</ele>
        <time>2021-04-18T08:48:54Z</time>
      </trkpt>
      <trkpt lat="37.3417040" lon="-2.5100150">
        <ele>814.0</ele>
        <time>2021-04-18T08:48:55Z</time>
      </trkpt>
      <trkpt lat="37.3416900" lon="-2.5100380">
        <ele>814.2</ele>
        <time>2021-04-18T08:48:56Z</time>
      </trkpt>
      <trkpt lat="37.3416750" lon="-2.5100610">
        <ele>814.4</ele>
        <time>2021-04-18T08:48:57Z</time>
      </trkpt>
      <trkpt lat="37.3416620" lon="-2.5100840">
        <ele>814.6</ele>
        <time>2021-04-18T08:48:58Z</time>
      </trkpt>
      <trkpt lat="37.3416530" lon="-2.5101030">
        <ele>814.6</ele>
        <time>2021-04-18T08:48:59Z</time>
      </trkpt>
      <trkpt lat="37.3416410" lon="-2.5101280">
        <ele>814.6</ele>
        <time>2021-04-18T08:49:00Z</time>
      </trkpt>
      <trkpt lat="37.3416330" lon="-2.5101520">
        <ele>814.8</ele>
        <time>2021-04-18T08:49:01Z</time>
      </trkpt>
      <trkpt lat="37.3416260" lon="-2.5101750">
        <ele>814.8</ele>
        <time>2021-04-18T08:49:02Z</time>
      </trkpt>
      <trkpt lat="37.3416200" lon="-2.5101970">
        <ele>815.0</ele>
        <time>2021-04-18T08:49:03Z</time>
      </trkpt>
      <trkpt lat="37.3416120" lon="-2.5102180">
        <ele>815.4</ele>
        <time>2021-04-18T08:49:04Z</time>
      </trkpt>
      <trkpt lat="37.3416060" lon="-2.5102390">
        <ele>815.4</ele>
        <time>2021-04-18T08:49:05Z</time>
      </trkpt>
      <trkpt lat="37.3415980" lon="-2.5102570">
        <ele>815.6</ele>
        <time>2021-04-18T08:49:06Z</time>
      </trkpt>
      <trkpt lat="37.3415910" lon="-2.5102750">
        <ele>815.8</ele>
        <time>2021-04-18T08:49:07Z</time>
      </trkpt>
      <trkpt lat="37.3415870" lon="-2.5102890">
        <ele>816.0</ele>
        <time>2021-04-18T08:49:08Z</time>
      </trkpt>
      <trkpt lat="37.3415790" lon="-2.5103130">
        <ele>816.0</ele>
        <time>2021-04-18T08:49:09Z</time>
      </trkpt>
      <trkpt lat="37.3415730" lon="-2.5103350">
        <ele>816.0</ele>
        <time>2021-04-18T08:49:10Z</time>
      </trkpt>
      <trkpt lat="37.3415640" lon="-2.5103570">
        <ele>816.2</ele>
        <time>2021-04-18T08:49:11Z</time>
      </trkpt>
      <trkpt lat="37.3415590" lon="-2.5103780">
        <ele>816.2</ele>
        <time>2021-04-18T08:49:12Z</time>
      </trkpt>
      <trkpt lat="37.3415590" lon="-2.5103930">
        <ele>816.4</ele>
        <time>2021-04-18T08:49:13Z</time>
      </trkpt>
      <trkpt lat="37.3415570" lon="-2.5104180">
        <ele>816.4</ele>
        <time>2021-04-18T08:49:14Z</time>
      </trkpt>
      <trkpt lat="37.3415560" lon="-2.5104360">
        <ele>816.6</ele>
        <time>2021-04-18T08:49:15Z</time>
      </trkpt>
      <trkpt lat="37.3415510" lon="-2.5104650">
        <ele>816.8</ele>
        <time>2021-04-18T08:49:16Z</time>
      </trkpt>
      <trkpt lat="37.3415440" lon="-2.5104880">
        <ele>817.0</ele>
        <time>2021-04-18T08:49:17Z</time>
      </trkpt>
      <trkpt lat="37.3415390" lon="-2.5105110">
        <ele>817.0</ele>
        <time>2021-04-18T08:49:18Z</time>
      </trkpt>
      <trkpt lat="37.3415380" lon="-2.5105300">
        <ele>817.2</ele>
        <time>2021-04-18T08:49:19Z</time>
      </trkpt>
      <trkpt lat="37.3415350" lon="-2.5105520">
        <ele>817.0</ele>
        <time>2021-04-18T08:49:20Z</time>
      </trkpt>
      <trkpt lat="37.3415310" lon="-2.5105780">
        <ele>817.0</ele>
        <time>2021-04-18T08:49:21Z</time>
      </trkpt>
      <trkpt lat="37.3415280" lon="-2.5106000">
        <ele>817.2</ele>
        <time>2021-04-18T08:49:22Z</time>
      </trkpt>
      <trkpt lat="37.3415260" lon="-2.5106210">
        <ele>817.2</ele>
        <time>2021-04-18T08:49:23Z</time>
      </trkpt>
      <trkpt lat="37.3415220" lon="-2.5106400">
        <ele>817.4</ele>
        <time>2021-04-18T08:49:24Z</time>
      </trkpt>
      <trkpt lat="37.3415130" lon="-2.5106660">
        <ele>817.6</ele>
        <time>2021-04-18T08:49:25Z</time>
      </trkpt>
      <trkpt lat="37.3415030" lon="-2.5106870">
        <ele>817.8</ele>
        <time>2021-04-18T08:49:26Z</time>
      </trkpt>
      <trkpt lat="37.3414910" lon="-2.5107080">
        <ele>818.0</ele>
        <time>2021-04-18T08:49:27Z</time>
      </trkpt>
      <trkpt lat="37.3414800" lon="-2.5107280">
        <ele>818.0</ele>
        <time>2021-04-18T08:49:28Z</time>
      </trkpt>
      <trkpt lat="37.3414700" lon="-2.5107480">
        <ele>818.4</ele>
        <time>2021-04-18T08:49:29Z</time>
      </trkpt>
      <trkpt lat="37.3414610" lon="-2.5107650">
        <ele>818.8</ele>
        <time>2021-04-18T08:49:30Z</time>
      </trkpt>
      <trkpt lat="37.3414500" lon="-2.5107880">
        <ele>818.8</ele>
        <time>2021-04-18T08:49:31Z</time>
      </trkpt>
      <trkpt lat="37.3414410" lon="-2.5108150">
        <ele>819.2</ele>
        <time>2021-04-18T08:49:32Z</time>
      </trkpt>
      <trkpt lat="37.3414370" lon="-2.5108380">
        <ele>819.2</ele>
        <time>2021-04-18T08:49:33Z</time>
      </trkpt>
      <trkpt lat="37.3414300" lon="-2.5108570">
        <ele>819.4</ele>
        <time>2021-04-18T08:49:34Z</time>
      </trkpt>
      <trkpt lat="37.3414230" lon="-2.5108730">
        <ele>819.4</ele>
        <time>2021-04-18T08:49:35Z</time>
      </trkpt>
      <trkpt lat="37.3414110" lon="-2.5108920">
        <ele>819.8</ele>
        <time>2021-04-18T08:49:36Z</time>
      </trkpt>
      <trkpt lat="37.3413970" lon="-2.5109070">
        <ele>820.2</ele>
        <time>2021-04-18T08:49:37Z</time>
      </trkpt>
      <trkpt lat="37.3413850" lon="-2.5109210">
        <ele>820.4</ele>
        <time>2021-04-18T08:49:38Z</time>
      </trkpt>
      <trkpt lat="37.3413750" lon="-2.5109350">
        <ele>820.6</ele>
        <time>2021-04-18T08:49:39Z</time>
      </trkpt>
      <trkpt lat="37.3413680" lon="-2.5109490">
        <ele>820.8</ele>
        <time>2021-04-18T08:49:40Z</time>
      </trkpt>
      <trkpt lat="37.3413630" lon="-2.5109630">
        <ele>821.0</ele>
        <time>2021-04-18T08:49:41Z</time>
      </trkpt>
      <trkpt lat="37.3413570" lon="-2.5109750">
        <ele>821.2</ele>
        <time>2021-04-18T08:49:42Z</time>
      </trkpt>
      <trkpt lat="37.3413480" lon="-2.5109920">
        <ele>821.4</ele>
        <time>2021-04-18T08:49:43Z</time>
      </trkpt>
      <trkpt lat="37.3413370" lon="-2.5110110">
        <ele>821.4</ele>
        <time>2021-04-18T08:49:44Z</time>
      </trkpt>
      <trkpt lat="37.3413260" lon="-2.5110290">
        <ele>821.6</ele>
        <time>2021-04-18T08:49:45Z</time>
      </trkpt>
      <trkpt lat="37.3413150" lon="-2.5110510">
        <ele>821.8</ele>
        <time>2021-04-18T08:49:46Z</time>
      </trkpt>
      <trkpt lat="37.3413050" lon="-2.5110720">
        <ele>822.0</ele>
        <time>2021-04-18T08:49:47Z</time>
      </trkpt>
      <trkpt lat="37.3412940" lon="-2.5110920">
        <ele>822.2</ele>
        <time>2021-04-18T08:49:48Z</time>
      </trkpt>
      <trkpt lat="37.3412850" lon="-2.5111140">
        <ele>822.4</ele>
        <time>2021-04-18T08:49:49Z</time>
      </trkpt>
      <trkpt lat="37.3412810" lon="-2.5111310">
        <ele>822.6</ele>
        <time>2021-04-18T08:49:50Z</time>
      </trkpt>
      <trkpt lat="37.3412780" lon="-2.5111530">
        <ele>822.8</ele>
        <time>2021-04-18T08:49:51Z</time>
      </trkpt>
      <trkpt lat="37.3412730" lon="-2.5111780">
        <ele>822.6</ele>
        <time>2021-04-18T08:49:52Z</time>
      </trkpt>
      <trkpt lat="37.3412700" lon="-2.5112050">
        <ele>822.8</ele>
        <time>2021-04-18T08:49:53Z</time>
      </trkpt>
      <trkpt lat="37.3412720" lon="-2.5112320">
        <ele>822.8</ele>
        <time>2021-04-18T08:49:54Z</time>
      </trkpt>
      <trkpt lat="37.3412770" lon="-2.5112520">
        <ele>823.0</ele>
        <time>2021-04-18T08:49:55Z</time>
      </trkpt>
      <trkpt lat="37.3412840" lon="-2.5112680">
        <ele>823.0</ele>
        <time>2021-04-18T08:49:56Z</time>
      </trkpt>
      <trkpt lat="37.3412970" lon="-2.5112900">
        <ele>823.2</ele>
        <time>2021-04-18T08:49:57Z</time>
      </trkpt>
      <trkpt lat="37.3413080" lon="-2.5113080">
        <ele>823.4</ele>
        <time>2021-04-18T08:49:58Z</time>
      </trkpt>
      <trkpt lat="37.3413210" lon="-2.5113190">
        <ele>823.6</ele>
        <time>2021-04-18T08:49:59Z</time>
      </trkpt>
      <trkpt lat="37.3413330" lon="-2.5113230">
        <ele>824.2</ele>
        <time>2021-04-18T08:50:00Z</time>
      </trkpt>
      <trkpt lat="37.3413470" lon="-2.5113320">
        <ele>824.4</ele>
        <time>2021-04-18T08:50:01Z</time>
      </trkpt>
      <trkpt lat="37.3413600" lon="-2.5113400">
        <ele>825.2</ele>
        <time>2021-04-18T08:50:02Z</time>
      </trkpt>
      <trkpt lat="37.3413720" lon="-2.5113460">
        <ele>825.8</ele>
        <time>2021-04-18T08:50:03Z</time>
      </trkpt>
      <trkpt lat="37.3413900" lon="-2.5113510">
        <ele>826.0</ele>
        <time>2021-04-18T08:50:04Z</time>
      </trkpt>
      <trkpt lat="37.3414060" lon="-2.5113540">
        <ele>826.2</ele>
        <time>2021-04-18T08:50:05Z</time>
      </trkpt>
      <trkpt lat="37.3414210" lon="-2.5113570">
        <ele>826.4</ele>
        <time>2021-04-18T08:50:06Z</time>
      </trkpt>
      <trkpt lat="37.3414330" lon="-2.5113540">
        <ele>826.6</ele>
        <time>2021-04-18T08:50:07Z</time>
      </trkpt>
      <trkpt lat="37.3414470" lon="-2.5113530">
        <ele>826.8</ele>
        <time>2021-04-18T08:50:08Z</time>
      </trkpt>
      <trkpt lat="37.3414620" lon="-2.5113560">
        <ele>827.0</ele>
        <time>2021-04-18T08:50:09Z</time>
      </trkpt>
      <trkpt lat="37.3414770" lon="-2.5113580">
        <ele>827.2</ele>
        <time>2021-04-18T08:50:10Z</time>
      </trkpt>
      <trkpt lat="37.3414920" lon="-2.5113560">
        <ele>827.4</ele>
        <time>2021-04-18T08:50:11Z</time>
      </trkpt>
      <trkpt lat="37.3415030" lon="-2.5113530">
        <ele>827.6</ele>
        <time>2021-04-18T08:50:12Z</time>
      </trkpt>
      <trkpt lat="37.3415230" lon="-2.5113490">
        <ele>827.8</ele>
        <time>2021-04-18T08:50:13Z</time>
      </trkpt>
      <trkpt lat="37.3415390" lon="-2.5113480">
        <ele>828.2</ele>
        <time>2021-04-18T08:50:14Z</time>
      </trkpt>
      <trkpt lat="37.3415580" lon="-2.5113470">
        <ele>828.6</ele>
        <time>2021-04-18T08:50:15Z</time>
      </trkpt>
      <trkpt lat="37.3415750" lon="-2.5113390">
        <ele>828.6</ele>
        <time>2021-04-18T08:50:16Z</time>
      </trkpt>
      <trkpt lat="37.3415880" lon="-2.5113310">
        <ele>829.0</ele>
        <time>2021-04-18T08:50:17Z</time>
      </trkpt>
      <trkpt lat="37.3415980" lon="-2.5113210">
        <ele>829.2</ele>
        <time>2021-04-18T08:50:18Z</time>
      </trkpt>
      <trkpt lat="37.3416090" lon="-2.5113130">
        <ele>829.8</ele>
        <time>2021-04-18T08:50:19Z</time>
      </trkpt>
      <trkpt lat="37.3416210" lon="-2.5113050">
        <ele>830.0</ele>
        <time>2021-04-18T08:50:20Z</time>
      </trkpt>
      <trkpt lat="37.3416310" lon="-2.5112920">
        <ele>830.6</ele>
        <time>2021-04-18T08:50:21Z</time>
      </trkpt>
      <trkpt lat="37.3416390" lon="-2.5112740">
        <ele>830.8</ele>
        <time>2021-04-18T08:50:22Z</time>
      </trkpt>
      <trkpt lat="37.3416520" lon="-2.5112580">
        <ele>831.0</ele>
        <time>2021-04-18T08:50:23Z</time>
      </trkpt>
      <trkpt lat="37.3416680" lon="-2.5112450">
        <ele>831.2</ele>
        <time>2021-04-18T08:50:24Z</time>
      </trkpt>
      <trkpt lat="37.3416850" lon="-2.5112320">
        <ele>831.2</ele>
        <time>2021-04-18T08:50:25Z</time>
      </trkpt>
      <trkpt lat="37.3416990" lon="-2.5112200">
        <ele>831.4</ele>
        <time>2021-04-18T08:50:26Z</time>
      </trkpt>
      <trkpt lat="37.3417100" lon="-2.5112090">
        <ele>831.6</ele>
        <time>2021-04-18T08:50:27Z</time>
      </trkpt>
      <trkpt lat="37.3417200" lon="-2.5112010">
        <ele>831.8</ele>
        <time>2021-04-18T08:50:28Z</time>
      </trkpt>
      <trkpt lat="37.3417350" lon="-2.5111870">
        <ele>832.0</ele>
        <time>2021-04-18T08:50:29Z</time>
      </trkpt>
      <trkpt lat="37.3417470" lon="-2.5111750">
        <ele>832.0</ele>
        <time>2021-04-18T08:50:30Z</time>
      </trkpt>
      <trkpt lat="37.3417580" lon="-2.5111630">
        <ele>832.2</ele>
        <time>2021-04-18T08:50:31Z</time>
      </trkpt>
      <trkpt lat="37.3417710" lon="-2.5111490">
        <ele>832.4</ele>
        <time>2021-04-18T08:50:32Z</time>
      </trkpt>
      <trkpt lat="37.3417820" lon="-2.5111400">
        <ele>832.6</ele>
        <time>2021-04-18T08:50:33Z</time>
      </trkpt>
      <trkpt lat="37.3417970" lon="-2.5111250">
        <ele>832.8</ele>
        <time>2021-04-18T08:50:34Z</time>
      </trkpt>
      <trkpt lat="37.3418080" lon="-2.5111100">
        <ele>832.8</ele>
        <time>2021-04-18T08:50:35Z</time>
      </trkpt>
      <trkpt lat="37.3418220" lon="-2.5110980">
        <ele>832.8</ele>
        <time>2021-04-18T08:50:36Z</time>
      </trkpt>
      <trkpt lat="37.3418340" lon="-2.5110830">
        <ele>833.0</ele>
        <time>2021-04-18T08:50:37Z</time>
      </trkpt>
      <trkpt lat="37.3418470" lon="-2.5110650">
        <ele>833.2</ele>
        <time>2021-04-18T08:50:38Z</time>
      </trkpt>
      <trkpt lat="37.3418590" lon="-2.5110560">
        <ele>833.2</ele>
        <time>2021-04-18T08:50:39Z</time>
      </trkpt>
      <trkpt lat="37.3418690" lon="-2.5110510">
        <ele>833.4</ele>
        <time>2021-04-18T08:50:40Z</time>
      </trkpt>
      <trkpt lat="37.3418790" lon="-2.5110480">
        <ele>833.4</ele>
        <time>2021-04-18T08:50:41Z</time>
      </trkpt>
      <trkpt lat="37.3418910" lon="-2.5110450">
        <ele>833.4</ele>
        <time>2021-04-18T08:50:42Z</time>
      </trkpt>
      <trkpt lat="37.3419000" lon="-2.5110450">
        <ele>833.6</ele>
        <time>2021-04-18T08:50:43Z</time>
      </trkpt>
      <trkpt lat="37.3419140" lon="-2.5110400">
        <ele>833.6</ele>
        <time>2021-04-18T08:50:44Z</time>
      </trkpt>
      <trkpt lat="37.3419250" lon="-2.5110290">
        <ele>834.0</ele>
        <time>2021-04-18T08:50:45Z</time>
      </trkpt>
      <trkpt lat="37.3419390" lon="-2.5110210">
        <ele>834.0</ele>
        <time>2021-04-18T08:50:46Z</time>
      </trkpt>
      <trkpt lat="37.3419570" lon="-2.5110250">
        <ele>834.2</ele>
        <time>2021-04-18T08:50:47Z</time>
      </trkpt>
      <trkpt lat="37.3419750" lon="-2.5110230">
        <ele>834.6</ele>
        <time>2021-04-18T08:50:48Z</time>
      </trkpt>
      <trkpt lat="37.3419880" lon="-2.5110200">
        <ele>834.6</ele>
        <time>2021-04-18T08:50:49Z</time>
      </trkpt>
      <trkpt lat="37.3419940" lon="-2.5110200">
        <ele>835.0</ele>
        <time>2021-04-18T08:50:50Z</time>
      </trkpt>
      <trkpt lat="37.3420090" lon="-2.5110050">
        <ele>835.0</ele>
        <time>2021-04-18T08:50:51Z</time>
      </trkpt>
      <trkpt lat="37.3420270" lon="-2.5109980">
        <ele>835.4</ele>
        <time>2021-04-18T08:50:52Z</time>
      </trkpt>
      <trkpt lat="37.3420510" lon="-2.5109940">
        <ele>835.8</ele>
        <time>2021-04-18T08:50:53Z</time>
      </trkpt>
      <trkpt lat="37.3420690" lon="-2.5109810">
        <ele>836.0</ele>
        <time>2021-04-18T08:50:54Z</time>
      </trkpt>
      <trkpt lat="37.3420780" lon="-2.5109660">
        <ele>836.2</ele>
        <time>2021-04-18T08:50:55Z</time>
      </trkpt>
      <trkpt lat="37.3420810" lon="-2.5109520">
        <ele>836.2</ele>
        <time>2021-04-18T08:50:56Z</time>
      </trkpt>
      <trkpt lat="37.3420790" lon="-2.5109420">
        <ele>836.8</ele>
        <time>2021-04-18T08:50:57Z</time>
      </trkpt>
      <trkpt lat="37.3420710" lon="-2.5109420">
        <ele>837.2</ele>
        <time>2021-04-18T08:50:58Z</time>
      </trkpt>
      <trkpt lat="37.3420620" lon="-2.5109500">
        <ele>837.8</ele>
        <time>2021-04-18T08:50:59Z</time>
      </trkpt>
      <trkpt lat="37.3420510" lon="-2.5109580">
        <ele>838.2</ele>
        <time>2021-04-18T08:51:00Z</time>
      </trkpt>
      <trkpt lat="37.3420450" lon="-2.5109680">
        <ele>838.4</ele>
        <time>2021-04-18T08:51:01Z</time>
      </trkpt>
      <trkpt lat="37.3420410" lon="-2.5109850">
        <ele>838.6</ele>
        <time>2021-04-18T08:51:02Z</time>
      </trkpt>
      <trkpt lat="37.3420400" lon="-2.5110060">
        <ele>838.8</ele>
        <time>2021-04-18T08:51:03Z</time>
      </trkpt>
      <trkpt lat="37.3420400" lon="-2.5110240">
        <ele>839.2</ele>
        <time>2021-04-18T08:51:04Z</time>
      </trkpt>
      <trkpt lat="37.3420430" lon="-2.5110420">
        <ele>839.4</ele>
        <time>2021-04-18T08:51:05Z</time>
      </trkpt>
      <trkpt lat="37.3420470" lon="-2.5110590">
        <ele>839.6</ele>
        <time>2021-04-18T08:51:06Z</time>
      </trkpt>
      <trkpt lat="37.3420510" lon="-2.5110710">
        <ele>839.8</ele>
        <time>2021-04-18T08:51:07Z</time>
      </trkpt>
      <trkpt lat="37.3420550" lon="-2.5110840">
        <ele>839.8</ele>
        <time>2021-04-18T08:51:08Z</time>
      </trkpt>
      <trkpt lat="37.3420580" lon="-2.5110940">
        <ele>840.0</ele>
        <time>2021-04-18T08:51:09Z</time>
      </trkpt>
      <trkpt lat="37.3420640" lon="-2.5111030">
        <ele>840.0</ele>
        <time>2021-04-18T08:51:10Z</time>
      </trkpt>
      <trkpt lat="37.3420720" lon="-2.5111110">
        <ele>840.6</ele>
        <time>2021-04-18T08:51:11Z</time>
      </trkpt>
      <trkpt lat="37.3420770" lon="-2.5111190">
        <ele>840.8</ele>
        <time>2021-04-18T08:51:12Z</time>
      </trkpt>
      <trkpt lat="37.3420800" lon="-2.5111260">
        <ele>841.0</ele>
        <time>2021-04-18T08:51:13Z</time>
      </trkpt>
      <trkpt lat="37.3420820" lon="-2.5111340">
        <ele>841.4</ele>
        <time>2021-04-18T08:51:14Z</time>
      </trkpt>
      <trkpt lat="37.3420850" lon="-2.5111340">
        <ele>841.6</ele>
        <time>2021-04-18T08:51:15Z</time>
      </trkpt>
      <trkpt lat="37.3420870" lon="-2.5111370">
        <ele>842.0</ele>
        <time>2021-04-18T08:51:16Z</time>
      </trkpt>
      <trkpt lat="37.3420900" lon="-2.5111470">
        <ele>842.2</ele>
        <time>2021-04-18T08:51:17Z</time>
      </trkpt>
      <trkpt lat="37.3420980" lon="-2.5111640">
        <ele>842.8</ele>
        <time>2021-04-18T08:51:18Z</time>
      </trkpt>
      <trkpt lat="37.3421090" lon="-2.5111830">
        <ele>843.0</ele>
        <time>2021-04-18T08:51:19Z</time>
      </trkpt>
      <trkpt lat="37.3421160" lon="-2.5112040">
        <ele>843.2</ele>
        <time>2021-04-18T08:51:20Z</time>
      </trkpt>
      <trkpt lat="37.3421220" lon="-2.5112240">
        <ele>843.6</ele>
        <time>2021-04-18T08:51:21Z</time>
      </trkpt>
      <trkpt lat="37.3421280" lon="-2.5112520">
        <ele>843.8</ele>
        <time>2021-04-18T08:51:22Z</time>
      </trkpt>
      <trkpt lat="37.3421360" lon="-2.5112740">
        <ele>844.2</ele>
        <time>2021-04-18T08:51:23Z</time>
      </trkpt>
      <trkpt lat="37.3421420" lon="-2.5112930">
        <ele>844.4</ele>
        <time>2021-04-18T08:51:24Z</time>
      </trkpt>
      <trkpt lat="37.3421470" lon="-2.5113130">
        <ele>845.0</ele>
        <time>2021-04-18T08:51:25Z</time>
      </trkpt>
      <trkpt lat="37.3421510" lon="-2.5113290">
        <ele>845.2</ele>
        <time>2021-04-18T08:51:26Z</time>
      </trkpt>
      <trkpt lat="37.3421540" lon="-2.5113470">
        <ele>845.4</ele>
        <time>2021-04-18T08:51:27Z</time>
      </trkpt>
      <trkpt lat="37.3421520" lon="-2.5113630">
        <ele>845.8</ele>
        <time>2021-04-18T08:51:28Z</time>
      </trkpt>
      <trkpt lat="37.3421480" lon="-2.5113800">
        <ele>846.0</ele>
        <time>2021-04-18T08:51:29Z</time>
      </trkpt>
      <trkpt lat="37.3421440" lon="-2.5113950">
        <ele>846.4</ele>
        <time>2021-04-18T08:51:30Z</time>
      </trkpt>
      <trkpt lat="37.3421410" lon="-2.5114130">
        <ele>846.8</ele>
        <time>2021-04-18T08:51:31Z</time>
      </trkpt>
      <trkpt lat="37.3421390" lon="-2.5114340">
        <ele>847.0</ele>
        <time>2021-04-18T08:51:32Z</time>
      </trkpt>
      <trkpt lat="37.3421440" lon="-2.5114490">
        <ele>847.4</ele>
        <time>2021-04-18T08:51:33Z</time>
      </trkpt>
      <trkpt lat="37.3421430" lon="-2.5114630">
        <ele>847.4</ele>
        <time>2021-04-18T08:51:34Z</time>
      </trkpt>
      <trkpt lat="37.3421400" lon="-2.5114710">
        <ele>847.8</ele>
        <time>2021-04-18T08:51:35Z</time>
      </trkpt>
      <trkpt lat="37.3421440" lon="-2.5114760">
        <ele>848.0</ele>
        <time>2021-04-18T08:51:36Z</time>
      </trkpt>
      <trkpt lat="37.3421630" lon="-2.5114860">
        <ele>848.2</ele>
        <time>2021-04-18T08:51:37Z</time>
      </trkpt>
      <trkpt lat="37.3421830" lon="-2.5115080">
        <ele>848.8</ele>
        <time>2021-04-18T08:51:38Z</time>
      </trkpt>
      <trkpt lat="37.3421950" lon="-2.5115330">
        <ele>849.0</ele>
        <time>2021-04-18T08:51:39Z</time>
      </trkpt>
      <trkpt lat="37.3422040" lon="-2.5115380">
        <ele>849.2</ele>
        <time>2021-04-18T08:51:40Z</time>
      </trkpt>
      <trkpt lat="37.3422110" lon="-2.5115460">
        <ele>849.4</ele>
        <time>2021-04-18T08:51:41Z</time>
      </trkpt>
      <trkpt lat="37.3422110" lon="-2.5115630">
        <ele>849.6</ele>
        <time>2021-04-18T08:51:42Z</time>
      </trkpt>
      <trkpt lat="37.3422130" lon="-2.5115770">
        <ele>849.8</ele>
        <time>2021-04-18T08:51:43Z</time>
      </trkpt>
      <trkpt lat="37.3422280" lon="-2.5116040">
        <ele>849.8</ele>
        <time>2021-04-18T08:51:44Z</time>
      </trkpt>
      <trkpt lat="37.3422390" lon="-2.5116230">
        <ele>850.0</ele>
        <time>2021-04-18T08:51:45Z</time>
      </trkpt>
      <trkpt lat="37.3422550" lon="-2.5116440">
        <ele>850.2</ele>
        <time>2021-04-18T08:51:46Z</time>
      </trkpt>
      <trkpt lat="37.3422650" lon="-2.5116560">
        <ele>850.4</ele>
        <time>2021-04-18T08:51:47Z</time>
      </trkpt>
      <trkpt lat="37.3422700" lon="-2.5116830">
        <ele>850.4</ele>
        <time>2021-04-18T08:51:48Z</time>
      </trkpt>
      <trkpt lat="37.3422750" lon="-2.5117120">
        <ele>850.6</ele>
        <time>2021-04-18T08:51:49Z</time>
      </trkpt>
      <trkpt lat="37.3422750" lon="-2.5117360">
        <ele>850.8</ele>
        <time>2021-04-18T08:51:50Z</time>
      </trkpt>
      <trkpt lat="37.3422670" lon="-2.5117640">
        <ele>850.8</ele>
        <time>2021-04-18T08:51:51Z</time>
      </trkpt>
      <trkpt lat="37.3422520" lon="-2.5117770">
        <ele>851.0</ele>
        <time>2021-04-18T08:51:52Z</time>
      </trkpt>
      <trkpt lat="37.3422340" lon="-2.5117960">
        <ele>851.2</ele>
        <time>2021-04-18T08:51:53Z</time>
      </trkpt>
      <trkpt lat="37.3422170" lon="-2.5118120">
        <ele>851.4</ele>
        <time>2021-04-18T08:51:54Z</time>
      </trkpt>
      <trkpt lat="37.3421920" lon="-2.5118350">
        <ele>851.4</ele>
        <time>2021-04-18T08:51:55Z</time>
      </trkpt>
      <trkpt lat="37.3421650" lon="-2.5118470">
        <ele>851.6</ele>
        <time>2021-04-18T08:51:56Z</time>
      </trkpt>
      <trkpt lat="37.3421400" lon="-2.5118590">
        <ele>851.8</ele>
        <time>2021-04-18T08:51:57Z</time>
      </trkpt>
      <trkpt lat="37.3421160" lon="-2.5118720">
        <ele>851.8</ele>
        <time>2021-04-18T08:51:58Z</time>
      </trkpt>
      <trkpt lat="37.3420910" lon="-2.5118980">
        <ele>851.8</ele>
        <time>2021-04-18T08:51:59Z</time>
      </trkpt>
      <trkpt lat="37.3420630" lon="-2.5119230">
        <ele>851.8</ele>
        <time>2021-04-18T08:52:00Z</time>
      </trkpt>
      <trkpt lat="37.3420370" lon="-2.5119670">
        <ele>852.0</ele>
        <time>2021-04-18T08:52:01Z</time>
      </trkpt>
      <trkpt lat="37.3420070" lon="-2.5120200">
        <ele>852.2</ele>
        <time>2021-04-18T08:52:02Z</time>
      </trkpt>
      <trkpt lat="37.3419920" lon="-2.5120630">
        <ele>852.2</ele>
        <time>2021-04-18T08:52:03Z</time>
      </trkpt>
      <trkpt lat="37.3419730" lon="-2.5120900">
        <ele>852.2</ele>
        <time>2021-04-18T08:52:04Z</time>
      </trkpt>
      <trkpt lat="37.3419620" lon="-2.5121200">
        <ele>852.2</ele>
        <time>2021-04-18T08:52:05Z</time>
      </trkpt>
      <trkpt lat="37.3419540" lon="-2.5121460">
        <ele>852.4</ele>
        <time>2021-04-18T08:52:06Z</time>
      </trkpt>
      <trkpt lat="37.3419480" lon="-2.5121530">
        <ele>852.4</ele>
        <time>2021-04-18T08:52:07Z</time>
      </trkpt>
      <trkpt lat="37.3419420" lon="-2.5121750">
        <ele>852.4</ele>
        <time>2021-04-18T08:52:08Z</time>
      </trkpt>
      <trkpt lat="37.3419380" lon="-2.5122050">
        <ele>852.6</ele>
        <time>2021-04-18T08:52:09Z</time>
      </trkpt>
      <trkpt lat="37.3419300" lon="-2.5122390">
        <ele>852.6</ele>
        <time>2021-04-18T08:52:10Z</time>
      </trkpt>
      <trkpt lat="37.3419160" lon="-2.5122640">
        <ele>852.6</ele>
        <time>2021-04-18T08:52:11Z</time>
      </trkpt>
      <trkpt lat="37.3419120" lon="-2.5123010">
        <ele>852.6</ele>
        <time>2021-04-18T08:52:12Z</time>
      </trkpt>
      <trkpt lat="37.3419080" lon="-2.5123340">
        <ele>853.0</ele>
        <time>2021-04-18T08:52:13Z</time>
      </trkpt>
      <trkpt lat="37.3418910" lon="-2.5123620">
        <ele>853.2</ele>
        <time>2021-04-18T08:52:14Z</time>
      </trkpt>
      <trkpt lat="37.3418750" lon="-2.5123880">
        <ele>853.4</ele>
        <time>2021-04-18T08:52:15Z</time>
      </trkpt>
      <trkpt lat="37.3418610" lon="-2.5124210">
        <ele>853.6</ele>
        <time>2021-04-18T08:52:16Z</time>
      </trkpt>
      <trkpt lat="37.3418440" lon="-2.5124500">
        <ele>853.6</ele>
        <time>2021-04-18T08:52:17Z</time>
      </trkpt>
      <trkpt lat="37.3418280" lon="-2.5124820">
        <ele>854.2</ele>
        <time>2021-04-18T08:52:18Z</time>
      </trkpt>
      <trkpt lat="37.3418160" lon="-2.5125080">
        <ele>854.2</ele>
        <time>2021-04-18T08:52:19Z</time>
      </trkpt>
      <trkpt lat="37.3418030" lon="-2.5125460">
        <ele>854.4</ele>
        <time>2021-04-18T08:52:20Z</time>
      </trkpt>
      <trkpt lat="37.3417960" lon="-2.5125710">
        <ele>854.6</ele>
        <time>2021-04-18T08:52:21Z</time>
      </trkpt>
      <trkpt lat="37.3417820" lon="-2.5126050">
        <ele>854.6</ele>
        <time>2021-04-18T08:52:22Z</time>
      </trkpt>
      <trkpt lat="37.3417830" lon="-2.5126340">
        <ele>854.8</ele>
        <time>2021-04-18T08:52:23Z</time>
      </trkpt>
      <trkpt lat="37.3417830" lon="-2.5126630">
        <ele>854.8</ele>
        <time>2021-04-18T08:52:24Z</time>
      </trkpt>
      <trkpt lat="37.3417730" lon="-2.5126940">
        <ele>855.0</ele>
        <time>2021-04-18T08:52:25Z</time>
      </trkpt>
      <trkpt lat="37.3417610" lon="-2.5127230">
        <ele>855.2</ele>
        <time>2021-04-18T08:52:26Z</time>
      </trkpt>
      <trkpt lat="37.3417580" lon="-2.5127640">
        <ele>855.2</ele>
        <time>2021-04-18T08:52:27Z</time>
      </trkpt>
      <trkpt lat="37.3417500" lon="-2.5127990">
        <ele>855.4</ele>
        <time>2021-04-18T08:52:28Z</time>
      </trkpt>
      <trkpt lat="37.3417400" lon="-2.5128270">
        <ele>855.4</ele>
        <time>2021-04-18T08:52:29Z</time>
      </trkpt>
      <trkpt lat="37.3417170" lon="-2.5128470">
        <ele>855.6</ele>
        <time>2021-04-18T08:52:30Z</time>
      </trkpt>
      <trkpt lat="37.3417000" lon="-2.5128710">
        <ele>855.6</ele>
        <time>2021-04-18T08:52:31Z</time>
      </trkpt>
      <trkpt lat="37.3417000" lon="-2.5128940">
        <ele>855.8</ele>
        <time>2021-04-18T08:52:32Z</time>
      </trkpt>
      <trkpt lat="37.3416900" lon="-2.5129180">
        <ele>855.8</ele>
        <time>2021-04-18T08:52:33Z</time>
      </trkpt>
      <trkpt lat="37.3416800" lon="-2.5129370">
        <ele>855.8</ele>
        <time>2021-04-18T08:52:34Z</time>
      </trkpt>
      <trkpt lat="37.3416660" lon="-2.5129640">
        <ele>856.0</ele>
        <time>2021-04-18T08:52:35Z</time>
      </trkpt>
      <trkpt lat="37.3416510" lon="-2.5129950">
        <ele>856.0</ele>
        <time>2021-04-18T08:52:36Z</time>
      </trkpt>
      <trkpt lat="37.3416340" lon="-2.5130190">
        <ele>856.0</ele>
        <time>2021-04-18T08:52:37Z</time>
      </trkpt>
      <trkpt lat="37.3416190" lon="-2.5130440">
        <ele>856.0</ele>
        <time>2021-04-18T08:52:38Z</time>
      </trkpt>
      <trkpt lat="37.3416000" lon="-2.5130700">
        <ele>856.2</ele>
        <time>2021-04-18T08:52:39Z</time>
      </trkpt>
      <trkpt lat="37.3415760" lon="-2.5130900">
        <ele>856.4</ele>
        <time>2021-04-18T08:52:40Z</time>
      </trkpt>
      <trkpt lat="37.3415560" lon="-2.5131110">
        <ele>856.4</ele>
        <time>2021-04-18T08:52:41Z</time>
      </trkpt>
      <trkpt lat="37.3415360" lon="-2.5131340">
        <ele>856.4</ele>
        <time>2021-04-18T08:52:42Z</time>
      </trkpt>
      <trkpt lat="37.3415120" lon="-2.5131450">
        <ele>856.6</ele>
        <time>2021-04-18T08:52:43Z</time>
      </trkpt>
      <trkpt lat="37.3414890" lon="-2.5131620">
        <ele>856.6</ele>
        <time>2021-04-18T08:52:44Z</time>
      </trkpt>
      <trkpt lat="37.3414700" lon="-2.5131840">
        <ele>856.8</ele>
        <time>2021-04-18T08:52:45Z</time>
      </trkpt>
      <trkpt lat="37.3414530" lon="-2.5132090">
        <ele>856.8</ele>
        <time>2021-04-18T08:52:46Z</time>
      </trkpt>
      <trkpt lat="37.3413790" lon="-2.5133200">
        <ele>857.2</ele>
        <time>2021-04-18T08:52:50Z</time>
      </trkpt>
      <trkpt lat="37.3412960" lon="-2.5134940">
        <ele>857.6</ele>
        <time>2021-04-18T08:52:56Z</time>
      </trkpt>
      <trkpt lat="37.3412860" lon="-2.5135170">
        <ele>857.6</ele>
        <time>2021-04-18T08:52:57Z</time>
      </trkpt>
      <trkpt lat="37.3412630" lon="-2.5135770">
        <ele>857.8</ele>
        <time>2021-04-18T08:52:59Z</time>
      </trkpt>
      <trkpt lat="37.3412450" lon="-2.5136040">
        <ele>858.0</ele>
        <time>2021-04-18T08:53:00Z</time>
      </trkpt>
      <trkpt lat="37.3412110" lon="-2.5136600">
        <ele>858.2</ele>
        <time>2021-04-18T08:53:02Z</time>
      </trkpt>
      <trkpt lat="37.3411810" lon="-2.5137150">
        <ele>858.2</ele>
        <time>2021-04-18T08:53:04Z</time>
      </trkpt>
      <trkpt lat="37.3411460" lon="-2.5137990">
        <ele>858.4</ele>
        <time>2021-04-18T08:53:07Z</time>
      </trkpt>
      <trkpt lat="37.3411070" lon="-2.5138800">
        <ele>858.6</ele>
        <time>2021-04-18T08:53:10Z</time>
      </trkpt>
      <trkpt lat="37.3410940" lon="-2.5139070">
        <ele>858.6</ele>
        <time>2021-04-18T08:53:11Z</time>
      </trkpt>
      <trkpt lat="37.3410800" lon="-2.5139330">
        <ele>858.8</ele>
        <time>2021-04-18T08:53:12Z</time>
      </trkpt>
      <trkpt lat="37.3410670" lon="-2.5139580">
        <ele>859.0</ele>
        <time>2021-04-18T08:53:13Z</time>
      </trkpt>
      <trkpt lat="37.3410530" lon="-2.5139860">
        <ele>859.0</ele>
        <time>2021-04-18T08:53:14Z</time>
      </trkpt>
      <trkpt lat="37.3410310" lon="-2.5140410">
        <ele>859.2</ele>
        <time>2021-04-18T08:53:16Z</time>
      </trkpt>
      <trkpt lat="37.3410160" lon="-2.5140980">
        <ele>859.4</ele>
        <time>2021-04-18T08:53:18Z</time>
      </trkpt>
      <trkpt lat="37.3409980" lon="-2.5141500">
        <ele>859.6</ele>
        <time>2021-04-18T08:53:20Z</time>
      </trkpt>
      <trkpt lat="37.3409860" lon="-2.5141730">
        <ele>859.6</ele>
        <time>2021-04-18T08:53:21Z</time>
      </trkpt>
      <trkpt lat="37.3409720" lon="-2.5141960">
        <ele>859.8</ele>
        <time>2021-04-18T08:53:22Z</time>
      </trkpt>
      <trkpt lat="37.3409590" lon="-2.5142210">
        <ele>859.8</ele>
        <time>2021-04-18T08:53:23Z</time>
      </trkpt>
      <trkpt lat="37.3409470" lon="-2.5142500">
        <ele>860.0</ele>
        <time>2021-04-18T08:53:24Z</time>
      </trkpt>
      <trkpt lat="37.3409330" lon="-2.5142760">
        <ele>860.0</ele>
        <time>2021-04-18T08:53:25Z</time>
      </trkpt>
      <trkpt lat="37.3408020" lon="-2.5144550">
        <ele>861.2</ele>
        <time>2021-04-18T08:53:33Z</time>
      </trkpt>
      <trkpt lat="37.3407570" lon="-2.5145270">
        <ele>861.4</ele>
        <time>2021-04-18T08:53:36Z</time>
      </trkpt>
      <trkpt lat="37.3407410" lon="-2.5145520">
        <ele>861.4</ele>
        <time>2021-04-18T08:53:37Z</time>
      </trkpt>
      <trkpt lat="37.3407260" lon="-2.5145770">
        <ele>861.6</ele>
        <time>2021-04-18T08:53:38Z</time>
      </trkpt>
      <trkpt lat="37.3407150" lon="-2.5146020">
        <ele>861.8</ele>
        <time>2021-04-18T08:53:39Z</time>
      </trkpt>
      <trkpt lat="37.3407040" lon="-2.5146270">
        <ele>861.8</ele>
        <time>2021-04-18T08:53:40Z</time>
      </trkpt>
      <trkpt lat="37.3406930" lon="-2.5146530">
        <ele>862.0</ele>
        <time>2021-04-18T08:53:41Z</time>
      </trkpt>
      <trkpt lat="37.3406820" lon="-2.5146840">
        <ele>861.8</ele>
        <time>2021-04-18T08:53:42Z</time>
      </trkpt>
      <trkpt lat="37.3406760" lon="-2.5147040">
        <ele>862.0</ele>
        <time>2021-04-18T08:53:43Z</time>
      </trkpt>
      <trkpt lat="37.3406670" lon="-2.5147310">
        <ele>862.2</ele>
        <time>2021-04-18T08:53:44Z</time>
      </trkpt>
      <trkpt lat="37.3406570" lon="-2.5147590">
        <ele>862.4</ele>
        <time>2021-04-18T08:53:45Z</time>
      </trkpt>
      <trkpt lat="37.3406480" lon="-2.5147840">
        <ele>862.6</ele>
        <time>2021-04-18T08:53:46Z</time>
      </trkpt>
      <trkpt lat="37.3406390" lon="-2.5148110">
        <ele>862.8</ele>
        <time>2021-04-18T08:53:47Z</time>
      </trkpt>
      <trkpt lat="37.3406290" lon="-2.5148360">
        <ele>863.0</ele>
        <time>2021-04-18T08:53:48Z</time>
      </trkpt>
      <trkpt lat="37.3406160" lon="-2.5148600">
        <ele>863.2</ele>
        <time>2021-04-18T08:53:49Z</time>
      </trkpt>
      <trkpt lat="37.3406020" lon="-2.5148820">
        <ele>863.4</ele>
        <time>2021-04-18T08:53:50Z</time>
      </trkpt>
      <trkpt lat="37.3405870" lon="-2.5149020">
        <ele>863.6</ele>
        <time>2021-04-18T08:53:51Z</time>
      </trkpt>
      <trkpt lat="37.3405740" lon="-2.5149230">
        <ele>863.8</ele>
        <time>2021-04-18T08:53:52Z</time>
      </trkpt>
      <trkpt lat="37.3405640" lon="-2.5149440">
        <ele>864.0</ele>
        <time>2021-04-18T08:53:53Z</time>
      </trkpt>
      <trkpt lat="37.3405530" lon="-2.5149640">
        <ele>864.2</ele>
        <time>2021-04-18T08:53:54Z</time>
      </trkpt>
      <trkpt lat="37.3405380" lon="-2.5149830">
        <ele>864.6</ele>
        <time>2021-04-18T08:53:55Z</time>
      </trkpt>
      <trkpt lat="37.3405230" lon="-2.5150010">
        <ele>864.8</ele>
        <time>2021-04-18T08:53:56Z</time>
      </trkpt>
      <trkpt lat="37.3405090" lon="-2.5150200">
        <ele>865.0</ele>
        <time>2021-04-18T08:53:57Z</time>
      </trkpt>
      <trkpt lat="37.3404960" lon="-2.5150380">
        <ele>865.0</ele>
        <time>2021-04-18T08:53:58Z</time>
      </trkpt>
      <trkpt lat="37.3404820" lon="-2.5150580">
        <ele>865.2</ele>
        <time>2021-04-18T08:53:59Z</time>
      </trkpt>
      <trkpt lat="37.3404690" lon="-2.5150780">
        <ele>865.2</ele>
        <time>2021-04-18T08:54:00Z</time>
      </trkpt>
      <trkpt lat="37.3404520" lon="-2.5150970">
        <ele>865.2</ele>
        <time>2021-04-18T08:54:01Z</time>
      </trkpt>
      <trkpt lat="37.3404340" lon="-2.5151100">
        <ele>865.4</ele>
        <time>2021-04-18T08:54:02Z</time>
      </trkpt>
      <trkpt lat="37.3404140" lon="-2.5151250">
        <ele>865.4</ele>
        <time>2021-04-18T08:54:03Z</time>
      </trkpt>
      <trkpt lat="37.3403940" lon="-2.5151340">
        <ele>865.6</ele>
        <time>2021-04-18T08:54:04Z</time>
      </trkpt>
      <trkpt lat="37.3403750" lon="-2.5151420">
        <ele>865.6</ele>
        <time>2021-04-18T08:54:05Z</time>
      </trkpt>
      <trkpt lat="37.3403570" lon="-2.5151520">
        <ele>865.6</ele>
        <time>2021-04-18T08:54:06Z</time>
      </trkpt>
      <trkpt lat="37.3403340" lon="-2.5151640">
        <ele>865.8</ele>
        <time>2021-04-18T08:54:07Z</time>
      </trkpt>
      <trkpt lat="37.3403150" lon="-2.5151750">
        <ele>866.0</ele>
        <time>2021-04-18T08:54:08Z</time>
      </trkpt>
      <trkpt lat="37.3402950" lon="-2.5151840">
        <ele>866.2</ele>
        <time>2021-04-18T08:54:09Z</time>
      </trkpt>
      <trkpt lat="37.3402770" lon="-2.5151950">
        <ele>866.4</ele>
        <time>2021-04-18T08:54:10Z</time>
      </trkpt>
      <trkpt lat="37.3402570" lon="-2.5152020">
        <ele>866.6</ele>
        <time>2021-04-18T08:54:11Z</time>
      </trkpt>
      <trkpt lat="37.3402350" lon="-2.5152080">
        <ele>866.8</ele>
        <time>2021-04-18T08:54:12Z</time>
      </trkpt>
      <trkpt lat="37.3402150" lon="-2.5152140">
        <ele>866.8</ele>
        <time>2021-04-18T08:54:13Z</time>
      </trkpt>
      <trkpt lat="37.3401960" lon="-2.5152210">
        <ele>867.2</ele>
        <time>2021-04-18T08:54:14Z</time>
      </trkpt>
      <trkpt lat="37.3401760" lon="-2.5152290">
        <ele>867.4</ele>
        <time>2021-04-18T08:54:15Z</time>
      </trkpt>
      <trkpt lat="37.3401610" lon="-2.5152360">
        <ele>867.4</ele>
        <time>2021-04-18T08:54:16Z</time>
      </trkpt>
      <trkpt lat="37.3401410" lon="-2.5152470">
        <ele>867.6</ele>
        <time>2021-04-18T08:54:17Z</time>
      </trkpt>
      <trkpt lat="37.3401150" lon="-2.5152620">
        <ele>867.6</ele>
        <time>2021-04-18T08:54:18Z</time>
      </trkpt>
      <trkpt lat="37.3400950" lon="-2.5152730">
        <ele>867.8</ele>
        <time>2021-04-18T08:54:19Z</time>
      </trkpt>
      <trkpt lat="37.3400800" lon="-2.5152840">
        <ele>867.8</ele>
        <time>2021-04-18T08:54:20Z</time>
      </trkpt>
      <trkpt lat="37.3400630" lon="-2.5152930">
        <ele>868.0</ele>
        <time>2021-04-18T08:54:21Z</time>
      </trkpt>
      <trkpt lat="37.3400460" lon="-2.5153030">
        <ele>868.0</ele>
        <time>2021-04-18T08:54:22Z</time>
      </trkpt>
      <trkpt lat="37.3400260" lon="-2.5153190">
        <ele>868.2</ele>
        <time>2021-04-18T08:54:23Z</time>
      </trkpt>
      <trkpt lat="37.3400080" lon="-2.5153300">
        <ele>868.4</ele>
        <time>2021-04-18T08:54:24Z</time>
      </trkpt>
      <trkpt lat="37.3399890" lon="-2.5153410">
        <ele>868.4</ele>
        <time>2021-04-18T08:54:25Z</time>
      </trkpt>
      <trkpt lat="37.3399700" lon="-2.5153510">
        <ele>868.8</ele>
        <time>2021-04-18T08:54:26Z</time>
      </trkpt>
      <trkpt lat="37.3399560" lon="-2.5153580">
        <ele>869.0</ele>
        <time>2021-04-18T08:54:27Z</time>
      </trkpt>
      <trkpt lat="37.3399320" lon="-2.5153660">
        <ele>869.2</ele>
        <time>2021-04-18T08:54:28Z</time>
      </trkpt>
      <trkpt lat="37.3399120" lon="-2.5153710">
        <ele>869.6</ele>
        <time>2021-04-18T08:54:29Z</time>
      </trkpt>
      <trkpt lat="37.3398950" lon="-2.5153770">
        <ele>869.6</ele>
        <time>2021-04-18T08:54:30Z</time>
      </trkpt>
      <trkpt lat="37.3398810" lon="-2.5153830">
        <ele>870.0</ele>
        <time>2021-04-18T08:54:31Z</time>
      </trkpt>
      <trkpt lat="37.3398600" lon="-2.5153970">
        <ele>870.0</ele>
        <time>2021-04-18T08:54:32Z</time>
      </trkpt>
      <trkpt lat="37.3398360" lon="-2.5154060">
        <ele>870.2</ele>
        <time>2021-04-18T08:54:33Z</time>
      </trkpt>
      <trkpt lat="37.3398180" lon="-2.5154100">
        <ele>870.4</ele>
        <time>2021-04-18T08:54:34Z</time>
      </trkpt>
      <trkpt lat="37.3397990" lon="-2.5154140">
        <ele>870.6</ele>
        <time>2021-04-18T08:54:35Z</time>
      </trkpt>
      <trkpt lat="37.3397830" lon="-2.5154180">
        <ele>870.8</ele>
        <time>2021-04-18T08:54:36Z</time>
      </trkpt>
      <trkpt lat="37.3397610" lon="-2.5154220">
        <ele>870.8</ele>
        <time>2021-04-18T08:54:37Z</time>
      </trkpt>
      <trkpt lat="37.3397330" lon="-2.5154240">
        <ele>871.2</ele>
        <time>2021-04-18T08:54:38Z</time>
      </trkpt>
      <trkpt lat="37.3397150" lon="-2.5154230">
        <ele>871.4</ele>
        <time>2021-04-18T08:54:39Z</time>
      </trkpt>
      <trkpt lat="37.3396920" lon="-2.5154220">
        <ele>871.4</ele>
        <time>2021-04-18T08:54:40Z</time>
      </trkpt>
      <trkpt lat="37.3396700" lon="-2.5154180">
        <ele>871.6</ele>
        <time>2021-04-18T08:54:41Z</time>
      </trkpt>
      <trkpt lat="37.3396450" lon="-2.5154180">
        <ele>871.8</ele>
        <time>2021-04-18T08:54:42Z</time>
      </trkpt>
      <trkpt lat="37.3396220" lon="-2.5154170">
        <ele>872.2</ele>
        <time>2021-04-18T08:54:43Z</time>
      </trkpt>
      <trkpt lat="37.3395990" lon="-2.5154130">
        <ele>872.2</ele>
        <time>2021-04-18T08:54:44Z</time>
      </trkpt>
      <trkpt lat="37.3395760" lon="-2.5154040">
        <ele>872.8</ele>
        <time>2021-04-18T08:54:45Z</time>
      </trkpt>
      <trkpt lat="37.3395540" lon="-2.5153900">
        <ele>873.2</ele>
        <time>2021-04-18T08:54:46Z</time>
      </trkpt>
      <trkpt lat="37.3395350" lon="-2.5153700">
        <ele>873.2</ele>
        <time>2021-04-18T08:54:47Z</time>
      </trkpt>
      <trkpt lat="37.3395190" lon="-2.5153430">
        <ele>873.4</ele>
        <time>2021-04-18T08:54:48Z</time>
      </trkpt>
      <trkpt lat="37.3395020" lon="-2.5153140">
        <ele>873.6</ele>
        <time>2021-04-18T08:54:49Z</time>
      </trkpt>
      <trkpt lat="37.3394830" lon="-2.5152870">
        <ele>874.0</ele>
        <time>2021-04-18T08:54:50Z</time>
      </trkpt>
      <trkpt lat="37.3394620" lon="-2.5152630">
        <ele>874.0</ele>
        <time>2021-04-18T08:54:51Z</time>
      </trkpt>
      <trkpt lat="37.3394400" lon="-2.5152400">
        <ele>874.6</ele>
        <time>2021-04-18T08:54:52Z</time>
      </trkpt>
      <trkpt lat="37.3394200" lon="-2.5152200">
        <ele>874.8</ele>
        <time>2021-04-18T08:54:53Z</time>
      </trkpt>
      <trkpt lat="37.3393990" lon="-2.5152010">
        <ele>874.8</ele>
        <time>2021-04-18T08:54:54Z</time>
      </trkpt>
      <trkpt lat="37.3393760" lon="-2.5151810">
        <ele>875.0</ele>
        <time>2021-04-18T08:54:55Z</time>
      </trkpt>
      <trkpt lat="37.3393530" lon="-2.5151620">
        <ele>875.2</ele>
        <time>2021-04-18T08:54:56Z</time>
      </trkpt>
      <trkpt lat="37.3393320" lon="-2.5151440">
        <ele>875.4</ele>
        <time>2021-04-18T08:54:57Z</time>
      </trkpt>
      <trkpt lat="37.3393120" lon="-2.5151260">
        <ele>875.8</ele>
        <time>2021-04-18T08:54:58Z</time>
      </trkpt>
      <trkpt lat="37.3392940" lon="-2.5151080">
        <ele>875.8</ele>
        <time>2021-04-18T08:54:59Z</time>
      </trkpt>
      <trkpt lat="37.3392740" lon="-2.5150930">
        <ele>876.2</ele>
        <time>2021-04-18T08:55:00Z</time>
      </trkpt>
      <trkpt lat="37.3392510" lon="-2.5150780">
        <ele>876.4</ele>
        <time>2021-04-18T08:55:01Z</time>
      </trkpt>
      <trkpt lat="37.3392260" lon="-2.5150650">
        <ele>876.6</ele>
        <time>2021-04-18T08:55:02Z</time>
      </trkpt>
      <trkpt lat="37.3392010" lon="-2.5150560">
        <ele>876.8</ele>
        <time>2021-04-18T08:55:03Z</time>
      </trkpt>
      <trkpt lat="37.3391730" lon="-2.5150500">
        <ele>877.2</ele>
        <time>2021-04-18T08:55:04Z</time>
      </trkpt>
      <trkpt lat="37.3391460" lon="-2.5150420">
        <ele>877.4</ele>
        <time>2021-04-18T08:55:05Z</time>
      </trkpt>
      <trkpt lat="37.3391200" lon="-2.5150310">
        <ele>877.6</ele>
        <time>2021-04-18T08:55:06Z</time>
      </trkpt>
      <trkpt lat="37.3390930" lon="-2.5150200">
        <ele>877.8</ele>
        <time>2021-04-18T08:55:07Z</time>
      </trkpt>
      <trkpt lat="37.3390650" lon="-2.5150080">
        <ele>877.8</ele>
        <time>2021-04-18T08:55:08Z</time>
      </trkpt>
      <trkpt lat="37.3390380" lon="-2.5149950">
        <ele>878.0</ele>
        <time>2021-04-18T08:55:09Z</time>
      </trkpt>
      <trkpt lat="37.3390110" lon="-2.5149780">
        <ele>878.2</ele>
        <time>2021-04-18T08:55:10Z</time>
      </trkpt>
      <trkpt lat="37.3389880" lon="-2.5149530">
        <ele>878.2</ele>
        <time>2021-04-18T08:55:11Z</time>
      </trkpt>
      <trkpt lat="37.3389700" lon="-2.5149230">
        <ele>878.4</ele>
        <time>2021-04-18T08:55:12Z</time>
      </trkpt>
      <trkpt lat="37.3389560" lon="-2.5148880">
        <ele>878.6</ele>
        <time>2021-04-18T08:55:13Z</time>
      </trkpt>
      <trkpt lat="37.3389430" lon="-2.5148490">
        <ele>878.8</ele>
        <time>2021-04-18T08:55:14Z</time>
      </trkpt>
      <trkpt lat="37.3389320" lon="-2.5148090">
        <ele>878.8</ele>
        <time>2021-04-18T08:55:15Z</time>
      </trkpt>
      <trkpt lat="37.3389230" lon="-2.5147700">
        <ele>879.0</ele>
        <time>2021-04-18T08:55:16Z</time>
      </trkpt>
      <trkpt lat="37.3389120" lon="-2.5147290">
        <ele>879.0</ele>
        <time>2021-04-18T08:55:17Z</time>
      </trkpt>
      <trkpt lat="37.3388970" lon="-2.5146870">
        <ele>879.0</ele>
        <time>2021-04-18T08:55:18Z</time>
      </trkpt>
      <trkpt lat="37.3388780" lon="-2.5146490">
        <ele>879.2</ele>
        <time>2021-04-18T08:55:19Z</time>
      </trkpt>
      <trkpt lat="37.3388540" lon="-2.5146100">
        <ele>879.2</ele>
        <time>2021-04-18T08:55:20Z</time>
      </trkpt>
      <trkpt lat="37.3388280" lon="-2.5145780">
        <ele>879.2</ele>
        <time>2021-04-18T08:55:21Z</time>
      </trkpt>
      <trkpt lat="37.3387980" lon="-2.5145520">
        <ele>879.2</ele>
        <time>2021-04-18T08:55:22Z</time>
      </trkpt>
      <trkpt lat="37.3387690" lon="-2.5145260">
        <ele>879.4</ele>
        <time>2021-04-18T08:55:23Z</time>
      </trkpt>
      <trkpt lat="37.3387380" lon="-2.5145040">
        <ele>879.4</ele>
        <time>2021-04-18T08:55:24Z</time>
      </trkpt>
      <trkpt lat="37.3387080" lon="-2.5144860">
        <ele>879.6</ele>
        <time>2021-04-18T08:55:25Z</time>
      </trkpt>
      <trkpt lat="37.3386770" lon="-2.5144690">
        <ele>879.6</ele>
        <time>2021-04-18T08:55:26Z</time>
      </trkpt>
      <trkpt lat="37.3386460" lon="-2.5144550">
        <ele>879.6</ele>
        <time>2021-04-18T08:55:27Z</time>
      </trkpt>
      <trkpt lat="37.3386180" lon="-2.5144400">
        <ele>879.6</ele>
        <time>2021-04-18T08:55:28Z</time>
      </trkpt>
      <trkpt lat="37.3385880" lon="-2.5144270">
        <ele>879.6</ele>
        <time>2021-04-18T08:55:29Z</time>
      </trkpt>
      <trkpt lat="37.3385600" lon="-2.5144130">
        <ele>879.8</ele>
        <time>2021-04-18T08:55:30Z</time>
      </trkpt>
      <trkpt lat="37.3385340" lon="-2.5143960">
        <ele>879.8</ele>
        <time>2021-04-18T08:55:31Z</time>
      </trkpt>
      <trkpt lat="37.3385110" lon="-2.5143790">
        <ele>879.8</ele>
        <time>2021-04-18T08:55:32Z</time>
      </trkpt>
      <trkpt lat="37.3384910" lon="-2.5143620">
        <ele>880.0</ele>
        <time>2021-04-18T08:55:33Z</time>
      </trkpt>
      <trkpt lat="37.3384750" lon="-2.5143410">
        <ele>880.0</ele>
        <time>2021-04-18T08:55:34Z</time>
      </trkpt>
      <trkpt lat="37.3384590" lon="-2.5143140">
        <ele>880.2</ele>
        <time>2021-04-18T08:55:35Z</time>
      </trkpt>
      <trkpt lat="37.3384460" lon="-2.5142820">
        <ele>880.4</ele>
        <time>2021-04-18T08:55:36Z</time>
      </trkpt>
      <trkpt lat="37.3384380" lon="-2.5142440">
        <ele>880.4</ele>
        <time>2021-04-18T08:55:37Z</time>
      </trkpt>
      <trkpt lat="37.3384390" lon="-2.5142040">
        <ele>880.6</ele>
        <time>2021-04-18T08:55:38Z</time>
      </trkpt>
      <trkpt lat="37.3384470" lon="-2.5141680">
        <ele>880.6</ele>
        <time>2021-04-18T08:55:39Z</time>
      </trkpt>
      <trkpt lat="37.3384610" lon="-2.5141320">
        <ele>880.8</ele>
        <time>2021-04-18T08:55:40Z</time>
      </trkpt>
      <trkpt lat="37.3384710" lon="-2.5141060">
        <ele>881.0</ele>
        <time>2021-04-18T08:55:41Z</time>
      </trkpt>
      <trkpt lat="37.3384850" lon="-2.5140720">
        <ele>881.2</ele>
        <time>2021-04-18T08:55:42Z</time>
      </trkpt>
      <trkpt lat="37.3385740" lon="-2.5139720">
        <ele>881.6</ele>
        <time>2021-04-18T08:55:46Z</time>
      </trkpt>
      <trkpt lat="37.3386060" lon="-2.5139640">
        <ele>882.0</ele>
        <time>2021-04-18T08:55:47Z</time>
      </trkpt>
      <trkpt lat="37.3386400" lon="-2.5139580">
        <ele>882.2</ele>
        <time>2021-04-18T08:55:48Z</time>
      </trkpt>
      <trkpt lat="37.3386740" lon="-2.5139590">
        <ele>882.4</ele>
        <time>2021-04-18T08:55:49Z</time>
      </trkpt>
      <trkpt lat="37.3387070" lon="-2.5139610">
        <ele>882.6</ele>
        <time>2021-04-18T08:55:50Z</time>
      </trkpt>
      <trkpt lat="37.3387390" lon="-2.5139660">
        <ele>882.6</ele>
        <time>2021-04-18T08:55:51Z</time>
      </trkpt>
      <trkpt lat="37.3387700" lon="-2.5139690">
        <ele>882.8</ele>
        <time>2021-04-18T08:55:52Z</time>
      </trkpt>
      <trkpt lat="37.3388010" lon="-2.5139750">
        <ele>883.0</ele>
        <time>2021-04-18T08:55:53Z</time>
      </trkpt>
      <trkpt lat="37.3388320" lon="-2.5139840">
        <ele>883.0</ele>
        <time>2021-04-18T08:55:54Z</time>
      </trkpt>
      <trkpt lat="37.3388690" lon="-2.5139880">
        <ele>883.2</ele>
        <time>2021-04-18T08:55:55Z</time>
      </trkpt>
      <trkpt lat="37.3389020" lon="-2.5139890">
        <ele>883.2</ele>
        <time>2021-04-18T08:55:56Z</time>
      </trkpt>
      <trkpt lat="37.3389300" lon="-2.5139900">
        <ele>883.4</ele>
        <time>2021-04-18T08:55:57Z</time>
      </trkpt>
      <trkpt lat="37.3389670" lon="-2.5139880">
        <ele>883.6</ele>
        <time>2021-04-18T08:55:58Z</time>
      </trkpt>
      <trkpt lat="37.3390020" lon="-2.5139870">
        <ele>883.6</ele>
        <time>2021-04-18T08:55:59Z</time>
      </trkpt>
      <trkpt lat="37.3390440" lon="-2.5139820">
        <ele>883.8</ele>
        <time>2021-04-18T08:56:00Z</time>
      </trkpt>
      <trkpt lat="37.3390710" lon="-2.5139750">
        <ele>883.8</ele>
        <time>2021-04-18T08:56:01Z</time>
      </trkpt>
      <trkpt lat="37.3391020" lon="-2.5139590">
        <ele>884.0</ele>
        <time>2021-04-18T08:56:02Z</time>
      </trkpt>
      <trkpt lat="37.3391310" lon="-2.5139380">
        <ele>884.0</ele>
        <time>2021-04-18T08:56:03Z</time>
      </trkpt>
      <trkpt lat="37.3391580" lon="-2.5139060">
        <ele>884.4</ele>
        <time>2021-04-18T08:56:04Z</time>
      </trkpt>
      <trkpt lat="37.3391690" lon="-2.5138790">
        <ele>884.6</ele>
        <time>2021-04-18T08:56:05Z</time>
      </trkpt>
      <trkpt lat="37.3391760" lon="-2.5138420">
        <ele>884.6</ele>
        <time>2021-04-18T08:56:06Z</time>
      </trkpt>
      <trkpt lat="37.3391750" lon="-2.5138030">
        <ele>885.0</ele>
        <time>2021-04-18T08:56:07Z</time>
      </trkpt>
      <trkpt lat="37.3391700" lon="-2.5137650">
        <ele>885.0</ele>
        <time>2021-04-18T08:56:08Z</time>
      </trkpt>
      <trkpt lat="37.3391580" lon="-2.5137310">
        <ele>885.4</ele>
        <time>2021-04-18T08:56:09Z</time>
      </trkpt>
      <trkpt lat="37.3391410" lon="-2.5137000">
        <ele>885.2</ele>
        <time>2021-04-18T08:56:10Z</time>
      </trkpt>
      <trkpt lat="37.3391210" lon="-2.5136720">
        <ele>885.8</ele>
        <time>2021-04-18T08:56:11Z</time>
      </trkpt>
      <trkpt lat="37.3391020" lon="-2.5136450">
        <ele>886.0</ele>
        <time>2021-04-18T08:56:12Z</time>
      </trkpt>
      <trkpt lat="37.3390820" lon="-2.5136190">
        <ele>886.2</ele>
        <time>2021-04-18T08:56:13Z</time>
      </trkpt>
      <trkpt lat="37.3390600" lon="-2.5135940">
        <ele>886.4</ele>
        <time>2021-04-18T08:56:14Z</time>
      </trkpt>
      <trkpt lat="37.3390390" lon="-2.5135710">
        <ele>886.4</ele>
        <time>2021-04-18T08:56:15Z</time>
      </trkpt>
      <trkpt lat="37.3390180" lon="-2.5135480">
        <ele>886.8</ele>
        <time>2021-04-18T08:56:16Z</time>
      </trkpt>
      <trkpt lat="37.3389970" lon="-2.5135240">
        <ele>887.0</ele>
        <time>2021-04-18T08:56:17Z</time>
      </trkpt>
      <trkpt lat="37.3389770" lon="-2.5134990">
        <ele>887.0</ele>
        <time>2021-04-18T08:56:18Z</time>
      </trkpt>
      <trkpt lat="37.3389550" lon="-2.5134740">
        <ele>887.2</ele>
        <time>2021-04-18T08:56:19Z</time>
      </trkpt>
      <trkpt lat="37.3389340" lon="-2.5134460">
        <ele>887.2</ele>
        <time>2021-04-18T08:56:20Z</time>
      </trkpt>
      <trkpt lat="37.3389130" lon="-2.5134190">
        <ele>887.2</ele>
        <time>2021-04-18T08:56:21Z</time>
      </trkpt>
      <trkpt lat="37.3388920" lon="-2.5133930">
        <ele>887.4</ele>
        <time>2021-04-18T08:56:22Z</time>
      </trkpt>
      <trkpt lat="37.3388710" lon="-2.5133670">
        <ele>887.4</ele>
        <time>2021-04-18T08:56:23Z</time>
      </trkpt>
      <trkpt lat="37.3388480" lon="-2.5133410">
        <ele>887.6</ele>
        <time>2021-04-18T08:56:24Z</time>
      </trkpt>
      <trkpt lat="37.3388270" lon="-2.5133160">
        <ele>887.8</ele>
        <time>2021-04-18T08:56:25Z</time>
      </trkpt>
      <trkpt lat="37.3388040" lon="-2.5132890">
        <ele>887.8</ele>
        <time>2021-04-18T08:56:26Z</time>
      </trkpt>
      <trkpt lat="37.3387850" lon="-2.5132630">
        <ele>888.0</ele>
        <time>2021-04-18T08:56:27Z</time>
      </trkpt>
      <trkpt lat="37.3387700" lon="-2.5132350">
        <ele>888.2</ele>
        <time>2021-04-18T08:56:28Z</time>
      </trkpt>
      <trkpt lat="37.3387550" lon="-2.5132040">
        <ele>888.2</ele>
        <time>2021-04-18T08:56:29Z</time>
      </trkpt>
      <trkpt lat="37.3387450" lon="-2.5131720">
        <ele>888.4</ele>
        <time>2021-04-18T08:56:30Z</time>
      </trkpt>
      <trkpt lat="37.3387350" lon="-2.5131400">
        <ele>888.6</ele>
        <time>2021-04-18T08:56:31Z</time>
      </trkpt>
      <trkpt lat="37.3387300" lon="-2.5131070">
        <ele>888.8</ele>
        <time>2021-04-18T08:56:32Z</time>
      </trkpt>
      <trkpt lat="37.3387250" lon="-2.5130730">
        <ele>888.8</ele>
        <time>2021-04-18T08:56:33Z</time>
      </trkpt>
      <trkpt lat="37.3387200" lon="-2.5130370">
        <ele>889.0</ele>
        <time>2021-04-18T08:56:34Z</time>
      </trkpt>
      <trkpt lat="37.3387180" lon="-2.5130000">
        <ele>889.0</ele>
        <time>2021-04-18T08:56:35Z</time>
      </trkpt>
      <trkpt lat="37.3387200" lon="-2.5129630">
        <ele>889.0</ele>
        <time>2021-04-18T08:56:36Z</time>
      </trkpt>
      <trkpt lat="37.3387310" lon="-2.5129290">
        <ele>889.2</ele>
        <time>2021-04-18T08:56:37Z</time>
      </trkpt>
      <trkpt lat="37.3387410" lon="-2.5128940">
        <ele>889.4</ele>
        <time>2021-04-18T08:56:38Z</time>
      </trkpt>
      <trkpt lat="37.3387550" lon="-2.5128630">
        <ele>889.4</ele>
        <time>2021-04-18T08:56:39Z</time>
      </trkpt>
      <trkpt lat="37.3387730" lon="-2.5128350">
        <ele>889.6</ele>
        <time>2021-04-18T08:56:40Z</time>
      </trkpt>
      <trkpt lat="37.3387970" lon="-2.5128130">
        <ele>889.8</ele>
        <time>2021-04-18T08:56:41Z</time>
      </trkpt>
      <trkpt lat="37.3388240" lon="-2.5127920">
        <ele>890.0</ele>
        <time>2021-04-18T08:56:42Z</time>
      </trkpt>
      <trkpt lat="37.3388510" lon="-2.5127710">
        <ele>890.0</ele>
        <time>2021-04-18T08:56:43Z</time>
      </trkpt>
      <trkpt lat="37.3388750" lon="-2.5127490">
        <ele>890.0</ele>
        <time>2021-04-18T08:56:44Z</time>
      </trkpt>
      <trkpt lat="37.3389000" lon="-2.5127280">
        <ele>890.2</ele>
        <time>2021-04-18T08:56:45Z</time>
      </trkpt>
      <trkpt lat="37.3389240" lon="-2.5127110">
        <ele>890.2</ele>
        <time>2021-04-18T08:56:46Z</time>
      </trkpt>
      <trkpt lat="37.3389450" lon="-2.5126910">
        <ele>890.4</ele>
        <time>2021-04-18T08:56:47Z</time>
      </trkpt>
      <trkpt lat="37.3389660" lon="-2.5126710">
        <ele>890.6</ele>
        <time>2021-04-18T08:56:48Z</time>
      </trkpt>
      <trkpt lat="37.3389800" lon="-2.5126400">
        <ele>890.8</ele>
        <time>2021-04-18T08:56:49Z</time>
      </trkpt>
      <trkpt lat="37.3389940" lon="-2.5126080">
        <ele>890.8</ele>
        <time>2021-04-18T08:56:50Z</time>
      </trkpt>
      <trkpt lat="37.3390080" lon="-2.5125760">
        <ele>891.0</ele>
        <time>2021-04-18T08:56:51Z</time>
      </trkpt>
      <trkpt lat="37.3390170" lon="-2.5125440">
        <ele>891.4</ele>
        <time>2021-04-18T08:56:52Z</time>
      </trkpt>
      <trkpt lat="37.3390230" lon="-2.5125130">
        <ele>891.6</ele>
        <time>2021-04-18T08:56:53Z</time>
      </trkpt>
      <trkpt lat="37.3390280" lon="-2.5124820">
        <ele>891.8</ele>
        <time>2021-04-18T08:56:54Z</time>
      </trkpt>
      <trkpt lat="37.3390310" lon="-2.5124490">
        <ele>892.0</ele>
        <time>2021-04-18T08:56:55Z</time>
      </trkpt>
      <trkpt lat="37.3390320" lon="-2.5124150">
        <ele>892.2</ele>
        <time>2021-04-18T08:56:56Z</time>
      </trkpt>
      <trkpt lat="37.3390290" lon="-2.5123780">
        <ele>892.4</ele>
        <time>2021-04-18T08:56:57Z</time>
      </trkpt>
      <trkpt lat="37.3390220" lon="-2.5123460">
        <ele>892.6</ele>
        <time>2021-04-18T08:56:58Z</time>
      </trkpt>
      <trkpt lat="37.3390110" lon="-2.5123150">
        <ele>892.8</ele>
        <time>2021-04-18T08:56:59Z</time>
      </trkpt>
      <trkpt lat="37.3389990" lon="-2.5122850">
        <ele>893.0</ele>
        <time>2021-04-18T08:57:00Z</time>
      </trkpt>
      <trkpt lat="37.3389830" lon="-2.5122590">
        <ele>893.2</ele>
        <time>2021-04-18T08:57:01Z</time>
      </trkpt>
      <trkpt lat="37.3389630" lon="-2.5122360">
        <ele>893.4</ele>
        <time>2021-04-18T08:57:02Z</time>
      </trkpt>
      <trkpt lat="37.3389420" lon="-2.5122180">
        <ele>893.6</ele>
        <time>2021-04-18T08:57:03Z</time>
      </trkpt>
      <trkpt lat="37.3389180" lon="-2.5122020">
        <ele>894.0</ele>
        <time>2021-04-18T08:57:04Z</time>
      </trkpt>
      <trkpt lat="37.3388980" lon="-2.5121930">
        <ele>894.2</ele>
        <time>2021-04-18T08:57:05Z</time>
      </trkpt>
      <trkpt lat="37.3388740" lon="-2.5121870">
        <ele>894.4</ele>
        <time>2021-04-18T08:57:06Z</time>
      </trkpt>
      <trkpt lat="37.3388540" lon="-2.5121870">
        <ele>894.8</ele>
        <time>2021-04-18T08:57:07Z</time>
      </trkpt>
      <trkpt lat="37.3388230" lon="-2.5121960">
        <ele>895.0</ele>
        <time>2021-04-18T08:57:08Z</time>
      </trkpt>
      <trkpt lat="37.3388020" lon="-2.5122070">
        <ele>895.2</ele>
        <time>2021-04-18T08:57:09Z</time>
      </trkpt>
      <trkpt lat="37.3387780" lon="-2.5122200">
        <ele>895.4</ele>
        <time>2021-04-18T08:57:10Z</time>
      </trkpt>
      <trkpt lat="37.3387530" lon="-2.5122320">
        <ele>895.8</ele>
        <time>2021-04-18T08:57:11Z</time>
      </trkpt>
      <trkpt lat="37.3387280" lon="-2.5122420">
        <ele>896.0</ele>
        <time>2021-04-18T08:57:12Z</time>
      </trkpt>
      <trkpt lat="37.3387020" lon="-2.5122510">
        <ele>896.0</ele>
        <time>2021-04-18T08:57:13Z</time>
      </trkpt>
      <trkpt lat="37.3386760" lon="-2.5122610">
        <ele>896.2</ele>
        <time>2021-04-18T08:57:14Z</time>
      </trkpt>
      <trkpt lat="37.3386530" lon="-2.5122740">
        <ele>896.4</ele>
        <time>2021-04-18T08:57:15Z</time>
      </trkpt>
      <trkpt lat="37.3386280" lon="-2.5122900">
        <ele>896.6</ele>
        <time>2021-04-18T08:57:16Z</time>
      </trkpt>
      <trkpt lat="37.3386120" lon="-2.5122990">
        <ele>896.8</ele>
        <time>2021-04-18T08:57:17Z</time>
      </trkpt>
      <trkpt lat="37.3385900" lon="-2.5123080">
        <ele>897.2</ele>
        <time>2021-04-18T08:57:18Z</time>
      </trkpt>
      <trkpt lat="37.3385670" lon="-2.5123170">
        <ele>897.4</ele>
        <time>2021-04-18T08:57:19Z</time>
      </trkpt>
      <trkpt lat="37.3385380" lon="-2.5123290">
        <ele>897.6</ele>
        <time>2021-04-18T08:57:20Z</time>
      </trkpt>
      <trkpt lat="37.3385180" lon="-2.5123390">
        <ele>897.8</ele>
        <time>2021-04-18T08:57:21Z</time>
      </trkpt>
      <trkpt lat="37.3384930" lon="-2.5123470">
        <ele>897.8</ele>
        <time>2021-04-18T08:57:22Z</time>
      </trkpt>
      <trkpt lat="37.3384690" lon="-2.5123530">
        <ele>898.0</ele>
        <time>2021-04-18T08:57:23Z</time>
      </trkpt>
      <trkpt lat="37.3384390" lon="-2.5123620">
        <ele>898.2</ele>
        <time>2021-04-18T08:57:24Z</time>
      </trkpt>
      <trkpt lat="37.3384180" lon="-2.5123680">
        <ele>898.4</ele>
        <time>2021-04-18T08:57:25Z</time>
      </trkpt>
      <trkpt lat="37.3383860" lon="-2.5123790">
        <ele>898.6</ele>
        <time>2021-04-18T08:57:26Z</time>
      </trkpt>
      <trkpt lat="37.3383660" lon="-2.5123850">
        <ele>899.0</ele>
        <time>2021-04-18T08:57:27Z</time>
      </trkpt>
      <trkpt lat="37.3383400" lon="-2.5123880">
        <ele>899.4</ele>
        <time>2021-04-18T08:57:28Z</time>
      </trkpt>
      <trkpt lat="37.3383110" lon="-2.5123890">
        <ele>899.4</ele>
        <time>2021-04-18T08:57:29Z</time>
      </trkpt>
      <trkpt lat="37.3382870" lon="-2.5123880">
        <ele>899.6</ele>
        <time>2021-04-18T08:57:30Z</time>
      </trkpt>
      <trkpt lat="37.3382680" lon="-2.5123910">
        <ele>900.0</ele>
        <time>2021-04-18T08:57:31Z</time>
      </trkpt>
      <trkpt lat="37.3382440" lon="-2.5123940">
        <ele>900.0</ele>
        <time>2021-04-18T08:57:32Z</time>
      </trkpt>
      <trkpt lat="37.3382180" lon="-2.5123930">
        <ele>900.4</ele>
        <time>2021-04-18T08:57:33Z</time>
      </trkpt>
      <trkpt lat="37.3381950" lon="-2.5123900">
        <ele>900.6</ele>
        <time>2021-04-18T08:57:34Z</time>
      </trkpt>
      <trkpt lat="37.3381710" lon="-2.5123900">
        <ele>900.8</ele>
        <time>2021-04-18T08:57:35Z</time>
      </trkpt>
      <trkpt lat="37.3381490" lon="-2.5123920">
        <ele>901.2</ele>
        <time>2021-04-18T08:57:36Z</time>
      </trkpt>
      <trkpt lat="37.3381280" lon="-2.5123960">
        <ele>901.2</ele>
        <time>2021-04-18T08:57:37Z</time>
      </trkpt>
      <trkpt lat="37.3381030" lon="-2.5124020">
        <ele>901.6</ele>
        <time>2021-04-18T08:57:38Z</time>
      </trkpt>
      <trkpt lat="37.3380780" lon="-2.5124080">
        <ele>901.8</ele>
        <time>2021-04-18T08:57:39Z</time>
      </trkpt>
      <trkpt lat="37.3380550" lon="-2.5124100">
        <ele>901.8</ele>
        <time>2021-04-18T08:57:40Z</time>
      </trkpt>
      <trkpt lat="37.3380300" lon="-2.5124100">
        <ele>902.0</ele>
        <time>2021-04-18T08:57:41Z</time>
      </trkpt>
      <trkpt lat="37.3380050" lon="-2.5124100">
        <ele>902.2</ele>
        <time>2021-04-18T08:57:42Z</time>
      </trkpt>
      <trkpt lat="37.3379830" lon="-2.5124130">
        <ele>902.6</ele>
        <time>2021-04-18T08:57:43Z</time>
      </trkpt>
      <trkpt lat="37.3379590" lon="-2.5124200">
        <ele>902.8</ele>
        <time>2021-04-18T08:57:44Z</time>
      </trkpt>
      <trkpt lat="37.3379310" lon="-2.5124220">
        <ele>903.0</ele>
        <time>2021-04-18T08:57:45Z</time>
      </trkpt>
      <trkpt lat="37.3379040" lon="-2.5124180">
        <ele>903.2</ele>
        <time>2021-04-18T08:57:46Z</time>
      </trkpt>
      <trkpt lat="37.3378780" lon="-2.5124120">
        <ele>903.4</ele>
        <time>2021-04-18T08:57:47Z</time>
      </trkpt>
      <trkpt lat="37.3378570" lon="-2.5123970">
        <ele>903.6</ele>
        <time>2021-04-18T08:57:48Z</time>
      </trkpt>
      <trkpt lat="37.3378370" lon="-2.5123730">
        <ele>904.0</ele>
        <time>2021-04-18T08:57:49Z</time>
      </trkpt>
      <trkpt lat="37.3378220" lon="-2.5123530">
        <ele>904.4</ele>
        <time>2021-04-18T08:57:50Z</time>
      </trkpt>
      <trkpt lat="37.3378060" lon="-2.5123230">
        <ele>904.6</ele>
        <time>2021-04-18T08:57:51Z</time>
      </trkpt>
      <trkpt lat="37.3377960" lon="-2.5122940">
        <ele>904.8</ele>
        <time>2021-04-18T08:57:52Z</time>
      </trkpt>
      <trkpt lat="37.3377930" lon="-2.5122630">
        <ele>905.0</ele>
        <time>2021-04-18T08:57:53Z</time>
      </trkpt>
      <trkpt lat="37.3377920" lon="-2.5122260">
        <ele>905.2</ele>
        <time>2021-04-18T08:57:54Z</time>
      </trkpt>
      <trkpt lat="37.3377930" lon="-2.5121890">
        <ele>905.4</ele>
        <time>2021-04-18T08:57:55Z</time>
      </trkpt>
      <trkpt lat="37.3377940" lon="-2.5121520">
        <ele>905.6</ele>
        <time>2021-04-18T08:57:56Z</time>
      </trkpt>
      <trkpt lat="37.3377970" lon="-2.5121150">
        <ele>905.6</ele>
        <time>2021-04-18T08:57:57Z</time>
      </trkpt>
      <trkpt lat="37.3377970" lon="-2.5120820">
        <ele>905.8</ele>
        <time>2021-04-18T08:57:58Z</time>
      </trkpt>
      <trkpt lat="37.3377910" lon="-2.5120450">
        <ele>906.0</ele>
        <time>2021-04-18T08:57:59Z</time>
      </trkpt>
      <trkpt lat="37.3377860" lon="-2.5120200">
        <ele>906.2</ele>
        <time>2021-04-18T08:58:00Z</time>
      </trkpt>
      <trkpt lat="37.3377760" lon="-2.5119830">
        <ele>906.4</ele>
        <time>2021-04-18T08:58:01Z</time>
      </trkpt>
      <trkpt lat="37.3377710" lon="-2.5119610">
        <ele>906.6</ele>
        <time>2021-04-18T08:58:02Z</time>
      </trkpt>
      <trkpt lat="37.3377610" lon="-2.5119400">
        <ele>906.6</ele>
        <time>2021-04-18T08:58:03Z</time>
      </trkpt>
      <trkpt lat="37.3377450" lon="-2.5119260">
        <ele>907.0</ele>
        <time>2021-04-18T08:58:04Z</time>
      </trkpt>
      <trkpt lat="37.3377210" lon="-2.5119150">
        <ele>907.2</ele>
        <time>2021-04-18T08:58:05Z</time>
      </trkpt>
      <trkpt lat="37.3377000" lon="-2.5119080">
        <ele>907.6</ele>
        <time>2021-04-18T08:58:06Z</time>
      </trkpt>
      <trkpt lat="37.3376800" lon="-2.5119030">
        <ele>908.0</ele>
        <time>2021-04-18T08:58:07Z</time>
      </trkpt>
      <trkpt lat="37.3376570" lon="-2.5118980">
        <ele>908.2</ele>
        <time>2021-04-18T08:58:08Z</time>
      </trkpt>
      <trkpt lat="37.3376350" lon="-2.5119010">
        <ele>908.4</ele>
        <time>2021-04-18T08:58:09Z</time>
      </trkpt>
      <trkpt lat="37.3376150" lon="-2.5119090">
        <ele>908.4</ele>
        <time>2021-04-18T08:58:10Z</time>
      </trkpt>
      <trkpt lat="37.3375940" lon="-2.5119210">
        <ele>908.6</ele>
        <time>2021-04-18T08:58:11Z</time>
      </trkpt>
      <trkpt lat="37.3375790" lon="-2.5119410">
        <ele>908.8</ele>
        <time>2021-04-18T08:58:12Z</time>
      </trkpt>
      <trkpt lat="37.3375640" lon="-2.5119600">
        <ele>909.0</ele>
        <time>2021-04-18T08:58:13Z</time>
      </trkpt>
      <trkpt lat="37.3375530" lon="-2.5119870">
        <ele>909.4</ele>
        <time>2021-04-18T08:58:14Z</time>
      </trkpt>
      <trkpt lat="37.3375470" lon="-2.5120170">
        <ele>909.6</ele>
        <time>2021-04-18T08:58:15Z</time>
      </trkpt>
      <trkpt lat="37.3375400" lon="-2.5120460">
        <ele>909.8</ele>
        <time>2021-04-18T08:58:16Z</time>
      </trkpt>
      <trkpt lat="37.3375410" lon="-2.5120780">
        <ele>910.0</ele>
        <time>2021-04-18T08:58:17Z</time>
      </trkpt>
      <trkpt lat="37.3375450" lon="-2.5121100">
        <ele>910.2</ele>
        <time>2021-04-18T08:58:18Z</time>
      </trkpt>
      <trkpt lat="37.3375520" lon="-2.5121430">
        <ele>910.2</ele>
        <time>2021-04-18T08:58:19Z</time>
      </trkpt>
      <trkpt lat="37.3375590" lon="-2.5121770">
        <ele>910.4</ele>
        <time>2021-04-18T08:58:20Z</time>
      </trkpt>
      <trkpt lat="37.3375620" lon="-2.5122080">
        <ele>911.0</ele>
        <time>2021-04-18T08:58:21Z</time>
      </trkpt>
      <trkpt lat="37.3375680" lon="-2.5122380">
        <ele>911.4</ele>
        <time>2021-04-18T08:58:22Z</time>
      </trkpt>
      <trkpt lat="37.3375750" lon="-2.5122690">
        <ele>911.6</ele>
        <time>2021-04-18T08:58:23Z</time>
      </trkpt>
      <trkpt lat="37.3375850" lon="-2.5123000">
        <ele>911.6</ele>
        <time>2021-04-18T08:58:24Z</time>
      </trkpt>
      <trkpt lat="37.3375960" lon="-2.5123270">
        <ele>912.0</ele>
        <time>2021-04-18T08:58:25Z</time>
      </trkpt>
      <trkpt lat="37.3376070" lon="-2.5123600">
        <ele>912.6</ele>
        <time>2021-04-18T08:58:26Z</time>
      </trkpt>
      <trkpt lat="37.3376110" lon="-2.5123840">
        <ele>912.8</ele>
        <time>2021-04-18T08:58:27Z</time>
      </trkpt>
      <trkpt lat="37.3376140" lon="-2.5124160">
        <ele>913.0</ele>
        <time>2021-04-18T08:58:28Z</time>
      </trkpt>
      <trkpt lat="37.3376150" lon="-2.5124490">
        <ele>913.2</ele>
        <time>2021-04-18T08:58:29Z</time>
      </trkpt>
      <trkpt lat="37.3376180" lon="-2.5124810">
        <ele>913.4</ele>
        <time>2021-04-18T08:58:30Z</time>
      </trkpt>
      <trkpt lat="37.3376220" lon="-2.5125110">
        <ele>913.6</ele>
        <time>2021-04-18T08:58:31Z</time>
      </trkpt>
      <trkpt lat="37.3376300" lon="-2.5125370">
        <ele>913.8</ele>
        <time>2021-04-18T08:58:32Z</time>
      </trkpt>
      <trkpt lat="37.3376420" lon="-2.5125620">
        <ele>914.0</ele>
        <time>2021-04-18T08:58:33Z</time>
      </trkpt>
      <trkpt lat="37.3376550" lon="-2.5125840">
        <ele>914.2</ele>
        <time>2021-04-18T08:58:34Z</time>
      </trkpt>
      <trkpt lat="37.3376730" lon="-2.5126110">
        <ele>914.6</ele>
        <time>2021-04-18T08:58:35Z</time>
      </trkpt>
      <trkpt lat="37.3376890" lon="-2.5126280">
        <ele>914.8</ele>
        <time>2021-04-18T08:58:36Z</time>
      </trkpt>
      <trkpt lat="37.3377100" lon="-2.5126450">
        <ele>915.2</ele>
        <time>2021-04-18T08:58:37Z</time>
      </trkpt>
      <trkpt lat="37.3377290" lon="-2.5126590">
        <ele>915.4</ele>
        <time>2021-04-18T08:58:38Z</time>
      </trkpt>
      <trkpt lat="37.3377500" lon="-2.5126700">
        <ele>915.4</ele>
        <time>2021-04-18T08:58:39Z</time>
      </trkpt>
      <trkpt lat="37.3377680" lon="-2.5126830">
        <ele>915.8</ele>
        <time>2021-04-18T08:58:40Z</time>
      </trkpt>
      <trkpt lat="37.3377930" lon="-2.5126970">
        <ele>916.0</ele>
        <time>2021-04-18T08:58:41Z</time>
      </trkpt>
      <trkpt lat="37.3378100" lon="-2.5127030">
        <ele>916.2</ele>
        <time>2021-04-18T08:58:42Z</time>
      </trkpt>
      <trkpt lat="37.3378320" lon="-2.5127110">
        <ele>916.4</ele>
        <time>2021-04-18T08:58:43Z</time>
      </trkpt>
      <trkpt lat="37.3378530" lon="-2.5127210">
        <ele>916.6</ele>
        <time>2021-04-18T08:58:44Z</time>
      </trkpt>
      <trkpt lat="37.3378780" lon="-2.5127330">
        <ele>916.8</ele>
        <time>2021-04-18T08:58:45Z</time>
      </trkpt>
      <trkpt lat="37.3379050" lon="-2.5127470">
        <ele>916.8</ele>
        <time>2021-04-18T08:58:46Z</time>
      </trkpt>
      <trkpt lat="37.3379180" lon="-2.5127510">
        <ele>917.0</ele>
        <time>2021-04-18T08:58:47Z</time>
      </trkpt>
      <trkpt lat="37.3379310" lon="-2.5127560">
        <ele>917.2</ele>
        <time>2021-04-18T08:58:48Z</time>
      </trkpt>
      <trkpt lat="37.3379500" lon="-2.5127690">
        <ele>917.4</ele>
        <time>2021-04-18T08:58:49Z</time>
      </trkpt>
      <trkpt lat="37.3379700" lon="-2.5127850">
        <ele>917.6</ele>
        <time>2021-04-18T08:58:50Z</time>
      </trkpt>
      <trkpt lat="37.3379880" lon="-2.5128050">
        <ele>917.8</ele>
        <time>2021-04-18T08:58:51Z</time>
      </trkpt>
      <trkpt lat="37.3380030" lon="-2.5128260">
        <ele>918.0</ele>
        <time>2021-04-18T08:58:52Z</time>
      </trkpt>
      <trkpt lat="37.3380160" lon="-2.5128510">
        <ele>918.2</ele>
        <time>2021-04-18T08:58:53Z</time>
      </trkpt>
      <trkpt lat="37.3380240" lon="-2.5128830">
        <ele>918.6</ele>
        <time>2021-04-18T08:58:54Z</time>
      </trkpt>
      <trkpt lat="37.3380300" lon="-2.5129120">
        <ele>918.8</ele>
        <time>2021-04-18T08:58:55Z</time>
      </trkpt>
      <trkpt lat="37.3380370" lon="-2.5129410">
        <ele>919.2</ele>
        <time>2021-04-18T08:58:56Z</time>
      </trkpt>
      <trkpt lat="37.3380400" lon="-2.5129650">
        <ele>919.4</ele>
        <time>2021-04-18T08:58:57Z</time>
      </trkpt>
      <trkpt lat="37.3380390" lon="-2.5129940">
        <ele>919.6</ele>
        <time>2021-04-18T08:58:58Z</time>
      </trkpt>
      <trkpt lat="37.3380330" lon="-2.5130310">
        <ele>919.8</ele>
        <time>2021-04-18T08:58:59Z</time>
      </trkpt>
      <trkpt lat="37.3380290" lon="-2.5130580">
        <ele>920.0</ele>
        <time>2021-04-18T08:59:00Z</time>
      </trkpt>
      <trkpt lat="37.3380250" lon="-2.5130910">
        <ele>920.2</ele>
        <time>2021-04-18T08:59:01Z</time>
      </trkpt>
      <trkpt lat="37.3380200" lon="-2.5131260">
        <ele>920.2</ele>
        <time>2021-04-18T08:59:02Z</time>
      </trkpt>
      <trkpt lat="37.3380110" lon="-2.5131580">
        <ele>920.4</ele>
        <time>2021-04-18T08:59:03Z</time>
      </trkpt>
      <trkpt lat="37.3379980" lon="-2.5131870">
        <ele>920.8</ele>
        <time>2021-04-18T08:59:04Z</time>
      </trkpt>
      <trkpt lat="37.3379840" lon="-2.5132160">
        <ele>921.0</ele>
        <time>2021-04-18T08:59:05Z</time>
      </trkpt>
      <trkpt lat="37.3379680" lon="-2.5132430">
        <ele>921.2</ele>
        <time>2021-04-18T08:59:06Z</time>
      </trkpt>
      <trkpt lat="37.3379490" lon="-2.5132670">
        <ele>921.2</ele>
        <time>2021-04-18T08:59:07Z</time>
      </trkpt>
      <trkpt lat="37.3379290" lon="-2.5132890">
        <ele>921.4</ele>
        <time>2021-04-18T08:59:08Z</time>
      </trkpt>
      <trkpt lat="37.3379100" lon="-2.5133050">
        <ele>921.4</ele>
        <time>2021-04-18T08:59:09Z</time>
      </trkpt>
      <trkpt lat="37.3378890" lon="-2.5133160">
        <ele>921.4</ele>
        <time>2021-04-18T08:59:10Z</time>
      </trkpt>
      <trkpt lat="37.3378680" lon="-2.5133240">
        <ele>921.6</ele>
        <time>2021-04-18T08:59:11Z</time>
      </trkpt>
      <trkpt lat="37.3378440" lon="-2.5133320">
        <ele>921.6</ele>
        <time>2021-04-18T08:59:12Z</time>
      </trkpt>
      <trkpt lat="37.3378220" lon="-2.5133410">
        <ele>921.8</ele>
        <time>2021-04-18T08:59:13Z</time>
      </trkpt>
      <trkpt lat="37.3377990" lon="-2.5133490">
        <ele>921.8</ele>
        <time>2021-04-18T08:59:14Z</time>
      </trkpt>
      <trkpt lat="37.3377740" lon="-2.5133540">
        <ele>922.2</ele>
        <time>2021-04-18T08:59:15Z</time>
      </trkpt>
      <trkpt lat="37.3377480" lon="-2.5133600">
        <ele>922.4</ele>
        <time>2021-04-18T08:59:16Z</time>
      </trkpt>
      <trkpt lat="37.3377230" lon="-2.5133640">
        <ele>922.6</ele>
        <time>2021-04-18T08:59:17Z</time>
      </trkpt>
      <trkpt lat="37.3377010" lon="-2.5133660">
        <ele>922.8</ele>
        <time>2021-04-18T08:59:18Z</time>
      </trkpt>
      <trkpt lat="37.3376790" lon="-2.5133690">
        <ele>923.0</ele>
        <time>2021-04-18T08:59:19Z</time>
      </trkpt>
      <trkpt lat="37.3376560" lon="-2.5133700">
        <ele>923.4</ele>
        <time>2021-04-18T08:59:20Z</time>
      </trkpt>
      <trkpt lat="37.3376330" lon="-2.5133690">
        <ele>923.6</ele>
        <time>2021-04-18T08:59:21Z</time>
      </trkpt>
      <trkpt lat="37.3376100" lon="-2.5133690">
        <ele>923.8</ele>
        <time>2021-04-18T08:59:22Z</time>
      </trkpt>
      <trkpt lat="37.3375870" lon="-2.5133710">
        <ele>924.0</ele>
        <time>2021-04-18T08:59:23Z</time>
      </trkpt>
      <trkpt lat="37.3375640" lon="-2.5133700">
        <ele>924.2</ele>
        <time>2021-04-18T08:59:24Z</time>
      </trkpt>
      <trkpt lat="37.3375420" lon="-2.5133670">
        <ele>924.4</ele>
        <time>2021-04-18T08:59:25Z</time>
      </trkpt>
      <trkpt lat="37.3375190" lon="-2.5133610">
        <ele>924.6</ele>
        <time>2021-04-18T08:59:26Z</time>
      </trkpt>
      <trkpt lat="37.3374950" lon="-2.5133550">
        <ele>924.8</ele>
        <time>2021-04-18T08:59:27Z</time>
      </trkpt>
      <trkpt lat="37.3374710" lon="-2.5133530">
        <ele>925.0</ele>
        <time>2021-04-18T08:59:28Z</time>
      </trkpt>
      <trkpt lat="37.3374490" lon="-2.5133560">
        <ele>925.0</ele>
        <time>2021-04-18T08:59:29Z</time>
      </trkpt>
      <trkpt lat="37.3374270" lon="-2.5133580">
        <ele>925.2</ele>
        <time>2021-04-18T08:59:30Z</time>
      </trkpt>
      <trkpt lat="37.3374050" lon="-2.5133600">
        <ele>925.4</ele>
        <time>2021-04-18T08:59:31Z</time>
      </trkpt>
      <trkpt lat="37.3373820" lon="-2.5133610">
        <ele>925.8</ele>
        <time>2021-04-18T08:59:32Z</time>
      </trkpt>
      <trkpt lat="37.3373590" lon="-2.5133610">
        <ele>925.8</ele>
        <time>2021-04-18T08:59:33Z</time>
      </trkpt>
      <trkpt lat="37.3373360" lon="-2.5133570">
        <ele>926.0</ele>
        <time>2021-04-18T08:59:34Z</time>
      </trkpt>
      <trkpt lat="37.3373140" lon="-2.5133530">
        <ele>926.4</ele>
        <time>2021-04-18T08:59:35Z</time>
      </trkpt>
      <trkpt lat="37.3372920" lon="-2.5133520">
        <ele>926.4</ele>
        <time>2021-04-18T08:59:36Z</time>
      </trkpt>
      <trkpt lat="37.3372690" lon="-2.5133530">
        <ele>926.8</ele>
        <time>2021-04-18T08:59:37Z</time>
      </trkpt>
      <trkpt lat="37.3372470" lon="-2.5133530">
        <ele>927.0</ele>
        <time>2021-04-18T08:59:38Z</time>
      </trkpt>
      <trkpt lat="37.3372250" lon="-2.5133550">
        <ele>927.2</ele>
        <time>2021-04-18T08:59:39Z</time>
      </trkpt>
      <trkpt lat="37.3372030" lon="-2.5133560">
        <ele>927.4</ele>
        <time>2021-04-18T08:59:40Z</time>
      </trkpt>
      <trkpt lat="37.3371800" lon="-2.5133580">
        <ele>927.6</ele>
        <time>2021-04-18T08:59:41Z</time>
      </trkpt>
      <trkpt lat="37.3371580" lon="-2.5133590">
        <ele>927.8</ele>
        <time>2021-04-18T08:59:42Z</time>
      </trkpt>
      <trkpt lat="37.3371580" lon="-2.5133590">
        <ele>928.0</ele>
        <time>2021-04-18T08:59:43Z</time>
      </trkpt>
      <trkpt lat="37.3371220" lon="-2.5133600">
        <ele>928.2</ele>
        <time>2021-04-18T08:59:44Z</time>
      </trkpt>
      <trkpt lat="37.3371000" lon="-2.5133600">
        <ele>928.4</ele>
        <time>2021-04-18T08:59:45Z</time>
      </trkpt>
      <trkpt lat="37.3370820" lon="-2.5133650">
        <ele>928.4</ele>
        <time>2021-04-18T08:59:46Z</time>
      </trkpt>
      <trkpt lat="37.3370610" lon="-2.5133720">
        <ele>928.8</ele>
        <time>2021-04-18T08:59:47Z</time>
      </trkpt>
      <trkpt lat="37.3370380" lon="-2.5133800">
        <ele>928.8</ele>
        <time>2021-04-18T08:59:48Z</time>
      </trkpt>
      <trkpt lat="37.3370180" lon="-2.5133900">
        <ele>929.2</ele>
        <time>2021-04-18T08:59:49Z</time>
      </trkpt>
      <trkpt lat="37.3370010" lon="-2.5134070">
        <ele>929.2</ele>
        <time>2021-04-18T08:59:50Z</time>
      </trkpt>
      <trkpt lat="37.3369830" lon="-2.5134260">
        <ele>929.4</ele>
        <time>2021-04-18T08:59:51Z</time>
      </trkpt>
      <trkpt lat="37.3369640" lon="-2.5134430">
        <ele>929.6</ele>
        <time>2021-04-18T08:59:52Z</time>
      </trkpt>
      <trkpt lat="37.3369460" lon="-2.5134590">
        <ele>929.6</ele>
        <time>2021-04-18T08:59:53Z</time>
      </trkpt>
      <trkpt lat="37.3369290" lon="-2.5134790">
        <ele>929.8</ele>
        <time>2021-04-18T08:59:54Z</time>
      </trkpt>
      <trkpt lat="37.3369150" lon="-2.5135010">
        <ele>929.8</ele>
        <time>2021-04-18T08:59:55Z</time>
      </trkpt>
      <trkpt lat="37.3369000" lon="-2.5135220">
        <ele>929.8</ele>
        <time>2021-04-18T08:59:56Z</time>
      </trkpt>
      <trkpt lat="37.3368880" lon="-2.5135500">
        <ele>930.0</ele>
        <time>2021-04-18T08:59:57Z</time>
      </trkpt>
      <trkpt lat="37.3368750" lon="-2.5135800">
        <ele>930.2</ele>
        <time>2021-04-18T08:59:58Z</time>
      </trkpt>
      <trkpt lat="37.3368620" lon="-2.5136120">
        <ele>930.4</ele>
        <time>2021-04-18T08:59:59Z</time>
      </trkpt>
      <trkpt lat="37.3368520" lon="-2.5136460">
        <ele>930.6</ele>
        <time>2021-04-18T09:00:00Z</time>
      </trkpt>
      <trkpt lat="37.3368400" lon="-2.5136770">
        <ele>930.6</ele>
        <time>2021-04-18T09:00:01Z</time>
      </trkpt>
      <trkpt lat="37.3368280" lon="-2.5137080">
        <ele>930.8</ele>
        <time>2021-04-18T09:00:02Z</time>
      </trkpt>
      <trkpt lat="37.3368180" lon="-2.5137390">
        <ele>931.2</ele>
        <time>2021-04-18T09:00:03Z</time>
      </trkpt>
      <trkpt lat="37.3368080" lon="-2.5137720">
        <ele>931.6</ele>
        <time>2021-04-18T09:00:04Z</time>
      </trkpt>
      <trkpt lat="37.3367970" lon="-2.5138030">
        <ele>932.0</ele>
        <time>2021-04-18T09:00:05Z</time>
      </trkpt>
      <trkpt lat="37.3367880" lon="-2.5138290">
        <ele>932.2</ele>
        <time>2021-04-18T09:00:06Z</time>
      </trkpt>
      <trkpt lat="37.3367770" lon="-2.5138530">
        <ele>932.4</ele>
        <time>2021-04-18T09:00:07Z</time>
      </trkpt>
      <trkpt lat="37.3367660" lon="-2.5138790">
        <ele>932.6</ele>
        <time>2021-04-18T09:00:08Z</time>
      </trkpt>
      <trkpt lat="37.3367520" lon="-2.5139060">
        <ele>933.0</ele>
        <time>2021-04-18T09:00:09Z</time>
      </trkpt>
      <trkpt lat="37.3367390" lon="-2.5139340">
        <ele>933.2</ele>
        <time>2021-04-18T09:00:10Z</time>
      </trkpt>
      <trkpt lat="37.3367250" lon="-2.5139610">
        <ele>933.6</ele>
        <time>2021-04-18T09:00:11Z</time>
      </trkpt>
      <trkpt lat="37.3367120" lon="-2.5139840">
        <ele>933.8</ele>
        <time>2021-04-18T09:00:12Z</time>
      </trkpt>
      <trkpt lat="37.3366940" lon="-2.5139980">
        <ele>933.8</ele>
        <time>2021-04-18T09:00:13Z</time>
      </trkpt>
      <trkpt lat="37.3366720" lon="-2.5140140">
        <ele>934.0</ele>
        <time>2021-04-18T09:00:14Z</time>
      </trkpt>
      <trkpt lat="37.3366520" lon="-2.5140240">
        <ele>934.4</ele>
        <time>2021-04-18T09:00:15Z</time>
      </trkpt>
      <trkpt lat="37.3366290" lon="-2.5140300">
        <ele>934.8</ele>
        <time>2021-04-18T09:00:16Z</time>
      </trkpt>
      <trkpt lat="37.3366060" lon="-2.5140310">
        <ele>934.8</ele>
        <time>2021-04-18T09:00:17Z</time>
      </trkpt>
      <trkpt lat="37.3365840" lon="-2.5140310">
        <ele>935.0</ele>
        <time>2021-04-18T09:00:18Z</time>
      </trkpt>
      <trkpt lat="37.3365610" lon="-2.5140260">
        <ele>935.2</ele>
        <time>2021-04-18T09:00:19Z</time>
      </trkpt>
      <trkpt lat="37.3365390" lon="-2.5140190">
        <ele>935.6</ele>
        <time>2021-04-18T09:00:20Z</time>
      </trkpt>
      <trkpt lat="37.3365180" lon="-2.5140110">
        <ele>935.8</ele>
        <time>2021-04-18T09:00:21Z</time>
      </trkpt>
      <trkpt lat="37.3364990" lon="-2.5140080">
        <ele>936.2</ele>
        <time>2021-04-18T09:00:22Z</time>
      </trkpt>
      <trkpt lat="37.3364810" lon="-2.5140000">
        <ele>936.4</ele>
        <time>2021-04-18T09:00:23Z</time>
      </trkpt>
      <trkpt lat="37.3364630" lon="-2.5139910">
        <ele>936.6</ele>
        <time>2021-04-18T09:00:24Z</time>
      </trkpt>
      <trkpt lat="37.3364440" lon="-2.5139790">
        <ele>936.8</ele>
        <time>2021-04-18T09:00:25Z</time>
      </trkpt>
      <trkpt lat="37.3364260" lon="-2.5139650">
        <ele>936.8</ele>
        <time>2021-04-18T09:00:26Z</time>
      </trkpt>
      <trkpt lat="37.3364090" lon="-2.5139490">
        <ele>937.0</ele>
        <time>2021-04-18T09:00:27Z</time>
      </trkpt>
      <trkpt lat="37.3363920" lon="-2.5139330">
        <ele>937.2</ele>
        <time>2021-04-18T09:00:28Z</time>
      </trkpt>
      <trkpt lat="37.3363750" lon="-2.5139160">
        <ele>937.4</ele>
        <time>2021-04-18T09:00:29Z</time>
      </trkpt>
      <trkpt lat="37.3363620" lon="-2.5138980">
        <ele>937.6</ele>
        <time>2021-04-18T09:00:30Z</time>
      </trkpt>
      <trkpt lat="37.3363470" lon="-2.5138810">
        <ele>937.8</ele>
        <time>2021-04-18T09:00:31Z</time>
      </trkpt>
      <trkpt lat="37.3363290" lon="-2.5138670">
        <ele>938.0</ele>
        <time>2021-04-18T09:00:32Z</time>
      </trkpt>
      <trkpt lat="37.3363090" lon="-2.5138560">
        <ele>938.2</ele>
        <time>2021-04-18T09:00:33Z</time>
      </trkpt>
      <trkpt lat="37.3362910" lon="-2.5138460">
        <ele>938.6</ele>
        <time>2021-04-18T09:00:34Z</time>
      </trkpt>
      <trkpt lat="37.3362710" lon="-2.5138370">
        <ele>938.8</ele>
        <time>2021-04-18T09:00:35Z</time>
      </trkpt>
      <trkpt lat="37.3362540" lon="-2.5138260">
        <ele>938.8</ele>
        <time>2021-04-18T09:00:36Z</time>
      </trkpt>
      <trkpt lat="37.3362350" lon="-2.5138190">
        <ele>939.0</ele>
        <time>2021-04-18T09:00:37Z</time>
      </trkpt>
      <trkpt lat="37.3362140" lon="-2.5138130">
        <ele>939.0</ele>
        <time>2021-04-18T09:00:38Z</time>
      </trkpt>
      <trkpt lat="37.3361940" lon="-2.5138060">
        <ele>939.2</ele>
        <time>2021-04-18T09:00:39Z</time>
      </trkpt>
      <trkpt lat="37.3361730" lon="-2.5137990">
        <ele>939.4</ele>
        <time>2021-04-18T09:00:40Z</time>
      </trkpt>
      <trkpt lat="37.3361530" lon="-2.5137920">
        <ele>939.4</ele>
        <time>2021-04-18T09:00:41Z</time>
      </trkpt>
      <trkpt lat="37.3361340" lon="-2.5137890">
        <ele>939.6</ele>
        <time>2021-04-18T09:00:42Z</time>
      </trkpt>
      <trkpt lat="37.3361110" lon="-2.5137830">
        <ele>940.0</ele>
        <time>2021-04-18T09:00:43Z</time>
      </trkpt>
      <trkpt lat="37.3360930" lon="-2.5137780">
        <ele>940.0</ele>
        <time>2021-04-18T09:00:44Z</time>
      </trkpt>
      <trkpt lat="37.3360770" lon="-2.5137770">
        <ele>940.2</ele>
        <time>2021-04-18T09:00:45Z</time>
      </trkpt>
      <trkpt lat="37.3360560" lon="-2.5137750">
        <ele>940.2</ele>
        <time>2021-04-18T09:00:46Z</time>
      </trkpt>
      <trkpt lat="37.3360320" lon="-2.5137700">
        <ele>940.4</ele>
        <time>2021-04-18T09:00:47Z</time>
      </trkpt>
      <trkpt lat="37.3360120" lon="-2.5137650">
        <ele>940.4</ele>
        <time>2021-04-18T09:00:48Z</time>
      </trkpt>
      <trkpt lat="37.3359930" lon="-2.5137590">
        <ele>940.6</ele>
        <time>2021-04-18T09:00:49Z</time>
      </trkpt>
      <trkpt lat="37.3359770" lon="-2.5137550">
        <ele>940.6</ele>
        <time>2021-04-18T09:00:50Z</time>
      </trkpt>
      <trkpt lat="37.3359580" lon="-2.5137480">
        <ele>940.6</ele>
        <time>2021-04-18T09:00:51Z</time>
      </trkpt>
      <trkpt lat="37.3359320" lon="-2.5137390">
        <ele>941.0</ele>
        <time>2021-04-18T09:00:52Z</time>
      </trkpt>
      <trkpt lat="37.3359100" lon="-2.5137310">
        <ele>941.0</ele>
        <time>2021-04-18T09:00:53Z</time>
      </trkpt>
      <trkpt lat="37.3358930" lon="-2.5137240">
        <ele>941.2</ele>
        <time>2021-04-18T09:00:54Z</time>
      </trkpt>
      <trkpt lat="37.3358710" lon="-2.5137150">
        <ele>941.4</ele>
        <time>2021-04-18T09:00:55Z</time>
      </trkpt>
      <trkpt lat="37.3358440" lon="-2.5137010">
        <ele>941.6</ele>
        <time>2021-04-18T09:00:56Z</time>
      </trkpt>
      <trkpt lat="37.3358230" lon="-2.5136880">
        <ele>941.8</ele>
        <time>2021-04-18T09:00:57Z</time>
      </trkpt>
      <trkpt lat="37.3358020" lon="-2.5136770">
        <ele>942.0</ele>
        <time>2021-04-18T09:00:58Z</time>
      </trkpt>
      <trkpt lat="37.3357840" lon="-2.5136690">
        <ele>942.2</ele>
        <time>2021-04-18T09:00:59Z</time>
      </trkpt>
      <trkpt lat="37.3357580" lon="-2.5136510">
        <ele>942.4</ele>
        <time>2021-04-18T09:01:00Z</time>
      </trkpt>
      <trkpt lat="37.3357410" lon="-2.5136380">
        <ele>942.4</ele>
        <time>2021-04-18T09:01:01Z</time>
      </trkpt>
      <trkpt lat="37.3357190" lon="-2.5136200">
        <ele>942.6</ele>
        <time>2021-04-18T09:01:02Z</time>
      </trkpt>
      <trkpt lat="37.3357000" lon="-2.5136020">
        <ele>942.6</ele>
        <time>2021-04-18T09:01:03Z</time>
      </trkpt>
      <trkpt lat="37.3356850" lon="-2.5135870">
        <ele>942.8</ele>
        <time>2021-04-18T09:01:04Z</time>
      </trkpt>
      <trkpt lat="37.3356650" lon="-2.5135720">
        <ele>943.0</ele>
        <time>2021-04-18T09:01:05Z</time>
      </trkpt>
      <trkpt lat="37.3356430" lon="-2.5135530">
        <ele>943.4</ele>
        <time>2021-04-18T09:01:06Z</time>
      </trkpt>
      <trkpt lat="37.3356290" lon="-2.5135400">
        <ele>943.4</ele>
        <time>2021-04-18T09:01:07Z</time>
      </trkpt>
      <trkpt lat="37.3356110" lon="-2.5135240">
        <ele>943.6</ele>
        <time>2021-04-18T09:01:08Z</time>
      </trkpt>
      <trkpt lat="37.3355940" lon="-2.5135060">
        <ele>943.8</ele>
        <time>2021-04-18T09:01:09Z</time>
      </trkpt>
      <trkpt lat="37.3355760" lon="-2.5134890">
        <ele>944.0</ele>
        <time>2021-04-18T09:01:10Z</time>
      </trkpt>
      <trkpt lat="37.3355580" lon="-2.5134740">
        <ele>944.2</ele>
        <time>2021-04-18T09:01:11Z</time>
      </trkpt>
      <trkpt lat="37.3355380" lon="-2.5134600">
        <ele>944.4</ele>
        <time>2021-04-18T09:01:12Z</time>
      </trkpt>
      <trkpt lat="37.3355190" lon="-2.5134450">
        <ele>944.4</ele>
        <time>2021-04-18T09:01:13Z</time>
      </trkpt>
      <trkpt lat="37.3355010" lon="-2.5134280">
        <ele>944.6</ele>
        <time>2021-04-18T09:01:14Z</time>
      </trkpt>
      <trkpt lat="37.3354820" lon="-2.5134120">
        <ele>944.8</ele>
        <time>2021-04-18T09:01:15Z</time>
      </trkpt>
      <trkpt lat="37.3354660" lon="-2.5133950">
        <ele>944.8</ele>
        <time>2021-04-18T09:01:16Z</time>
      </trkpt>
      <trkpt lat="37.3354520" lon="-2.5133730">
        <ele>945.0</ele>
        <time>2021-04-18T09:01:17Z</time>
      </trkpt>
      <trkpt lat="37.3354340" lon="-2.5133560">
        <ele>945.0</ele>
        <time>2021-04-18T09:01:18Z</time>
      </trkpt>
      <trkpt lat="37.3354150" lon="-2.5133400">
        <ele>945.2</ele>
        <time>2021-04-18T09:01:19Z</time>
      </trkpt>
      <trkpt lat="37.3353960" lon="-2.5133230">
        <ele>945.4</ele>
        <time>2021-04-18T09:01:20Z</time>
      </trkpt>
      <trkpt lat="37.3353780" lon="-2.5133060">
        <ele>945.4</ele>
        <time>2021-04-18T09:01:21Z</time>
      </trkpt>
      <trkpt lat="37.3353620" lon="-2.5132880">
        <ele>945.6</ele>
        <time>2021-04-18T09:01:22Z</time>
      </trkpt>
      <trkpt lat="37.3353440" lon="-2.5132710">
        <ele>945.8</ele>
        <time>2021-04-18T09:01:23Z</time>
      </trkpt>
      <trkpt lat="37.3353240" lon="-2.5132540">
        <ele>946.0</ele>
        <time>2021-04-18T09:01:24Z</time>
      </trkpt>
      <trkpt lat="37.3353050" lon="-2.5132390">
        <ele>946.2</ele>
        <time>2021-04-18T09:01:25Z</time>
      </trkpt>
      <trkpt lat="37.3352830" lon="-2.5132190">
        <ele>946.4</ele>
        <time>2021-04-18T09:01:26Z</time>
      </trkpt>
      <trkpt lat="37.3352630" lon="-2.5132030">
        <ele>946.8</ele>
        <time>2021-04-18T09:01:27Z</time>
      </trkpt>
      <trkpt lat="37.3352440" lon="-2.5131890">
        <ele>947.0</ele>
        <time>2021-04-18T09:01:28Z</time>
      </trkpt>
      <trkpt lat="37.3352280" lon="-2.5131780">
        <ele>947.0</ele>
        <time>2021-04-18T09:01:29Z</time>
      </trkpt>
      <trkpt lat="37.3352060" lon="-2.5131550">
        <ele>947.2</ele>
        <time>2021-04-18T09:01:30Z</time>
      </trkpt>
      <trkpt lat="37.3351890" lon="-2.5131370">
        <ele>947.2</ele>
        <time>2021-04-18T09:01:31Z</time>
      </trkpt>
      <trkpt lat="37.3351720" lon="-2.5131200">
        <ele>947.6</ele>
        <time>2021-04-18T09:01:32Z</time>
      </trkpt>
      <trkpt lat="37.3351570" lon="-2.5131070">
        <ele>947.8</ele>
        <time>2021-04-18T09:01:33Z</time>
      </trkpt>
      <trkpt lat="37.3351380" lon="-2.5130940">
        <ele>948.0</ele>
        <time>2021-04-18T09:01:34Z</time>
      </trkpt>
      <trkpt lat="37.3351190" lon="-2.5130810">
        <ele>948.2</ele>
        <time>2021-04-18T09:01:35Z</time>
      </trkpt>
      <trkpt lat="37.3350990" lon="-2.5130650">
        <ele>948.2</ele>
        <time>2021-04-18T09:01:36Z</time>
      </trkpt>
      <trkpt lat="37.3350810" lon="-2.5130490">
        <ele>948.6</ele>
        <time>2021-04-18T09:01:37Z</time>
      </trkpt>
      <trkpt lat="37.3350600" lon="-2.5130340">
        <ele>948.4</ele>
        <time>2021-04-18T09:01:38Z</time>
      </trkpt>
      <trkpt lat="37.3350400" lon="-2.5130160">
        <ele>948.6</ele>
        <time>2021-04-18T09:01:39Z</time>
      </trkpt>
      <trkpt lat="37.3350230" lon="-2.5129990">
        <ele>948.8</ele>
        <time>2021-04-18T09:01:40Z</time>
      </trkpt>
      <trkpt lat="37.3350060" lon="-2.5129850">
        <ele>949.0</ele>
        <time>2021-04-18T09:01:41Z</time>
      </trkpt>
      <trkpt lat="37.3349860" lon="-2.5129720">
        <ele>949.4</ele>
        <time>2021-04-18T09:01:42Z</time>
      </trkpt>
      <trkpt lat="37.3349630" lon="-2.5129540">
        <ele>949.4</ele>
        <time>2021-04-18T09:01:43Z</time>
      </trkpt>
      <trkpt lat="37.3349470" lon="-2.5129420">
        <ele>949.8</ele>
        <time>2021-04-18T09:01:44Z</time>
      </trkpt>
      <trkpt lat="37.3349240" lon="-2.5129220">
        <ele>949.8</ele>
        <time>2021-04-18T09:01:45Z</time>
      </trkpt>
      <trkpt lat="37.3349050" lon="-2.5129040">
        <ele>950.2</ele>
        <time>2021-04-18T09:01:46Z</time>
      </trkpt>
      <trkpt lat="37.3348830" lon="-2.5128880">
        <ele>950.4</ele>
        <time>2021-04-18T09:01:47Z</time>
      </trkpt>
      <trkpt lat="37.3348630" lon="-2.5128710">
        <ele>950.4</ele>
        <time>2021-04-18T09:01:48Z</time>
      </trkpt>
      <trkpt lat="37.3348400" lon="-2.5128580">
        <ele>950.8</ele>
        <time>2021-04-18T09:01:49Z</time>
      </trkpt>
      <trkpt lat="37.3348190" lon="-2.5128470">
        <ele>950.8</ele>
        <time>2021-04-18T09:01:50Z</time>
      </trkpt>
      <trkpt lat="37.3347980" lon="-2.5128360">
        <ele>951.0</ele>
        <time>2021-04-18T09:01:51Z</time>
      </trkpt>
      <trkpt lat="37.3347770" lon="-2.5128260">
        <ele>951.2</ele>
        <time>2021-04-18T09:01:52Z</time>
      </trkpt>
      <trkpt lat="37.3347550" lon="-2.5128160">
        <ele>951.4</ele>
        <time>2021-04-18T09:01:53Z</time>
      </trkpt>
      <trkpt lat="37.3347350" lon="-2.5128070">
        <ele>951.8</ele>
        <time>2021-04-18T09:01:54Z</time>
      </trkpt>
      <trkpt lat="37.3347140" lon="-2.5128020">
        <ele>951.8</ele>
        <time>2021-04-18T09:01:55Z</time>
      </trkpt>
      <trkpt lat="37.3346920" lon="-2.5127940">
        <ele>952.2</ele>
        <time>2021-04-18T09:01:56Z</time>
      </trkpt>
      <trkpt lat="37.3346680" lon="-2.5127830">
        <ele>952.2</ele>
        <time>2021-04-18T09:01:57Z</time>
      </trkpt>
      <trkpt lat="37.3346440" lon="-2.5127740">
        <ele>952.4</ele>
        <time>2021-04-18T09:01:58Z</time>
      </trkpt>
      <trkpt lat="37.3346210" lon="-2.5127680">
        <ele>952.4</ele>
        <time>2021-04-18T09:01:59Z</time>
      </trkpt>
      <trkpt lat="37.3346030" lon="-2.5127660">
        <ele>952.6</ele>
        <time>2021-04-18T09:02:00Z</time>
      </trkpt>
      <trkpt lat="37.3345810" lon="-2.5127660">
        <ele>952.8</ele>
        <time>2021-04-18T09:02:01Z</time>
      </trkpt>
      <trkpt lat="37.3345520" lon="-2.5127660">
        <ele>953.0</ele>
        <time>2021-04-18T09:02:02Z</time>
      </trkpt>
      <trkpt lat="37.3345330" lon="-2.5127640">
        <ele>953.0</ele>
        <time>2021-04-18T09:02:03Z</time>
      </trkpt>
      <trkpt lat="37.3345100" lon="-2.5127610">
        <ele>953.2</ele>
        <time>2021-04-18T09:02:04Z</time>
      </trkpt>
      <trkpt lat="37.3344870" lon="-2.5127580">
        <ele>953.6</ele>
        <time>2021-04-18T09:02:05Z</time>
      </trkpt>
      <trkpt lat="37.3344640" lon="-2.5127590">
        <ele>953.8</ele>
        <time>2021-04-18T09:02:06Z</time>
      </trkpt>
      <trkpt lat="37.3344400" lon="-2.5127630">
        <ele>953.8</ele>
        <time>2021-04-18T09:02:07Z</time>
      </trkpt>
      <trkpt lat="37.3344170" lon="-2.5127690">
        <ele>954.0</ele>
        <time>2021-04-18T09:02:08Z</time>
      </trkpt>
      <trkpt lat="37.3343930" lon="-2.5127720">
        <ele>954.2</ele>
        <time>2021-04-18T09:02:09Z</time>
      </trkpt>
      <trkpt lat="37.3343650" lon="-2.5127740">
        <ele>954.4</ele>
        <time>2021-04-18T09:02:10Z</time>
      </trkpt>
      <trkpt lat="37.3343410" lon="-2.5127770">
        <ele>954.4</ele>
        <time>2021-04-18T09:02:11Z</time>
      </trkpt>
      <trkpt lat="37.3343160" lon="-2.5127810">
        <ele>954.8</ele>
        <time>2021-04-18T09:02:12Z</time>
      </trkpt>
      <trkpt lat="37.3342910" lon="-2.5127870">
        <ele>955.0</ele>
        <time>2021-04-18T09:02:13Z</time>
      </trkpt>
      <trkpt lat="37.3342720" lon="-2.5127900">
        <ele>955.2</ele>
        <time>2021-04-18T09:02:14Z</time>
      </trkpt>
      <trkpt lat="37.3342450" lon="-2.5127930">
        <ele>955.4</ele>
        <time>2021-04-18T09:02:15Z</time>
      </trkpt>
      <trkpt lat="37.3342220" lon="-2.5127960">
        <ele>955.6</ele>
        <time>2021-04-18T09:02:16Z</time>
      </trkpt>
      <trkpt lat="37.3342050" lon="-2.5127990">
        <ele>955.6</ele>
        <time>2021-04-18T09:02:17Z</time>
      </trkpt>
      <trkpt lat="37.3341830" lon="-2.5128040">
        <ele>955.8</ele>
        <time>2021-04-18T09:02:18Z</time>
      </trkpt>
      <trkpt lat="37.3341600" lon="-2.5128100">
        <ele>956.2</ele>
        <time>2021-04-18T09:02:19Z</time>
      </trkpt>
      <trkpt lat="37.3341380" lon="-2.5128140">
        <ele>956.4</ele>
        <time>2021-04-18T09:02:20Z</time>
      </trkpt>
      <trkpt lat="37.3341170" lon="-2.5128200">
        <ele>956.6</ele>
        <time>2021-04-18T09:02:21Z</time>
      </trkpt>
      <trkpt lat="37.3340950" lon="-2.5128240">
        <ele>956.8</ele>
        <time>2021-04-18T09:02:22Z</time>
      </trkpt>
      <trkpt lat="37.3340730" lon="-2.5128280">
        <ele>957.0</ele>
        <time>2021-04-18T09:02:23Z</time>
      </trkpt>
      <trkpt lat="37.3340500" lon="-2.5128340">
        <ele>957.2</ele>
        <time>2021-04-18T09:02:24Z</time>
      </trkpt>
      <trkpt lat="37.3340290" lon="-2.5128380">
        <ele>957.4</ele>
        <time>2021-04-18T09:02:25Z</time>
      </trkpt>
      <trkpt lat="37.3340060" lon="-2.5128430">
        <ele>957.6</ele>
        <time>2021-04-18T09:02:26Z</time>
      </trkpt>
      <trkpt lat="37.3339800" lon="-2.5128480">
        <ele>958.0</ele>
        <time>2021-04-18T09:02:27Z</time>
      </trkpt>
      <trkpt lat="37.3339590" lon="-2.5128520">
        <ele>958.0</ele>
        <time>2021-04-18T09:02:28Z</time>
      </trkpt>
      <trkpt lat="37.3339380" lon="-2.5128540">
        <ele>958.2</ele>
        <time>2021-04-18T09:02:29Z</time>
      </trkpt>
      <trkpt lat="37.3339190" lon="-2.5128570">
        <ele>958.4</ele>
        <time>2021-04-18T09:02:30Z</time>
      </trkpt>
      <trkpt lat="37.3338960" lon="-2.5128630">
        <ele>958.6</ele>
        <time>2021-04-18T09:02:31Z</time>
      </trkpt>
      <trkpt lat="37.3338670" lon="-2.5128680">
        <ele>958.6</ele>
        <time>2021-04-18T09:02:32Z</time>
      </trkpt>
      <trkpt lat="37.3338430" lon="-2.5128740">
        <ele>958.8</ele>
        <time>2021-04-18T09:02:33Z</time>
      </trkpt>
      <trkpt lat="37.3338200" lon="-2.5128780">
        <ele>959.2</ele>
        <time>2021-04-18T09:02:34Z</time>
      </trkpt>
      <trkpt lat="37.3337970" lon="-2.5128810">
        <ele>959.4</ele>
        <time>2021-04-18T09:02:35Z</time>
      </trkpt>
      <trkpt lat="37.3337720" lon="-2.5128840">
        <ele>959.6</ele>
        <time>2021-04-18T09:02:36Z</time>
      </trkpt>
      <trkpt lat="37.3337490" lon="-2.5128870">
        <ele>959.8</ele>
        <time>2021-04-18T09:02:37Z</time>
      </trkpt>
      <trkpt lat="37.3337250" lon="-2.5128930">
        <ele>960.0</ele>
        <time>2021-04-18T09:02:38Z</time>
      </trkpt>
      <trkpt lat="37.3337000" lon="-2.5128940">
        <ele>960.4</ele>
        <time>2021-04-18T09:02:39Z</time>
      </trkpt>
      <trkpt lat="37.3336740" lon="-2.5128930">
        <ele>960.4</ele>
        <time>2021-04-18T09:02:40Z</time>
      </trkpt>
      <trkpt lat="37.3336480" lon="-2.5128910">
        <ele>960.8</ele>
        <time>2021-04-18T09:02:41Z</time>
      </trkpt>
      <trkpt lat="37.3336210" lon="-2.5128900">
        <ele>961.4</ele>
        <time>2021-04-18T09:02:42Z</time>
      </trkpt>
      <trkpt lat="37.3335950" lon="-2.5128890">
        <ele>961.4</ele>
        <time>2021-04-18T09:02:43Z</time>
      </trkpt>
      <trkpt lat="37.3335680" lon="-2.5128880">
        <ele>961.6</ele>
        <time>2021-04-18T09:02:44Z</time>
      </trkpt>
      <trkpt lat="37.3335430" lon="-2.5128810">
        <ele>961.8</ele>
        <time>2021-04-18T09:02:45Z</time>
      </trkpt>
      <trkpt lat="37.3335170" lon="-2.5128750">
        <ele>961.8</ele>
        <time>2021-04-18T09:02:46Z</time>
      </trkpt>
      <trkpt lat="37.3334970" lon="-2.5128700">
        <ele>962.0</ele>
        <time>2021-04-18T09:02:47Z</time>
      </trkpt>
      <trkpt lat="37.3334710" lon="-2.5128610">
        <ele>962.4</ele>
        <time>2021-04-18T09:02:48Z</time>
      </trkpt>
      <trkpt lat="37.3334390" lon="-2.5128490">
        <ele>962.6</ele>
        <time>2021-04-18T09:02:49Z</time>
      </trkpt>
      <trkpt lat="37.3334130" lon="-2.5128360">
        <ele>962.8</ele>
        <time>2021-04-18T09:02:50Z</time>
      </trkpt>
      <trkpt lat="37.3333940" lon="-2.5128220">
        <ele>963.0</ele>
        <time>2021-04-18T09:02:51Z</time>
      </trkpt>
      <trkpt lat="37.3333690" lon="-2.5128100">
        <ele>963.2</ele>
        <time>2021-04-18T09:02:52Z</time>
      </trkpt>
      <trkpt lat="37.3333450" lon="-2.5127980">
        <ele>963.6</ele>
        <time>2021-04-18T09:02:53Z</time>
      </trkpt>
      <trkpt lat="37.3333220" lon="-2.5127850">
        <ele>963.6</ele>
        <time>2021-04-18T09:02:54Z</time>
      </trkpt>
      <trkpt lat="37.3332980" lon="-2.5127690">
        <ele>963.8</ele>
        <time>2021-04-18T09:02:55Z</time>
      </trkpt>
      <trkpt lat="37.3332750" lon="-2.5127510">
        <ele>964.2</ele>
        <time>2021-04-18T09:02:56Z</time>
      </trkpt>
      <trkpt lat="37.3332520" lon="-2.5127330">
        <ele>964.4</ele>
        <time>2021-04-18T09:02:57Z</time>
      </trkpt>
      <trkpt lat="37.3332320" lon="-2.5127130">
        <ele>964.6</ele>
        <time>2021-04-18T09:02:58Z</time>
      </trkpt>
      <trkpt lat="37.3332090" lon="-2.5126870">
        <ele>964.8</ele>
        <time>2021-04-18T09:02:59Z</time>
      </trkpt>
      <trkpt lat="37.3331920" lon="-2.5126710">
        <ele>965.0</ele>
        <time>2021-04-18T09:03:00Z</time>
      </trkpt>
      <trkpt lat="37.3331730" lon="-2.5126500">
        <ele>965.4</ele>
        <time>2021-04-18T09:03:01Z</time>
      </trkpt>
      <trkpt lat="37.3331530" lon="-2.5126320">
        <ele>965.6</ele>
        <time>2021-04-18T09:03:02Z</time>
      </trkpt>
      <trkpt lat="37.3331340" lon="-2.5126090">
        <ele>966.0</ele>
        <time>2021-04-18T09:03:03Z</time>
      </trkpt>
      <trkpt lat="37.3331180" lon="-2.5125830">
        <ele>966.2</ele>
        <time>2021-04-18T09:03:04Z</time>
      </trkpt>
      <trkpt lat="37.3331020" lon="-2.5125570">
        <ele>966.4</ele>
        <time>2021-04-18T09:03:05Z</time>
      </trkpt>
      <trkpt lat="37.3330860" lon="-2.5125330">
        <ele>966.6</ele>
        <time>2021-04-18T09:03:06Z</time>
      </trkpt>
      <trkpt lat="37.3330710" lon="-2.5125080">
        <ele>966.8</ele>
        <time>2021-04-18T09:03:07Z</time>
      </trkpt>
      <trkpt lat="37.3330560" lon="-2.5124820">
        <ele>967.2</ele>
        <time>2021-04-18T09:03:08Z</time>
      </trkpt>
      <trkpt lat="37.3330380" lon="-2.5124590">
        <ele>967.2</ele>
        <time>2021-04-18T09:03:09Z</time>
      </trkpt>
      <trkpt lat="37.3330180" lon="-2.5124390">
        <ele>967.4</ele>
        <time>2021-04-18T09:03:10Z</time>
      </trkpt>
      <trkpt lat="37.3330020" lon="-2.5124170">
        <ele>967.6</ele>
        <time>2021-04-18T09:03:11Z</time>
      </trkpt>
      <trkpt lat="37.3329870" lon="-2.5123910">
        <ele>967.8</ele>
        <time>2021-04-18T09:03:12Z</time>
      </trkpt>
      <trkpt lat="37.3329730" lon="-2.5123630">
        <ele>968.0</ele>
        <time>2021-04-18T09:03:13Z</time>
      </trkpt>
      <trkpt lat="37.3329550" lon="-2.5123330">
        <ele>968.0</ele>
        <time>2021-04-18T09:03:14Z</time>
      </trkpt>
      <trkpt lat="37.3329410" lon="-2.5123070">
        <ele>968.2</ele>
        <time>2021-04-18T09:03:15Z</time>
      </trkpt>
      <trkpt lat="37.3329250" lon="-2.5122850">
        <ele>968.4</ele>
        <time>2021-04-18T09:03:16Z</time>
      </trkpt>
      <trkpt lat="37.3329110" lon="-2.5122600">
        <ele>968.6</ele>
        <time>2021-04-18T09:03:17Z</time>
      </trkpt>
      <trkpt lat="37.3328960" lon="-2.5122380">
        <ele>968.6</ele>
        <time>2021-04-18T09:03:18Z</time>
      </trkpt>
      <trkpt lat="37.3328840" lon="-2.5122200">
        <ele>968.8</ele>
        <time>2021-04-18T09:03:19Z</time>
      </trkpt>
      <trkpt lat="37.3328650" lon="-2.5121930">
        <ele>969.2</ele>
        <time>2021-04-18T09:03:20Z</time>
      </trkpt>
      <trkpt lat="37.3328500" lon="-2.5121680">
        <ele>969.2</ele>
        <time>2021-04-18T09:03:21Z</time>
      </trkpt>
      <trkpt lat="37.3328340" lon="-2.5121450">
        <ele>969.4</ele>
        <time>2021-04-18T09:03:22Z</time>
      </trkpt>
      <trkpt lat="37.3328170" lon="-2.5121230">
        <ele>969.4</ele>
        <time>2021-04-18T09:03:23Z</time>
      </trkpt>
      <trkpt lat="37.3328030" lon="-2.5121050">
        <ele>969.4</ele>
        <time>2021-04-18T09:03:24Z</time>
      </trkpt>
      <trkpt lat="37.3327860" lon="-2.5120780">
        <ele>969.8</ele>
        <time>2021-04-18T09:03:25Z</time>
      </trkpt>
      <trkpt lat="37.3327730" lon="-2.5120560">
        <ele>969.8</ele>
        <time>2021-04-18T09:03:26Z</time>
      </trkpt>
      <trkpt lat="37.3327610" lon="-2.5120340">
        <ele>970.0</ele>
        <time>2021-04-18T09:03:27Z</time>
      </trkpt>
      <trkpt lat="37.3327490" lon="-2.5120120">
        <ele>970.2</ele>
        <time>2021-04-18T09:03:28Z</time>
      </trkpt>
      <trkpt lat="37.3327340" lon="-2.5119900">
        <ele>970.4</ele>
        <time>2021-04-18T09:03:29Z</time>
      </trkpt>
      <trkpt lat="37.3327200" lon="-2.5119760">
        <ele>970.4</ele>
        <time>2021-04-18T09:03:30Z</time>
      </trkpt>
      <trkpt lat="37.3327000" lon="-2.5119520">
        <ele>970.6</ele>
        <time>2021-04-18T09:03:31Z</time>
      </trkpt>
      <trkpt lat="37.3326840" lon="-2.5119320">
        <ele>971.0</ele>
        <time>2021-04-18T09:03:32Z</time>
      </trkpt>
      <trkpt lat="37.3326690" lon="-2.5119110">
        <ele>971.2</ele>
        <time>2021-04-18T09:03:33Z</time>
      </trkpt>
      <trkpt lat="37.3326520" lon="-2.5118940">
        <ele>971.4</ele>
        <time>2021-04-18T09:03:34Z</time>
      </trkpt>
      <trkpt lat="37.3326350" lon="-2.5118750">
        <ele>971.4</ele>
        <time>2021-04-18T09:03:35Z</time>
      </trkpt>
      <trkpt lat="37.3326160" lon="-2.5118590">
        <ele>971.8</ele>
        <time>2021-04-18T09:03:36Z</time>
      </trkpt>
      <trkpt lat="37.3325990" lon="-2.5118400">
        <ele>971.8</ele>
        <time>2021-04-18T09:03:37Z</time>
      </trkpt>
      <trkpt lat="37.3325840" lon="-2.5118200">
        <ele>972.2</ele>
        <time>2021-04-18T09:03:38Z</time>
      </trkpt>
      <trkpt lat="37.3325680" lon="-2.5118030">
        <ele>972.4</ele>
        <time>2021-04-18T09:03:39Z</time>
      </trkpt>
      <trkpt lat="37.3325520" lon="-2.5117920">
        <ele>972.4</ele>
        <time>2021-04-18T09:03:40Z</time>
      </trkpt>
      <trkpt lat="37.3325280" lon="-2.5117720">
        <ele>972.6</ele>
        <time>2021-04-18T09:03:41Z</time>
      </trkpt>
      <trkpt lat="37.3325090" lon="-2.5117560">
        <ele>972.6</ele>
        <time>2021-04-18T09:03:42Z</time>
      </trkpt>
      <trkpt lat="37.3324880" lon="-2.5117430">
        <ele>972.8</ele>
        <time>2021-04-18T09:03:43Z</time>
      </trkpt>
      <trkpt lat="37.3324690" lon="-2.5117300">
        <ele>973.2</ele>
        <time>2021-04-18T09:03:44Z</time>
      </trkpt>
      <trkpt lat="37.3324570" lon="-2.5117190">
        <ele>973.2</ele>
        <time>2021-04-18T09:03:45Z</time>
      </trkpt>
      <trkpt lat="37.3324350" lon="-2.5117040">
        <ele>973.4</ele>
        <time>2021-04-18T09:03:46Z</time>
      </trkpt>
      <trkpt lat="37.3324160" lon="-2.5116930">
        <ele>973.4</ele>
        <time>2021-04-18T09:03:47Z</time>
      </trkpt>
      <trkpt lat="37.3323940" lon="-2.5116840">
        <ele>973.6</ele>
        <time>2021-04-18T09:03:48Z</time>
      </trkpt>
      <trkpt lat="37.3323730" lon="-2.5116750">
        <ele>973.8</ele>
        <time>2021-04-18T09:03:49Z</time>
      </trkpt>
      <trkpt lat="37.3323530" lon="-2.5116660">
        <ele>974.0</ele>
        <time>2021-04-18T09:03:50Z</time>
      </trkpt>
      <trkpt lat="37.3323330" lon="-2.5116600">
        <ele>974.2</ele>
        <time>2021-04-18T09:03:51Z</time>
      </trkpt>
      <trkpt lat="37.3323190" lon="-2.5116530">
        <ele>974.2</ele>
        <time>2021-04-18T09:03:52Z</time>
      </trkpt>
      <trkpt lat="37.3322980" lon="-2.5116450">
        <ele>974.4</ele>
        <time>2021-04-18T09:03:53Z</time>
      </trkpt>
      <trkpt lat="37.3322780" lon="-2.5116390">
        <ele>974.6</ele>
        <time>2021-04-18T09:03:54Z</time>
      </trkpt>
      <trkpt lat="37.3322630" lon="-2.5116350">
        <ele>975.0</ele>
        <time>2021-04-18T09:03:55Z</time>
      </trkpt>
      <trkpt lat="37.3322430" lon="-2.5116280">
        <ele>975.4</ele>
        <time>2021-04-18T09:03:56Z</time>
      </trkpt>
      <trkpt lat="37.3322200" lon="-2.5116210">
        <ele>975.4</ele>
        <time>2021-04-18T09:03:57Z</time>
      </trkpt>
      <trkpt lat="37.3321980" lon="-2.5116130">
        <ele>975.8</ele>
        <time>2021-04-18T09:03:58Z</time>
      </trkpt>
      <trkpt lat="37.3321740" lon="-2.5116060">
        <ele>975.8</ele>
        <time>2021-04-18T09:03:59Z</time>
      </trkpt>
      <trkpt lat="37.3321480" lon="-2.5115980">
        <ele>975.8</ele>
        <time>2021-04-18T09:04:00Z</time>
      </trkpt>
      <trkpt lat="37.3321310" lon="-2.5115920">
        <ele>976.0</ele>
        <time>2021-04-18T09:04:01Z</time>
      </trkpt>
      <trkpt lat="37.3321080" lon="-2.5115850">
        <ele>976.2</ele>
        <time>2021-04-18T09:04:02Z</time>
      </trkpt>
      <trkpt lat="37.3320850" lon="-2.5115770">
        <ele>976.6</ele>
        <time>2021-04-18T09:04:03Z</time>
      </trkpt>
      <trkpt lat="37.3320580" lon="-2.5115710">
        <ele>976.8</ele>
        <time>2021-04-18T09:04:04Z</time>
      </trkpt>
      <trkpt lat="37.3320350" lon="-2.5115650">
        <ele>977.2</ele>
        <time>2021-04-18T09:04:05Z</time>
      </trkpt>
      <trkpt lat="37.3320200" lon="-2.5115570">
        <ele>977.4</ele>
        <time>2021-04-18T09:04:06Z</time>
      </trkpt>
      <trkpt lat="37.3319950" lon="-2.5115460">
        <ele>977.4</ele>
        <time>2021-04-18T09:04:07Z</time>
      </trkpt>
      <trkpt lat="37.3319790" lon="-2.5115400">
        <ele>977.6</ele>
        <time>2021-04-18T09:04:08Z</time>
      </trkpt>
      <trkpt lat="37.3319530" lon="-2.5115330">
        <ele>977.6</ele>
        <time>2021-04-18T09:04:09Z</time>
      </trkpt>
      <trkpt lat="37.3319310" lon="-2.5115290">
        <ele>977.8</ele>
        <time>2021-04-18T09:04:10Z</time>
      </trkpt>
      <trkpt lat="37.3319100" lon="-2.5115240">
        <ele>978.0</ele>
        <time>2021-04-18T09:04:11Z</time>
      </trkpt>
      <trkpt lat="37.3318880" lon="-2.5115180">
        <ele>978.4</ele>
        <time>2021-04-18T09:04:12Z</time>
      </trkpt>
      <trkpt lat="37.3318670" lon="-2.5115120">
        <ele>978.4</ele>
        <time>2021-04-18T09:04:13Z</time>
      </trkpt>
      <trkpt lat="37.3318440" lon="-2.5115020">
        <ele>978.8</ele>
        <time>2021-04-18T09:04:14Z</time>
      </trkpt>
      <trkpt lat="37.3318210" lon="-2.5114940">
        <ele>979.0</ele>
        <time>2021-04-18T09:04:15Z</time>
      </trkpt>
      <trkpt lat="37.3317990" lon="-2.5114880">
        <ele>979.0</ele>
        <time>2021-04-18T09:04:16Z</time>
      </trkpt>
      <trkpt lat="37.3317770" lon="-2.5114810">
        <ele>979.4</ele>
        <time>2021-04-18T09:04:17Z</time>
      </trkpt>
      <trkpt lat="37.3317530" lon="-2.5114760">
        <ele>979.4</ele>
        <time>2021-04-18T09:04:18Z</time>
      </trkpt>
      <trkpt lat="37.3317360" lon="-2.5114720">
        <ele>979.6</ele>
        <time>2021-04-18T09:04:19Z</time>
      </trkpt>
      <trkpt lat="37.3317090" lon="-2.5114650">
        <ele>979.8</ele>
        <time>2021-04-18T09:04:20Z</time>
      </trkpt>
      <trkpt lat="37.3316850" lon="-2.5114610">
        <ele>980.0</ele>
        <time>2021-04-18T09:04:21Z</time>
      </trkpt>
      <trkpt lat="37.3316640" lon="-2.5114540">
        <ele>980.2</ele>
        <time>2021-04-18T09:04:22Z</time>
      </trkpt>
      <trkpt lat="37.3316480" lon="-2.5114480">
        <ele>980.4</ele>
        <time>2021-04-18T09:04:23Z</time>
      </trkpt>
      <trkpt lat="37.3316300" lon="-2.5114360">
        <ele>980.4</ele>
        <time>2021-04-18T09:04:24Z</time>
      </trkpt>
      <trkpt lat="37.3316080" lon="-2.5114230">
        <ele>980.4</ele>
        <time>2021-04-18T09:04:25Z</time>
      </trkpt>
      <trkpt lat="37.3315870" lon="-2.5114180">
        <ele>980.6</ele>
        <time>2021-04-18T09:04:26Z</time>
      </trkpt>
      <trkpt lat="37.3315660" lon="-2.5114150">
        <ele>980.8</ele>
        <time>2021-04-18T09:04:27Z</time>
      </trkpt>
      <trkpt lat="37.3315490" lon="-2.5114140">
        <ele>981.0</ele>
        <time>2021-04-18T09:04:28Z</time>
      </trkpt>
      <trkpt lat="37.3315230" lon="-2.5114110">
        <ele>981.2</ele>
        <time>2021-04-18T09:04:29Z</time>
      </trkpt>
      <trkpt lat="37.3315020" lon="-2.5114050">
        <ele>981.4</ele>
        <time>2021-04-18T09:04:30Z</time>
      </trkpt>
      <trkpt lat="37.3314810" lon="-2.5113960">
        <ele>981.8</ele>
        <time>2021-04-18T09:04:31Z</time>
      </trkpt>
      <trkpt lat="37.3314600" lon="-2.5113880">
        <ele>982.0</ele>
        <time>2021-04-18T09:04:32Z</time>
      </trkpt>
      <trkpt lat="37.3314370" lon="-2.5113820">
        <ele>982.0</ele>
        <time>2021-04-18T09:04:33Z</time>
      </trkpt>
      <trkpt lat="37.3314180" lon="-2.5113780">
        <ele>982.2</ele>
        <time>2021-04-18T09:04:34Z</time>
      </trkpt>
      <trkpt lat="37.3313940" lon="-2.5113740">
        <ele>982.4</ele>
        <time>2021-04-18T09:04:35Z</time>
      </trkpt>
      <trkpt lat="37.3313670" lon="-2.5113680">
        <ele>982.6</ele>
        <time>2021-04-18T09:04:36Z</time>
      </trkpt>
      <trkpt lat="37.3313460" lon="-2.5113640">
        <ele>982.8</ele>
        <time>2021-04-18T09:04:37Z</time>
      </trkpt>
      <trkpt lat="37.3313260" lon="-2.5113550">
        <ele>982.8</ele>
        <time>2021-04-18T09:04:38Z</time>
      </trkpt>
      <trkpt lat="37.3313050" lon="-2.5113470">
        <ele>983.0</ele>
        <time>2021-04-18T09:04:39Z</time>
      </trkpt>
      <trkpt lat="37.3312880" lon="-2.5113460">
        <ele>983.2</ele>
        <time>2021-04-18T09:04:40Z</time>
      </trkpt>
      <trkpt lat="37.3312660" lon="-2.5113400">
        <ele>983.4</ele>
        <time>2021-04-18T09:04:41Z</time>
      </trkpt>
      <trkpt lat="37.3312480" lon="-2.5113290">
        <ele>983.4</ele>
        <time>2021-04-18T09:04:42Z</time>
      </trkpt>
      <trkpt lat="37.3312260" lon="-2.5113210">
        <ele>983.6</ele>
        <time>2021-04-18T09:04:43Z</time>
      </trkpt>
      <trkpt lat="37.3312090" lon="-2.5113160">
        <ele>983.8</ele>
        <time>2021-04-18T09:04:44Z</time>
      </trkpt>
      <trkpt lat="37.3311890" lon="-2.5113110">
        <ele>984.0</ele>
        <time>2021-04-18T09:04:45Z</time>
      </trkpt>
      <trkpt lat="37.3311640" lon="-2.5113020">
        <ele>984.2</ele>
        <time>2021-04-18T09:04:46Z</time>
      </trkpt>
      <trkpt lat="37.3311450" lon="-2.5112940">
        <ele>984.4</ele>
        <time>2021-04-18T09:04:47Z</time>
      </trkpt>
      <trkpt lat="37.3311230" lon="-2.5112860">
        <ele>984.8</ele>
        <time>2021-04-18T09:04:48Z</time>
      </trkpt>
      <trkpt lat="37.3311020" lon="-2.5112800">
        <ele>984.8</ele>
        <time>2021-04-18T09:04:49Z</time>
      </trkpt>
      <trkpt lat="37.3310850" lon="-2.5112760">
        <ele>985.2</ele>
        <time>2021-04-18T09:04:50Z</time>
      </trkpt>
      <trkpt lat="37.3310600" lon="-2.5112700">
        <ele>985.4</ele>
        <time>2021-04-18T09:04:51Z</time>
      </trkpt>
      <trkpt lat="37.3310390" lon="-2.5112640">
        <ele>985.4</ele>
        <time>2021-04-18T09:04:52Z</time>
      </trkpt>
      <trkpt lat="37.3310190" lon="-2.5112570">
        <ele>985.6</ele>
        <time>2021-04-18T09:04:53Z</time>
      </trkpt>
      <trkpt lat="37.3310010" lon="-2.5112490">
        <ele>985.8</ele>
        <time>2021-04-18T09:04:54Z</time>
      </trkpt>
      <trkpt lat="37.3309850" lon="-2.5112460">
        <ele>985.8</ele>
        <time>2021-04-18T09:04:55Z</time>
      </trkpt>
      <trkpt lat="37.3309610" lon="-2.5112420">
        <ele>986.0</ele>
        <time>2021-04-18T09:04:56Z</time>
      </trkpt>
      <trkpt lat="37.3309390" lon="-2.5112350">
        <ele>986.2</ele>
        <time>2021-04-18T09:04:57Z</time>
      </trkpt>
      <trkpt lat="37.3309180" lon="-2.5112270">
        <ele>986.6</ele>
        <time>2021-04-18T09:04:58Z</time>
      </trkpt>
      <trkpt lat="37.3308970" lon="-2.5112190">
        <ele>986.8</ele>
        <time>2021-04-18T09:04:59Z</time>
      </trkpt>
      <trkpt lat="37.3308800" lon="-2.5112140">
        <ele>987.0</ele>
        <time>2021-04-18T09:05:00Z</time>
      </trkpt>
      <trkpt lat="37.3308600" lon="-2.5112080">
        <ele>987.2</ele>
        <time>2021-04-18T09:05:01Z</time>
      </trkpt>
      <trkpt lat="37.3308390" lon="-2.5112010">
        <ele>987.4</ele>
        <time>2021-04-18T09:05:02Z</time>
      </trkpt>
      <trkpt lat="37.3308180" lon="-2.5111970">
        <ele>987.6</ele>
        <time>2021-04-18T09:05:03Z</time>
      </trkpt>
      <trkpt lat="37.3307960" lon="-2.5111960">
        <ele>987.8</ele>
        <time>2021-04-18T09:05:04Z</time>
      </trkpt>
      <trkpt lat="37.3307720" lon="-2.5111920">
        <ele>988.0</ele>
        <time>2021-04-18T09:05:05Z</time>
      </trkpt>
      <trkpt lat="37.3307520" lon="-2.5111860">
        <ele>988.2</ele>
        <time>2021-04-18T09:05:06Z</time>
      </trkpt>
      <trkpt lat="37.3307270" lon="-2.5111780">
        <ele>988.4</ele>
        <time>2021-04-18T09:05:07Z</time>
      </trkpt>
      <trkpt lat="37.3307060" lon="-2.5111740">
        <ele>988.4</ele>
        <time>2021-04-18T09:05:08Z</time>
      </trkpt>
      <trkpt lat="37.3306840" lon="-2.5111700">
        <ele>988.6</ele>
        <time>2021-04-18T09:05:09Z</time>
      </trkpt>
      <trkpt lat="37.3306620" lon="-2.5111640">
        <ele>988.8</ele>
        <time>2021-04-18T09:05:10Z</time>
      </trkpt>
      <trkpt lat="37.3306460" lon="-2.5111620">
        <ele>989.0</ele>
        <time>2021-04-18T09:05:11Z</time>
      </trkpt>
      <trkpt lat="37.3306260" lon="-2.5111600">
        <ele>989.2</ele>
        <time>2021-04-18T09:05:12Z</time>
      </trkpt>
      <trkpt lat="37.3306030" lon="-2.5111550">
        <ele>989.2</ele>
        <time>2021-04-18T09:05:13Z</time>
      </trkpt>
      <trkpt lat="37.3305840" lon="-2.5111500">
        <ele>989.4</ele>
        <time>2021-04-18T09:05:14Z</time>
      </trkpt>
      <trkpt lat="37.3305640" lon="-2.5111460">
        <ele>989.6</ele>
        <time>2021-04-18T09:05:15Z</time>
      </trkpt>
      <trkpt lat="37.3305420" lon="-2.5111430">
        <ele>989.8</ele>
        <time>2021-04-18T09:05:16Z</time>
      </trkpt>
      <trkpt lat="37.3305240" lon="-2.5111420">
        <ele>990.0</ele>
        <time>2021-04-18T09:05:17Z</time>
      </trkpt>
      <trkpt lat="37.3304970" lon="-2.5111400">
        <ele>990.2</ele>
        <time>2021-04-18T09:05:18Z</time>
      </trkpt>
      <trkpt lat="37.3304770" lon="-2.5111360">
        <ele>990.6</ele>
        <time>2021-04-18T09:05:19Z</time>
      </trkpt>
      <trkpt lat="37.3304560" lon="-2.5111310">
        <ele>990.6</ele>
        <time>2021-04-18T09:05:20Z</time>
      </trkpt>
      <trkpt lat="37.3304330" lon="-2.5111290">
        <ele>990.8</ele>
        <time>2021-04-18T09:05:21Z</time>
      </trkpt>
      <trkpt lat="37.3304110" lon="-2.5111270">
        <ele>991.0</ele>
        <time>2021-04-18T09:05:22Z</time>
      </trkpt>
      <trkpt lat="37.3303940" lon="-2.5111280">
        <ele>991.0</ele>
        <time>2021-04-18T09:05:23Z</time>
      </trkpt>
      <trkpt lat="37.3303650" lon="-2.5111240">
        <ele>991.2</ele>
        <time>2021-04-18T09:05:24Z</time>
      </trkpt>
      <trkpt lat="37.3303460" lon="-2.5111210">
        <ele>991.4</ele>
        <time>2021-04-18T09:05:25Z</time>
      </trkpt>
      <trkpt lat="37.3303200" lon="-2.5111160">
        <ele>991.4</ele>
        <time>2021-04-18T09:05:26Z</time>
      </trkpt>
      <trkpt lat="37.3302910" lon="-2.5111100">
        <ele>991.6</ele>
        <time>2021-04-18T09:05:27Z</time>
      </trkpt>
      <trkpt lat="37.3302680" lon="-2.5111060">
        <ele>991.6</ele>
        <time>2021-04-18T09:05:28Z</time>
      </trkpt>
      <trkpt lat="37.3302460" lon="-2.5111080">
        <ele>991.8</ele>
        <time>2021-04-18T09:05:29Z</time>
      </trkpt>
      <trkpt lat="37.3302260" lon="-2.5111120">
        <ele>991.8</ele>
        <time>2021-04-18T09:05:30Z</time>
      </trkpt>
      <trkpt lat="37.3302020" lon="-2.5111110">
        <ele>992.2</ele>
        <time>2021-04-18T09:05:31Z</time>
      </trkpt>
      <trkpt lat="37.3301770" lon="-2.5111090">
        <ele>992.4</ele>
        <time>2021-04-18T09:05:32Z</time>
      </trkpt>
      <trkpt lat="37.3301520" lon="-2.5111080">
        <ele>992.8</ele>
        <time>2021-04-18T09:05:33Z</time>
      </trkpt>
      <trkpt lat="37.3301270" lon="-2.5111060">
        <ele>993.0</ele>
        <time>2021-04-18T09:05:34Z</time>
      </trkpt>
      <trkpt lat="37.3301050" lon="-2.5111040">
        <ele>993.2</ele>
        <time>2021-04-18T09:05:35Z</time>
      </trkpt>
      <trkpt lat="37.3300820" lon="-2.5111040">
        <ele>993.6</ele>
        <time>2021-04-18T09:05:36Z</time>
      </trkpt>
      <trkpt lat="37.3300600" lon="-2.5111020">
        <ele>993.8</ele>
        <time>2021-04-18T09:05:37Z</time>
      </trkpt>
      <trkpt lat="37.3300360" lon="-2.5111010">
        <ele>994.0</ele>
        <time>2021-04-18T09:05:38Z</time>
      </trkpt>
      <trkpt lat="37.3300090" lon="-2.5111030">
        <ele>994.2</ele>
        <time>2021-04-18T09:05:39Z</time>
      </trkpt>
      <trkpt lat="37.3299860" lon="-2.5111050">
        <ele>994.4</ele>
        <time>2021-04-18T09:05:40Z</time>
      </trkpt>
      <trkpt lat="37.3299630" lon="-2.5111050">
        <ele>994.8</ele>
        <time>2021-04-18T09:05:41Z</time>
      </trkpt>
      <trkpt lat="37.3299460" lon="-2.5111060">
        <ele>995.0</ele>
        <time>2021-04-18T09:05:42Z</time>
      </trkpt>
      <trkpt lat="37.3299250" lon="-2.5111080">
        <ele>995.2</ele>
        <time>2021-04-18T09:05:43Z</time>
      </trkpt>
      <trkpt lat="37.3299030" lon="-2.5111080">
        <ele>995.2</ele>
        <time>2021-04-18T09:05:44Z</time>
      </trkpt>
      <trkpt lat="37.3298830" lon="-2.5111060">
        <ele>995.4</ele>
        <time>2021-04-18T09:05:45Z</time>
      </trkpt>
      <trkpt lat="37.3298640" lon="-2.5111050">
        <ele>995.4</ele>
        <time>2021-04-18T09:05:46Z</time>
      </trkpt>
      <trkpt lat="37.3298460" lon="-2.5111060">
        <ele>995.6</ele>
        <time>2021-04-18T09:05:47Z</time>
      </trkpt>
      <trkpt lat="37.3298300" lon="-2.5111050">
        <ele>996.0</ele>
        <time>2021-04-18T09:05:48Z</time>
      </trkpt>
      <trkpt lat="37.3298110" lon="-2.5111040">
        <ele>996.0</ele>
        <time>2021-04-18T09:05:49Z</time>
      </trkpt>
      <trkpt lat="37.3297890" lon="-2.5111030">
        <ele>996.2</ele>
        <time>2021-04-18T09:05:50Z</time>
      </trkpt>
      <trkpt lat="37.3297710" lon="-2.5111060">
        <ele>996.2</ele>
        <time>2021-04-18T09:05:51Z</time>
      </trkpt>
      <trkpt lat="37.3297500" lon="-2.5111110">
        <ele>996.6</ele>
        <time>2021-04-18T09:05:52Z</time>
      </trkpt>
      <trkpt lat="37.3297280" lon="-2.5111150">
        <ele>996.8</ele>
        <time>2021-04-18T09:05:53Z</time>
      </trkpt>
      <trkpt lat="37.3297080" lon="-2.5111150">
        <ele>996.8</ele>
        <time>2021-04-18T09:05:54Z</time>
      </trkpt>
      <trkpt lat="37.3296890" lon="-2.5111080">
        <ele>997.0</ele>
        <time>2021-04-18T09:05:55Z</time>
      </trkpt>
      <trkpt lat="37.3296680" lon="-2.5111040">
        <ele>997.2</ele>
        <time>2021-04-18T09:05:56Z</time>
      </trkpt>
      <trkpt lat="37.3296480" lon="-2.5111000">
        <ele>997.4</ele>
        <time>2021-04-18T09:05:57Z</time>
      </trkpt>
      <trkpt lat="37.3296270" lon="-2.5110960">
        <ele>997.4</ele>
        <time>2021-04-18T09:05:58Z</time>
      </trkpt>
      <trkpt lat="37.3296100" lon="-2.5110910">
        <ele>997.8</ele>
        <time>2021-04-18T09:05:59Z</time>
      </trkpt>
      <trkpt lat="37.3295870" lon="-2.5110860">
        <ele>997.8</ele>
        <time>2021-04-18T09:06:00Z</time>
      </trkpt>
      <trkpt lat="37.3295660" lon="-2.5110850">
        <ele>998.0</ele>
        <time>2021-04-18T09:06:01Z</time>
      </trkpt>
      <trkpt lat="37.3295490" lon="-2.5110840">
        <ele>998.2</ele>
        <time>2021-04-18T09:06:02Z</time>
      </trkpt>
      <trkpt lat="37.3295300" lon="-2.5110800">
        <ele>998.4</ele>
        <time>2021-04-18T09:06:03Z</time>
      </trkpt>
      <trkpt lat="37.3295110" lon="-2.5110750">
        <ele>998.6</ele>
        <time>2021-04-18T09:06:04Z</time>
      </trkpt>
      <trkpt lat="37.3294930" lon="-2.5110690">
        <ele>999.0</ele>
        <time>2021-04-18T09:06:05Z</time>
      </trkpt>
      <trkpt lat="37.3294740" lon="-2.5110600">
        <ele>999.0</ele>
        <time>2021-04-18T09:06:06Z</time>
      </trkpt>
      <trkpt lat="37.3294530" lon="-2.5110510">
        <ele>999.2</ele>
        <time>2021-04-18T09:06:07Z</time>
      </trkpt>
      <trkpt lat="37.3294260" lon="-2.5110380">
        <ele>999.4</ele>
        <time>2021-04-18T09:06:08Z</time>
      </trkpt>
      <trkpt lat="37.3294040" lon="-2.5110260">
        <ele>999.6</ele>
        <time>2021-04-18T09:06:09Z</time>
      </trkpt>
      <trkpt lat="37.3293820" lon="-2.5110140">
        <ele>999.8</ele>
        <time>2021-04-18T09:06:10Z</time>
      </trkpt>
      <trkpt lat="37.3293600" lon="-2.5110030">
        <ele>999.8</ele>
        <time>2021-04-18T09:06:11Z</time>
      </trkpt>
      <trkpt lat="37.3293390" lon="-2.5109900">
        <ele>1000.0</ele>
        <time>2021-04-18T09:06:12Z</time>
      </trkpt>
      <trkpt lat="37.3293180" lon="-2.5109760">
        <ele>1000.0</ele>
        <time>2021-04-18T09:06:13Z</time>
      </trkpt>
      <trkpt lat="37.3292970" lon="-2.5109620">
        <ele>1000.2</ele>
        <time>2021-04-18T09:06:14Z</time>
      </trkpt>
      <trkpt lat="37.3292760" lon="-2.5109500">
        <ele>1000.4</ele>
        <time>2021-04-18T09:06:15Z</time>
      </trkpt>
      <trkpt lat="37.3292540" lon="-2.5109380">
        <ele>1000.6</ele>
        <time>2021-04-18T09:06:16Z</time>
      </trkpt>
      <trkpt lat="37.3292340" lon="-2.5109230">
        <ele>1000.8</ele>
        <time>2021-04-18T09:06:17Z</time>
      </trkpt>
      <trkpt lat="37.3292200" lon="-2.5109080">
        <ele>1001.2</ele>
        <time>2021-04-18T09:06:18Z</time>
      </trkpt>
      <trkpt lat="37.3291980" lon="-2.5108820">
        <ele>1001.4</ele>
        <time>2021-04-18T09:06:19Z</time>
      </trkpt>
      <trkpt lat="37.3291790" lon="-2.5108630">
        <ele>1001.4</ele>
        <time>2021-04-18T09:06:20Z</time>
      </trkpt>
      <trkpt lat="37.3291620" lon="-2.5108530">
        <ele>1001.6</ele>
        <time>2021-04-18T09:06:21Z</time>
      </trkpt>
      <trkpt lat="37.3291380" lon="-2.5108430">
        <ele>1001.8</ele>
        <time>2021-04-18T09:06:22Z</time>
      </trkpt>
      <trkpt lat="37.3291180" lon="-2.5108320">
        <ele>1002.0</ele>
        <time>2021-04-18T09:06:23Z</time>
      </trkpt>
      <trkpt lat="37.3290980" lon="-2.5108190">
        <ele>1002.4</ele>
        <time>2021-04-18T09:06:24Z</time>
      </trkpt>
      <trkpt lat="37.3290760" lon="-2.5108050">
        <ele>1002.6</ele>
        <time>2021-04-18T09:06:25Z</time>
      </trkpt>
      <trkpt lat="37.3290550" lon="-2.5107930">
        <ele>1003.0</ele>
        <time>2021-04-18T09:06:26Z</time>
      </trkpt>
      <trkpt lat="37.3290390" lon="-2.5107800">
        <ele>1003.0</ele>
        <time>2021-04-18T09:06:27Z</time>
      </trkpt>
      <trkpt lat="37.3290170" lon="-2.5107600">
        <ele>1003.2</ele>
        <time>2021-04-18T09:06:28Z</time>
      </trkpt>
      <trkpt lat="37.3289990" lon="-2.5107460">
        <ele>1003.4</ele>
        <time>2021-04-18T09:06:29Z</time>
      </trkpt>
      <trkpt lat="37.3289810" lon="-2.5107340">
        <ele>1003.6</ele>
        <time>2021-04-18T09:06:30Z</time>
      </trkpt>
      <trkpt lat="37.3289680" lon="-2.5107240">
        <ele>1003.8</ele>
        <time>2021-04-18T09:06:31Z</time>
      </trkpt>
      <trkpt lat="37.3289450" lon="-2.5107050">
        <ele>1004.0</ele>
        <time>2021-04-18T09:06:32Z</time>
      </trkpt>
      <trkpt lat="37.3289300" lon="-2.5106940">
        <ele>1004.2</ele>
        <time>2021-04-18T09:06:33Z</time>
      </trkpt>
      <trkpt lat="37.3289080" lon="-2.5106760">
        <ele>1004.2</ele>
        <time>2021-04-18T09:06:34Z</time>
      </trkpt>
      <trkpt lat="37.3288900" lon="-2.5106610">
        <ele>1004.4</ele>
        <time>2021-04-18T09:06:35Z</time>
      </trkpt>
      <trkpt lat="37.3288720" lon="-2.5106440">
        <ele>1004.6</ele>
        <time>2021-04-18T09:06:36Z</time>
      </trkpt>
      <trkpt lat="37.3288570" lon="-2.5106330">
        <ele>1004.8</ele>
        <time>2021-04-18T09:06:37Z</time>
      </trkpt>
      <trkpt lat="37.3288330" lon="-2.5106140">
        <ele>1005.2</ele>
        <time>2021-04-18T09:06:38Z</time>
      </trkpt>
      <trkpt lat="37.3288110" lon="-2.5105980">
        <ele>1005.2</ele>
        <time>2021-04-18T09:06:39Z</time>
      </trkpt>
      <trkpt lat="37.3287910" lon="-2.5105830">
        <ele>1005.4</ele>
        <time>2021-04-18T09:06:40Z</time>
      </trkpt>
      <trkpt lat="37.3287700" lon="-2.5105700">
        <ele>1005.6</ele>
        <time>2021-04-18T09:06:41Z</time>
      </trkpt>
      <trkpt lat="37.3287560" lon="-2.5105610">
        <ele>1005.6</ele>
        <time>2021-04-18T09:06:42Z</time>
      </trkpt>
      <trkpt lat="37.3287350" lon="-2.5105440">
        <ele>1006.0</ele>
        <time>2021-04-18T09:06:43Z</time>
      </trkpt>
      <trkpt lat="37.3287190" lon="-2.5105310">
        <ele>1006.2</ele>
        <time>2021-04-18T09:06:44Z</time>
      </trkpt>
      <trkpt lat="37.3287040" lon="-2.5105220">
        <ele>1006.2</ele>
        <time>2021-04-18T09:06:45Z</time>
      </trkpt>
      <trkpt lat="37.3286900" lon="-2.5105140">
        <ele>1006.2</ele>
        <time>2021-04-18T09:06:46Z</time>
      </trkpt>
      <trkpt lat="37.3286780" lon="-2.5105020">
        <ele>1006.4</ele>
        <time>2021-04-18T09:06:47Z</time>
      </trkpt>
      <trkpt lat="37.3286670" lon="-2.5104910">
        <ele>1006.6</ele>
        <time>2021-04-18T09:06:48Z</time>
      </trkpt>
      <trkpt lat="37.3286540" lon="-2.5104800">
        <ele>1006.6</ele>
        <time>2021-04-18T09:06:49Z</time>
      </trkpt>
      <trkpt lat="37.3286450" lon="-2.5104680">
        <ele>1006.8</ele>
        <time>2021-04-18T09:06:50Z</time>
      </trkpt>
      <trkpt lat="37.3286370" lon="-2.5104520">
        <ele>1007.0</ele>
        <time>2021-04-18T09:06:51Z</time>
      </trkpt>
      <trkpt lat="37.3286300" lon="-2.5104340">
        <ele>1007.0</ele>
        <time>2021-04-18T09:06:52Z</time>
      </trkpt>
      <trkpt lat="37.3286230" lon="-2.5104130">
        <ele>1007.2</ele>
        <time>2021-04-18T09:06:53Z</time>
      </trkpt>
      <trkpt lat="37.3286150" lon="-2.5103910">
        <ele>1007.2</ele>
        <time>2021-04-18T09:06:54Z</time>
      </trkpt>
      <trkpt lat="37.3286050" lon="-2.5103720">
        <ele>1007.6</ele>
        <time>2021-04-18T09:06:55Z</time>
      </trkpt>
      <trkpt lat="37.3285920" lon="-2.5103540">
        <ele>1007.6</ele>
        <time>2021-04-18T09:06:56Z</time>
      </trkpt>
      <trkpt lat="37.3285790" lon="-2.5103340">
        <ele>1008.0</ele>
        <time>2021-04-18T09:06:57Z</time>
      </trkpt>
      <trkpt lat="37.3285670" lon="-2.5103130">
        <ele>1008.2</ele>
        <time>2021-04-18T09:06:58Z</time>
      </trkpt>
      <trkpt lat="37.3285530" lon="-2.5102920">
        <ele>1008.4</ele>
        <time>2021-04-18T09:06:59Z</time>
      </trkpt>
      <trkpt lat="37.3285400" lon="-2.5102710">
        <ele>1008.4</ele>
        <time>2021-04-18T09:07:00Z</time>
      </trkpt>
      <trkpt lat="37.3285260" lon="-2.5102490">
        <ele>1008.6</ele>
        <time>2021-04-18T09:07:01Z</time>
      </trkpt>
      <trkpt lat="37.3285130" lon="-2.5102290">
        <ele>1008.8</ele>
        <time>2021-04-18T09:07:02Z</time>
      </trkpt>
      <trkpt lat="37.3284970" lon="-2.5102100">
        <ele>1009.0</ele>
        <time>2021-04-18T09:07:03Z</time>
      </trkpt>
      <trkpt lat="37.3284840" lon="-2.5101880">
        <ele>1009.2</ele>
        <time>2021-04-18T09:07:04Z</time>
      </trkpt>
      <trkpt lat="37.3284740" lon="-2.5101650">
        <ele>1009.2</ele>
        <time>2021-04-18T09:07:05Z</time>
      </trkpt>
      <trkpt lat="37.3284620" lon="-2.5101450">
        <ele>1009.4</ele>
        <time>2021-04-18T09:07:06Z</time>
      </trkpt>
      <trkpt lat="37.3284480" lon="-2.5101300">
        <ele>1009.6</ele>
        <time>2021-04-18T09:07:07Z</time>
      </trkpt>
      <trkpt lat="37.3284320" lon="-2.5101200">
        <ele>1009.8</ele>
        <time>2021-04-18T09:07:08Z</time>
      </trkpt>
      <trkpt lat="37.3284160" lon="-2.5101130">
        <ele>1009.8</ele>
        <time>2021-04-18T09:07:09Z</time>
      </trkpt>
      <trkpt lat="37.3284010" lon="-2.5101020">
        <ele>1009.8</ele>
        <time>2021-04-18T09:07:10Z</time>
      </trkpt>
      <trkpt lat="37.3283860" lon="-2.5100890">
        <ele>1010.4</ele>
        <time>2021-04-18T09:07:11Z</time>
      </trkpt>
      <trkpt lat="37.3283750" lon="-2.5100740">
        <ele>1010.6</ele>
        <time>2021-04-18T09:07:12Z</time>
      </trkpt>
      <trkpt lat="37.3283620" lon="-2.5100590">
        <ele>1011.0</ele>
        <time>2021-04-18T09:07:13Z</time>
      </trkpt>
      <trkpt lat="37.3283470" lon="-2.5100430">
        <ele>1011.2</ele>
        <time>2021-04-18T09:07:14Z</time>
      </trkpt>
      <trkpt lat="37.3283320" lon="-2.5100250">
        <ele>1011.4</ele>
        <time>2021-04-18T09:07:15Z</time>
      </trkpt>
      <trkpt lat="37.3283190" lon="-2.5100110">
        <ele>1011.6</ele>
        <time>2021-04-18T09:07:16Z</time>
      </trkpt>
      <trkpt lat="37.3283030" lon="-2.5099990">
        <ele>1011.8</ele>
        <time>2021-04-18T09:07:17Z</time>
      </trkpt>
      <trkpt lat="37.3282860" lon="-2.5099870">
        <ele>1012.2</ele>
        <time>2021-04-18T09:07:18Z</time>
      </trkpt>
      <trkpt lat="37.3282750" lon="-2.5099730">
        <ele>1012.4</ele>
        <time>2021-04-18T09:07:19Z</time>
      </trkpt>
      <trkpt lat="37.3282660" lon="-2.5099570">
        <ele>1012.6</ele>
        <time>2021-04-18T09:07:20Z</time>
      </trkpt>
      <trkpt lat="37.3282530" lon="-2.5099430">
        <ele>1013.0</ele>
        <time>2021-04-18T09:07:21Z</time>
      </trkpt>
      <trkpt lat="37.3282360" lon="-2.5099320">
        <ele>1013.2</ele>
        <time>2021-04-18T09:07:22Z</time>
      </trkpt>
      <trkpt lat="37.3282250" lon="-2.5099250">
        <ele>1013.8</ele>
        <time>2021-04-18T09:07:23Z</time>
      </trkpt>
      <trkpt lat="37.3282110" lon="-2.5099130">
        <ele>1014.0</ele>
        <time>2021-04-18T09:07:24Z</time>
      </trkpt>
      <trkpt lat="37.3281960" lon="-2.5099020">
        <ele>1014.4</ele>
        <time>2021-04-18T09:07:25Z</time>
      </trkpt>
      <trkpt lat="37.3281790" lon="-2.5098920">
        <ele>1014.8</ele>
        <time>2021-04-18T09:07:26Z</time>
      </trkpt>
      <trkpt lat="37.3281630" lon="-2.5098830">
        <ele>1015.0</ele>
        <time>2021-04-18T09:07:27Z</time>
      </trkpt>
      <trkpt lat="37.3281480" lon="-2.5098720">
        <ele>1015.4</ele>
        <time>2021-04-18T09:07:28Z</time>
      </trkpt>
      <trkpt lat="37.3281360" lon="-2.5098600">
        <ele>1015.6</ele>
        <time>2021-04-18T09:07:29Z</time>
      </trkpt>
      <trkpt lat="37.3281220" lon="-2.5098460">
        <ele>1016.0</ele>
        <time>2021-04-18T09:07:30Z</time>
      </trkpt>
      <trkpt lat="37.3281070" lon="-2.5098330">
        <ele>1016.4</ele>
        <time>2021-04-18T09:07:31Z</time>
      </trkpt>
      <trkpt lat="37.3280910" lon="-2.5098210">
        <ele>1016.4</ele>
        <time>2021-04-18T09:07:32Z</time>
      </trkpt>
      <trkpt lat="37.3280800" lon="-2.5098100">
        <ele>1016.8</ele>
        <time>2021-04-18T09:07:33Z</time>
      </trkpt>
      <trkpt lat="37.3280630" lon="-2.5097990">
        <ele>1017.0</ele>
        <time>2021-04-18T09:07:34Z</time>
      </trkpt>
      <trkpt lat="37.3280460" lon="-2.5097840">
        <ele>1017.2</ele>
        <time>2021-04-18T09:07:35Z</time>
      </trkpt>
      <trkpt lat="37.3280280" lon="-2.5097690">
        <ele>1017.4</ele>
        <time>2021-04-18T09:07:36Z</time>
      </trkpt>
      <trkpt lat="37.3280140" lon="-2.5097550">
        <ele>1017.8</ele>
        <time>2021-04-18T09:07:37Z</time>
      </trkpt>
      <trkpt lat="37.3279950" lon="-2.5097330">
        <ele>1017.8</ele>
        <time>2021-04-18T09:07:38Z</time>
      </trkpt>
      <trkpt lat="37.3279810" lon="-2.5097150">
        <ele>1017.8</ele>
        <time>2021-04-18T09:07:39Z</time>
      </trkpt>
      <trkpt lat="37.3279690" lon="-2.5096960">
        <ele>1018.2</ele>
        <time>2021-04-18T09:07:40Z</time>
      </trkpt>
      <trkpt lat="37.3279570" lon="-2.5096780">
        <ele>1018.4</ele>
        <time>2021-04-18T09:07:41Z</time>
      </trkpt>
      <trkpt lat="37.3279480" lon="-2.5096630">
        <ele>1018.6</ele>
        <time>2021-04-18T09:07:42Z</time>
      </trkpt>
      <trkpt lat="37.3279360" lon="-2.5096420">
        <ele>1018.6</ele>
        <time>2021-04-18T09:07:43Z</time>
      </trkpt>
      <trkpt lat="37.3279220" lon="-2.5096180">
        <ele>1018.8</ele>
        <time>2021-04-18T09:07:44Z</time>
      </trkpt>
      <trkpt lat="37.3279100" lon="-2.5095980">
        <ele>1019.0</ele>
        <time>2021-04-18T09:07:45Z</time>
      </trkpt>
      <trkpt lat="37.3279010" lon="-2.5095760">
        <ele>1019.2</ele>
        <time>2021-04-18T09:07:46Z</time>
      </trkpt>
      <trkpt lat="37.3278910" lon="-2.5095570">
        <ele>1019.6</ele>
        <time>2021-04-18T09:07:47Z</time>
      </trkpt>
      <trkpt lat="37.3278780" lon="-2.5095410">
        <ele>1019.8</ele>
        <time>2021-04-18T09:07:48Z</time>
      </trkpt>
      <trkpt lat="37.3278650" lon="-2.5095230">
        <ele>1020.2</ele>
        <time>2021-04-18T09:07:49Z</time>
      </trkpt>
      <trkpt lat="37.3278500" lon="-2.5095060">
        <ele>1020.4</ele>
        <time>2021-04-18T09:07:50Z</time>
      </trkpt>
      <trkpt lat="37.3278350" lon="-2.5094920">
        <ele>1020.6</ele>
        <time>2021-04-18T09:07:51Z</time>
      </trkpt>
      <trkpt lat="37.3278220" lon="-2.5094790">
        <ele>1021.0</ele>
        <time>2021-04-18T09:07:52Z</time>
      </trkpt>
      <trkpt lat="37.3278100" lon="-2.5094650">
        <ele>1021.2</ele>
        <time>2021-04-18T09:07:53Z</time>
      </trkpt>
      <trkpt lat="37.3277990" lon="-2.5094500">
        <ele>1021.4</ele>
        <time>2021-04-18T09:07:54Z</time>
      </trkpt>
      <trkpt lat="37.3277900" lon="-2.5094320">
        <ele>1021.6</ele>
        <time>2021-04-18T09:07:55Z</time>
      </trkpt>
      <trkpt lat="37.3277800" lon="-2.5094110">
        <ele>1021.8</ele>
        <time>2021-04-18T09:07:56Z</time>
      </trkpt>
      <trkpt lat="37.3277730" lon="-2.5093880">
        <ele>1022.0</ele>
        <time>2021-04-18T09:07:57Z</time>
      </trkpt>
      <trkpt lat="37.3277650" lon="-2.5093660">
        <ele>1022.2</ele>
        <time>2021-04-18T09:07:58Z</time>
      </trkpt>
      <trkpt lat="37.3277550" lon="-2.5093440">
        <ele>1022.2</ele>
        <time>2021-04-18T09:07:59Z</time>
      </trkpt>
      <trkpt lat="37.3277430" lon="-2.5093260">
        <ele>1022.4</ele>
        <time>2021-04-18T09:08:00Z</time>
      </trkpt>
      <trkpt lat="37.3277290" lon="-2.5093100">
        <ele>1022.8</ele>
        <time>2021-04-18T09:08:01Z</time>
      </trkpt>
      <trkpt lat="37.3277160" lon="-2.5092940">
        <ele>1023.0</ele>
        <time>2021-04-18T09:08:02Z</time>
      </trkpt>
      <trkpt lat="37.3277020" lon="-2.5092790">
        <ele>1023.0</ele>
        <time>2021-04-18T09:08:03Z</time>
      </trkpt>
      <trkpt lat="37.3276880" lon="-2.5092620">
        <ele>1023.2</ele>
        <time>2021-04-18T09:08:04Z</time>
      </trkpt>
      <trkpt lat="37.3276730" lon="-2.5092460">
        <ele>1023.4</ele>
        <time>2021-04-18T09:08:05Z</time>
      </trkpt>
      <trkpt lat="37.3276620" lon="-2.5092280">
        <ele>1023.4</ele>
        <time>2021-04-18T09:08:06Z</time>
      </trkpt>
      <trkpt lat="37.3276540" lon="-2.5092090">
        <ele>1023.6</ele>
        <time>2021-04-18T09:08:07Z</time>
      </trkpt>
      <trkpt lat="37.3276460" lon="-2.5091890">
        <ele>1023.8</ele>
        <time>2021-04-18T09:08:08Z</time>
      </trkpt>
      <trkpt lat="37.3276380" lon="-2.5091680">
        <ele>1024.0</ele>
        <time>2021-04-18T09:08:09Z</time>
      </trkpt>
      <trkpt lat="37.3276270" lon="-2.5091500">
        <ele>1024.0</ele>
        <time>2021-04-18T09:08:10Z</time>
      </trkpt>
      <trkpt lat="37.3276150" lon="-2.5091330">
        <ele>1024.4</ele>
        <time>2021-04-18T09:08:11Z</time>
      </trkpt>
      <trkpt lat="37.3276060" lon="-2.5091200">
        <ele>1024.4</ele>
        <time>2021-04-18T09:08:12Z</time>
      </trkpt>
      <trkpt lat="37.3275910" lon="-2.5091000">
        <ele>1024.8</ele>
        <time>2021-04-18T09:08:13Z</time>
      </trkpt>
      <trkpt lat="37.3275810" lon="-2.5090830">
        <ele>1025.0</ele>
        <time>2021-04-18T09:08:14Z</time>
      </trkpt>
      <trkpt lat="37.3275680" lon="-2.5090690">
        <ele>1025.0</ele>
        <time>2021-04-18T09:08:15Z</time>
      </trkpt>
      <trkpt lat="37.3275580" lon="-2.5090580">
        <ele>1025.4</ele>
        <time>2021-04-18T09:08:16Z</time>
      </trkpt>
      <trkpt lat="37.3275460" lon="-2.5090440">
        <ele>1025.4</ele>
        <time>2021-04-18T09:08:17Z</time>
      </trkpt>
      <trkpt lat="37.3275380" lon="-2.5090280">
        <ele>1025.6</ele>
        <time>2021-04-18T09:08:18Z</time>
      </trkpt>
      <trkpt lat="37.3275330" lon="-2.5090080">
        <ele>1025.6</ele>
        <time>2021-04-18T09:08:19Z</time>
      </trkpt>
      <trkpt lat="37.3275330" lon="-2.5090080">
        <ele>1025.8</ele>
        <time>2021-04-18T09:08:20Z</time>
      </trkpt>
      <trkpt lat="37.3275190" lon="-2.5089710">
        <ele>1026.0</ele>
        <time>2021-04-18T09:08:21Z</time>
      </trkpt>
      <trkpt lat="37.3275130" lon="-2.5089490">
        <ele>1026.2</ele>
        <time>2021-04-18T09:08:22Z</time>
      </trkpt>
      <trkpt lat="37.3275080" lon="-2.5089270">
        <ele>1026.2</ele>
        <time>2021-04-18T09:08:23Z</time>
      </trkpt>
      <trkpt lat="37.3275040" lon="-2.5089040">
        <ele>1026.4</ele>
        <time>2021-04-18T09:08:24Z</time>
      </trkpt>
      <trkpt lat="37.3274990" lon="-2.5088830">
        <ele>1026.6</ele>
        <time>2021-04-18T09:08:25Z</time>
      </trkpt>
      <trkpt lat="37.3274940" lon="-2.5088620">
        <ele>1026.8</ele>
        <time>2021-04-18T09:08:26Z</time>
      </trkpt>
      <trkpt lat="37.3274900" lon="-2.5088410">
        <ele>1026.8</ele>
        <time>2021-04-18T09:08:27Z</time>
      </trkpt>
      <trkpt lat="37.3274880" lon="-2.5088160">
        <ele>1027.0</ele>
        <time>2021-04-18T09:08:28Z</time>
      </trkpt>
      <trkpt lat="37.3274870" lon="-2.5087940">
        <ele>1027.2</ele>
        <time>2021-04-18T09:08:29Z</time>
      </trkpt>
      <trkpt lat="37.3274840" lon="-2.5087730">
        <ele>1027.2</ele>
        <time>2021-04-18T09:08:30Z</time>
      </trkpt>
      <trkpt lat="37.3274820" lon="-2.5087510">
        <ele>1027.4</ele>
        <time>2021-04-18T09:08:31Z</time>
      </trkpt>
      <trkpt lat="37.3274790" lon="-2.5087340">
        <ele>1027.6</ele>
        <time>2021-04-18T09:08:32Z</time>
      </trkpt>
      <trkpt lat="37.3274780" lon="-2.5087060">
        <ele>1027.6</ele>
        <time>2021-04-18T09:08:33Z</time>
      </trkpt>
      <trkpt lat="37.3274770" lon="-2.5086830">
        <ele>1027.8</ele>
        <time>2021-04-18T09:08:34Z</time>
      </trkpt>
      <trkpt lat="37.3274750" lon="-2.5086600">
        <ele>1028.2</ele>
        <time>2021-04-18T09:08:35Z</time>
      </trkpt>
      <trkpt lat="37.3274710" lon="-2.5086410">
        <ele>1028.4</ele>
        <time>2021-04-18T09:08:36Z</time>
      </trkpt>
      <trkpt lat="37.3274650" lon="-2.5086190">
        <ele>1028.6</ele>
        <time>2021-04-18T09:08:37Z</time>
      </trkpt>
      <trkpt lat="37.3274560" lon="-2.5085950">
        <ele>1028.8</ele>
        <time>2021-04-18T09:08:38Z</time>
      </trkpt>
      <trkpt lat="37.3274530" lon="-2.5085730">
        <ele>1028.8</ele>
        <time>2021-04-18T09:08:39Z</time>
      </trkpt>
      <trkpt lat="37.3274540" lon="-2.5085490">
        <ele>1029.0</ele>
        <time>2021-04-18T09:08:40Z</time>
      </trkpt>
      <trkpt lat="37.3274530" lon="-2.5085320">
        <ele>1029.2</ele>
        <time>2021-04-18T09:08:41Z</time>
      </trkpt>
      <trkpt lat="37.3274540" lon="-2.5085080">
        <ele>1029.4</ele>
        <time>2021-04-18T09:08:42Z</time>
      </trkpt>
      <trkpt lat="37.3274560" lon="-2.5084850">
        <ele>1029.6</ele>
        <time>2021-04-18T09:08:43Z</time>
      </trkpt>
      <trkpt lat="37.3274560" lon="-2.5084570">
        <ele>1029.8</ele>
        <time>2021-04-18T09:08:44Z</time>
      </trkpt>
      <trkpt lat="37.3274550" lon="-2.5084340">
        <ele>1030.0</ele>
        <time>2021-04-18T09:08:45Z</time>
      </trkpt>
      <trkpt lat="37.3274540" lon="-2.5084140">
        <ele>1030.2</ele>
        <time>2021-04-18T09:08:46Z</time>
      </trkpt>
      <trkpt lat="37.3274480" lon="-2.5083880">
        <ele>1030.4</ele>
        <time>2021-04-18T09:08:47Z</time>
      </trkpt>
      <trkpt lat="37.3274440" lon="-2.5083700">
        <ele>1030.6</ele>
        <time>2021-04-18T09:08:48Z</time>
      </trkpt>
      <trkpt lat="37.3274400" lon="-2.5083440">
        <ele>1030.6</ele>
        <time>2021-04-18T09:08:49Z</time>
      </trkpt>
      <trkpt lat="37.3274340" lon="-2.5083190">
        <ele>1030.8</ele>
        <time>2021-04-18T09:08:50Z</time>
      </trkpt>
      <trkpt lat="37.3274310" lon="-2.5082920">
        <ele>1030.8</ele>
        <time>2021-04-18T09:08:51Z</time>
      </trkpt>
      <trkpt lat="37.3274270" lon="-2.5082680">
        <ele>1031.0</ele>
        <time>2021-04-18T09:08:52Z</time>
      </trkpt>
      <trkpt lat="37.3274220" lon="-2.5082480">
        <ele>1031.2</ele>
        <time>2021-04-18T09:08:53Z</time>
      </trkpt>
      <trkpt lat="37.3274130" lon="-2.5082220">
        <ele>1031.4</ele>
        <time>2021-04-18T09:08:54Z</time>
      </trkpt>
      <trkpt lat="37.3274050" lon="-2.5082000">
        <ele>1031.4</ele>
        <time>2021-04-18T09:08:55Z</time>
      </trkpt>
      <trkpt lat="37.3273970" lon="-2.5081820">
        <ele>1031.6</ele>
        <time>2021-04-18T09:08:56Z</time>
      </trkpt>
      <trkpt lat="37.3273870" lon="-2.5081600">
        <ele>1032.0</ele>
        <time>2021-04-18T09:08:57Z</time>
      </trkpt>
      <trkpt lat="37.3273710" lon="-2.5081300">
        <ele>1032.0</ele>
        <time>2021-04-18T09:08:58Z</time>
      </trkpt>
      <trkpt lat="37.3273600" lon="-2.5081110">
        <ele>1032.2</ele>
        <time>2021-04-18T09:08:59Z</time>
      </trkpt>
      <trkpt lat="37.3273500" lon="-2.5080920">
        <ele>1032.2</ele>
        <time>2021-04-18T09:09:00Z</time>
      </trkpt>
      <trkpt lat="37.3273400" lon="-2.5080720">
        <ele>1032.4</ele>
        <time>2021-04-18T09:09:01Z</time>
      </trkpt>
      <trkpt lat="37.3273300" lon="-2.5080560">
        <ele>1032.6</ele>
        <time>2021-04-18T09:09:02Z</time>
      </trkpt>
      <trkpt lat="37.3273170" lon="-2.5080330">
        <ele>1032.8</ele>
        <time>2021-04-18T09:09:03Z</time>
      </trkpt>
      <trkpt lat="37.3273100" lon="-2.5080180">
        <ele>1033.0</ele>
        <time>2021-04-18T09:09:04Z</time>
      </trkpt>
      <trkpt lat="37.3272970" lon="-2.5079960">
        <ele>1033.2</ele>
        <time>2021-04-18T09:09:05Z</time>
      </trkpt>
      <trkpt lat="37.3272880" lon="-2.5079820">
        <ele>1033.4</ele>
        <time>2021-04-18T09:09:06Z</time>
      </trkpt>
      <trkpt lat="37.3272780" lon="-2.5079650">
        <ele>1033.6</ele>
        <time>2021-04-18T09:09:07Z</time>
      </trkpt>
      <trkpt lat="37.3272620" lon="-2.5079400">
        <ele>1033.8</ele>
        <time>2021-04-18T09:09:08Z</time>
      </trkpt>
      <trkpt lat="37.3272540" lon="-2.5079170">
        <ele>1034.0</ele>
        <time>2021-04-18T09:09:09Z</time>
      </trkpt>
      <trkpt lat="37.3272470" lon="-2.5078990">
        <ele>1034.0</ele>
        <time>2021-04-18T09:09:10Z</time>
      </trkpt>
      <trkpt lat="37.3272420" lon="-2.5078830">
        <ele>1034.2</ele>
        <time>2021-04-18T09:09:11Z</time>
      </trkpt>
      <trkpt lat="37.3272340" lon="-2.5078600">
        <ele>1034.2</ele>
        <time>2021-04-18T09:09:12Z</time>
      </trkpt>
      <trkpt lat="37.3272230" lon="-2.5078390">
        <ele>1034.4</ele>
        <time>2021-04-18T09:09:13Z</time>
      </trkpt>
      <trkpt lat="37.3272110" lon="-2.5078200">
        <ele>1034.6</ele>
        <time>2021-04-18T09:09:14Z</time>
      </trkpt>
      <trkpt lat="37.3271980" lon="-2.5077950">
        <ele>1034.8</ele>
        <time>2021-04-18T09:09:15Z</time>
      </trkpt>
      <trkpt lat="37.3271870" lon="-2.5077780">
        <ele>1034.8</ele>
        <time>2021-04-18T09:09:16Z</time>
      </trkpt>
      <trkpt lat="37.3271760" lon="-2.5077560">
        <ele>1035.0</ele>
        <time>2021-04-18T09:09:17Z</time>
      </trkpt>
      <trkpt lat="37.3271650" lon="-2.5077300">
        <ele>1035.2</ele>
        <time>2021-04-18T09:09:18Z</time>
      </trkpt>
      <trkpt lat="37.3271560" lon="-2.5077090">
        <ele>1035.2</ele>
        <time>2021-04-18T09:09:19Z</time>
      </trkpt>
      <trkpt lat="37.3271480" lon="-2.5076860">
        <ele>1035.6</ele>
        <time>2021-04-18T09:09:20Z</time>
      </trkpt>
      <trkpt lat="37.3271410" lon="-2.5076690">
        <ele>1035.8</ele>
        <time>2021-04-18T09:09:21Z</time>
      </trkpt>
      <trkpt lat="37.3271330" lon="-2.5076420">
        <ele>1036.0</ele>
        <time>2021-04-18T09:09:22Z</time>
      </trkpt>
      <trkpt lat="37.3271250" lon="-2.5076180">
        <ele>1036.4</ele>
        <time>2021-04-18T09:09:23Z</time>
      </trkpt>
      <trkpt lat="37.3271170" lon="-2.5075970">
        <ele>1036.6</ele>
        <time>2021-04-18T09:09:24Z</time>
      </trkpt>
      <trkpt lat="37.3271110" lon="-2.5075780">
        <ele>1036.8</ele>
        <time>2021-04-18T09:09:25Z</time>
      </trkpt>
      <trkpt lat="37.3271040" lon="-2.5075570">
        <ele>1037.0</ele>
        <time>2021-04-18T09:09:26Z</time>
      </trkpt>
      <trkpt lat="37.3270950" lon="-2.5075370">
        <ele>1037.0</ele>
        <time>2021-04-18T09:09:27Z</time>
      </trkpt>
      <trkpt lat="37.3270900" lon="-2.5075130">
        <ele>1037.2</ele>
        <time>2021-04-18T09:09:28Z</time>
      </trkpt>
      <trkpt lat="37.3270850" lon="-2.5074870">
        <ele>1037.4</ele>
        <time>2021-04-18T09:09:29Z</time>
      </trkpt>
      <trkpt lat="37.3270810" lon="-2.5074630">
        <ele>1037.6</ele>
        <time>2021-04-18T09:09:30Z</time>
      </trkpt>
      <trkpt lat="37.3270780" lon="-2.5074410">
        <ele>1037.8</ele>
        <time>2021-04-18T09:09:31Z</time>
      </trkpt>
      <trkpt lat="37.3270740" lon="-2.5074190">
        <ele>1038.0</ele>
        <time>2021-04-18T09:09:32Z</time>
      </trkpt>
      <trkpt lat="37.3270710" lon="-2.5073950">
        <ele>1038.2</ele>
        <time>2021-04-18T09:09:33Z</time>
      </trkpt>
      <trkpt lat="37.3270660" lon="-2.5073700">
        <ele>1038.2</ele>
        <time>2021-04-18T09:09:34Z</time>
      </trkpt>
      <trkpt lat="37.3270590" lon="-2.5073500">
        <ele>1038.4</ele>
        <time>2021-04-18T09:09:35Z</time>
      </trkpt>
      <trkpt lat="37.3270530" lon="-2.5073250">
        <ele>1038.6</ele>
        <time>2021-04-18T09:09:36Z</time>
      </trkpt>
      <trkpt lat="37.3270500" lon="-2.5073070">
        <ele>1038.8</ele>
        <time>2021-04-18T09:09:37Z</time>
      </trkpt>
      <trkpt lat="37.3270430" lon="-2.5072780">
        <ele>1038.8</ele>
        <time>2021-04-18T09:09:38Z</time>
      </trkpt>
      <trkpt lat="37.3270390" lon="-2.5072530">
        <ele>1039.0</ele>
        <time>2021-04-18T09:09:39Z</time>
      </trkpt>
      <trkpt lat="37.3270350" lon="-2.5072270">
        <ele>1039.4</ele>
        <time>2021-04-18T09:09:40Z</time>
      </trkpt>
      <trkpt lat="37.3270320" lon="-2.5072070">
        <ele>1039.4</ele>
        <time>2021-04-18T09:09:41Z</time>
      </trkpt>
      <trkpt lat="37.3270260" lon="-2.5071810">
        <ele>1039.6</ele>
        <time>2021-04-18T09:09:42Z</time>
      </trkpt>
      <trkpt lat="37.3270210" lon="-2.5071540">
        <ele>1039.6</ele>
        <time>2021-04-18T09:09:43Z</time>
      </trkpt>
      <trkpt lat="37.3270180" lon="-2.5071280">
        <ele>1039.8</ele>
        <time>2021-04-18T09:09:44Z</time>
      </trkpt>
      <trkpt lat="37.3270130" lon="-2.5071000">
        <ele>1040.0</ele>
        <time>2021-04-18T09:09:45Z</time>
      </trkpt>
      <trkpt lat="37.3270090" lon="-2.5070740">
        <ele>1040.2</ele>
        <time>2021-04-18T09:09:46Z</time>
      </trkpt>
      <trkpt lat="37.3270040" lon="-2.5070540">
        <ele>1040.6</ele>
        <time>2021-04-18T09:09:47Z</time>
      </trkpt>
      <trkpt lat="37.3269970" lon="-2.5070260">
        <ele>1040.6</ele>
        <time>2021-04-18T09:09:48Z</time>
      </trkpt>
      <trkpt lat="37.3269910" lon="-2.5070020">
        <ele>1041.2</ele>
        <time>2021-04-18T09:09:49Z</time>
      </trkpt>
      <trkpt lat="37.3269840" lon="-2.5069770">
        <ele>1041.4</ele>
        <time>2021-04-18T09:09:50Z</time>
      </trkpt>
      <trkpt lat="37.3269800" lon="-2.5069570">
        <ele>1041.6</ele>
        <time>2021-04-18T09:09:51Z</time>
      </trkpt>
      <trkpt lat="37.3269750" lon="-2.5069310">
        <ele>1041.8</ele>
        <time>2021-04-18T09:09:52Z</time>
      </trkpt>
      <trkpt lat="37.3269700" lon="-2.5068980">
        <ele>1042.0</ele>
        <time>2021-04-18T09:09:53Z</time>
      </trkpt>
      <trkpt lat="37.3269640" lon="-2.5068700">
        <ele>1042.4</ele>
        <time>2021-04-18T09:09:54Z</time>
      </trkpt>
      <trkpt lat="37.3269560" lon="-2.5068420">
        <ele>1042.6</ele>
        <time>2021-04-18T09:09:55Z</time>
      </trkpt>
      <trkpt lat="37.3269490" lon="-2.5068140">
        <ele>1042.8</ele>
        <time>2021-04-18T09:09:56Z</time>
      </trkpt>
      <trkpt lat="37.3269470" lon="-2.5067860">
        <ele>1043.2</ele>
        <time>2021-04-18T09:09:57Z</time>
      </trkpt>
      <trkpt lat="37.3269480" lon="-2.5067580">
        <ele>1043.2</ele>
        <time>2021-04-18T09:09:58Z</time>
      </trkpt>
      <trkpt lat="37.3269510" lon="-2.5067310">
        <ele>1043.6</ele>
        <time>2021-04-18T09:09:59Z</time>
      </trkpt>
      <trkpt lat="37.3269580" lon="-2.5067040">
        <ele>1043.6</ele>
        <time>2021-04-18T09:10:00Z</time>
      </trkpt>
      <trkpt lat="37.3269650" lon="-2.5066830">
        <ele>1044.0</ele>
        <time>2021-04-18T09:10:01Z</time>
      </trkpt>
      <trkpt lat="37.3269770" lon="-2.5066510">
        <ele>1044.0</ele>
        <time>2021-04-18T09:10:02Z</time>
      </trkpt>
      <trkpt lat="37.3269860" lon="-2.5066300">
        <ele>1044.2</ele>
        <time>2021-04-18T09:10:03Z</time>
      </trkpt>
      <trkpt lat="37.3269970" lon="-2.5066030">
        <ele>1044.4</ele>
        <time>2021-04-18T09:10:04Z</time>
      </trkpt>
      <trkpt lat="37.3270070" lon="-2.5065780">
        <ele>1044.6</ele>
        <time>2021-04-18T09:10:05Z</time>
      </trkpt>
      <trkpt lat="37.3270170" lon="-2.5065530">
        <ele>1044.8</ele>
        <time>2021-04-18T09:10:06Z</time>
      </trkpt>
      <trkpt lat="37.3270310" lon="-2.5065300">
        <ele>1045.0</ele>
        <time>2021-04-18T09:10:07Z</time>
      </trkpt>
      <trkpt lat="37.3270470" lon="-2.5065030">
        <ele>1045.2</ele>
        <time>2021-04-18T09:10:08Z</time>
      </trkpt>
      <trkpt lat="37.3270600" lon="-2.5064820">
        <ele>1045.4</ele>
        <time>2021-04-18T09:10:09Z</time>
      </trkpt>
      <trkpt lat="37.3270720" lon="-2.5064600">
        <ele>1045.4</ele>
        <time>2021-04-18T09:10:10Z</time>
      </trkpt>
      <trkpt lat="37.3270830" lon="-2.5064430">
        <ele>1045.6</ele>
        <time>2021-04-18T09:10:11Z</time>
      </trkpt>
      <trkpt lat="37.3270980" lon="-2.5064240">
        <ele>1045.8</ele>
        <time>2021-04-18T09:10:12Z</time>
      </trkpt>
      <trkpt lat="37.3271150" lon="-2.5064010">
        <ele>1046.2</ele>
        <time>2021-04-18T09:10:13Z</time>
      </trkpt>
      <trkpt lat="37.3271280" lon="-2.5063810">
        <ele>1046.2</ele>
        <time>2021-04-18T09:10:14Z</time>
      </trkpt>
      <trkpt lat="37.3271370" lon="-2.5063610">
        <ele>1046.4</ele>
        <time>2021-04-18T09:10:15Z</time>
      </trkpt>
      <trkpt lat="37.3271460" lon="-2.5063400">
        <ele>1046.6</ele>
        <time>2021-04-18T09:10:16Z</time>
      </trkpt>
      <trkpt lat="37.3271530" lon="-2.5063230">
        <ele>1046.6</ele>
        <time>2021-04-18T09:10:17Z</time>
      </trkpt>
      <trkpt lat="37.3271640" lon="-2.5063020">
        <ele>1047.0</ele>
        <time>2021-04-18T09:10:18Z</time>
      </trkpt>
      <trkpt lat="37.3271730" lon="-2.5062760">
        <ele>1047.0</ele>
        <time>2021-04-18T09:10:19Z</time>
      </trkpt>
      <trkpt lat="37.3271820" lon="-2.5062540">
        <ele>1047.4</ele>
        <time>2021-04-18T09:10:20Z</time>
      </trkpt>
      <trkpt lat="37.3271900" lon="-2.5062330">
        <ele>1047.8</ele>
        <time>2021-04-18T09:10:21Z</time>
      </trkpt>
      <trkpt lat="37.3271960" lon="-2.5062150">
        <ele>1047.8</ele>
        <time>2021-04-18T09:10:22Z</time>
      </trkpt>
      <trkpt lat="37.3272070" lon="-2.5061940">
        <ele>1048.0</ele>
        <time>2021-04-18T09:10:23Z</time>
      </trkpt>
      <trkpt lat="37.3272180" lon="-2.5061730">
        <ele>1048.2</ele>
        <time>2021-04-18T09:10:24Z</time>
      </trkpt>
      <trkpt lat="37.3272270" lon="-2.5061500">
        <ele>1048.6</ele>
        <time>2021-04-18T09:10:25Z</time>
      </trkpt>
      <trkpt lat="37.3272350" lon="-2.5061240">
        <ele>1049.0</ele>
        <time>2021-04-18T09:10:26Z</time>
      </trkpt>
      <trkpt lat="37.3272450" lon="-2.5060990">
        <ele>1049.2</ele>
        <time>2021-04-18T09:10:27Z</time>
      </trkpt>
      <trkpt lat="37.3272550" lon="-2.5060670">
        <ele>1049.4</ele>
        <time>2021-04-18T09:10:28Z</time>
      </trkpt>
      <trkpt lat="37.3272630" lon="-2.5060410">
        <ele>1049.6</ele>
        <time>2021-04-18T09:10:29Z</time>
      </trkpt>
      <trkpt lat="37.3272710" lon="-2.5060150">
        <ele>1049.8</ele>
        <time>2021-04-18T09:10:30Z</time>
      </trkpt>
      <trkpt lat="37.3272780" lon="-2.5059890">
        <ele>1049.8</ele>
        <time>2021-04-18T09:10:31Z</time>
      </trkpt>
      <trkpt lat="37.3272840" lon="-2.5059650">
        <ele>1050.4</ele>
        <time>2021-04-18T09:10:32Z</time>
      </trkpt>
      <trkpt lat="37.3272850" lon="-2.5059440">
        <ele>1050.4</ele>
        <time>2021-04-18T09:10:33Z</time>
      </trkpt>
      <trkpt lat="37.3272840" lon="-2.5059170">
        <ele>1050.8</ele>
        <time>2021-04-18T09:10:34Z</time>
      </trkpt>
      <trkpt lat="37.3272840" lon="-2.5058840">
        <ele>1051.0</ele>
        <time>2021-04-18T09:10:35Z</time>
      </trkpt>
      <trkpt lat="37.3272830" lon="-2.5058560">
        <ele>1051.0</ele>
        <time>2021-04-18T09:10:36Z</time>
      </trkpt>
      <trkpt lat="37.3272820" lon="-2.5058330">
        <ele>1051.4</ele>
        <time>2021-04-18T09:10:37Z</time>
      </trkpt>
      <trkpt lat="37.3272800" lon="-2.5058040">
        <ele>1051.6</ele>
        <time>2021-04-18T09:10:38Z</time>
      </trkpt>
      <trkpt lat="37.3272800" lon="-2.5057710">
        <ele>1051.8</ele>
        <time>2021-04-18T09:10:39Z</time>
      </trkpt>
      <trkpt lat="37.3272820" lon="-2.5057470">
        <ele>1052.0</ele>
        <time>2021-04-18T09:10:40Z</time>
      </trkpt>
      <trkpt lat="37.3272850" lon="-2.5057110">
        <ele>1052.0</ele>
        <time>2021-04-18T09:10:41Z</time>
      </trkpt>
      <trkpt lat="37.3272880" lon="-2.5056830">
        <ele>1052.2</ele>
        <time>2021-04-18T09:10:42Z</time>
      </trkpt>
      <trkpt lat="37.3272910" lon="-2.5056610">
        <ele>1052.4</ele>
        <time>2021-04-18T09:10:43Z</time>
      </trkpt>
      <trkpt lat="37.3272940" lon="-2.5056330">
        <ele>1052.6</ele>
        <time>2021-04-18T09:10:44Z</time>
      </trkpt>
      <trkpt lat="37.3272980" lon="-2.5056040">
        <ele>1052.6</ele>
        <time>2021-04-18T09:10:45Z</time>
      </trkpt>
      <trkpt lat="37.3273000" lon="-2.5055710">
        <ele>1052.8</ele>
        <time>2021-04-18T09:10:46Z</time>
      </trkpt>
      <trkpt lat="37.3273010" lon="-2.5055450">
        <ele>1053.0</ele>
        <time>2021-04-18T09:10:47Z</time>
      </trkpt>
      <trkpt lat="37.3273020" lon="-2.5055210">
        <ele>1053.2</ele>
        <time>2021-04-18T09:10:48Z</time>
      </trkpt>
      <trkpt lat="37.3273040" lon="-2.5054930">
        <ele>1053.4</ele>
        <time>2021-04-18T09:10:49Z</time>
      </trkpt>
      <trkpt lat="37.3273070" lon="-2.5054600">
        <ele>1053.6</ele>
        <time>2021-04-18T09:10:50Z</time>
      </trkpt>
      <trkpt lat="37.3273070" lon="-2.5054380">
        <ele>1053.8</ele>
        <time>2021-04-18T09:10:51Z</time>
      </trkpt>
      <trkpt lat="37.3273060" lon="-2.5054060">
        <ele>1054.0</ele>
        <time>2021-04-18T09:10:52Z</time>
      </trkpt>
      <trkpt lat="37.3273050" lon="-2.5053780">
        <ele>1054.0</ele>
        <time>2021-04-18T09:10:53Z</time>
      </trkpt>
      <trkpt lat="37.3273050" lon="-2.5053560">
        <ele>1054.4</ele>
        <time>2021-04-18T09:10:54Z</time>
      </trkpt>
      <trkpt lat="37.3273030" lon="-2.5053280">
        <ele>1054.4</ele>
        <time>2021-04-18T09:10:55Z</time>
      </trkpt>
      <trkpt lat="37.3272980" lon="-2.5052960">
        <ele>1054.6</ele>
        <time>2021-04-18T09:10:56Z</time>
      </trkpt>
      <trkpt lat="37.3272940" lon="-2.5052730">
        <ele>1054.6</ele>
        <time>2021-04-18T09:10:57Z</time>
      </trkpt>
      <trkpt lat="37.3272840" lon="-2.5052450">
        <ele>1054.8</ele>
        <time>2021-04-18T09:10:58Z</time>
      </trkpt>
      <trkpt lat="37.3272770" lon="-2.5052290">
        <ele>1055.0</ele>
        <time>2021-04-18T09:10:59Z</time>
      </trkpt>
      <trkpt lat="37.3272700" lon="-2.5052090">
        <ele>1055.2</ele>
        <time>2021-04-18T09:11:00Z</time>
      </trkpt>
      <trkpt lat="37.3272640" lon="-2.5051840">
        <ele>1055.4</ele>
        <time>2021-04-18T09:11:01Z</time>
      </trkpt>
      <trkpt lat="37.3272610" lon="-2.5051640">
        <ele>1055.6</ele>
        <time>2021-04-18T09:11:02Z</time>
      </trkpt>
      <trkpt lat="37.3272590" lon="-2.5051450">
        <ele>1056.0</ele>
        <time>2021-04-18T09:11:03Z</time>
      </trkpt>
      <trkpt lat="37.3272550" lon="-2.5051210">
        <ele>1056.2</ele>
        <time>2021-04-18T09:11:04Z</time>
      </trkpt>
      <trkpt lat="37.3272550" lon="-2.5050980">
        <ele>1056.4</ele>
        <time>2021-04-18T09:11:05Z</time>
      </trkpt>
      <trkpt lat="37.3272530" lon="-2.5050740">
        <ele>1056.4</ele>
        <time>2021-04-18T09:11:06Z</time>
      </trkpt>
      <trkpt lat="37.3272460" lon="-2.5050440">
        <ele>1056.6</ele>
        <time>2021-04-18T09:11:07Z</time>
      </trkpt>
      <trkpt lat="37.3272440" lon="-2.5050150">
        <ele>1056.8</ele>
        <time>2021-04-18T09:11:08Z</time>
      </trkpt>
      <trkpt lat="37.3272450" lon="-2.5049900">
        <ele>1057.0</ele>
        <time>2021-04-18T09:11:09Z</time>
      </trkpt>
      <trkpt lat="37.3272490" lon="-2.5049630">
        <ele>1057.4</ele>
        <time>2021-04-18T09:11:10Z</time>
      </trkpt>
      <trkpt lat="37.3272520" lon="-2.5049410">
        <ele>1057.6</ele>
        <time>2021-04-18T09:11:11Z</time>
      </trkpt>
      <trkpt lat="37.3272550" lon="-2.5049130">
        <ele>1057.6</ele>
        <time>2021-04-18T09:11:12Z</time>
      </trkpt>
      <trkpt lat="37.3272570" lon="-2.5048780">
        <ele>1057.8</ele>
        <time>2021-04-18T09:11:13Z</time>
      </trkpt>
      <trkpt lat="37.3272600" lon="-2.5048510">
        <ele>1058.0</ele>
        <time>2021-04-18T09:11:14Z</time>
      </trkpt>
      <trkpt lat="37.3272620" lon="-2.5048310">
        <ele>1058.2</ele>
        <time>2021-04-18T09:11:15Z</time>
      </trkpt>
      <trkpt lat="37.3272650" lon="-2.5048040">
        <ele>1058.2</ele>
        <time>2021-04-18T09:11:16Z</time>
      </trkpt>
      <trkpt lat="37.3272650" lon="-2.5047750">
        <ele>1058.2</ele>
        <time>2021-04-18T09:11:17Z</time>
      </trkpt>
      <trkpt lat="37.3272660" lon="-2.5047390">
        <ele>1058.4</ele>
        <time>2021-04-18T09:11:18Z</time>
      </trkpt>
      <trkpt lat="37.3272680" lon="-2.5047120">
        <ele>1058.6</ele>
        <time>2021-04-18T09:11:19Z</time>
      </trkpt>
      <trkpt lat="37.3272700" lon="-2.5046880">
        <ele>1059.0</ele>
        <time>2021-04-18T09:11:20Z</time>
      </trkpt>
      <trkpt lat="37.3272680" lon="-2.5046580">
        <ele>1059.2</ele>
        <time>2021-04-18T09:11:21Z</time>
      </trkpt>
      <trkpt lat="37.3272600" lon="-2.5046250">
        <ele>1059.4</ele>
        <time>2021-04-18T09:11:22Z</time>
      </trkpt>
      <trkpt lat="37.3272490" lon="-2.5045980">
        <ele>1059.6</ele>
        <time>2021-04-18T09:11:23Z</time>
      </trkpt>
      <trkpt lat="37.3272360" lon="-2.5045750">
        <ele>1059.8</ele>
        <time>2021-04-18T09:11:24Z</time>
      </trkpt>
      <trkpt lat="37.3272220" lon="-2.5045580">
        <ele>1060.0</ele>
        <time>2021-04-18T09:11:25Z</time>
      </trkpt>
      <trkpt lat="37.3272080" lon="-2.5045470">
        <ele>1060.2</ele>
        <time>2021-04-18T09:11:26Z</time>
      </trkpt>
      <trkpt lat="37.3271900" lon="-2.5045340">
        <ele>1060.6</ele>
        <time>2021-04-18T09:11:27Z</time>
      </trkpt>
      <trkpt lat="37.3271660" lon="-2.5045230">
        <ele>1060.8</ele>
        <time>2021-04-18T09:11:28Z</time>
      </trkpt>
      <trkpt lat="37.3271430" lon="-2.5045140">
        <ele>1061.2</ele>
        <time>2021-04-18T09:11:29Z</time>
      </trkpt>
      <trkpt lat="37.3271220" lon="-2.5045060">
        <ele>1061.4</ele>
        <time>2021-04-18T09:11:30Z</time>
      </trkpt>
      <trkpt lat="37.3271060" lon="-2.5044990">
        <ele>1061.6</ele>
        <time>2021-04-18T09:11:31Z</time>
      </trkpt>
      <trkpt lat="37.3270840" lon="-2.5044880">
        <ele>1061.6</ele>
        <time>2021-04-18T09:11:32Z</time>
      </trkpt>
      <trkpt lat="37.3270590" lon="-2.5044730">
        <ele>1062.0</ele>
        <time>2021-04-18T09:11:33Z</time>
      </trkpt>
      <trkpt lat="37.3270360" lon="-2.5044580">
        <ele>1062.0</ele>
        <time>2021-04-18T09:11:34Z</time>
      </trkpt>
      <trkpt lat="37.3270190" lon="-2.5044420">
        <ele>1062.2</ele>
        <time>2021-04-18T09:11:35Z</time>
      </trkpt>
      <trkpt lat="37.3270000" lon="-2.5044270">
        <ele>1062.4</ele>
        <time>2021-04-18T09:11:36Z</time>
      </trkpt>
      <trkpt lat="37.3269860" lon="-2.5044110">
        <ele>1062.6</ele>
        <time>2021-04-18T09:11:37Z</time>
      </trkpt>
      <trkpt lat="37.3269670" lon="-2.5043890">
        <ele>1062.8</ele>
        <time>2021-04-18T09:11:38Z</time>
      </trkpt>
      <trkpt lat="37.3269460" lon="-2.5043650">
        <ele>1063.0</ele>
        <time>2021-04-18T09:11:39Z</time>
      </trkpt>
      <trkpt lat="37.3269300" lon="-2.5043420">
        <ele>1063.2</ele>
        <time>2021-04-18T09:11:40Z</time>
      </trkpt>
      <trkpt lat="37.3269160" lon="-2.5043170">
        <ele>1063.4</ele>
        <time>2021-04-18T09:11:41Z</time>
      </trkpt>
      <trkpt lat="37.3269060" lon="-2.5042970">
        <ele>1063.8</ele>
        <time>2021-04-18T09:11:42Z</time>
      </trkpt>
      <trkpt lat="37.3268950" lon="-2.5042710">
        <ele>1064.0</ele>
        <time>2021-04-18T09:11:43Z</time>
      </trkpt>
      <trkpt lat="37.3268810" lon="-2.5042410">
        <ele>1064.0</ele>
        <time>2021-04-18T09:11:44Z</time>
      </trkpt>
      <trkpt lat="37.3268710" lon="-2.5042140">
        <ele>1064.2</ele>
        <time>2021-04-18T09:11:45Z</time>
      </trkpt>
      <trkpt lat="37.3268600" lon="-2.5041860">
        <ele>1064.6</ele>
        <time>2021-04-18T09:11:46Z</time>
      </trkpt>
      <trkpt lat="37.3268520" lon="-2.5041590">
        <ele>1064.6</ele>
        <time>2021-04-18T09:11:47Z</time>
      </trkpt>
      <trkpt lat="37.3268420" lon="-2.5041360">
        <ele>1064.8</ele>
        <time>2021-04-18T09:11:48Z</time>
      </trkpt>
      <trkpt lat="37.3268270" lon="-2.5041090">
        <ele>1065.2</ele>
        <time>2021-04-18T09:11:49Z</time>
      </trkpt>
      <trkpt lat="37.3268140" lon="-2.5040880">
        <ele>1065.4</ele>
        <time>2021-04-18T09:11:50Z</time>
      </trkpt>
      <trkpt lat="37.3267960" lon="-2.5040690">
        <ele>1065.6</ele>
        <time>2021-04-18T09:11:51Z</time>
      </trkpt>
      <trkpt lat="37.3267790" lon="-2.5040580">
        <ele>1065.8</ele>
        <time>2021-04-18T09:11:52Z</time>
      </trkpt>
      <trkpt lat="37.3267600" lon="-2.5040470">
        <ele>1066.0</ele>
        <time>2021-04-18T09:11:53Z</time>
      </trkpt>
      <trkpt lat="37.3267370" lon="-2.5040390">
        <ele>1066.4</ele>
        <time>2021-04-18T09:11:54Z</time>
      </trkpt>
      <trkpt lat="37.3267210" lon="-2.5040370">
        <ele>1066.4</ele>
        <time>2021-04-18T09:11:55Z</time>
      </trkpt>
      <trkpt lat="37.3266960" lon="-2.5040390">
        <ele>1066.6</ele>
        <time>2021-04-18T09:11:56Z</time>
      </trkpt>
      <trkpt lat="37.3266790" lon="-2.5040470">
        <ele>1066.6</ele>
        <time>2021-04-18T09:11:57Z</time>
      </trkpt>
      <trkpt lat="37.3266670" lon="-2.5040560">
        <ele>1067.0</ele>
        <time>2021-04-18T09:11:58Z</time>
      </trkpt>
      <trkpt lat="37.3266470" lon="-2.5040680">
        <ele>1067.0</ele>
        <time>2021-04-18T09:11:59Z</time>
      </trkpt>
      <trkpt lat="37.3266280" lon="-2.5040830">
        <ele>1067.2</ele>
        <time>2021-04-18T09:12:00Z</time>
      </trkpt>
      <trkpt lat="37.3266120" lon="-2.5041000">
        <ele>1067.4</ele>
        <time>2021-04-18T09:12:01Z</time>
      </trkpt>
      <trkpt lat="37.3265950" lon="-2.5041150">
        <ele>1067.6</ele>
        <time>2021-04-18T09:12:02Z</time>
      </trkpt>
      <trkpt lat="37.3265780" lon="-2.5041310">
        <ele>1067.8</ele>
        <time>2021-04-18T09:12:03Z</time>
      </trkpt>
      <trkpt lat="37.3265630" lon="-2.5041520">
        <ele>1067.8</ele>
        <time>2021-04-18T09:12:04Z</time>
      </trkpt>
      <trkpt lat="37.3265500" lon="-2.5041750">
        <ele>1068.2</ele>
        <time>2021-04-18T09:12:05Z</time>
      </trkpt>
      <trkpt lat="37.3265390" lon="-2.5041970">
        <ele>1068.4</ele>
        <time>2021-04-18T09:12:06Z</time>
      </trkpt>
      <trkpt lat="37.3265280" lon="-2.5042190">
        <ele>1068.6</ele>
        <time>2021-04-18T09:12:07Z</time>
      </trkpt>
      <trkpt lat="37.3265170" lon="-2.5042380">
        <ele>1068.8</ele>
        <time>2021-04-18T09:12:08Z</time>
      </trkpt>
      <trkpt lat="37.3265110" lon="-2.5042560">
        <ele>1068.8</ele>
        <time>2021-04-18T09:12:09Z</time>
      </trkpt>
      <trkpt lat="37.3265050" lon="-2.5042760">
        <ele>1069.2</ele>
        <time>2021-04-18T09:12:10Z</time>
      </trkpt>
      <trkpt lat="37.3264960" lon="-2.5042970">
        <ele>1069.2</ele>
        <time>2021-04-18T09:12:11Z</time>
      </trkpt>
      <trkpt lat="37.3264850" lon="-2.5043150">
        <ele>1069.4</ele>
        <time>2021-04-18T09:12:12Z</time>
      </trkpt>
      <trkpt lat="37.3264730" lon="-2.5043330">
        <ele>1069.6</ele>
        <time>2021-04-18T09:12:13Z</time>
      </trkpt>
      <trkpt lat="37.3264620" lon="-2.5043500">
        <ele>1069.8</ele>
        <time>2021-04-18T09:12:14Z</time>
      </trkpt>
      <trkpt lat="37.3264520" lon="-2.5043680">
        <ele>1070.0</ele>
        <time>2021-04-18T09:12:15Z</time>
      </trkpt>
      <trkpt lat="37.3264410" lon="-2.5043850">
        <ele>1070.0</ele>
        <time>2021-04-18T09:12:16Z</time>
      </trkpt>
      <trkpt lat="37.3264300" lon="-2.5044030">
        <ele>1070.2</ele>
        <time>2021-04-18T09:12:17Z</time>
      </trkpt>
      <trkpt lat="37.3264180" lon="-2.5044190">
        <ele>1070.4</ele>
        <time>2021-04-18T09:12:18Z</time>
      </trkpt>
      <trkpt lat="37.3264060" lon="-2.5044340">
        <ele>1070.6</ele>
        <time>2021-04-18T09:12:19Z</time>
      </trkpt>
      <trkpt lat="37.3263920" lon="-2.5044530">
        <ele>1071.0</ele>
        <time>2021-04-18T09:12:20Z</time>
      </trkpt>
      <trkpt lat="37.3263760" lon="-2.5044710">
        <ele>1071.0</ele>
        <time>2021-04-18T09:12:21Z</time>
      </trkpt>
      <trkpt lat="37.3263600" lon="-2.5044880">
        <ele>1071.2</ele>
        <time>2021-04-18T09:12:22Z</time>
      </trkpt>
      <trkpt lat="37.3263430" lon="-2.5045020">
        <ele>1071.2</ele>
        <time>2021-04-18T09:12:23Z</time>
      </trkpt>
      <trkpt lat="37.3263260" lon="-2.5045170">
        <ele>1071.4</ele>
        <time>2021-04-18T09:12:24Z</time>
      </trkpt>
      <trkpt lat="37.3263090" lon="-2.5045270">
        <ele>1071.6</ele>
        <time>2021-04-18T09:12:25Z</time>
      </trkpt>
      <trkpt lat="37.3262930" lon="-2.5045390">
        <ele>1071.8</ele>
        <time>2021-04-18T09:12:26Z</time>
      </trkpt>
      <trkpt lat="37.3262780" lon="-2.5045530">
        <ele>1072.0</ele>
        <time>2021-04-18T09:12:27Z</time>
      </trkpt>
      <trkpt lat="37.3262640" lon="-2.5045710">
        <ele>1072.2</ele>
        <time>2021-04-18T09:12:28Z</time>
      </trkpt>
      <trkpt lat="37.3262500" lon="-2.5045890">
        <ele>1072.6</ele>
        <time>2021-04-18T09:12:29Z</time>
      </trkpt>
      <trkpt lat="37.3262370" lon="-2.5046060">
        <ele>1073.0</ele>
        <time>2021-04-18T09:12:30Z</time>
      </trkpt>
      <trkpt lat="37.3262240" lon="-2.5046200">
        <ele>1073.2</ele>
        <time>2021-04-18T09:12:31Z</time>
      </trkpt>
      <trkpt lat="37.3262080" lon="-2.5046340">
        <ele>1073.4</ele>
        <time>2021-04-18T09:12:32Z</time>
      </trkpt>
      <trkpt lat="37.3261910" lon="-2.5046480">
        <ele>1073.6</ele>
        <time>2021-04-18T09:12:33Z</time>
      </trkpt>
      <trkpt lat="37.3261750" lon="-2.5046620">
        <ele>1073.8</ele>
        <time>2021-04-18T09:12:34Z</time>
      </trkpt>
      <trkpt lat="37.3261590" lon="-2.5046760">
        <ele>1073.8</ele>
        <time>2021-04-18T09:12:35Z</time>
      </trkpt>
      <trkpt lat="37.3261420" lon="-2.5046860">
        <ele>1074.0</ele>
        <time>2021-04-18T09:12:36Z</time>
      </trkpt>
      <trkpt lat="37.3261250" lon="-2.5046940">
        <ele>1074.2</ele>
        <time>2021-04-18T09:12:37Z</time>
      </trkpt>
      <trkpt lat="37.3261060" lon="-2.5047040">
        <ele>1074.2</ele>
        <time>2021-04-18T09:12:38Z</time>
      </trkpt>
      <trkpt lat="37.3260860" lon="-2.5047130">
        <ele>1074.4</ele>
        <time>2021-04-18T09:12:39Z</time>
      </trkpt>
      <trkpt lat="37.3260710" lon="-2.5047250">
        <ele>1074.4</ele>
        <time>2021-04-18T09:12:40Z</time>
      </trkpt>
      <trkpt lat="37.3260580" lon="-2.5047370">
        <ele>1074.6</ele>
        <time>2021-04-18T09:12:41Z</time>
      </trkpt>
      <trkpt lat="37.3260460" lon="-2.5047480">
        <ele>1074.6</ele>
        <time>2021-04-18T09:12:42Z</time>
      </trkpt>
      <trkpt lat="37.3260320" lon="-2.5047610">
        <ele>1074.8</ele>
        <time>2021-04-18T09:12:43Z</time>
      </trkpt>
      <trkpt lat="37.3260150" lon="-2.5047710">
        <ele>1075.0</ele>
        <time>2021-04-18T09:12:44Z</time>
      </trkpt>
      <trkpt lat="37.3260030" lon="-2.5047790">
        <ele>1075.4</ele>
        <time>2021-04-18T09:12:45Z</time>
      </trkpt>
      <trkpt lat="37.3259870" lon="-2.5047910">
        <ele>1075.6</ele>
        <time>2021-04-18T09:12:46Z</time>
      </trkpt>
      <trkpt lat="37.3259690" lon="-2.5048040">
        <ele>1075.6</ele>
        <time>2021-04-18T09:12:47Z</time>
      </trkpt>
      <trkpt lat="37.3259520" lon="-2.5048150">
        <ele>1075.8</ele>
        <time>2021-04-18T09:12:48Z</time>
      </trkpt>
      <trkpt lat="37.3259370" lon="-2.5048220">
        <ele>1076.0</ele>
        <time>2021-04-18T09:12:49Z</time>
      </trkpt>
      <trkpt lat="37.3259180" lon="-2.5048350">
        <ele>1076.0</ele>
        <time>2021-04-18T09:12:50Z</time>
      </trkpt>
      <trkpt lat="37.3259010" lon="-2.5048490">
        <ele>1076.2</ele>
        <time>2021-04-18T09:12:51Z</time>
      </trkpt>
      <trkpt lat="37.3258850" lon="-2.5048610">
        <ele>1076.4</ele>
        <time>2021-04-18T09:12:52Z</time>
      </trkpt>
      <trkpt lat="37.3258680" lon="-2.5048760">
        <ele>1076.4</ele>
        <time>2021-04-18T09:12:53Z</time>
      </trkpt>
      <trkpt lat="37.3258490" lon="-2.5048880">
        <ele>1076.6</ele>
        <time>2021-04-18T09:12:54Z</time>
      </trkpt>
      <trkpt lat="37.3258300" lon="-2.5048980">
        <ele>1076.8</ele>
        <time>2021-04-18T09:12:55Z</time>
      </trkpt>
      <trkpt lat="37.3258130" lon="-2.5049090">
        <ele>1077.0</ele>
        <time>2021-04-18T09:12:56Z</time>
      </trkpt>
      <trkpt lat="37.3257970" lon="-2.5049200">
        <ele>1077.0</ele>
        <time>2021-04-18T09:12:57Z</time>
      </trkpt>
      <trkpt lat="37.3257790" lon="-2.5049300">
        <ele>1077.2</ele>
        <time>2021-04-18T09:12:58Z</time>
      </trkpt>
      <trkpt lat="37.3257630" lon="-2.5049430">
        <ele>1077.4</ele>
        <time>2021-04-18T09:12:59Z</time>
      </trkpt>
      <trkpt lat="37.3257490" lon="-2.5049510">
        <ele>1077.6</ele>
        <time>2021-04-18T09:13:00Z</time>
      </trkpt>
      <trkpt lat="37.3257330" lon="-2.5049570">
        <ele>1077.8</ele>
        <time>2021-04-18T09:13:01Z</time>
      </trkpt>
      <trkpt lat="37.3257150" lon="-2.5049640">
        <ele>1077.8</ele>
        <time>2021-04-18T09:13:02Z</time>
      </trkpt>
      <trkpt lat="37.3256960" lon="-2.5049720">
        <ele>1077.8</ele>
        <time>2021-04-18T09:13:03Z</time>
      </trkpt>
      <trkpt lat="37.3256760" lon="-2.5049800">
        <ele>1078.0</ele>
        <time>2021-04-18T09:13:04Z</time>
      </trkpt>
      <trkpt lat="37.3256550" lon="-2.5049830">
        <ele>1078.2</ele>
        <time>2021-04-18T09:13:05Z</time>
      </trkpt>
      <trkpt lat="37.3256360" lon="-2.5049920">
        <ele>1078.2</ele>
        <time>2021-04-18T09:13:06Z</time>
      </trkpt>
      <trkpt lat="37.3256190" lon="-2.5050000">
        <ele>1078.2</ele>
        <time>2021-04-18T09:13:07Z</time>
      </trkpt>
      <trkpt lat="37.3256000" lon="-2.5050080">
        <ele>1078.4</ele>
        <time>2021-04-18T09:13:08Z</time>
      </trkpt>
      <trkpt lat="37.3255830" lon="-2.5050130">
        <ele>1078.4</ele>
        <time>2021-04-18T09:13:09Z</time>
      </trkpt>
      <trkpt lat="37.3255640" lon="-2.5050210">
        <ele>1078.8</ele>
        <time>2021-04-18T09:13:10Z</time>
      </trkpt>
      <trkpt lat="37.3255490" lon="-2.5050320">
        <ele>1078.8</ele>
        <time>2021-04-18T09:13:11Z</time>
      </trkpt>
      <trkpt lat="37.3255330" lon="-2.5050440">
        <ele>1079.2</ele>
        <time>2021-04-18T09:13:12Z</time>
      </trkpt>
      <trkpt lat="37.3255160" lon="-2.5050520">
        <ele>1079.4</ele>
        <time>2021-04-18T09:13:13Z</time>
      </trkpt>
      <trkpt lat="37.3254980" lon="-2.5050600">
        <ele>1079.6</ele>
        <time>2021-04-18T09:13:14Z</time>
      </trkpt>
      <trkpt lat="37.3254790" lon="-2.5050660">
        <ele>1080.0</ele>
        <time>2021-04-18T09:13:15Z</time>
      </trkpt>
      <trkpt lat="37.3254600" lon="-2.5050740">
        <ele>1080.0</ele>
        <time>2021-04-18T09:13:16Z</time>
      </trkpt>
      <trkpt lat="37.3254420" lon="-2.5050810">
        <ele>1080.2</ele>
        <time>2021-04-18T09:13:17Z</time>
      </trkpt>
      <trkpt lat="37.3254240" lon="-2.5050890">
        <ele>1080.2</ele>
        <time>2021-04-18T09:13:18Z</time>
      </trkpt>
      <trkpt lat="37.3254070" lon="-2.5050970">
        <ele>1080.4</ele>
        <time>2021-04-18T09:13:19Z</time>
      </trkpt>
      <trkpt lat="37.3253900" lon="-2.5051030">
        <ele>1080.8</ele>
        <time>2021-04-18T09:13:20Z</time>
      </trkpt>
      <trkpt lat="37.3253710" lon="-2.5051120">
        <ele>1081.0</ele>
        <time>2021-04-18T09:13:21Z</time>
      </trkpt>
      <trkpt lat="37.3253540" lon="-2.5051210">
        <ele>1081.2</ele>
        <time>2021-04-18T09:13:22Z</time>
      </trkpt>
      <trkpt lat="37.3253380" lon="-2.5051320">
        <ele>1081.4</ele>
        <time>2021-04-18T09:13:23Z</time>
      </trkpt>
      <trkpt lat="37.3253200" lon="-2.5051410">
        <ele>1081.6</ele>
        <time>2021-04-18T09:13:24Z</time>
      </trkpt>
      <trkpt lat="37.3253030" lon="-2.5051490">
        <ele>1081.8</ele>
        <time>2021-04-18T09:13:25Z</time>
      </trkpt>
      <trkpt lat="37.3252860" lon="-2.5051550">
        <ele>1081.8</ele>
        <time>2021-04-18T09:13:26Z</time>
      </trkpt>
      <trkpt lat="37.3252680" lon="-2.5051610">
        <ele>1082.0</ele>
        <time>2021-04-18T09:13:27Z</time>
      </trkpt>
      <trkpt lat="37.3252470" lon="-2.5051660">
        <ele>1082.0</ele>
        <time>2021-04-18T09:13:28Z</time>
      </trkpt>
      <trkpt lat="37.3252260" lon="-2.5051690">
        <ele>1082.4</ele>
        <time>2021-04-18T09:13:29Z</time>
      </trkpt>
      <trkpt lat="37.3252040" lon="-2.5051730">
        <ele>1082.6</ele>
        <time>2021-04-18T09:13:30Z</time>
      </trkpt>
      <trkpt lat="37.3251820" lon="-2.5051820">
        <ele>1082.8</ele>
        <time>2021-04-18T09:13:31Z</time>
      </trkpt>
      <trkpt lat="37.3251650" lon="-2.5051920">
        <ele>1083.2</ele>
        <time>2021-04-18T09:13:32Z</time>
      </trkpt>
      <trkpt lat="37.3251500" lon="-2.5052020">
        <ele>1083.2</ele>
        <time>2021-04-18T09:13:33Z</time>
      </trkpt>
      <trkpt lat="37.3251350" lon="-2.5052130">
        <ele>1083.4</ele>
        <time>2021-04-18T09:13:34Z</time>
      </trkpt>
      <trkpt lat="37.3251190" lon="-2.5052160">
        <ele>1083.6</ele>
        <time>2021-04-18T09:13:35Z</time>
      </trkpt>
      <trkpt lat="37.3250960" lon="-2.5052230">
        <ele>1083.8</ele>
        <time>2021-04-18T09:13:36Z</time>
      </trkpt>
      <trkpt lat="37.3250750" lon="-2.5052240">
        <ele>1084.2</ele>
        <time>2021-04-18T09:13:37Z</time>
      </trkpt>
      <trkpt lat="37.3250580" lon="-2.5052240">
        <ele>1084.2</ele>
        <time>2021-04-18T09:13:38Z</time>
      </trkpt>
      <trkpt lat="37.3250400" lon="-2.5052250">
        <ele>1084.4</ele>
        <time>2021-04-18T09:13:39Z</time>
      </trkpt>
      <trkpt lat="37.3250220" lon="-2.5052240">
        <ele>1084.4</ele>
        <time>2021-04-18T09:13:40Z</time>
      </trkpt>
      <trkpt lat="37.3250050" lon="-2.5052200">
        <ele>1084.6</ele>
        <time>2021-04-18T09:13:41Z</time>
      </trkpt>
      <trkpt lat="37.3249860" lon="-2.5052150">
        <ele>1084.8</ele>
        <time>2021-04-18T09:13:42Z</time>
      </trkpt>
      <trkpt lat="37.3249690" lon="-2.5052110">
        <ele>1085.0</ele>
        <time>2021-04-18T09:13:43Z</time>
      </trkpt>
      <trkpt lat="37.3249690" lon="-2.5052110">
        <ele>1085.2</ele>
        <time>2021-04-18T09:13:44Z</time>
      </trkpt>
      <trkpt lat="37.3249360" lon="-2.5052050">
        <ele>1085.4</ele>
        <time>2021-04-18T09:13:45Z</time>
      </trkpt>
      <trkpt lat="37.3249160" lon="-2.5052050">
        <ele>1085.6</ele>
        <time>2021-04-18T09:13:46Z</time>
      </trkpt>
      <trkpt lat="37.3248960" lon="-2.5052040">
        <ele>1085.8</ele>
        <time>2021-04-18T09:13:47Z</time>
      </trkpt>
      <trkpt lat="37.3248770" lon="-2.5052040">
        <ele>1086.0</ele>
        <time>2021-04-18T09:13:48Z</time>
      </trkpt>
      <trkpt lat="37.3248590" lon="-2.5052020">
        <ele>1086.2</ele>
        <time>2021-04-18T09:13:49Z</time>
      </trkpt>
      <trkpt lat="37.3248400" lon="-2.5052000">
        <ele>1086.2</ele>
        <time>2021-04-18T09:13:50Z</time>
      </trkpt>
      <trkpt lat="37.3248230" lon="-2.5051980">
        <ele>1086.6</ele>
        <time>2021-04-18T09:13:51Z</time>
      </trkpt>
      <trkpt lat="37.3248040" lon="-2.5051930">
        <ele>1086.6</ele>
        <time>2021-04-18T09:13:52Z</time>
      </trkpt>
      <trkpt lat="37.3247830" lon="-2.5051840">
        <ele>1086.8</ele>
        <time>2021-04-18T09:13:53Z</time>
      </trkpt>
      <trkpt lat="37.3247630" lon="-2.5051720">
        <ele>1087.0</ele>
        <time>2021-04-18T09:13:54Z</time>
      </trkpt>
      <trkpt lat="37.3247410" lon="-2.5051620">
        <ele>1087.2</ele>
        <time>2021-04-18T09:13:55Z</time>
      </trkpt>
      <trkpt lat="37.3247240" lon="-2.5051540">
        <ele>1087.4</ele>
        <time>2021-04-18T09:13:56Z</time>
      </trkpt>
      <trkpt lat="37.3247060" lon="-2.5051470">
        <ele>1087.4</ele>
        <time>2021-04-18T09:13:57Z</time>
      </trkpt>
      <trkpt lat="37.3246890" lon="-2.5051400">
        <ele>1087.8</ele>
        <time>2021-04-18T09:13:58Z</time>
      </trkpt>
      <trkpt lat="37.3246710" lon="-2.5051330">
        <ele>1087.8</ele>
        <time>2021-04-18T09:13:59Z</time>
      </trkpt>
      <trkpt lat="37.3246520" lon="-2.5051300">
        <ele>1088.0</ele>
        <time>2021-04-18T09:14:00Z</time>
      </trkpt>
      <trkpt lat="37.3246330" lon="-2.5051290">
        <ele>1088.2</ele>
        <time>2021-04-18T09:14:01Z</time>
      </trkpt>
      <trkpt lat="37.3246130" lon="-2.5051300">
        <ele>1088.4</ele>
        <time>2021-04-18T09:14:02Z</time>
      </trkpt>
      <trkpt lat="37.3245940" lon="-2.5051280">
        <ele>1088.6</ele>
        <time>2021-04-18T09:14:03Z</time>
      </trkpt>
      <trkpt lat="37.3245750" lon="-2.5051270">
        <ele>1088.8</ele>
        <time>2021-04-18T09:14:04Z</time>
      </trkpt>
      <trkpt lat="37.3245580" lon="-2.5051300">
        <ele>1088.8</ele>
        <time>2021-04-18T09:14:05Z</time>
      </trkpt>
      <trkpt lat="37.3245380" lon="-2.5051330">
        <ele>1089.0</ele>
        <time>2021-04-18T09:14:06Z</time>
      </trkpt>
      <trkpt lat="37.3245180" lon="-2.5051330">
        <ele>1089.2</ele>
        <time>2021-04-18T09:14:07Z</time>
      </trkpt>
      <trkpt lat="37.3244960" lon="-2.5051310">
        <ele>1089.6</ele>
        <time>2021-04-18T09:14:08Z</time>
      </trkpt>
      <trkpt lat="37.3244750" lon="-2.5051270">
        <ele>1089.6</ele>
        <time>2021-04-18T09:14:09Z</time>
      </trkpt>
      <trkpt lat="37.3244560" lon="-2.5051250">
        <ele>1089.8</ele>
        <time>2021-04-18T09:14:10Z</time>
      </trkpt>
      <trkpt lat="37.3244390" lon="-2.5051230">
        <ele>1090.0</ele>
        <time>2021-04-18T09:14:11Z</time>
      </trkpt>
      <trkpt lat="37.3244230" lon="-2.5051230">
        <ele>1090.2</ele>
        <time>2021-04-18T09:14:12Z</time>
      </trkpt>
      <trkpt lat="37.3244050" lon="-2.5051300">
        <ele>1090.4</ele>
        <time>2021-04-18T09:14:13Z</time>
      </trkpt>
      <trkpt lat="37.3243870" lon="-2.5051370">
        <ele>1090.6</ele>
        <time>2021-04-18T09:14:14Z</time>
      </trkpt>
      <trkpt lat="37.3243680" lon="-2.5051470">
        <ele>1090.8</ele>
        <time>2021-04-18T09:14:15Z</time>
      </trkpt>
      <trkpt lat="37.3243530" lon="-2.5051600">
        <ele>1091.0</ele>
        <time>2021-04-18T09:14:16Z</time>
      </trkpt>
      <trkpt lat="37.3243390" lon="-2.5051720">
        <ele>1091.2</ele>
        <time>2021-04-18T09:14:17Z</time>
      </trkpt>
      <trkpt lat="37.3243240" lon="-2.5051850">
        <ele>1091.2</ele>
        <time>2021-04-18T09:14:18Z</time>
      </trkpt>
      <trkpt lat="37.3243050" lon="-2.5052000">
        <ele>1091.4</ele>
        <time>2021-04-18T09:14:19Z</time>
      </trkpt>
      <trkpt lat="37.3242860" lon="-2.5052140">
        <ele>1091.6</ele>
        <time>2021-04-18T09:14:20Z</time>
      </trkpt>
      <trkpt lat="37.3242660" lon="-2.5052280">
        <ele>1091.6</ele>
        <time>2021-04-18T09:14:21Z</time>
      </trkpt>
      <trkpt lat="37.3242480" lon="-2.5052370">
        <ele>1091.8</ele>
        <time>2021-04-18T09:14:22Z</time>
      </trkpt>
      <trkpt lat="37.3242290" lon="-2.5052440">
        <ele>1092.0</ele>
        <time>2021-04-18T09:14:23Z</time>
      </trkpt>
      <trkpt lat="37.3242100" lon="-2.5052500">
        <ele>1092.2</ele>
        <time>2021-04-18T09:14:24Z</time>
      </trkpt>
      <trkpt lat="37.3241910" lon="-2.5052520">
        <ele>1092.4</ele>
        <time>2021-04-18T09:14:25Z</time>
      </trkpt>
      <trkpt lat="37.3241700" lon="-2.5052450">
        <ele>1092.6</ele>
        <time>2021-04-18T09:14:26Z</time>
      </trkpt>
      <trkpt lat="37.3241520" lon="-2.5052360">
        <ele>1093.0</ele>
        <time>2021-04-18T09:14:27Z</time>
      </trkpt>
      <trkpt lat="37.3241340" lon="-2.5052220">
        <ele>1093.0</ele>
        <time>2021-04-18T09:14:28Z</time>
      </trkpt>
      <trkpt lat="37.3241260" lon="-2.5052080">
        <ele>1093.2</ele>
        <time>2021-04-18T09:14:29Z</time>
      </trkpt>
      <trkpt lat="37.3241150" lon="-2.5051850">
        <ele>1093.4</ele>
        <time>2021-04-18T09:14:30Z</time>
      </trkpt>
      <trkpt lat="37.3241100" lon="-2.5051610">
        <ele>1093.8</ele>
        <time>2021-04-18T09:14:31Z</time>
      </trkpt>
      <trkpt lat="37.3241090" lon="-2.5051270">
        <ele>1094.0</ele>
        <time>2021-04-18T09:14:32Z</time>
      </trkpt>
      <trkpt lat="37.3241110" lon="-2.5051050">
        <ele>1094.0</ele>
        <time>2021-04-18T09:14:33Z</time>
      </trkpt>
      <trkpt lat="37.3241130" lon="-2.5050760">
        <ele>1094.4</ele>
        <time>2021-04-18T09:14:34Z</time>
      </trkpt>
      <trkpt lat="37.3241170" lon="-2.5050510">
        <ele>1094.6</ele>
        <time>2021-04-18T09:14:35Z</time>
      </trkpt>
      <trkpt lat="37.3241240" lon="-2.5050290">
        <ele>1095.0</ele>
        <time>2021-04-18T09:14:36Z</time>
      </trkpt>
      <trkpt lat="37.3241330" lon="-2.5050110">
        <ele>1095.0</ele>
        <time>2021-04-18T09:14:37Z</time>
      </trkpt>
      <trkpt lat="37.3241430" lon="-2.5049920">
        <ele>1095.2</ele>
        <time>2021-04-18T09:14:38Z</time>
      </trkpt>
      <trkpt lat="37.3241560" lon="-2.5049780">
        <ele>1095.4</ele>
        <time>2021-04-18T09:14:39Z</time>
      </trkpt>
      <trkpt lat="37.3241750" lon="-2.5049670">
        <ele>1095.4</ele>
        <time>2021-04-18T09:14:40Z</time>
      </trkpt>
      <trkpt lat="37.3241950" lon="-2.5049570">
        <ele>1095.8</ele>
        <time>2021-04-18T09:14:41Z</time>
      </trkpt>
      <trkpt lat="37.3242150" lon="-2.5049470">
        <ele>1095.8</ele>
        <time>2021-04-18T09:14:42Z</time>
      </trkpt>
      <trkpt lat="37.3242340" lon="-2.5049380">
        <ele>1096.0</ele>
        <time>2021-04-18T09:14:43Z</time>
      </trkpt>
      <trkpt lat="37.3242560" lon="-2.5049320">
        <ele>1096.2</ele>
        <time>2021-04-18T09:14:44Z</time>
      </trkpt>
      <trkpt lat="37.3242760" lon="-2.5049250">
        <ele>1096.2</ele>
        <time>2021-04-18T09:14:45Z</time>
      </trkpt>
      <trkpt lat="37.3242990" lon="-2.5049160">
        <ele>1096.6</ele>
        <time>2021-04-18T09:14:46Z</time>
      </trkpt>
      <trkpt lat="37.3243190" lon="-2.5049090">
        <ele>1096.8</ele>
        <time>2021-04-18T09:14:47Z</time>
      </trkpt>
      <trkpt lat="37.3243410" lon="-2.5049050">
        <ele>1096.8</ele>
        <time>2021-04-18T09:14:48Z</time>
      </trkpt>
      <trkpt lat="37.3243610" lon="-2.5049020">
        <ele>1097.0</ele>
        <time>2021-04-18T09:14:49Z</time>
      </trkpt>
      <trkpt lat="37.3243770" lon="-2.5049010">
        <ele>1097.0</ele>
        <time>2021-04-18T09:14:50Z</time>
      </trkpt>
      <trkpt lat="37.3243990" lon="-2.5049030">
        <ele>1097.2</ele>
        <time>2021-04-18T09:14:51Z</time>
      </trkpt>
      <trkpt lat="37.3244240" lon="-2.5049060">
        <ele>1097.4</ele>
        <time>2021-04-18T09:14:52Z</time>
      </trkpt>
      <trkpt lat="37.3244490" lon="-2.5049120">
        <ele>1097.6</ele>
        <time>2021-04-18T09:14:53Z</time>
      </trkpt>
      <trkpt lat="37.3244720" lon="-2.5049180">
        <ele>1097.8</ele>
        <time>2021-04-18T09:14:54Z</time>
      </trkpt>
      <trkpt lat="37.3244930" lon="-2.5049230">
        <ele>1097.8</ele>
        <time>2021-04-18T09:14:55Z</time>
      </trkpt>
      <trkpt lat="37.3245180" lon="-2.5049260">
        <ele>1098.0</ele>
        <time>2021-04-18T09:14:56Z</time>
      </trkpt>
      <trkpt lat="37.3245440" lon="-2.5049290">
        <ele>1098.2</ele>
        <time>2021-04-18T09:14:57Z</time>
      </trkpt>
      <trkpt lat="37.3245660" lon="-2.5049280">
        <ele>1098.6</ele>
        <time>2021-04-18T09:14:58Z</time>
      </trkpt>
      <trkpt lat="37.3245900" lon="-2.5049270">
        <ele>1098.8</ele>
        <time>2021-04-18T09:14:59Z</time>
      </trkpt>
      <trkpt lat="37.3246130" lon="-2.5049260">
        <ele>1099.0</ele>
        <time>2021-04-18T09:15:00Z</time>
      </trkpt>
      <trkpt lat="37.3246380" lon="-2.5049240">
        <ele>1099.0</ele>
        <time>2021-04-18T09:15:01Z</time>
      </trkpt>
      <trkpt lat="37.3246640" lon="-2.5049230">
        <ele>1099.2</ele>
        <time>2021-04-18T09:15:02Z</time>
      </trkpt>
      <trkpt lat="37.3246880" lon="-2.5049180">
        <ele>1099.4</ele>
        <time>2021-04-18T09:15:03Z</time>
      </trkpt>
      <trkpt lat="37.3247180" lon="-2.5049090">
        <ele>1099.4</ele>
        <time>2021-04-18T09:15:04Z</time>
      </trkpt>
      <trkpt lat="37.3247360" lon="-2.5049010">
        <ele>1099.8</ele>
        <time>2021-04-18T09:15:05Z</time>
      </trkpt>
      <trkpt lat="37.3247570" lon="-2.5048920">
        <ele>1099.8</ele>
        <time>2021-04-18T09:15:06Z</time>
      </trkpt>
      <trkpt lat="37.3247840" lon="-2.5048750">
        <ele>1100.0</ele>
        <time>2021-04-18T09:15:07Z</time>
      </trkpt>
      <trkpt lat="37.3248090" lon="-2.5048650">
        <ele>1100.2</ele>
        <time>2021-04-18T09:15:08Z</time>
      </trkpt>
      <trkpt lat="37.3248370" lon="-2.5048580">
        <ele>1100.4</ele>
        <time>2021-04-18T09:15:09Z</time>
      </trkpt>
      <trkpt lat="37.3248580" lon="-2.5048520">
        <ele>1100.6</ele>
        <time>2021-04-18T09:15:10Z</time>
      </trkpt>
      <trkpt lat="37.3248820" lon="-2.5048440">
        <ele>1100.6</ele>
        <time>2021-04-18T09:15:11Z</time>
      </trkpt>
      <trkpt lat="37.3249100" lon="-2.5048310">
        <ele>1100.8</ele>
        <time>2021-04-18T09:15:12Z</time>
      </trkpt>
      <trkpt lat="37.3249320" lon="-2.5048210">
        <ele>1100.8</ele>
        <time>2021-04-18T09:15:13Z</time>
      </trkpt>
      <trkpt lat="37.3249540" lon="-2.5048100">
        <ele>1101.0</ele>
        <time>2021-04-18T09:15:14Z</time>
      </trkpt>
      <trkpt lat="37.3249700" lon="-2.5047970">
        <ele>1101.2</ele>
        <time>2021-04-18T09:15:15Z</time>
      </trkpt>
      <trkpt lat="37.3249930" lon="-2.5047840">
        <ele>1101.2</ele>
        <time>2021-04-18T09:15:16Z</time>
      </trkpt>
      <trkpt lat="37.3250170" lon="-2.5047670">
        <ele>1101.2</ele>
        <time>2021-04-18T09:15:17Z</time>
      </trkpt>
      <trkpt lat="37.3250360" lon="-2.5047520">
        <ele>1101.2</ele>
        <time>2021-04-18T09:15:18Z</time>
      </trkpt>
      <trkpt lat="37.3250590" lon="-2.5047370">
        <ele>1101.4</ele>
        <time>2021-04-18T09:15:19Z</time>
      </trkpt>
      <trkpt lat="37.3250780" lon="-2.5047260">
        <ele>1101.4</ele>
        <time>2021-04-18T09:15:20Z</time>
      </trkpt>
      <trkpt lat="37.3250990" lon="-2.5047110">
        <ele>1101.4</ele>
        <time>2021-04-18T09:15:21Z</time>
      </trkpt>
      <trkpt lat="37.3251250" lon="-2.5046930">
        <ele>1101.4</ele>
        <time>2021-04-18T09:15:22Z</time>
      </trkpt>
      <trkpt lat="37.3251440" lon="-2.5046730">
        <ele>1101.6</ele>
        <time>2021-04-18T09:15:23Z</time>
      </trkpt>
      <trkpt lat="37.3251600" lon="-2.5046530">
        <ele>1101.8</ele>
        <time>2021-04-18T09:15:24Z</time>
      </trkpt>
      <trkpt lat="37.3251770" lon="-2.5046310">
        <ele>1101.8</ele>
        <time>2021-04-18T09:15:25Z</time>
      </trkpt>
      <trkpt lat="37.3251930" lon="-2.5046170">
        <ele>1101.8</ele>
        <time>2021-04-18T09:15:26Z</time>
      </trkpt>
      <trkpt lat="37.3252130" lon="-2.5045920">
        <ele>1102.0</ele>
        <time>2021-04-18T09:15:27Z</time>
      </trkpt>
      <trkpt lat="37.3252280" lon="-2.5045650">
        <ele>1102.0</ele>
        <time>2021-04-18T09:15:28Z</time>
      </trkpt>
      <trkpt lat="37.3252470" lon="-2.5045440">
        <ele>1102.2</ele>
        <time>2021-04-18T09:15:29Z</time>
      </trkpt>
      <trkpt lat="37.3252620" lon="-2.5045310">
        <ele>1102.4</ele>
        <time>2021-04-18T09:15:30Z</time>
      </trkpt>
      <trkpt lat="37.3252840" lon="-2.5045130">
        <ele>1102.6</ele>
        <time>2021-04-18T09:15:31Z</time>
      </trkpt>
      <trkpt lat="37.3253080" lon="-2.5044970">
        <ele>1102.6</ele>
        <time>2021-04-18T09:15:32Z</time>
      </trkpt>
      <trkpt lat="37.3253300" lon="-2.5044840">
        <ele>1102.8</ele>
        <time>2021-04-18T09:15:33Z</time>
      </trkpt>
      <trkpt lat="37.3253480" lon="-2.5044760">
        <ele>1103.0</ele>
        <time>2021-04-18T09:15:34Z</time>
      </trkpt>
      <trkpt lat="37.3253710" lon="-2.5044630">
        <ele>1103.0</ele>
        <time>2021-04-18T09:15:35Z</time>
      </trkpt>
      <trkpt lat="37.3253930" lon="-2.5044490">
        <ele>1103.0</ele>
        <time>2021-04-18T09:15:36Z</time>
      </trkpt>
      <trkpt lat="37.3254050" lon="-2.5044320">
        <ele>1103.2</ele>
        <time>2021-04-18T09:15:37Z</time>
      </trkpt>
      <trkpt lat="37.3254210" lon="-2.5044180">
        <ele>1103.4</ele>
        <time>2021-04-18T09:15:38Z</time>
      </trkpt>
      <trkpt lat="37.3254400" lon="-2.5043950">
        <ele>1103.6</ele>
        <time>2021-04-18T09:15:39Z</time>
      </trkpt>
      <trkpt lat="37.3254550" lon="-2.5043710">
        <ele>1103.8</ele>
        <time>2021-04-18T09:15:40Z</time>
      </trkpt>
      <trkpt lat="37.3254670" lon="-2.5043420">
        <ele>1104.0</ele>
        <time>2021-04-18T09:15:41Z</time>
      </trkpt>
      <trkpt lat="37.3254720" lon="-2.5043120">
        <ele>1104.0</ele>
        <time>2021-04-18T09:15:42Z</time>
      </trkpt>
      <trkpt lat="37.3254780" lon="-2.5042830">
        <ele>1104.0</ele>
        <time>2021-04-18T09:15:43Z</time>
      </trkpt>
      <trkpt lat="37.3254820" lon="-2.5042560">
        <ele>1104.2</ele>
        <time>2021-04-18T09:15:44Z</time>
      </trkpt>
      <trkpt lat="37.3254860" lon="-2.5042320">
        <ele>1104.2</ele>
        <time>2021-04-18T09:15:45Z</time>
      </trkpt>
      <trkpt lat="37.3254910" lon="-2.5042090">
        <ele>1104.4</ele>
        <time>2021-04-18T09:15:46Z</time>
      </trkpt>
      <trkpt lat="37.3254930" lon="-2.5041890">
        <ele>1104.6</ele>
        <time>2021-04-18T09:15:47Z</time>
      </trkpt>
      <trkpt lat="37.3254920" lon="-2.5041720">
        <ele>1104.8</ele>
        <time>2021-04-18T09:15:48Z</time>
      </trkpt>
      <trkpt lat="37.3254860" lon="-2.5041560">
        <ele>1104.8</ele>
        <time>2021-04-18T09:15:49Z</time>
      </trkpt>
      <trkpt lat="37.3254780" lon="-2.5041400">
        <ele>1105.2</ele>
        <time>2021-04-18T09:15:50Z</time>
      </trkpt>
      <trkpt lat="37.3254680" lon="-2.5041250">
        <ele>1105.6</ele>
        <time>2021-04-18T09:15:51Z</time>
      </trkpt>
      <trkpt lat="37.3254610" lon="-2.5041070">
        <ele>1105.8</ele>
        <time>2021-04-18T09:15:52Z</time>
      </trkpt>
      <trkpt lat="37.3254660" lon="-2.5040850">
        <ele>1106.0</ele>
        <time>2021-04-18T09:15:53Z</time>
      </trkpt>
      <trkpt lat="37.3254800" lon="-2.5040610">
        <ele>1106.2</ele>
        <time>2021-04-18T09:15:54Z</time>
      </trkpt>
      <trkpt lat="37.3254930" lon="-2.5040370">
        <ele>1106.2</ele>
        <time>2021-04-18T09:15:55Z</time>
      </trkpt>
      <trkpt lat="37.3255060" lon="-2.5040150">
        <ele>1106.2</ele>
        <time>2021-04-18T09:15:56Z</time>
      </trkpt>
      <trkpt lat="37.3255180" lon="-2.5039940">
        <ele>1106.4</ele>
        <time>2021-04-18T09:15:57Z</time>
      </trkpt>
      <trkpt lat="37.3255280" lon="-2.5039720">
        <ele>1106.4</ele>
        <time>2021-04-18T09:15:58Z</time>
      </trkpt>
      <trkpt lat="37.3255370" lon="-2.5039500">
        <ele>1106.6</ele>
        <time>2021-04-18T09:15:59Z</time>
      </trkpt>
      <trkpt lat="37.3255480" lon="-2.5039270">
        <ele>1107.0</ele>
        <time>2021-04-18T09:16:00Z</time>
      </trkpt>
      <trkpt lat="37.3255580" lon="-2.5039040">
        <ele>1107.0</ele>
        <time>2021-04-18T09:16:01Z</time>
      </trkpt>
      <trkpt lat="37.3255660" lon="-2.5038810">
        <ele>1107.2</ele>
        <time>2021-04-18T09:16:02Z</time>
      </trkpt>
      <trkpt lat="37.3255740" lon="-2.5038530">
        <ele>1107.4</ele>
        <time>2021-04-18T09:16:03Z</time>
      </trkpt>
      <trkpt lat="37.3255820" lon="-2.5038290">
        <ele>1107.6</ele>
        <time>2021-04-18T09:16:04Z</time>
      </trkpt>
      <trkpt lat="37.3255920" lon="-2.5038110">
        <ele>1107.8</ele>
        <time>2021-04-18T09:16:05Z</time>
      </trkpt>
      <trkpt lat="37.3256050" lon="-2.5037860">
        <ele>1108.0</ele>
        <time>2021-04-18T09:16:06Z</time>
      </trkpt>
      <trkpt lat="37.3256170" lon="-2.5037580">
        <ele>1108.2</ele>
        <time>2021-04-18T09:16:07Z</time>
      </trkpt>
      <trkpt lat="37.3256310" lon="-2.5037250">
        <ele>1108.4</ele>
        <time>2021-04-18T09:16:08Z</time>
      </trkpt>
      <trkpt lat="37.3256420" lon="-2.5037000">
        <ele>1108.6</ele>
        <time>2021-04-18T09:16:09Z</time>
      </trkpt>
      <trkpt lat="37.3256550" lon="-2.5036730">
        <ele>1109.2</ele>
        <time>2021-04-18T09:16:10Z</time>
      </trkpt>
      <trkpt lat="37.3256650" lon="-2.5036500">
        <ele>1109.2</ele>
        <time>2021-04-18T09:16:11Z</time>
      </trkpt>
      <trkpt lat="37.3256760" lon="-2.5036210">
        <ele>1109.6</ele>
        <time>2021-04-18T09:16:12Z</time>
      </trkpt>
      <trkpt lat="37.3256860" lon="-2.5035930">
        <ele>1109.8</ele>
        <time>2021-04-18T09:16:13Z</time>
      </trkpt>
      <trkpt lat="37.3256960" lon="-2.5035640">
        <ele>1110.0</ele>
        <time>2021-04-18T09:16:14Z</time>
      </trkpt>
      <trkpt lat="37.3257010" lon="-2.5035350">
        <ele>1110.4</ele>
        <time>2021-04-18T09:16:15Z</time>
      </trkpt>
      <trkpt lat="37.3257050" lon="-2.5035060">
        <ele>1110.6</ele>
        <time>2021-04-18T09:16:16Z</time>
      </trkpt>
      <trkpt lat="37.3257140" lon="-2.5034760">
        <ele>1111.2</ele>
        <time>2021-04-18T09:16:17Z</time>
      </trkpt>
      <trkpt lat="37.3257260" lon="-2.5034470">
        <ele>1111.4</ele>
        <time>2021-04-18T09:16:18Z</time>
      </trkpt>
      <trkpt lat="37.3257360" lon="-2.5034210">
        <ele>1111.8</ele>
        <time>2021-04-18T09:16:19Z</time>
      </trkpt>
      <trkpt lat="37.3257440" lon="-2.5033940">
        <ele>1112.0</ele>
        <time>2021-04-18T09:16:20Z</time>
      </trkpt>
      <trkpt lat="37.3257520" lon="-2.5033670">
        <ele>1112.6</ele>
        <time>2021-04-18T09:16:21Z</time>
      </trkpt>
      <trkpt lat="37.3257650" lon="-2.5033380">
        <ele>1113.0</ele>
        <time>2021-04-18T09:16:22Z</time>
      </trkpt>
      <trkpt lat="37.3257730" lon="-2.5033080">
        <ele>1113.2</ele>
        <time>2021-04-18T09:16:23Z</time>
      </trkpt>
      <trkpt lat="37.3257830" lon="-2.5032770">
        <ele>1113.6</ele>
        <time>2021-04-18T09:16:24Z</time>
      </trkpt>
      <trkpt lat="37.3257840" lon="-2.5032480">
        <ele>1113.8</ele>
        <time>2021-04-18T09:16:25Z</time>
      </trkpt>
      <trkpt lat="37.3257840" lon="-2.5032190">
        <ele>1114.0</ele>
        <time>2021-04-18T09:16:26Z</time>
      </trkpt>
      <trkpt lat="37.3257740" lon="-2.5031920">
        <ele>1114.2</ele>
        <time>2021-04-18T09:16:27Z</time>
      </trkpt>
      <trkpt lat="37.3257770" lon="-2.5031640">
        <ele>1114.2</ele>
        <time>2021-04-18T09:16:28Z</time>
      </trkpt>
      <trkpt lat="37.3257810" lon="-2.5031340">
        <ele>1114.4</ele>
        <time>2021-04-18T09:16:29Z</time>
      </trkpt>
      <trkpt lat="37.3257790" lon="-2.5031050">
        <ele>1114.4</ele>
        <time>2021-04-18T09:16:30Z</time>
      </trkpt>
      <trkpt lat="37.3257750" lon="-2.5030760">
        <ele>1114.8</ele>
        <time>2021-04-18T09:16:31Z</time>
      </trkpt>
      <trkpt lat="37.3257710" lon="-2.5030470">
        <ele>1115.0</ele>
        <time>2021-04-18T09:16:32Z</time>
      </trkpt>
      <trkpt lat="37.3257650" lon="-2.5030190">
        <ele>1115.2</ele>
        <time>2021-04-18T09:16:33Z</time>
      </trkpt>
      <trkpt lat="37.3257540" lon="-2.5029920">
        <ele>1115.2</ele>
        <time>2021-04-18T09:16:34Z</time>
      </trkpt>
      <trkpt lat="37.3257450" lon="-2.5029620">
        <ele>1115.4</ele>
        <time>2021-04-18T09:16:35Z</time>
      </trkpt>
      <trkpt lat="37.3257380" lon="-2.5029330">
        <ele>1115.4</ele>
        <time>2021-04-18T09:16:36Z</time>
      </trkpt>
      <trkpt lat="37.3257340" lon="-2.5029030">
        <ele>1115.6</ele>
        <time>2021-04-18T09:16:37Z</time>
      </trkpt>
      <trkpt lat="37.3257250" lon="-2.5028740">
        <ele>1115.8</ele>
        <time>2021-04-18T09:16:38Z</time>
      </trkpt>
      <trkpt lat="37.3257160" lon="-2.5028460">
        <ele>1116.0</ele>
        <time>2021-04-18T09:16:39Z</time>
      </trkpt>
      <trkpt lat="37.3257090" lon="-2.5028190">
        <ele>1116.2</ele>
        <time>2021-04-18T09:16:40Z</time>
      </trkpt>
      <trkpt lat="37.3256990" lon="-2.5027940">
        <ele>1116.2</ele>
        <time>2021-04-18T09:16:41Z</time>
      </trkpt>
      <trkpt lat="37.3256840" lon="-2.5027690">
        <ele>1116.4</ele>
        <time>2021-04-18T09:16:42Z</time>
      </trkpt>
      <trkpt lat="37.3256730" lon="-2.5027410">
        <ele>1116.6</ele>
        <time>2021-04-18T09:16:43Z</time>
      </trkpt>
      <trkpt lat="37.3256640" lon="-2.5027180">
        <ele>1116.6</ele>
        <time>2021-04-18T09:16:44Z</time>
      </trkpt>
      <trkpt lat="37.3256500" lon="-2.5026970">
        <ele>1116.8</ele>
        <time>2021-04-18T09:16:45Z</time>
      </trkpt>
      <trkpt lat="37.3256320" lon="-2.5026740">
        <ele>1117.0</ele>
        <time>2021-04-18T09:16:46Z</time>
      </trkpt>
      <trkpt lat="37.3256210" lon="-2.5026530">
        <ele>1117.0</ele>
        <time>2021-04-18T09:16:47Z</time>
      </trkpt>
      <trkpt lat="37.3256130" lon="-2.5026380">
        <ele>1117.2</ele>
        <time>2021-04-18T09:16:48Z</time>
      </trkpt>
      <trkpt lat="37.3256000" lon="-2.5026160">
        <ele>1117.2</ele>
        <time>2021-04-18T09:16:49Z</time>
      </trkpt>
      <trkpt lat="37.3255900" lon="-2.5025940">
        <ele>1117.6</ele>
        <time>2021-04-18T09:16:50Z</time>
      </trkpt>
      <trkpt lat="37.3255820" lon="-2.5025750">
        <ele>1117.6</ele>
        <time>2021-04-18T09:16:51Z</time>
      </trkpt>
      <trkpt lat="37.3255730" lon="-2.5025520">
        <ele>1118.0</ele>
        <time>2021-04-18T09:16:52Z</time>
      </trkpt>
      <trkpt lat="37.3255640" lon="-2.5025270">
        <ele>1118.4</ele>
        <time>2021-04-18T09:16:53Z</time>
      </trkpt>
      <trkpt lat="37.3255540" lon="-2.5025020">
        <ele>1118.4</ele>
        <time>2021-04-18T09:16:54Z</time>
      </trkpt>
      <trkpt lat="37.3255480" lon="-2.5024760">
        <ele>1118.6</ele>
        <time>2021-04-18T09:16:55Z</time>
      </trkpt>
      <trkpt lat="37.3255390" lon="-2.5024510">
        <ele>1118.6</ele>
        <time>2021-04-18T09:16:56Z</time>
      </trkpt>
      <trkpt lat="37.3255290" lon="-2.5024270">
        <ele>1119.0</ele>
        <time>2021-04-18T09:16:57Z</time>
      </trkpt>
      <trkpt lat="37.3255180" lon="-2.5024040">
        <ele>1119.0</ele>
        <time>2021-04-18T09:16:58Z</time>
      </trkpt>
      <trkpt lat="37.3255070" lon="-2.5023780">
        <ele>1119.2</ele>
        <time>2021-04-18T09:16:59Z</time>
      </trkpt>
      <trkpt lat="37.3254960" lon="-2.5023540">
        <ele>1119.4</ele>
        <time>2021-04-18T09:17:00Z</time>
      </trkpt>
      <trkpt lat="37.3254830" lon="-2.5023280">
        <ele>1119.6</ele>
        <time>2021-04-18T09:17:01Z</time>
      </trkpt>
      <trkpt lat="37.3254730" lon="-2.5022990">
        <ele>1120.0</ele>
        <time>2021-04-18T09:17:02Z</time>
      </trkpt>
      <trkpt lat="37.3254660" lon="-2.5022690">
        <ele>1120.2</ele>
        <time>2021-04-18T09:17:03Z</time>
      </trkpt>
      <trkpt lat="37.3254580" lon="-2.5022430">
        <ele>1120.4</ele>
        <time>2021-04-18T09:17:04Z</time>
      </trkpt>
      <trkpt lat="37.3254470" lon="-2.5022120">
        <ele>1120.4</ele>
        <time>2021-04-18T09:17:05Z</time>
      </trkpt>
      <trkpt lat="37.3254380" lon="-2.5021860">
        <ele>1120.6</ele>
        <time>2021-04-18T09:17:06Z</time>
      </trkpt>
      <trkpt lat="37.3254310" lon="-2.5021640">
        <ele>1120.8</ele>
        <time>2021-04-18T09:17:07Z</time>
      </trkpt>
      <trkpt lat="37.3254210" lon="-2.5021360">
        <ele>1121.0</ele>
        <time>2021-04-18T09:17:08Z</time>
      </trkpt>
      <trkpt lat="37.3254050" lon="-2.5021040">
        <ele>1121.2</ele>
        <time>2021-04-18T09:17:09Z</time>
      </trkpt>
      <trkpt lat="37.3253900" lon="-2.5020820">
        <ele>1121.6</ele>
        <time>2021-04-18T09:17:10Z</time>
      </trkpt>
      <trkpt lat="37.3253740" lon="-2.5020620">
        <ele>1121.6</ele>
        <time>2021-04-18T09:17:11Z</time>
      </trkpt>
      <trkpt lat="37.3253630" lon="-2.5020440">
        <ele>1122.0</ele>
        <time>2021-04-18T09:17:12Z</time>
      </trkpt>
      <trkpt lat="37.3253510" lon="-2.5020200">
        <ele>1122.0</ele>
        <time>2021-04-18T09:17:13Z</time>
      </trkpt>
      <trkpt lat="37.3253350" lon="-2.5019930">
        <ele>1122.2</ele>
        <time>2021-04-18T09:17:14Z</time>
      </trkpt>
      <trkpt lat="37.3253250" lon="-2.5019730">
        <ele>1122.4</ele>
        <time>2021-04-18T09:17:15Z</time>
      </trkpt>
      <trkpt lat="37.3253090" lon="-2.5019520">
        <ele>1122.8</ele>
        <time>2021-04-18T09:17:16Z</time>
      </trkpt>
      <trkpt lat="37.3252900" lon="-2.5019320">
        <ele>1122.8</ele>
        <time>2021-04-18T09:17:17Z</time>
      </trkpt>
      <trkpt lat="37.3252690" lon="-2.5019140">
        <ele>1123.2</ele>
        <time>2021-04-18T09:17:18Z</time>
      </trkpt>
      <trkpt lat="37.3252480" lon="-2.5018950">
        <ele>1123.4</ele>
        <time>2021-04-18T09:17:19Z</time>
      </trkpt>
      <trkpt lat="37.3252280" lon="-2.5018770">
        <ele>1123.6</ele>
        <time>2021-04-18T09:17:20Z</time>
      </trkpt>
      <trkpt lat="37.3252090" lon="-2.5018610">
        <ele>1123.8</ele>
        <time>2021-04-18T09:17:21Z</time>
      </trkpt>
      <trkpt lat="37.3251890" lon="-2.5018460">
        <ele>1124.2</ele>
        <time>2021-04-18T09:17:22Z</time>
      </trkpt>
      <trkpt lat="37.3251690" lon="-2.5018310">
        <ele>1124.2</ele>
        <time>2021-04-18T09:17:23Z</time>
      </trkpt>
      <trkpt lat="37.3251500" lon="-2.5018190">
        <ele>1124.6</ele>
        <time>2021-04-18T09:17:24Z</time>
      </trkpt>
      <trkpt lat="37.3251300" lon="-2.5018110">
        <ele>1124.6</ele>
        <time>2021-04-18T09:17:25Z</time>
      </trkpt>
      <trkpt lat="37.3251090" lon="-2.5018060">
        <ele>1125.0</ele>
        <time>2021-04-18T09:17:26Z</time>
      </trkpt>
      <trkpt lat="37.3250880" lon="-2.5017990">
        <ele>1125.0</ele>
        <time>2021-04-18T09:17:27Z</time>
      </trkpt>
      <trkpt lat="37.3250680" lon="-2.5017920">
        <ele>1125.2</ele>
        <time>2021-04-18T09:17:28Z</time>
      </trkpt>
      <trkpt lat="37.3250500" lon="-2.5017870">
        <ele>1125.2</ele>
        <time>2021-04-18T09:17:29Z</time>
      </trkpt>
      <trkpt lat="37.3250310" lon="-2.5017830">
        <ele>1125.4</ele>
        <time>2021-04-18T09:17:30Z</time>
      </trkpt>
      <trkpt lat="37.3250110" lon="-2.5017770">
        <ele>1125.6</ele>
        <time>2021-04-18T09:17:31Z</time>
      </trkpt>
      <trkpt lat="37.3249920" lon="-2.5017740">
        <ele>1125.6</ele>
        <time>2021-04-18T09:17:32Z</time>
      </trkpt>
      <trkpt lat="37.3249740" lon="-2.5017740">
        <ele>1125.8</ele>
        <time>2021-04-18T09:17:33Z</time>
      </trkpt>
      <trkpt lat="37.3249510" lon="-2.5017770">
        <ele>1126.4</ele>
        <time>2021-04-18T09:17:34Z</time>
      </trkpt>
      <trkpt lat="37.3249310" lon="-2.5017780">
        <ele>1126.4</ele>
        <time>2021-04-18T09:17:35Z</time>
      </trkpt>
      <trkpt lat="37.3249140" lon="-2.5017800">
        <ele>1126.6</ele>
        <time>2021-04-18T09:17:36Z</time>
      </trkpt>
      <trkpt lat="37.3248930" lon="-2.5017830">
        <ele>1126.8</ele>
        <time>2021-04-18T09:17:37Z</time>
      </trkpt>
      <trkpt lat="37.3248740" lon="-2.5017870">
        <ele>1126.8</ele>
        <time>2021-04-18T09:17:38Z</time>
      </trkpt>
      <trkpt lat="37.3248540" lon="-2.5017860">
        <ele>1127.0</ele>
        <time>2021-04-18T09:17:39Z</time>
      </trkpt>
      <trkpt lat="37.3248300" lon="-2.5017810">
        <ele>1127.0</ele>
        <time>2021-04-18T09:17:40Z</time>
      </trkpt>
      <trkpt lat="37.3248070" lon="-2.5017740">
        <ele>1127.2</ele>
        <time>2021-04-18T09:17:41Z</time>
      </trkpt>
      <trkpt lat="37.3247850" lon="-2.5017680">
        <ele>1127.2</ele>
        <time>2021-04-18T09:17:42Z</time>
      </trkpt>
      <trkpt lat="37.3247650" lon="-2.5017640">
        <ele>1127.4</ele>
        <time>2021-04-18T09:17:43Z</time>
      </trkpt>
      <trkpt lat="37.3247420" lon="-2.5017570">
        <ele>1127.6</ele>
        <time>2021-04-18T09:17:44Z</time>
      </trkpt>
      <trkpt lat="37.3247210" lon="-2.5017550">
        <ele>1127.6</ele>
        <time>2021-04-18T09:17:45Z</time>
      </trkpt>
      <trkpt lat="37.3246940" lon="-2.5017500">
        <ele>1127.8</ele>
        <time>2021-04-18T09:17:46Z</time>
      </trkpt>
      <trkpt lat="37.3246760" lon="-2.5017450">
        <ele>1128.0</ele>
        <time>2021-04-18T09:17:47Z</time>
      </trkpt>
      <trkpt lat="37.3246550" lon="-2.5017400">
        <ele>1128.2</ele>
        <time>2021-04-18T09:17:48Z</time>
      </trkpt>
      <trkpt lat="37.3246310" lon="-2.5017330">
        <ele>1128.4</ele>
        <time>2021-04-18T09:17:49Z</time>
      </trkpt>
      <trkpt lat="37.3246070" lon="-2.5017270">
        <ele>1128.4</ele>
        <time>2021-04-18T09:17:50Z</time>
      </trkpt>
      <trkpt lat="37.3245830" lon="-2.5017210">
        <ele>1128.4</ele>
        <time>2021-04-18T09:17:51Z</time>
      </trkpt>
      <trkpt lat="37.3245590" lon="-2.5017190">
        <ele>1129.0</ele>
        <time>2021-04-18T09:17:52Z</time>
      </trkpt>
      <trkpt lat="37.3245370" lon="-2.5017140">
        <ele>1129.2</ele>
        <time>2021-04-18T09:17:53Z</time>
      </trkpt>
      <trkpt lat="37.3245150" lon="-2.5017070">
        <ele>1129.4</ele>
        <time>2021-04-18T09:17:54Z</time>
      </trkpt>
      <trkpt lat="37.3244940" lon="-2.5016960">
        <ele>1129.4</ele>
        <time>2021-04-18T09:17:55Z</time>
      </trkpt>
      <trkpt lat="37.3244710" lon="-2.5016870">
        <ele>1129.6</ele>
        <time>2021-04-18T09:17:56Z</time>
      </trkpt>
      <trkpt lat="37.3244480" lon="-2.5016820">
        <ele>1129.6</ele>
        <time>2021-04-18T09:17:57Z</time>
      </trkpt>
      <trkpt lat="37.3244230" lon="-2.5016770">
        <ele>1129.8</ele>
        <time>2021-04-18T09:17:58Z</time>
      </trkpt>
      <trkpt lat="37.3243990" lon="-2.5016690">
        <ele>1129.8</ele>
        <time>2021-04-18T09:17:59Z</time>
      </trkpt>
      <trkpt lat="37.3243730" lon="-2.5016650">
        <ele>1130.0</ele>
        <time>2021-04-18T09:18:00Z</time>
      </trkpt>
      <trkpt lat="37.3243490" lon="-2.5016630">
        <ele>1130.2</ele>
        <time>2021-04-18T09:18:01Z</time>
      </trkpt>
      <trkpt lat="37.3243250" lon="-2.5016550">
        <ele>1130.2</ele>
        <time>2021-04-18T09:18:02Z</time>
      </trkpt>
      <trkpt lat="37.3243020" lon="-2.5016440">
        <ele>1130.4</ele>
        <time>2021-04-18T09:18:03Z</time>
      </trkpt>
      <trkpt lat="37.3242800" lon="-2.5016290">
        <ele>1130.6</ele>
        <time>2021-04-18T09:18:04Z</time>
      </trkpt>
      <trkpt lat="37.3242570" lon="-2.5016150">
        <ele>1130.8</ele>
        <time>2021-04-18T09:18:05Z</time>
      </trkpt>
      <trkpt lat="37.3242360" lon="-2.5016000">
        <ele>1130.8</ele>
        <time>2021-04-18T09:18:06Z</time>
      </trkpt>
      <trkpt lat="37.3242120" lon="-2.5015890">
        <ele>1131.0</ele>
        <time>2021-04-18T09:18:07Z</time>
      </trkpt>
      <trkpt lat="37.3241850" lon="-2.5015740">
        <ele>1131.2</ele>
        <time>2021-04-18T09:18:08Z</time>
      </trkpt>
      <trkpt lat="37.3241630" lon="-2.5015580">
        <ele>1131.4</ele>
        <time>2021-04-18T09:18:09Z</time>
      </trkpt>
      <trkpt lat="37.3241410" lon="-2.5015430">
        <ele>1131.4</ele>
        <time>2021-04-18T09:18:10Z</time>
      </trkpt>
      <trkpt lat="37.3241190" lon="-2.5015300">
        <ele>1131.6</ele>
        <time>2021-04-18T09:18:11Z</time>
      </trkpt>
      <trkpt lat="37.3240920" lon="-2.5015160">
        <ele>1131.8</ele>
        <time>2021-04-18T09:18:12Z</time>
      </trkpt>
      <trkpt lat="37.3240740" lon="-2.5015060">
        <ele>1132.0</ele>
        <time>2021-04-18T09:18:13Z</time>
      </trkpt>
      <trkpt lat="37.3240500" lon="-2.5014940">
        <ele>1132.2</ele>
        <time>2021-04-18T09:18:14Z</time>
      </trkpt>
      <trkpt lat="37.3240280" lon="-2.5014820">
        <ele>1132.0</ele>
        <time>2021-04-18T09:18:15Z</time>
      </trkpt>
      <trkpt lat="37.3240060" lon="-2.5014710">
        <ele>1132.2</ele>
        <time>2021-04-18T09:18:16Z</time>
      </trkpt>
      <trkpt lat="37.3239860" lon="-2.5014580">
        <ele>1132.4</ele>
        <time>2021-04-18T09:18:17Z</time>
      </trkpt>
      <trkpt lat="37.3239660" lon="-2.5014470">
        <ele>1132.4</ele>
        <time>2021-04-18T09:18:18Z</time>
      </trkpt>
      <trkpt lat="37.3239460" lon="-2.5014350">
        <ele>1132.6</ele>
        <time>2021-04-18T09:18:19Z</time>
      </trkpt>
      <trkpt lat="37.3239260" lon="-2.5014220">
        <ele>1132.8</ele>
        <time>2021-04-18T09:18:20Z</time>
      </trkpt>
      <trkpt lat="37.3239040" lon="-2.5014110">
        <ele>1133.0</ele>
        <time>2021-04-18T09:18:21Z</time>
      </trkpt>
      <trkpt lat="37.3238840" lon="-2.5013990">
        <ele>1133.0</ele>
        <time>2021-04-18T09:18:22Z</time>
      </trkpt>
      <trkpt lat="37.3238630" lon="-2.5013870">
        <ele>1133.2</ele>
        <time>2021-04-18T09:18:23Z</time>
      </trkpt>
      <trkpt lat="37.3238430" lon="-2.5013740">
        <ele>1133.6</ele>
        <time>2021-04-18T09:18:24Z</time>
      </trkpt>
      <trkpt lat="37.3238230" lon="-2.5013600">
        <ele>1133.6</ele>
        <time>2021-04-18T09:18:25Z</time>
      </trkpt>
      <trkpt lat="37.3238010" lon="-2.5013490">
        <ele>1133.8</ele>
        <time>2021-04-18T09:18:26Z</time>
      </trkpt>
      <trkpt lat="37.3237740" lon="-2.5013360">
        <ele>1133.8</ele>
        <time>2021-04-18T09:18:27Z</time>
      </trkpt>
      <trkpt lat="37.3237550" lon="-2.5013250">
        <ele>1134.0</ele>
        <time>2021-04-18T09:18:28Z</time>
      </trkpt>
      <trkpt lat="37.3237350" lon="-2.5013160">
        <ele>1134.2</ele>
        <time>2021-04-18T09:18:29Z</time>
      </trkpt>
      <trkpt lat="37.3237140" lon="-2.5013060">
        <ele>1134.4</ele>
        <time>2021-04-18T09:18:30Z</time>
      </trkpt>
      <trkpt lat="37.3236910" lon="-2.5012930">
        <ele>1134.6</ele>
        <time>2021-04-18T09:18:31Z</time>
      </trkpt>
      <trkpt lat="37.3236670" lon="-2.5012810">
        <ele>1134.8</ele>
        <time>2021-04-18T09:18:32Z</time>
      </trkpt>
      <trkpt lat="37.3236440" lon="-2.5012700">
        <ele>1135.0</ele>
        <time>2021-04-18T09:18:33Z</time>
      </trkpt>
      <trkpt lat="37.3236230" lon="-2.5012560">
        <ele>1135.2</ele>
        <time>2021-04-18T09:18:34Z</time>
      </trkpt>
      <trkpt lat="37.3235990" lon="-2.5012410">
        <ele>1135.2</ele>
        <time>2021-04-18T09:18:35Z</time>
      </trkpt>
      <trkpt lat="37.3235770" lon="-2.5012290">
        <ele>1135.6</ele>
        <time>2021-04-18T09:18:36Z</time>
      </trkpt>
      <trkpt lat="37.3235560" lon="-2.5012160">
        <ele>1135.8</ele>
        <time>2021-04-18T09:18:37Z</time>
      </trkpt>
      <trkpt lat="37.3235330" lon="-2.5012020">
        <ele>1136.0</ele>
        <time>2021-04-18T09:18:38Z</time>
      </trkpt>
      <trkpt lat="37.3235120" lon="-2.5011870">
        <ele>1136.0</ele>
        <time>2021-04-18T09:18:39Z</time>
      </trkpt>
      <trkpt lat="37.3234950" lon="-2.5011760">
        <ele>1136.2</ele>
        <time>2021-04-18T09:18:40Z</time>
      </trkpt>
      <trkpt lat="37.3234700" lon="-2.5011580">
        <ele>1136.6</ele>
        <time>2021-04-18T09:18:41Z</time>
      </trkpt>
      <trkpt lat="37.3234510" lon="-2.5011440">
        <ele>1136.6</ele>
        <time>2021-04-18T09:18:42Z</time>
      </trkpt>
      <trkpt lat="37.3234290" lon="-2.5011320">
        <ele>1136.8</ele>
        <time>2021-04-18T09:18:43Z</time>
      </trkpt>
      <trkpt lat="37.3234080" lon="-2.5011180">
        <ele>1136.8</ele>
        <time>2021-04-18T09:18:44Z</time>
      </trkpt>
      <trkpt lat="37.3233880" lon="-2.5011010">
        <ele>1137.0</ele>
        <time>2021-04-18T09:18:45Z</time>
      </trkpt>
      <trkpt lat="37.3233690" lon="-2.5010830">
        <ele>1137.0</ele>
        <time>2021-04-18T09:18:46Z</time>
      </trkpt>
      <trkpt lat="37.3233500" lon="-2.5010670">
        <ele>1137.4</ele>
        <time>2021-04-18T09:18:47Z</time>
      </trkpt>
      <trkpt lat="37.3233280" lon="-2.5010550">
        <ele>1137.8</ele>
        <time>2021-04-18T09:18:48Z</time>
      </trkpt>
      <trkpt lat="37.3233120" lon="-2.5010480">
        <ele>1138.0</ele>
        <time>2021-04-18T09:18:49Z</time>
      </trkpt>
      <trkpt lat="37.3232870" lon="-2.5010370">
        <ele>1138.4</ele>
        <time>2021-04-18T09:18:50Z</time>
      </trkpt>
      <trkpt lat="37.3232650" lon="-2.5010290">
        <ele>1138.6</ele>
        <time>2021-04-18T09:18:51Z</time>
      </trkpt>
      <trkpt lat="37.3232410" lon="-2.5010230">
        <ele>1138.8</ele>
        <time>2021-04-18T09:18:52Z</time>
      </trkpt>
      <trkpt lat="37.3232190" lon="-2.5010180">
        <ele>1139.0</ele>
        <time>2021-04-18T09:18:53Z</time>
      </trkpt>
      <trkpt lat="37.3231980" lon="-2.5010150">
        <ele>1139.2</ele>
        <time>2021-04-18T09:18:54Z</time>
      </trkpt>
      <trkpt lat="37.3231800" lon="-2.5010110">
        <ele>1139.4</ele>
        <time>2021-04-18T09:18:55Z</time>
      </trkpt>
      <trkpt lat="37.3231520" lon="-2.5010050">
        <ele>1139.6</ele>
        <time>2021-04-18T09:18:56Z</time>
      </trkpt>
      <trkpt lat="37.3231310" lon="-2.5010010">
        <ele>1140.0</ele>
        <time>2021-04-18T09:18:57Z</time>
      </trkpt>
      <trkpt lat="37.3231110" lon="-2.5009960">
        <ele>1140.2</ele>
        <time>2021-04-18T09:18:58Z</time>
      </trkpt>
      <trkpt lat="37.3230940" lon="-2.5009900">
        <ele>1140.4</ele>
        <time>2021-04-18T09:18:59Z</time>
      </trkpt>
      <trkpt lat="37.3230710" lon="-2.5009810">
        <ele>1140.6</ele>
        <time>2021-04-18T09:19:00Z</time>
      </trkpt>
      <trkpt lat="37.3230510" lon="-2.5009750">
        <ele>1140.8</ele>
        <time>2021-04-18T09:19:01Z</time>
      </trkpt>
      <trkpt lat="37.3230310" lon="-2.5009730">
        <ele>1141.0</ele>
        <time>2021-04-18T09:19:02Z</time>
      </trkpt>
      <trkpt lat="37.3230130" lon="-2.5009690">
        <ele>1141.0</ele>
        <time>2021-04-18T09:19:03Z</time>
      </trkpt>
      <trkpt lat="37.3229950" lon="-2.5009630">
        <ele>1141.0</ele>
        <time>2021-04-18T09:19:04Z</time>
      </trkpt>
      <trkpt lat="37.3229760" lon="-2.5009560">
        <ele>1141.2</ele>
        <time>2021-04-18T09:19:05Z</time>
      </trkpt>
      <trkpt lat="37.3229550" lon="-2.5009500">
        <ele>1141.4</ele>
        <time>2021-04-18T09:19:06Z</time>
      </trkpt>
      <trkpt lat="37.3229320" lon="-2.5009390">
        <ele>1141.8</ele>
        <time>2021-04-18T09:19:07Z</time>
      </trkpt>
      <trkpt lat="37.3229100" lon="-2.5009290">
        <ele>1142.0</ele>
        <time>2021-04-18T09:19:08Z</time>
      </trkpt>
      <trkpt lat="37.3228880" lon="-2.5009230">
        <ele>1142.2</ele>
        <time>2021-04-18T09:19:09Z</time>
      </trkpt>
      <trkpt lat="37.3228680" lon="-2.5009130">
        <ele>1142.4</ele>
        <time>2021-04-18T09:19:10Z</time>
      </trkpt>
      <trkpt lat="37.3228510" lon="-2.5009010">
        <ele>1142.8</ele>
        <time>2021-04-18T09:19:11Z</time>
      </trkpt>
      <trkpt lat="37.3228280" lon="-2.5008940">
        <ele>1143.0</ele>
        <time>2021-04-18T09:19:12Z</time>
      </trkpt>
      <trkpt lat="37.3228070" lon="-2.5008860">
        <ele>1143.0</ele>
        <time>2021-04-18T09:19:13Z</time>
      </trkpt>
      <trkpt lat="37.3227860" lon="-2.5008750">
        <ele>1143.2</ele>
        <time>2021-04-18T09:19:14Z</time>
      </trkpt>
      <trkpt lat="37.3227670" lon="-2.5008640">
        <ele>1143.4</ele>
        <time>2021-04-18T09:19:15Z</time>
      </trkpt>
      <trkpt lat="37.3227480" lon="-2.5008550">
        <ele>1143.6</ele>
        <time>2021-04-18T09:19:16Z</time>
      </trkpt>
      <trkpt lat="37.3227300" lon="-2.5008470">
        <ele>1143.8</ele>
        <time>2021-04-18T09:19:17Z</time>
      </trkpt>
      <trkpt lat="37.3227120" lon="-2.5008340">
        <ele>1143.8</ele>
        <time>2021-04-18T09:19:18Z</time>
      </trkpt>
      <trkpt lat="37.3226930" lon="-2.5008190">
        <ele>1144.0</ele>
        <time>2021-04-18T09:19:19Z</time>
      </trkpt>
      <trkpt lat="37.3226740" lon="-2.5008050">
        <ele>1144.2</ele>
        <time>2021-04-18T09:19:20Z</time>
      </trkpt>
      <trkpt lat="37.3226570" lon="-2.5007920">
        <ele>1144.2</ele>
        <time>2021-04-18T09:19:21Z</time>
      </trkpt>
      <trkpt lat="37.3226380" lon="-2.5007780">
        <ele>1144.4</ele>
        <time>2021-04-18T09:19:22Z</time>
      </trkpt>
      <trkpt lat="37.3226200" lon="-2.5007630">
        <ele>1144.6</ele>
        <time>2021-04-18T09:19:23Z</time>
      </trkpt>
      <trkpt lat="37.3226040" lon="-2.5007480">
        <ele>1144.8</ele>
        <time>2021-04-18T09:19:24Z</time>
      </trkpt>
      <trkpt lat="37.3225870" lon="-2.5007330">
        <ele>1144.8</ele>
        <time>2021-04-18T09:19:25Z</time>
      </trkpt>
      <trkpt lat="37.3225700" lon="-2.5007170">
        <ele>1145.0</ele>
        <time>2021-04-18T09:19:26Z</time>
      </trkpt>
      <trkpt lat="37.3225520" lon="-2.5007020">
        <ele>1145.2</ele>
        <time>2021-04-18T09:19:27Z</time>
      </trkpt>
      <trkpt lat="37.3225330" lon="-2.5006910">
        <ele>1145.6</ele>
        <time>2021-04-18T09:19:28Z</time>
      </trkpt>
      <trkpt lat="37.3225140" lon="-2.5006780">
        <ele>1145.8</ele>
        <time>2021-04-18T09:19:29Z</time>
      </trkpt>
      <trkpt lat="37.3224960" lon="-2.5006610">
        <ele>1145.8</ele>
        <time>2021-04-18T09:19:30Z</time>
      </trkpt>
      <trkpt lat="37.3224820" lon="-2.5006400">
        <ele>1146.0</ele>
        <time>2021-04-18T09:19:31Z</time>
      </trkpt>
      <trkpt lat="37.3224700" lon="-2.5006210">
        <ele>1146.0</ele>
        <time>2021-04-18T09:19:32Z</time>
      </trkpt>
      <trkpt lat="37.3224560" lon="-2.5006020">
        <ele>1146.2</ele>
        <time>2021-04-18T09:19:33Z</time>
      </trkpt>
      <trkpt lat="37.3224420" lon="-2.5005800">
        <ele>1146.4</ele>
        <time>2021-04-18T09:19:34Z</time>
      </trkpt>
      <trkpt lat="37.3224240" lon="-2.5005620">
        <ele>1146.6</ele>
        <time>2021-04-18T09:19:35Z</time>
      </trkpt>
      <trkpt lat="37.3224080" lon="-2.5005450">
        <ele>1147.2</ele>
        <time>2021-04-18T09:19:36Z</time>
      </trkpt>
      <trkpt lat="37.3223910" lon="-2.5005260">
        <ele>1147.4</ele>
        <time>2021-04-18T09:19:37Z</time>
      </trkpt>
      <trkpt lat="37.3223740" lon="-2.5005110">
        <ele>1147.8</ele>
        <time>2021-04-18T09:19:38Z</time>
      </trkpt>
      <trkpt lat="37.3223570" lon="-2.5004920">
        <ele>1148.0</ele>
        <time>2021-04-18T09:19:39Z</time>
      </trkpt>
      <trkpt lat="37.3223410" lon="-2.5004730">
        <ele>1148.2</ele>
        <time>2021-04-18T09:19:40Z</time>
      </trkpt>
      <trkpt lat="37.3223250" lon="-2.5004560">
        <ele>1148.2</ele>
        <time>2021-04-18T09:19:41Z</time>
      </trkpt>
      <trkpt lat="37.3223090" lon="-2.5004390">
        <ele>1148.4</ele>
        <time>2021-04-18T09:19:42Z</time>
      </trkpt>
      <trkpt lat="37.3222910" lon="-2.5004240">
        <ele>1148.6</ele>
        <time>2021-04-18T09:19:43Z</time>
      </trkpt>
      <trkpt lat="37.3222720" lon="-2.5004070">
        <ele>1148.8</ele>
        <time>2021-04-18T09:19:44Z</time>
      </trkpt>
      <trkpt lat="37.3222510" lon="-2.5003860">
        <ele>1149.0</ele>
        <time>2021-04-18T09:19:45Z</time>
      </trkpt>
      <trkpt lat="37.3222330" lon="-2.5003690">
        <ele>1149.2</ele>
        <time>2021-04-18T09:19:46Z</time>
      </trkpt>
      <trkpt lat="37.3222140" lon="-2.5003520">
        <ele>1149.4</ele>
        <time>2021-04-18T09:19:47Z</time>
      </trkpt>
      <trkpt lat="37.3221950" lon="-2.5003340">
        <ele>1149.8</ele>
        <time>2021-04-18T09:19:48Z</time>
      </trkpt>
      <trkpt lat="37.3221770" lon="-2.5003130">
        <ele>1149.8</ele>
        <time>2021-04-18T09:19:49Z</time>
      </trkpt>
      <trkpt lat="37.3221570" lon="-2.5002920">
        <ele>1150.0</ele>
        <time>2021-04-18T09:19:50Z</time>
      </trkpt>
      <trkpt lat="37.3221400" lon="-2.5002720">
        <ele>1150.0</ele>
        <time>2021-04-18T09:19:51Z</time>
      </trkpt>
      <trkpt lat="37.3221200" lon="-2.5002520">
        <ele>1150.4</ele>
        <time>2021-04-18T09:19:52Z</time>
      </trkpt>
      <trkpt lat="37.3221010" lon="-2.5002380">
        <ele>1150.4</ele>
        <time>2021-04-18T09:19:53Z</time>
      </trkpt>
      <trkpt lat="37.3220830" lon="-2.5002270">
        <ele>1150.6</ele>
        <time>2021-04-18T09:19:54Z</time>
      </trkpt>
      <trkpt lat="37.3220720" lon="-2.5002130">
        <ele>1151.0</ele>
        <time>2021-04-18T09:19:55Z</time>
      </trkpt>
      <trkpt lat="37.3220590" lon="-2.5001970">
        <ele>1151.2</ele>
        <time>2021-04-18T09:19:56Z</time>
      </trkpt>
      <trkpt lat="37.3220440" lon="-2.5001810">
        <ele>1151.4</ele>
        <time>2021-04-18T09:19:57Z</time>
      </trkpt>
      <trkpt lat="37.3220270" lon="-2.5001680">
        <ele>1151.6</ele>
        <time>2021-04-18T09:19:58Z</time>
      </trkpt>
      <trkpt lat="37.3220090" lon="-2.5001500">
        <ele>1151.8</ele>
        <time>2021-04-18T09:19:59Z</time>
      </trkpt>
      <trkpt lat="37.3219900" lon="-2.5001350">
        <ele>1152.2</ele>
        <time>2021-04-18T09:20:00Z</time>
      </trkpt>
      <trkpt lat="37.3219750" lon="-2.5001250">
        <ele>1152.2</ele>
        <time>2021-04-18T09:20:01Z</time>
      </trkpt>
      <trkpt lat="37.3219580" lon="-2.5001110">
        <ele>1152.4</ele>
        <time>2021-04-18T09:20:02Z</time>
      </trkpt>
      <trkpt lat="37.3219360" lon="-2.5000940">
        <ele>1152.6</ele>
        <time>2021-04-18T09:20:03Z</time>
      </trkpt>
      <trkpt lat="37.3219140" lon="-2.5000750">
        <ele>1152.8</ele>
        <time>2021-04-18T09:20:04Z</time>
      </trkpt>
      <trkpt lat="37.3218910" lon="-2.5000580">
        <ele>1153.0</ele>
        <time>2021-04-18T09:20:05Z</time>
      </trkpt>
      <trkpt lat="37.3218660" lon="-2.5000460">
        <ele>1153.2</ele>
        <time>2021-04-18T09:20:06Z</time>
      </trkpt>
      <trkpt lat="37.3218410" lon="-2.5000340">
        <ele>1153.6</ele>
        <time>2021-04-18T09:20:07Z</time>
      </trkpt>
      <trkpt lat="37.3218160" lon="-2.5000210">
        <ele>1153.8</ele>
        <time>2021-04-18T09:20:08Z</time>
      </trkpt>
      <trkpt lat="37.3217890" lon="-2.5000110">
        <ele>1154.2</ele>
        <time>2021-04-18T09:20:09Z</time>
      </trkpt>
      <trkpt lat="37.3217630" lon="-2.5000030">
        <ele>1154.2</ele>
        <time>2021-04-18T09:20:10Z</time>
      </trkpt>
      <trkpt lat="37.3217400" lon="-2.4999930">
        <ele>1154.6</ele>
        <time>2021-04-18T09:20:11Z</time>
      </trkpt>
      <trkpt lat="37.3217150" lon="-2.4999820">
        <ele>1154.8</ele>
        <time>2021-04-18T09:20:12Z</time>
      </trkpt>
      <trkpt lat="37.3216900" lon="-2.4999720">
        <ele>1154.8</ele>
        <time>2021-04-18T09:20:13Z</time>
      </trkpt>
      <trkpt lat="37.3216650" lon="-2.4999630">
        <ele>1155.4</ele>
        <time>2021-04-18T09:20:14Z</time>
      </trkpt>
      <trkpt lat="37.3216330" lon="-2.4999540">
        <ele>1155.6</ele>
        <time>2021-04-18T09:20:15Z</time>
      </trkpt>
      <trkpt lat="37.3216110" lon="-2.4999500">
        <ele>1155.8</ele>
        <time>2021-04-18T09:20:16Z</time>
      </trkpt>
      <trkpt lat="37.3215860" lon="-2.4999480">
        <ele>1156.0</ele>
        <time>2021-04-18T09:20:17Z</time>
      </trkpt>
      <trkpt lat="37.3215680" lon="-2.4999460">
        <ele>1156.2</ele>
        <time>2021-04-18T09:20:18Z</time>
      </trkpt>
      <trkpt lat="37.3215400" lon="-2.4999390">
        <ele>1156.2</ele>
        <time>2021-04-18T09:20:19Z</time>
      </trkpt>
      <trkpt lat="37.3215200" lon="-2.4999350">
        <ele>1156.4</ele>
        <time>2021-04-18T09:20:20Z</time>
      </trkpt>
      <trkpt lat="37.3214970" lon="-2.4999310">
        <ele>1156.6</ele>
        <time>2021-04-18T09:20:21Z</time>
      </trkpt>
      <trkpt lat="37.3214740" lon="-2.4999280">
        <ele>1156.6</ele>
        <time>2021-04-18T09:20:22Z</time>
      </trkpt>
      <trkpt lat="37.3214520" lon="-2.4999220">
        <ele>1157.0</ele>
        <time>2021-04-18T09:20:23Z</time>
      </trkpt>
      <trkpt lat="37.3214340" lon="-2.4999090">
        <ele>1157.4</ele>
        <time>2021-04-18T09:20:24Z</time>
      </trkpt>
      <trkpt lat="37.3214150" lon="-2.4998970">
        <ele>1157.6</ele>
        <time>2021-04-18T09:20:25Z</time>
      </trkpt>
      <trkpt lat="37.3213940" lon="-2.4998900">
        <ele>1157.6</ele>
        <time>2021-04-18T09:20:26Z</time>
      </trkpt>
      <trkpt lat="37.3213710" lon="-2.4998840">
        <ele>1157.8</ele>
        <time>2021-04-18T09:20:27Z</time>
      </trkpt>
      <trkpt lat="37.3213550" lon="-2.4998800">
        <ele>1158.2</ele>
        <time>2021-04-18T09:20:28Z</time>
      </trkpt>
      <trkpt lat="37.3213350" lon="-2.4998770">
        <ele>1158.4</ele>
        <time>2021-04-18T09:20:29Z</time>
      </trkpt>
      <trkpt lat="37.3213120" lon="-2.4998710">
        <ele>1158.6</ele>
        <time>2021-04-18T09:20:30Z</time>
      </trkpt>
      <trkpt lat="37.3212900" lon="-2.4998650">
        <ele>1158.8</ele>
        <time>2021-04-18T09:20:31Z</time>
      </trkpt>
      <trkpt lat="37.3212690" lon="-2.4998580">
        <ele>1159.0</ele>
        <time>2021-04-18T09:20:32Z</time>
      </trkpt>
      <trkpt lat="37.3212500" lon="-2.4998480">
        <ele>1159.2</ele>
        <time>2021-04-18T09:20:33Z</time>
      </trkpt>
      <trkpt lat="37.3212290" lon="-2.4998400">
        <ele>1159.4</ele>
        <time>2021-04-18T09:20:34Z</time>
      </trkpt>
      <trkpt lat="37.3212070" lon="-2.4998300">
        <ele>1159.6</ele>
        <time>2021-04-18T09:20:35Z</time>
      </trkpt>
      <trkpt lat="37.3211860" lon="-2.4998240">
        <ele>1160.0</ele>
        <time>2021-04-18T09:20:36Z</time>
      </trkpt>
      <trkpt lat="37.3211670" lon="-2.4998120">
        <ele>1160.2</ele>
        <time>2021-04-18T09:20:37Z</time>
      </trkpt>
      <trkpt lat="37.3211470" lon="-2.4998050">
        <ele>1160.4</ele>
        <time>2021-04-18T09:20:38Z</time>
      </trkpt>
      <trkpt lat="37.3211290" lon="-2.4998000">
        <ele>1160.6</ele>
        <time>2021-04-18T09:20:39Z</time>
      </trkpt>
      <trkpt lat="37.3211070" lon="-2.4997950">
        <ele>1161.0</ele>
        <time>2021-04-18T09:20:40Z</time>
      </trkpt>
      <trkpt lat="37.3210840" lon="-2.4997900">
        <ele>1161.0</ele>
        <time>2021-04-18T09:20:41Z</time>
      </trkpt>
      <trkpt lat="37.3210620" lon="-2.4997850">
        <ele>1161.2</ele>
        <time>2021-04-18T09:20:42Z</time>
      </trkpt>
      <trkpt lat="37.3210400" lon="-2.4997800">
        <ele>1161.8</ele>
        <time>2021-04-18T09:20:43Z</time>
      </trkpt>
      <trkpt lat="37.3210190" lon="-2.4997750">
        <ele>1161.8</ele>
        <time>2021-04-18T09:20:44Z</time>
      </trkpt>
      <trkpt lat="37.3209990" lon="-2.4997670">
        <ele>1162.0</ele>
        <time>2021-04-18T09:20:45Z</time>
      </trkpt>
      <trkpt lat="37.3209770" lon="-2.4997560">
        <ele>1162.2</ele>
        <time>2021-04-18T09:20:46Z</time>
      </trkpt>
      <trkpt lat="37.3209570" lon="-2.4997460">
        <ele>1162.4</ele>
        <time>2021-04-18T09:20:47Z</time>
      </trkpt>
      <trkpt lat="37.3209340" lon="-2.4997390">
        <ele>1162.6</ele>
        <time>2021-04-18T09:20:48Z</time>
      </trkpt>
      <trkpt lat="37.3209130" lon="-2.4997300">
        <ele>1162.8</ele>
        <time>2021-04-18T09:20:49Z</time>
      </trkpt>
      <trkpt lat="37.3208910" lon="-2.4997230">
        <ele>1163.0</ele>
        <time>2021-04-18T09:20:50Z</time>
      </trkpt>
      <trkpt lat="37.3208660" lon="-2.4997170">
        <ele>1163.0</ele>
        <time>2021-04-18T09:20:51Z</time>
      </trkpt>
      <trkpt lat="37.3208470" lon="-2.4997090">
        <ele>1163.2</ele>
        <time>2021-04-18T09:20:52Z</time>
      </trkpt>
      <trkpt lat="37.3208250" lon="-2.4997020">
        <ele>1163.4</ele>
        <time>2021-04-18T09:20:53Z</time>
      </trkpt>
      <trkpt lat="37.3207980" lon="-2.4996940">
        <ele>1163.8</ele>
        <time>2021-04-18T09:20:54Z</time>
      </trkpt>
      <trkpt lat="37.3207760" lon="-2.4996870">
        <ele>1164.2</ele>
        <time>2021-04-18T09:20:55Z</time>
      </trkpt>
      <trkpt lat="37.3207530" lon="-2.4996790">
        <ele>1164.4</ele>
        <time>2021-04-18T09:20:56Z</time>
      </trkpt>
      <trkpt lat="37.3207290" lon="-2.4996710">
        <ele>1164.6</ele>
        <time>2021-04-18T09:20:57Z</time>
      </trkpt>
      <trkpt lat="37.3207060" lon="-2.4996620">
        <ele>1164.8</ele>
        <time>2021-04-18T09:20:58Z</time>
      </trkpt>
      <trkpt lat="37.3206800" lon="-2.4996520">
        <ele>1165.0</ele>
        <time>2021-04-18T09:20:59Z</time>
      </trkpt>
      <trkpt lat="37.3206520" lon="-2.4996410">
        <ele>1165.0</ele>
        <time>2021-04-18T09:21:00Z</time>
      </trkpt>
      <trkpt lat="37.3206200" lon="-2.4996310">
        <ele>1165.2</ele>
        <time>2021-04-18T09:21:01Z</time>
      </trkpt>
      <trkpt lat="37.3205890" lon="-2.4996200">
        <ele>1165.6</ele>
        <time>2021-04-18T09:21:02Z</time>
      </trkpt>
      <trkpt lat="37.3205550" lon="-2.4996020">
        <ele>1165.6</ele>
        <time>2021-04-18T09:21:03Z</time>
      </trkpt>
      <trkpt lat="37.3205360" lon="-2.4995900">
        <ele>1166.0</ele>
        <time>2021-04-18T09:21:04Z</time>
      </trkpt>
      <trkpt lat="37.3205110" lon="-2.4995760">
        <ele>1166.2</ele>
        <time>2021-04-18T09:21:05Z</time>
      </trkpt>
      <trkpt lat="37.3204860" lon="-2.4995600">
        <ele>1166.4</ele>
        <time>2021-04-18T09:21:06Z</time>
      </trkpt>
      <trkpt lat="37.3204590" lon="-2.4995380">
        <ele>1166.6</ele>
        <time>2021-04-18T09:21:07Z</time>
      </trkpt>
      <trkpt lat="37.3204340" lon="-2.4995160">
        <ele>1166.6</ele>
        <time>2021-04-18T09:21:08Z</time>
      </trkpt>
      <trkpt lat="37.3204110" lon="-2.4994920">
        <ele>1167.0</ele>
        <time>2021-04-18T09:21:09Z</time>
      </trkpt>
      <trkpt lat="37.3203890" lon="-2.4994640">
        <ele>1167.2</ele>
        <time>2021-04-18T09:21:10Z</time>
      </trkpt>
      <trkpt lat="37.3203720" lon="-2.4994310">
        <ele>1167.4</ele>
        <time>2021-04-18T09:21:11Z</time>
      </trkpt>
      <trkpt lat="37.3203570" lon="-2.4993980">
        <ele>1167.4</ele>
        <time>2021-04-18T09:21:12Z</time>
      </trkpt>
      <trkpt lat="37.3203430" lon="-2.4993640">
        <ele>1167.6</ele>
        <time>2021-04-18T09:21:13Z</time>
      </trkpt>
      <trkpt lat="37.3203300" lon="-2.4993290">
        <ele>1168.2</ele>
        <time>2021-04-18T09:21:14Z</time>
      </trkpt>
      <trkpt lat="37.3203170" lon="-2.4992960">
        <ele>1168.4</ele>
        <time>2021-04-18T09:21:15Z</time>
      </trkpt>
      <trkpt lat="37.3203030" lon="-2.4992530">
        <ele>1168.6</ele>
        <time>2021-04-18T09:21:16Z</time>
      </trkpt>
      <trkpt lat="37.3202950" lon="-2.4992230">
        <ele>1168.6</ele>
        <time>2021-04-18T09:21:17Z</time>
      </trkpt>
      <trkpt lat="37.3202910" lon="-2.4991840">
        <ele>1168.8</ele>
        <time>2021-04-18T09:21:18Z</time>
      </trkpt>
      <trkpt lat="37.3202860" lon="-2.4991460">
        <ele>1169.0</ele>
        <time>2021-04-18T09:21:19Z</time>
      </trkpt>
      <trkpt lat="37.3202790" lon="-2.4991060">
        <ele>1169.0</ele>
        <time>2021-04-18T09:21:20Z</time>
      </trkpt>
      <trkpt lat="37.3202710" lon="-2.4990680">
        <ele>1169.2</ele>
        <time>2021-04-18T09:21:21Z</time>
      </trkpt>
      <trkpt lat="37.3202660" lon="-2.4990300">
        <ele>1169.2</ele>
        <time>2021-04-18T09:21:22Z</time>
      </trkpt>
      <trkpt lat="37.3202620" lon="-2.4989920">
        <ele>1169.2</ele>
        <time>2021-04-18T09:21:23Z</time>
      </trkpt>
      <trkpt lat="37.3202590" lon="-2.4989530">
        <ele>1169.2</ele>
        <time>2021-04-18T09:21:25Z</time>
      </trkpt>
      <trkpt lat="37.3202570" lon="-2.4989130">
        <ele>1169.4</ele>
        <time>2021-04-18T09:21:26Z</time>
      </trkpt>
      <trkpt lat="37.3202530" lon="-2.4988720">
        <ele>1169.4</ele>
        <time>2021-04-18T09:21:27Z</time>
      </trkpt>
      <trkpt lat="37.3202490" lon="-2.4988310">
        <ele>1169.4</ele>
        <time>2021-04-18T09:21:28Z</time>
      </trkpt>
      <trkpt lat="37.3202490" lon="-2.4987890">
        <ele>1169.4</ele>
        <time>2021-04-18T09:21:29Z</time>
      </trkpt>
      <trkpt lat="37.3202500" lon="-2.4987470">
        <ele>1169.4</ele>
        <time>2021-04-18T09:21:30Z</time>
      </trkpt>
      <trkpt lat="37.3202510" lon="-2.4987070">
        <ele>1169.6</ele>
        <time>2021-04-18T09:21:31Z</time>
      </trkpt>
      <trkpt lat="37.3202520" lon="-2.4986690">
        <ele>1169.6</ele>
        <time>2021-04-18T09:21:32Z</time>
      </trkpt>
      <trkpt lat="37.3202540" lon="-2.4986350">
        <ele>1169.8</ele>
        <time>2021-04-18T09:21:33Z</time>
      </trkpt>
      <trkpt lat="37.3202530" lon="-2.4985950">
        <ele>1169.8</ele>
        <time>2021-04-18T09:21:34Z</time>
      </trkpt>
      <trkpt lat="37.3202510" lon="-2.4985700">
        <ele>1170.0</ele>
        <time>2021-04-18T09:21:35Z</time>
      </trkpt>
      <trkpt lat="37.3202490" lon="-2.4985330">
        <ele>1170.0</ele>
        <time>2021-04-18T09:21:36Z</time>
      </trkpt>
      <trkpt lat="37.3202450" lon="-2.4984970">
        <ele>1170.2</ele>
        <time>2021-04-18T09:21:37Z</time>
      </trkpt>
      <trkpt lat="37.3202380" lon="-2.4984580">
        <ele>1170.4</ele>
        <time>2021-04-18T09:21:38Z</time>
      </trkpt>
      <trkpt lat="37.3202330" lon="-2.4984160">
        <ele>1170.8</ele>
        <time>2021-04-18T09:21:39Z</time>
      </trkpt>
      <trkpt lat="37.3202300" lon="-2.4983760">
        <ele>1171.0</ele>
        <time>2021-04-18T09:21:40Z</time>
      </trkpt>
      <trkpt lat="37.3202260" lon="-2.4983410">
        <ele>1171.2</ele>
        <time>2021-04-18T09:21:41Z</time>
      </trkpt>
      <trkpt lat="37.3202170" lon="-2.4983040">
        <ele>1171.2</ele>
        <time>2021-04-18T09:21:42Z</time>
      </trkpt>
      <trkpt lat="37.3202090" lon="-2.4982620">
        <ele>1171.6</ele>
        <time>2021-04-18T09:21:43Z</time>
      </trkpt>
      <trkpt lat="37.3202000" lon="-2.4982260">
        <ele>1171.8</ele>
        <time>2021-04-18T09:21:44Z</time>
      </trkpt>
      <trkpt lat="37.3201900" lon="-2.4981910">
        <ele>1172.2</ele>
        <time>2021-04-18T09:21:45Z</time>
      </trkpt>
      <trkpt lat="37.3201810" lon="-2.4981570">
        <ele>1172.6</ele>
        <time>2021-04-18T09:21:46Z</time>
      </trkpt>
      <trkpt lat="37.3201710" lon="-2.4981220">
        <ele>1172.6</ele>
        <time>2021-04-18T09:21:47Z</time>
      </trkpt>
      <trkpt lat="37.3201570" lon="-2.4980910">
        <ele>1172.8</ele>
        <time>2021-04-18T09:21:48Z</time>
      </trkpt>
      <trkpt lat="37.3201440" lon="-2.4980600">
        <ele>1173.0</ele>
        <time>2021-04-18T09:21:49Z</time>
      </trkpt>
      <trkpt lat="37.3201270" lon="-2.4980340">
        <ele>1173.4</ele>
        <time>2021-04-18T09:21:50Z</time>
      </trkpt>
      <trkpt lat="37.3201090" lon="-2.4980090">
        <ele>1173.6</ele>
        <time>2021-04-18T09:21:51Z</time>
      </trkpt>
      <trkpt lat="37.3200920" lon="-2.4979860">
        <ele>1173.8</ele>
        <time>2021-04-18T09:21:52Z</time>
      </trkpt>
      <trkpt lat="37.3200760" lon="-2.4979650">
        <ele>1174.0</ele>
        <time>2021-04-18T09:21:53Z</time>
      </trkpt>
      <trkpt lat="37.3200570" lon="-2.4979460">
        <ele>1174.0</ele>
        <time>2021-04-18T09:21:54Z</time>
      </trkpt>
      <trkpt lat="37.3200390" lon="-2.4979250">
        <ele>1174.2</ele>
        <time>2021-04-18T09:21:55Z</time>
      </trkpt>
      <trkpt lat="37.3200210" lon="-2.4979000">
        <ele>1174.4</ele>
        <time>2021-04-18T09:21:56Z</time>
      </trkpt>
      <trkpt lat="37.3200040" lon="-2.4978770">
        <ele>1174.6</ele>
        <time>2021-04-18T09:21:57Z</time>
      </trkpt>
      <trkpt lat="37.3199870" lon="-2.4978540">
        <ele>1174.6</ele>
        <time>2021-04-18T09:21:58Z</time>
      </trkpt>
      <trkpt lat="37.3199710" lon="-2.4978320">
        <ele>1174.6</ele>
        <time>2021-04-18T09:21:59Z</time>
      </trkpt>
      <trkpt lat="37.3199520" lon="-2.4978110">
        <ele>1174.8</ele>
        <time>2021-04-18T09:22:00Z</time>
      </trkpt>
      <trkpt lat="37.3199350" lon="-2.4977880">
        <ele>1175.2</ele>
        <time>2021-04-18T09:22:01Z</time>
      </trkpt>
      <trkpt lat="37.3199180" lon="-2.4977670">
        <ele>1175.4</ele>
        <time>2021-04-18T09:22:02Z</time>
      </trkpt>
      <trkpt lat="37.3198980" lon="-2.4977490">
        <ele>1175.6</ele>
        <time>2021-04-18T09:22:03Z</time>
      </trkpt>
      <trkpt lat="37.3198780" lon="-2.4977290">
        <ele>1175.8</ele>
        <time>2021-04-18T09:22:04Z</time>
      </trkpt>
      <trkpt lat="37.3198570" lon="-2.4977090">
        <ele>1176.2</ele>
        <time>2021-04-18T09:22:05Z</time>
      </trkpt>
      <trkpt lat="37.3198380" lon="-2.4976920">
        <ele>1176.2</ele>
        <time>2021-04-18T09:22:06Z</time>
      </trkpt>
      <trkpt lat="37.3198170" lon="-2.4976740">
        <ele>1176.6</ele>
        <time>2021-04-18T09:22:07Z</time>
      </trkpt>
      <trkpt lat="37.3197960" lon="-2.4976520">
        <ele>1176.6</ele>
        <time>2021-04-18T09:22:08Z</time>
      </trkpt>
      <trkpt lat="37.3197780" lon="-2.4976330">
        <ele>1176.8</ele>
        <time>2021-04-18T09:22:09Z</time>
      </trkpt>
      <trkpt lat="37.3197620" lon="-2.4976140">
        <ele>1177.0</ele>
        <time>2021-04-18T09:22:10Z</time>
      </trkpt>
      <trkpt lat="37.3197440" lon="-2.4975950">
        <ele>1177.0</ele>
        <time>2021-04-18T09:22:11Z</time>
      </trkpt>
      <trkpt lat="37.3197330" lon="-2.4975730">
        <ele>1177.2</ele>
        <time>2021-04-18T09:22:12Z</time>
      </trkpt>
      <trkpt lat="37.3197170" lon="-2.4975560">
        <ele>1177.4</ele>
        <time>2021-04-18T09:22:13Z</time>
      </trkpt>
      <trkpt lat="37.3197000" lon="-2.4975370">
        <ele>1177.8</ele>
        <time>2021-04-18T09:22:14Z</time>
      </trkpt>
      <trkpt lat="37.3196840" lon="-2.4975160">
        <ele>1178.0</ele>
        <time>2021-04-18T09:22:15Z</time>
      </trkpt>
      <trkpt lat="37.3196710" lon="-2.4974950">
        <ele>1178.2</ele>
        <time>2021-04-18T09:22:16Z</time>
      </trkpt>
      <trkpt lat="37.3196550" lon="-2.4974730">
        <ele>1178.4</ele>
        <time>2021-04-18T09:22:17Z</time>
      </trkpt>
      <trkpt lat="37.3196400" lon="-2.4974460">
        <ele>1178.6</ele>
        <time>2021-04-18T09:22:18Z</time>
      </trkpt>
      <trkpt lat="37.3196300" lon="-2.4974270">
        <ele>1179.0</ele>
        <time>2021-04-18T09:22:19Z</time>
      </trkpt>
      <trkpt lat="37.3196190" lon="-2.4974040">
        <ele>1179.2</ele>
        <time>2021-04-18T09:22:20Z</time>
      </trkpt>
      <trkpt lat="37.3196050" lon="-2.4973840">
        <ele>1179.6</ele>
        <time>2021-04-18T09:22:21Z</time>
      </trkpt>
      <trkpt lat="37.3195910" lon="-2.4973660">
        <ele>1179.8</ele>
        <time>2021-04-18T09:22:22Z</time>
      </trkpt>
      <trkpt lat="37.3195770" lon="-2.4973490">
        <ele>1180.0</ele>
        <time>2021-04-18T09:22:23Z</time>
      </trkpt>
      <trkpt lat="37.3195630" lon="-2.4973300">
        <ele>1180.2</ele>
        <time>2021-04-18T09:22:24Z</time>
      </trkpt>
      <trkpt lat="37.3195500" lon="-2.4973070">
        <ele>1180.4</ele>
        <time>2021-04-18T09:22:25Z</time>
      </trkpt>
      <trkpt lat="37.3195390" lon="-2.4972860">
        <ele>1180.6</ele>
        <time>2021-04-18T09:22:26Z</time>
      </trkpt>
      <trkpt lat="37.3195290" lon="-2.4972600">
        <ele>1180.8</ele>
        <time>2021-04-18T09:22:27Z</time>
      </trkpt>
      <trkpt lat="37.3195170" lon="-2.4972330">
        <ele>1181.0</ele>
        <time>2021-04-18T09:22:28Z</time>
      </trkpt>
      <trkpt lat="37.3195030" lon="-2.4972110">
        <ele>1181.4</ele>
        <time>2021-04-18T09:22:29Z</time>
      </trkpt>
      <trkpt lat="37.3194850" lon="-2.4971910">
        <ele>1181.4</ele>
        <time>2021-04-18T09:22:30Z</time>
      </trkpt>
      <trkpt lat="37.3194680" lon="-2.4971710">
        <ele>1181.6</ele>
        <time>2021-04-18T09:22:31Z</time>
      </trkpt>
      <trkpt lat="37.3194540" lon="-2.4971480">
        <ele>1181.6</ele>
        <time>2021-04-18T09:22:32Z</time>
      </trkpt>
      <trkpt lat="37.3194370" lon="-2.4971260">
        <ele>1182.0</ele>
        <time>2021-04-18T09:22:33Z</time>
      </trkpt>
      <trkpt lat="37.3194220" lon="-2.4971060">
        <ele>1182.4</ele>
        <time>2021-04-18T09:22:34Z</time>
      </trkpt>
      <trkpt lat="37.3194080" lon="-2.4970860">
        <ele>1182.4</ele>
        <time>2021-04-18T09:22:35Z</time>
      </trkpt>
      <trkpt lat="37.3193900" lon="-2.4970650">
        <ele>1182.8</ele>
        <time>2021-04-18T09:22:36Z</time>
      </trkpt>
      <trkpt lat="37.3193740" lon="-2.4970440">
        <ele>1182.8</ele>
        <time>2021-04-18T09:22:37Z</time>
      </trkpt>
      <trkpt lat="37.3193570" lon="-2.4970230">
        <ele>1183.2</ele>
        <time>2021-04-18T09:22:38Z</time>
      </trkpt>
      <trkpt lat="37.3193350" lon="-2.4969950">
        <ele>1183.2</ele>
        <time>2021-04-18T09:22:39Z</time>
      </trkpt>
      <trkpt lat="37.3193200" lon="-2.4969760">
        <ele>1183.4</ele>
        <time>2021-04-18T09:22:40Z</time>
      </trkpt>
      <trkpt lat="37.3193020" lon="-2.4969500">
        <ele>1183.6</ele>
        <time>2021-04-18T09:22:41Z</time>
      </trkpt>
      <trkpt lat="37.3192880" lon="-2.4969200">
        <ele>1183.6</ele>
        <time>2021-04-18T09:22:42Z</time>
      </trkpt>
      <trkpt lat="37.3192750" lon="-2.4968910">
        <ele>1183.8</ele>
        <time>2021-04-18T09:22:43Z</time>
      </trkpt>
      <trkpt lat="37.3192610" lon="-2.4968620">
        <ele>1184.0</ele>
        <time>2021-04-18T09:22:44Z</time>
      </trkpt>
      <trkpt lat="37.3192470" lon="-2.4968310">
        <ele>1184.0</ele>
        <time>2021-04-18T09:22:45Z</time>
      </trkpt>
      <trkpt lat="37.3192340" lon="-2.4968030">
        <ele>1184.2</ele>
        <time>2021-04-18T09:22:46Z</time>
      </trkpt>
      <trkpt lat="37.3192230" lon="-2.4967730">
        <ele>1184.2</ele>
        <time>2021-04-18T09:22:47Z</time>
      </trkpt>
      <trkpt lat="37.3192150" lon="-2.4967420">
        <ele>1184.4</ele>
        <time>2021-04-18T09:22:48Z</time>
      </trkpt>
      <trkpt lat="37.3192070" lon="-2.4967130">
        <ele>1184.6</ele>
        <time>2021-04-18T09:22:49Z</time>
      </trkpt>
      <trkpt lat="37.3192010" lon="-2.4966830">
        <ele>1185.0</ele>
        <time>2021-04-18T09:22:50Z</time>
      </trkpt>
      <trkpt lat="37.3191970" lon="-2.4966480">
        <ele>1185.0</ele>
        <time>2021-04-18T09:22:51Z</time>
      </trkpt>
      <trkpt lat="37.3191960" lon="-2.4966140">
        <ele>1185.2</ele>
        <time>2021-04-18T09:22:52Z</time>
      </trkpt>
      <trkpt lat="37.3191970" lon="-2.4965820">
        <ele>1185.4</ele>
        <time>2021-04-18T09:22:53Z</time>
      </trkpt>
      <trkpt lat="37.3191970" lon="-2.4965500">
        <ele>1185.6</ele>
        <time>2021-04-18T09:22:54Z</time>
      </trkpt>
      <trkpt lat="37.3191930" lon="-2.4965170">
        <ele>1185.8</ele>
        <time>2021-04-18T09:22:55Z</time>
      </trkpt>
      <trkpt lat="37.3191880" lon="-2.4964840">
        <ele>1186.0</ele>
        <time>2021-04-18T09:22:56Z</time>
      </trkpt>
      <trkpt lat="37.3191850" lon="-2.4964530">
        <ele>1186.2</ele>
        <time>2021-04-18T09:22:57Z</time>
      </trkpt>
      <trkpt lat="37.3191850" lon="-2.4964220">
        <ele>1186.4</ele>
        <time>2021-04-18T09:22:58Z</time>
      </trkpt>
      <trkpt lat="37.3191820" lon="-2.4963880">
        <ele>1186.6</ele>
        <time>2021-04-18T09:22:59Z</time>
      </trkpt>
      <trkpt lat="37.3191790" lon="-2.4963460">
        <ele>1186.6</ele>
        <time>2021-04-18T09:23:00Z</time>
      </trkpt>
      <trkpt lat="37.3191760" lon="-2.4963210">
        <ele>1186.8</ele>
        <time>2021-04-18T09:23:01Z</time>
      </trkpt>
      <trkpt lat="37.3191710" lon="-2.4962910">
        <ele>1187.2</ele>
        <time>2021-04-18T09:23:02Z</time>
      </trkpt>
      <trkpt lat="37.3191670" lon="-2.4962580">
        <ele>1187.4</ele>
        <time>2021-04-18T09:23:03Z</time>
      </trkpt>
      <trkpt lat="37.3191640" lon="-2.4962210">
        <ele>1187.6</ele>
        <time>2021-04-18T09:23:04Z</time>
      </trkpt>
      <trkpt lat="37.3191590" lon="-2.4961830">
        <ele>1188.0</ele>
        <time>2021-04-18T09:23:05Z</time>
      </trkpt>
      <trkpt lat="37.3191490" lon="-2.4961470">
        <ele>1188.2</ele>
        <time>2021-04-18T09:23:06Z</time>
      </trkpt>
      <trkpt lat="37.3191430" lon="-2.4961120">
        <ele>1188.4</ele>
        <time>2021-04-18T09:23:07Z</time>
      </trkpt>
      <trkpt lat="37.3191360" lon="-2.4960750">
        <ele>1188.6</ele>
        <time>2021-04-18T09:23:08Z</time>
      </trkpt>
      <trkpt lat="37.3191310" lon="-2.4960370">
        <ele>1188.8</ele>
        <time>2021-04-18T09:23:09Z</time>
      </trkpt>
      <trkpt lat="37.3191240" lon="-2.4959980">
        <ele>1189.0</ele>
        <time>2021-04-18T09:23:10Z</time>
      </trkpt>
      <trkpt lat="37.3191140" lon="-2.4959600">
        <ele>1189.2</ele>
        <time>2021-04-18T09:23:11Z</time>
      </trkpt>
      <trkpt lat="37.3191030" lon="-2.4959220">
        <ele>1189.2</ele>
        <time>2021-04-18T09:23:12Z</time>
      </trkpt>
      <trkpt lat="37.3190930" lon="-2.4958850">
        <ele>1189.4</ele>
        <time>2021-04-18T09:23:13Z</time>
      </trkpt>
      <trkpt lat="37.3190780" lon="-2.4958510">
        <ele>1189.6</ele>
        <time>2021-04-18T09:23:14Z</time>
      </trkpt>
      <trkpt lat="37.3190640" lon="-2.4958170">
        <ele>1189.8</ele>
        <time>2021-04-18T09:23:15Z</time>
      </trkpt>
      <trkpt lat="37.3190530" lon="-2.4957810">
        <ele>1190.2</ele>
        <time>2021-04-18T09:23:16Z</time>
      </trkpt>
      <trkpt lat="37.3190390" lon="-2.4957480">
        <ele>1190.4</ele>
        <time>2021-04-18T09:23:17Z</time>
      </trkpt>
      <trkpt lat="37.3190220" lon="-2.4957170">
        <ele>1190.4</ele>
        <time>2021-04-18T09:23:18Z</time>
      </trkpt>
      <trkpt lat="37.3190040" lon="-2.4956880">
        <ele>1190.6</ele>
        <time>2021-04-18T09:23:19Z</time>
      </trkpt>
      <trkpt lat="37.3189850" lon="-2.4956590">
        <ele>1190.8</ele>
        <time>2021-04-18T09:23:20Z</time>
      </trkpt>
      <trkpt lat="37.3189650" lon="-2.4956310">
        <ele>1191.0</ele>
        <time>2021-04-18T09:23:21Z</time>
      </trkpt>
      <trkpt lat="37.3189440" lon="-2.4956050">
        <ele>1191.2</ele>
        <time>2021-04-18T09:23:22Z</time>
      </trkpt>
      <trkpt lat="37.3189210" lon="-2.4955800">
        <ele>1191.4</ele>
        <time>2021-04-18T09:23:23Z</time>
      </trkpt>
      <trkpt lat="37.3188960" lon="-2.4955590">
        <ele>1191.6</ele>
        <time>2021-04-18T09:23:24Z</time>
      </trkpt>
      <trkpt lat="37.3188700" lon="-2.4955340">
        <ele>1191.6</ele>
        <time>2021-04-18T09:23:25Z</time>
      </trkpt>
      <trkpt lat="37.3188480" lon="-2.4955070">
        <ele>1192.0</ele>
        <time>2021-04-18T09:23:26Z</time>
      </trkpt>
      <trkpt lat="37.3188290" lon="-2.4954810">
        <ele>1192.2</ele>
        <time>2021-04-18T09:23:27Z</time>
      </trkpt>
      <trkpt lat="37.3188100" lon="-2.4954570">
        <ele>1192.4</ele>
        <time>2021-04-18T09:23:28Z</time>
      </trkpt>
      <trkpt lat="37.3187910" lon="-2.4954360">
        <ele>1192.6</ele>
        <time>2021-04-18T09:23:29Z</time>
      </trkpt>
      <trkpt lat="37.3187710" lon="-2.4954160">
        <ele>1192.6</ele>
        <time>2021-04-18T09:23:30Z</time>
      </trkpt>
      <trkpt lat="37.3187460" lon="-2.4953890">
        <ele>1192.8</ele>
        <time>2021-04-18T09:23:31Z</time>
      </trkpt>
      <trkpt lat="37.3187270" lon="-2.4953710">
        <ele>1193.0</ele>
        <time>2021-04-18T09:23:32Z</time>
      </trkpt>
      <trkpt lat="37.3187030" lon="-2.4953480">
        <ele>1193.2</ele>
        <time>2021-04-18T09:23:33Z</time>
      </trkpt>
      <trkpt lat="37.3186810" lon="-2.4953250">
        <ele>1193.2</ele>
        <time>2021-04-18T09:23:34Z</time>
      </trkpt>
      <trkpt lat="37.3186600" lon="-2.4953040">
        <ele>1193.4</ele>
        <time>2021-04-18T09:23:35Z</time>
      </trkpt>
      <trkpt lat="37.3186360" lon="-2.4952790">
        <ele>1193.8</ele>
        <time>2021-04-18T09:23:36Z</time>
      </trkpt>
      <trkpt lat="37.3186120" lon="-2.4952510">
        <ele>1194.0</ele>
        <time>2021-04-18T09:23:37Z</time>
      </trkpt>
      <trkpt lat="37.3185850" lon="-2.4952230">
        <ele>1194.2</ele>
        <time>2021-04-18T09:23:38Z</time>
      </trkpt>
      <trkpt lat="37.3185700" lon="-2.4952030">
        <ele>1194.4</ele>
        <time>2021-04-18T09:23:39Z</time>
      </trkpt>
      <trkpt lat="37.3185510" lon="-2.4951840">
        <ele>1194.6</ele>
        <time>2021-04-18T09:23:40Z</time>
      </trkpt>
      <trkpt lat="37.3185280" lon="-2.4951630">
        <ele>1194.8</ele>
        <time>2021-04-18T09:23:41Z</time>
      </trkpt>
      <trkpt lat="37.3185020" lon="-2.4951470">
        <ele>1195.0</ele>
        <time>2021-04-18T09:23:42Z</time>
      </trkpt>
      <trkpt lat="37.3184780" lon="-2.4951280">
        <ele>1195.4</ele>
        <time>2021-04-18T09:23:43Z</time>
      </trkpt>
      <trkpt lat="37.3184560" lon="-2.4951130">
        <ele>1195.4</ele>
        <time>2021-04-18T09:23:44Z</time>
      </trkpt>
      <trkpt lat="37.3184320" lon="-2.4951020">
        <ele>1195.8</ele>
        <time>2021-04-18T09:23:45Z</time>
      </trkpt>
      <trkpt lat="37.3184100" lon="-2.4950890">
        <ele>1196.0</ele>
        <time>2021-04-18T09:23:46Z</time>
      </trkpt>
      <trkpt lat="37.3183790" lon="-2.4950610">
        <ele>1196.4</ele>
        <time>2021-04-18T09:23:47Z</time>
      </trkpt>
      <trkpt lat="37.3183600" lon="-2.4950380">
        <ele>1196.6</ele>
        <time>2021-04-18T09:23:48Z</time>
      </trkpt>
      <trkpt lat="37.3183400" lon="-2.4950160">
        <ele>1197.0</ele>
        <time>2021-04-18T09:23:49Z</time>
      </trkpt>
      <trkpt lat="37.3183220" lon="-2.4949930">
        <ele>1197.4</ele>
        <time>2021-04-18T09:23:50Z</time>
      </trkpt>
      <trkpt lat="37.3183110" lon="-2.4949700">
        <ele>1197.4</ele>
        <time>2021-04-18T09:23:51Z</time>
      </trkpt>
      <trkpt lat="37.3182940" lon="-2.4949440">
        <ele>1197.6</ele>
        <time>2021-04-18T09:23:52Z</time>
      </trkpt>
      <trkpt lat="37.3182790" lon="-2.4949240">
        <ele>1197.8</ele>
        <time>2021-04-18T09:23:53Z</time>
      </trkpt>
      <trkpt lat="37.3182610" lon="-2.4949070">
        <ele>1197.8</ele>
        <time>2021-04-18T09:23:54Z</time>
      </trkpt>
      <trkpt lat="37.3182400" lon="-2.4948980">
        <ele>1198.0</ele>
        <time>2021-04-18T09:23:55Z</time>
      </trkpt>
      <trkpt lat="37.3182220" lon="-2.4948870">
        <ele>1198.4</ele>
        <time>2021-04-18T09:23:56Z</time>
      </trkpt>
      <trkpt lat="37.3182040" lon="-2.4948670">
        <ele>1198.8</ele>
        <time>2021-04-18T09:23:57Z</time>
      </trkpt>
      <trkpt lat="37.3181870" lon="-2.4948490">
        <ele>1199.0</ele>
        <time>2021-04-18T09:23:58Z</time>
      </trkpt>
      <trkpt lat="37.3181720" lon="-2.4948350">
        <ele>1199.2</ele>
        <time>2021-04-18T09:23:59Z</time>
      </trkpt>
      <trkpt lat="37.3181560" lon="-2.4948200">
        <ele>1199.6</ele>
        <time>2021-04-18T09:24:00Z</time>
      </trkpt>
      <trkpt lat="37.3181390" lon="-2.4948070">
        <ele>1199.6</ele>
        <time>2021-04-18T09:24:01Z</time>
      </trkpt>
      <trkpt lat="37.3181160" lon="-2.4947890">
        <ele>1200.0</ele>
        <time>2021-04-18T09:24:02Z</time>
      </trkpt>
      <trkpt lat="37.3180960" lon="-2.4947690">
        <ele>1200.2</ele>
        <time>2021-04-18T09:24:03Z</time>
      </trkpt>
      <trkpt lat="37.3180790" lon="-2.4947490">
        <ele>1200.6</ele>
        <time>2021-04-18T09:24:04Z</time>
      </trkpt>
      <trkpt lat="37.3180630" lon="-2.4947310">
        <ele>1200.8</ele>
        <time>2021-04-18T09:24:05Z</time>
      </trkpt>
      <trkpt lat="37.3180500" lon="-2.4947090">
        <ele>1200.8</ele>
        <time>2021-04-18T09:24:06Z</time>
      </trkpt>
      <trkpt lat="37.3180330" lon="-2.4946900">
        <ele>1201.0</ele>
        <time>2021-04-18T09:24:07Z</time>
      </trkpt>
      <trkpt lat="37.3180160" lon="-2.4946740">
        <ele>1201.2</ele>
        <time>2021-04-18T09:24:08Z</time>
      </trkpt>
      <trkpt lat="37.3180010" lon="-2.4946570">
        <ele>1201.4</ele>
        <time>2021-04-18T09:24:09Z</time>
      </trkpt>
      <trkpt lat="37.3179890" lon="-2.4946360">
        <ele>1201.4</ele>
        <time>2021-04-18T09:24:10Z</time>
      </trkpt>
      <trkpt lat="37.3179740" lon="-2.4946170">
        <ele>1201.6</ele>
        <time>2021-04-18T09:24:11Z</time>
      </trkpt>
      <trkpt lat="37.3179500" lon="-2.4945950">
        <ele>1201.8</ele>
        <time>2021-04-18T09:24:12Z</time>
      </trkpt>
      <trkpt lat="37.3179370" lon="-2.4945730">
        <ele>1201.8</ele>
        <time>2021-04-18T09:24:13Z</time>
      </trkpt>
      <trkpt lat="37.3179210" lon="-2.4945560">
        <ele>1202.2</ele>
        <time>2021-04-18T09:24:14Z</time>
      </trkpt>
      <trkpt lat="37.3179060" lon="-2.4945330">
        <ele>1202.4</ele>
        <time>2021-04-18T09:24:15Z</time>
      </trkpt>
      <trkpt lat="37.3178920" lon="-2.4945100">
        <ele>1202.6</ele>
        <time>2021-04-18T09:24:16Z</time>
      </trkpt>
      <trkpt lat="37.3178850" lon="-2.4944900">
        <ele>1202.8</ele>
        <time>2021-04-18T09:24:17Z</time>
      </trkpt>
      <trkpt lat="37.3178720" lon="-2.4944680">
        <ele>1203.0</ele>
        <time>2021-04-18T09:24:18Z</time>
      </trkpt>
      <trkpt lat="37.3178530" lon="-2.4944430">
        <ele>1203.2</ele>
        <time>2021-04-18T09:24:19Z</time>
      </trkpt>
      <trkpt lat="37.3178340" lon="-2.4944200">
        <ele>1203.2</ele>
        <time>2021-04-18T09:24:20Z</time>
      </trkpt>
      <trkpt lat="37.3178190" lon="-2.4943970">
        <ele>1203.4</ele>
        <time>2021-04-18T09:24:21Z</time>
      </trkpt>
      <trkpt lat="37.3178030" lon="-2.4943760">
        <ele>1203.4</ele>
        <time>2021-04-18T09:24:22Z</time>
      </trkpt>
      <trkpt lat="37.3177850" lon="-2.4943550">
        <ele>1203.6</ele>
        <time>2021-04-18T09:24:23Z</time>
      </trkpt>
      <trkpt lat="37.3177690" lon="-2.4943310">
        <ele>1203.8</ele>
        <time>2021-04-18T09:24:24Z</time>
      </trkpt>
      <trkpt lat="37.3177530" lon="-2.4943110">
        <ele>1204.2</ele>
        <time>2021-04-18T09:24:25Z</time>
      </trkpt>
      <trkpt lat="37.3177380" lon="-2.4942870">
        <ele>1204.4</ele>
        <time>2021-04-18T09:24:26Z</time>
      </trkpt>
      <trkpt lat="37.3177180" lon="-2.4942620">
        <ele>1204.4</ele>
        <time>2021-04-18T09:24:27Z</time>
      </trkpt>
      <trkpt lat="37.3177070" lon="-2.4942340">
        <ele>1204.6</ele>
        <time>2021-04-18T09:24:28Z</time>
      </trkpt>
      <trkpt lat="37.3176980" lon="-2.4942050">
        <ele>1204.8</ele>
        <time>2021-04-18T09:24:29Z</time>
      </trkpt>
      <trkpt lat="37.3176810" lon="-2.4941830">
        <ele>1205.2</ele>
        <time>2021-04-18T09:24:30Z</time>
      </trkpt>
      <trkpt lat="37.3176770" lon="-2.4941550">
        <ele>1205.4</ele>
        <time>2021-04-18T09:24:31Z</time>
      </trkpt>
      <trkpt lat="37.3176650" lon="-2.4941330">
        <ele>1205.8</ele>
        <time>2021-04-18T09:24:32Z</time>
      </trkpt>
      <trkpt lat="37.3176530" lon="-2.4941100">
        <ele>1206.0</ele>
        <time>2021-04-18T09:24:33Z</time>
      </trkpt>
      <trkpt lat="37.3176430" lon="-2.4940880">
        <ele>1206.2</ele>
        <time>2021-04-18T09:24:34Z</time>
      </trkpt>
      <trkpt lat="37.3176220" lon="-2.4940730">
        <ele>1206.4</ele>
        <time>2021-04-18T09:24:35Z</time>
      </trkpt>
      <trkpt lat="37.3176020" lon="-2.4940600">
        <ele>1206.6</ele>
        <time>2021-04-18T09:24:36Z</time>
      </trkpt>
      <trkpt lat="37.3175900" lon="-2.4940430">
        <ele>1206.8</ele>
        <time>2021-04-18T09:24:37Z</time>
      </trkpt>
      <trkpt lat="37.3175670" lon="-2.4940260">
        <ele>1207.2</ele>
        <time>2021-04-18T09:24:38Z</time>
      </trkpt>
      <trkpt lat="37.3175490" lon="-2.4940120">
        <ele>1207.4</ele>
        <time>2021-04-18T09:24:39Z</time>
      </trkpt>
      <trkpt lat="37.3175330" lon="-2.4939960">
        <ele>1207.6</ele>
        <time>2021-04-18T09:24:40Z</time>
      </trkpt>
      <trkpt lat="37.3175190" lon="-2.4939820">
        <ele>1207.6</ele>
        <time>2021-04-18T09:24:41Z</time>
      </trkpt>
      <trkpt lat="37.3174980" lon="-2.4939610">
        <ele>1207.8</ele>
        <time>2021-04-18T09:24:42Z</time>
      </trkpt>
      <trkpt lat="37.3174770" lon="-2.4939410">
        <ele>1208.0</ele>
        <time>2021-04-18T09:24:43Z</time>
      </trkpt>
      <trkpt lat="37.3174580" lon="-2.4939250">
        <ele>1208.0</ele>
        <time>2021-04-18T09:24:44Z</time>
      </trkpt>
      <trkpt lat="37.3174400" lon="-2.4939100">
        <ele>1208.2</ele>
        <time>2021-04-18T09:24:45Z</time>
      </trkpt>
      <trkpt lat="37.3174240" lon="-2.4938990">
        <ele>1208.4</ele>
        <time>2021-04-18T09:24:46Z</time>
      </trkpt>
      <trkpt lat="37.3174010" lon="-2.4938840">
        <ele>1208.6</ele>
        <time>2021-04-18T09:24:47Z</time>
      </trkpt>
      <trkpt lat="37.3173760" lon="-2.4938700">
        <ele>1208.6</ele>
        <time>2021-04-18T09:24:48Z</time>
      </trkpt>
      <trkpt lat="37.3173560" lon="-2.4938580">
        <ele>1208.8</ele>
        <time>2021-04-18T09:24:49Z</time>
      </trkpt>
      <trkpt lat="37.3173360" lon="-2.4938440">
        <ele>1209.0</ele>
        <time>2021-04-18T09:24:50Z</time>
      </trkpt>
      <trkpt lat="37.3173200" lon="-2.4938330">
        <ele>1209.2</ele>
        <time>2021-04-18T09:24:51Z</time>
      </trkpt>
      <trkpt lat="37.3173000" lon="-2.4938200">
        <ele>1209.2</ele>
        <time>2021-04-18T09:24:52Z</time>
      </trkpt>
      <trkpt lat="37.3172780" lon="-2.4938020">
        <ele>1209.4</ele>
        <time>2021-04-18T09:24:53Z</time>
      </trkpt>
      <trkpt lat="37.3172610" lon="-2.4937900">
        <ele>1209.8</ele>
        <time>2021-04-18T09:24:54Z</time>
      </trkpt>
      <trkpt lat="37.3172350" lon="-2.4937760">
        <ele>1209.8</ele>
        <time>2021-04-18T09:24:55Z</time>
      </trkpt>
      <trkpt lat="37.3172180" lon="-2.4937650">
        <ele>1210.2</ele>
        <time>2021-04-18T09:24:56Z</time>
      </trkpt>
      <trkpt lat="37.3171990" lon="-2.4937510">
        <ele>1210.6</ele>
        <time>2021-04-18T09:24:57Z</time>
      </trkpt>
      <trkpt lat="37.3171840" lon="-2.4937360">
        <ele>1210.8</ele>
        <time>2021-04-18T09:24:58Z</time>
      </trkpt>
      <trkpt lat="37.3171610" lon="-2.4937190">
        <ele>1211.0</ele>
        <time>2021-04-18T09:24:59Z</time>
      </trkpt>
      <trkpt lat="37.3171410" lon="-2.4937060">
        <ele>1211.2</ele>
        <time>2021-04-18T09:25:00Z</time>
      </trkpt>
      <trkpt lat="37.3171240" lon="-2.4936930">
        <ele>1211.4</ele>
        <time>2021-04-18T09:25:01Z</time>
      </trkpt>
      <trkpt lat="37.3171060" lon="-2.4936810">
        <ele>1211.4</ele>
        <time>2021-04-18T09:25:02Z</time>
      </trkpt>
      <trkpt lat="37.3170840" lon="-2.4936630">
        <ele>1211.4</ele>
        <time>2021-04-18T09:25:03Z</time>
      </trkpt>
      <trkpt lat="37.3170650" lon="-2.4936500">
        <ele>1211.6</ele>
        <time>2021-04-18T09:25:04Z</time>
      </trkpt>
      <trkpt lat="37.3170500" lon="-2.4936390">
        <ele>1211.6</ele>
        <time>2021-04-18T09:25:05Z</time>
      </trkpt>
      <trkpt lat="37.3170310" lon="-2.4936260">
        <ele>1211.8</ele>
        <time>2021-04-18T09:25:06Z</time>
      </trkpt>
      <trkpt lat="37.3170130" lon="-2.4936110">
        <ele>1211.8</ele>
        <time>2021-04-18T09:25:07Z</time>
      </trkpt>
      <trkpt lat="37.3169950" lon="-2.4935960">
        <ele>1212.0</ele>
        <time>2021-04-18T09:25:08Z</time>
      </trkpt>
      <trkpt lat="37.3169740" lon="-2.4935790">
        <ele>1212.2</ele>
        <time>2021-04-18T09:25:09Z</time>
      </trkpt>
      <trkpt lat="37.3169540" lon="-2.4935640">
        <ele>1212.2</ele>
        <time>2021-04-18T09:25:10Z</time>
      </trkpt>
      <trkpt lat="37.3169390" lon="-2.4935540">
        <ele>1212.4</ele>
        <time>2021-04-18T09:25:11Z</time>
      </trkpt>
      <trkpt lat="37.3169210" lon="-2.4935400">
        <ele>1212.6</ele>
        <time>2021-04-18T09:25:12Z</time>
      </trkpt>
      <trkpt lat="37.3169030" lon="-2.4935220">
        <ele>1212.8</ele>
        <time>2021-04-18T09:25:13Z</time>
      </trkpt>
      <trkpt lat="37.3168860" lon="-2.4935110">
        <ele>1212.8</ele>
        <time>2021-04-18T09:25:14Z</time>
      </trkpt>
      <trkpt lat="37.3168670" lon="-2.4935010">
        <ele>1213.2</ele>
        <time>2021-04-18T09:25:15Z</time>
      </trkpt>
      <trkpt lat="37.3168560" lon="-2.4934910">
        <ele>1213.6</ele>
        <time>2021-04-18T09:25:16Z</time>
      </trkpt>
      <trkpt lat="37.3168370" lon="-2.4934780">
        <ele>1213.8</ele>
        <time>2021-04-18T09:25:17Z</time>
      </trkpt>
      <trkpt lat="37.3168240" lon="-2.4934680">
        <ele>1214.0</ele>
        <time>2021-04-18T09:25:18Z</time>
      </trkpt>
      <trkpt lat="37.3167980" lon="-2.4934520">
        <ele>1214.2</ele>
        <time>2021-04-18T09:25:19Z</time>
      </trkpt>
      <trkpt lat="37.3167790" lon="-2.4934390">
        <ele>1214.4</ele>
        <time>2021-04-18T09:25:20Z</time>
      </trkpt>
      <trkpt lat="37.3167660" lon="-2.4934240">
        <ele>1214.6</ele>
        <time>2021-04-18T09:25:21Z</time>
      </trkpt>
      <trkpt lat="37.3167470" lon="-2.4934100">
        <ele>1214.6</ele>
        <time>2021-04-18T09:25:22Z</time>
      </trkpt>
      <trkpt lat="37.3167320" lon="-2.4933950">
        <ele>1214.8</ele>
        <time>2021-04-18T09:25:23Z</time>
      </trkpt>
      <trkpt lat="37.3167150" lon="-2.4933800">
        <ele>1215.0</ele>
        <time>2021-04-18T09:25:24Z</time>
      </trkpt>
      <trkpt lat="37.3166960" lon="-2.4933710">
        <ele>1215.0</ele>
        <time>2021-04-18T09:25:25Z</time>
      </trkpt>
      <trkpt lat="37.3166750" lon="-2.4933610">
        <ele>1215.2</ele>
        <time>2021-04-18T09:25:26Z</time>
      </trkpt>
      <trkpt lat="37.3166560" lon="-2.4933490">
        <ele>1215.2</ele>
        <time>2021-04-18T09:25:27Z</time>
      </trkpt>
      <trkpt lat="37.3166400" lon="-2.4933420">
        <ele>1215.6</ele>
        <time>2021-04-18T09:25:28Z</time>
      </trkpt>
      <trkpt lat="37.3166180" lon="-2.4933300">
        <ele>1215.8</ele>
        <time>2021-04-18T09:25:29Z</time>
      </trkpt>
      <trkpt lat="37.3166010" lon="-2.4933180">
        <ele>1216.0</ele>
        <time>2021-04-18T09:25:30Z</time>
      </trkpt>
      <trkpt lat="37.3165850" lon="-2.4933090">
        <ele>1216.0</ele>
        <time>2021-04-18T09:25:31Z</time>
      </trkpt>
      <trkpt lat="37.3165640" lon="-2.4932970">
        <ele>1216.0</ele>
        <time>2021-04-18T09:25:32Z</time>
      </trkpt>
      <trkpt lat="37.3165440" lon="-2.4932860">
        <ele>1216.4</ele>
        <time>2021-04-18T09:25:33Z</time>
      </trkpt>
      <trkpt lat="37.3165250" lon="-2.4932770">
        <ele>1216.4</ele>
        <time>2021-04-18T09:25:34Z</time>
      </trkpt>
      <trkpt lat="37.3165050" lon="-2.4932690">
        <ele>1216.8</ele>
        <time>2021-04-18T09:25:35Z</time>
      </trkpt>
      <trkpt lat="37.3164860" lon="-2.4932590">
        <ele>1216.8</ele>
        <time>2021-04-18T09:25:36Z</time>
      </trkpt>
      <trkpt lat="37.3164660" lon="-2.4932490">
        <ele>1217.2</ele>
        <time>2021-04-18T09:25:37Z</time>
      </trkpt>
      <trkpt lat="37.3164470" lon="-2.4932410">
        <ele>1217.4</ele>
        <time>2021-04-18T09:25:38Z</time>
      </trkpt>
      <trkpt lat="37.3164240" lon="-2.4932280">
        <ele>1217.8</ele>
        <time>2021-04-18T09:25:39Z</time>
      </trkpt>
      <trkpt lat="37.3164040" lon="-2.4932160">
        <ele>1218.2</ele>
        <time>2021-04-18T09:25:40Z</time>
      </trkpt>
      <trkpt lat="37.3163830" lon="-2.4932050">
        <ele>1218.4</ele>
        <time>2021-04-18T09:25:41Z</time>
      </trkpt>
      <trkpt lat="37.3163670" lon="-2.4931950">
        <ele>1218.8</ele>
        <time>2021-04-18T09:25:42Z</time>
      </trkpt>
      <trkpt lat="37.3163440" lon="-2.4931830">
        <ele>1218.8</ele>
        <time>2021-04-18T09:25:43Z</time>
      </trkpt>
      <trkpt lat="37.3163220" lon="-2.4931720">
        <ele>1219.0</ele>
        <time>2021-04-18T09:25:44Z</time>
      </trkpt>
      <trkpt lat="37.3162990" lon="-2.4931640">
        <ele>1219.4</ele>
        <time>2021-04-18T09:25:45Z</time>
      </trkpt>
      <trkpt lat="37.3162760" lon="-2.4931560">
        <ele>1219.6</ele>
        <time>2021-04-18T09:25:46Z</time>
      </trkpt>
      <trkpt lat="37.3162530" lon="-2.4931500">
        <ele>1220.2</ele>
        <time>2021-04-18T09:25:47Z</time>
      </trkpt>
      <trkpt lat="37.3162290" lon="-2.4931460">
        <ele>1220.2</ele>
        <time>2021-04-18T09:25:48Z</time>
      </trkpt>
      <trkpt lat="37.3162050" lon="-2.4931430">
        <ele>1220.6</ele>
        <time>2021-04-18T09:25:49Z</time>
      </trkpt>
      <trkpt lat="37.3161800" lon="-2.4931440">
        <ele>1220.6</ele>
        <time>2021-04-18T09:25:50Z</time>
      </trkpt>
      <trkpt lat="37.3161570" lon="-2.4931450">
        <ele>1220.8</ele>
        <time>2021-04-18T09:25:51Z</time>
      </trkpt>
      <trkpt lat="37.3161330" lon="-2.4931440">
        <ele>1221.0</ele>
        <time>2021-04-18T09:25:52Z</time>
      </trkpt>
      <trkpt lat="37.3161090" lon="-2.4931440">
        <ele>1221.0</ele>
        <time>2021-04-18T09:25:53Z</time>
      </trkpt>
      <trkpt lat="37.3160850" lon="-2.4931430">
        <ele>1221.2</ele>
        <time>2021-04-18T09:25:54Z</time>
      </trkpt>
      <trkpt lat="37.3160600" lon="-2.4931390">
        <ele>1221.4</ele>
        <time>2021-04-18T09:25:55Z</time>
      </trkpt>
      <trkpt lat="37.3160360" lon="-2.4931360">
        <ele>1221.6</ele>
        <time>2021-04-18T09:25:56Z</time>
      </trkpt>
      <trkpt lat="37.3160120" lon="-2.4931350">
        <ele>1221.8</ele>
        <time>2021-04-18T09:25:57Z</time>
      </trkpt>
      <trkpt lat="37.3159890" lon="-2.4931390">
        <ele>1221.8</ele>
        <time>2021-04-18T09:25:58Z</time>
      </trkpt>
      <trkpt lat="37.3159670" lon="-2.4931400">
        <ele>1222.0</ele>
        <time>2021-04-18T09:25:59Z</time>
      </trkpt>
      <trkpt lat="37.3159440" lon="-2.4931440">
        <ele>1222.0</ele>
        <time>2021-04-18T09:26:00Z</time>
      </trkpt>
      <trkpt lat="37.3159200" lon="-2.4931500">
        <ele>1222.2</ele>
        <time>2021-04-18T09:26:01Z</time>
      </trkpt>
      <trkpt lat="37.3158970" lon="-2.4931520">
        <ele>1222.2</ele>
        <time>2021-04-18T09:26:02Z</time>
      </trkpt>
      <trkpt lat="37.3158740" lon="-2.4931510">
        <ele>1222.2</ele>
        <time>2021-04-18T09:26:03Z</time>
      </trkpt>
      <trkpt lat="37.3158440" lon="-2.4931480">
        <ele>1222.4</ele>
        <time>2021-04-18T09:26:04Z</time>
      </trkpt>
      <trkpt lat="37.3158240" lon="-2.4931460">
        <ele>1222.6</ele>
        <time>2021-04-18T09:26:05Z</time>
      </trkpt>
      <trkpt lat="37.3157950" lon="-2.4931410">
        <ele>1222.6</ele>
        <time>2021-04-18T09:26:06Z</time>
      </trkpt>
      <trkpt lat="37.3157770" lon="-2.4931360">
        <ele>1222.8</ele>
        <time>2021-04-18T09:26:07Z</time>
      </trkpt>
      <trkpt lat="37.3157540" lon="-2.4931290">
        <ele>1222.8</ele>
        <time>2021-04-18T09:26:08Z</time>
      </trkpt>
      <trkpt lat="37.3157290" lon="-2.4931200">
        <ele>1223.0</ele>
        <time>2021-04-18T09:26:09Z</time>
      </trkpt>
      <trkpt lat="37.3157080" lon="-2.4931090">
        <ele>1223.2</ele>
        <time>2021-04-18T09:26:10Z</time>
      </trkpt>
      <trkpt lat="37.3156880" lon="-2.4930930">
        <ele>1223.4</ele>
        <time>2021-04-18T09:26:11Z</time>
      </trkpt>
      <trkpt lat="37.3156700" lon="-2.4930800">
        <ele>1223.4</ele>
        <time>2021-04-18T09:26:12Z</time>
      </trkpt>
      <trkpt lat="37.3156490" lon="-2.4930640">
        <ele>1223.6</ele>
        <time>2021-04-18T09:26:13Z</time>
      </trkpt>
      <trkpt lat="37.3156290" lon="-2.4930470">
        <ele>1223.6</ele>
        <time>2021-04-18T09:26:14Z</time>
      </trkpt>
      <trkpt lat="37.3156130" lon="-2.4930310">
        <ele>1224.0</ele>
        <time>2021-04-18T09:26:15Z</time>
      </trkpt>
      <trkpt lat="37.3155920" lon="-2.4930150">
        <ele>1224.2</ele>
        <time>2021-04-18T09:26:16Z</time>
      </trkpt>
      <trkpt lat="37.3155800" lon="-2.4930020">
        <ele>1224.4</ele>
        <time>2021-04-18T09:26:17Z</time>
      </trkpt>
      <trkpt lat="37.3155650" lon="-2.4929840">
        <ele>1224.4</ele>
        <time>2021-04-18T09:26:18Z</time>
      </trkpt>
      <trkpt lat="37.3155480" lon="-2.4929650">
        <ele>1224.4</ele>
        <time>2021-04-18T09:26:19Z</time>
      </trkpt>
      <trkpt lat="37.3155340" lon="-2.4929490">
        <ele>1224.6</ele>
        <time>2021-04-18T09:26:20Z</time>
      </trkpt>
      <trkpt lat="37.3155180" lon="-2.4929310">
        <ele>1224.8</ele>
        <time>2021-04-18T09:26:21Z</time>
      </trkpt>
      <trkpt lat="37.3155070" lon="-2.4929210">
        <ele>1225.0</ele>
        <time>2021-04-18T09:26:22Z</time>
      </trkpt>
      <trkpt lat="37.3154930" lon="-2.4929060">
        <ele>1225.2</ele>
        <time>2021-04-18T09:26:23Z</time>
      </trkpt>
      <trkpt lat="37.3154790" lon="-2.4928840">
        <ele>1225.4</ele>
        <time>2021-04-18T09:26:24Z</time>
      </trkpt>
      <trkpt lat="37.3154650" lon="-2.4928610">
        <ele>1225.4</ele>
        <time>2021-04-18T09:26:25Z</time>
      </trkpt>
      <trkpt lat="37.3154520" lon="-2.4928390">
        <ele>1225.6</ele>
        <time>2021-04-18T09:26:26Z</time>
      </trkpt>
      <trkpt lat="37.3154380" lon="-2.4928170">
        <ele>1225.8</ele>
        <time>2021-04-18T09:26:27Z</time>
      </trkpt>
      <trkpt lat="37.3154230" lon="-2.4927950">
        <ele>1226.0</ele>
        <time>2021-04-18T09:26:28Z</time>
      </trkpt>
      <trkpt lat="37.3154090" lon="-2.4927760">
        <ele>1226.2</ele>
        <time>2021-04-18T09:26:29Z</time>
      </trkpt>
      <trkpt lat="37.3153960" lon="-2.4927500">
        <ele>1226.4</ele>
        <time>2021-04-18T09:26:30Z</time>
      </trkpt>
      <trkpt lat="37.3153860" lon="-2.4927250">
        <ele>1226.4</ele>
        <time>2021-04-18T09:26:31Z</time>
      </trkpt>
      <trkpt lat="37.3153760" lon="-2.4927050">
        <ele>1226.6</ele>
        <time>2021-04-18T09:26:32Z</time>
      </trkpt>
      <trkpt lat="37.3153630" lon="-2.4926800">
        <ele>1226.8</ele>
        <time>2021-04-18T09:26:33Z</time>
      </trkpt>
      <trkpt lat="37.3153510" lon="-2.4926570">
        <ele>1227.0</ele>
        <time>2021-04-18T09:26:34Z</time>
      </trkpt>
      <trkpt lat="37.3153340" lon="-2.4926300">
        <ele>1227.2</ele>
        <time>2021-04-18T09:26:35Z</time>
      </trkpt>
      <trkpt lat="37.3153250" lon="-2.4926130">
        <ele>1227.2</ele>
        <time>2021-04-18T09:26:36Z</time>
      </trkpt>
      <trkpt lat="37.3153120" lon="-2.4925900">
        <ele>1227.6</ele>
        <time>2021-04-18T09:26:37Z</time>
      </trkpt>
      <trkpt lat="37.3153010" lon="-2.4925710">
        <ele>1227.6</ele>
        <time>2021-04-18T09:26:38Z</time>
      </trkpt>
      <trkpt lat="37.3152860" lon="-2.4925430">
        <ele>1227.8</ele>
        <time>2021-04-18T09:26:39Z</time>
      </trkpt>
      <trkpt lat="37.3152730" lon="-2.4925140">
        <ele>1228.0</ele>
        <time>2021-04-18T09:26:40Z</time>
      </trkpt>
      <trkpt lat="37.3152620" lon="-2.4924850">
        <ele>1228.2</ele>
        <time>2021-04-18T09:26:41Z</time>
      </trkpt>
      <trkpt lat="37.3152490" lon="-2.4924580">
        <ele>1228.2</ele>
        <time>2021-04-18T09:26:42Z</time>
      </trkpt>
      <trkpt lat="37.3152310" lon="-2.4924350">
        <ele>1228.4</ele>
        <time>2021-04-18T09:26:43Z</time>
      </trkpt>
      <trkpt lat="37.3152110" lon="-2.4924090">
        <ele>1228.6</ele>
        <time>2021-04-18T09:26:44Z</time>
      </trkpt>
      <trkpt lat="37.3151940" lon="-2.4923800">
        <ele>1228.6</ele>
        <time>2021-04-18T09:26:45Z</time>
      </trkpt>
      <trkpt lat="37.3151750" lon="-2.4923540">
        <ele>1228.8</ele>
        <time>2021-04-18T09:26:46Z</time>
      </trkpt>
      <trkpt lat="37.3151540" lon="-2.4923300">
        <ele>1229.2</ele>
        <time>2021-04-18T09:26:47Z</time>
      </trkpt>
      <trkpt lat="37.3151310" lon="-2.4923090">
        <ele>1229.4</ele>
        <time>2021-04-18T09:26:48Z</time>
      </trkpt>
      <trkpt lat="37.3151090" lon="-2.4922860">
        <ele>1229.6</ele>
        <time>2021-04-18T09:26:49Z</time>
      </trkpt>
      <trkpt lat="37.3150860" lon="-2.4922590">
        <ele>1229.6</ele>
        <time>2021-04-18T09:26:50Z</time>
      </trkpt>
      <trkpt lat="37.3150640" lon="-2.4922360">
        <ele>1229.8</ele>
        <time>2021-04-18T09:26:51Z</time>
      </trkpt>
      <trkpt lat="37.3150440" lon="-2.4922130">
        <ele>1230.2</ele>
        <time>2021-04-18T09:26:52Z</time>
      </trkpt>
      <trkpt lat="37.3150210" lon="-2.4921940">
        <ele>1230.2</ele>
        <time>2021-04-18T09:26:53Z</time>
      </trkpt>
      <trkpt lat="37.3150000" lon="-2.4921760">
        <ele>1230.4</ele>
        <time>2021-04-18T09:26:54Z</time>
      </trkpt>
      <trkpt lat="37.3149780" lon="-2.4921570">
        <ele>1230.4</ele>
        <time>2021-04-18T09:26:55Z</time>
      </trkpt>
      <trkpt lat="37.3149570" lon="-2.4921380">
        <ele>1230.6</ele>
        <time>2021-04-18T09:26:56Z</time>
      </trkpt>
      <trkpt lat="37.3149380" lon="-2.4921190">
        <ele>1230.6</ele>
        <time>2021-04-18T09:26:57Z</time>
      </trkpt>
      <trkpt lat="37.3149170" lon="-2.4920990">
        <ele>1230.8</ele>
        <time>2021-04-18T09:26:58Z</time>
      </trkpt>
      <trkpt lat="37.3148960" lon="-2.4920800">
        <ele>1231.0</ele>
        <time>2021-04-18T09:26:59Z</time>
      </trkpt>
      <trkpt lat="37.3148750" lon="-2.4920600">
        <ele>1231.0</ele>
        <time>2021-04-18T09:27:00Z</time>
      </trkpt>
      <trkpt lat="37.3148540" lon="-2.4920420">
        <ele>1231.2</ele>
        <time>2021-04-18T09:27:01Z</time>
      </trkpt>
      <trkpt lat="37.3148330" lon="-2.4920240">
        <ele>1231.4</ele>
        <time>2021-04-18T09:27:02Z</time>
      </trkpt>
      <trkpt lat="37.3148110" lon="-2.4920040">
        <ele>1231.6</ele>
        <time>2021-04-18T09:27:03Z</time>
      </trkpt>
      <trkpt lat="37.3147880" lon="-2.4919850">
        <ele>1231.6</ele>
        <time>2021-04-18T09:27:04Z</time>
      </trkpt>
      <trkpt lat="37.3147680" lon="-2.4919670">
        <ele>1231.6</ele>
        <time>2021-04-18T09:27:05Z</time>
      </trkpt>
      <trkpt lat="37.3147500" lon="-2.4919460">
        <ele>1231.8</ele>
        <time>2021-04-18T09:27:06Z</time>
      </trkpt>
      <trkpt lat="37.3147310" lon="-2.4919250">
        <ele>1231.8</ele>
        <time>2021-04-18T09:27:07Z</time>
      </trkpt>
      <trkpt lat="37.3147080" lon="-2.4919080">
        <ele>1231.8</ele>
        <time>2021-04-18T09:27:08Z</time>
      </trkpt>
      <trkpt lat="37.3146860" lon="-2.4918900">
        <ele>1231.8</ele>
        <time>2021-04-18T09:27:09Z</time>
      </trkpt>
      <trkpt lat="37.3146680" lon="-2.4918690">
        <ele>1232.0</ele>
        <time>2021-04-18T09:27:10Z</time>
      </trkpt>
      <trkpt lat="37.3146430" lon="-2.4918420">
        <ele>1232.4</ele>
        <time>2021-04-18T09:27:11Z</time>
      </trkpt>
      <trkpt lat="37.3146260" lon="-2.4918230">
        <ele>1232.6</ele>
        <time>2021-04-18T09:27:12Z</time>
      </trkpt>
      <trkpt lat="37.3146070" lon="-2.4918000">
        <ele>1232.8</ele>
        <time>2021-04-18T09:27:13Z</time>
      </trkpt>
      <trkpt lat="37.3145890" lon="-2.4917740">
        <ele>1233.0</ele>
        <time>2021-04-18T09:27:14Z</time>
      </trkpt>
      <trkpt lat="37.3145740" lon="-2.4917430">
        <ele>1233.2</ele>
        <time>2021-04-18T09:27:15Z</time>
      </trkpt>
      <trkpt lat="37.3145610" lon="-2.4917120">
        <ele>1233.2</ele>
        <time>2021-04-18T09:27:16Z</time>
      </trkpt>
      <trkpt lat="37.3145530" lon="-2.4916790">
        <ele>1233.6</ele>
        <time>2021-04-18T09:27:17Z</time>
      </trkpt>
      <trkpt lat="37.3145470" lon="-2.4916380">
        <ele>1233.8</ele>
        <time>2021-04-18T09:27:18Z</time>
      </trkpt>
      <trkpt lat="37.3145430" lon="-2.4916110">
        <ele>1234.0</ele>
        <time>2021-04-18T09:27:19Z</time>
      </trkpt>
      <trkpt lat="37.3145400" lon="-2.4915760">
        <ele>1234.2</ele>
        <time>2021-04-18T09:27:20Z</time>
      </trkpt>
      <trkpt lat="37.3145390" lon="-2.4915410">
        <ele>1234.2</ele>
        <time>2021-04-18T09:27:21Z</time>
      </trkpt>
      <trkpt lat="37.3145380" lon="-2.4915070">
        <ele>1234.4</ele>
        <time>2021-04-18T09:27:22Z</time>
      </trkpt>
      <trkpt lat="37.3145360" lon="-2.4914720">
        <ele>1234.6</ele>
        <time>2021-04-18T09:27:23Z</time>
      </trkpt>
      <trkpt lat="37.3145370" lon="-2.4914370">
        <ele>1234.8</ele>
        <time>2021-04-18T09:27:24Z</time>
      </trkpt>
      <trkpt lat="37.3145420" lon="-2.4914020">
        <ele>1235.0</ele>
        <time>2021-04-18T09:27:25Z</time>
      </trkpt>
      <trkpt lat="37.3145490" lon="-2.4913690">
        <ele>1235.2</ele>
        <time>2021-04-18T09:27:26Z</time>
      </trkpt>
      <trkpt lat="37.3145560" lon="-2.4913340">
        <ele>1235.4</ele>
        <time>2021-04-18T09:27:27Z</time>
      </trkpt>
      <trkpt lat="37.3145630" lon="-2.4912980">
        <ele>1235.6</ele>
        <time>2021-04-18T09:27:28Z</time>
      </trkpt>
      <trkpt lat="37.3145690" lon="-2.4912660">
        <ele>1235.8</ele>
        <time>2021-04-18T09:27:29Z</time>
      </trkpt>
      <trkpt lat="37.3145730" lon="-2.4912360">
        <ele>1236.0</ele>
        <time>2021-04-18T09:27:30Z</time>
      </trkpt>
      <trkpt lat="37.3145790" lon="-2.4912040">
        <ele>1236.2</ele>
        <time>2021-04-18T09:27:31Z</time>
      </trkpt>
      <trkpt lat="37.3145870" lon="-2.4911700">
        <ele>1236.4</ele>
        <time>2021-04-18T09:27:32Z</time>
      </trkpt>
      <trkpt lat="37.3145960" lon="-2.4911390">
        <ele>1236.4</ele>
        <time>2021-04-18T09:27:33Z</time>
      </trkpt>
      <trkpt lat="37.3146050" lon="-2.4911080">
        <ele>1236.6</ele>
        <time>2021-04-18T09:27:34Z</time>
      </trkpt>
      <trkpt lat="37.3146100" lon="-2.4910780">
        <ele>1236.8</ele>
        <time>2021-04-18T09:27:35Z</time>
      </trkpt>
      <trkpt lat="37.3146160" lon="-2.4910490">
        <ele>1236.8</ele>
        <time>2021-04-18T09:27:36Z</time>
      </trkpt>
      <trkpt lat="37.3146200" lon="-2.4910180">
        <ele>1236.8</ele>
        <time>2021-04-18T09:27:37Z</time>
      </trkpt>
      <trkpt lat="37.3146280" lon="-2.4909860">
        <ele>1236.8</ele>
        <time>2021-04-18T09:27:38Z</time>
      </trkpt>
      <trkpt lat="37.3146340" lon="-2.4909560">
        <ele>1237.0</ele>
        <time>2021-04-18T09:27:39Z</time>
      </trkpt>
      <trkpt lat="37.3146410" lon="-2.4909240">
        <ele>1237.0</ele>
        <time>2021-04-18T09:27:40Z</time>
      </trkpt>
      <trkpt lat="37.3146490" lon="-2.4908930">
        <ele>1237.4</ele>
        <time>2021-04-18T09:27:41Z</time>
      </trkpt>
      <trkpt lat="37.3146580" lon="-2.4908620">
        <ele>1238.0</ele>
        <time>2021-04-18T09:27:42Z</time>
      </trkpt>
      <trkpt lat="37.3146690" lon="-2.4908310">
        <ele>1238.0</ele>
        <time>2021-04-18T09:27:43Z</time>
      </trkpt>
      <trkpt lat="37.3146800" lon="-2.4908000">
        <ele>1238.2</ele>
        <time>2021-04-18T09:27:44Z</time>
      </trkpt>
      <trkpt lat="37.3146910" lon="-2.4907690">
        <ele>1238.4</ele>
        <time>2021-04-18T09:27:45Z</time>
      </trkpt>
      <trkpt lat="37.3146970" lon="-2.4907340">
        <ele>1238.4</ele>
        <time>2021-04-18T09:27:46Z</time>
      </trkpt>
      <trkpt lat="37.3147010" lon="-2.4906980">
        <ele>1238.8</ele>
        <time>2021-04-18T09:27:47Z</time>
      </trkpt>
      <trkpt lat="37.3147090" lon="-2.4906640">
        <ele>1238.8</ele>
        <time>2021-04-18T09:27:48Z</time>
      </trkpt>
      <trkpt lat="37.3147210" lon="-2.4906280">
        <ele>1239.0</ele>
        <time>2021-04-18T09:27:49Z</time>
      </trkpt>
      <trkpt lat="37.3147290" lon="-2.4906060">
        <ele>1239.2</ele>
        <time>2021-04-18T09:27:50Z</time>
      </trkpt>
      <trkpt lat="37.3147370" lon="-2.4905810">
        <ele>1239.6</ele>
        <time>2021-04-18T09:27:51Z</time>
      </trkpt>
      <trkpt lat="37.3147430" lon="-2.4905560">
        <ele>1239.6</ele>
        <time>2021-04-18T09:27:52Z</time>
      </trkpt>
      <trkpt lat="37.3147490" lon="-2.4905320">
        <ele>1239.8</ele>
        <time>2021-04-18T09:27:53Z</time>
      </trkpt>
      <trkpt lat="37.3147530" lon="-2.4905070">
        <ele>1240.4</ele>
        <time>2021-04-18T09:27:54Z</time>
      </trkpt>
      <trkpt lat="37.3147550" lon="-2.4904820">
        <ele>1240.6</ele>
        <time>2021-04-18T09:27:55Z</time>
      </trkpt>
      <trkpt lat="37.3147570" lon="-2.4904560">
        <ele>1241.0</ele>
        <time>2021-04-18T09:27:56Z</time>
      </trkpt>
      <trkpt lat="37.3147560" lon="-2.4904290">
        <ele>1241.0</ele>
        <time>2021-04-18T09:27:57Z</time>
      </trkpt>
      <trkpt lat="37.3147560" lon="-2.4903990">
        <ele>1241.2</ele>
        <time>2021-04-18T09:27:58Z</time>
      </trkpt>
      <trkpt lat="37.3147570" lon="-2.4903700">
        <ele>1241.4</ele>
        <time>2021-04-18T09:27:59Z</time>
      </trkpt>
      <trkpt lat="37.3147570" lon="-2.4903410">
        <ele>1241.6</ele>
        <time>2021-04-18T09:28:00Z</time>
      </trkpt>
      <trkpt lat="37.3147570" lon="-2.4903130">
        <ele>1241.8</ele>
        <time>2021-04-18T09:28:01Z</time>
      </trkpt>
      <trkpt lat="37.3147530" lon="-2.4902870">
        <ele>1241.8</ele>
        <time>2021-04-18T09:28:02Z</time>
      </trkpt>
      <trkpt lat="37.3147480" lon="-2.4902600">
        <ele>1242.0</ele>
        <time>2021-04-18T09:28:03Z</time>
      </trkpt>
      <trkpt lat="37.3147460" lon="-2.4902340">
        <ele>1242.2</ele>
        <time>2021-04-18T09:28:04Z</time>
      </trkpt>
      <trkpt lat="37.3147420" lon="-2.4902050">
        <ele>1242.4</ele>
        <time>2021-04-18T09:28:05Z</time>
      </trkpt>
      <trkpt lat="37.3147400" lon="-2.4901840">
        <ele>1242.6</ele>
        <time>2021-04-18T09:28:06Z</time>
      </trkpt>
      <trkpt lat="37.3147360" lon="-2.4901600">
        <ele>1242.6</ele>
        <time>2021-04-18T09:28:07Z</time>
      </trkpt>
      <trkpt lat="37.3147300" lon="-2.4901330">
        <ele>1242.8</ele>
        <time>2021-04-18T09:28:08Z</time>
      </trkpt>
      <trkpt lat="37.3147230" lon="-2.4901050">
        <ele>1242.8</ele>
        <time>2021-04-18T09:28:09Z</time>
      </trkpt>
      <trkpt lat="37.3147150" lon="-2.4900790">
        <ele>1243.2</ele>
        <time>2021-04-18T09:28:10Z</time>
      </trkpt>
      <trkpt lat="37.3147070" lon="-2.4900540">
        <ele>1243.2</ele>
        <time>2021-04-18T09:28:11Z</time>
      </trkpt>
      <trkpt lat="37.3147030" lon="-2.4900280">
        <ele>1243.4</ele>
        <time>2021-04-18T09:28:12Z</time>
      </trkpt>
      <trkpt lat="37.3146980" lon="-2.4899990">
        <ele>1243.6</ele>
        <time>2021-04-18T09:28:13Z</time>
      </trkpt>
      <trkpt lat="37.3146920" lon="-2.4899720">
        <ele>1243.6</ele>
        <time>2021-04-18T09:28:14Z</time>
      </trkpt>
      <trkpt lat="37.3146860" lon="-2.4899470">
        <ele>1243.8</ele>
        <time>2021-04-18T09:28:15Z</time>
      </trkpt>
      <trkpt lat="37.3146800" lon="-2.4899210">
        <ele>1243.8</ele>
        <time>2021-04-18T09:28:16Z</time>
      </trkpt>
      <trkpt lat="37.3146730" lon="-2.4898950">
        <ele>1244.0</ele>
        <time>2021-04-18T09:28:17Z</time>
      </trkpt>
      <trkpt lat="37.3146660" lon="-2.4898690">
        <ele>1244.2</ele>
        <time>2021-04-18T09:28:18Z</time>
      </trkpt>
      <trkpt lat="37.3146590" lon="-2.4898420">
        <ele>1244.2</ele>
        <time>2021-04-18T09:28:19Z</time>
      </trkpt>
      <trkpt lat="37.3146520" lon="-2.4898160">
        <ele>1244.4</ele>
        <time>2021-04-18T09:28:20Z</time>
      </trkpt>
      <trkpt lat="37.3146440" lon="-2.4897890">
        <ele>1244.6</ele>
        <time>2021-04-18T09:28:21Z</time>
      </trkpt>
      <trkpt lat="37.3146350" lon="-2.4897610">
        <ele>1244.8</ele>
        <time>2021-04-18T09:28:22Z</time>
      </trkpt>
      <trkpt lat="37.3146270" lon="-2.4897320">
        <ele>1244.8</ele>
        <time>2021-04-18T09:28:23Z</time>
      </trkpt>
      <trkpt lat="37.3146190" lon="-2.4897050">
        <ele>1245.0</ele>
        <time>2021-04-18T09:28:24Z</time>
      </trkpt>
      <trkpt lat="37.3146120" lon="-2.4896770">
        <ele>1245.2</ele>
        <time>2021-04-18T09:28:25Z</time>
      </trkpt>
      <trkpt lat="37.3146040" lon="-2.4896500">
        <ele>1245.2</ele>
        <time>2021-04-18T09:28:26Z</time>
      </trkpt>
      <trkpt lat="37.3145950" lon="-2.4896230">
        <ele>1245.6</ele>
        <time>2021-04-18T09:28:27Z</time>
      </trkpt>
      <trkpt lat="37.3145850" lon="-2.4895940">
        <ele>1245.8</ele>
        <time>2021-04-18T09:28:28Z</time>
      </trkpt>
      <trkpt lat="37.3145760" lon="-2.4895640">
        <ele>1246.0</ele>
        <time>2021-04-18T09:28:29Z</time>
      </trkpt>
      <trkpt lat="37.3145660" lon="-2.4895350">
        <ele>1246.2</ele>
        <time>2021-04-18T09:28:30Z</time>
      </trkpt>
      <trkpt lat="37.3145540" lon="-2.4895080">
        <ele>1246.4</ele>
        <time>2021-04-18T09:28:31Z</time>
      </trkpt>
      <trkpt lat="37.3145440" lon="-2.4894810">
        <ele>1246.6</ele>
        <time>2021-04-18T09:28:32Z</time>
      </trkpt>
      <trkpt lat="37.3145350" lon="-2.4894520">
        <ele>1246.8</ele>
        <time>2021-04-18T09:28:33Z</time>
      </trkpt>
      <trkpt lat="37.3145250" lon="-2.4894220">
        <ele>1246.8</ele>
        <time>2021-04-18T09:28:34Z</time>
      </trkpt>
      <trkpt lat="37.3145160" lon="-2.4893910">
        <ele>1246.8</ele>
        <time>2021-04-18T09:28:35Z</time>
      </trkpt>
      <trkpt lat="37.3145070" lon="-2.4893530">
        <ele>1247.0</ele>
        <time>2021-04-18T09:28:36Z</time>
      </trkpt>
      <trkpt lat="37.3144990" lon="-2.4893290">
        <ele>1247.2</ele>
        <time>2021-04-18T09:28:37Z</time>
      </trkpt>
      <trkpt lat="37.3144890" lon="-2.4892970">
        <ele>1247.4</ele>
        <time>2021-04-18T09:28:38Z</time>
      </trkpt>
      <trkpt lat="37.3144790" lon="-2.4892680">
        <ele>1247.4</ele>
        <time>2021-04-18T09:28:39Z</time>
      </trkpt>
      <trkpt lat="37.3144690" lon="-2.4892380">
        <ele>1247.6</ele>
        <time>2021-04-18T09:28:40Z</time>
      </trkpt>
      <trkpt lat="37.3144600" lon="-2.4892070">
        <ele>1247.6</ele>
        <time>2021-04-18T09:28:41Z</time>
      </trkpt>
      <trkpt lat="37.3144500" lon="-2.4891740">
        <ele>1248.0</ele>
        <time>2021-04-18T09:28:42Z</time>
      </trkpt>
      <trkpt lat="37.3144390" lon="-2.4891420">
        <ele>1248.0</ele>
        <time>2021-04-18T09:28:43Z</time>
      </trkpt>
      <trkpt lat="37.3144280" lon="-2.4891090">
        <ele>1248.4</ele>
        <time>2021-04-18T09:28:44Z</time>
      </trkpt>
      <trkpt lat="37.3144160" lon="-2.4890780">
        <ele>1248.6</ele>
        <time>2021-04-18T09:28:45Z</time>
      </trkpt>
      <trkpt lat="37.3144060" lon="-2.4890450">
        <ele>1249.0</ele>
        <time>2021-04-18T09:28:46Z</time>
      </trkpt>
      <trkpt lat="37.3143980" lon="-2.4890140">
        <ele>1249.0</ele>
        <time>2021-04-18T09:28:47Z</time>
      </trkpt>
      <trkpt lat="37.3143870" lon="-2.4889820">
        <ele>1249.2</ele>
        <time>2021-04-18T09:28:48Z</time>
      </trkpt>
      <trkpt lat="37.3143760" lon="-2.4889490">
        <ele>1249.4</ele>
        <time>2021-04-18T09:28:49Z</time>
      </trkpt>
      <trkpt lat="37.3143670" lon="-2.4889170">
        <ele>1249.6</ele>
        <time>2021-04-18T09:28:50Z</time>
      </trkpt>
      <trkpt lat="37.3143570" lon="-2.4888830">
        <ele>1249.6</ele>
        <time>2021-04-18T09:28:51Z</time>
      </trkpt>
      <trkpt lat="37.3143460" lon="-2.4888490">
        <ele>1249.8</ele>
        <time>2021-04-18T09:28:52Z</time>
      </trkpt>
      <trkpt lat="37.3143350" lon="-2.4888170">
        <ele>1249.8</ele>
        <time>2021-04-18T09:28:53Z</time>
      </trkpt>
      <trkpt lat="37.3143230" lon="-2.4887860">
        <ele>1250.0</ele>
        <time>2021-04-18T09:28:54Z</time>
      </trkpt>
      <trkpt lat="37.3143130" lon="-2.4887530">
        <ele>1250.2</ele>
        <time>2021-04-18T09:28:55Z</time>
      </trkpt>
      <trkpt lat="37.3143060" lon="-2.4887210">
        <ele>1250.2</ele>
        <time>2021-04-18T09:28:56Z</time>
      </trkpt>
      <trkpt lat="37.3142960" lon="-2.4886880">
        <ele>1250.2</ele>
        <time>2021-04-18T09:28:57Z</time>
      </trkpt>
      <trkpt lat="37.3142860" lon="-2.4886550">
        <ele>1250.6</ele>
        <time>2021-04-18T09:28:58Z</time>
      </trkpt>
      <trkpt lat="37.3142780" lon="-2.4886250">
        <ele>1250.6</ele>
        <time>2021-04-18T09:28:59Z</time>
      </trkpt>
      <trkpt lat="37.3142670" lon="-2.4885950">
        <ele>1250.8</ele>
        <time>2021-04-18T09:29:00Z</time>
      </trkpt>
      <trkpt lat="37.3142590" lon="-2.4885610">
        <ele>1251.0</ele>
        <time>2021-04-18T09:29:01Z</time>
      </trkpt>
      <trkpt lat="37.3142520" lon="-2.4885280">
        <ele>1251.0</ele>
        <time>2021-04-18T09:29:02Z</time>
      </trkpt>
      <trkpt lat="37.3142440" lon="-2.4884940">
        <ele>1251.2</ele>
        <time>2021-04-18T09:29:03Z</time>
      </trkpt>
      <trkpt lat="37.3142330" lon="-2.4884620">
        <ele>1251.4</ele>
        <time>2021-04-18T09:29:04Z</time>
      </trkpt>
      <trkpt lat="37.3142210" lon="-2.4884240">
        <ele>1251.4</ele>
        <time>2021-04-18T09:29:05Z</time>
      </trkpt>
      <trkpt lat="37.3142110" lon="-2.4883920">
        <ele>1251.4</ele>
        <time>2021-04-18T09:29:06Z</time>
      </trkpt>
      <trkpt lat="37.3142000" lon="-2.4883590">
        <ele>1251.6</ele>
        <time>2021-04-18T09:29:07Z</time>
      </trkpt>
      <trkpt lat="37.3141910" lon="-2.4883330">
        <ele>1251.6</ele>
        <time>2021-04-18T09:29:08Z</time>
      </trkpt>
      <trkpt lat="37.3141760" lon="-2.4882930">
        <ele>1251.6</ele>
        <time>2021-04-18T09:29:09Z</time>
      </trkpt>
      <trkpt lat="37.3141660" lon="-2.4882620">
        <ele>1251.6</ele>
        <time>2021-04-18T09:29:10Z</time>
      </trkpt>
      <trkpt lat="37.3141600" lon="-2.4882280">
        <ele>1251.6</ele>
        <time>2021-04-18T09:29:11Z</time>
      </trkpt>
      <trkpt lat="37.3141530" lon="-2.4881910">
        <ele>1251.8</ele>
        <time>2021-04-18T09:29:12Z</time>
      </trkpt>
      <trkpt lat="37.3141490" lon="-2.4881560">
        <ele>1252.0</ele>
        <time>2021-04-18T09:29:13Z</time>
      </trkpt>
      <trkpt lat="37.3141450" lon="-2.4881220">
        <ele>1252.0</ele>
        <time>2021-04-18T09:29:14Z</time>
      </trkpt>
      <trkpt lat="37.3141440" lon="-2.4880880">
        <ele>1252.2</ele>
        <time>2021-04-18T09:29:15Z</time>
      </trkpt>
      <trkpt lat="37.3141440" lon="-2.4880550">
        <ele>1252.4</ele>
        <time>2021-04-18T09:29:16Z</time>
      </trkpt>
      <trkpt lat="37.3141440" lon="-2.4880210">
        <ele>1252.6</ele>
        <time>2021-04-18T09:29:17Z</time>
      </trkpt>
      <trkpt lat="37.3141480" lon="-2.4879910">
        <ele>1252.8</ele>
        <time>2021-04-18T09:29:18Z</time>
      </trkpt>
      <trkpt lat="37.3141570" lon="-2.4879560">
        <ele>1253.0</ele>
        <time>2021-04-18T09:29:19Z</time>
      </trkpt>
      <trkpt lat="37.3141710" lon="-2.4879140">
        <ele>1253.2</ele>
        <time>2021-04-18T09:29:20Z</time>
      </trkpt>
      <trkpt lat="37.3141860" lon="-2.4878810">
        <ele>1253.4</ele>
        <time>2021-04-18T09:29:21Z</time>
      </trkpt>
      <trkpt lat="37.3142020" lon="-2.4878500">
        <ele>1253.8</ele>
        <time>2021-04-18T09:29:22Z</time>
      </trkpt>
      <trkpt lat="37.3142150" lon="-2.4878280">
        <ele>1253.8</ele>
        <time>2021-04-18T09:29:23Z</time>
      </trkpt>
      <trkpt lat="37.3142320" lon="-2.4877990">
        <ele>1254.2</ele>
        <time>2021-04-18T09:29:24Z</time>
      </trkpt>
      <trkpt lat="37.3142540" lon="-2.4877650">
        <ele>1254.2</ele>
        <time>2021-04-18T09:29:25Z</time>
      </trkpt>
      <trkpt lat="37.3142680" lon="-2.4877430">
        <ele>1254.4</ele>
        <time>2021-04-18T09:29:26Z</time>
      </trkpt>
      <trkpt lat="37.3142940" lon="-2.4877090">
        <ele>1254.6</ele>
        <time>2021-04-18T09:29:27Z</time>
      </trkpt>
      <trkpt lat="37.3143110" lon="-2.4876870">
        <ele>1254.8</ele>
        <time>2021-04-18T09:29:28Z</time>
      </trkpt>
      <trkpt lat="37.3143310" lon="-2.4876600">
        <ele>1255.0</ele>
        <time>2021-04-18T09:29:29Z</time>
      </trkpt>
      <trkpt lat="37.3143550" lon="-2.4876370">
        <ele>1255.0</ele>
        <time>2021-04-18T09:29:30Z</time>
      </trkpt>
      <trkpt lat="37.3143840" lon="-2.4876150">
        <ele>1255.2</ele>
        <time>2021-04-18T09:29:31Z</time>
      </trkpt>
      <trkpt lat="37.3144050" lon="-2.4875930">
        <ele>1255.4</ele>
        <time>2021-04-18T09:29:32Z</time>
      </trkpt>
      <trkpt lat="37.3144220" lon="-2.4875730">
        <ele>1255.4</ele>
        <time>2021-04-18T09:29:33Z</time>
      </trkpt>
      <trkpt lat="37.3144440" lon="-2.4875480">
        <ele>1255.6</ele>
        <time>2021-04-18T09:29:34Z</time>
      </trkpt>
      <trkpt lat="37.3144690" lon="-2.4875190">
        <ele>1255.8</ele>
        <time>2021-04-18T09:29:35Z</time>
      </trkpt>
      <trkpt lat="37.3144880" lon="-2.4874950">
        <ele>1256.2</ele>
        <time>2021-04-18T09:29:36Z</time>
      </trkpt>
      <trkpt lat="37.3145100" lon="-2.4874710">
        <ele>1256.4</ele>
        <time>2021-04-18T09:29:37Z</time>
      </trkpt>
      <trkpt lat="37.3145280" lon="-2.4874520">
        <ele>1256.8</ele>
        <time>2021-04-18T09:29:38Z</time>
      </trkpt>
      <trkpt lat="37.3145490" lon="-2.4874290">
        <ele>1257.2</ele>
        <time>2021-04-18T09:29:39Z</time>
      </trkpt>
      <trkpt lat="37.3145780" lon="-2.4874010">
        <ele>1257.4</ele>
        <time>2021-04-18T09:29:40Z</time>
      </trkpt>
      <trkpt lat="37.3146020" lon="-2.4873790">
        <ele>1257.6</ele>
        <time>2021-04-18T09:29:41Z</time>
      </trkpt>
      <trkpt lat="37.3146240" lon="-2.4873560">
        <ele>1257.8</ele>
        <time>2021-04-18T09:29:42Z</time>
      </trkpt>
      <trkpt lat="37.3146440" lon="-2.4873300">
        <ele>1258.0</ele>
        <time>2021-04-18T09:29:43Z</time>
      </trkpt>
      <trkpt lat="37.3146600" lon="-2.4873100">
        <ele>1258.0</ele>
        <time>2021-04-18T09:29:44Z</time>
      </trkpt>
      <trkpt lat="37.3146820" lon="-2.4872810">
        <ele>1258.4</ele>
        <time>2021-04-18T09:29:45Z</time>
      </trkpt>
      <trkpt lat="37.3147050" lon="-2.4872590">
        <ele>1258.6</ele>
        <time>2021-04-18T09:29:46Z</time>
      </trkpt>
      <trkpt lat="37.3147290" lon="-2.4872350">
        <ele>1258.6</ele>
        <time>2021-04-18T09:29:47Z</time>
      </trkpt>
      <trkpt lat="37.3147520" lon="-2.4872100">
        <ele>1258.8</ele>
        <time>2021-04-18T09:29:48Z</time>
      </trkpt>
      <trkpt lat="37.3147750" lon="-2.4871850">
        <ele>1258.8</ele>
        <time>2021-04-18T09:29:49Z</time>
      </trkpt>
      <trkpt lat="37.3147940" lon="-2.4871590">
        <ele>1259.0</ele>
        <time>2021-04-18T09:29:50Z</time>
      </trkpt>
      <trkpt lat="37.3148150" lon="-2.4871310">
        <ele>1259.4</ele>
        <time>2021-04-18T09:29:51Z</time>
      </trkpt>
      <trkpt lat="37.3148370" lon="-2.4871040">
        <ele>1259.4</ele>
        <time>2021-04-18T09:29:52Z</time>
      </trkpt>
      <trkpt lat="37.3148540" lon="-2.4870810">
        <ele>1259.8</ele>
        <time>2021-04-18T09:29:53Z</time>
      </trkpt>
      <trkpt lat="37.3148740" lon="-2.4870500">
        <ele>1260.2</ele>
        <time>2021-04-18T09:29:54Z</time>
      </trkpt>
      <trkpt lat="37.3148950" lon="-2.4870090">
        <ele>1260.4</ele>
        <time>2021-04-18T09:29:55Z</time>
      </trkpt>
      <trkpt lat="37.3149120" lon="-2.4869760">
        <ele>1260.6</ele>
        <time>2021-04-18T09:29:56Z</time>
      </trkpt>
      <trkpt lat="37.3149260" lon="-2.4869400">
        <ele>1260.6</ele>
        <time>2021-04-18T09:29:57Z</time>
      </trkpt>
      <trkpt lat="37.3149340" lon="-2.4869130">
        <ele>1261.0</ele>
        <time>2021-04-18T09:29:58Z</time>
      </trkpt>
      <trkpt lat="37.3149450" lon="-2.4868750">
        <ele>1261.2</ele>
        <time>2021-04-18T09:29:59Z</time>
      </trkpt>
      <trkpt lat="37.3149560" lon="-2.4868310">
        <ele>1261.4</ele>
        <time>2021-04-18T09:30:00Z</time>
      </trkpt>
      <trkpt lat="37.3149640" lon="-2.4867930">
        <ele>1261.6</ele>
        <time>2021-04-18T09:30:01Z</time>
      </trkpt>
      <trkpt lat="37.3149700" lon="-2.4867560">
        <ele>1261.8</ele>
        <time>2021-04-18T09:30:02Z</time>
      </trkpt>
      <trkpt lat="37.3149770" lon="-2.4867250">
        <ele>1261.8</ele>
        <time>2021-04-18T09:30:03Z</time>
      </trkpt>
      <trkpt lat="37.3149860" lon="-2.4866880">
        <ele>1262.0</ele>
        <time>2021-04-18T09:30:04Z</time>
      </trkpt>
      <trkpt lat="37.3149980" lon="-2.4866430">
        <ele>1262.2</ele>
        <time>2021-04-18T09:30:05Z</time>
      </trkpt>
      <trkpt lat="37.3150070" lon="-2.4866010">
        <ele>1262.4</ele>
        <time>2021-04-18T09:30:06Z</time>
      </trkpt>
      <trkpt lat="37.3150150" lon="-2.4865620">
        <ele>1262.4</ele>
        <time>2021-04-18T09:30:07Z</time>
      </trkpt>
      <trkpt lat="37.3150230" lon="-2.4865300">
        <ele>1262.6</ele>
        <time>2021-04-18T09:30:08Z</time>
      </trkpt>
      <trkpt lat="37.3150370" lon="-2.4864880">
        <ele>1262.6</ele>
        <time>2021-04-18T09:30:09Z</time>
      </trkpt>
      <trkpt lat="37.3150510" lon="-2.4864520">
        <ele>1262.8</ele>
        <time>2021-04-18T09:30:10Z</time>
      </trkpt>
      <trkpt lat="37.3150640" lon="-2.4864150">
        <ele>1263.0</ele>
        <time>2021-04-18T09:30:11Z</time>
      </trkpt>
      <trkpt lat="37.3150750" lon="-2.4863780">
        <ele>1263.2</ele>
        <time>2021-04-18T09:30:12Z</time>
      </trkpt>
      <trkpt lat="37.3150830" lon="-2.4863400">
        <ele>1263.4</ele>
        <time>2021-04-18T09:30:13Z</time>
      </trkpt>
      <trkpt lat="37.3150890" lon="-2.4863080">
        <ele>1263.6</ele>
        <time>2021-04-18T09:30:14Z</time>
      </trkpt>
      <trkpt lat="37.3150990" lon="-2.4862600">
        <ele>1263.8</ele>
        <time>2021-04-18T09:30:15Z</time>
      </trkpt>
      <trkpt lat="37.3151060" lon="-2.4862200">
        <ele>1263.8</ele>
        <time>2021-04-18T09:30:16Z</time>
      </trkpt>
      <trkpt lat="37.3151100" lon="-2.4861790">
        <ele>1264.0</ele>
        <time>2021-04-18T09:30:17Z</time>
      </trkpt>
      <trkpt lat="37.3151190" lon="-2.4861460">
        <ele>1264.0</ele>
        <time>2021-04-18T09:30:18Z</time>
      </trkpt>
      <trkpt lat="37.3151280" lon="-2.4861060">
        <ele>1264.4</ele>
        <time>2021-04-18T09:30:19Z</time>
      </trkpt>
      <trkpt lat="37.3151390" lon="-2.4860660">
        <ele>1264.6</ele>
        <time>2021-04-18T09:30:20Z</time>
      </trkpt>
      <trkpt lat="37.3151500" lon="-2.4860300">
        <ele>1264.8</ele>
        <time>2021-04-18T09:30:21Z</time>
      </trkpt>
      <trkpt lat="37.3151660" lon="-2.4859940">
        <ele>1265.2</ele>
        <time>2021-04-18T09:30:22Z</time>
      </trkpt>
      <trkpt lat="37.3151800" lon="-2.4859660">
        <ele>1265.4</ele>
        <time>2021-04-18T09:30:23Z</time>
      </trkpt>
      <trkpt lat="37.3151930" lon="-2.4859290">
        <ele>1265.6</ele>
        <time>2021-04-18T09:30:24Z</time>
      </trkpt>
      <trkpt lat="37.3152040" lon="-2.4858810">
        <ele>1265.6</ele>
        <time>2021-04-18T09:30:25Z</time>
      </trkpt>
      <trkpt lat="37.3152110" lon="-2.4858430">
        <ele>1266.0</ele>
        <time>2021-04-18T09:30:26Z</time>
      </trkpt>
      <trkpt lat="37.3152160" lon="-2.4858060">
        <ele>1266.4</ele>
        <time>2021-04-18T09:30:27Z</time>
      </trkpt>
      <trkpt lat="37.3152210" lon="-2.4857700">
        <ele>1266.6</ele>
        <time>2021-04-18T09:30:28Z</time>
      </trkpt>
      <trkpt lat="37.3152250" lon="-2.4857360">
        <ele>1266.8</ele>
        <time>2021-04-18T09:30:29Z</time>
      </trkpt>
      <trkpt lat="37.3152280" lon="-2.4857050">
        <ele>1267.0</ele>
        <time>2021-04-18T09:30:30Z</time>
      </trkpt>
      <trkpt lat="37.3152330" lon="-2.4856730">
        <ele>1267.2</ele>
        <time>2021-04-18T09:30:31Z</time>
      </trkpt>
      <trkpt lat="37.3152340" lon="-2.4856390">
        <ele>1267.2</ele>
        <time>2021-04-18T09:30:32Z</time>
      </trkpt>
      <trkpt lat="37.3152340" lon="-2.4856110">
        <ele>1267.6</ele>
        <time>2021-04-18T09:30:33Z</time>
      </trkpt>
      <trkpt lat="37.3152310" lon="-2.4855750">
        <ele>1267.6</ele>
        <time>2021-04-18T09:30:34Z</time>
      </trkpt>
      <trkpt lat="37.3152220" lon="-2.4855300">
        <ele>1267.8</ele>
        <time>2021-04-18T09:30:35Z</time>
      </trkpt>
      <trkpt lat="37.3152160" lon="-2.4855000">
        <ele>1268.2</ele>
        <time>2021-04-18T09:30:36Z</time>
      </trkpt>
      <trkpt lat="37.3152090" lon="-2.4854540">
        <ele>1268.2</ele>
        <time>2021-04-18T09:30:37Z</time>
      </trkpt>
      <trkpt lat="37.3152040" lon="-2.4854230">
        <ele>1268.4</ele>
        <time>2021-04-18T09:30:38Z</time>
      </trkpt>
      <trkpt lat="37.3151970" lon="-2.4853780">
        <ele>1268.6</ele>
        <time>2021-04-18T09:30:39Z</time>
      </trkpt>
      <trkpt lat="37.3151930" lon="-2.4853380">
        <ele>1268.4</ele>
        <time>2021-04-18T09:30:40Z</time>
      </trkpt>
      <trkpt lat="37.3151820" lon="-2.4852990">
        <ele>1268.6</ele>
        <time>2021-04-18T09:30:41Z</time>
      </trkpt>
      <trkpt lat="37.3151730" lon="-2.4852690">
        <ele>1268.6</ele>
        <time>2021-04-18T09:30:42Z</time>
      </trkpt>
      <trkpt lat="37.3151640" lon="-2.4852340">
        <ele>1268.8</ele>
        <time>2021-04-18T09:30:43Z</time>
      </trkpt>
      <trkpt lat="37.3151570" lon="-2.4852000">
        <ele>1268.8</ele>
        <time>2021-04-18T09:30:44Z</time>
      </trkpt>
      <trkpt lat="37.3151520" lon="-2.4851580">
        <ele>1269.2</ele>
        <time>2021-04-18T09:30:45Z</time>
      </trkpt>
      <trkpt lat="37.3151470" lon="-2.4851250">
        <ele>1269.4</ele>
        <time>2021-04-18T09:30:46Z</time>
      </trkpt>
      <trkpt lat="37.3151400" lon="-2.4850900">
        <ele>1269.6</ele>
        <time>2021-04-18T09:30:47Z</time>
      </trkpt>
      <trkpt lat="37.3151350" lon="-2.4850640">
        <ele>1269.8</ele>
        <time>2021-04-18T09:30:48Z</time>
      </trkpt>
      <trkpt lat="37.3151280" lon="-2.4850310">
        <ele>1270.0</ele>
        <time>2021-04-18T09:30:49Z</time>
      </trkpt>
      <trkpt lat="37.3151180" lon="-2.4849960">
        <ele>1270.4</ele>
        <time>2021-04-18T09:30:50Z</time>
      </trkpt>
      <trkpt lat="37.3151120" lon="-2.4849730">
        <ele>1270.6</ele>
        <time>2021-04-18T09:30:51Z</time>
      </trkpt>
      <trkpt lat="37.3151050" lon="-2.4849440">
        <ele>1270.8</ele>
        <time>2021-04-18T09:30:52Z</time>
      </trkpt>
      <trkpt lat="37.3151010" lon="-2.4849170">
        <ele>1271.0</ele>
        <time>2021-04-18T09:30:53Z</time>
      </trkpt>
      <trkpt lat="37.3150970" lon="-2.4848870">
        <ele>1271.0</ele>
        <time>2021-04-18T09:30:54Z</time>
      </trkpt>
      <trkpt lat="37.3150890" lon="-2.4848520">
        <ele>1271.2</ele>
        <time>2021-04-18T09:30:55Z</time>
      </trkpt>
      <trkpt lat="37.3150840" lon="-2.4848220">
        <ele>1271.2</ele>
        <time>2021-04-18T09:30:56Z</time>
      </trkpt>
      <trkpt lat="37.3150780" lon="-2.4847920">
        <ele>1271.2</ele>
        <time>2021-04-18T09:30:57Z</time>
      </trkpt>
      <trkpt lat="37.3150710" lon="-2.4847670">
        <ele>1271.4</ele>
        <time>2021-04-18T09:30:58Z</time>
      </trkpt>
      <trkpt lat="37.3150630" lon="-2.4847370">
        <ele>1271.4</ele>
        <time>2021-04-18T09:30:59Z</time>
      </trkpt>
      <trkpt lat="37.3150560" lon="-2.4847050">
        <ele>1271.6</ele>
        <time>2021-04-18T09:31:00Z</time>
      </trkpt>
      <trkpt lat="37.3150470" lon="-2.4846620">
        <ele>1271.8</ele>
        <time>2021-04-18T09:31:01Z</time>
      </trkpt>
      <trkpt lat="37.3150380" lon="-2.4846270">
        <ele>1272.2</ele>
        <time>2021-04-18T09:31:02Z</time>
      </trkpt>
      <trkpt lat="37.3150320" lon="-2.4846020">
        <ele>1272.4</ele>
        <time>2021-04-18T09:31:03Z</time>
      </trkpt>
      <trkpt lat="37.3150260" lon="-2.4845640">
        <ele>1272.6</ele>
        <time>2021-04-18T09:31:04Z</time>
      </trkpt>
      <trkpt lat="37.3150190" lon="-2.4845300">
        <ele>1272.8</ele>
        <time>2021-04-18T09:31:05Z</time>
      </trkpt>
      <trkpt lat="37.3150140" lon="-2.4844950">
        <ele>1273.0</ele>
        <time>2021-04-18T09:31:06Z</time>
      </trkpt>
      <trkpt lat="37.3150120" lon="-2.4844670">
        <ele>1273.4</ele>
        <time>2021-04-18T09:31:07Z</time>
      </trkpt>
      <trkpt lat="37.3150110" lon="-2.4844260">
        <ele>1273.6</ele>
        <time>2021-04-18T09:31:08Z</time>
      </trkpt>
      <trkpt lat="37.3150110" lon="-2.4843940">
        <ele>1273.8</ele>
        <time>2021-04-18T09:31:09Z</time>
      </trkpt>
      <trkpt lat="37.3150060" lon="-2.4843620">
        <ele>1274.2</ele>
        <time>2021-04-18T09:31:10Z</time>
      </trkpt>
      <trkpt lat="37.3150050" lon="-2.4843290">
        <ele>1274.2</ele>
        <time>2021-04-18T09:31:11Z</time>
      </trkpt>
      <trkpt lat="37.3150050" lon="-2.4842950">
        <ele>1274.4</ele>
        <time>2021-04-18T09:31:12Z</time>
      </trkpt>
      <trkpt lat="37.3150070" lon="-2.4842600">
        <ele>1274.6</ele>
        <time>2021-04-18T09:31:13Z</time>
      </trkpt>
      <trkpt lat="37.3150100" lon="-2.4842250">
        <ele>1274.8</ele>
        <time>2021-04-18T09:31:14Z</time>
      </trkpt>
      <trkpt lat="37.3150140" lon="-2.4841900">
        <ele>1275.0</ele>
        <time>2021-04-18T09:31:15Z</time>
      </trkpt>
      <trkpt lat="37.3150160" lon="-2.4841550">
        <ele>1275.0</ele>
        <time>2021-04-18T09:31:16Z</time>
      </trkpt>
      <trkpt lat="37.3150160" lon="-2.4841220">
        <ele>1275.2</ele>
        <time>2021-04-18T09:31:17Z</time>
      </trkpt>
      <trkpt lat="37.3150160" lon="-2.4840960">
        <ele>1275.2</ele>
        <time>2021-04-18T09:31:18Z</time>
      </trkpt>
      <trkpt lat="37.3150160" lon="-2.4840570">
        <ele>1275.4</ele>
        <time>2021-04-18T09:31:19Z</time>
      </trkpt>
      <trkpt lat="37.3150120" lon="-2.4840250">
        <ele>1275.6</ele>
        <time>2021-04-18T09:31:20Z</time>
      </trkpt>
      <trkpt lat="37.3150110" lon="-2.4839910">
        <ele>1275.6</ele>
        <time>2021-04-18T09:31:21Z</time>
      </trkpt>
      <trkpt lat="37.3150130" lon="-2.4839620">
        <ele>1275.8</ele>
        <time>2021-04-18T09:31:22Z</time>
      </trkpt>
      <trkpt lat="37.3150170" lon="-2.4839250">
        <ele>1275.8</ele>
        <time>2021-04-18T09:31:23Z</time>
      </trkpt>
      <trkpt lat="37.3150200" lon="-2.4838880">
        <ele>1276.0</ele>
        <time>2021-04-18T09:31:24Z</time>
      </trkpt>
      <trkpt lat="37.3150220" lon="-2.4838450">
        <ele>1276.2</ele>
        <time>2021-04-18T09:31:25Z</time>
      </trkpt>
      <trkpt lat="37.3150230" lon="-2.4838090">
        <ele>1276.4</ele>
        <time>2021-04-18T09:31:26Z</time>
      </trkpt>
      <trkpt lat="37.3150230" lon="-2.4837800">
        <ele>1276.4</ele>
        <time>2021-04-18T09:31:27Z</time>
      </trkpt>
      <trkpt lat="37.3150220" lon="-2.4837430">
        <ele>1276.6</ele>
        <time>2021-04-18T09:31:28Z</time>
      </trkpt>
      <trkpt lat="37.3150230" lon="-2.4836960">
        <ele>1276.8</ele>
        <time>2021-04-18T09:31:29Z</time>
      </trkpt>
      <trkpt lat="37.3150240" lon="-2.4836560">
        <ele>1276.8</ele>
        <time>2021-04-18T09:31:30Z</time>
      </trkpt>
      <trkpt lat="37.3150230" lon="-2.4836160">
        <ele>1277.0</ele>
        <time>2021-04-18T09:31:31Z</time>
      </trkpt>
      <trkpt lat="37.3150210" lon="-2.4835840">
        <ele>1277.2</ele>
        <time>2021-04-18T09:31:32Z</time>
      </trkpt>
      <trkpt lat="37.3150180" lon="-2.4835380">
        <ele>1277.2</ele>
        <time>2021-04-18T09:31:33Z</time>
      </trkpt>
      <trkpt lat="37.3150160" lon="-2.4834970">
        <ele>1277.4</ele>
        <time>2021-04-18T09:31:34Z</time>
      </trkpt>
      <trkpt lat="37.3150130" lon="-2.4834560">
        <ele>1277.4</ele>
        <time>2021-04-18T09:31:35Z</time>
      </trkpt>
      <trkpt lat="37.3150090" lon="-2.4834160">
        <ele>1277.6</ele>
        <time>2021-04-18T09:31:36Z</time>
      </trkpt>
      <trkpt lat="37.3150060" lon="-2.4833830">
        <ele>1277.6</ele>
        <time>2021-04-18T09:31:37Z</time>
      </trkpt>
      <trkpt lat="37.3150010" lon="-2.4833430">
        <ele>1277.8</ele>
        <time>2021-04-18T09:31:38Z</time>
      </trkpt>
      <trkpt lat="37.3149920" lon="-2.4832950">
        <ele>1277.8</ele>
        <time>2021-04-18T09:31:39Z</time>
      </trkpt>
      <trkpt lat="37.3149850" lon="-2.4832560">
        <ele>1278.0</ele>
        <time>2021-04-18T09:31:40Z</time>
      </trkpt>
      <trkpt lat="37.3149790" lon="-2.4832160">
        <ele>1278.0</ele>
        <time>2021-04-18T09:31:41Z</time>
      </trkpt>
      <trkpt lat="37.3149750" lon="-2.4831840">
        <ele>1278.0</ele>
        <time>2021-04-18T09:31:42Z</time>
      </trkpt>
      <trkpt lat="37.3149700" lon="-2.4831430">
        <ele>1278.0</ele>
        <time>2021-04-18T09:31:43Z</time>
      </trkpt>
      <trkpt lat="37.3149630" lon="-2.4831010">
        <ele>1278.0</ele>
        <time>2021-04-18T09:31:44Z</time>
      </trkpt>
      <trkpt lat="37.3149540" lon="-2.4830620">
        <ele>1278.2</ele>
        <time>2021-04-18T09:31:45Z</time>
      </trkpt>
      <trkpt lat="37.3149460" lon="-2.4830200">
        <ele>1278.4</ele>
        <time>2021-04-18T09:31:46Z</time>
      </trkpt>
      <trkpt lat="37.3149400" lon="-2.4829780">
        <ele>1278.6</ele>
        <time>2021-04-18T09:31:47Z</time>
      </trkpt>
      <trkpt lat="37.3149350" lon="-2.4829350">
        <ele>1278.8</ele>
        <time>2021-04-18T09:31:48Z</time>
      </trkpt>
      <trkpt lat="37.3149290" lon="-2.4828920">
        <ele>1279.0</ele>
        <time>2021-04-18T09:31:49Z</time>
      </trkpt>
      <trkpt lat="37.3149220" lon="-2.4828500">
        <ele>1279.2</ele>
        <time>2021-04-18T09:31:50Z</time>
      </trkpt>
      <trkpt lat="37.3149140" lon="-2.4828060">
        <ele>1279.2</ele>
        <time>2021-04-18T09:31:51Z</time>
      </trkpt>
      <trkpt lat="37.3149080" lon="-2.4827600">
        <ele>1279.4</ele>
        <time>2021-04-18T09:31:52Z</time>
      </trkpt>
      <trkpt lat="37.3149040" lon="-2.4827150">
        <ele>1279.6</ele>
        <time>2021-04-18T09:31:53Z</time>
      </trkpt>
      <trkpt lat="37.3148990" lon="-2.4826680">
        <ele>1279.6</ele>
        <time>2021-04-18T09:31:54Z</time>
      </trkpt>
      <trkpt lat="37.3148930" lon="-2.4826220">
        <ele>1279.8</ele>
        <time>2021-04-18T09:31:55Z</time>
      </trkpt>
      <trkpt lat="37.3148840" lon="-2.4825780">
        <ele>1279.8</ele>
        <time>2021-04-18T09:31:56Z</time>
      </trkpt>
      <trkpt lat="37.3148750" lon="-2.4825330">
        <ele>1280.0</ele>
        <time>2021-04-18T09:31:57Z</time>
      </trkpt>
      <trkpt lat="37.3148650" lon="-2.4824880">
        <ele>1280.2</ele>
        <time>2021-04-18T09:31:58Z</time>
      </trkpt>
      <trkpt lat="37.3148520" lon="-2.4824450">
        <ele>1280.2</ele>
        <time>2021-04-18T09:31:59Z</time>
      </trkpt>
      <trkpt lat="37.3148400" lon="-2.4824020">
        <ele>1280.4</ele>
        <time>2021-04-18T09:32:00Z</time>
      </trkpt>
      <trkpt lat="37.3148190" lon="-2.4823520">
        <ele>1280.4</ele>
        <time>2021-04-18T09:32:01Z</time>
      </trkpt>
      <trkpt lat="37.3148000" lon="-2.4823130">
        <ele>1280.6</ele>
        <time>2021-04-18T09:32:02Z</time>
      </trkpt>
      <trkpt lat="37.3147780" lon="-2.4822760">
        <ele>1281.0</ele>
        <time>2021-04-18T09:32:03Z</time>
      </trkpt>
      <trkpt lat="37.3147520" lon="-2.4822450">
        <ele>1281.2</ele>
        <time>2021-04-18T09:32:04Z</time>
      </trkpt>
      <trkpt lat="37.3147210" lon="-2.4822160">
        <ele>1281.4</ele>
        <time>2021-04-18T09:32:05Z</time>
      </trkpt>
      <trkpt lat="37.3146910" lon="-2.4821870">
        <ele>1281.4</ele>
        <time>2021-04-18T09:32:06Z</time>
      </trkpt>
      <trkpt lat="37.3146670" lon="-2.4821640">
        <ele>1281.4</ele>
        <time>2021-04-18T09:32:07Z</time>
      </trkpt>
      <trkpt lat="37.3146350" lon="-2.4821380">
        <ele>1281.6</ele>
        <time>2021-04-18T09:32:08Z</time>
      </trkpt>
      <trkpt lat="37.3145990" lon="-2.4821140">
        <ele>1281.6</ele>
        <time>2021-04-18T09:32:09Z</time>
      </trkpt>
      <trkpt lat="37.3145660" lon="-2.4820910">
        <ele>1281.6</ele>
        <time>2021-04-18T09:32:10Z</time>
      </trkpt>
      <trkpt lat="37.3145310" lon="-2.4820700">
        <ele>1281.8</ele>
        <time>2021-04-18T09:32:11Z</time>
      </trkpt>
      <trkpt lat="37.3144900" lon="-2.4820500">
        <ele>1281.8</ele>
        <time>2021-04-18T09:32:12Z</time>
      </trkpt>
      <trkpt lat="37.3144520" lon="-2.4820310">
        <ele>1281.8</ele>
        <time>2021-04-18T09:32:13Z</time>
      </trkpt>
      <trkpt lat="37.3144120" lon="-2.4820150">
        <ele>1282.0</ele>
        <time>2021-04-18T09:32:14Z</time>
      </trkpt>
      <trkpt lat="37.3143720" lon="-2.4819970">
        <ele>1282.0</ele>
        <time>2021-04-18T09:32:15Z</time>
      </trkpt>
      <trkpt lat="37.3143320" lon="-2.4819830">
        <ele>1282.0</ele>
        <time>2021-04-18T09:32:16Z</time>
      </trkpt>
      <trkpt lat="37.3142820" lon="-2.4819680">
        <ele>1282.0</ele>
        <time>2021-04-18T09:32:17Z</time>
      </trkpt>
      <trkpt lat="37.3142520" lon="-2.4819570">
        <ele>1282.2</ele>
        <time>2021-04-18T09:32:18Z</time>
      </trkpt>
      <trkpt lat="37.3142130" lon="-2.4819440">
        <ele>1282.2</ele>
        <time>2021-04-18T09:32:19Z</time>
      </trkpt>
      <trkpt lat="37.3141790" lon="-2.4819300">
        <ele>1282.4</ele>
        <time>2021-04-18T09:32:20Z</time>
      </trkpt>
      <trkpt lat="37.3141440" lon="-2.4819150">
        <ele>1282.4</ele>
        <time>2021-04-18T09:32:21Z</time>
      </trkpt>
      <trkpt lat="37.3141000" lon="-2.4818970">
        <ele>1282.4</ele>
        <time>2021-04-18T09:32:22Z</time>
      </trkpt>
      <trkpt lat="37.3140700" lon="-2.4818830">
        <ele>1282.8</ele>
        <time>2021-04-18T09:32:23Z</time>
      </trkpt>
      <trkpt lat="37.3140320" lon="-2.4818660">
        <ele>1282.8</ele>
        <time>2021-04-18T09:32:24Z</time>
      </trkpt>
      <trkpt lat="37.3138100" lon="-2.4817690">
        <ele>1283.6</ele>
        <time>2021-04-18T09:32:30Z</time>
      </trkpt>
      <trkpt lat="37.3137690" lon="-2.4817550">
        <ele>1283.8</ele>
        <time>2021-04-18T09:32:31Z</time>
      </trkpt>
      <trkpt lat="37.3137300" lon="-2.4817420">
        <ele>1284.0</ele>
        <time>2021-04-18T09:32:32Z</time>
      </trkpt>
      <trkpt lat="37.3136910" lon="-2.4817310">
        <ele>1284.2</ele>
        <time>2021-04-18T09:32:33Z</time>
      </trkpt>
      <trkpt lat="37.3136500" lon="-2.4817240">
        <ele>1284.4</ele>
        <time>2021-04-18T09:32:34Z</time>
      </trkpt>
      <trkpt lat="37.3136100" lon="-2.4817250">
        <ele>1284.6</ele>
        <time>2021-04-18T09:32:35Z</time>
      </trkpt>
      <trkpt lat="37.3135720" lon="-2.4817320">
        <ele>1284.8</ele>
        <time>2021-04-18T09:32:36Z</time>
      </trkpt>
      <trkpt lat="37.3135330" lon="-2.4817460">
        <ele>1285.0</ele>
        <time>2021-04-18T09:32:37Z</time>
      </trkpt>
      <trkpt lat="37.3134990" lon="-2.4817700">
        <ele>1285.2</ele>
        <time>2021-04-18T09:32:38Z</time>
      </trkpt>
      <trkpt lat="37.3134700" lon="-2.4818020">
        <ele>1285.2</ele>
        <time>2021-04-18T09:32:39Z</time>
      </trkpt>
      <trkpt lat="37.3134470" lon="-2.4818390">
        <ele>1285.6</ele>
        <time>2021-04-18T09:32:40Z</time>
      </trkpt>
      <trkpt lat="37.3134270" lon="-2.4818830">
        <ele>1285.8</ele>
        <time>2021-04-18T09:32:41Z</time>
      </trkpt>
      <trkpt lat="37.3134070" lon="-2.4819260">
        <ele>1285.8</ele>
        <time>2021-04-18T09:32:42Z</time>
      </trkpt>
      <trkpt lat="37.3133880" lon="-2.4819730">
        <ele>1286.2</ele>
        <time>2021-04-18T09:32:43Z</time>
      </trkpt>
      <trkpt lat="37.3133700" lon="-2.4820200">
        <ele>1286.2</ele>
        <time>2021-04-18T09:32:44Z</time>
      </trkpt>
      <trkpt lat="37.3133530" lon="-2.4820690">
        <ele>1286.4</ele>
        <time>2021-04-18T09:32:45Z</time>
      </trkpt>
      <trkpt lat="37.3133340" lon="-2.4821200">
        <ele>1286.4</ele>
        <time>2021-04-18T09:32:46Z</time>
      </trkpt>
      <trkpt lat="37.3133150" lon="-2.4821700">
        <ele>1286.6</ele>
        <time>2021-04-18T09:32:47Z</time>
      </trkpt>
      <trkpt lat="37.3132920" lon="-2.4822200">
        <ele>1286.8</ele>
        <time>2021-04-18T09:32:48Z</time>
      </trkpt>
      <trkpt lat="37.3132690" lon="-2.4822690">
        <ele>1286.8</ele>
        <time>2021-04-18T09:32:49Z</time>
      </trkpt>
      <trkpt lat="37.3132430" lon="-2.4823150">
        <ele>1287.0</ele>
        <time>2021-04-18T09:32:50Z</time>
      </trkpt>
      <trkpt lat="37.3132170" lon="-2.4823580">
        <ele>1287.2</ele>
        <time>2021-04-18T09:32:51Z</time>
      </trkpt>
      <trkpt lat="37.3131900" lon="-2.4824010">
        <ele>1287.4</ele>
        <time>2021-04-18T09:32:52Z</time>
      </trkpt>
      <trkpt lat="37.3131620" lon="-2.4824420">
        <ele>1287.4</ele>
        <time>2021-04-18T09:32:53Z</time>
      </trkpt>
      <trkpt lat="37.3131330" lon="-2.4824830">
        <ele>1287.6</ele>
        <time>2021-04-18T09:32:54Z</time>
      </trkpt>
      <trkpt lat="37.3131040" lon="-2.4825220">
        <ele>1287.8</ele>
        <time>2021-04-18T09:32:55Z</time>
      </trkpt>
      <trkpt lat="37.3130750" lon="-2.4825580">
        <ele>1287.8</ele>
        <time>2021-04-18T09:32:56Z</time>
      </trkpt>
      <trkpt lat="37.3130430" lon="-2.4825900">
        <ele>1288.0</ele>
        <time>2021-04-18T09:32:57Z</time>
      </trkpt>
      <trkpt lat="37.3130120" lon="-2.4826230">
        <ele>1288.0</ele>
        <time>2021-04-18T09:32:58Z</time>
      </trkpt>
      <trkpt lat="37.3129820" lon="-2.4826560">
        <ele>1288.4</ele>
        <time>2021-04-18T09:32:59Z</time>
      </trkpt>
      <trkpt lat="37.3129510" lon="-2.4826880">
        <ele>1288.4</ele>
        <time>2021-04-18T09:33:00Z</time>
      </trkpt>
      <trkpt lat="37.3129200" lon="-2.4827170">
        <ele>1288.6</ele>
        <time>2021-04-18T09:33:01Z</time>
      </trkpt>
      <trkpt lat="37.3128880" lon="-2.4827460">
        <ele>1288.8</ele>
        <time>2021-04-18T09:33:02Z</time>
      </trkpt>
      <trkpt lat="37.3128570" lon="-2.4827740">
        <ele>1288.8</ele>
        <time>2021-04-18T09:33:03Z</time>
      </trkpt>
      <trkpt lat="37.3128260" lon="-2.4828010">
        <ele>1289.0</ele>
        <time>2021-04-18T09:33:04Z</time>
      </trkpt>
      <trkpt lat="37.3127890" lon="-2.4828360">
        <ele>1289.0</ele>
        <time>2021-04-18T09:33:05Z</time>
      </trkpt>
      <trkpt lat="37.3127640" lon="-2.4828610">
        <ele>1289.4</ele>
        <time>2021-04-18T09:33:06Z</time>
      </trkpt>
      <trkpt lat="37.3127320" lon="-2.4828890">
        <ele>1289.8</ele>
        <time>2021-04-18T09:33:07Z</time>
      </trkpt>
      <trkpt lat="37.3126920" lon="-2.4829230">
        <ele>1289.8</ele>
        <time>2021-04-18T09:33:08Z</time>
      </trkpt>
      <trkpt lat="37.3126590" lon="-2.4829560">
        <ele>1290.2</ele>
        <time>2021-04-18T09:33:09Z</time>
      </trkpt>
      <trkpt lat="37.3126320" lon="-2.4829830">
        <ele>1290.2</ele>
        <time>2021-04-18T09:33:10Z</time>
      </trkpt>
      <trkpt lat="37.3125990" lon="-2.4830140">
        <ele>1290.6</ele>
        <time>2021-04-18T09:33:11Z</time>
      </trkpt>
      <trkpt lat="37.3125650" lon="-2.4830430">
        <ele>1290.8</ele>
        <time>2021-04-18T09:33:12Z</time>
      </trkpt>
      <trkpt lat="37.3125240" lon="-2.4830720">
        <ele>1291.0</ele>
        <time>2021-04-18T09:33:13Z</time>
      </trkpt>
      <trkpt lat="37.3124890" lon="-2.4831000">
        <ele>1291.0</ele>
        <time>2021-04-18T09:33:14Z</time>
      </trkpt>
      <trkpt lat="37.3124650" lon="-2.4831230">
        <ele>1291.0</ele>
        <time>2021-04-18T09:33:15Z</time>
      </trkpt>
      <trkpt lat="37.3124330" lon="-2.4831550">
        <ele>1291.2</ele>
        <time>2021-04-18T09:33:16Z</time>
      </trkpt>
      <trkpt lat="37.3123960" lon="-2.4831930">
        <ele>1291.4</ele>
        <time>2021-04-18T09:33:17Z</time>
      </trkpt>
      <trkpt lat="37.3123630" lon="-2.4832210">
        <ele>1291.4</ele>
        <time>2021-04-18T09:33:18Z</time>
      </trkpt>
      <trkpt lat="37.3123300" lon="-2.4832490">
        <ele>1291.4</ele>
        <time>2021-04-18T09:33:19Z</time>
      </trkpt>
      <trkpt lat="37.3123030" lon="-2.4832740">
        <ele>1291.6</ele>
        <time>2021-04-18T09:33:20Z</time>
      </trkpt>
      <trkpt lat="37.3122640" lon="-2.4833110">
        <ele>1291.8</ele>
        <time>2021-04-18T09:33:21Z</time>
      </trkpt>
      <trkpt lat="37.3122340" lon="-2.4833440">
        <ele>1291.8</ele>
        <time>2021-04-18T09:33:22Z</time>
      </trkpt>
      <trkpt lat="37.3122030" lon="-2.4833790">
        <ele>1292.0</ele>
        <time>2021-04-18T09:33:23Z</time>
      </trkpt>
      <trkpt lat="37.3121730" lon="-2.4834150">
        <ele>1292.0</ele>
        <time>2021-04-18T09:33:24Z</time>
      </trkpt>
      <trkpt lat="37.3121510" lon="-2.4834440">
        <ele>1292.0</ele>
        <time>2021-04-18T09:33:25Z</time>
      </trkpt>
      <trkpt lat="37.3121250" lon="-2.4834810">
        <ele>1292.2</ele>
        <time>2021-04-18T09:33:26Z</time>
      </trkpt>
      <trkpt lat="37.3120990" lon="-2.4835210">
        <ele>1292.2</ele>
        <time>2021-04-18T09:33:27Z</time>
      </trkpt>
      <trkpt lat="37.3120700" lon="-2.4835710">
        <ele>1292.2</ele>
        <time>2021-04-18T09:33:28Z</time>
      </trkpt>
      <trkpt lat="37.3120520" lon="-2.4836080">
        <ele>1292.4</ele>
        <time>2021-04-18T09:33:29Z</time>
      </trkpt>
      <trkpt lat="37.3120330" lon="-2.4836510">
        <ele>1292.4</ele>
        <time>2021-04-18T09:33:30Z</time>
      </trkpt>
      <trkpt lat="37.3120140" lon="-2.4836980">
        <ele>1292.4</ele>
        <time>2021-04-18T09:33:31Z</time>
      </trkpt>
      <trkpt lat="37.3119910" lon="-2.4837570">
        <ele>1292.4</ele>
        <time>2021-04-18T09:33:32Z</time>
      </trkpt>
      <trkpt lat="37.3119720" lon="-2.4838050">
        <ele>1292.6</ele>
        <time>2021-04-18T09:33:33Z</time>
      </trkpt>
      <trkpt lat="37.3119550" lon="-2.4838470">
        <ele>1292.6</ele>
        <time>2021-04-18T09:33:34Z</time>
      </trkpt>
      <trkpt lat="37.3119400" lon="-2.4838840">
        <ele>1292.8</ele>
        <time>2021-04-18T09:33:35Z</time>
      </trkpt>
      <trkpt lat="37.3119190" lon="-2.4839290">
        <ele>1293.0</ele>
        <time>2021-04-18T09:33:36Z</time>
      </trkpt>
      <trkpt lat="37.3118900" lon="-2.4839840">
        <ele>1293.0</ele>
        <time>2021-04-18T09:33:37Z</time>
      </trkpt>
      <trkpt lat="37.3118650" lon="-2.4840280">
        <ele>1293.0</ele>
        <time>2021-04-18T09:33:38Z</time>
      </trkpt>
      <trkpt lat="37.3118380" lon="-2.4840690">
        <ele>1293.0</ele>
        <time>2021-04-18T09:33:39Z</time>
      </trkpt>
      <trkpt lat="37.3118100" lon="-2.4841070">
        <ele>1293.0</ele>
        <time>2021-04-18T09:33:40Z</time>
      </trkpt>
      <trkpt lat="37.3117880" lon="-2.4841360">
        <ele>1293.0</ele>
        <time>2021-04-18T09:33:41Z</time>
      </trkpt>
      <trkpt lat="37.3117610" lon="-2.4841720">
        <ele>1293.2</ele>
        <time>2021-04-18T09:33:42Z</time>
      </trkpt>
      <trkpt lat="37.3117240" lon="-2.4842150">
        <ele>1293.4</ele>
        <time>2021-04-18T09:33:43Z</time>
      </trkpt>
      <trkpt lat="37.3116340" lon="-2.4842990">
        <ele>1293.8</ele>
        <time>2021-04-18T09:33:46Z</time>
      </trkpt>
      <trkpt lat="37.3116020" lon="-2.4843250">
        <ele>1294.0</ele>
        <time>2021-04-18T09:33:47Z</time>
      </trkpt>
      <trkpt lat="37.3115710" lon="-2.4843540">
        <ele>1294.0</ele>
        <time>2021-04-18T09:33:48Z</time>
      </trkpt>
      <trkpt lat="37.3115420" lon="-2.4843840">
        <ele>1294.2</ele>
        <time>2021-04-18T09:33:49Z</time>
      </trkpt>
      <trkpt lat="37.3115100" lon="-2.4844140">
        <ele>1294.6</ele>
        <time>2021-04-18T09:33:50Z</time>
      </trkpt>
      <trkpt lat="37.3114770" lon="-2.4844410">
        <ele>1294.6</ele>
        <time>2021-04-18T09:33:51Z</time>
      </trkpt>
      <trkpt lat="37.3114360" lon="-2.4844760">
        <ele>1294.8</ele>
        <time>2021-04-18T09:33:52Z</time>
      </trkpt>
      <trkpt lat="37.3114090" lon="-2.4844980">
        <ele>1295.0</ele>
        <time>2021-04-18T09:33:53Z</time>
      </trkpt>
      <trkpt lat="37.3113750" lon="-2.4845270">
        <ele>1295.2</ele>
        <time>2021-04-18T09:33:54Z</time>
      </trkpt>
      <trkpt lat="37.3113420" lon="-2.4845560">
        <ele>1295.4</ele>
        <time>2021-04-18T09:33:55Z</time>
      </trkpt>
      <trkpt lat="37.3113070" lon="-2.4845850">
        <ele>1295.4</ele>
        <time>2021-04-18T09:33:56Z</time>
      </trkpt>
      <trkpt lat="37.3112710" lon="-2.4846110">
        <ele>1295.6</ele>
        <time>2021-04-18T09:33:57Z</time>
      </trkpt>
      <trkpt lat="37.3112340" lon="-2.4846370">
        <ele>1295.6</ele>
        <time>2021-04-18T09:33:58Z</time>
      </trkpt>
      <trkpt lat="37.3111950" lon="-2.4846600">
        <ele>1295.8</ele>
        <time>2021-04-18T09:33:59Z</time>
      </trkpt>
      <trkpt lat="37.3111540" lon="-2.4846820">
        <ele>1295.8</ele>
        <time>2021-04-18T09:34:00Z</time>
      </trkpt>
      <trkpt lat="37.3111120" lon="-2.4847040">
        <ele>1296.0</ele>
        <time>2021-04-18T09:34:01Z</time>
      </trkpt>
      <trkpt lat="37.3110700" lon="-2.4847220">
        <ele>1296.0</ele>
        <time>2021-04-18T09:34:02Z</time>
      </trkpt>
      <trkpt lat="37.3110270" lon="-2.4847380">
        <ele>1296.0</ele>
        <time>2021-04-18T09:34:03Z</time>
      </trkpt>
      <trkpt lat="37.3109810" lon="-2.4847530">
        <ele>1296.0</ele>
        <time>2021-04-18T09:34:04Z</time>
      </trkpt>
      <trkpt lat="37.3109330" lon="-2.4847680">
        <ele>1296.0</ele>
        <time>2021-04-18T09:34:05Z</time>
      </trkpt>
      <trkpt lat="37.3108810" lon="-2.4847770">
        <ele>1296.2</ele>
        <time>2021-04-18T09:34:06Z</time>
      </trkpt>
      <trkpt lat="37.3108160" lon="-2.4847780">
        <ele>1296.2</ele>
        <time>2021-04-18T09:34:07Z</time>
      </trkpt>
      <trkpt lat="37.3107610" lon="-2.4847650">
        <ele>1296.2</ele>
        <time>2021-04-18T09:34:08Z</time>
      </trkpt>
      <trkpt lat="37.3107160" lon="-2.4847400">
        <ele>1296.2</ele>
        <time>2021-04-18T09:34:09Z</time>
      </trkpt>
      <trkpt lat="37.3106590" lon="-2.4846910">
        <ele>1296.0</ele>
        <time>2021-04-18T09:34:10Z</time>
      </trkpt>
      <trkpt lat="37.3106070" lon="-2.4846310">
        <ele>1296.0</ele>
        <time>2021-04-18T09:34:11Z</time>
      </trkpt>
      <trkpt lat="37.3105660" lon="-2.4845690">
        <ele>1296.0</ele>
        <time>2021-04-18T09:34:12Z</time>
      </trkpt>
      <trkpt lat="37.3105390" lon="-2.4845080">
        <ele>1296.0</ele>
        <time>2021-04-18T09:34:13Z</time>
      </trkpt>
      <trkpt lat="37.3105230" lon="-2.4844530">
        <ele>1296.0</ele>
        <time>2021-04-18T09:34:14Z</time>
      </trkpt>
      <trkpt lat="37.3105160" lon="-2.4844040">
        <ele>1296.2</ele>
        <time>2021-04-18T09:34:15Z</time>
      </trkpt>
      <trkpt lat="37.3105130" lon="-2.4843590">
        <ele>1296.2</ele>
        <time>2021-04-18T09:34:16Z</time>
      </trkpt>
      <trkpt lat="37.3105080" lon="-2.4843160">
        <ele>1296.2</ele>
        <time>2021-04-18T09:34:17Z</time>
      </trkpt>
      <trkpt lat="37.3105100" lon="-2.4842750">
        <ele>1296.2</ele>
        <time>2021-04-18T09:34:18Z</time>
      </trkpt>
      <trkpt lat="37.3105150" lon="-2.4842360">
        <ele>1296.2</ele>
        <time>2021-04-18T09:34:19Z</time>
      </trkpt>
      <trkpt lat="37.3105220" lon="-2.4841970">
        <ele>1296.4</ele>
        <time>2021-04-18T09:34:20Z</time>
      </trkpt>
      <trkpt lat="37.3105350" lon="-2.4841570">
        <ele>1297.0</ele>
        <time>2021-04-18T09:34:21Z</time>
      </trkpt>
      <trkpt lat="37.3105520" lon="-2.4841190">
        <ele>1297.0</ele>
        <time>2021-04-18T09:34:22Z</time>
      </trkpt>
      <trkpt lat="37.3105690" lon="-2.4840820">
        <ele>1297.6</ele>
        <time>2021-04-18T09:34:23Z</time>
      </trkpt>
      <trkpt lat="37.3105870" lon="-2.4840360">
        <ele>1297.8</ele>
        <time>2021-04-18T09:34:24Z</time>
      </trkpt>
      <trkpt lat="37.3105980" lon="-2.4840070">
        <ele>1298.4</ele>
        <time>2021-04-18T09:34:25Z</time>
      </trkpt>
      <trkpt lat="37.3106110" lon="-2.4839730">
        <ele>1298.6</ele>
        <time>2021-04-18T09:34:26Z</time>
      </trkpt>
      <trkpt lat="37.3106430" lon="-2.4838910">
        <ele>1299.2</ele>
        <time>2021-04-18T09:34:28Z</time>
      </trkpt>
      <trkpt lat="37.3106550" lon="-2.4838510">
        <ele>1299.4</ele>
        <time>2021-04-18T09:34:29Z</time>
      </trkpt>
      <trkpt lat="37.3106610" lon="-2.4838190">
        <ele>1300.0</ele>
        <time>2021-04-18T09:34:30Z</time>
      </trkpt>
      <trkpt lat="37.3106720" lon="-2.4837790">
        <ele>1300.2</ele>
        <time>2021-04-18T09:34:31Z</time>
      </trkpt>
      <trkpt lat="37.3106870" lon="-2.4837290">
        <ele>1300.6</ele>
        <time>2021-04-18T09:34:32Z</time>
      </trkpt>
      <trkpt lat="37.3106990" lon="-2.4836860">
        <ele>1301.0</ele>
        <time>2021-04-18T09:34:33Z</time>
      </trkpt>
      <trkpt lat="37.3107010" lon="-2.4836490">
        <ele>1301.2</ele>
        <time>2021-04-18T09:34:34Z</time>
      </trkpt>
      <trkpt lat="37.3106950" lon="-2.4836120">
        <ele>1301.4</ele>
        <time>2021-04-18T09:34:35Z</time>
      </trkpt>
      <trkpt lat="37.3106920" lon="-2.4835840">
        <ele>1301.6</ele>
        <time>2021-04-18T09:34:36Z</time>
      </trkpt>
      <trkpt lat="37.3106910" lon="-2.4835370">
        <ele>1301.8</ele>
        <time>2021-04-18T09:34:37Z</time>
      </trkpt>
      <trkpt lat="37.3106960" lon="-2.4834930">
        <ele>1302.0</ele>
        <time>2021-04-18T09:34:38Z</time>
      </trkpt>
      <trkpt lat="37.3106910" lon="-2.4834540">
        <ele>1302.0</ele>
        <time>2021-04-18T09:34:39Z</time>
      </trkpt>
      <trkpt lat="37.3106850" lon="-2.4834140">
        <ele>1302.2</ele>
        <time>2021-04-18T09:34:40Z</time>
      </trkpt>
      <trkpt lat="37.3106800" lon="-2.4833810">
        <ele>1302.4</ele>
        <time>2021-04-18T09:34:41Z</time>
      </trkpt>
      <trkpt lat="37.3106700" lon="-2.4833320">
        <ele>1302.6</ele>
        <time>2021-04-18T09:34:42Z</time>
      </trkpt>
      <trkpt lat="37.3106610" lon="-2.4832970">
        <ele>1302.6</ele>
        <time>2021-04-18T09:34:43Z</time>
      </trkpt>
      <trkpt lat="37.3106450" lon="-2.4832640">
        <ele>1302.8</ele>
        <time>2021-04-18T09:34:44Z</time>
      </trkpt>
      <trkpt lat="37.3106250" lon="-2.4832310">
        <ele>1303.2</ele>
        <time>2021-04-18T09:34:45Z</time>
      </trkpt>
      <trkpt lat="37.3106010" lon="-2.4832000">
        <ele>1303.2</ele>
        <time>2021-04-18T09:34:46Z</time>
      </trkpt>
      <trkpt lat="37.3105800" lon="-2.4831750">
        <ele>1303.4</ele>
        <time>2021-04-18T09:34:47Z</time>
      </trkpt>
      <trkpt lat="37.3105470" lon="-2.4831500">
        <ele>1303.4</ele>
        <time>2021-04-18T09:34:48Z</time>
      </trkpt>
      <trkpt lat="37.3105120" lon="-2.4831170">
        <ele>1303.6</ele>
        <time>2021-04-18T09:34:49Z</time>
      </trkpt>
      <trkpt lat="37.3104830" lon="-2.4830880">
        <ele>1303.8</ele>
        <time>2021-04-18T09:34:50Z</time>
      </trkpt>
      <trkpt lat="37.3104580" lon="-2.4830640">
        <ele>1304.0</ele>
        <time>2021-04-18T09:34:51Z</time>
      </trkpt>
      <trkpt lat="37.3104250" lon="-2.4830300">
        <ele>1304.2</ele>
        <time>2021-04-18T09:34:52Z</time>
      </trkpt>
      <trkpt lat="37.3103970" lon="-2.4830030">
        <ele>1304.2</ele>
        <time>2021-04-18T09:34:53Z</time>
      </trkpt>
      <trkpt lat="37.3103700" lon="-2.4829730">
        <ele>1304.2</ele>
        <time>2021-04-18T09:34:54Z</time>
      </trkpt>
      <trkpt lat="37.3103420" lon="-2.4829410">
        <ele>1304.2</ele>
        <time>2021-04-18T09:34:55Z</time>
      </trkpt>
      <trkpt lat="37.3103130" lon="-2.4829170">
        <ele>1304.4</ele>
        <time>2021-04-18T09:34:56Z</time>
      </trkpt>
      <trkpt lat="37.3102840" lon="-2.4828910">
        <ele>1304.4</ele>
        <time>2021-04-18T09:34:57Z</time>
      </trkpt>
      <trkpt lat="37.3102540" lon="-2.4828650">
        <ele>1304.4</ele>
        <time>2021-04-18T09:34:58Z</time>
      </trkpt>
      <trkpt lat="37.3102230" lon="-2.4828380">
        <ele>1304.4</ele>
        <time>2021-04-18T09:34:59Z</time>
      </trkpt>
      <trkpt lat="37.3101940" lon="-2.4828090">
        <ele>1304.6</ele>
        <time>2021-04-18T09:35:00Z</time>
      </trkpt>
      <trkpt lat="37.3101630" lon="-2.4827780">
        <ele>1304.8</ele>
        <time>2021-04-18T09:35:01Z</time>
      </trkpt>
      <trkpt lat="37.3101330" lon="-2.4827450">
        <ele>1304.8</ele>
        <time>2021-04-18T09:35:02Z</time>
      </trkpt>
      <trkpt lat="37.3101040" lon="-2.4827120">
        <ele>1304.8</ele>
        <time>2021-04-18T09:35:03Z</time>
      </trkpt>
      <trkpt lat="37.3100760" lon="-2.4826830">
        <ele>1304.8</ele>
        <time>2021-04-18T09:35:04Z</time>
      </trkpt>
      <trkpt lat="37.3100460" lon="-2.4826490">
        <ele>1304.8</ele>
        <time>2021-04-18T09:35:05Z</time>
      </trkpt>
      <trkpt lat="37.3100220" lon="-2.4826240">
        <ele>1305.0</ele>
        <time>2021-04-18T09:35:06Z</time>
      </trkpt>
      <trkpt lat="37.3099860" lon="-2.4825890">
        <ele>1305.0</ele>
        <time>2021-04-18T09:35:07Z</time>
      </trkpt>
      <trkpt lat="37.3099540" lon="-2.4825600">
        <ele>1305.2</ele>
        <time>2021-04-18T09:35:08Z</time>
      </trkpt>
      <trkpt lat="37.3099240" lon="-2.4825320">
        <ele>1305.2</ele>
        <time>2021-04-18T09:35:09Z</time>
      </trkpt>
      <trkpt lat="37.3098920" lon="-2.4825030">
        <ele>1305.4</ele>
        <time>2021-04-18T09:35:10Z</time>
      </trkpt>
      <trkpt lat="37.3098630" lon="-2.4824730">
        <ele>1305.4</ele>
        <time>2021-04-18T09:35:11Z</time>
      </trkpt>
      <trkpt lat="37.3098320" lon="-2.4824430">
        <ele>1305.4</ele>
        <time>2021-04-18T09:35:12Z</time>
      </trkpt>
      <trkpt lat="37.3098010" lon="-2.4824140">
        <ele>1305.6</ele>
        <time>2021-04-18T09:35:13Z</time>
      </trkpt>
      <trkpt lat="37.3097690" lon="-2.4823870">
        <ele>1305.6</ele>
        <time>2021-04-18T09:35:14Z</time>
      </trkpt>
      <trkpt lat="37.3095540" lon="-2.4821760">
        <ele>1306.2</ele>
        <time>2021-04-18T09:35:21Z</time>
      </trkpt>
      <trkpt lat="37.3094680" lon="-2.4820740">
        <ele>1306.2</ele>
        <time>2021-04-18T09:35:24Z</time>
      </trkpt>
      <trkpt lat="37.3093670" lon="-2.4819350">
        <ele>1306.4</ele>
        <time>2021-04-18T09:35:28Z</time>
      </trkpt>
      <trkpt lat="37.3093270" lon="-2.4818590">
        <ele>1306.6</ele>
        <time>2021-04-18T09:35:30Z</time>
      </trkpt>
      <trkpt lat="37.3093060" lon="-2.4818220">
        <ele>1306.6</ele>
        <time>2021-04-18T09:35:31Z</time>
      </trkpt>
      <trkpt lat="37.3091530" lon="-2.4816000">
        <ele>1307.2</ele>
        <time>2021-04-18T09:35:37Z</time>
      </trkpt>
      <trkpt lat="37.3090860" lon="-2.4815620">
        <ele>1307.4</ele>
        <time>2021-04-18T09:35:39Z</time>
      </trkpt>
      <trkpt lat="37.3090490" lon="-2.4815530">
        <ele>1307.6</ele>
        <time>2021-04-18T09:35:40Z</time>
      </trkpt>
      <trkpt lat="37.3090170" lon="-2.4815530">
        <ele>1307.6</ele>
        <time>2021-04-18T09:35:41Z</time>
      </trkpt>
      <trkpt lat="37.3089780" lon="-2.4815570">
        <ele>1308.0</ele>
        <time>2021-04-18T09:35:42Z</time>
      </trkpt>
      <trkpt lat="37.3089390" lon="-2.4815660">
        <ele>1308.0</ele>
        <time>2021-04-18T09:35:43Z</time>
      </trkpt>
      <trkpt lat="37.3089040" lon="-2.4815880">
        <ele>1308.0</ele>
        <time>2021-04-18T09:35:44Z</time>
      </trkpt>
      <trkpt lat="37.3088710" lon="-2.4816120">
        <ele>1308.2</ele>
        <time>2021-04-18T09:35:45Z</time>
      </trkpt>
      <trkpt lat="37.3088430" lon="-2.4816430">
        <ele>1308.2</ele>
        <time>2021-04-18T09:35:46Z</time>
      </trkpt>
      <trkpt lat="37.3088180" lon="-2.4816790">
        <ele>1308.4</ele>
        <time>2021-04-18T09:35:47Z</time>
      </trkpt>
      <trkpt lat="37.3087950" lon="-2.4817150">
        <ele>1308.4</ele>
        <time>2021-04-18T09:35:48Z</time>
      </trkpt>
      <trkpt lat="37.3087730" lon="-2.4817510">
        <ele>1308.6</ele>
        <time>2021-04-18T09:35:49Z</time>
      </trkpt>
      <trkpt lat="37.3087530" lon="-2.4817870">
        <ele>1308.6</ele>
        <time>2021-04-18T09:35:50Z</time>
      </trkpt>
      <trkpt lat="37.3087160" lon="-2.4818560">
        <ele>1309.0</ele>
        <time>2021-04-18T09:35:52Z</time>
      </trkpt>
      <trkpt lat="37.3086990" lon="-2.4818890">
        <ele>1309.0</ele>
        <time>2021-04-18T09:35:53Z</time>
      </trkpt>
      <trkpt lat="37.3086800" lon="-2.4819220">
        <ele>1309.2</ele>
        <time>2021-04-18T09:35:54Z</time>
      </trkpt>
      <trkpt lat="37.3086600" lon="-2.4819520">
        <ele>1309.4</ele>
        <time>2021-04-18T09:35:55Z</time>
      </trkpt>
      <trkpt lat="37.3086410" lon="-2.4819830">
        <ele>1309.4</ele>
        <time>2021-04-18T09:35:56Z</time>
      </trkpt>
      <trkpt lat="37.3086220" lon="-2.4820140">
        <ele>1309.4</ele>
        <time>2021-04-18T09:35:57Z</time>
      </trkpt>
      <trkpt lat="37.3086070" lon="-2.4820430">
        <ele>1309.6</ele>
        <time>2021-04-18T09:35:58Z</time>
      </trkpt>
      <trkpt lat="37.3085920" lon="-2.4820710">
        <ele>1309.8</ele>
        <time>2021-04-18T09:35:59Z</time>
      </trkpt>
      <trkpt lat="37.3085750" lon="-2.4821000">
        <ele>1310.0</ele>
        <time>2021-04-18T09:36:00Z</time>
      </trkpt>
      <trkpt lat="37.3085580" lon="-2.4821310">
        <ele>1310.2</ele>
        <time>2021-04-18T09:36:01Z</time>
      </trkpt>
      <trkpt lat="37.3085400" lon="-2.4821580">
        <ele>1310.2</ele>
        <time>2021-04-18T09:36:02Z</time>
      </trkpt>
      <trkpt lat="37.3085220" lon="-2.4821820">
        <ele>1310.6</ele>
        <time>2021-04-18T09:36:03Z</time>
      </trkpt>
      <trkpt lat="37.3085020" lon="-2.4822050">
        <ele>1310.8</ele>
        <time>2021-04-18T09:36:04Z</time>
      </trkpt>
      <trkpt lat="37.3084840" lon="-2.4822300">
        <ele>1311.0</ele>
        <time>2021-04-18T09:36:05Z</time>
      </trkpt>
      <trkpt lat="37.3084670" lon="-2.4822560">
        <ele>1311.2</ele>
        <time>2021-04-18T09:36:06Z</time>
      </trkpt>
      <trkpt lat="37.3084440" lon="-2.4822830">
        <ele>1311.4</ele>
        <time>2021-04-18T09:36:07Z</time>
      </trkpt>
      <trkpt lat="37.3084230" lon="-2.4823010">
        <ele>1311.8</ele>
        <time>2021-04-18T09:36:08Z</time>
      </trkpt>
      <trkpt lat="37.3083970" lon="-2.4823210">
        <ele>1312.0</ele>
        <time>2021-04-18T09:36:09Z</time>
      </trkpt>
      <trkpt lat="37.3083660" lon="-2.4823450">
        <ele>1312.2</ele>
        <time>2021-04-18T09:36:10Z</time>
      </trkpt>
      <trkpt lat="37.3083370" lon="-2.4823640">
        <ele>1312.2</ele>
        <time>2021-04-18T09:36:11Z</time>
      </trkpt>
      <trkpt lat="37.3083100" lon="-2.4823830">
        <ele>1312.2</ele>
        <time>2021-04-18T09:36:12Z</time>
      </trkpt>
      <trkpt lat="37.3082790" lon="-2.4824030">
        <ele>1312.4</ele>
        <time>2021-04-18T09:36:13Z</time>
      </trkpt>
      <trkpt lat="37.3082500" lon="-2.4824240">
        <ele>1312.4</ele>
        <time>2021-04-18T09:36:14Z</time>
      </trkpt>
      <trkpt lat="37.3082220" lon="-2.4824430">
        <ele>1312.6</ele>
        <time>2021-04-18T09:36:15Z</time>
      </trkpt>
      <trkpt lat="37.3081940" lon="-2.4824620">
        <ele>1312.8</ele>
        <time>2021-04-18T09:36:16Z</time>
      </trkpt>
      <trkpt lat="37.3081640" lon="-2.4824750">
        <ele>1313.0</ele>
        <time>2021-04-18T09:36:17Z</time>
      </trkpt>
      <trkpt lat="37.3081340" lon="-2.4824860">
        <ele>1313.4</ele>
        <time>2021-04-18T09:36:18Z</time>
      </trkpt>
      <trkpt lat="37.3081030" lon="-2.4824960">
        <ele>1313.6</ele>
        <time>2021-04-18T09:36:19Z</time>
      </trkpt>
      <trkpt lat="37.3080760" lon="-2.4825060">
        <ele>1313.8</ele>
        <time>2021-04-18T09:36:20Z</time>
      </trkpt>
      <trkpt lat="37.3080450" lon="-2.4825150">
        <ele>1314.0</ele>
        <time>2021-04-18T09:36:21Z</time>
      </trkpt>
      <trkpt lat="37.3080140" lon="-2.4825250">
        <ele>1314.0</ele>
        <time>2021-04-18T09:36:22Z</time>
      </trkpt>
      <trkpt lat="37.3079850" lon="-2.4825330">
        <ele>1314.2</ele>
        <time>2021-04-18T09:36:23Z</time>
      </trkpt>
      <trkpt lat="37.3079550" lon="-2.4825400">
        <ele>1314.4</ele>
        <time>2021-04-18T09:36:24Z</time>
      </trkpt>
      <trkpt lat="37.3079250" lon="-2.4825450">
        <ele>1314.8</ele>
        <time>2021-04-18T09:36:25Z</time>
      </trkpt>
      <trkpt lat="37.3078960" lon="-2.4825480">
        <ele>1315.0</ele>
        <time>2021-04-18T09:36:26Z</time>
      </trkpt>
      <trkpt lat="37.3078660" lon="-2.4825510">
        <ele>1315.4</ele>
        <time>2021-04-18T09:36:27Z</time>
      </trkpt>
      <trkpt lat="37.3078350" lon="-2.4825550">
        <ele>1315.4</ele>
        <time>2021-04-18T09:36:28Z</time>
      </trkpt>
      <trkpt lat="37.3078030" lon="-2.4825580">
        <ele>1315.8</ele>
        <time>2021-04-18T09:36:29Z</time>
      </trkpt>
      <trkpt lat="37.3077640" lon="-2.4825600">
        <ele>1316.0</ele>
        <time>2021-04-18T09:36:30Z</time>
      </trkpt>
      <trkpt lat="37.3077350" lon="-2.4825610">
        <ele>1316.0</ele>
        <time>2021-04-18T09:36:31Z</time>
      </trkpt>
      <trkpt lat="37.3077070" lon="-2.4825650">
        <ele>1316.4</ele>
        <time>2021-04-18T09:36:32Z</time>
      </trkpt>
      <trkpt lat="37.3076840" lon="-2.4825670">
        <ele>1316.4</ele>
        <time>2021-04-18T09:36:33Z</time>
      </trkpt>
      <trkpt lat="37.3076570" lon="-2.4825690">
        <ele>1316.6</ele>
        <time>2021-04-18T09:36:34Z</time>
      </trkpt>
      <trkpt lat="37.3076240" lon="-2.4825690">
        <ele>1317.0</ele>
        <time>2021-04-18T09:36:35Z</time>
      </trkpt>
      <trkpt lat="37.3076000" lon="-2.4825700">
        <ele>1317.0</ele>
        <time>2021-04-18T09:36:36Z</time>
      </trkpt>
      <trkpt lat="37.3075730" lon="-2.4825700">
        <ele>1317.2</ele>
        <time>2021-04-18T09:36:37Z</time>
      </trkpt>
      <trkpt lat="37.3075460" lon="-2.4825690">
        <ele>1317.2</ele>
        <time>2021-04-18T09:36:38Z</time>
      </trkpt>
      <trkpt lat="37.3075250" lon="-2.4825670">
        <ele>1317.4</ele>
        <time>2021-04-18T09:36:39Z</time>
      </trkpt>
      <trkpt lat="37.3074990" lon="-2.4825670">
        <ele>1317.4</ele>
        <time>2021-04-18T09:36:40Z</time>
      </trkpt>
      <trkpt lat="37.3074730" lon="-2.4825700">
        <ele>1317.8</ele>
        <time>2021-04-18T09:36:41Z</time>
      </trkpt>
      <trkpt lat="37.3074470" lon="-2.4825750">
        <ele>1318.2</ele>
        <time>2021-04-18T09:36:42Z</time>
      </trkpt>
      <trkpt lat="37.3074200" lon="-2.4825780">
        <ele>1318.4</ele>
        <time>2021-04-18T09:36:43Z</time>
      </trkpt>
      <trkpt lat="37.3073930" lon="-2.4825810">
        <ele>1318.6</ele>
        <time>2021-04-18T09:36:44Z</time>
      </trkpt>
      <trkpt lat="37.3073680" lon="-2.4825820">
        <ele>1318.6</ele>
        <time>2021-04-18T09:36:45Z</time>
      </trkpt>
      <trkpt lat="37.3073420" lon="-2.4825840">
        <ele>1318.8</ele>
        <time>2021-04-18T09:36:46Z</time>
      </trkpt>
      <trkpt lat="37.3073180" lon="-2.4825870">
        <ele>1319.0</ele>
        <time>2021-04-18T09:36:47Z</time>
      </trkpt>
      <trkpt lat="37.3072940" lon="-2.4825890">
        <ele>1319.0</ele>
        <time>2021-04-18T09:36:48Z</time>
      </trkpt>
      <trkpt lat="37.3072700" lon="-2.4825900">
        <ele>1319.4</ele>
        <time>2021-04-18T09:36:49Z</time>
      </trkpt>
      <trkpt lat="37.3072450" lon="-2.4825910">
        <ele>1319.4</ele>
        <time>2021-04-18T09:36:50Z</time>
      </trkpt>
      <trkpt lat="37.3072210" lon="-2.4825940">
        <ele>1319.6</ele>
        <time>2021-04-18T09:36:51Z</time>
      </trkpt>
      <trkpt lat="37.3071960" lon="-2.4825960">
        <ele>1319.6</ele>
        <time>2021-04-18T09:36:52Z</time>
      </trkpt>
      <trkpt lat="37.3071720" lon="-2.4825960">
        <ele>1319.8</ele>
        <time>2021-04-18T09:36:53Z</time>
      </trkpt>
      <trkpt lat="37.3071460" lon="-2.4825950">
        <ele>1320.0</ele>
        <time>2021-04-18T09:36:54Z</time>
      </trkpt>
      <trkpt lat="37.3071180" lon="-2.4825970">
        <ele>1320.0</ele>
        <time>2021-04-18T09:36:55Z</time>
      </trkpt>
      <trkpt lat="37.3070910" lon="-2.4825980">
        <ele>1320.0</ele>
        <time>2021-04-18T09:36:56Z</time>
      </trkpt>
      <trkpt lat="37.3070640" lon="-2.4825990">
        <ele>1320.0</ele>
        <time>2021-04-18T09:36:57Z</time>
      </trkpt>
      <trkpt lat="37.3070380" lon="-2.4826000">
        <ele>1320.2</ele>
        <time>2021-04-18T09:36:58Z</time>
      </trkpt>
      <trkpt lat="37.3070120" lon="-2.4826000">
        <ele>1320.2</ele>
        <time>2021-04-18T09:36:59Z</time>
      </trkpt>
      <trkpt lat="37.3069850" lon="-2.4825960">
        <ele>1320.2</ele>
        <time>2021-04-18T09:37:00Z</time>
      </trkpt>
      <trkpt lat="37.3069580" lon="-2.4825900">
        <ele>1320.2</ele>
        <time>2021-04-18T09:37:01Z</time>
      </trkpt>
      <trkpt lat="37.3069310" lon="-2.4825850">
        <ele>1320.6</ele>
        <time>2021-04-18T09:37:02Z</time>
      </trkpt>
      <trkpt lat="37.3069060" lon="-2.4825780">
        <ele>1320.6</ele>
        <time>2021-04-18T09:37:03Z</time>
      </trkpt>
      <trkpt lat="37.3068820" lon="-2.4825660">
        <ele>1320.6</ele>
        <time>2021-04-18T09:37:04Z</time>
      </trkpt>
      <trkpt lat="37.3068590" lon="-2.4825500">
        <ele>1320.6</ele>
        <time>2021-04-18T09:37:05Z</time>
      </trkpt>
      <trkpt lat="37.3068370" lon="-2.4825350">
        <ele>1320.8</ele>
        <time>2021-04-18T09:37:06Z</time>
      </trkpt>
      <trkpt lat="37.3068170" lon="-2.4825190">
        <ele>1321.0</ele>
        <time>2021-04-18T09:37:07Z</time>
      </trkpt>
      <trkpt lat="37.3067970" lon="-2.4825000">
        <ele>1321.0</ele>
        <time>2021-04-18T09:37:08Z</time>
      </trkpt>
      <trkpt lat="37.3067750" lon="-2.4824790">
        <ele>1321.4</ele>
        <time>2021-04-18T09:37:09Z</time>
      </trkpt>
      <trkpt lat="37.3067540" lon="-2.4824560">
        <ele>1321.4</ele>
        <time>2021-04-18T09:37:10Z</time>
      </trkpt>
      <trkpt lat="37.3067330" lon="-2.4824340">
        <ele>1321.6</ele>
        <time>2021-04-18T09:37:11Z</time>
      </trkpt>
      <trkpt lat="37.3067110" lon="-2.4824140">
        <ele>1322.0</ele>
        <time>2021-04-18T09:37:12Z</time>
      </trkpt>
      <trkpt lat="37.3066930" lon="-2.4823910">
        <ele>1322.2</ele>
        <time>2021-04-18T09:37:13Z</time>
      </trkpt>
      <trkpt lat="37.3066750" lon="-2.4823650">
        <ele>1322.2</ele>
        <time>2021-04-18T09:37:14Z</time>
      </trkpt>
      <trkpt lat="37.3066540" lon="-2.4823420">
        <ele>1322.4</ele>
        <time>2021-04-18T09:37:15Z</time>
      </trkpt>
      <trkpt lat="37.3066340" lon="-2.4823190">
        <ele>1322.6</ele>
        <time>2021-04-18T09:37:16Z</time>
      </trkpt>
      <trkpt lat="37.3066150" lon="-2.4822960">
        <ele>1323.0</ele>
        <time>2021-04-18T09:37:17Z</time>
      </trkpt>
      <trkpt lat="37.3065950" lon="-2.4822740">
        <ele>1323.2</ele>
        <time>2021-04-18T09:37:18Z</time>
      </trkpt>
      <trkpt lat="37.3065760" lon="-2.4822550">
        <ele>1323.4</ele>
        <time>2021-04-18T09:37:19Z</time>
      </trkpt>
      <trkpt lat="37.3065550" lon="-2.4822390">
        <ele>1323.4</ele>
        <time>2021-04-18T09:37:20Z</time>
      </trkpt>
      <trkpt lat="37.3065280" lon="-2.4822260">
        <ele>1323.6</ele>
        <time>2021-04-18T09:37:21Z</time>
      </trkpt>
      <trkpt lat="37.3065030" lon="-2.4822150">
        <ele>1323.8</ele>
        <time>2021-04-18T09:37:22Z</time>
      </trkpt>
      <trkpt lat="37.3064760" lon="-2.4822060">
        <ele>1324.0</ele>
        <time>2021-04-18T09:37:23Z</time>
      </trkpt>
      <trkpt lat="37.3064470" lon="-2.4822000">
        <ele>1324.2</ele>
        <time>2021-04-18T09:37:24Z</time>
      </trkpt>
      <trkpt lat="37.3064190" lon="-2.4821990">
        <ele>1324.4</ele>
        <time>2021-04-18T09:37:25Z</time>
      </trkpt>
      <trkpt lat="37.3063900" lon="-2.4822010">
        <ele>1324.4</ele>
        <time>2021-04-18T09:37:26Z</time>
      </trkpt>
      <trkpt lat="37.3063630" lon="-2.4822050">
        <ele>1324.6</ele>
        <time>2021-04-18T09:37:27Z</time>
      </trkpt>
      <trkpt lat="37.3063350" lon="-2.4822090">
        <ele>1324.6</ele>
        <time>2021-04-18T09:37:28Z</time>
      </trkpt>
      <trkpt lat="37.3063080" lon="-2.4822150">
        <ele>1324.6</ele>
        <time>2021-04-18T09:37:29Z</time>
      </trkpt>
      <trkpt lat="37.3062830" lon="-2.4822270">
        <ele>1325.0</ele>
        <time>2021-04-18T09:37:30Z</time>
      </trkpt>
      <trkpt lat="37.3062600" lon="-2.4822440">
        <ele>1325.0</ele>
        <time>2021-04-18T09:37:31Z</time>
      </trkpt>
      <trkpt lat="37.3062420" lon="-2.4822650">
        <ele>1325.2</ele>
        <time>2021-04-18T09:37:32Z</time>
      </trkpt>
      <trkpt lat="37.3062230" lon="-2.4822870">
        <ele>1325.4</ele>
        <time>2021-04-18T09:37:33Z</time>
      </trkpt>
      <trkpt lat="37.3062060" lon="-2.4823080">
        <ele>1325.4</ele>
        <time>2021-04-18T09:37:34Z</time>
      </trkpt>
      <trkpt lat="37.3061860" lon="-2.4823290">
        <ele>1325.4</ele>
        <time>2021-04-18T09:37:35Z</time>
      </trkpt>
      <trkpt lat="37.3061650" lon="-2.4823510">
        <ele>1325.6</ele>
        <time>2021-04-18T09:37:36Z</time>
      </trkpt>
      <trkpt lat="37.3061450" lon="-2.4823730">
        <ele>1325.8</ele>
        <time>2021-04-18T09:37:37Z</time>
      </trkpt>
      <trkpt lat="37.3061260" lon="-2.4823960">
        <ele>1325.8</ele>
        <time>2021-04-18T09:37:38Z</time>
      </trkpt>
      <trkpt lat="37.3061070" lon="-2.4824190">
        <ele>1326.0</ele>
        <time>2021-04-18T09:37:39Z</time>
      </trkpt>
      <trkpt lat="37.3060870" lon="-2.4824420">
        <ele>1326.0</ele>
        <time>2021-04-18T09:37:40Z</time>
      </trkpt>
      <trkpt lat="37.3060680" lon="-2.4824650">
        <ele>1326.2</ele>
        <time>2021-04-18T09:37:41Z</time>
      </trkpt>
      <trkpt lat="37.3060520" lon="-2.4824850">
        <ele>1326.4</ele>
        <time>2021-04-18T09:37:42Z</time>
      </trkpt>
      <trkpt lat="37.3060330" lon="-2.4825060">
        <ele>1326.6</ele>
        <time>2021-04-18T09:37:43Z</time>
      </trkpt>
      <trkpt lat="37.3060150" lon="-2.4825310">
        <ele>1326.8</ele>
        <time>2021-04-18T09:37:44Z</time>
      </trkpt>
      <trkpt lat="37.3059990" lon="-2.4825540">
        <ele>1327.0</ele>
        <time>2021-04-18T09:37:45Z</time>
      </trkpt>
      <trkpt lat="37.3059820" lon="-2.4825770">
        <ele>1327.4</ele>
        <time>2021-04-18T09:37:46Z</time>
      </trkpt>
      <trkpt lat="37.3059640" lon="-2.4826000">
        <ele>1327.6</ele>
        <time>2021-04-18T09:37:47Z</time>
      </trkpt>
      <trkpt lat="37.3059460" lon="-2.4826240">
        <ele>1327.8</ele>
        <time>2021-04-18T09:37:48Z</time>
      </trkpt>
      <trkpt lat="37.3059260" lon="-2.4826480">
        <ele>1327.8</ele>
        <time>2021-04-18T09:37:49Z</time>
      </trkpt>
      <trkpt lat="37.3059060" lon="-2.4826750">
        <ele>1327.8</ele>
        <time>2021-04-18T09:37:50Z</time>
      </trkpt>
      <trkpt lat="37.3058850" lon="-2.4827040">
        <ele>1328.0</ele>
        <time>2021-04-18T09:37:51Z</time>
      </trkpt>
      <trkpt lat="37.3058650" lon="-2.4827330">
        <ele>1328.0</ele>
        <time>2021-04-18T09:37:52Z</time>
      </trkpt>
      <trkpt lat="37.3058490" lon="-2.4827640">
        <ele>1328.2</ele>
        <time>2021-04-18T09:37:53Z</time>
      </trkpt>
      <trkpt lat="37.3058320" lon="-2.4827940">
        <ele>1328.4</ele>
        <time>2021-04-18T09:37:54Z</time>
      </trkpt>
      <trkpt lat="37.3058110" lon="-2.4828180">
        <ele>1328.4</ele>
        <time>2021-04-18T09:37:55Z</time>
      </trkpt>
      <trkpt lat="37.3057930" lon="-2.4828410">
        <ele>1328.4</ele>
        <time>2021-04-18T09:37:56Z</time>
      </trkpt>
      <trkpt lat="37.3057760" lon="-2.4828680">
        <ele>1328.6</ele>
        <time>2021-04-18T09:37:57Z</time>
      </trkpt>
      <trkpt lat="37.3057590" lon="-2.4828950">
        <ele>1328.8</ele>
        <time>2021-04-18T09:37:58Z</time>
      </trkpt>
      <trkpt lat="37.3057410" lon="-2.4829200">
        <ele>1328.8</ele>
        <time>2021-04-18T09:37:59Z</time>
      </trkpt>
      <trkpt lat="37.3057210" lon="-2.4829450">
        <ele>1329.2</ele>
        <time>2021-04-18T09:38:00Z</time>
      </trkpt>
      <trkpt lat="37.3057010" lon="-2.4829690">
        <ele>1329.4</ele>
        <time>2021-04-18T09:38:01Z</time>
      </trkpt>
      <trkpt lat="37.3056810" lon="-2.4829910">
        <ele>1329.4</ele>
        <time>2021-04-18T09:38:02Z</time>
      </trkpt>
      <trkpt lat="37.3056630" lon="-2.4830120">
        <ele>1329.6</ele>
        <time>2021-04-18T09:38:03Z</time>
      </trkpt>
      <trkpt lat="37.3056440" lon="-2.4830330">
        <ele>1329.6</ele>
        <time>2021-04-18T09:38:04Z</time>
      </trkpt>
      <trkpt lat="37.3056230" lon="-2.4830590">
        <ele>1329.8</ele>
        <time>2021-04-18T09:38:05Z</time>
      </trkpt>
      <trkpt lat="37.3056060" lon="-2.4830780">
        <ele>1329.8</ele>
        <time>2021-04-18T09:38:06Z</time>
      </trkpt>
      <trkpt lat="37.3055820" lon="-2.4830990">
        <ele>1330.0</ele>
        <time>2021-04-18T09:38:07Z</time>
      </trkpt>
      <trkpt lat="37.3055580" lon="-2.4831190">
        <ele>1330.2</ele>
        <time>2021-04-18T09:38:08Z</time>
      </trkpt>
      <trkpt lat="37.3055340" lon="-2.4831390">
        <ele>1330.4</ele>
        <time>2021-04-18T09:38:09Z</time>
      </trkpt>
      <trkpt lat="37.3055090" lon="-2.4831570">
        <ele>1330.8</ele>
        <time>2021-04-18T09:38:10Z</time>
      </trkpt>
      <trkpt lat="37.3054790" lon="-2.4831810">
        <ele>1331.0</ele>
        <time>2021-04-18T09:38:11Z</time>
      </trkpt>
      <trkpt lat="37.3054560" lon="-2.4832020">
        <ele>1331.4</ele>
        <time>2021-04-18T09:38:12Z</time>
      </trkpt>
      <trkpt lat="37.3054370" lon="-2.4832180">
        <ele>1331.6</ele>
        <time>2021-04-18T09:38:13Z</time>
      </trkpt>
      <trkpt lat="37.3054070" lon="-2.4832400">
        <ele>1331.8</ele>
        <time>2021-04-18T09:38:14Z</time>
      </trkpt>
      <trkpt lat="37.3053880" lon="-2.4832540">
        <ele>1332.0</ele>
        <time>2021-04-18T09:38:15Z</time>
      </trkpt>
      <trkpt lat="37.3053650" lon="-2.4832710">
        <ele>1332.2</ele>
        <time>2021-04-18T09:38:16Z</time>
      </trkpt>
      <trkpt lat="37.3053340" lon="-2.4832850">
        <ele>1332.6</ele>
        <time>2021-04-18T09:38:17Z</time>
      </trkpt>
      <trkpt lat="37.3053170" lon="-2.4832950">
        <ele>1332.6</ele>
        <time>2021-04-18T09:38:18Z</time>
      </trkpt>
      <trkpt lat="37.3052920" lon="-2.4833160">
        <ele>1332.8</ele>
        <time>2021-04-18T09:38:19Z</time>
      </trkpt>
      <trkpt lat="37.3052720" lon="-2.4833340">
        <ele>1333.0</ele>
        <time>2021-04-18T09:38:20Z</time>
      </trkpt>
      <trkpt lat="37.3052560" lon="-2.4833480">
        <ele>1333.2</ele>
        <time>2021-04-18T09:38:21Z</time>
      </trkpt>
      <trkpt lat="37.3052400" lon="-2.4833670">
        <ele>1333.6</ele>
        <time>2021-04-18T09:38:22Z</time>
      </trkpt>
      <trkpt lat="37.3052200" lon="-2.4833880">
        <ele>1333.8</ele>
        <time>2021-04-18T09:38:23Z</time>
      </trkpt>
      <trkpt lat="37.3052030" lon="-2.4834050">
        <ele>1334.0</ele>
        <time>2021-04-18T09:38:24Z</time>
      </trkpt>
      <trkpt lat="37.3051880" lon="-2.4834210">
        <ele>1334.2</ele>
        <time>2021-04-18T09:38:25Z</time>
      </trkpt>
      <trkpt lat="37.3051780" lon="-2.4834350">
        <ele>1334.2</ele>
        <time>2021-04-18T09:38:26Z</time>
      </trkpt>
      <trkpt lat="37.3051640" lon="-2.4834540">
        <ele>1334.4</ele>
        <time>2021-04-18T09:38:27Z</time>
      </trkpt>
      <trkpt lat="37.3051460" lon="-2.4834740">
        <ele>1334.6</ele>
        <time>2021-04-18T09:38:28Z</time>
      </trkpt>
      <trkpt lat="37.3051340" lon="-2.4834850">
        <ele>1335.0</ele>
        <time>2021-04-18T09:38:29Z</time>
      </trkpt>
      <trkpt lat="37.3051160" lon="-2.4834980">
        <ele>1335.0</ele>
        <time>2021-04-18T09:38:30Z</time>
      </trkpt>
      <trkpt lat="37.3051030" lon="-2.4835110">
        <ele>1335.2</ele>
        <time>2021-04-18T09:38:31Z</time>
      </trkpt>
      <trkpt lat="37.3050850" lon="-2.4835270">
        <ele>1335.4</ele>
        <time>2021-04-18T09:38:32Z</time>
      </trkpt>
      <trkpt lat="37.3050690" lon="-2.4835410">
        <ele>1335.6</ele>
        <time>2021-04-18T09:38:33Z</time>
      </trkpt>
      <trkpt lat="37.3050550" lon="-2.4835560">
        <ele>1335.8</ele>
        <time>2021-04-18T09:38:34Z</time>
      </trkpt>
      <trkpt lat="37.3050390" lon="-2.4835700">
        <ele>1335.8</ele>
        <time>2021-04-18T09:38:35Z</time>
      </trkpt>
      <trkpt lat="37.3050230" lon="-2.4835870">
        <ele>1336.0</ele>
        <time>2021-04-18T09:38:36Z</time>
      </trkpt>
      <trkpt lat="37.3050060" lon="-2.4836060">
        <ele>1336.2</ele>
        <time>2021-04-18T09:38:37Z</time>
      </trkpt>
      <trkpt lat="37.3049870" lon="-2.4836220">
        <ele>1336.2</ele>
        <time>2021-04-18T09:38:38Z</time>
      </trkpt>
      <trkpt lat="37.3049690" lon="-2.4836360">
        <ele>1336.4</ele>
        <time>2021-04-18T09:38:39Z</time>
      </trkpt>
      <trkpt lat="37.3049460" lon="-2.4836570">
        <ele>1336.6</ele>
        <time>2021-04-18T09:38:40Z</time>
      </trkpt>
      <trkpt lat="37.3049310" lon="-2.4836690">
        <ele>1336.8</ele>
        <time>2021-04-18T09:38:41Z</time>
      </trkpt>
      <trkpt lat="37.3049120" lon="-2.4836810">
        <ele>1337.0</ele>
        <time>2021-04-18T09:38:42Z</time>
      </trkpt>
      <trkpt lat="37.3048940" lon="-2.4836970">
        <ele>1337.0</ele>
        <time>2021-04-18T09:38:43Z</time>
      </trkpt>
      <trkpt lat="37.3048770" lon="-2.4837150">
        <ele>1337.4</ele>
        <time>2021-04-18T09:38:44Z</time>
      </trkpt>
      <trkpt lat="37.3048590" lon="-2.4837350">
        <ele>1337.4</ele>
        <time>2021-04-18T09:38:45Z</time>
      </trkpt>
      <trkpt lat="37.3048410" lon="-2.4837520">
        <ele>1337.6</ele>
        <time>2021-04-18T09:38:46Z</time>
      </trkpt>
      <trkpt lat="37.3048220" lon="-2.4837670">
        <ele>1337.8</ele>
        <time>2021-04-18T09:38:47Z</time>
      </trkpt>
      <trkpt lat="37.3048020" lon="-2.4837800">
        <ele>1338.0</ele>
        <time>2021-04-18T09:38:48Z</time>
      </trkpt>
      <trkpt lat="37.3047830" lon="-2.4837940">
        <ele>1338.2</ele>
        <time>2021-04-18T09:38:49Z</time>
      </trkpt>
      <trkpt lat="37.3047640" lon="-2.4838100">
        <ele>1338.4</ele>
        <time>2021-04-18T09:38:50Z</time>
      </trkpt>
      <trkpt lat="37.3047470" lon="-2.4838310">
        <ele>1338.4</ele>
        <time>2021-04-18T09:38:51Z</time>
      </trkpt>
      <trkpt lat="37.3047280" lon="-2.4838490">
        <ele>1338.6</ele>
        <time>2021-04-18T09:38:52Z</time>
      </trkpt>
      <trkpt lat="37.3047080" lon="-2.4838640">
        <ele>1339.0</ele>
        <time>2021-04-18T09:38:53Z</time>
      </trkpt>
      <trkpt lat="37.3046890" lon="-2.4838770">
        <ele>1339.2</ele>
        <time>2021-04-18T09:38:54Z</time>
      </trkpt>
      <trkpt lat="37.3046660" lon="-2.4838940">
        <ele>1339.4</ele>
        <time>2021-04-18T09:38:55Z</time>
      </trkpt>
      <trkpt lat="37.3046470" lon="-2.4839060">
        <ele>1339.4</ele>
        <time>2021-04-18T09:38:56Z</time>
      </trkpt>
      <trkpt lat="37.3046310" lon="-2.4839200">
        <ele>1339.4</ele>
        <time>2021-04-18T09:38:57Z</time>
      </trkpt>
      <trkpt lat="37.3046110" lon="-2.4839370">
        <ele>1339.6</ele>
        <time>2021-04-18T09:38:58Z</time>
      </trkpt>
      <trkpt lat="37.3045940" lon="-2.4839490">
        <ele>1339.6</ele>
        <time>2021-04-18T09:38:59Z</time>
      </trkpt>
      <trkpt lat="37.3045770" lon="-2.4839610">
        <ele>1339.8</ele>
        <time>2021-04-18T09:39:00Z</time>
      </trkpt>
      <trkpt lat="37.3045580" lon="-2.4839760">
        <ele>1340.0</ele>
        <time>2021-04-18T09:39:01Z</time>
      </trkpt>
      <trkpt lat="37.3045370" lon="-2.4839900">
        <ele>1340.2</ele>
        <time>2021-04-18T09:39:02Z</time>
      </trkpt>
      <trkpt lat="37.3045170" lon="-2.4840020">
        <ele>1340.4</ele>
        <time>2021-04-18T09:39:03Z</time>
      </trkpt>
      <trkpt lat="37.3044960" lon="-2.4840140">
        <ele>1340.4</ele>
        <time>2021-04-18T09:39:04Z</time>
      </trkpt>
      <trkpt lat="37.3044740" lon="-2.4840260">
        <ele>1340.8</ele>
        <time>2021-04-18T09:39:05Z</time>
      </trkpt>
      <trkpt lat="37.3044520" lon="-2.4840380">
        <ele>1340.8</ele>
        <time>2021-04-18T09:39:06Z</time>
      </trkpt>
      <trkpt lat="37.3044330" lon="-2.4840550">
        <ele>1341.2</ele>
        <time>2021-04-18T09:39:07Z</time>
      </trkpt>
      <trkpt lat="37.3044140" lon="-2.4840680">
        <ele>1341.2</ele>
        <time>2021-04-18T09:39:08Z</time>
      </trkpt>
      <trkpt lat="37.3043910" lon="-2.4840750">
        <ele>1341.4</ele>
        <time>2021-04-18T09:39:09Z</time>
      </trkpt>
      <trkpt lat="37.3043610" lon="-2.4840840">
        <ele>1341.4</ele>
        <time>2021-04-18T09:39:10Z</time>
      </trkpt>
      <trkpt lat="37.3043390" lon="-2.4840950">
        <ele>1341.4</ele>
        <time>2021-04-18T09:39:11Z</time>
      </trkpt>
      <trkpt lat="37.3043210" lon="-2.4841040">
        <ele>1341.6</ele>
        <time>2021-04-18T09:39:12Z</time>
      </trkpt>
      <trkpt lat="37.3042990" lon="-2.4841140">
        <ele>1341.6</ele>
        <time>2021-04-18T09:39:13Z</time>
      </trkpt>
      <trkpt lat="37.3042770" lon="-2.4841250">
        <ele>1341.6</ele>
        <time>2021-04-18T09:39:14Z</time>
      </trkpt>
      <trkpt lat="37.3042540" lon="-2.4841370">
        <ele>1342.2</ele>
        <time>2021-04-18T09:39:15Z</time>
      </trkpt>
      <trkpt lat="37.3042310" lon="-2.4841470">
        <ele>1342.2</ele>
        <time>2021-04-18T09:39:16Z</time>
      </trkpt>
      <trkpt lat="37.3042030" lon="-2.4841630">
        <ele>1342.6</ele>
        <time>2021-04-18T09:39:17Z</time>
      </trkpt>
      <trkpt lat="37.3041830" lon="-2.4841730">
        <ele>1342.6</ele>
        <time>2021-04-18T09:39:18Z</time>
      </trkpt>
      <trkpt lat="37.3041580" lon="-2.4841880">
        <ele>1342.8</ele>
        <time>2021-04-18T09:39:19Z</time>
      </trkpt>
      <trkpt lat="37.3041340" lon="-2.4842030">
        <ele>1343.0</ele>
        <time>2021-04-18T09:39:20Z</time>
      </trkpt>
      <trkpt lat="37.3041120" lon="-2.4842170">
        <ele>1343.2</ele>
        <time>2021-04-18T09:39:21Z</time>
      </trkpt>
      <trkpt lat="37.3040910" lon="-2.4842360">
        <ele>1343.4</ele>
        <time>2021-04-18T09:39:22Z</time>
      </trkpt>
      <trkpt lat="37.3040690" lon="-2.4842580">
        <ele>1343.4</ele>
        <time>2021-04-18T09:39:23Z</time>
      </trkpt>
      <trkpt lat="37.3040490" lon="-2.4842830">
        <ele>1343.6</ele>
        <time>2021-04-18T09:39:24Z</time>
      </trkpt>
      <trkpt lat="37.3040300" lon="-2.4843110">
        <ele>1343.6</ele>
        <time>2021-04-18T09:39:25Z</time>
      </trkpt>
      <trkpt lat="37.3040140" lon="-2.4843410">
        <ele>1343.6</ele>
        <time>2021-04-18T09:39:26Z</time>
      </trkpt>
      <trkpt lat="37.3039970" lon="-2.4843800">
        <ele>1343.8</ele>
        <time>2021-04-18T09:39:27Z</time>
      </trkpt>
      <trkpt lat="37.3039880" lon="-2.4844090">
        <ele>1343.8</ele>
        <time>2021-04-18T09:39:28Z</time>
      </trkpt>
      <trkpt lat="37.3039770" lon="-2.4844480">
        <ele>1343.8</ele>
        <time>2021-04-18T09:39:29Z</time>
      </trkpt>
      <trkpt lat="37.3039680" lon="-2.4844920">
        <ele>1344.0</ele>
        <time>2021-04-18T09:39:30Z</time>
      </trkpt>
      <trkpt lat="37.3039600" lon="-2.4845390">
        <ele>1344.0</ele>
        <time>2021-04-18T09:39:31Z</time>
      </trkpt>
      <trkpt lat="37.3039460" lon="-2.4845960">
        <ele>1344.0</ele>
        <time>2021-04-18T09:39:32Z</time>
      </trkpt>
      <trkpt lat="37.3039240" lon="-2.4846430">
        <ele>1344.0</ele>
        <time>2021-04-18T09:39:33Z</time>
      </trkpt>
      <trkpt lat="37.3039000" lon="-2.4846780">
        <ele>1344.0</ele>
        <time>2021-04-18T09:39:34Z</time>
      </trkpt>
      <trkpt lat="37.3038590" lon="-2.4847140">
        <ele>1343.8</ele>
        <time>2021-04-18T09:39:35Z</time>
      </trkpt>
      <trkpt lat="37.3037980" lon="-2.4847390">
        <ele>1343.6</ele>
        <time>2021-04-18T09:39:36Z</time>
      </trkpt>
      <trkpt lat="37.3037430" lon="-2.4847430">
        <ele>1343.4</ele>
        <time>2021-04-18T09:39:37Z</time>
      </trkpt>
      <trkpt lat="37.3037010" lon="-2.4847320">
        <ele>1343.2</ele>
        <time>2021-04-18T09:39:38Z</time>
      </trkpt>
      <trkpt lat="37.3036510" lon="-2.4847040">
        <ele>1343.0</ele>
        <time>2021-04-18T09:39:39Z</time>
      </trkpt>
      <trkpt lat="37.3036060" lon="-2.4846610">
        <ele>1343.0</ele>
        <time>2021-04-18T09:39:40Z</time>
      </trkpt>
      <trkpt lat="37.3035690" lon="-2.4846100">
        <ele>1342.8</ele>
        <time>2021-04-18T09:39:41Z</time>
      </trkpt>
      <trkpt lat="37.3035430" lon="-2.4845500">
        <ele>1342.6</ele>
        <time>2021-04-18T09:39:42Z</time>
      </trkpt>
      <trkpt lat="37.3035320" lon="-2.4844880">
        <ele>1342.6</ele>
        <time>2021-04-18T09:39:43Z</time>
      </trkpt>
      <trkpt lat="37.3035290" lon="-2.4844270">
        <ele>1342.4</ele>
        <time>2021-04-18T09:39:44Z</time>
      </trkpt>
      <trkpt lat="37.3035350" lon="-2.4843650">
        <ele>1342.4</ele>
        <time>2021-04-18T09:39:45Z</time>
      </trkpt>
      <trkpt lat="37.3035520" lon="-2.4842990">
        <ele>1342.4</ele>
        <time>2021-04-18T09:39:46Z</time>
      </trkpt>
      <trkpt lat="37.3035640" lon="-2.4842570">
        <ele>1342.4</ele>
        <time>2021-04-18T09:39:47Z</time>
      </trkpt>
      <trkpt lat="37.3035800" lon="-2.4841970">
        <ele>1342.4</ele>
        <time>2021-04-18T09:39:48Z</time>
      </trkpt>
      <trkpt lat="37.3035890" lon="-2.4841570">
        <ele>1342.4</ele>
        <time>2021-04-18T09:39:49Z</time>
      </trkpt>
      <trkpt lat="37.3036000" lon="-2.4841080">
        <ele>1342.4</ele>
        <time>2021-04-18T09:39:50Z</time>
      </trkpt>
      <trkpt lat="37.3036140" lon="-2.4840610">
        <ele>1342.4</ele>
        <time>2021-04-18T09:39:51Z</time>
      </trkpt>
      <trkpt lat="37.3036270" lon="-2.4840160">
        <ele>1342.6</ele>
        <time>2021-04-18T09:39:52Z</time>
      </trkpt>
      <trkpt lat="37.3036460" lon="-2.4839610">
        <ele>1342.4</ele>
        <time>2021-04-18T09:39:53Z</time>
      </trkpt>
      <trkpt lat="37.3036580" lon="-2.4839250">
        <ele>1342.4</ele>
        <time>2021-04-18T09:39:54Z</time>
      </trkpt>
      <trkpt lat="37.3036690" lon="-2.4838800">
        <ele>1342.6</ele>
        <time>2021-04-18T09:39:55Z</time>
      </trkpt>
      <trkpt lat="37.3036810" lon="-2.4838370">
        <ele>1342.8</ele>
        <time>2021-04-18T09:39:56Z</time>
      </trkpt>
      <trkpt lat="37.3036950" lon="-2.4837940">
        <ele>1342.6</ele>
        <time>2021-04-18T09:39:57Z</time>
      </trkpt>
      <trkpt lat="37.3037130" lon="-2.4837460">
        <ele>1342.6</ele>
        <time>2021-04-18T09:39:58Z</time>
      </trkpt>
      <trkpt lat="37.3037290" lon="-2.4837160">
        <ele>1342.8</ele>
        <time>2021-04-18T09:39:59Z</time>
      </trkpt>
      <trkpt lat="37.3037490" lon="-2.4836790">
        <ele>1342.8</ele>
        <time>2021-04-18T09:40:00Z</time>
      </trkpt>
      <trkpt lat="37.3037690" lon="-2.4836390">
        <ele>1342.8</ele>
        <time>2021-04-18T09:40:01Z</time>
      </trkpt>
      <trkpt lat="37.3037930" lon="-2.4835930">
        <ele>1343.0</ele>
        <time>2021-04-18T09:40:02Z</time>
      </trkpt>
      <trkpt lat="37.3038120" lon="-2.4835560">
        <ele>1343.2</ele>
        <time>2021-04-18T09:40:03Z</time>
      </trkpt>
      <trkpt lat="37.3038330" lon="-2.4835200">
        <ele>1343.2</ele>
        <time>2021-04-18T09:40:04Z</time>
      </trkpt>
      <trkpt lat="37.3038490" lon="-2.4834920">
        <ele>1343.2</ele>
        <time>2021-04-18T09:40:05Z</time>
      </trkpt>
      <trkpt lat="37.3038660" lon="-2.4834550">
        <ele>1343.4</ele>
        <time>2021-04-18T09:40:06Z</time>
      </trkpt>
      <trkpt lat="37.3038820" lon="-2.4834190">
        <ele>1343.6</ele>
        <time>2021-04-18T09:40:07Z</time>
      </trkpt>
      <trkpt lat="37.3039020" lon="-2.4833830">
        <ele>1343.6</ele>
        <time>2021-04-18T09:40:08Z</time>
      </trkpt>
      <trkpt lat="37.3039990" lon="-2.4832410">
        <ele>1344.0</ele>
        <time>2021-04-18T09:40:12Z</time>
      </trkpt>
      <trkpt lat="37.3041350" lon="-2.4830730">
        <ele>1344.6</ele>
        <time>2021-04-18T09:40:17Z</time>
      </trkpt>
      <trkpt lat="37.3042080" lon="-2.4829750">
        <ele>1345.0</ele>
        <time>2021-04-18T09:40:20Z</time>
      </trkpt>
      <trkpt lat="37.3042770" lon="-2.4828760">
        <ele>1345.6</ele>
        <time>2021-04-18T09:40:23Z</time>
      </trkpt>
      <trkpt lat="37.3042970" lon="-2.4828450">
        <ele>1346.0</ele>
        <time>2021-04-18T09:40:24Z</time>
      </trkpt>
      <trkpt lat="37.3043120" lon="-2.4828150">
        <ele>1346.0</ele>
        <time>2021-04-18T09:40:25Z</time>
      </trkpt>
      <trkpt lat="37.3043270" lon="-2.4827800">
        <ele>1346.2</ele>
        <time>2021-04-18T09:40:26Z</time>
      </trkpt>
      <trkpt lat="37.3043430" lon="-2.4827460">
        <ele>1346.2</ele>
        <time>2021-04-18T09:40:27Z</time>
      </trkpt>
      <trkpt lat="37.3043600" lon="-2.4827120">
        <ele>1346.4</ele>
        <time>2021-04-18T09:40:28Z</time>
      </trkpt>
      <trkpt lat="37.3043810" lon="-2.4826740">
        <ele>1346.4</ele>
        <time>2021-04-18T09:40:29Z</time>
      </trkpt>
      <trkpt lat="37.3043950" lon="-2.4826400">
        <ele>1346.4</ele>
        <time>2021-04-18T09:40:30Z</time>
      </trkpt>
      <trkpt lat="37.3044070" lon="-2.4826080">
        <ele>1346.6</ele>
        <time>2021-04-18T09:40:31Z</time>
      </trkpt>
      <trkpt lat="37.3044200" lon="-2.4825700">
        <ele>1346.6</ele>
        <time>2021-04-18T09:40:32Z</time>
      </trkpt>
      <trkpt lat="37.3044370" lon="-2.4825240">
        <ele>1346.6</ele>
        <time>2021-04-18T09:40:33Z</time>
      </trkpt>
      <trkpt lat="37.3044480" lon="-2.4824900">
        <ele>1346.6</ele>
        <time>2021-04-18T09:40:34Z</time>
      </trkpt>
      <trkpt lat="37.3044710" lon="-2.4824480">
        <ele>1346.6</ele>
        <time>2021-04-18T09:40:35Z</time>
      </trkpt>
      <trkpt lat="37.3044820" lon="-2.4824210">
        <ele>1346.8</ele>
        <time>2021-04-18T09:40:36Z</time>
      </trkpt>
      <trkpt lat="37.3044950" lon="-2.4823880">
        <ele>1346.8</ele>
        <time>2021-04-18T09:40:37Z</time>
      </trkpt>
      <trkpt lat="37.3045050" lon="-2.4823530">
        <ele>1346.8</ele>
        <time>2021-04-18T09:40:38Z</time>
      </trkpt>
      <trkpt lat="37.3045190" lon="-2.4823080">
        <ele>1346.8</ele>
        <time>2021-04-18T09:40:39Z</time>
      </trkpt>
      <trkpt lat="37.3045350" lon="-2.4822690">
        <ele>1346.8</ele>
        <time>2021-04-18T09:40:40Z</time>
      </trkpt>
      <trkpt lat="37.3045460" lon="-2.4822330">
        <ele>1347.0</ele>
        <time>2021-04-18T09:40:41Z</time>
      </trkpt>
      <trkpt lat="37.3046030" lon="-2.4820340">
        <ele>1347.6</ele>
        <time>2021-04-18T09:40:46Z</time>
      </trkpt>
      <trkpt lat="37.3046190" lon="-2.4819030">
        <ele>1348.0</ele>
        <time>2021-04-18T09:40:49Z</time>
      </trkpt>
      <trkpt lat="37.3046100" lon="-2.4818270">
        <ele>1348.0</ele>
        <time>2021-04-18T09:40:51Z</time>
      </trkpt>
      <trkpt lat="37.3045990" lon="-2.4817890">
        <ele>1347.8</ele>
        <time>2021-04-18T09:40:52Z</time>
      </trkpt>
      <trkpt lat="37.3045660" lon="-2.4817010">
        <ele>1347.8</ele>
        <time>2021-04-18T09:40:54Z</time>
      </trkpt>
      <trkpt lat="37.3045060" lon="-2.4815950">
        <ele>1348.4</ele>
        <time>2021-04-18T09:40:57Z</time>
      </trkpt>
      <trkpt lat="37.3044780" lon="-2.4815660">
        <ele>1348.4</ele>
        <time>2021-04-18T09:40:58Z</time>
      </trkpt>
      <trkpt lat="37.3044480" lon="-2.4815400">
        <ele>1348.6</ele>
        <time>2021-04-18T09:40:59Z</time>
      </trkpt>
      <trkpt lat="37.3042370" lon="-2.4813750">
        <ele>1349.4</ele>
        <time>2021-04-18T09:41:06Z</time>
      </trkpt>
      <trkpt lat="37.3040990" lon="-2.4812490">
        <ele>1349.8</ele>
        <time>2021-04-18T09:41:11Z</time>
      </trkpt>
      <trkpt lat="37.3040420" lon="-2.4812000">
        <ele>1349.8</ele>
        <time>2021-04-18T09:41:13Z</time>
      </trkpt>
      <trkpt lat="37.3038390" lon="-2.4810720">
        <ele>1350.4</ele>
        <time>2021-04-18T09:41:19Z</time>
      </trkpt>
      <trkpt lat="37.3036570" lon="-2.4810050">
        <ele>1350.8</ele>
        <time>2021-04-18T09:41:24Z</time>
      </trkpt>
      <trkpt lat="37.3035420" lon="-2.4809800">
        <ele>1351.0</ele>
        <time>2021-04-18T09:41:27Z</time>
      </trkpt>
      <trkpt lat="37.3033010" lon="-2.4809800">
        <ele>1351.4</ele>
        <time>2021-04-18T09:41:33Z</time>
      </trkpt>
      <trkpt lat="37.3030660" lon="-2.4810890">
        <ele>1351.8</ele>
        <time>2021-04-18T09:41:39Z</time>
      </trkpt>
      <trkpt lat="37.3030290" lon="-2.4811090">
        <ele>1351.8</ele>
        <time>2021-04-18T09:41:40Z</time>
      </trkpt>
      <trkpt lat="37.3029270" lon="-2.4811690">
        <ele>1352.2</ele>
        <time>2021-04-18T09:41:43Z</time>
      </trkpt>
      <trkpt lat="37.3028930" lon="-2.4811870">
        <ele>1352.4</ele>
        <time>2021-04-18T09:41:44Z</time>
      </trkpt>
      <trkpt lat="37.3028250" lon="-2.4812190">
        <ele>1352.8</ele>
        <time>2021-04-18T09:41:46Z</time>
      </trkpt>
      <trkpt lat="37.3027890" lon="-2.4812360">
        <ele>1352.8</ele>
        <time>2021-04-18T09:41:47Z</time>
      </trkpt>
      <trkpt lat="37.3027570" lon="-2.4812570">
        <ele>1353.0</ele>
        <time>2021-04-18T09:41:48Z</time>
      </trkpt>
      <trkpt lat="37.3026930" lon="-2.4812910">
        <ele>1353.2</ele>
        <time>2021-04-18T09:41:50Z</time>
      </trkpt>
      <trkpt lat="37.3026600" lon="-2.4813090">
        <ele>1353.2</ele>
        <time>2021-04-18T09:41:51Z</time>
      </trkpt>
      <trkpt lat="37.3026270" lon="-2.4813290">
        <ele>1353.4</ele>
        <time>2021-04-18T09:41:52Z</time>
      </trkpt>
      <trkpt lat="37.3025950" lon="-2.4813500">
        <ele>1353.6</ele>
        <time>2021-04-18T09:41:53Z</time>
      </trkpt>
      <trkpt lat="37.3025640" lon="-2.4813720">
        <ele>1353.8</ele>
        <time>2021-04-18T09:41:54Z</time>
      </trkpt>
      <trkpt lat="37.3025370" lon="-2.4813990">
        <ele>1354.2</ele>
        <time>2021-04-18T09:41:55Z</time>
      </trkpt>
      <trkpt lat="37.3025120" lon="-2.4814290">
        <ele>1354.2</ele>
        <time>2021-04-18T09:41:56Z</time>
      </trkpt>
      <trkpt lat="37.3024870" lon="-2.4814570">
        <ele>1354.4</ele>
        <time>2021-04-18T09:41:57Z</time>
      </trkpt>
      <trkpt lat="37.3024660" lon="-2.4814890">
        <ele>1354.4</ele>
        <time>2021-04-18T09:41:58Z</time>
      </trkpt>
      <trkpt lat="37.3024480" lon="-2.4815220">
        <ele>1354.6</ele>
        <time>2021-04-18T09:41:59Z</time>
      </trkpt>
      <trkpt lat="37.3024340" lon="-2.4815580">
        <ele>1354.8</ele>
        <time>2021-04-18T09:42:00Z</time>
      </trkpt>
      <trkpt lat="37.3024240" lon="-2.4815950">
        <ele>1354.8</ele>
        <time>2021-04-18T09:42:01Z</time>
      </trkpt>
      <trkpt lat="37.3024140" lon="-2.4816340">
        <ele>1355.2</ele>
        <time>2021-04-18T09:42:02Z</time>
      </trkpt>
      <trkpt lat="37.3024060" lon="-2.4816730">
        <ele>1355.4</ele>
        <time>2021-04-18T09:42:03Z</time>
      </trkpt>
      <trkpt lat="37.3023990" lon="-2.4817140">
        <ele>1355.8</ele>
        <time>2021-04-18T09:42:04Z</time>
      </trkpt>
      <trkpt lat="37.3023940" lon="-2.4817540">
        <ele>1355.8</ele>
        <time>2021-04-18T09:42:05Z</time>
      </trkpt>
      <trkpt lat="37.3023890" lon="-2.4817930">
        <ele>1356.2</ele>
        <time>2021-04-18T09:42:06Z</time>
      </trkpt>
      <trkpt lat="37.3023810" lon="-2.4818340">
        <ele>1356.6</ele>
        <time>2021-04-18T09:42:07Z</time>
      </trkpt>
      <trkpt lat="37.3023760" lon="-2.4818760">
        <ele>1356.8</ele>
        <time>2021-04-18T09:42:08Z</time>
      </trkpt>
      <trkpt lat="37.3023730" lon="-2.4819100">
        <ele>1357.0</ele>
        <time>2021-04-18T09:42:09Z</time>
      </trkpt>
      <trkpt lat="37.3023720" lon="-2.4819620">
        <ele>1357.2</ele>
        <time>2021-04-18T09:42:10Z</time>
      </trkpt>
      <trkpt lat="37.3023700" lon="-2.4820050">
        <ele>1357.2</ele>
        <time>2021-04-18T09:42:11Z</time>
      </trkpt>
      <trkpt lat="37.3023690" lon="-2.4820470">
        <ele>1357.4</ele>
        <time>2021-04-18T09:42:12Z</time>
      </trkpt>
      <trkpt lat="37.3023690" lon="-2.4820900">
        <ele>1357.4</ele>
        <time>2021-04-18T09:42:13Z</time>
      </trkpt>
      <trkpt lat="37.3023710" lon="-2.4821330">
        <ele>1357.6</ele>
        <time>2021-04-18T09:42:14Z</time>
      </trkpt>
      <trkpt lat="37.3023700" lon="-2.4821730">
        <ele>1357.6</ele>
        <time>2021-04-18T09:42:15Z</time>
      </trkpt>
      <trkpt lat="37.3023660" lon="-2.4822130">
        <ele>1357.8</ele>
        <time>2021-04-18T09:42:16Z</time>
      </trkpt>
      <trkpt lat="37.3023640" lon="-2.4822540">
        <ele>1357.8</ele>
        <time>2021-04-18T09:42:17Z</time>
      </trkpt>
      <trkpt lat="37.3023650" lon="-2.4822950">
        <ele>1357.8</ele>
        <time>2021-04-18T09:42:18Z</time>
      </trkpt>
      <trkpt lat="37.3023650" lon="-2.4823380">
        <ele>1357.8</ele>
        <time>2021-04-18T09:42:19Z</time>
      </trkpt>
      <trkpt lat="37.3023640" lon="-2.4823790">
        <ele>1358.0</ele>
        <time>2021-04-18T09:42:20Z</time>
      </trkpt>
      <trkpt lat="37.3023620" lon="-2.4824220">
        <ele>1358.0</ele>
        <time>2021-04-18T09:42:21Z</time>
      </trkpt>
      <trkpt lat="37.3023570" lon="-2.4824640">
        <ele>1358.0</ele>
        <time>2021-04-18T09:42:22Z</time>
      </trkpt>
      <trkpt lat="37.3023520" lon="-2.4825030">
        <ele>1358.0</ele>
        <time>2021-04-18T09:42:23Z</time>
      </trkpt>
      <trkpt lat="37.3023470" lon="-2.4825410">
        <ele>1358.0</ele>
        <time>2021-04-18T09:42:24Z</time>
      </trkpt>
      <trkpt lat="37.3023410" lon="-2.4825800">
        <ele>1358.0</ele>
        <time>2021-04-18T09:42:25Z</time>
      </trkpt>
      <trkpt lat="37.3023330" lon="-2.4826200">
        <ele>1358.0</ele>
        <time>2021-04-18T09:42:26Z</time>
      </trkpt>
      <trkpt lat="37.3023270" lon="-2.4826620">
        <ele>1358.0</ele>
        <time>2021-04-18T09:42:27Z</time>
      </trkpt>
      <trkpt lat="37.3023210" lon="-2.4827040">
        <ele>1358.0</ele>
        <time>2021-04-18T09:42:28Z</time>
      </trkpt>
      <trkpt lat="37.3023140" lon="-2.4827420">
        <ele>1358.0</ele>
        <time>2021-04-18T09:42:29Z</time>
      </trkpt>
      <trkpt lat="37.3023000" lon="-2.4827810">
        <ele>1358.2</ele>
        <time>2021-04-18T09:42:30Z</time>
      </trkpt>
      <trkpt lat="37.3022850" lon="-2.4828230">
        <ele>1358.2</ele>
        <time>2021-04-18T09:42:31Z</time>
      </trkpt>
      <trkpt lat="37.3022150" lon="-2.4829790">
        <ele>1358.4</ele>
        <time>2021-04-18T09:42:35Z</time>
      </trkpt>
      <trkpt lat="37.3020420" lon="-2.4831890">
        <ele>1358.8</ele>
        <time>2021-04-18T09:42:41Z</time>
      </trkpt>
      <trkpt lat="37.3018750" lon="-2.4832400">
        <ele>1359.0</ele>
        <time>2021-04-18T09:42:45Z</time>
      </trkpt>
      <trkpt lat="37.3018310" lon="-2.4832290">
        <ele>1359.0</ele>
        <time>2021-04-18T09:42:46Z</time>
      </trkpt>
      <trkpt lat="37.3017890" lon="-2.4832090">
        <ele>1359.0</ele>
        <time>2021-04-18T09:42:47Z</time>
      </trkpt>
      <trkpt lat="37.3017500" lon="-2.4831790">
        <ele>1359.0</ele>
        <time>2021-04-18T09:42:48Z</time>
      </trkpt>
      <trkpt lat="37.3017170" lon="-2.4831380">
        <ele>1359.2</ele>
        <time>2021-04-18T09:42:49Z</time>
      </trkpt>
      <trkpt lat="37.3016880" lon="-2.4830900">
        <ele>1359.0</ele>
        <time>2021-04-18T09:42:50Z</time>
      </trkpt>
      <trkpt lat="37.3016650" lon="-2.4830440">
        <ele>1359.0</ele>
        <time>2021-04-18T09:42:51Z</time>
      </trkpt>
      <trkpt lat="37.3016490" lon="-2.4829960">
        <ele>1359.0</ele>
        <time>2021-04-18T09:42:52Z</time>
      </trkpt>
      <trkpt lat="37.3016370" lon="-2.4829450">
        <ele>1359.2</ele>
        <time>2021-04-18T09:42:53Z</time>
      </trkpt>
      <trkpt lat="37.3016290" lon="-2.4828950">
        <ele>1359.0</ele>
        <time>2021-04-18T09:42:54Z</time>
      </trkpt>
      <trkpt lat="37.3016230" lon="-2.4828460">
        <ele>1359.2</ele>
        <time>2021-04-18T09:42:55Z</time>
      </trkpt>
      <trkpt lat="37.3016170" lon="-2.4827550">
        <ele>1359.2</ele>
        <time>2021-04-18T09:42:57Z</time>
      </trkpt>
      <trkpt lat="37.3016190" lon="-2.4827080">
        <ele>1359.2</ele>
        <time>2021-04-18T09:42:58Z</time>
      </trkpt>
      <trkpt lat="37.3016190" lon="-2.4826590">
        <ele>1359.2</ele>
        <time>2021-04-18T09:42:59Z</time>
      </trkpt>
      <trkpt lat="37.3016200" lon="-2.4826130">
        <ele>1359.4</ele>
        <time>2021-04-18T09:43:00Z</time>
      </trkpt>
      <trkpt lat="37.3016180" lon="-2.4825680">
        <ele>1359.6</ele>
        <time>2021-04-18T09:43:01Z</time>
      </trkpt>
      <trkpt lat="37.3016150" lon="-2.4825270">
        <ele>1359.8</ele>
        <time>2021-04-18T09:43:02Z</time>
      </trkpt>
      <trkpt lat="37.3016110" lon="-2.4824890">
        <ele>1359.8</ele>
        <time>2021-04-18T09:43:03Z</time>
      </trkpt>
      <trkpt lat="37.3016060" lon="-2.4824570">
        <ele>1360.4</ele>
        <time>2021-04-18T09:43:04Z</time>
      </trkpt>
      <trkpt lat="37.3015990" lon="-2.4824330">
        <ele>1360.6</ele>
        <time>2021-04-18T09:43:05Z</time>
      </trkpt>
      <trkpt lat="37.3015930" lon="-2.4823990">
        <ele>1361.0</ele>
        <time>2021-04-18T09:43:06Z</time>
      </trkpt>
      <trkpt lat="37.3015830" lon="-2.4823660">
        <ele>1361.4</ele>
        <time>2021-04-18T09:43:07Z</time>
      </trkpt>
      <trkpt lat="37.3015720" lon="-2.4823360">
        <ele>1361.6</ele>
        <time>2021-04-18T09:43:08Z</time>
      </trkpt>
      <trkpt lat="37.3015630" lon="-2.4823070">
        <ele>1361.8</ele>
        <time>2021-04-18T09:43:09Z</time>
      </trkpt>
      <trkpt lat="37.3015550" lon="-2.4822710">
        <ele>1362.0</ele>
        <time>2021-04-18T09:43:10Z</time>
      </trkpt>
      <trkpt lat="37.3015450" lon="-2.4822340">
        <ele>1362.4</ele>
        <time>2021-04-18T09:43:11Z</time>
      </trkpt>
      <trkpt lat="37.3015330" lon="-2.4822020">
        <ele>1362.4</ele>
        <time>2021-04-18T09:43:12Z</time>
      </trkpt>
      <trkpt lat="37.3015220" lon="-2.4821710">
        <ele>1362.8</ele>
        <time>2021-04-18T09:43:13Z</time>
      </trkpt>
      <trkpt lat="37.3015100" lon="-2.4821390">
        <ele>1363.0</ele>
        <time>2021-04-18T09:43:14Z</time>
      </trkpt>
      <trkpt lat="37.3014990" lon="-2.4821030">
        <ele>1363.0</ele>
        <time>2021-04-18T09:43:15Z</time>
      </trkpt>
      <trkpt lat="37.3014870" lon="-2.4820740">
        <ele>1363.2</ele>
        <time>2021-04-18T09:43:16Z</time>
      </trkpt>
      <trkpt lat="37.3014780" lon="-2.4820440">
        <ele>1363.4</ele>
        <time>2021-04-18T09:43:17Z</time>
      </trkpt>
      <trkpt lat="37.3014680" lon="-2.4820160">
        <ele>1363.6</ele>
        <time>2021-04-18T09:43:18Z</time>
      </trkpt>
      <trkpt lat="37.3014520" lon="-2.4819910">
        <ele>1363.8</ele>
        <time>2021-04-18T09:43:19Z</time>
      </trkpt>
      <trkpt lat="37.3014320" lon="-2.4819700">
        <ele>1364.2</ele>
        <time>2021-04-18T09:43:20Z</time>
      </trkpt>
      <trkpt lat="37.3014130" lon="-2.4819510">
        <ele>1364.2</ele>
        <time>2021-04-18T09:43:21Z</time>
      </trkpt>
      <trkpt lat="37.3013940" lon="-2.4819310">
        <ele>1364.4</ele>
        <time>2021-04-18T09:43:22Z</time>
      </trkpt>
      <trkpt lat="37.3013780" lon="-2.4819150">
        <ele>1364.4</ele>
        <time>2021-04-18T09:43:23Z</time>
      </trkpt>
      <trkpt lat="37.3013600" lon="-2.4818900">
        <ele>1364.6</ele>
        <time>2021-04-18T09:43:24Z</time>
      </trkpt>
      <trkpt lat="37.3013320" lon="-2.4818650">
        <ele>1364.8</ele>
        <time>2021-04-18T09:43:25Z</time>
      </trkpt>
      <trkpt lat="37.3013060" lon="-2.4818430">
        <ele>1365.0</ele>
        <time>2021-04-18T09:43:26Z</time>
      </trkpt>
      <trkpt lat="37.3012830" lon="-2.4818190">
        <ele>1365.2</ele>
        <time>2021-04-18T09:43:27Z</time>
      </trkpt>
      <trkpt lat="37.3012600" lon="-2.4817960">
        <ele>1365.2</ele>
        <time>2021-04-18T09:43:28Z</time>
      </trkpt>
      <trkpt lat="37.3012350" lon="-2.4817760">
        <ele>1365.4</ele>
        <time>2021-04-18T09:43:29Z</time>
      </trkpt>
      <trkpt lat="37.3012130" lon="-2.4817530">
        <ele>1365.4</ele>
        <time>2021-04-18T09:43:30Z</time>
      </trkpt>
      <trkpt lat="37.3011920" lon="-2.4817300">
        <ele>1365.6</ele>
        <time>2021-04-18T09:43:31Z</time>
      </trkpt>
      <trkpt lat="37.3011690" lon="-2.4817120">
        <ele>1365.6</ele>
        <time>2021-04-18T09:43:32Z</time>
      </trkpt>
      <trkpt lat="37.3011400" lon="-2.4816960">
        <ele>1365.8</ele>
        <time>2021-04-18T09:43:33Z</time>
      </trkpt>
      <trkpt lat="37.3011100" lon="-2.4816780">
        <ele>1365.8</ele>
        <time>2021-04-18T09:43:34Z</time>
      </trkpt>
      <trkpt lat="37.3010790" lon="-2.4816590">
        <ele>1366.0</ele>
        <time>2021-04-18T09:43:35Z</time>
      </trkpt>
      <trkpt lat="37.3010520" lon="-2.4816410">
        <ele>1366.0</ele>
        <time>2021-04-18T09:43:36Z</time>
      </trkpt>
      <trkpt lat="37.3010250" lon="-2.4816210">
        <ele>1366.2</ele>
        <time>2021-04-18T09:43:37Z</time>
      </trkpt>
      <trkpt lat="37.3009980" lon="-2.4816020">
        <ele>1366.8</ele>
        <time>2021-04-18T09:43:38Z</time>
      </trkpt>
      <trkpt lat="37.3009770" lon="-2.4815870">
        <ele>1366.8</ele>
        <time>2021-04-18T09:43:39Z</time>
      </trkpt>
      <trkpt lat="37.3009520" lon="-2.4815690">
        <ele>1367.0</ele>
        <time>2021-04-18T09:43:40Z</time>
      </trkpt>
      <trkpt lat="37.3009270" lon="-2.4815520">
        <ele>1367.2</ele>
        <time>2021-04-18T09:43:41Z</time>
      </trkpt>
      <trkpt lat="37.3009000" lon="-2.4815330">
        <ele>1367.2</ele>
        <time>2021-04-18T09:43:42Z</time>
      </trkpt>
      <trkpt lat="37.3008800" lon="-2.4815160">
        <ele>1367.4</ele>
        <time>2021-04-18T09:43:43Z</time>
      </trkpt>
      <trkpt lat="37.3008560" lon="-2.4815010">
        <ele>1367.4</ele>
        <time>2021-04-18T09:43:44Z</time>
      </trkpt>
      <trkpt lat="37.3008360" lon="-2.4814870">
        <ele>1367.6</ele>
        <time>2021-04-18T09:43:45Z</time>
      </trkpt>
      <trkpt lat="37.3008160" lon="-2.4814710">
        <ele>1367.6</ele>
        <time>2021-04-18T09:43:46Z</time>
      </trkpt>
      <trkpt lat="37.3007930" lon="-2.4814540">
        <ele>1367.6</ele>
        <time>2021-04-18T09:43:47Z</time>
      </trkpt>
      <trkpt lat="37.3007700" lon="-2.4814380">
        <ele>1367.8</ele>
        <time>2021-04-18T09:43:48Z</time>
      </trkpt>
      <trkpt lat="37.3007510" lon="-2.4814190">
        <ele>1367.8</ele>
        <time>2021-04-18T09:43:49Z</time>
      </trkpt>
      <trkpt lat="37.3007290" lon="-2.4814040">
        <ele>1368.0</ele>
        <time>2021-04-18T09:43:50Z</time>
      </trkpt>
      <trkpt lat="37.3007060" lon="-2.4813830">
        <ele>1368.0</ele>
        <time>2021-04-18T09:43:51Z</time>
      </trkpt>
      <trkpt lat="37.3006800" lon="-2.4813650">
        <ele>1368.2</ele>
        <time>2021-04-18T09:43:52Z</time>
      </trkpt>
      <trkpt lat="37.3006530" lon="-2.4813480">
        <ele>1368.2</ele>
        <time>2021-04-18T09:43:53Z</time>
      </trkpt>
      <trkpt lat="37.3006280" lon="-2.4813310">
        <ele>1368.4</ele>
        <time>2021-04-18T09:43:54Z</time>
      </trkpt>
      <trkpt lat="37.3006030" lon="-2.4813180">
        <ele>1368.4</ele>
        <time>2021-04-18T09:43:55Z</time>
      </trkpt>
      <trkpt lat="37.3005830" lon="-2.4812980">
        <ele>1368.6</ele>
        <time>2021-04-18T09:43:56Z</time>
      </trkpt>
      <trkpt lat="37.3005640" lon="-2.4812780">
        <ele>1368.8</ele>
        <time>2021-04-18T09:43:57Z</time>
      </trkpt>
      <trkpt lat="37.3005430" lon="-2.4812600">
        <ele>1369.0</ele>
        <time>2021-04-18T09:43:58Z</time>
      </trkpt>
      <trkpt lat="37.3005230" lon="-2.4812410">
        <ele>1369.2</ele>
        <time>2021-04-18T09:43:59Z</time>
      </trkpt>
      <trkpt lat="37.3005020" lon="-2.4812220">
        <ele>1369.2</ele>
        <time>2021-04-18T09:44:00Z</time>
      </trkpt>
      <trkpt lat="37.3004790" lon="-2.4812040">
        <ele>1369.4</ele>
        <time>2021-04-18T09:44:01Z</time>
      </trkpt>
      <trkpt lat="37.3004580" lon="-2.4811860">
        <ele>1369.4</ele>
        <time>2021-04-18T09:44:02Z</time>
      </trkpt>
      <trkpt lat="37.3004360" lon="-2.4811630">
        <ele>1369.4</ele>
        <time>2021-04-18T09:44:03Z</time>
      </trkpt>
      <trkpt lat="37.3004160" lon="-2.4811430">
        <ele>1369.8</ele>
        <time>2021-04-18T09:44:04Z</time>
      </trkpt>
      <trkpt lat="37.3003960" lon="-2.4811220">
        <ele>1369.8</ele>
        <time>2021-04-18T09:44:05Z</time>
      </trkpt>
      <trkpt lat="37.3003780" lon="-2.4811020">
        <ele>1370.0</ele>
        <time>2021-04-18T09:44:06Z</time>
      </trkpt>
      <trkpt lat="37.3003580" lon="-2.4810820">
        <ele>1370.0</ele>
        <time>2021-04-18T09:44:07Z</time>
      </trkpt>
      <trkpt lat="37.3003380" lon="-2.4810630">
        <ele>1370.2</ele>
        <time>2021-04-18T09:44:08Z</time>
      </trkpt>
      <trkpt lat="37.3003170" lon="-2.4810460">
        <ele>1370.4</ele>
        <time>2021-04-18T09:44:09Z</time>
      </trkpt>
      <trkpt lat="37.3002990" lon="-2.4810230">
        <ele>1370.4</ele>
        <time>2021-04-18T09:44:10Z</time>
      </trkpt>
      <trkpt lat="37.3002830" lon="-2.4809970">
        <ele>1370.6</ele>
        <time>2021-04-18T09:44:11Z</time>
      </trkpt>
      <trkpt lat="37.3002620" lon="-2.4809770">
        <ele>1370.6</ele>
        <time>2021-04-18T09:44:12Z</time>
      </trkpt>
      <trkpt lat="37.3002440" lon="-2.4809550">
        <ele>1370.8</ele>
        <time>2021-04-18T09:44:13Z</time>
      </trkpt>
      <trkpt lat="37.3002250" lon="-2.4809330">
        <ele>1370.8</ele>
        <time>2021-04-18T09:44:14Z</time>
      </trkpt>
      <trkpt lat="37.3002040" lon="-2.4809060">
        <ele>1370.8</ele>
        <time>2021-04-18T09:44:15Z</time>
      </trkpt>
      <trkpt lat="37.3001790" lon="-2.4808680">
        <ele>1371.0</ele>
        <time>2021-04-18T09:44:16Z</time>
      </trkpt>
      <trkpt lat="37.3001560" lon="-2.4808450">
        <ele>1371.2</ele>
        <time>2021-04-18T09:44:17Z</time>
      </trkpt>
      <trkpt lat="37.3001300" lon="-2.4808240">
        <ele>1371.2</ele>
        <time>2021-04-18T09:44:18Z</time>
      </trkpt>
      <trkpt lat="37.3001110" lon="-2.4807970">
        <ele>1371.4</ele>
        <time>2021-04-18T09:44:19Z</time>
      </trkpt>
      <trkpt lat="37.3000950" lon="-2.4807640">
        <ele>1371.4</ele>
        <time>2021-04-18T09:44:20Z</time>
      </trkpt>
      <trkpt lat="37.3000780" lon="-2.4807360">
        <ele>1371.6</ele>
        <time>2021-04-18T09:44:21Z</time>
      </trkpt>
      <trkpt lat="37.3000530" lon="-2.4807120">
        <ele>1371.8</ele>
        <time>2021-04-18T09:44:22Z</time>
      </trkpt>
      <trkpt lat="37.3000270" lon="-2.4806850">
        <ele>1372.0</ele>
        <time>2021-04-18T09:44:23Z</time>
      </trkpt>
      <trkpt lat="37.3000040" lon="-2.4806540">
        <ele>1372.0</ele>
        <time>2021-04-18T09:44:24Z</time>
      </trkpt>
      <trkpt lat="37.2999810" lon="-2.4806240">
        <ele>1372.2</ele>
        <time>2021-04-18T09:44:25Z</time>
      </trkpt>
      <trkpt lat="37.2999590" lon="-2.4806000">
        <ele>1372.2</ele>
        <time>2021-04-18T09:44:26Z</time>
      </trkpt>
      <trkpt lat="37.2999330" lon="-2.4805750">
        <ele>1372.2</ele>
        <time>2021-04-18T09:44:27Z</time>
      </trkpt>
      <trkpt lat="37.2999120" lon="-2.4805510">
        <ele>1372.4</ele>
        <time>2021-04-18T09:44:28Z</time>
      </trkpt>
      <trkpt lat="37.2998890" lon="-2.4805300">
        <ele>1372.4</ele>
        <time>2021-04-18T09:44:29Z</time>
      </trkpt>
      <trkpt lat="37.2998690" lon="-2.4805130">
        <ele>1372.2</ele>
        <time>2021-04-18T09:44:30Z</time>
      </trkpt>
      <trkpt lat="37.2998430" lon="-2.4804830">
        <ele>1372.4</ele>
        <time>2021-04-18T09:44:31Z</time>
      </trkpt>
      <trkpt lat="37.2998220" lon="-2.4804610">
        <ele>1372.4</ele>
        <time>2021-04-18T09:44:32Z</time>
      </trkpt>
      <trkpt lat="37.2998010" lon="-2.4804390">
        <ele>1372.4</ele>
        <time>2021-04-18T09:44:33Z</time>
      </trkpt>
      <trkpt lat="37.2997710" lon="-2.4804160">
        <ele>1372.4</ele>
        <time>2021-04-18T09:44:34Z</time>
      </trkpt>
      <trkpt lat="37.2997440" lon="-2.4803930">
        <ele>1372.6</ele>
        <time>2021-04-18T09:44:35Z</time>
      </trkpt>
      <trkpt lat="37.2997150" lon="-2.4803640">
        <ele>1372.6</ele>
        <time>2021-04-18T09:44:36Z</time>
      </trkpt>
      <trkpt lat="37.2996860" lon="-2.4803480">
        <ele>1372.8</ele>
        <time>2021-04-18T09:44:37Z</time>
      </trkpt>
      <trkpt lat="37.2996060" lon="-2.4802980">
        <ele>1373.2</ele>
        <time>2021-04-18T09:44:40Z</time>
      </trkpt>
      <trkpt lat="37.2995390" lon="-2.4802780">
        <ele>1373.4</ele>
        <time>2021-04-18T09:44:42Z</time>
      </trkpt>
      <trkpt lat="37.2994170" lon="-2.4802810">
        <ele>1373.8</ele>
        <time>2021-04-18T09:44:46Z</time>
      </trkpt>
      <trkpt lat="37.2993060" lon="-2.4803420">
        <ele>1374.0</ele>
        <time>2021-04-18T09:44:50Z</time>
      </trkpt>
      <trkpt lat="37.2992850" lon="-2.4803700">
        <ele>1374.2</ele>
        <time>2021-04-18T09:44:51Z</time>
      </trkpt>
      <trkpt lat="37.2992660" lon="-2.4804000">
        <ele>1374.6</ele>
        <time>2021-04-18T09:44:52Z</time>
      </trkpt>
      <trkpt lat="37.2992470" lon="-2.4804290">
        <ele>1374.6</ele>
        <time>2021-04-18T09:44:53Z</time>
      </trkpt>
      <trkpt lat="37.2991990" lon="-2.4805160">
        <ele>1375.0</ele>
        <time>2021-04-18T09:44:56Z</time>
      </trkpt>
      <trkpt lat="37.2991800" lon="-2.4805490">
        <ele>1375.0</ele>
        <time>2021-04-18T09:44:57Z</time>
      </trkpt>
      <trkpt lat="37.2991600" lon="-2.4805800">
        <ele>1375.0</ele>
        <time>2021-04-18T09:44:58Z</time>
      </trkpt>
      <trkpt lat="37.2991390" lon="-2.4806140">
        <ele>1375.0</ele>
        <time>2021-04-18T09:44:59Z</time>
      </trkpt>
      <trkpt lat="37.2991180" lon="-2.4806490">
        <ele>1375.2</ele>
        <time>2021-04-18T09:45:00Z</time>
      </trkpt>
      <trkpt lat="37.2991000" lon="-2.4806840">
        <ele>1375.4</ele>
        <time>2021-04-18T09:45:01Z</time>
      </trkpt>
      <trkpt lat="37.2990820" lon="-2.4807190">
        <ele>1375.4</ele>
        <time>2021-04-18T09:45:02Z</time>
      </trkpt>
      <trkpt lat="37.2990520" lon="-2.4807660">
        <ele>1375.4</ele>
        <time>2021-04-18T09:45:03Z</time>
      </trkpt>
      <trkpt lat="37.2990280" lon="-2.4808020">
        <ele>1375.4</ele>
        <time>2021-04-18T09:45:04Z</time>
      </trkpt>
      <trkpt lat="37.2990040" lon="-2.4808380">
        <ele>1375.6</ele>
        <time>2021-04-18T09:45:05Z</time>
      </trkpt>
      <trkpt lat="37.2989790" lon="-2.4808700">
        <ele>1375.6</ele>
        <time>2021-04-18T09:45:06Z</time>
      </trkpt>
      <trkpt lat="37.2987800" lon="-2.4810920">
        <ele>1376.0</ele>
        <time>2021-04-18T09:45:13Z</time>
      </trkpt>
      <trkpt lat="37.2987090" lon="-2.4811180">
        <ele>1376.2</ele>
        <time>2021-04-18T09:45:15Z</time>
      </trkpt>
      <trkpt lat="37.2986720" lon="-2.4811250">
        <ele>1376.2</ele>
        <time>2021-04-18T09:45:16Z</time>
      </trkpt>
      <trkpt lat="37.2985960" lon="-2.4811370">
        <ele>1376.4</ele>
        <time>2021-04-18T09:45:18Z</time>
      </trkpt>
      <trkpt lat="37.2985610" lon="-2.4811400">
        <ele>1376.6</ele>
        <time>2021-04-18T09:45:19Z</time>
      </trkpt>
      <trkpt lat="37.2985260" lon="-2.4811400">
        <ele>1376.6</ele>
        <time>2021-04-18T09:45:20Z</time>
      </trkpt>
      <trkpt lat="37.2984600" lon="-2.4811360">
        <ele>1376.8</ele>
        <time>2021-04-18T09:45:22Z</time>
      </trkpt>
      <trkpt lat="37.2984270" lon="-2.4811330">
        <ele>1377.0</ele>
        <time>2021-04-18T09:45:23Z</time>
      </trkpt>
      <trkpt lat="37.2984020" lon="-2.4811280">
        <ele>1377.0</ele>
        <time>2021-04-18T09:45:24Z</time>
      </trkpt>
      <trkpt lat="37.2983700" lon="-2.4811190">
        <ele>1377.4</ele>
        <time>2021-04-18T09:45:25Z</time>
      </trkpt>
      <trkpt lat="37.2983330" lon="-2.4811010">
        <ele>1377.6</ele>
        <time>2021-04-18T09:45:26Z</time>
      </trkpt>
      <trkpt lat="37.2983050" lon="-2.4810820">
        <ele>1377.8</ele>
        <time>2021-04-18T09:45:27Z</time>
      </trkpt>
      <trkpt lat="37.2982790" lon="-2.4810610">
        <ele>1378.0</ele>
        <time>2021-04-18T09:45:28Z</time>
      </trkpt>
      <trkpt lat="37.2982430" lon="-2.4810110">
        <ele>1378.4</ele>
        <time>2021-04-18T09:45:30Z</time>
      </trkpt>
      <trkpt lat="37.2982340" lon="-2.4809730">
        <ele>1378.6</ele>
        <time>2021-04-18T09:45:31Z</time>
      </trkpt>
      <trkpt lat="37.2982250" lon="-2.4809380">
        <ele>1378.6</ele>
        <time>2021-04-18T09:45:32Z</time>
      </trkpt>
      <trkpt lat="37.2982220" lon="-2.4809120">
        <ele>1378.8</ele>
        <time>2021-04-18T09:45:33Z</time>
      </trkpt>
      <trkpt lat="37.2982190" lon="-2.4808780">
        <ele>1378.8</ele>
        <time>2021-04-18T09:45:34Z</time>
      </trkpt>
      <trkpt lat="37.2982170" lon="-2.4808380">
        <ele>1378.8</ele>
        <time>2021-04-18T09:45:35Z</time>
      </trkpt>
      <trkpt lat="37.2982190" lon="-2.4808040">
        <ele>1378.8</ele>
        <time>2021-04-18T09:45:36Z</time>
      </trkpt>
      <trkpt lat="37.2982220" lon="-2.4807670">
        <ele>1379.0</ele>
        <time>2021-04-18T09:45:37Z</time>
      </trkpt>
      <trkpt lat="37.2982220" lon="-2.4807320">
        <ele>1379.0</ele>
        <time>2021-04-18T09:45:38Z</time>
      </trkpt>
      <trkpt lat="37.2982220" lon="-2.4806950">
        <ele>1379.0</ele>
        <time>2021-04-18T09:45:39Z</time>
      </trkpt>
      <trkpt lat="37.2982180" lon="-2.4806630">
        <ele>1379.0</ele>
        <time>2021-04-18T09:45:40Z</time>
      </trkpt>
      <trkpt lat="37.2982130" lon="-2.4806280">
        <ele>1379.0</ele>
        <time>2021-04-18T09:45:41Z</time>
      </trkpt>
      <trkpt lat="37.2982100" lon="-2.4805900">
        <ele>1378.8</ele>
        <time>2021-04-18T09:45:42Z</time>
      </trkpt>
      <trkpt lat="37.2982040" lon="-2.4805600">
        <ele>1378.8</ele>
        <time>2021-04-18T09:45:43Z</time>
      </trkpt>
      <trkpt lat="37.2981930" lon="-2.4805290">
        <ele>1379.0</ele>
        <time>2021-04-18T09:45:44Z</time>
      </trkpt>
      <trkpt lat="37.2981820" lon="-2.4804940">
        <ele>1379.0</ele>
        <time>2021-04-18T09:45:45Z</time>
      </trkpt>
      <trkpt lat="37.2981740" lon="-2.4804610">
        <ele>1379.4</ele>
        <time>2021-04-18T09:45:46Z</time>
      </trkpt>
      <trkpt lat="37.2981650" lon="-2.4804290">
        <ele>1379.6</ele>
        <time>2021-04-18T09:45:47Z</time>
      </trkpt>
      <trkpt lat="37.2980900" lon="-2.4802860">
        <ele>1380.2</ele>
        <time>2021-04-18T09:45:51Z</time>
      </trkpt>
      <trkpt lat="37.2980690" lon="-2.4802500">
        <ele>1380.4</ele>
        <time>2021-04-18T09:45:52Z</time>
      </trkpt>
      <trkpt lat="37.2980510" lon="-2.4802160">
        <ele>1380.4</ele>
        <time>2021-04-18T09:45:53Z</time>
      </trkpt>
      <trkpt lat="37.2980300" lon="-2.4801830">
        <ele>1380.6</ele>
        <time>2021-04-18T09:45:54Z</time>
      </trkpt>
      <trkpt lat="37.2980080" lon="-2.4801550">
        <ele>1380.6</ele>
        <time>2021-04-18T09:45:55Z</time>
      </trkpt>
      <trkpt lat="37.2979810" lon="-2.4801250">
        <ele>1380.8</ele>
        <time>2021-04-18T09:45:56Z</time>
      </trkpt>
      <trkpt lat="37.2979580" lon="-2.4800940">
        <ele>1380.8</ele>
        <time>2021-04-18T09:45:57Z</time>
      </trkpt>
      <trkpt lat="37.2979380" lon="-2.4800610">
        <ele>1380.8</ele>
        <time>2021-04-18T09:45:58Z</time>
      </trkpt>
      <trkpt lat="37.2979210" lon="-2.4800330">
        <ele>1381.0</ele>
        <time>2021-04-18T09:45:59Z</time>
      </trkpt>
      <trkpt lat="37.2979060" lon="-2.4800080">
        <ele>1381.0</ele>
        <time>2021-04-18T09:46:00Z</time>
      </trkpt>
      <trkpt lat="37.2978870" lon="-2.4799830">
        <ele>1381.2</ele>
        <time>2021-04-18T09:46:01Z</time>
      </trkpt>
      <trkpt lat="37.2978710" lon="-2.4799580">
        <ele>1381.2</ele>
        <time>2021-04-18T09:46:02Z</time>
      </trkpt>
      <trkpt lat="37.2978590" lon="-2.4799300">
        <ele>1381.4</ele>
        <time>2021-04-18T09:46:03Z</time>
      </trkpt>
      <trkpt lat="37.2978420" lon="-2.4799030">
        <ele>1381.4</ele>
        <time>2021-04-18T09:46:04Z</time>
      </trkpt>
      <trkpt lat="37.2978180" lon="-2.4798730">
        <ele>1381.6</ele>
        <time>2021-04-18T09:46:05Z</time>
      </trkpt>
      <trkpt lat="37.2977870" lon="-2.4798420">
        <ele>1381.6</ele>
        <time>2021-04-18T09:46:06Z</time>
      </trkpt>
      <trkpt lat="37.2977650" lon="-2.4798110">
        <ele>1381.6</ele>
        <time>2021-04-18T09:46:07Z</time>
      </trkpt>
      <trkpt lat="37.2977440" lon="-2.4797800">
        <ele>1381.8</ele>
        <time>2021-04-18T09:46:08Z</time>
      </trkpt>
      <trkpt lat="37.2977200" lon="-2.4797450">
        <ele>1381.8</ele>
        <time>2021-04-18T09:46:09Z</time>
      </trkpt>
      <trkpt lat="37.2976990" lon="-2.4797070">
        <ele>1382.0</ele>
        <time>2021-04-18T09:46:10Z</time>
      </trkpt>
      <trkpt lat="37.2976780" lon="-2.4796680">
        <ele>1382.2</ele>
        <time>2021-04-18T09:46:11Z</time>
      </trkpt>
      <trkpt lat="37.2976510" lon="-2.4796280">
        <ele>1382.2</ele>
        <time>2021-04-18T09:46:12Z</time>
      </trkpt>
      <trkpt lat="37.2976240" lon="-2.4795890">
        <ele>1382.4</ele>
        <time>2021-04-18T09:46:13Z</time>
      </trkpt>
      <trkpt lat="37.2976010" lon="-2.4795470">
        <ele>1382.4</ele>
        <time>2021-04-18T09:46:14Z</time>
      </trkpt>
      <trkpt lat="37.2975780" lon="-2.4795030">
        <ele>1382.4</ele>
        <time>2021-04-18T09:46:15Z</time>
      </trkpt>
      <trkpt lat="37.2975600" lon="-2.4794610">
        <ele>1382.4</ele>
        <time>2021-04-18T09:46:16Z</time>
      </trkpt>
      <trkpt lat="37.2975410" lon="-2.4794270">
        <ele>1382.6</ele>
        <time>2021-04-18T09:46:17Z</time>
      </trkpt>
      <trkpt lat="37.2974950" lon="-2.4793500">
        <ele>1382.6</ele>
        <time>2021-04-18T09:46:19Z</time>
      </trkpt>
      <trkpt lat="37.2974150" lon="-2.4791750">
        <ele>1382.6</ele>
        <time>2021-04-18T09:46:23Z</time>
      </trkpt>
      <trkpt lat="37.2973160" lon="-2.4789970">
        <ele>1382.6</ele>
        <time>2021-04-18T09:46:27Z</time>
      </trkpt>
      <trkpt lat="37.2972390" lon="-2.4788930">
        <ele>1382.6</ele>
        <time>2021-04-18T09:46:30Z</time>
      </trkpt>
      <trkpt lat="37.2972130" lon="-2.4788650">
        <ele>1382.6</ele>
        <time>2021-04-18T09:46:31Z</time>
      </trkpt>
      <trkpt lat="37.2971890" lon="-2.4788360">
        <ele>1382.6</ele>
        <time>2021-04-18T09:46:32Z</time>
      </trkpt>
      <trkpt lat="37.2971510" lon="-2.4788110">
        <ele>1382.6</ele>
        <time>2021-04-18T09:46:33Z</time>
      </trkpt>
      <trkpt lat="37.2971160" lon="-2.4787890">
        <ele>1382.6</ele>
        <time>2021-04-18T09:46:34Z</time>
      </trkpt>
      <trkpt lat="37.2970800" lon="-2.4787670">
        <ele>1382.6</ele>
        <time>2021-04-18T09:46:35Z</time>
      </trkpt>
      <trkpt lat="37.2970430" lon="-2.4787340">
        <ele>1382.6</ele>
        <time>2021-04-18T09:46:36Z</time>
      </trkpt>
      <trkpt lat="37.2968480" lon="-2.4785540">
        <ele>1382.8</ele>
        <time>2021-04-18T09:46:42Z</time>
      </trkpt>
      <trkpt lat="37.2967820" lon="-2.4784760">
        <ele>1382.8</ele>
        <time>2021-04-18T09:46:44Z</time>
      </trkpt>
      <trkpt lat="37.2966560" lon="-2.4783470">
        <ele>1382.4</ele>
        <time>2021-04-18T09:46:48Z</time>
      </trkpt>
      <trkpt lat="37.2965520" lon="-2.4781900">
        <ele>1382.4</ele>
        <time>2021-04-18T09:46:52Z</time>
      </trkpt>
      <trkpt lat="37.2965310" lon="-2.4781360">
        <ele>1382.2</ele>
        <time>2021-04-18T09:46:53Z</time>
      </trkpt>
      <trkpt lat="37.2964980" lon="-2.4780230">
        <ele>1382.2</ele>
        <time>2021-04-18T09:46:55Z</time>
      </trkpt>
      <trkpt lat="37.2965020" lon="-2.4779600">
        <ele>1382.2</ele>
        <time>2021-04-18T09:46:56Z</time>
      </trkpt>
      <trkpt lat="37.2965130" lon="-2.4778970">
        <ele>1382.2</ele>
        <time>2021-04-18T09:46:57Z</time>
      </trkpt>
      <trkpt lat="37.2965300" lon="-2.4778430">
        <ele>1382.2</ele>
        <time>2021-04-18T09:46:58Z</time>
      </trkpt>
      <trkpt lat="37.2965530" lon="-2.4777930">
        <ele>1382.2</ele>
        <time>2021-04-18T09:46:59Z</time>
      </trkpt>
      <trkpt lat="37.2965900" lon="-2.4777630">
        <ele>1382.2</ele>
        <time>2021-04-18T09:47:00Z</time>
      </trkpt>
      <trkpt lat="37.2966290" lon="-2.4777410">
        <ele>1382.4</ele>
        <time>2021-04-18T09:47:01Z</time>
      </trkpt>
      <trkpt lat="37.2966660" lon="-2.4777130">
        <ele>1382.4</ele>
        <time>2021-04-18T09:47:02Z</time>
      </trkpt>
      <trkpt lat="37.2967030" lon="-2.4776950">
        <ele>1382.4</ele>
        <time>2021-04-18T09:47:03Z</time>
      </trkpt>
      <trkpt lat="37.2967350" lon="-2.4776870">
        <ele>1382.4</ele>
        <time>2021-04-18T09:47:04Z</time>
      </trkpt>
      <trkpt lat="37.2967650" lon="-2.4776910">
        <ele>1382.4</ele>
        <time>2021-04-18T09:47:05Z</time>
      </trkpt>
      <trkpt lat="37.2967940" lon="-2.4776900">
        <ele>1382.2</ele>
        <time>2021-04-18T09:47:06Z</time>
      </trkpt>
      <trkpt lat="37.2968300" lon="-2.4776980">
        <ele>1382.2</ele>
        <time>2021-04-18T09:47:07Z</time>
      </trkpt>
      <trkpt lat="37.2969780" lon="-2.4777560">
        <ele>1382.2</ele>
        <time>2021-04-18T09:47:10Z</time>
      </trkpt>
      <trkpt lat="37.2970840" lon="-2.4778020">
        <ele>1382.4</ele>
        <time>2021-04-18T09:47:12Z</time>
      </trkpt>
      <trkpt lat="37.2971350" lon="-2.4778260">
        <ele>1382.4</ele>
        <time>2021-04-18T09:47:13Z</time>
      </trkpt>
      <trkpt lat="37.2971850" lon="-2.4778420">
        <ele>1382.8</ele>
        <time>2021-04-18T09:47:14Z</time>
      </trkpt>
      <trkpt lat="37.2973310" lon="-2.4779150">
        <ele>1383.2</ele>
        <time>2021-04-18T09:47:17Z</time>
      </trkpt>
      <trkpt lat="37.2973780" lon="-2.4779410">
        <ele>1383.4</ele>
        <time>2021-04-18T09:47:18Z</time>
      </trkpt>
      <trkpt lat="37.2974220" lon="-2.4779750">
        <ele>1383.4</ele>
        <time>2021-04-18T09:47:19Z</time>
      </trkpt>
      <trkpt lat="37.2975100" lon="-2.4780410">
        <ele>1383.6</ele>
        <time>2021-04-18T09:47:21Z</time>
      </trkpt>
      <trkpt lat="37.2975930" lon="-2.4781160">
        <ele>1383.8</ele>
        <time>2021-04-18T09:47:23Z</time>
      </trkpt>
      <trkpt lat="37.2978080" lon="-2.4783250">
        <ele>1384.0</ele>
        <time>2021-04-18T09:47:29Z</time>
      </trkpt>
      <trkpt lat="37.2978790" lon="-2.4783990">
        <ele>1384.0</ele>
        <time>2021-04-18T09:47:31Z</time>
      </trkpt>
      <trkpt lat="37.2981140" lon="-2.4786540">
        <ele>1384.4</ele>
        <time>2021-04-18T09:47:38Z</time>
      </trkpt>
      <trkpt lat="37.2981450" lon="-2.4786920">
        <ele>1384.4</ele>
        <time>2021-04-18T09:47:39Z</time>
      </trkpt>
      <trkpt lat="37.2982070" lon="-2.4787650">
        <ele>1384.6</ele>
        <time>2021-04-18T09:47:41Z</time>
      </trkpt>
      <trkpt lat="37.2982400" lon="-2.4788000">
        <ele>1384.6</ele>
        <time>2021-04-18T09:47:42Z</time>
      </trkpt>
      <trkpt lat="37.2982740" lon="-2.4788340">
        <ele>1384.8</ele>
        <time>2021-04-18T09:47:43Z</time>
      </trkpt>
      <trkpt lat="37.2983090" lon="-2.4788640">
        <ele>1384.8</ele>
        <time>2021-04-18T09:47:44Z</time>
      </trkpt>
      <trkpt lat="37.2984450" lon="-2.4789840">
        <ele>1384.8</ele>
        <time>2021-04-18T09:47:48Z</time>
      </trkpt>
      <trkpt lat="37.2984810" lon="-2.4790070">
        <ele>1384.8</ele>
        <time>2021-04-18T09:47:49Z</time>
      </trkpt>
      <trkpt lat="37.2985190" lon="-2.4790290">
        <ele>1384.8</ele>
        <time>2021-04-18T09:47:50Z</time>
      </trkpt>
      <trkpt lat="37.2985610" lon="-2.4790480">
        <ele>1384.8</ele>
        <time>2021-04-18T09:47:51Z</time>
      </trkpt>
      <trkpt lat="37.2986500" lon="-2.4790610">
        <ele>1384.8</ele>
        <time>2021-04-18T09:47:53Z</time>
      </trkpt>
      <trkpt lat="37.2986940" lon="-2.4790560">
        <ele>1384.8</ele>
        <time>2021-04-18T09:47:54Z</time>
      </trkpt>
      <trkpt lat="37.2987390" lon="-2.4790480">
        <ele>1384.8</ele>
        <time>2021-04-18T09:47:55Z</time>
      </trkpt>
      <trkpt lat="37.2988260" lon="-2.4790070">
        <ele>1384.8</ele>
        <time>2021-04-18T09:47:57Z</time>
      </trkpt>
      <trkpt lat="37.2989000" lon="-2.4789350">
        <ele>1384.8</ele>
        <time>2021-04-18T09:47:59Z</time>
      </trkpt>
      <trkpt lat="37.2989270" lon="-2.4788870">
        <ele>1384.8</ele>
        <time>2021-04-18T09:48:00Z</time>
      </trkpt>
      <trkpt lat="37.2989440" lon="-2.4788300">
        <ele>1384.8</ele>
        <time>2021-04-18T09:48:01Z</time>
      </trkpt>
      <trkpt lat="37.2989510" lon="-2.4787710">
        <ele>1384.8</ele>
        <time>2021-04-18T09:48:02Z</time>
      </trkpt>
      <trkpt lat="37.2989480" lon="-2.4787110">
        <ele>1384.8</ele>
        <time>2021-04-18T09:48:03Z</time>
      </trkpt>
      <trkpt lat="37.2989430" lon="-2.4786520">
        <ele>1384.8</ele>
        <time>2021-04-18T09:48:04Z</time>
      </trkpt>
      <trkpt lat="37.2989330" lon="-2.4785910">
        <ele>1384.8</ele>
        <time>2021-04-18T09:48:05Z</time>
      </trkpt>
      <trkpt lat="37.2989010" lon="-2.4784650">
        <ele>1384.8</ele>
        <time>2021-04-18T09:48:07Z</time>
      </trkpt>
      <trkpt lat="37.2988740" lon="-2.4783380">
        <ele>1384.8</ele>
        <time>2021-04-18T09:48:09Z</time>
      </trkpt>
      <trkpt lat="37.2988660" lon="-2.4781560">
        <ele>1384.8</ele>
        <time>2021-04-18T09:48:12Z</time>
      </trkpt>
      <trkpt lat="37.2988740" lon="-2.4780740">
        <ele>1384.8</ele>
        <time>2021-04-18T09:48:13Z</time>
      </trkpt>
      <trkpt lat="37.2989150" lon="-2.4778890">
        <ele>1384.8</ele>
        <time>2021-04-18T09:48:16Z</time>
      </trkpt>
      <trkpt lat="37.2989400" lon="-2.4778120">
        <ele>1384.8</ele>
        <time>2021-04-18T09:48:17Z</time>
      </trkpt>
      <trkpt lat="37.2989580" lon="-2.4777480">
        <ele>1384.8</ele>
        <time>2021-04-18T09:48:18Z</time>
      </trkpt>
      <trkpt lat="37.2989810" lon="-2.4776870">
        <ele>1384.8</ele>
        <time>2021-04-18T09:48:19Z</time>
      </trkpt>
      <trkpt lat="37.2990120" lon="-2.4776300">
        <ele>1384.8</ele>
        <time>2021-04-18T09:48:20Z</time>
      </trkpt>
      <trkpt lat="37.2990430" lon="-2.4775890">
        <ele>1385.0</ele>
        <time>2021-04-18T09:48:21Z</time>
      </trkpt>
      <trkpt lat="37.2990970" lon="-2.4775350">
        <ele>1385.0</ele>
        <time>2021-04-18T09:48:22Z</time>
      </trkpt>
      <trkpt lat="37.2991450" lon="-2.4775010">
        <ele>1385.0</ele>
        <time>2021-04-18T09:48:23Z</time>
      </trkpt>
      <trkpt lat="37.2991970" lon="-2.4774800">
        <ele>1385.0</ele>
        <time>2021-04-18T09:48:24Z</time>
      </trkpt>
      <trkpt lat="37.2992410" lon="-2.4774720">
        <ele>1385.0</ele>
        <time>2021-04-18T09:48:25Z</time>
      </trkpt>
      <trkpt lat="37.2993100" lon="-2.4774770">
        <ele>1385.2</ele>
        <time>2021-04-18T09:48:26Z</time>
      </trkpt>
      <trkpt lat="37.2993630" lon="-2.4774890">
        <ele>1385.2</ele>
        <time>2021-04-18T09:48:27Z</time>
      </trkpt>
      <trkpt lat="37.2994080" lon="-2.4775140">
        <ele>1385.2</ele>
        <time>2021-04-18T09:48:28Z</time>
      </trkpt>
      <trkpt lat="37.2994450" lon="-2.4775460">
        <ele>1385.2</ele>
        <time>2021-04-18T09:48:29Z</time>
      </trkpt>
      <trkpt lat="37.2994770" lon="-2.4775850">
        <ele>1385.2</ele>
        <time>2021-04-18T09:48:30Z</time>
      </trkpt>
      <trkpt lat="37.2995020" lon="-2.4776250">
        <ele>1385.4</ele>
        <time>2021-04-18T09:48:31Z</time>
      </trkpt>
      <trkpt lat="37.2995220" lon="-2.4776610">
        <ele>1385.4</ele>
        <time>2021-04-18T09:48:32Z</time>
      </trkpt>
      <trkpt lat="37.2995390" lon="-2.4777000">
        <ele>1385.6</ele>
        <time>2021-04-18T09:48:33Z</time>
      </trkpt>
      <trkpt lat="37.2995520" lon="-2.4777400">
        <ele>1385.8</ele>
        <time>2021-04-18T09:48:34Z</time>
      </trkpt>
      <trkpt lat="37.2995700" lon="-2.4777800">
        <ele>1386.0</ele>
        <time>2021-04-18T09:48:35Z</time>
      </trkpt>
      <trkpt lat="37.2995890" lon="-2.4778170">
        <ele>1386.4</ele>
        <time>2021-04-18T09:48:36Z</time>
      </trkpt>
      <trkpt lat="37.2996110" lon="-2.4778500">
        <ele>1386.4</ele>
        <time>2021-04-18T09:48:37Z</time>
      </trkpt>
      <trkpt lat="37.2996340" lon="-2.4778820">
        <ele>1386.8</ele>
        <time>2021-04-18T09:48:38Z</time>
      </trkpt>
      <trkpt lat="37.2996550" lon="-2.4779170">
        <ele>1387.2</ele>
        <time>2021-04-18T09:48:39Z</time>
      </trkpt>
      <trkpt lat="37.2997410" lon="-2.4780120">
        <ele>1388.0</ele>
        <time>2021-04-18T09:48:42Z</time>
      </trkpt>
      <trkpt lat="37.2997930" lon="-2.4780590">
        <ele>1388.4</ele>
        <time>2021-04-18T09:48:44Z</time>
      </trkpt>
      <trkpt lat="37.2998300" lon="-2.4780830">
        <ele>1388.8</ele>
        <time>2021-04-18T09:48:45Z</time>
      </trkpt>
      <trkpt lat="37.2998620" lon="-2.4781010">
        <ele>1389.0</ele>
        <time>2021-04-18T09:48:46Z</time>
      </trkpt>
      <trkpt lat="37.2998930" lon="-2.4781180">
        <ele>1389.2</ele>
        <time>2021-04-18T09:48:47Z</time>
      </trkpt>
      <trkpt lat="37.2999150" lon="-2.4781340">
        <ele>1389.4</ele>
        <time>2021-04-18T09:48:48Z</time>
      </trkpt>
      <trkpt lat="37.2999470" lon="-2.4781550">
        <ele>1389.4</ele>
        <time>2021-04-18T09:48:49Z</time>
      </trkpt>
      <trkpt lat="37.2999770" lon="-2.4781730">
        <ele>1389.4</ele>
        <time>2021-04-18T09:48:50Z</time>
      </trkpt>
      <trkpt lat="37.3000060" lon="-2.4781910">
        <ele>1389.6</ele>
        <time>2021-04-18T09:48:51Z</time>
      </trkpt>
      <trkpt lat="37.3000370" lon="-2.4782120">
        <ele>1389.6</ele>
        <time>2021-04-18T09:48:52Z</time>
      </trkpt>
      <trkpt lat="37.3000620" lon="-2.4782280">
        <ele>1390.2</ele>
        <time>2021-04-18T09:48:53Z</time>
      </trkpt>
      <trkpt lat="37.3001000" lon="-2.4782450">
        <ele>1390.6</ele>
        <time>2021-04-18T09:48:54Z</time>
      </trkpt>
      <trkpt lat="37.3001330" lon="-2.4782580">
        <ele>1391.0</ele>
        <time>2021-04-18T09:48:55Z</time>
      </trkpt>
      <trkpt lat="37.3001660" lon="-2.4782740">
        <ele>1391.2</ele>
        <time>2021-04-18T09:48:56Z</time>
      </trkpt>
      <trkpt lat="37.3001980" lon="-2.4782910">
        <ele>1391.6</ele>
        <time>2021-04-18T09:48:57Z</time>
      </trkpt>
      <trkpt lat="37.3002210" lon="-2.4783070">
        <ele>1391.8</ele>
        <time>2021-04-18T09:48:58Z</time>
      </trkpt>
      <trkpt lat="37.3002590" lon="-2.4783280">
        <ele>1392.0</ele>
        <time>2021-04-18T09:48:59Z</time>
      </trkpt>
      <trkpt lat="37.3002860" lon="-2.4783400">
        <ele>1392.0</ele>
        <time>2021-04-18T09:49:00Z</time>
      </trkpt>
      <trkpt lat="37.3003180" lon="-2.4783560">
        <ele>1392.2</ele>
        <time>2021-04-18T09:49:01Z</time>
      </trkpt>
      <trkpt lat="37.3003470" lon="-2.4783750">
        <ele>1392.4</ele>
        <time>2021-04-18T09:49:02Z</time>
      </trkpt>
      <trkpt lat="37.3003780" lon="-2.4783950">
        <ele>1392.6</ele>
        <time>2021-04-18T09:49:03Z</time>
      </trkpt>
      <trkpt lat="37.3004090" lon="-2.4784100">
        <ele>1392.6</ele>
        <time>2021-04-18T09:49:04Z</time>
      </trkpt>
      <trkpt lat="37.3004400" lon="-2.4784240">
        <ele>1392.8</ele>
        <time>2021-04-18T09:49:05Z</time>
      </trkpt>
      <trkpt lat="37.3004700" lon="-2.4784360">
        <ele>1392.8</ele>
        <time>2021-04-18T09:49:06Z</time>
      </trkpt>
      <trkpt lat="37.3004960" lon="-2.4784440">
        <ele>1392.8</ele>
        <time>2021-04-18T09:49:07Z</time>
      </trkpt>
      <trkpt lat="37.3005270" lon="-2.4784500">
        <ele>1393.0</ele>
        <time>2021-04-18T09:49:08Z</time>
      </trkpt>
      <trkpt lat="37.3005580" lon="-2.4784530">
        <ele>1393.0</ele>
        <time>2021-04-18T09:49:09Z</time>
      </trkpt>
      <trkpt lat="37.3005900" lon="-2.4784550">
        <ele>1393.2</ele>
        <time>2021-04-18T09:49:10Z</time>
      </trkpt>
      <trkpt lat="37.3006230" lon="-2.4784590">
        <ele>1393.2</ele>
        <time>2021-04-18T09:49:11Z</time>
      </trkpt>
      <trkpt lat="37.3006630" lon="-2.4784630">
        <ele>1393.4</ele>
        <time>2021-04-18T09:49:12Z</time>
      </trkpt>
      <trkpt lat="37.3006900" lon="-2.4784640">
        <ele>1393.6</ele>
        <time>2021-04-18T09:49:13Z</time>
      </trkpt>
      <trkpt lat="37.3007280" lon="-2.4784660">
        <ele>1393.8</ele>
        <time>2021-04-18T09:49:14Z</time>
      </trkpt>
      <trkpt lat="37.3007600" lon="-2.4784660">
        <ele>1393.8</ele>
        <time>2021-04-18T09:49:15Z</time>
      </trkpt>
      <trkpt lat="37.3007850" lon="-2.4784650">
        <ele>1394.0</ele>
        <time>2021-04-18T09:49:16Z</time>
      </trkpt>
      <trkpt lat="37.3008180" lon="-2.4784640">
        <ele>1394.0</ele>
        <time>2021-04-18T09:49:17Z</time>
      </trkpt>
      <trkpt lat="37.3008460" lon="-2.4784610">
        <ele>1394.2</ele>
        <time>2021-04-18T09:49:18Z</time>
      </trkpt>
      <trkpt lat="37.3008690" lon="-2.4784580">
        <ele>1394.2</ele>
        <time>2021-04-18T09:49:19Z</time>
      </trkpt>
      <trkpt lat="37.3008960" lon="-2.4784560">
        <ele>1394.2</ele>
        <time>2021-04-18T09:49:20Z</time>
      </trkpt>
      <trkpt lat="37.3009190" lon="-2.4784530">
        <ele>1394.4</ele>
        <time>2021-04-18T09:49:21Z</time>
      </trkpt>
      <trkpt lat="37.3009430" lon="-2.4784520">
        <ele>1394.4</ele>
        <time>2021-04-18T09:49:22Z</time>
      </trkpt>
      <trkpt lat="37.3009700" lon="-2.4784520">
        <ele>1394.4</ele>
        <time>2021-04-18T09:49:23Z</time>
      </trkpt>
      <trkpt lat="37.3009900" lon="-2.4784520">
        <ele>1394.8</ele>
        <time>2021-04-18T09:49:24Z</time>
      </trkpt>
      <trkpt lat="37.3010150" lon="-2.4784500">
        <ele>1394.8</ele>
        <time>2021-04-18T09:49:25Z</time>
      </trkpt>
      <trkpt lat="37.3010450" lon="-2.4784440">
        <ele>1394.8</ele>
        <time>2021-04-18T09:49:26Z</time>
      </trkpt>
      <trkpt lat="37.3010640" lon="-2.4784410">
        <ele>1395.0</ele>
        <time>2021-04-18T09:49:27Z</time>
      </trkpt>
      <trkpt lat="37.3010900" lon="-2.4784400">
        <ele>1395.2</ele>
        <time>2021-04-18T09:49:28Z</time>
      </trkpt>
      <trkpt lat="37.3011190" lon="-2.4784390">
        <ele>1395.4</ele>
        <time>2021-04-18T09:49:29Z</time>
      </trkpt>
      <trkpt lat="37.3011510" lon="-2.4784370">
        <ele>1395.6</ele>
        <time>2021-04-18T09:49:30Z</time>
      </trkpt>
      <trkpt lat="37.3011750" lon="-2.4784370">
        <ele>1395.6</ele>
        <time>2021-04-18T09:49:31Z</time>
      </trkpt>
      <trkpt lat="37.3012000" lon="-2.4784400">
        <ele>1395.8</ele>
        <time>2021-04-18T09:49:32Z</time>
      </trkpt>
      <trkpt lat="37.3012270" lon="-2.4784410">
        <ele>1395.8</ele>
        <time>2021-04-18T09:49:33Z</time>
      </trkpt>
      <trkpt lat="37.3012550" lon="-2.4784410">
        <ele>1396.2</ele>
        <time>2021-04-18T09:49:34Z</time>
      </trkpt>
      <trkpt lat="37.3012840" lon="-2.4784450">
        <ele>1396.4</ele>
        <time>2021-04-18T09:49:35Z</time>
      </trkpt>
      <trkpt lat="37.3013130" lon="-2.4784470">
        <ele>1396.6</ele>
        <time>2021-04-18T09:49:36Z</time>
      </trkpt>
      <trkpt lat="37.3013430" lon="-2.4784440">
        <ele>1396.8</ele>
        <time>2021-04-18T09:49:37Z</time>
      </trkpt>
      <trkpt lat="37.3013720" lon="-2.4784430">
        <ele>1397.0</ele>
        <time>2021-04-18T09:49:38Z</time>
      </trkpt>
      <trkpt lat="37.3013940" lon="-2.4784400">
        <ele>1397.2</ele>
        <time>2021-04-18T09:49:39Z</time>
      </trkpt>
      <trkpt lat="37.3014170" lon="-2.4784390">
        <ele>1397.4</ele>
        <time>2021-04-18T09:49:40Z</time>
      </trkpt>
      <trkpt lat="37.3014430" lon="-2.4784340">
        <ele>1397.8</ele>
        <time>2021-04-18T09:49:41Z</time>
      </trkpt>
      <trkpt lat="37.3014720" lon="-2.4784250">
        <ele>1398.0</ele>
        <time>2021-04-18T09:49:42Z</time>
      </trkpt>
      <trkpt lat="37.3015010" lon="-2.4784140">
        <ele>1398.2</ele>
        <time>2021-04-18T09:49:43Z</time>
      </trkpt>
      <trkpt lat="37.3015290" lon="-2.4784020">
        <ele>1398.4</ele>
        <time>2021-04-18T09:49:44Z</time>
      </trkpt>
      <trkpt lat="37.3015630" lon="-2.4783870">
        <ele>1398.6</ele>
        <time>2021-04-18T09:49:45Z</time>
      </trkpt>
      <trkpt lat="37.3015900" lon="-2.4783700">
        <ele>1399.0</ele>
        <time>2021-04-18T09:49:46Z</time>
      </trkpt>
      <trkpt lat="37.3016160" lon="-2.4783510">
        <ele>1399.2</ele>
        <time>2021-04-18T09:49:47Z</time>
      </trkpt>
      <trkpt lat="37.3016370" lon="-2.4783320">
        <ele>1399.4</ele>
        <time>2021-04-18T09:49:48Z</time>
      </trkpt>
      <trkpt lat="37.3016620" lon="-2.4783010">
        <ele>1399.6</ele>
        <time>2021-04-18T09:49:49Z</time>
      </trkpt>
      <trkpt lat="37.3016800" lon="-2.4782770">
        <ele>1399.8</ele>
        <time>2021-04-18T09:49:50Z</time>
      </trkpt>
      <trkpt lat="37.3017080" lon="-2.4782420">
        <ele>1400.0</ele>
        <time>2021-04-18T09:49:51Z</time>
      </trkpt>
      <trkpt lat="37.3017260" lon="-2.4782190">
        <ele>1400.2</ele>
        <time>2021-04-18T09:49:52Z</time>
      </trkpt>
      <trkpt lat="37.3017460" lon="-2.4781860">
        <ele>1400.2</ele>
        <time>2021-04-18T09:49:53Z</time>
      </trkpt>
      <trkpt lat="37.3017700" lon="-2.4781490">
        <ele>1400.4</ele>
        <time>2021-04-18T09:49:54Z</time>
      </trkpt>
      <trkpt lat="37.3017910" lon="-2.4781180">
        <ele>1400.6</ele>
        <time>2021-04-18T09:49:55Z</time>
      </trkpt>
      <trkpt lat="37.3018110" lon="-2.4780870">
        <ele>1400.6</ele>
        <time>2021-04-18T09:49:56Z</time>
      </trkpt>
      <trkpt lat="37.3018260" lon="-2.4780620">
        <ele>1400.8</ele>
        <time>2021-04-18T09:49:57Z</time>
      </trkpt>
      <trkpt lat="37.3018440" lon="-2.4780330">
        <ele>1400.8</ele>
        <time>2021-04-18T09:49:58Z</time>
      </trkpt>
      <trkpt lat="37.3018670" lon="-2.4779960">
        <ele>1401.0</ele>
        <time>2021-04-18T09:49:59Z</time>
      </trkpt>
      <trkpt lat="37.3018850" lon="-2.4779670">
        <ele>1401.0</ele>
        <time>2021-04-18T09:50:00Z</time>
      </trkpt>
      <trkpt lat="37.3019030" lon="-2.4779400">
        <ele>1401.0</ele>
        <time>2021-04-18T09:50:01Z</time>
      </trkpt>
      <trkpt lat="37.3019190" lon="-2.4779200">
        <ele>1401.0</ele>
        <time>2021-04-18T09:50:02Z</time>
      </trkpt>
      <trkpt lat="37.3019420" lon="-2.4778920">
        <ele>1401.0</ele>
        <time>2021-04-18T09:50:03Z</time>
      </trkpt>
      <trkpt lat="37.3019580" lon="-2.4778680">
        <ele>1401.0</ele>
        <time>2021-04-18T09:50:04Z</time>
      </trkpt>
      <trkpt lat="37.3019790" lon="-2.4778480">
        <ele>1401.0</ele>
        <time>2021-04-18T09:50:05Z</time>
      </trkpt>
      <trkpt lat="37.3020040" lon="-2.4778310">
        <ele>1401.0</ele>
        <time>2021-04-18T09:50:06Z</time>
      </trkpt>
      <trkpt lat="37.3020250" lon="-2.4778190">
        <ele>1401.0</ele>
        <time>2021-04-18T09:50:07Z</time>
      </trkpt>
      <trkpt lat="37.3020540" lon="-2.4777950">
        <ele>1401.0</ele>
        <time>2021-04-18T09:50:08Z</time>
      </trkpt>
      <trkpt lat="37.3020760" lon="-2.4777760">
        <ele>1401.2</ele>
        <time>2021-04-18T09:50:09Z</time>
      </trkpt>
      <trkpt lat="37.3021000" lon="-2.4777640">
        <ele>1401.2</ele>
        <time>2021-04-18T09:50:10Z</time>
      </trkpt>
      <trkpt lat="37.3021210" lon="-2.4777550">
        <ele>1401.2</ele>
        <time>2021-04-18T09:50:11Z</time>
      </trkpt>
      <trkpt lat="37.3021550" lon="-2.4777470">
        <ele>1401.2</ele>
        <time>2021-04-18T09:50:12Z</time>
      </trkpt>
      <trkpt lat="37.3021830" lon="-2.4777430">
        <ele>1401.4</ele>
        <time>2021-04-18T09:50:13Z</time>
      </trkpt>
      <trkpt lat="37.3022090" lon="-2.4777370">
        <ele>1401.4</ele>
        <time>2021-04-18T09:50:14Z</time>
      </trkpt>
      <trkpt lat="37.3022920" lon="-2.4777240">
        <ele>1402.2</ele>
        <time>2021-04-18T09:50:17Z</time>
      </trkpt>
      <trkpt lat="37.3023180" lon="-2.4777180">
        <ele>1402.4</ele>
        <time>2021-04-18T09:50:18Z</time>
      </trkpt>
      <trkpt lat="37.3023450" lon="-2.4777150">
        <ele>1402.6</ele>
        <time>2021-04-18T09:50:19Z</time>
      </trkpt>
      <trkpt lat="37.3023650" lon="-2.4777130">
        <ele>1402.6</ele>
        <time>2021-04-18T09:50:20Z</time>
      </trkpt>
      <trkpt lat="37.3024230" lon="-2.4776990">
        <ele>1403.0</ele>
        <time>2021-04-18T09:50:22Z</time>
      </trkpt>
      <trkpt lat="37.3024500" lon="-2.4776930">
        <ele>1403.0</ele>
        <time>2021-04-18T09:50:23Z</time>
      </trkpt>
      <trkpt lat="37.3024710" lon="-2.4776880">
        <ele>1403.2</ele>
        <time>2021-04-18T09:50:24Z</time>
      </trkpt>
      <trkpt lat="37.3024960" lon="-2.4776790">
        <ele>1403.2</ele>
        <time>2021-04-18T09:50:25Z</time>
      </trkpt>
      <trkpt lat="37.3025260" lon="-2.4776640">
        <ele>1403.4</ele>
        <time>2021-04-18T09:50:26Z</time>
      </trkpt>
      <trkpt lat="37.3025530" lon="-2.4776540">
        <ele>1403.6</ele>
        <time>2021-04-18T09:50:27Z</time>
      </trkpt>
      <trkpt lat="37.3025740" lon="-2.4776470">
        <ele>1403.8</ele>
        <time>2021-04-18T09:50:28Z</time>
      </trkpt>
      <trkpt lat="37.3025990" lon="-2.4776360">
        <ele>1404.0</ele>
        <time>2021-04-18T09:50:29Z</time>
      </trkpt>
      <trkpt lat="37.3026240" lon="-2.4776230">
        <ele>1404.2</ele>
        <time>2021-04-18T09:50:30Z</time>
      </trkpt>
      <trkpt lat="37.3026490" lon="-2.4776080">
        <ele>1404.4</ele>
        <time>2021-04-18T09:50:31Z</time>
      </trkpt>
      <trkpt lat="37.3026780" lon="-2.4775890">
        <ele>1404.6</ele>
        <time>2021-04-18T09:50:32Z</time>
      </trkpt>
      <trkpt lat="37.3027040" lon="-2.4775720">
        <ele>1404.8</ele>
        <time>2021-04-18T09:50:33Z</time>
      </trkpt>
      <trkpt lat="37.3027230" lon="-2.4775580">
        <ele>1404.8</ele>
        <time>2021-04-18T09:50:34Z</time>
      </trkpt>
      <trkpt lat="37.3027460" lon="-2.4775390">
        <ele>1405.0</ele>
        <time>2021-04-18T09:50:35Z</time>
      </trkpt>
      <trkpt lat="37.3027710" lon="-2.4775120">
        <ele>1405.2</ele>
        <time>2021-04-18T09:50:36Z</time>
      </trkpt>
      <trkpt lat="37.3027870" lon="-2.4774900">
        <ele>1405.4</ele>
        <time>2021-04-18T09:50:37Z</time>
      </trkpt>
      <trkpt lat="37.3028080" lon="-2.4774590">
        <ele>1405.8</ele>
        <time>2021-04-18T09:50:38Z</time>
      </trkpt>
      <trkpt lat="37.3028290" lon="-2.4774280">
        <ele>1406.0</ele>
        <time>2021-04-18T09:50:39Z</time>
      </trkpt>
      <trkpt lat="37.3028530" lon="-2.4773860">
        <ele>1406.2</ele>
        <time>2021-04-18T09:50:40Z</time>
      </trkpt>
      <trkpt lat="37.3028660" lon="-2.4773580">
        <ele>1406.6</ele>
        <time>2021-04-18T09:50:41Z</time>
      </trkpt>
      <trkpt lat="37.3028830" lon="-2.4773140">
        <ele>1406.8</ele>
        <time>2021-04-18T09:50:42Z</time>
      </trkpt>
      <trkpt lat="37.3028920" lon="-2.4772840">
        <ele>1407.0</ele>
        <time>2021-04-18T09:50:43Z</time>
      </trkpt>
      <trkpt lat="37.3029000" lon="-2.4772430">
        <ele>1407.2</ele>
        <time>2021-04-18T09:50:44Z</time>
      </trkpt>
      <trkpt lat="37.3029060" lon="-2.4771940">
        <ele>1407.4</ele>
        <time>2021-04-18T09:50:45Z</time>
      </trkpt>
      <trkpt lat="37.3029090" lon="-2.4771520">
        <ele>1407.6</ele>
        <time>2021-04-18T09:50:46Z</time>
      </trkpt>
      <trkpt lat="37.3029090" lon="-2.4771210">
        <ele>1407.8</ele>
        <time>2021-04-18T09:50:47Z</time>
      </trkpt>
      <trkpt lat="37.3029070" lon="-2.4770800">
        <ele>1407.8</ele>
        <time>2021-04-18T09:50:48Z</time>
      </trkpt>
      <trkpt lat="37.3029000" lon="-2.4770400">
        <ele>1407.8</ele>
        <time>2021-04-18T09:50:49Z</time>
      </trkpt>
      <trkpt lat="37.3028890" lon="-2.4770020">
        <ele>1408.0</ele>
        <time>2021-04-18T09:50:50Z</time>
      </trkpt>
      <trkpt lat="37.3028760" lon="-2.4769660">
        <ele>1408.0</ele>
        <time>2021-04-18T09:50:51Z</time>
      </trkpt>
      <trkpt lat="37.3028600" lon="-2.4769230">
        <ele>1408.2</ele>
        <time>2021-04-18T09:50:52Z</time>
      </trkpt>
      <trkpt lat="37.3028500" lon="-2.4768950">
        <ele>1408.2</ele>
        <time>2021-04-18T09:50:53Z</time>
      </trkpt>
      <trkpt lat="37.3028370" lon="-2.4768600">
        <ele>1408.4</ele>
        <time>2021-04-18T09:50:54Z</time>
      </trkpt>
      <trkpt lat="37.3028240" lon="-2.4768170">
        <ele>1408.6</ele>
        <time>2021-04-18T09:50:55Z</time>
      </trkpt>
      <trkpt lat="37.3028120" lon="-2.4767840">
        <ele>1408.6</ele>
        <time>2021-04-18T09:50:56Z</time>
      </trkpt>
      <trkpt lat="37.3028010" lon="-2.4767570">
        <ele>1408.8</ele>
        <time>2021-04-18T09:50:57Z</time>
      </trkpt>
      <trkpt lat="37.3027890" lon="-2.4767240">
        <ele>1408.8</ele>
        <time>2021-04-18T09:50:58Z</time>
      </trkpt>
      <trkpt lat="37.3027740" lon="-2.4766870">
        <ele>1409.0</ele>
        <time>2021-04-18T09:50:59Z</time>
      </trkpt>
      <trkpt lat="37.3027650" lon="-2.4766600">
        <ele>1409.0</ele>
        <time>2021-04-18T09:51:00Z</time>
      </trkpt>
      <trkpt lat="37.3027510" lon="-2.4766230">
        <ele>1409.2</ele>
        <time>2021-04-18T09:51:01Z</time>
      </trkpt>
      <trkpt lat="37.3027450" lon="-2.4765950">
        <ele>1409.4</ele>
        <time>2021-04-18T09:51:02Z</time>
      </trkpt>
      <trkpt lat="37.3027370" lon="-2.4765620">
        <ele>1409.4</ele>
        <time>2021-04-18T09:51:03Z</time>
      </trkpt>
      <trkpt lat="37.3027250" lon="-2.4765200">
        <ele>1409.6</ele>
        <time>2021-04-18T09:51:04Z</time>
      </trkpt>
      <trkpt lat="37.3027080" lon="-2.4764860">
        <ele>1409.8</ele>
        <time>2021-04-18T09:51:05Z</time>
      </trkpt>
      <trkpt lat="37.3026970" lon="-2.4764590">
        <ele>1409.8</ele>
        <time>2021-04-18T09:51:06Z</time>
      </trkpt>
      <trkpt lat="37.3026840" lon="-2.4764260">
        <ele>1410.2</ele>
        <time>2021-04-18T09:51:07Z</time>
      </trkpt>
      <trkpt lat="37.3026700" lon="-2.4763950">
        <ele>1410.4</ele>
        <time>2021-04-18T09:51:08Z</time>
      </trkpt>
      <trkpt lat="37.3026580" lon="-2.4763670">
        <ele>1410.6</ele>
        <time>2021-04-18T09:51:09Z</time>
      </trkpt>
      <trkpt lat="37.3026460" lon="-2.4763320">
        <ele>1410.8</ele>
        <time>2021-04-18T09:51:10Z</time>
      </trkpt>
      <trkpt lat="37.3026410" lon="-2.4763030">
        <ele>1411.0</ele>
        <time>2021-04-18T09:51:11Z</time>
      </trkpt>
      <trkpt lat="37.3026370" lon="-2.4762670">
        <ele>1411.2</ele>
        <time>2021-04-18T09:51:12Z</time>
      </trkpt>
      <trkpt lat="37.3026300" lon="-2.4762230">
        <ele>1411.4</ele>
        <time>2021-04-18T09:51:13Z</time>
      </trkpt>
      <trkpt lat="37.3026200" lon="-2.4761880">
        <ele>1411.6</ele>
        <time>2021-04-18T09:51:14Z</time>
      </trkpt>
      <trkpt lat="37.3026110" lon="-2.4761590">
        <ele>1411.8</ele>
        <time>2021-04-18T09:51:15Z</time>
      </trkpt>
      <trkpt lat="37.3026000" lon="-2.4761250">
        <ele>1412.0</ele>
        <time>2021-04-18T09:51:16Z</time>
      </trkpt>
      <trkpt lat="37.3025870" lon="-2.4760920">
        <ele>1412.2</ele>
        <time>2021-04-18T09:51:17Z</time>
      </trkpt>
      <trkpt lat="37.3025770" lon="-2.4760580">
        <ele>1412.6</ele>
        <time>2021-04-18T09:51:18Z</time>
      </trkpt>
      <trkpt lat="37.3025640" lon="-2.4760210">
        <ele>1412.8</ele>
        <time>2021-04-18T09:51:19Z</time>
      </trkpt>
      <trkpt lat="37.3025540" lon="-2.4759940">
        <ele>1413.0</ele>
        <time>2021-04-18T09:51:20Z</time>
      </trkpt>
      <trkpt lat="37.3025490" lon="-2.4759740">
        <ele>1413.2</ele>
        <time>2021-04-18T09:51:21Z</time>
      </trkpt>
      <trkpt lat="37.3025420" lon="-2.4759400">
        <ele>1413.2</ele>
        <time>2021-04-18T09:51:22Z</time>
      </trkpt>
      <trkpt lat="37.3025340" lon="-2.4759080">
        <ele>1413.4</ele>
        <time>2021-04-18T09:51:23Z</time>
      </trkpt>
      <trkpt lat="37.3025270" lon="-2.4758720">
        <ele>1413.6</ele>
        <time>2021-04-18T09:51:24Z</time>
      </trkpt>
      <trkpt lat="37.3025220" lon="-2.4758430">
        <ele>1413.8</ele>
        <time>2021-04-18T09:51:25Z</time>
      </trkpt>
      <trkpt lat="37.3025140" lon="-2.4758080">
        <ele>1414.0</ele>
        <time>2021-04-18T09:51:26Z</time>
      </trkpt>
      <trkpt lat="37.3025040" lon="-2.4757640">
        <ele>1414.2</ele>
        <time>2021-04-18T09:51:27Z</time>
      </trkpt>
      <trkpt lat="37.3024900" lon="-2.4757320">
        <ele>1414.4</ele>
        <time>2021-04-18T09:51:28Z</time>
      </trkpt>
      <trkpt lat="37.3024790" lon="-2.4757020">
        <ele>1414.6</ele>
        <time>2021-04-18T09:51:29Z</time>
      </trkpt>
      <trkpt lat="37.3024690" lon="-2.4756770">
        <ele>1415.0</ele>
        <time>2021-04-18T09:51:30Z</time>
      </trkpt>
      <trkpt lat="37.3024550" lon="-2.4756390">
        <ele>1415.2</ele>
        <time>2021-04-18T09:51:31Z</time>
      </trkpt>
      <trkpt lat="37.3024450" lon="-2.4756130">
        <ele>1415.2</ele>
        <time>2021-04-18T09:51:32Z</time>
      </trkpt>
      <trkpt lat="37.3024290" lon="-2.4755760">
        <ele>1415.6</ele>
        <time>2021-04-18T09:51:33Z</time>
      </trkpt>
      <trkpt lat="37.3024180" lon="-2.4755440">
        <ele>1415.8</ele>
        <time>2021-04-18T09:51:34Z</time>
      </trkpt>
      <trkpt lat="37.3024070" lon="-2.4755180">
        <ele>1416.2</ele>
        <time>2021-04-18T09:51:35Z</time>
      </trkpt>
      <trkpt lat="37.3023930" lon="-2.4754900">
        <ele>1416.6</ele>
        <time>2021-04-18T09:51:36Z</time>
      </trkpt>
      <trkpt lat="37.3023790" lon="-2.4754550">
        <ele>1416.8</ele>
        <time>2021-04-18T09:51:37Z</time>
      </trkpt>
      <trkpt lat="37.3023710" lon="-2.4754240">
        <ele>1417.0</ele>
        <time>2021-04-18T09:51:38Z</time>
      </trkpt>
      <trkpt lat="37.3023650" lon="-2.4753940">
        <ele>1417.2</ele>
        <time>2021-04-18T09:51:39Z</time>
      </trkpt>
      <trkpt lat="37.3023590" lon="-2.4753610">
        <ele>1417.6</ele>
        <time>2021-04-18T09:51:40Z</time>
      </trkpt>
      <trkpt lat="37.3023520" lon="-2.4753240">
        <ele>1417.8</ele>
        <time>2021-04-18T09:51:41Z</time>
      </trkpt>
      <trkpt lat="37.3023430" lon="-2.4752970">
        <ele>1418.0</ele>
        <time>2021-04-18T09:51:42Z</time>
      </trkpt>
      <trkpt lat="37.3023350" lon="-2.4752680">
        <ele>1418.2</ele>
        <time>2021-04-18T09:51:43Z</time>
      </trkpt>
      <trkpt lat="37.3023280" lon="-2.4752450">
        <ele>1418.2</ele>
        <time>2021-04-18T09:51:44Z</time>
      </trkpt>
      <trkpt lat="37.3023160" lon="-2.4752130">
        <ele>1418.6</ele>
        <time>2021-04-18T09:51:45Z</time>
      </trkpt>
      <trkpt lat="37.3023080" lon="-2.4751830">
        <ele>1418.8</ele>
        <time>2021-04-18T09:51:46Z</time>
      </trkpt>
      <trkpt lat="37.3022980" lon="-2.4751570">
        <ele>1419.0</ele>
        <time>2021-04-18T09:51:47Z</time>
      </trkpt>
      <trkpt lat="37.3022900" lon="-2.4751330">
        <ele>1419.4</ele>
        <time>2021-04-18T09:51:48Z</time>
      </trkpt>
      <trkpt lat="37.3022790" lon="-2.4750960">
        <ele>1419.4</ele>
        <time>2021-04-18T09:51:49Z</time>
      </trkpt>
      <trkpt lat="37.3022710" lon="-2.4750650">
        <ele>1419.8</ele>
        <time>2021-04-18T09:51:50Z</time>
      </trkpt>
      <trkpt lat="37.3022620" lon="-2.4750340">
        <ele>1420.0</ele>
        <time>2021-04-18T09:51:51Z</time>
      </trkpt>
      <trkpt lat="37.3022520" lon="-2.4750040">
        <ele>1420.2</ele>
        <time>2021-04-18T09:51:52Z</time>
      </trkpt>
      <trkpt lat="37.3022450" lon="-2.4749800">
        <ele>1420.4</ele>
        <time>2021-04-18T09:51:53Z</time>
      </trkpt>
      <trkpt lat="37.3022350" lon="-2.4749430">
        <ele>1420.6</ele>
        <time>2021-04-18T09:51:54Z</time>
      </trkpt>
      <trkpt lat="37.3022270" lon="-2.4749130">
        <ele>1420.8</ele>
        <time>2021-04-18T09:51:55Z</time>
      </trkpt>
      <trkpt lat="37.3022200" lon="-2.4748830">
        <ele>1420.8</ele>
        <time>2021-04-18T09:51:56Z</time>
      </trkpt>
      <trkpt lat="37.3022140" lon="-2.4748590">
        <ele>1421.0</ele>
        <time>2021-04-18T09:51:57Z</time>
      </trkpt>
      <trkpt lat="37.3021990" lon="-2.4748250">
        <ele>1421.0</ele>
        <time>2021-04-18T09:51:58Z</time>
      </trkpt>
      <trkpt lat="37.3021880" lon="-2.4748040">
        <ele>1421.0</ele>
        <time>2021-04-18T09:51:59Z</time>
      </trkpt>
      <trkpt lat="37.3021760" lon="-2.4747690">
        <ele>1421.2</ele>
        <time>2021-04-18T09:52:00Z</time>
      </trkpt>
      <trkpt lat="37.3021640" lon="-2.4747400">
        <ele>1421.2</ele>
        <time>2021-04-18T09:52:01Z</time>
      </trkpt>
      <trkpt lat="37.3021520" lon="-2.4747150">
        <ele>1421.4</ele>
        <time>2021-04-18T09:52:02Z</time>
      </trkpt>
      <trkpt lat="37.3021400" lon="-2.4746800">
        <ele>1421.4</ele>
        <time>2021-04-18T09:52:03Z</time>
      </trkpt>
      <trkpt lat="37.3021320" lon="-2.4746520">
        <ele>1421.6</ele>
        <time>2021-04-18T09:52:04Z</time>
      </trkpt>
      <trkpt lat="37.3021240" lon="-2.4746190">
        <ele>1421.6</ele>
        <time>2021-04-18T09:52:05Z</time>
      </trkpt>
      <trkpt lat="37.3021160" lon="-2.4745940">
        <ele>1421.8</ele>
        <time>2021-04-18T09:52:06Z</time>
      </trkpt>
      <trkpt lat="37.3021070" lon="-2.4745570">
        <ele>1421.8</ele>
        <time>2021-04-18T09:52:07Z</time>
      </trkpt>
      <trkpt lat="37.3020980" lon="-2.4745240">
        <ele>1421.8</ele>
        <time>2021-04-18T09:52:08Z</time>
      </trkpt>
      <trkpt lat="37.3020880" lon="-2.4744920">
        <ele>1422.2</ele>
        <time>2021-04-18T09:52:09Z</time>
      </trkpt>
      <trkpt lat="37.3020770" lon="-2.4744620">
        <ele>1422.2</ele>
        <time>2021-04-18T09:52:10Z</time>
      </trkpt>
      <trkpt lat="37.3020670" lon="-2.4744410">
        <ele>1422.4</ele>
        <time>2021-04-18T09:52:11Z</time>
      </trkpt>
      <trkpt lat="37.3020540" lon="-2.4744060">
        <ele>1422.4</ele>
        <time>2021-04-18T09:52:12Z</time>
      </trkpt>
      <trkpt lat="37.3020450" lon="-2.4743730">
        <ele>1422.6</ele>
        <time>2021-04-18T09:52:13Z</time>
      </trkpt>
      <trkpt lat="37.3020350" lon="-2.4743400">
        <ele>1422.6</ele>
        <time>2021-04-18T09:52:14Z</time>
      </trkpt>
      <trkpt lat="37.3020260" lon="-2.4743130">
        <ele>1422.6</ele>
        <time>2021-04-18T09:52:15Z</time>
      </trkpt>
      <trkpt lat="37.3020140" lon="-2.4742720">
        <ele>1423.2</ele>
        <time>2021-04-18T09:52:16Z</time>
      </trkpt>
      <trkpt lat="37.3020030" lon="-2.4742360">
        <ele>1423.0</ele>
        <time>2021-04-18T09:52:17Z</time>
      </trkpt>
      <trkpt lat="37.3019940" lon="-2.4742020">
        <ele>1423.2</ele>
        <time>2021-04-18T09:52:18Z</time>
      </trkpt>
      <trkpt lat="37.3019870" lon="-2.4741760">
        <ele>1423.4</ele>
        <time>2021-04-18T09:52:19Z</time>
      </trkpt>
      <trkpt lat="37.3019810" lon="-2.4741420">
        <ele>1423.4</ele>
        <time>2021-04-18T09:52:20Z</time>
      </trkpt>
      <trkpt lat="37.3019760" lon="-2.4741020">
        <ele>1423.6</ele>
        <time>2021-04-18T09:52:21Z</time>
      </trkpt>
      <trkpt lat="37.3019750" lon="-2.4740670">
        <ele>1423.6</ele>
        <time>2021-04-18T09:52:22Z</time>
      </trkpt>
      <trkpt lat="37.3019730" lon="-2.4740330">
        <ele>1423.8</ele>
        <time>2021-04-18T09:52:23Z</time>
      </trkpt>
      <trkpt lat="37.3019680" lon="-2.4740050">
        <ele>1424.0</ele>
        <time>2021-04-18T09:52:24Z</time>
      </trkpt>
      <trkpt lat="37.3019580" lon="-2.4739630">
        <ele>1424.0</ele>
        <time>2021-04-18T09:52:25Z</time>
      </trkpt>
      <trkpt lat="37.3019480" lon="-2.4739320">
        <ele>1424.2</ele>
        <time>2021-04-18T09:52:26Z</time>
      </trkpt>
      <trkpt lat="37.3019360" lon="-2.4738990">
        <ele>1424.2</ele>
        <time>2021-04-18T09:52:27Z</time>
      </trkpt>
      <trkpt lat="37.3019180" lon="-2.4738720">
        <ele>1424.4</ele>
        <time>2021-04-18T09:52:28Z</time>
      </trkpt>
      <trkpt lat="37.3018990" lon="-2.4738580">
        <ele>1424.4</ele>
        <time>2021-04-18T09:52:29Z</time>
      </trkpt>
      <trkpt lat="37.3018720" lon="-2.4738540">
        <ele>1424.6</ele>
        <time>2021-04-18T09:52:30Z</time>
      </trkpt>
      <trkpt lat="37.3018480" lon="-2.4738630">
        <ele>1424.8</ele>
        <time>2021-04-18T09:52:31Z</time>
      </trkpt>
      <trkpt lat="37.3018350" lon="-2.4738880">
        <ele>1424.8</ele>
        <time>2021-04-18T09:52:32Z</time>
      </trkpt>
      <trkpt lat="37.3018330" lon="-2.4739190">
        <ele>1425.2</ele>
        <time>2021-04-18T09:52:33Z</time>
      </trkpt>
      <trkpt lat="37.3018370" lon="-2.4739520">
        <ele>1425.2</ele>
        <time>2021-04-18T09:52:34Z</time>
      </trkpt>
      <trkpt lat="37.3018420" lon="-2.4739860">
        <ele>1425.8</ele>
        <time>2021-04-18T09:52:35Z</time>
      </trkpt>
      <trkpt lat="37.3018450" lon="-2.4740200">
        <ele>1426.0</ele>
        <time>2021-04-18T09:52:36Z</time>
      </trkpt>
      <trkpt lat="37.3018480" lon="-2.4740530">
        <ele>1426.2</ele>
        <time>2021-04-18T09:52:37Z</time>
      </trkpt>
      <trkpt lat="37.3018520" lon="-2.4740840">
        <ele>1426.6</ele>
        <time>2021-04-18T09:52:38Z</time>
      </trkpt>
      <trkpt lat="37.3018550" lon="-2.4741150">
        <ele>1426.8</ele>
        <time>2021-04-18T09:52:39Z</time>
      </trkpt>
      <trkpt lat="37.3018580" lon="-2.4741460">
        <ele>1427.0</ele>
        <time>2021-04-18T09:52:40Z</time>
      </trkpt>
      <trkpt lat="37.3018640" lon="-2.4741810">
        <ele>1427.2</ele>
        <time>2021-04-18T09:52:41Z</time>
      </trkpt>
      <trkpt lat="37.3018690" lon="-2.4742130">
        <ele>1427.4</ele>
        <time>2021-04-18T09:52:42Z</time>
      </trkpt>
      <trkpt lat="37.3018760" lon="-2.4742440">
        <ele>1427.4</ele>
        <time>2021-04-18T09:52:43Z</time>
      </trkpt>
      <trkpt lat="37.3018840" lon="-2.4742730">
        <ele>1427.6</ele>
        <time>2021-04-18T09:52:44Z</time>
      </trkpt>
      <trkpt lat="37.3018910" lon="-2.4743040">
        <ele>1427.8</ele>
        <time>2021-04-18T09:52:45Z</time>
      </trkpt>
      <trkpt lat="37.3018970" lon="-2.4743360">
        <ele>1427.8</ele>
        <time>2021-04-18T09:52:46Z</time>
      </trkpt>
      <trkpt lat="37.3018990" lon="-2.4743690">
        <ele>1428.0</ele>
        <time>2021-04-18T09:52:47Z</time>
      </trkpt>
      <trkpt lat="37.3019040" lon="-2.4744010">
        <ele>1428.2</ele>
        <time>2021-04-18T09:52:48Z</time>
      </trkpt>
      <trkpt lat="37.3019090" lon="-2.4744310">
        <ele>1428.2</ele>
        <time>2021-04-18T09:52:49Z</time>
      </trkpt>
      <trkpt lat="37.3019160" lon="-2.4744600">
        <ele>1428.4</ele>
        <time>2021-04-18T09:52:50Z</time>
      </trkpt>
      <trkpt lat="37.3019240" lon="-2.4744910">
        <ele>1428.6</ele>
        <time>2021-04-18T09:52:51Z</time>
      </trkpt>
      <trkpt lat="37.3019240" lon="-2.4745230">
        <ele>1428.8</ele>
        <time>2021-04-18T09:52:52Z</time>
      </trkpt>
      <trkpt lat="37.3019280" lon="-2.4745520">
        <ele>1428.8</ele>
        <time>2021-04-18T09:52:53Z</time>
      </trkpt>
      <trkpt lat="37.3019370" lon="-2.4745850">
        <ele>1429.0</ele>
        <time>2021-04-18T09:52:54Z</time>
      </trkpt>
      <trkpt lat="37.3019440" lon="-2.4746130">
        <ele>1429.2</ele>
        <time>2021-04-18T09:52:55Z</time>
      </trkpt>
      <trkpt lat="37.3019490" lon="-2.4746470">
        <ele>1429.4</ele>
        <time>2021-04-18T09:52:56Z</time>
      </trkpt>
      <trkpt lat="37.3019520" lon="-2.4746800">
        <ele>1429.6</ele>
        <time>2021-04-18T09:52:57Z</time>
      </trkpt>
      <trkpt lat="37.3019560" lon="-2.4747140">
        <ele>1429.8</ele>
        <time>2021-04-18T09:52:58Z</time>
      </trkpt>
      <trkpt lat="37.3019630" lon="-2.4747480">
        <ele>1430.0</ele>
        <time>2021-04-18T09:52:59Z</time>
      </trkpt>
      <trkpt lat="37.3019670" lon="-2.4747790">
        <ele>1430.2</ele>
        <time>2021-04-18T09:53:00Z</time>
      </trkpt>
      <trkpt lat="37.3019720" lon="-2.4748120">
        <ele>1430.2</ele>
        <time>2021-04-18T09:53:01Z</time>
      </trkpt>
      <trkpt lat="37.3019770" lon="-2.4748450">
        <ele>1430.4</ele>
        <time>2021-04-18T09:53:02Z</time>
      </trkpt>
      <trkpt lat="37.3019820" lon="-2.4748820">
        <ele>1430.4</ele>
        <time>2021-04-18T09:53:03Z</time>
      </trkpt>
      <trkpt lat="37.3019870" lon="-2.4749160">
        <ele>1430.8</ele>
        <time>2021-04-18T09:53:04Z</time>
      </trkpt>
      <trkpt lat="37.3019930" lon="-2.4749510">
        <ele>1431.0</ele>
        <time>2021-04-18T09:53:05Z</time>
      </trkpt>
      <trkpt lat="37.3019970" lon="-2.4749860">
        <ele>1431.4</ele>
        <time>2021-04-18T09:53:06Z</time>
      </trkpt>
      <trkpt lat="37.3019950" lon="-2.4750190">
        <ele>1431.6</ele>
        <time>2021-04-18T09:53:07Z</time>
      </trkpt>
      <trkpt lat="37.3019920" lon="-2.4750540">
        <ele>1431.6</ele>
        <time>2021-04-18T09:53:08Z</time>
      </trkpt>
      <trkpt lat="37.3019890" lon="-2.4750880">
        <ele>1432.0</ele>
        <time>2021-04-18T09:53:09Z</time>
      </trkpt>
      <trkpt lat="37.3019900" lon="-2.4751210">
        <ele>1432.2</ele>
        <time>2021-04-18T09:53:10Z</time>
      </trkpt>
      <trkpt lat="37.3019900" lon="-2.4751550">
        <ele>1432.2</ele>
        <time>2021-04-18T09:53:11Z</time>
      </trkpt>
      <trkpt lat="37.3019880" lon="-2.4751890">
        <ele>1432.4</ele>
        <time>2021-04-18T09:53:12Z</time>
      </trkpt>
      <trkpt lat="37.3019860" lon="-2.4752230">
        <ele>1432.4</ele>
        <time>2021-04-18T09:53:13Z</time>
      </trkpt>
      <trkpt lat="37.3019840" lon="-2.4752580">
        <ele>1432.6</ele>
        <time>2021-04-18T09:53:14Z</time>
      </trkpt>
      <trkpt lat="37.3019800" lon="-2.4752950">
        <ele>1432.8</ele>
        <time>2021-04-18T09:53:15Z</time>
      </trkpt>
      <trkpt lat="37.3019780" lon="-2.4753290">
        <ele>1433.0</ele>
        <time>2021-04-18T09:53:16Z</time>
      </trkpt>
      <trkpt lat="37.3019790" lon="-2.4753620">
        <ele>1433.0</ele>
        <time>2021-04-18T09:53:17Z</time>
      </trkpt>
      <trkpt lat="37.3019780" lon="-2.4753940">
        <ele>1433.2</ele>
        <time>2021-04-18T09:53:18Z</time>
      </trkpt>
      <trkpt lat="37.3019740" lon="-2.4754270">
        <ele>1433.6</ele>
        <time>2021-04-18T09:53:19Z</time>
      </trkpt>
      <trkpt lat="37.3019700" lon="-2.4754570">
        <ele>1433.6</ele>
        <time>2021-04-18T09:53:20Z</time>
      </trkpt>
      <trkpt lat="37.3019650" lon="-2.4754900">
        <ele>1434.0</ele>
        <time>2021-04-18T09:53:21Z</time>
      </trkpt>
      <trkpt lat="37.3019580" lon="-2.4755220">
        <ele>1434.4</ele>
        <time>2021-04-18T09:53:22Z</time>
      </trkpt>
      <trkpt lat="37.3019520" lon="-2.4755520">
        <ele>1434.6</ele>
        <time>2021-04-18T09:53:23Z</time>
      </trkpt>
      <trkpt lat="37.3019470" lon="-2.4755820">
        <ele>1434.6</ele>
        <time>2021-04-18T09:53:24Z</time>
      </trkpt>
      <trkpt lat="37.3019390" lon="-2.4756120">
        <ele>1434.8</ele>
        <time>2021-04-18T09:53:25Z</time>
      </trkpt>
      <trkpt lat="37.3019240" lon="-2.4756400">
        <ele>1434.8</ele>
        <time>2021-04-18T09:53:26Z</time>
      </trkpt>
      <trkpt lat="37.3019130" lon="-2.4756720">
        <ele>1434.8</ele>
        <time>2021-04-18T09:53:27Z</time>
      </trkpt>
      <trkpt lat="37.3019020" lon="-2.4757030">
        <ele>1435.0</ele>
        <time>2021-04-18T09:53:28Z</time>
      </trkpt>
      <trkpt lat="37.3018870" lon="-2.4757320">
        <ele>1435.0</ele>
        <time>2021-04-18T09:53:29Z</time>
      </trkpt>
      <trkpt lat="37.3018720" lon="-2.4757620">
        <ele>1435.2</ele>
        <time>2021-04-18T09:53:30Z</time>
      </trkpt>
      <trkpt lat="37.3018550" lon="-2.4757920">
        <ele>1435.4</ele>
        <time>2021-04-18T09:53:31Z</time>
      </trkpt>
      <trkpt lat="37.3018380" lon="-2.4758200">
        <ele>1435.4</ele>
        <time>2021-04-18T09:53:32Z</time>
      </trkpt>
      <trkpt lat="37.3018200" lon="-2.4758490">
        <ele>1435.4</ele>
        <time>2021-04-18T09:53:33Z</time>
      </trkpt>
      <trkpt lat="37.3018050" lon="-2.4758800">
        <ele>1435.6</ele>
        <time>2021-04-18T09:53:34Z</time>
      </trkpt>
      <trkpt lat="37.3017860" lon="-2.4759090">
        <ele>1435.6</ele>
        <time>2021-04-18T09:53:35Z</time>
      </trkpt>
      <trkpt lat="37.3017670" lon="-2.4759380">
        <ele>1435.8</ele>
        <time>2021-04-18T09:53:36Z</time>
      </trkpt>
      <trkpt lat="37.3017490" lon="-2.4759700">
        <ele>1435.8</ele>
        <time>2021-04-18T09:53:37Z</time>
      </trkpt>
      <trkpt lat="37.3017330" lon="-2.4759990">
        <ele>1436.0</ele>
        <time>2021-04-18T09:53:38Z</time>
      </trkpt>
      <trkpt lat="37.3017160" lon="-2.4760270">
        <ele>1436.0</ele>
        <time>2021-04-18T09:53:39Z</time>
      </trkpt>
      <trkpt lat="37.3016950" lon="-2.4760490">
        <ele>1436.0</ele>
        <time>2021-04-18T09:53:40Z</time>
      </trkpt>
      <trkpt lat="37.3016740" lon="-2.4760730">
        <ele>1436.0</ele>
        <time>2021-04-18T09:53:41Z</time>
      </trkpt>
      <trkpt lat="37.3016540" lon="-2.4760990">
        <ele>1436.2</ele>
        <time>2021-04-18T09:53:42Z</time>
      </trkpt>
      <trkpt lat="37.3016360" lon="-2.4761270">
        <ele>1436.2</ele>
        <time>2021-04-18T09:53:43Z</time>
      </trkpt>
      <trkpt lat="37.3016170" lon="-2.4761550">
        <ele>1436.4</ele>
        <time>2021-04-18T09:53:44Z</time>
      </trkpt>
      <trkpt lat="37.3016020" lon="-2.4761820">
        <ele>1436.4</ele>
        <time>2021-04-18T09:53:45Z</time>
      </trkpt>
      <trkpt lat="37.3015900" lon="-2.4762060">
        <ele>1436.4</ele>
        <time>2021-04-18T09:53:46Z</time>
      </trkpt>
      <trkpt lat="37.3015760" lon="-2.4762300">
        <ele>1436.4</ele>
        <time>2021-04-18T09:53:47Z</time>
      </trkpt>
      <trkpt lat="37.3015650" lon="-2.4762550">
        <ele>1436.6</ele>
        <time>2021-04-18T09:53:48Z</time>
      </trkpt>
      <trkpt lat="37.3015550" lon="-2.4762790">
        <ele>1436.6</ele>
        <time>2021-04-18T09:53:49Z</time>
      </trkpt>
      <trkpt lat="37.3015440" lon="-2.4763030">
        <ele>1436.8</ele>
        <time>2021-04-18T09:53:50Z</time>
      </trkpt>
      <trkpt lat="37.3015300" lon="-2.4763290">
        <ele>1436.8</ele>
        <time>2021-04-18T09:53:51Z</time>
      </trkpt>
      <trkpt lat="37.3015160" lon="-2.4763560">
        <ele>1437.2</ele>
        <time>2021-04-18T09:53:52Z</time>
      </trkpt>
      <trkpt lat="37.3015010" lon="-2.4763850">
        <ele>1437.2</ele>
        <time>2021-04-18T09:53:53Z</time>
      </trkpt>
      <trkpt lat="37.3014880" lon="-2.4764140">
        <ele>1437.6</ele>
        <time>2021-04-18T09:53:54Z</time>
      </trkpt>
      <trkpt lat="37.3014420" lon="-2.4765020">
        <ele>1437.8</ele>
        <time>2021-04-18T09:53:57Z</time>
      </trkpt>
      <trkpt lat="37.3014340" lon="-2.4765340">
        <ele>1438.2</ele>
        <time>2021-04-18T09:53:58Z</time>
      </trkpt>
      <trkpt lat="37.3014250" lon="-2.4765620">
        <ele>1438.4</ele>
        <time>2021-04-18T09:53:59Z</time>
      </trkpt>
      <trkpt lat="37.3014100" lon="-2.4765910">
        <ele>1438.6</ele>
        <time>2021-04-18T09:54:00Z</time>
      </trkpt>
      <trkpt lat="37.3013970" lon="-2.4766190">
        <ele>1438.8</ele>
        <time>2021-04-18T09:54:01Z</time>
      </trkpt>
      <trkpt lat="37.3013830" lon="-2.4766480">
        <ele>1439.0</ele>
        <time>2021-04-18T09:54:02Z</time>
      </trkpt>
      <trkpt lat="37.3013660" lon="-2.4766780">
        <ele>1439.2</ele>
        <time>2021-04-18T09:54:03Z</time>
      </trkpt>
      <trkpt lat="37.3013520" lon="-2.4767090">
        <ele>1439.6</ele>
        <time>2021-04-18T09:54:04Z</time>
      </trkpt>
      <trkpt lat="37.3013360" lon="-2.4767360">
        <ele>1439.8</ele>
        <time>2021-04-18T09:54:05Z</time>
      </trkpt>
      <trkpt lat="37.3013160" lon="-2.4767630">
        <ele>1440.0</ele>
        <time>2021-04-18T09:54:06Z</time>
      </trkpt>
      <trkpt lat="37.3012960" lon="-2.4767920">
        <ele>1440.4</ele>
        <time>2021-04-18T09:54:07Z</time>
      </trkpt>
      <trkpt lat="37.3012780" lon="-2.4768240">
        <ele>1440.8</ele>
        <time>2021-04-18T09:54:08Z</time>
      </trkpt>
      <trkpt lat="37.3012570" lon="-2.4768520">
        <ele>1441.2</ele>
        <time>2021-04-18T09:54:09Z</time>
      </trkpt>
      <trkpt lat="37.3012330" lon="-2.4768760">
        <ele>1441.4</ele>
        <time>2021-04-18T09:54:10Z</time>
      </trkpt>
      <trkpt lat="37.3012110" lon="-2.4769000">
        <ele>1441.8</ele>
        <time>2021-04-18T09:54:11Z</time>
      </trkpt>
      <trkpt lat="37.3011910" lon="-2.4769220">
        <ele>1441.8</ele>
        <time>2021-04-18T09:54:12Z</time>
      </trkpt>
      <trkpt lat="37.3011680" lon="-2.4769460">
        <ele>1442.0</ele>
        <time>2021-04-18T09:54:13Z</time>
      </trkpt>
      <trkpt lat="37.3011420" lon="-2.4769670">
        <ele>1442.4</ele>
        <time>2021-04-18T09:54:14Z</time>
      </trkpt>
      <trkpt lat="37.3011140" lon="-2.4769830">
        <ele>1442.6</ele>
        <time>2021-04-18T09:54:15Z</time>
      </trkpt>
      <trkpt lat="37.3010850" lon="-2.4769980">
        <ele>1443.0</ele>
        <time>2021-04-18T09:54:16Z</time>
      </trkpt>
      <trkpt lat="37.3010560" lon="-2.4770120">
        <ele>1443.2</ele>
        <time>2021-04-18T09:54:17Z</time>
      </trkpt>
      <trkpt lat="37.3010250" lon="-2.4770210">
        <ele>1443.4</ele>
        <time>2021-04-18T09:54:18Z</time>
      </trkpt>
      <trkpt lat="37.3009940" lon="-2.4770270">
        <ele>1443.8</ele>
        <time>2021-04-18T09:54:19Z</time>
      </trkpt>
      <trkpt lat="37.3009630" lon="-2.4770310">
        <ele>1444.0</ele>
        <time>2021-04-18T09:54:20Z</time>
      </trkpt>
      <trkpt lat="37.3009290" lon="-2.4770300">
        <ele>1444.2</ele>
        <time>2021-04-18T09:54:21Z</time>
      </trkpt>
      <trkpt lat="37.3008960" lon="-2.4770220">
        <ele>1444.2</ele>
        <time>2021-04-18T09:54:22Z</time>
      </trkpt>
      <trkpt lat="37.3008670" lon="-2.4770090">
        <ele>1444.6</ele>
        <time>2021-04-18T09:54:23Z</time>
      </trkpt>
      <trkpt lat="37.3008400" lon="-2.4769930">
        <ele>1444.8</ele>
        <time>2021-04-18T09:54:24Z</time>
      </trkpt>
      <trkpt lat="37.3008170" lon="-2.4769710">
        <ele>1445.4</ele>
        <time>2021-04-18T09:54:25Z</time>
      </trkpt>
      <trkpt lat="37.3007970" lon="-2.4769450">
        <ele>1446.0</ele>
        <time>2021-04-18T09:54:26Z</time>
      </trkpt>
      <trkpt lat="37.3007770" lon="-2.4769220">
        <ele>1446.2</ele>
        <time>2021-04-18T09:54:27Z</time>
      </trkpt>
      <trkpt lat="37.3007520" lon="-2.4768920">
        <ele>1446.4</ele>
        <time>2021-04-18T09:54:28Z</time>
      </trkpt>
      <trkpt lat="37.3007370" lon="-2.4768670">
        <ele>1446.6</ele>
        <time>2021-04-18T09:54:29Z</time>
      </trkpt>
      <trkpt lat="37.3007180" lon="-2.4768360">
        <ele>1446.8</ele>
        <time>2021-04-18T09:54:30Z</time>
      </trkpt>
      <trkpt lat="37.3006990" lon="-2.4768050">
        <ele>1446.8</ele>
        <time>2021-04-18T09:54:31Z</time>
      </trkpt>
      <trkpt lat="37.3006810" lon="-2.4767740">
        <ele>1447.0</ele>
        <time>2021-04-18T09:54:32Z</time>
      </trkpt>
      <trkpt lat="37.3006650" lon="-2.4767430">
        <ele>1447.2</ele>
        <time>2021-04-18T09:54:33Z</time>
      </trkpt>
      <trkpt lat="37.3006510" lon="-2.4767120">
        <ele>1447.4</ele>
        <time>2021-04-18T09:54:34Z</time>
      </trkpt>
      <trkpt lat="37.3006390" lon="-2.4766830">
        <ele>1447.4</ele>
        <time>2021-04-18T09:54:35Z</time>
      </trkpt>
      <trkpt lat="37.3006240" lon="-2.4766570">
        <ele>1447.6</ele>
        <time>2021-04-18T09:54:36Z</time>
      </trkpt>
      <trkpt lat="37.3006100" lon="-2.4766330">
        <ele>1447.8</ele>
        <time>2021-04-18T09:54:37Z</time>
      </trkpt>
      <trkpt lat="37.3005940" lon="-2.4766060">
        <ele>1448.0</ele>
        <time>2021-04-18T09:54:38Z</time>
      </trkpt>
      <trkpt lat="37.3005810" lon="-2.4765770">
        <ele>1448.0</ele>
        <time>2021-04-18T09:54:39Z</time>
      </trkpt>
      <trkpt lat="37.3005680" lon="-2.4765500">
        <ele>1448.2</ele>
        <time>2021-04-18T09:54:40Z</time>
      </trkpt>
      <trkpt lat="37.3005570" lon="-2.4765220">
        <ele>1448.4</ele>
        <time>2021-04-18T09:54:41Z</time>
      </trkpt>
      <trkpt lat="37.3005450" lon="-2.4764950">
        <ele>1448.6</ele>
        <time>2021-04-18T09:54:42Z</time>
      </trkpt>
      <trkpt lat="37.3005350" lon="-2.4764690">
        <ele>1448.8</ele>
        <time>2021-04-18T09:54:43Z</time>
      </trkpt>
      <trkpt lat="37.3005250" lon="-2.4764420">
        <ele>1449.0</ele>
        <time>2021-04-18T09:54:44Z</time>
      </trkpt>
      <trkpt lat="37.3005160" lon="-2.4764170">
        <ele>1449.2</ele>
        <time>2021-04-18T09:54:45Z</time>
      </trkpt>
      <trkpt lat="37.3005060" lon="-2.4763900">
        <ele>1449.4</ele>
        <time>2021-04-18T09:54:46Z</time>
      </trkpt>
      <trkpt lat="37.3004970" lon="-2.4763610">
        <ele>1449.4</ele>
        <time>2021-04-18T09:54:47Z</time>
      </trkpt>
      <trkpt lat="37.3004860" lon="-2.4763320">
        <ele>1449.6</ele>
        <time>2021-04-18T09:54:48Z</time>
      </trkpt>
      <trkpt lat="37.3004720" lon="-2.4763030">
        <ele>1449.8</ele>
        <time>2021-04-18T09:54:49Z</time>
      </trkpt>
      <trkpt lat="37.3004630" lon="-2.4762730">
        <ele>1449.8</ele>
        <time>2021-04-18T09:54:50Z</time>
      </trkpt>
      <trkpt lat="37.3004560" lon="-2.4762430">
        <ele>1450.0</ele>
        <time>2021-04-18T09:54:51Z</time>
      </trkpt>
      <trkpt lat="37.3004500" lon="-2.4762130">
        <ele>1450.0</ele>
        <time>2021-04-18T09:54:52Z</time>
      </trkpt>
      <trkpt lat="37.3004420" lon="-2.4761830">
        <ele>1450.2</ele>
        <time>2021-04-18T09:54:53Z</time>
      </trkpt>
      <trkpt lat="37.3004330" lon="-2.4761520">
        <ele>1450.2</ele>
        <time>2021-04-18T09:54:54Z</time>
      </trkpt>
      <trkpt lat="37.3004210" lon="-2.4761210">
        <ele>1450.4</ele>
        <time>2021-04-18T09:54:55Z</time>
      </trkpt>
      <trkpt lat="37.3004090" lon="-2.4760940">
        <ele>1450.6</ele>
        <time>2021-04-18T09:54:56Z</time>
      </trkpt>
      <trkpt lat="37.3003960" lon="-2.4760660">
        <ele>1450.8</ele>
        <time>2021-04-18T09:54:57Z</time>
      </trkpt>
      <trkpt lat="37.3003870" lon="-2.4760380">
        <ele>1450.8</ele>
        <time>2021-04-18T09:54:58Z</time>
      </trkpt>
      <trkpt lat="37.3003780" lon="-2.4760100">
        <ele>1451.0</ele>
        <time>2021-04-18T09:54:59Z</time>
      </trkpt>
      <trkpt lat="37.3003690" lon="-2.4759800">
        <ele>1451.0</ele>
        <time>2021-04-18T09:55:00Z</time>
      </trkpt>
      <trkpt lat="37.3003610" lon="-2.4759520">
        <ele>1451.2</ele>
        <time>2021-04-18T09:55:01Z</time>
      </trkpt>
      <trkpt lat="37.3003530" lon="-2.4759250">
        <ele>1451.2</ele>
        <time>2021-04-18T09:55:02Z</time>
      </trkpt>
      <trkpt lat="37.3003470" lon="-2.4758970">
        <ele>1451.4</ele>
        <time>2021-04-18T09:55:03Z</time>
      </trkpt>
      <trkpt lat="37.3003400" lon="-2.4758700">
        <ele>1451.6</ele>
        <time>2021-04-18T09:55:04Z</time>
      </trkpt>
      <trkpt lat="37.3003320" lon="-2.4758440">
        <ele>1451.8</ele>
        <time>2021-04-18T09:55:05Z</time>
      </trkpt>
      <trkpt lat="37.3003260" lon="-2.4758150">
        <ele>1451.8</ele>
        <time>2021-04-18T09:55:06Z</time>
      </trkpt>
      <trkpt lat="37.3003210" lon="-2.4757860">
        <ele>1452.0</ele>
        <time>2021-04-18T09:55:07Z</time>
      </trkpt>
      <trkpt lat="37.3003150" lon="-2.4757570">
        <ele>1452.0</ele>
        <time>2021-04-18T09:55:08Z</time>
      </trkpt>
      <trkpt lat="37.3003090" lon="-2.4757260">
        <ele>1452.2</ele>
        <time>2021-04-18T09:55:09Z</time>
      </trkpt>
      <trkpt lat="37.3003030" lon="-2.4756940">
        <ele>1452.2</ele>
        <time>2021-04-18T09:55:10Z</time>
      </trkpt>
      <trkpt lat="37.3002960" lon="-2.4756610">
        <ele>1452.4</ele>
        <time>2021-04-18T09:55:11Z</time>
      </trkpt>
      <trkpt lat="37.3002890" lon="-2.4756310">
        <ele>1452.6</ele>
        <time>2021-04-18T09:55:12Z</time>
      </trkpt>
      <trkpt lat="37.3002850" lon="-2.4755980">
        <ele>1452.6</ele>
        <time>2021-04-18T09:55:13Z</time>
      </trkpt>
      <trkpt lat="37.3002820" lon="-2.4755630">
        <ele>1452.8</ele>
        <time>2021-04-18T09:55:14Z</time>
      </trkpt>
      <trkpt lat="37.3002810" lon="-2.4755310">
        <ele>1453.2</ele>
        <time>2021-04-18T09:55:15Z</time>
      </trkpt>
      <trkpt lat="37.3002760" lon="-2.4754960">
        <ele>1453.2</ele>
        <time>2021-04-18T09:55:16Z</time>
      </trkpt>
      <trkpt lat="37.3002730" lon="-2.4754630">
        <ele>1453.4</ele>
        <time>2021-04-18T09:55:17Z</time>
      </trkpt>
      <trkpt lat="37.3002740" lon="-2.4754280">
        <ele>1453.6</ele>
        <time>2021-04-18T09:55:18Z</time>
      </trkpt>
      <trkpt lat="37.3002760" lon="-2.4753930">
        <ele>1453.6</ele>
        <time>2021-04-18T09:55:19Z</time>
      </trkpt>
      <trkpt lat="37.3002770" lon="-2.4753580">
        <ele>1453.8</ele>
        <time>2021-04-18T09:55:20Z</time>
      </trkpt>
      <trkpt lat="37.3002810" lon="-2.4753250">
        <ele>1454.0</ele>
        <time>2021-04-18T09:55:21Z</time>
      </trkpt>
      <trkpt lat="37.3002840" lon="-2.4752910">
        <ele>1454.0</ele>
        <time>2021-04-18T09:55:22Z</time>
      </trkpt>
      <trkpt lat="37.3002880" lon="-2.4752570">
        <ele>1454.2</ele>
        <time>2021-04-18T09:55:23Z</time>
      </trkpt>
      <trkpt lat="37.3002920" lon="-2.4752220">
        <ele>1454.2</ele>
        <time>2021-04-18T09:55:24Z</time>
      </trkpt>
      <trkpt lat="37.3002970" lon="-2.4751870">
        <ele>1454.4</ele>
        <time>2021-04-18T09:55:25Z</time>
      </trkpt>
      <trkpt lat="37.3003020" lon="-2.4751520">
        <ele>1454.4</ele>
        <time>2021-04-18T09:55:26Z</time>
      </trkpt>
      <trkpt lat="37.3003070" lon="-2.4751180">
        <ele>1454.6</ele>
        <time>2021-04-18T09:55:27Z</time>
      </trkpt>
      <trkpt lat="37.3003120" lon="-2.4750820">
        <ele>1455.0</ele>
        <time>2021-04-18T09:55:28Z</time>
      </trkpt>
      <trkpt lat="37.3003190" lon="-2.4750480">
        <ele>1454.8</ele>
        <time>2021-04-18T09:55:29Z</time>
      </trkpt>
      <trkpt lat="37.3003270" lon="-2.4750130">
        <ele>1455.0</ele>
        <time>2021-04-18T09:55:30Z</time>
      </trkpt>
      <trkpt lat="37.3003390" lon="-2.4749780">
        <ele>1455.0</ele>
        <time>2021-04-18T09:55:31Z</time>
      </trkpt>
      <trkpt lat="37.3003500" lon="-2.4749410">
        <ele>1455.2</ele>
        <time>2021-04-18T09:55:32Z</time>
      </trkpt>
      <trkpt lat="37.3003600" lon="-2.4749070">
        <ele>1455.2</ele>
        <time>2021-04-18T09:55:33Z</time>
      </trkpt>
      <trkpt lat="37.3003690" lon="-2.4748720">
        <ele>1455.4</ele>
        <time>2021-04-18T09:55:34Z</time>
      </trkpt>
      <trkpt lat="37.3003770" lon="-2.4748360">
        <ele>1455.4</ele>
        <time>2021-04-18T09:55:35Z</time>
      </trkpt>
      <trkpt lat="37.3003860" lon="-2.4748010">
        <ele>1455.6</ele>
        <time>2021-04-18T09:55:36Z</time>
      </trkpt>
      <trkpt lat="37.3003930" lon="-2.4747660">
        <ele>1455.8</ele>
        <time>2021-04-18T09:55:37Z</time>
      </trkpt>
      <trkpt lat="37.3003980" lon="-2.4747310">
        <ele>1455.8</ele>
        <time>2021-04-18T09:55:38Z</time>
      </trkpt>
      <trkpt lat="37.3004000" lon="-2.4746940">
        <ele>1456.0</ele>
        <time>2021-04-18T09:55:39Z</time>
      </trkpt>
      <trkpt lat="37.3004010" lon="-2.4746580">
        <ele>1456.0</ele>
        <time>2021-04-18T09:55:40Z</time>
      </trkpt>
      <trkpt lat="37.3004030" lon="-2.4746240">
        <ele>1456.0</ele>
        <time>2021-04-18T09:55:41Z</time>
      </trkpt>
      <trkpt lat="37.3004010" lon="-2.4745880">
        <ele>1456.2</ele>
        <time>2021-04-18T09:55:42Z</time>
      </trkpt>
      <trkpt lat="37.3003910" lon="-2.4745530">
        <ele>1456.2</ele>
        <time>2021-04-18T09:55:43Z</time>
      </trkpt>
      <trkpt lat="37.3003780" lon="-2.4745180">
        <ele>1456.2</ele>
        <time>2021-04-18T09:55:44Z</time>
      </trkpt>
      <trkpt lat="37.3003610" lon="-2.4744870">
        <ele>1456.4</ele>
        <time>2021-04-18T09:55:45Z</time>
      </trkpt>
      <trkpt lat="37.3003390" lon="-2.4744620">
        <ele>1456.6</ele>
        <time>2021-04-18T09:55:46Z</time>
      </trkpt>
      <trkpt lat="37.3003160" lon="-2.4744460">
        <ele>1456.6</ele>
        <time>2021-04-18T09:55:47Z</time>
      </trkpt>
      <trkpt lat="37.3002880" lon="-2.4744310">
        <ele>1456.8</ele>
        <time>2021-04-18T09:55:48Z</time>
      </trkpt>
      <trkpt lat="37.3002590" lon="-2.4744220">
        <ele>1457.2</ele>
        <time>2021-04-18T09:55:49Z</time>
      </trkpt>
      <trkpt lat="37.3002310" lon="-2.4744150">
        <ele>1457.6</ele>
        <time>2021-04-18T09:55:50Z</time>
      </trkpt>
      <trkpt lat="37.3002020" lon="-2.4744080">
        <ele>1457.6</ele>
        <time>2021-04-18T09:55:51Z</time>
      </trkpt>
      <trkpt lat="37.3001740" lon="-2.4744100">
        <ele>1457.8</ele>
        <time>2021-04-18T09:55:52Z</time>
      </trkpt>
      <trkpt lat="37.3001450" lon="-2.4744160">
        <ele>1458.0</ele>
        <time>2021-04-18T09:55:53Z</time>
      </trkpt>
      <trkpt lat="37.3001160" lon="-2.4744240">
        <ele>1458.2</ele>
        <time>2021-04-18T09:55:54Z</time>
      </trkpt>
      <trkpt lat="37.3000850" lon="-2.4744310">
        <ele>1458.4</ele>
        <time>2021-04-18T09:55:55Z</time>
      </trkpt>
      <trkpt lat="37.3000560" lon="-2.4744370">
        <ele>1458.6</ele>
        <time>2021-04-18T09:55:56Z</time>
      </trkpt>
      <trkpt lat="37.3000350" lon="-2.4744380">
        <ele>1458.8</ele>
        <time>2021-04-18T09:55:57Z</time>
      </trkpt>
      <trkpt lat="37.3000100" lon="-2.4744410">
        <ele>1458.8</ele>
        <time>2021-04-18T09:55:58Z</time>
      </trkpt>
      <trkpt lat="37.2999800" lon="-2.4744450">
        <ele>1459.2</ele>
        <time>2021-04-18T09:55:59Z</time>
      </trkpt>
      <trkpt lat="37.2999600" lon="-2.4744450">
        <ele>1459.4</ele>
        <time>2021-04-18T09:56:00Z</time>
      </trkpt>
      <trkpt lat="37.2999310" lon="-2.4744460">
        <ele>1459.6</ele>
        <time>2021-04-18T09:56:01Z</time>
      </trkpt>
      <trkpt lat="37.2999120" lon="-2.4744460">
        <ele>1460.0</ele>
        <time>2021-04-18T09:56:02Z</time>
      </trkpt>
      <trkpt lat="37.2998880" lon="-2.4744430">
        <ele>1460.2</ele>
        <time>2021-04-18T09:56:03Z</time>
      </trkpt>
      <trkpt lat="37.2998590" lon="-2.4744350">
        <ele>1460.6</ele>
        <time>2021-04-18T09:56:04Z</time>
      </trkpt>
      <trkpt lat="37.2998320" lon="-2.4744310">
        <ele>1460.6</ele>
        <time>2021-04-18T09:56:05Z</time>
      </trkpt>
      <trkpt lat="37.2998050" lon="-2.4744280">
        <ele>1461.0</ele>
        <time>2021-04-18T09:56:06Z</time>
      </trkpt>
      <trkpt lat="37.2997790" lon="-2.4744250">
        <ele>1461.2</ele>
        <time>2021-04-18T09:56:07Z</time>
      </trkpt>
      <trkpt lat="37.2997510" lon="-2.4744210">
        <ele>1461.4</ele>
        <time>2021-04-18T09:56:08Z</time>
      </trkpt>
      <trkpt lat="37.2997270" lon="-2.4744140">
        <ele>1461.6</ele>
        <time>2021-04-18T09:56:09Z</time>
      </trkpt>
      <trkpt lat="37.2997020" lon="-2.4744050">
        <ele>1461.6</ele>
        <time>2021-04-18T09:56:10Z</time>
      </trkpt>
      <trkpt lat="37.2996780" lon="-2.4743930">
        <ele>1462.0</ele>
        <time>2021-04-18T09:56:11Z</time>
      </trkpt>
      <trkpt lat="37.2996550" lon="-2.4743800">
        <ele>1462.0</ele>
        <time>2021-04-18T09:56:12Z</time>
      </trkpt>
      <trkpt lat="37.2996310" lon="-2.4743680">
        <ele>1462.2</ele>
        <time>2021-04-18T09:56:13Z</time>
      </trkpt>
      <trkpt lat="37.2996070" lon="-2.4743570">
        <ele>1462.4</ele>
        <time>2021-04-18T09:56:14Z</time>
      </trkpt>
      <trkpt lat="37.2995830" lon="-2.4743440">
        <ele>1462.4</ele>
        <time>2021-04-18T09:56:15Z</time>
      </trkpt>
      <trkpt lat="37.2995580" lon="-2.4743300">
        <ele>1462.6</ele>
        <time>2021-04-18T09:56:16Z</time>
      </trkpt>
      <trkpt lat="37.2995370" lon="-2.4743150">
        <ele>1462.6</ele>
        <time>2021-04-18T09:56:17Z</time>
      </trkpt>
      <trkpt lat="37.2995160" lon="-2.4742950">
        <ele>1462.6</ele>
        <time>2021-04-18T09:56:18Z</time>
      </trkpt>
      <trkpt lat="37.2994930" lon="-2.4742740">
        <ele>1462.6</ele>
        <time>2021-04-18T09:56:19Z</time>
      </trkpt>
      <trkpt lat="37.2994700" lon="-2.4742530">
        <ele>1462.6</ele>
        <time>2021-04-18T09:56:20Z</time>
      </trkpt>
      <trkpt lat="37.2994420" lon="-2.4742330">
        <ele>1462.8</ele>
        <time>2021-04-18T09:56:21Z</time>
      </trkpt>
      <trkpt lat="37.2994130" lon="-2.4742120">
        <ele>1462.8</ele>
        <time>2021-04-18T09:56:22Z</time>
      </trkpt>
      <trkpt lat="37.2993870" lon="-2.4741890">
        <ele>1462.8</ele>
        <time>2021-04-18T09:56:23Z</time>
      </trkpt>
      <trkpt lat="37.2993590" lon="-2.4741700">
        <ele>1463.0</ele>
        <time>2021-04-18T09:56:24Z</time>
      </trkpt>
      <trkpt lat="37.2993270" lon="-2.4741500">
        <ele>1463.0</ele>
        <time>2021-04-18T09:56:25Z</time>
      </trkpt>
      <trkpt lat="37.2992990" lon="-2.4741290">
        <ele>1463.2</ele>
        <time>2021-04-18T09:56:26Z</time>
      </trkpt>
      <trkpt lat="37.2992720" lon="-2.4741100">
        <ele>1463.4</ele>
        <time>2021-04-18T09:56:27Z</time>
      </trkpt>
      <trkpt lat="37.2992430" lon="-2.4740900">
        <ele>1463.6</ele>
        <time>2021-04-18T09:56:28Z</time>
      </trkpt>
      <trkpt lat="37.2992130" lon="-2.4740740">
        <ele>1463.8</ele>
        <time>2021-04-18T09:56:29Z</time>
      </trkpt>
      <trkpt lat="37.2991830" lon="-2.4740590">
        <ele>1464.0</ele>
        <time>2021-04-18T09:56:30Z</time>
      </trkpt>
      <trkpt lat="37.2991540" lon="-2.4740460">
        <ele>1464.2</ele>
        <time>2021-04-18T09:56:31Z</time>
      </trkpt>
      <trkpt lat="37.2991230" lon="-2.4740310">
        <ele>1464.4</ele>
        <time>2021-04-18T09:56:32Z</time>
      </trkpt>
      <trkpt lat="37.2990910" lon="-2.4740180">
        <ele>1464.6</ele>
        <time>2021-04-18T09:56:33Z</time>
      </trkpt>
      <trkpt lat="37.2990580" lon="-2.4740080">
        <ele>1464.8</ele>
        <time>2021-04-18T09:56:34Z</time>
      </trkpt>
      <trkpt lat="37.2990270" lon="-2.4740030">
        <ele>1465.0</ele>
        <time>2021-04-18T09:56:35Z</time>
      </trkpt>
      <trkpt lat="37.2989960" lon="-2.4740000">
        <ele>1465.2</ele>
        <time>2021-04-18T09:56:36Z</time>
      </trkpt>
      <trkpt lat="37.2989670" lon="-2.4739990">
        <ele>1465.4</ele>
        <time>2021-04-18T09:56:37Z</time>
      </trkpt>
      <trkpt lat="37.2989380" lon="-2.4739920">
        <ele>1465.6</ele>
        <time>2021-04-18T09:56:38Z</time>
      </trkpt>
      <trkpt lat="37.2989090" lon="-2.4739900">
        <ele>1465.8</ele>
        <time>2021-04-18T09:56:39Z</time>
      </trkpt>
      <trkpt lat="37.2988800" lon="-2.4739930">
        <ele>1465.8</ele>
        <time>2021-04-18T09:56:40Z</time>
      </trkpt>
      <trkpt lat="37.2988510" lon="-2.4739950">
        <ele>1466.0</ele>
        <time>2021-04-18T09:56:41Z</time>
      </trkpt>
      <trkpt lat="37.2988200" lon="-2.4739980">
        <ele>1466.4</ele>
        <time>2021-04-18T09:56:42Z</time>
      </trkpt>
      <trkpt lat="37.2987890" lon="-2.4740040">
        <ele>1466.6</ele>
        <time>2021-04-18T09:56:43Z</time>
      </trkpt>
      <trkpt lat="37.2987610" lon="-2.4740080">
        <ele>1467.0</ele>
        <time>2021-04-18T09:56:44Z</time>
      </trkpt>
      <trkpt lat="37.2987340" lon="-2.4740110">
        <ele>1467.2</ele>
        <time>2021-04-18T09:56:45Z</time>
      </trkpt>
      <trkpt lat="37.2987030" lon="-2.4740160">
        <ele>1467.4</ele>
        <time>2021-04-18T09:56:46Z</time>
      </trkpt>
      <trkpt lat="37.2986750" lon="-2.4740190">
        <ele>1467.8</ele>
        <time>2021-04-18T09:56:47Z</time>
      </trkpt>
      <trkpt lat="37.2986470" lon="-2.4740160">
        <ele>1468.0</ele>
        <time>2021-04-18T09:56:48Z</time>
      </trkpt>
      <trkpt lat="37.2986270" lon="-2.4740070">
        <ele>1468.6</ele>
        <time>2021-04-18T09:56:49Z</time>
      </trkpt>
      <trkpt lat="37.2985950" lon="-2.4739950">
        <ele>1469.0</ele>
        <time>2021-04-18T09:56:50Z</time>
      </trkpt>
      <trkpt lat="37.2985680" lon="-2.4739810">
        <ele>1469.2</ele>
        <time>2021-04-18T09:56:51Z</time>
      </trkpt>
      <trkpt lat="37.2985440" lon="-2.4739630">
        <ele>1469.4</ele>
        <time>2021-04-18T09:56:52Z</time>
      </trkpt>
      <trkpt lat="37.2985200" lon="-2.4739450">
        <ele>1469.6</ele>
        <time>2021-04-18T09:56:53Z</time>
      </trkpt>
      <trkpt lat="37.2984970" lon="-2.4739310">
        <ele>1470.0</ele>
        <time>2021-04-18T09:56:54Z</time>
      </trkpt>
      <trkpt lat="37.2984750" lon="-2.4739130">
        <ele>1470.2</ele>
        <time>2021-04-18T09:56:55Z</time>
      </trkpt>
      <trkpt lat="37.2984530" lon="-2.4738930">
        <ele>1470.4</ele>
        <time>2021-04-18T09:56:56Z</time>
      </trkpt>
      <trkpt lat="37.2984320" lon="-2.4738660">
        <ele>1470.6</ele>
        <time>2021-04-18T09:56:57Z</time>
      </trkpt>
      <trkpt lat="37.2984090" lon="-2.4738390">
        <ele>1470.8</ele>
        <time>2021-04-18T09:56:58Z</time>
      </trkpt>
      <trkpt lat="37.2983850" lon="-2.4738120">
        <ele>1470.8</ele>
        <time>2021-04-18T09:56:59Z</time>
      </trkpt>
      <trkpt lat="37.2983630" lon="-2.4737830">
        <ele>1471.0</ele>
        <time>2021-04-18T09:57:00Z</time>
      </trkpt>
      <trkpt lat="37.2983420" lon="-2.4737520">
        <ele>1471.2</ele>
        <time>2021-04-18T09:57:01Z</time>
      </trkpt>
      <trkpt lat="37.2983230" lon="-2.4737230">
        <ele>1471.4</ele>
        <time>2021-04-18T09:57:02Z</time>
      </trkpt>
      <trkpt lat="37.2983020" lon="-2.4736950">
        <ele>1471.8</ele>
        <time>2021-04-18T09:57:03Z</time>
      </trkpt>
      <trkpt lat="37.2982800" lon="-2.4736650">
        <ele>1472.0</ele>
        <time>2021-04-18T09:57:04Z</time>
      </trkpt>
      <trkpt lat="37.2982590" lon="-2.4736320">
        <ele>1472.0</ele>
        <time>2021-04-18T09:57:05Z</time>
      </trkpt>
      <trkpt lat="37.2982380" lon="-2.4735990">
        <ele>1472.0</ele>
        <time>2021-04-18T09:57:06Z</time>
      </trkpt>
      <trkpt lat="37.2982170" lon="-2.4735660">
        <ele>1472.2</ele>
        <time>2021-04-18T09:57:07Z</time>
      </trkpt>
      <trkpt lat="37.2981940" lon="-2.4735370">
        <ele>1472.2</ele>
        <time>2021-04-18T09:57:08Z</time>
      </trkpt>
      <trkpt lat="37.2981690" lon="-2.4735080">
        <ele>1472.4</ele>
        <time>2021-04-18T09:57:09Z</time>
      </trkpt>
      <trkpt lat="37.2981450" lon="-2.4734820">
        <ele>1472.4</ele>
        <time>2021-04-18T09:57:10Z</time>
      </trkpt>
      <trkpt lat="37.2981210" lon="-2.4734570">
        <ele>1472.6</ele>
        <time>2021-04-18T09:57:11Z</time>
      </trkpt>
      <trkpt lat="37.2980960" lon="-2.4734300">
        <ele>1472.6</ele>
        <time>2021-04-18T09:57:12Z</time>
      </trkpt>
      <trkpt lat="37.2980680" lon="-2.4734030">
        <ele>1472.8</ele>
        <time>2021-04-18T09:57:13Z</time>
      </trkpt>
      <trkpt lat="37.2980390" lon="-2.4733770">
        <ele>1472.8</ele>
        <time>2021-04-18T09:57:14Z</time>
      </trkpt>
      <trkpt lat="37.2980090" lon="-2.4733500">
        <ele>1473.0</ele>
        <time>2021-04-18T09:57:15Z</time>
      </trkpt>
      <trkpt lat="37.2979790" lon="-2.4733290">
        <ele>1473.0</ele>
        <time>2021-04-18T09:57:16Z</time>
      </trkpt>
      <trkpt lat="37.2979500" lon="-2.4733080">
        <ele>1473.0</ele>
        <time>2021-04-18T09:57:17Z</time>
      </trkpt>
      <trkpt lat="37.2979200" lon="-2.4732890">
        <ele>1473.0</ele>
        <time>2021-04-18T09:57:18Z</time>
      </trkpt>
      <trkpt lat="37.2978870" lon="-2.4732750">
        <ele>1473.2</ele>
        <time>2021-04-18T09:57:19Z</time>
      </trkpt>
      <trkpt lat="37.2978530" lon="-2.4732630">
        <ele>1473.4</ele>
        <time>2021-04-18T09:57:20Z</time>
      </trkpt>
      <trkpt lat="37.2978200" lon="-2.4732540">
        <ele>1473.6</ele>
        <time>2021-04-18T09:57:21Z</time>
      </trkpt>
      <trkpt lat="37.2977860" lon="-2.4732510">
        <ele>1473.8</ele>
        <time>2021-04-18T09:57:22Z</time>
      </trkpt>
      <trkpt lat="37.2977530" lon="-2.4732510">
        <ele>1474.0</ele>
        <time>2021-04-18T09:57:23Z</time>
      </trkpt>
      <trkpt lat="37.2977210" lon="-2.4732520">
        <ele>1474.2</ele>
        <time>2021-04-18T09:57:24Z</time>
      </trkpt>
      <trkpt lat="37.2976890" lon="-2.4732610">
        <ele>1474.4</ele>
        <time>2021-04-18T09:57:25Z</time>
      </trkpt>
      <trkpt lat="37.2976560" lon="-2.4732720">
        <ele>1474.6</ele>
        <time>2021-04-18T09:57:26Z</time>
      </trkpt>
      <trkpt lat="37.2976250" lon="-2.4732810">
        <ele>1474.8</ele>
        <time>2021-04-18T09:57:27Z</time>
      </trkpt>
      <trkpt lat="37.2975940" lon="-2.4732890">
        <ele>1475.0</ele>
        <time>2021-04-18T09:57:28Z</time>
      </trkpt>
      <trkpt lat="37.2975640" lon="-2.4733000">
        <ele>1475.0</ele>
        <time>2021-04-18T09:57:29Z</time>
      </trkpt>
      <trkpt lat="37.2975340" lon="-2.4733130">
        <ele>1475.4</ele>
        <time>2021-04-18T09:57:30Z</time>
      </trkpt>
      <trkpt lat="37.2975050" lon="-2.4733260">
        <ele>1475.6</ele>
        <time>2021-04-18T09:57:31Z</time>
      </trkpt>
      <trkpt lat="37.2974760" lon="-2.4733400">
        <ele>1475.8</ele>
        <time>2021-04-18T09:57:32Z</time>
      </trkpt>
      <trkpt lat="37.2974490" lon="-2.4733560">
        <ele>1476.0</ele>
        <time>2021-04-18T09:57:33Z</time>
      </trkpt>
      <trkpt lat="37.2974210" lon="-2.4733710">
        <ele>1476.2</ele>
        <time>2021-04-18T09:57:34Z</time>
      </trkpt>
      <trkpt lat="37.2973930" lon="-2.4733810">
        <ele>1476.4</ele>
        <time>2021-04-18T09:57:35Z</time>
      </trkpt>
      <trkpt lat="37.2973690" lon="-2.4733890">
        <ele>1476.6</ele>
        <time>2021-04-18T09:57:36Z</time>
      </trkpt>
      <trkpt lat="37.2973480" lon="-2.4733960">
        <ele>1477.0</ele>
        <time>2021-04-18T09:57:37Z</time>
      </trkpt>
      <trkpt lat="37.2973270" lon="-2.4734010">
        <ele>1477.0</ele>
        <time>2021-04-18T09:57:38Z</time>
      </trkpt>
      <trkpt lat="37.2973000" lon="-2.4734060">
        <ele>1477.2</ele>
        <time>2021-04-18T09:57:39Z</time>
      </trkpt>
      <trkpt lat="37.2972730" lon="-2.4734120">
        <ele>1477.4</ele>
        <time>2021-04-18T09:57:40Z</time>
      </trkpt>
      <trkpt lat="37.2972450" lon="-2.4734210">
        <ele>1477.6</ele>
        <time>2021-04-18T09:57:41Z</time>
      </trkpt>
      <trkpt lat="37.2972170" lon="-2.4734270">
        <ele>1478.0</ele>
        <time>2021-04-18T09:57:42Z</time>
      </trkpt>
      <trkpt lat="37.2971900" lon="-2.4734300">
        <ele>1478.0</ele>
        <time>2021-04-18T09:57:43Z</time>
      </trkpt>
      <trkpt lat="37.2971610" lon="-2.4734300">
        <ele>1478.2</ele>
        <time>2021-04-18T09:57:44Z</time>
      </trkpt>
      <trkpt lat="37.2971310" lon="-2.4734260">
        <ele>1478.4</ele>
        <time>2021-04-18T09:57:45Z</time>
      </trkpt>
      <trkpt lat="37.2971060" lon="-2.4734230">
        <ele>1478.4</ele>
        <time>2021-04-18T09:57:46Z</time>
      </trkpt>
      <trkpt lat="37.2970840" lon="-2.4734140">
        <ele>1478.4</ele>
        <time>2021-04-18T09:57:47Z</time>
      </trkpt>
      <trkpt lat="37.2970580" lon="-2.4733850">
        <ele>1478.4</ele>
        <time>2021-04-18T09:57:48Z</time>
      </trkpt>
      <trkpt lat="37.2970310" lon="-2.4733380">
        <ele>1478.6</ele>
        <time>2021-04-18T09:57:49Z</time>
      </trkpt>
      <trkpt lat="37.2970070" lon="-2.4732830">
        <ele>1478.6</ele>
        <time>2021-04-18T09:57:50Z</time>
      </trkpt>
      <trkpt lat="37.2969940" lon="-2.4732250">
        <ele>1479.0</ele>
        <time>2021-04-18T09:57:51Z</time>
      </trkpt>
      <trkpt lat="37.2969830" lon="-2.4731640">
        <ele>1479.2</ele>
        <time>2021-04-18T09:57:52Z</time>
      </trkpt>
      <trkpt lat="37.2969710" lon="-2.4730980">
        <ele>1479.0</ele>
        <time>2021-04-18T09:57:53Z</time>
      </trkpt>
      <trkpt lat="37.2969600" lon="-2.4730230">
        <ele>1479.2</ele>
        <time>2021-04-18T09:57:54Z</time>
      </trkpt>
      <trkpt lat="37.2969430" lon="-2.4729440">
        <ele>1479.4</ele>
        <time>2021-04-18T09:57:55Z</time>
      </trkpt>
      <trkpt lat="37.2969170" lon="-2.4728610">
        <ele>1479.6</ele>
        <time>2021-04-18T09:57:56Z</time>
      </trkpt>
      <trkpt lat="37.2968850" lon="-2.4727710">
        <ele>1479.6</ele>
        <time>2021-04-18T09:57:57Z</time>
      </trkpt>
      <trkpt lat="37.2968470" lon="-2.4726830">
        <ele>1479.8</ele>
        <time>2021-04-18T09:57:58Z</time>
      </trkpt>
      <trkpt lat="37.2968010" lon="-2.4725940">
        <ele>1479.8</ele>
        <time>2021-04-18T09:57:59Z</time>
      </trkpt>
      <trkpt lat="37.2967540" lon="-2.4725030">
        <ele>1479.8</ele>
        <time>2021-04-18T09:58:00Z</time>
      </trkpt>
      <trkpt lat="37.2967050" lon="-2.4724120">
        <ele>1479.8</ele>
        <time>2021-04-18T09:58:01Z</time>
      </trkpt>
      <trkpt lat="37.2966550" lon="-2.4723200">
        <ele>1479.6</ele>
        <time>2021-04-18T09:58:02Z</time>
      </trkpt>
      <trkpt lat="37.2966070" lon="-2.4722270">
        <ele>1479.6</ele>
        <time>2021-04-18T09:58:03Z</time>
      </trkpt>
      <trkpt lat="37.2965550" lon="-2.4721280">
        <ele>1479.4</ele>
        <time>2021-04-18T09:58:04Z</time>
      </trkpt>
      <trkpt lat="37.2965000" lon="-2.4720240">
        <ele>1479.4</ele>
        <time>2021-04-18T09:58:05Z</time>
      </trkpt>
      <trkpt lat="37.2964440" lon="-2.4719270">
        <ele>1479.2</ele>
        <time>2021-04-18T09:58:06Z</time>
      </trkpt>
      <trkpt lat="37.2963830" lon="-2.4718280">
        <ele>1479.0</ele>
        <time>2021-04-18T09:58:07Z</time>
      </trkpt>
      <trkpt lat="37.2963190" lon="-2.4717370">
        <ele>1479.0</ele>
        <time>2021-04-18T09:58:08Z</time>
      </trkpt>
      <trkpt lat="37.2962440" lon="-2.4716540">
        <ele>1478.8</ele>
        <time>2021-04-18T09:58:09Z</time>
      </trkpt>
      <trkpt lat="37.2961530" lon="-2.4715940">
        <ele>1478.6</ele>
        <time>2021-04-18T09:58:10Z</time>
      </trkpt>
      <trkpt lat="37.2960550" lon="-2.4715650">
        <ele>1478.4</ele>
        <time>2021-04-18T09:58:11Z</time>
      </trkpt>
      <trkpt lat="37.2959560" lon="-2.4715550">
        <ele>1478.4</ele>
        <time>2021-04-18T09:58:12Z</time>
      </trkpt>
      <trkpt lat="37.2958590" lon="-2.4715490">
        <ele>1478.4</ele>
        <time>2021-04-18T09:58:13Z</time>
      </trkpt>
      <trkpt lat="37.2957630" lon="-2.4715470">
        <ele>1478.4</ele>
        <time>2021-04-18T09:58:14Z</time>
      </trkpt>
      <trkpt lat="37.2955790" lon="-2.4715470">
        <ele>1478.2</ele>
        <time>2021-04-18T09:58:16Z</time>
      </trkpt>
      <trkpt lat="37.2954900" lon="-2.4715380">
        <ele>1478.2</ele>
        <time>2021-04-18T09:58:17Z</time>
      </trkpt>
      <trkpt lat="37.2954000" lon="-2.4715090">
        <ele>1478.2</ele>
        <time>2021-04-18T09:58:18Z</time>
      </trkpt>
      <trkpt lat="37.2953250" lon="-2.4714590">
        <ele>1478.0</ele>
        <time>2021-04-18T09:58:19Z</time>
      </trkpt>
      <trkpt lat="37.2952580" lon="-2.4713880">
        <ele>1478.0</ele>
        <time>2021-04-18T09:58:20Z</time>
      </trkpt>
      <trkpt lat="37.2951940" lon="-2.4713120">
        <ele>1477.8</ele>
        <time>2021-04-18T09:58:21Z</time>
      </trkpt>
      <trkpt lat="37.2951290" lon="-2.4712450">
        <ele>1477.6</ele>
        <time>2021-04-18T09:58:22Z</time>
      </trkpt>
      <trkpt lat="37.2950550" lon="-2.4711900">
        <ele>1477.2</ele>
        <time>2021-04-18T09:58:23Z</time>
      </trkpt>
      <trkpt lat="37.2949790" lon="-2.4711500">
        <ele>1477.0</ele>
        <time>2021-04-18T09:58:24Z</time>
      </trkpt>
      <trkpt lat="37.2949020" lon="-2.4711260">
        <ele>1477.0</ele>
        <time>2021-04-18T09:58:25Z</time>
      </trkpt>
      <trkpt lat="37.2948270" lon="-2.4711150">
        <ele>1477.0</ele>
        <time>2021-04-18T09:58:26Z</time>
      </trkpt>
      <trkpt lat="37.2947540" lon="-2.4711200">
        <ele>1477.0</ele>
        <time>2021-04-18T09:58:27Z</time>
      </trkpt>
      <trkpt lat="37.2946880" lon="-2.4711360">
        <ele>1477.0</ele>
        <time>2021-04-18T09:58:28Z</time>
      </trkpt>
      <trkpt lat="37.2946270" lon="-2.4711560">
        <ele>1477.0</ele>
        <time>2021-04-18T09:58:29Z</time>
      </trkpt>
      <trkpt lat="37.2945700" lon="-2.4711730">
        <ele>1477.0</ele>
        <time>2021-04-18T09:58:30Z</time>
      </trkpt>
      <trkpt lat="37.2945200" lon="-2.4711870">
        <ele>1477.2</ele>
        <time>2021-04-18T09:58:31Z</time>
      </trkpt>
      <trkpt lat="37.2944770" lon="-2.4711950">
        <ele>1477.4</ele>
        <time>2021-04-18T09:58:32Z</time>
      </trkpt>
      <trkpt lat="37.2944470" lon="-2.4711970">
        <ele>1477.4</ele>
        <time>2021-04-18T09:58:33Z</time>
      </trkpt>
      <trkpt lat="37.2944110" lon="-2.4712000">
        <ele>1477.6</ele>
        <time>2021-04-18T09:58:34Z</time>
      </trkpt>
      <trkpt lat="37.2943960" lon="-2.4712030">
        <ele>1477.6</ele>
        <time>2021-04-18T09:58:35Z</time>
      </trkpt>
      <trkpt lat="37.2943800" lon="-2.4712060">
        <ele>1477.6</ele>
        <time>2021-04-18T09:58:36Z</time>
      </trkpt>
      <trkpt lat="37.2943590" lon="-2.4712080">
        <ele>1477.8</ele>
        <time>2021-04-18T09:58:37Z</time>
      </trkpt>
      <trkpt lat="37.2943340" lon="-2.4712090">
        <ele>1478.0</ele>
        <time>2021-04-18T09:58:38Z</time>
      </trkpt>
      <trkpt lat="37.2943170" lon="-2.4712160">
        <ele>1478.2</ele>
        <time>2021-04-18T09:58:39Z</time>
      </trkpt>
      <trkpt lat="37.2942980" lon="-2.4712360">
        <ele>1478.2</ele>
        <time>2021-04-18T09:58:41Z</time>
      </trkpt>
      <trkpt lat="37.2942860" lon="-2.4712450">
        <ele>1478.6</ele>
        <time>2021-04-18T09:58:42Z</time>
      </trkpt>
      <trkpt lat="37.2942740" lon="-2.4712520">
        <ele>1478.8</ele>
        <time>2021-04-18T09:58:43Z</time>
      </trkpt>
      <trkpt lat="37.2942580" lon="-2.4712570">
        <ele>1479.2</ele>
        <time>2021-04-18T09:58:44Z</time>
      </trkpt>
      <trkpt lat="37.2942520" lon="-2.4712580">
        <ele>1479.4</ele>
        <time>2021-04-18T09:58:45Z</time>
      </trkpt>
      <trkpt lat="37.2942520" lon="-2.4712580">
        <ele>1479.4</ele>
        <time>2021-04-18T09:58:46Z</time>
      </trkpt>
      <trkpt lat="37.2942520" lon="-2.4712580">
        <ele>1479.6</ele>
        <time>2021-04-18T09:58:47Z</time>
      </trkpt>
      <trkpt lat="37.2942520" lon="-2.4712580">
        <ele>1479.6</ele>
        <time>2021-04-18T10:14:14Z</time>
      </trkpt>
      <trkpt lat="37.2942520" lon="-2.4712580">
        <ele>1479.6</ele>
        <time>2021-04-18T10:14:15Z</time>
      </trkpt>
      <trkpt lat="37.2942520" lon="-2.4712580">
        <ele>1479.6</ele>
        <time>2021-04-18T10:14:16Z</time>
      </trkpt>
      <trkpt lat="37.2942520" lon="-2.4712580">
        <ele>1479.6</ele>
        <time>2021-04-18T10:14:18Z</time>
      </trkpt>
      <trkpt lat="37.2942520" lon="-2.4712580">
        <ele>1479.6</ele>
        <time>2021-04-18T10:14:19Z</time>
      </trkpt>
      <trkpt lat="37.2942520" lon="-2.4712580">
        <ele>1479.6</ele>
        <time>2021-04-18T10:14:20Z</time>
      </trkpt>
      <trkpt lat="37.2942520" lon="-2.4712580">
        <ele>1479.6</ele>
        <time>2021-04-18T10:14:21Z</time>
      </trkpt>
      <trkpt lat="37.2942520" lon="-2.4712580">
        <ele>1479.6</ele>
        <time>2021-04-18T10:14:22Z</time>
      </trkpt>
      <trkpt lat="37.2942520" lon="-2.4712580">
        <ele>1479.6</ele>
        <time>2021-04-18T10:14:23Z</time>
      </trkpt>
      <trkpt lat="37.2942520" lon="-2.4712580">
        <ele>1479.6</ele>
        <time>2021-04-18T10:14:24Z</time>
      </trkpt>
      <trkpt lat="37.2942520" lon="-2.4712580">
        <ele>1479.6</ele>
        <time>2021-04-18T10:14:25Z</time>
      </trkpt>
      <trkpt lat="37.2942520" lon="-2.4712580">
        <ele>1479.6</ele>
        <time>2021-04-18T10:14:26Z</time>
      </trkpt>
      <trkpt lat="37.2942520" lon="-2.4712580">
        <ele>1479.6</ele>
        <time>2021-04-18T10:14:27Z</time>
      </trkpt>
      <trkpt lat="37.2942520" lon="-2.4712580">
        <ele>1479.6</ele>
        <time>2021-04-18T10:14:28Z</time>
      </trkpt>
      <trkpt lat="37.2942520" lon="-2.4712580">
        <ele>1479.6</ele>
        <time>2021-04-18T10:14:29Z</time>
      </trkpt>
      <trkpt lat="37.2942520" lon="-2.4712580">
        <ele>1479.6</ele>
        <time>2021-04-18T10:14:30Z</time>
      </trkpt>
      <trkpt lat="37.2942520" lon="-2.4712580">
        <ele>1479.6</ele>
        <time>2021-04-18T10:14:31Z</time>
      </trkpt>
      <trkpt lat="37.2942520" lon="-2.4712580">
        <ele>1479.6</ele>
        <time>2021-04-18T10:14:32Z</time>
      </trkpt>
      <trkpt lat="37.2942520" lon="-2.4712580">
        <ele>1479.6</ele>
        <time>2021-04-18T10:14:33Z</time>
      </trkpt>
      <trkpt lat="37.2942520" lon="-2.4712580">
        <ele>1479.6</ele>
        <time>2021-04-18T10:14:34Z</time>
      </trkpt>
      <trkpt lat="37.2942520" lon="-2.4712580">
        <ele>1479.6</ele>
        <time>2021-04-18T10:14:35Z</time>
      </trkpt>
      <trkpt lat="37.2942520" lon="-2.4712580">
        <ele>1479.6</ele>
        <time>2021-04-18T10:14:37Z</time>
      </trkpt>
      <trkpt lat="37.2942520" lon="-2.4712580">
        <ele>1479.6</ele>
        <time>2021-04-18T10:14:39Z</time>
      </trkpt>
      <trkpt lat="37.2942520" lon="-2.4712580">
        <ele>1479.6</ele>
        <time>2021-04-18T10:14:40Z</time>
      </trkpt>
      <trkpt lat="37.2942520" lon="-2.4712580">
        <ele>1479.6</ele>
        <time>2021-04-18T10:14:41Z</time>
      </trkpt>
      <trkpt lat="37.2942520" lon="-2.4712580">
        <ele>1479.6</ele>
        <time>2021-04-18T10:14:43Z</time>
      </trkpt>
      <trkpt lat="37.2942520" lon="-2.4712580">
        <ele>1479.6</ele>
        <time>2021-04-18T10:14:54Z</time>
      </trkpt>
      <trkpt lat="37.2942520" lon="-2.4712580">
        <ele>1479.6</ele>
        <time>2021-04-18T10:14:57Z</time>
      </trkpt>
      <trkpt lat="37.2942520" lon="-2.4712580">
        <ele>1479.6</ele>
        <time>2021-04-18T10:15:01Z</time>
      </trkpt>
      <trkpt lat="37.2942520" lon="-2.4712580">
        <ele>1479.6</ele>
        <time>2021-04-18T10:15:07Z</time>
      </trkpt>
      <trkpt lat="37.2942520" lon="-2.4712580">
        <ele>1479.6</ele>
        <time>2021-04-18T10:15:12Z</time>
      </trkpt>
      <trkpt lat="37.2942520" lon="-2.4712580">
        <ele>1479.6</ele>
        <time>2021-04-18T10:15:19Z</time>
      </trkpt>
      <trkpt lat="37.2942520" lon="-2.4712580">
        <ele>1479.6</ele>
        <time>2021-04-18T10:15:22Z</time>
      </trkpt>
      <trkpt lat="37.2942520" lon="-2.4712580">
        <ele>1479.6</ele>
        <time>2021-04-18T10:15:32Z</time>
      </trkpt>
      <trkpt lat="37.2942520" lon="-2.4712580">
        <ele>1479.6</ele>
        <time>2021-04-18T10:15:36Z</time>
      </trkpt>
      <trkpt lat="37.2942520" lon="-2.4712580">
        <ele>1479.6</ele>
        <time>2021-04-18T10:15:39Z</time>
      </trkpt>
      <trkpt lat="37.2942520" lon="-2.4712580">
        <ele>1479.6</ele>
        <time>2021-04-18T10:15:45Z</time>
      </trkpt>
      <trkpt lat="37.2942520" lon="-2.4712580">
        <ele>1479.6</ele>
        <time>2021-04-18T10:15:47Z</time>
      </trkpt>
      <trkpt lat="37.2942520" lon="-2.4712580">
        <ele>1479.6</ele>
        <time>2021-04-18T10:15:50Z</time>
      </trkpt>
      <trkpt lat="37.2942520" lon="-2.4712580">
        <ele>1479.6</ele>
        <time>2021-04-18T10:15:54Z</time>
      </trkpt>
      <trkpt lat="37.2942520" lon="-2.4712580">
        <ele>1479.6</ele>
        <time>2021-04-18T10:15:59Z</time>
      </trkpt>
      <trkpt lat="37.2942520" lon="-2.4712580">
        <ele>1479.6</ele>
        <time>2021-04-18T10:16:02Z</time>
      </trkpt>
      <trkpt lat="37.2942520" lon="-2.4712580">
        <ele>1479.6</ele>
        <time>2021-04-18T10:16:05Z</time>
      </trkpt>
      <trkpt lat="37.2942520" lon="-2.4712580">
        <ele>1479.6</ele>
        <time>2021-04-18T10:16:10Z</time>
      </trkpt>
      <trkpt lat="37.2942520" lon="-2.4712580">
        <ele>1479.6</ele>
        <time>2021-04-18T10:16:11Z</time>
      </trkpt>
      <trkpt lat="37.2942520" lon="-2.4712580">
        <ele>1479.6</ele>
        <time>2021-04-18T10:16:12Z</time>
      </trkpt>
      <trkpt lat="37.2942520" lon="-2.4712580">
        <ele>1479.6</ele>
        <time>2021-04-18T10:16:20Z</time>
      </trkpt>
      <trkpt lat="37.2942520" lon="-2.4712580">
        <ele>1479.6</ele>
        <time>2021-04-18T10:16:26Z</time>
      </trkpt>
      <trkpt lat="37.2942520" lon="-2.4712580">
        <ele>1479.6</ele>
        <time>2021-04-18T10:16:29Z</time>
      </trkpt>
      <trkpt lat="37.2942520" lon="-2.4712580">
        <ele>1479.6</ele>
        <time>2021-04-18T10:16:39Z</time>
      </trkpt>
      <trkpt lat="37.2942520" lon="-2.4712580">
        <ele>1479.6</ele>
        <time>2021-04-18T10:16:41Z</time>
      </trkpt>
      <trkpt lat="37.2942520" lon="-2.4712580">
        <ele>1479.6</ele>
        <time>2021-04-18T10:16:46Z</time>
      </trkpt>
      <trkpt lat="37.2942520" lon="-2.4712580">
        <ele>1479.6</ele>
        <time>2021-04-18T10:16:49Z</time>
      </trkpt>
      <trkpt lat="37.2942520" lon="-2.4712580">
        <ele>1479.6</ele>
        <time>2021-04-18T10:17:08Z</time>
      </trkpt>
      <trkpt lat="37.2942520" lon="-2.4712580">
        <ele>1479.6</ele>
        <time>2021-04-18T10:17:11Z</time>
      </trkpt>
      <trkpt lat="37.2942520" lon="-2.4712580">
        <ele>1479.6</ele>
        <time>2021-04-18T10:17:19Z</time>
      </trkpt>
      <trkpt lat="37.2942520" lon="-2.4712580">
        <ele>1479.6</ele>
        <time>2021-04-18T10:17:27Z</time>
      </trkpt>
      <trkpt lat="37.2942520" lon="-2.4712580">
        <ele>1479.6</ele>
        <time>2021-04-18T10:17:31Z</time>
      </trkpt>
      <trkpt lat="37.2942520" lon="-2.4712580">
        <ele>1479.6</ele>
        <time>2021-04-18T10:17:33Z</time>
      </trkpt>
      <trkpt lat="37.2942520" lon="-2.4712580">
        <ele>1479.6</ele>
        <time>2021-04-18T10:17:36Z</time>
      </trkpt>
      <trkpt lat="37.2942520" lon="-2.4712580">
        <ele>1479.6</ele>
        <time>2021-04-18T10:17:37Z</time>
      </trkpt>
      <trkpt lat="37.2942520" lon="-2.4712580">
        <ele>1479.6</ele>
        <time>2021-04-18T10:17:39Z</time>
      </trkpt>
      <trkpt lat="37.2942520" lon="-2.4712580">
        <ele>1479.6</ele>
        <time>2021-04-18T10:17:41Z</time>
      </trkpt>
      <trkpt lat="37.2942520" lon="-2.4712580">
        <ele>1479.6</ele>
        <time>2021-04-18T10:17:43Z</time>
      </trkpt>
      <trkpt lat="37.2942520" lon="-2.4712580">
        <ele>1479.6</ele>
        <time>2021-04-18T10:17:47Z</time>
      </trkpt>
      <trkpt lat="37.2942520" lon="-2.4712580">
        <ele>1479.6</ele>
        <time>2021-04-18T10:17:49Z</time>
      </trkpt>
      <trkpt lat="37.2942520" lon="-2.4712580">
        <ele>1479.6</ele>
        <time>2021-04-18T10:17:57Z</time>
      </trkpt>
      <trkpt lat="37.2942520" lon="-2.4712580">
        <ele>1479.6</ele>
        <time>2021-04-18T10:17:59Z</time>
      </trkpt>
      <trkpt lat="37.2942520" lon="-2.4712580">
        <ele>1479.6</ele>
        <time>2021-04-18T10:18:03Z</time>
      </trkpt>
      <trkpt lat="37.2942520" lon="-2.4712580">
        <ele>1479.6</ele>
        <time>2021-04-18T10:18:05Z</time>
      </trkpt>
      <trkpt lat="37.2942520" lon="-2.4712580">
        <ele>1479.6</ele>
        <time>2021-04-18T10:18:10Z</time>
      </trkpt>
      <trkpt lat="37.2942520" lon="-2.4712580">
        <ele>1479.6</ele>
        <time>2021-04-18T10:18:13Z</time>
      </trkpt>
      <trkpt lat="37.2942520" lon="-2.4712580">
        <ele>1479.6</ele>
        <time>2021-04-18T10:18:15Z</time>
      </trkpt>
      <trkpt lat="37.2942520" lon="-2.4712580">
        <ele>1479.6</ele>
        <time>2021-04-18T10:18:18Z</time>
      </trkpt>
      <trkpt lat="37.2942520" lon="-2.4712580">
        <ele>1479.6</ele>
        <time>2021-04-18T10:18:19Z</time>
      </trkpt>
      <trkpt lat="37.2942520" lon="-2.4712580">
        <ele>1479.6</ele>
        <time>2021-04-18T10:18:21Z</time>
      </trkpt>
      <trkpt lat="37.2942520" lon="-2.4712580">
        <ele>1479.6</ele>
        <time>2021-04-18T10:18:22Z</time>
      </trkpt>
      <trkpt lat="37.2942520" lon="-2.4712580">
        <ele>1479.6</ele>
        <time>2021-04-18T10:18:27Z</time>
      </trkpt>
      <trkpt lat="37.2942520" lon="-2.4712580">
        <ele>1479.6</ele>
        <time>2021-04-18T10:18:30Z</time>
      </trkpt>
      <trkpt lat="37.2942520" lon="-2.4712580">
        <ele>1479.6</ele>
        <time>2021-04-18T10:18:32Z</time>
      </trkpt>
      <trkpt lat="37.2942520" lon="-2.4712580">
        <ele>1479.6</ele>
        <time>2021-04-18T10:18:34Z</time>
      </trkpt>
      <trkpt lat="37.2942520" lon="-2.4712580">
        <ele>1479.6</ele>
        <time>2021-04-18T10:18:37Z</time>
      </trkpt>
      <trkpt lat="37.2942520" lon="-2.4712580">
        <ele>1479.6</ele>
        <time>2021-04-18T10:18:40Z</time>
      </trkpt>
      <trkpt lat="37.2942520" lon="-2.4712580">
        <ele>1479.6</ele>
        <time>2021-04-18T10:18:45Z</time>
      </trkpt>
      <trkpt lat="37.2942520" lon="-2.4712580">
        <ele>1479.6</ele>
        <time>2021-04-18T10:18:49Z</time>
      </trkpt>
      <trkpt lat="37.2942520" lon="-2.4712580">
        <ele>1479.6</ele>
        <time>2021-04-18T10:19:26Z</time>
      </trkpt>
      <trkpt lat="37.2942520" lon="-2.4712580">
        <ele>1479.6</ele>
        <time>2021-04-18T10:19:34Z</time>
      </trkpt>
      <trkpt lat="37.2942520" lon="-2.4712580">
        <ele>1479.6</ele>
        <time>2021-04-18T10:19:42Z</time>
      </trkpt>
      <trkpt lat="37.2942520" lon="-2.4712580">
        <ele>1479.6</ele>
        <time>2021-04-18T10:19:44Z</time>
      </trkpt>
      <trkpt lat="37.2942520" lon="-2.4712580">
        <ele>1479.6</ele>
        <time>2021-04-18T10:19:50Z</time>
      </trkpt>
      <trkpt lat="37.2942520" lon="-2.4712580">
        <ele>1479.6</ele>
        <time>2021-04-18T10:20:03Z</time>
      </trkpt>
      <trkpt lat="37.2942520" lon="-2.4712580">
        <ele>1479.6</ele>
        <time>2021-04-18T10:20:05Z</time>
      </trkpt>
      <trkpt lat="37.2942520" lon="-2.4712580">
        <ele>1479.6</ele>
        <time>2021-04-18T10:20:07Z</time>
      </trkpt>
    </trkseg>
  </trk>
</gpx>
